<?xml version='1.0' encoding='UTF-8' ?>
<gpx version="1.1" creator="S Health_0.2" xmlns="http://www.topografix.com/GPX/1/1" xmlns:gpxtpx="http://www.garmin.com/xmlschemas/TrackPointExtension/v1" xmlns:xsi="http://www.w3.org/2001/XMLSchema-instance" xsi:schemaLocation="http://www.topografix.com/GPX/1/1 http://www.topografix.com/GPX/1/1/gpx.xsd http://www.garmin.com/xmlschemas/TrackPointExtension/v1 http://www.garmin.com/xmlschemas/TrackPointExtensionv1.xsd">
  <metadate>2022-04-14T06:45:17Z</metadate>
  <trk>
    <name>Courgenoux_lafarge_20220414_084516.gpx</name>
    <trkseg>
      <trkpt lat="47.611485" lon="1.9636488">
        <ele>176.0</ele>
        <time>2022-04-14T06:45:17Z</time>
      </trkpt>
      <trkpt lat="47.611485" lon="1.9636488">
        <ele>176.0</ele>
        <time>2022-04-14T06:45:18Z</time>
      </trkpt>
      <trkpt lat="47.611485" lon="1.9636488">
        <ele>176.0</ele>
        <time>2022-04-14T06:45:19Z</time>
      </trkpt>
      <trkpt lat="47.611485" lon="1.9636488">
        <ele>176.0</ele>
        <time>2022-04-14T06:45:20Z</time>
      </trkpt>
      <trkpt lat="47.611485" lon="1.9636488">
        <ele>176.0</ele>
        <time>2022-04-14T06:45:21Z</time>
      </trkpt>
      <trkpt lat="47.611485" lon="1.9636488">
        <ele>176.0</ele>
        <time>2022-04-14T06:45:22Z</time>
      </trkpt>
      <trkpt lat="47.611485" lon="1.9636488">
        <ele>176.0</ele>
        <time>2022-04-14T06:45:23Z</time>
      </trkpt>
      <trkpt lat="47.611485" lon="1.9636488">
        <ele>176.0</ele>
        <time>2022-04-14T06:45:24Z</time>
      </trkpt>
      <trkpt lat="47.611492" lon="1.9636387">
        <ele>171.0</ele>
        <time>2022-04-14T06:45:25Z</time>
      </trkpt>
      <trkpt lat="47.611492" lon="1.9636394">
        <ele>170.0</ele>
        <time>2022-04-14T06:45:27Z</time>
      </trkpt>
      <trkpt lat="47.611492" lon="1.9636399">
        <ele>170.0</ele>
        <time>2022-04-14T06:45:28Z</time>
      </trkpt>
      <trkpt lat="47.611492" lon="1.9636399">
        <ele>170.0</ele>
        <time>2022-04-14T06:45:28Z</time>
      </trkpt>
      <trkpt lat="47.611492" lon="1.9636399">
        <ele>170.0</ele>
        <time>2022-04-14T06:45:28Z</time>
      </trkpt>
      <trkpt lat="47.611492" lon="1.9636399">
        <ele>170.0</ele>
        <time>2022-04-14T06:45:28Z</time>
      </trkpt>
      <trkpt lat="47.611492" lon="1.9636409">
        <ele>170.0</ele>
        <time>2022-04-14T06:45:59Z</time>
      </trkpt>
      <trkpt lat="47.611477" lon="1.9636487">
        <ele>167.0</ele>
        <time>2022-04-14T06:46:30Z</time>
      </trkpt>
      <trkpt lat="47.611477" lon="1.9636487">
        <ele>167.0</ele>
        <time>2022-04-14T06:46:31Z</time>
      </trkpt>
      <trkpt lat="47.611477" lon="1.9636487">
        <ele>167.0</ele>
        <time>2022-04-14T06:46:32Z</time>
      </trkpt>
      <trkpt lat="47.611477" lon="1.9636487">
        <ele>167.0</ele>
        <time>2022-04-14T06:46:33Z</time>
      </trkpt>
      <trkpt lat="47.611477" lon="1.9636487">
        <ele>167.0</ele>
        <time>2022-04-14T06:46:34Z</time>
      </trkpt>
      <trkpt lat="47.611477" lon="1.9636487">
        <ele>167.0</ele>
        <time>2022-04-14T06:46:35Z</time>
      </trkpt>
      <trkpt lat="47.611477" lon="1.9636487">
        <ele>167.0</ele>
        <time>2022-04-14T06:46:36Z</time>
      </trkpt>
      <trkpt lat="47.611477" lon="1.9636487">
        <ele>167.0</ele>
        <time>2022-04-14T06:46:37Z</time>
      </trkpt>
      <trkpt lat="47.61145" lon="1.9636785">
        <ele>169.0</ele>
        <time>2022-04-14T06:46:38Z</time>
      </trkpt>
      <trkpt lat="47.611443" lon="1.9636769">
        <ele>168.0</ele>
        <time>2022-04-14T06:46:40Z</time>
      </trkpt>
      <trkpt lat="47.611435" lon="1.9636742">
        <ele>168.0</ele>
        <time>2022-04-14T06:46:42Z</time>
      </trkpt>
      <trkpt lat="47.611435" lon="1.9636742">
        <ele>168.0</ele>
        <time>2022-04-14T06:46:42Z</time>
      </trkpt>
      <trkpt lat="47.611435" lon="1.9636742">
        <ele>168.0</ele>
        <time>2022-04-14T06:46:42Z</time>
      </trkpt>
      <trkpt lat="47.611443" lon="1.9635868">
        <ele>167.0</ele>
        <time>2022-04-14T07:00:18Z</time>
      </trkpt>
      <trkpt lat="47.611443" lon="1.9635792">
        <ele>167.0</ele>
        <time>2022-04-14T07:00:19Z</time>
      </trkpt>
      <trkpt lat="47.61145" lon="1.9635612">
        <ele>167.0</ele>
        <time>2022-04-14T07:00:21Z</time>
      </trkpt>
      <trkpt lat="47.61145" lon="1.9635619">
        <ele>167.0</ele>
        <time>2022-04-14T07:00:22Z</time>
      </trkpt>
      <trkpt lat="47.611454" lon="1.9635664">
        <ele>166.0</ele>
        <time>2022-04-14T07:00:23Z</time>
      </trkpt>
      <trkpt lat="47.611454" lon="1.9635646">
        <ele>166.0</ele>
        <time>2022-04-14T07:00:24Z</time>
      </trkpt>
      <trkpt lat="47.611454" lon="1.963563">
        <ele>166.0</ele>
        <time>2022-04-14T07:00:25Z</time>
      </trkpt>
      <trkpt lat="47.611454" lon="1.9635658">
        <ele>166.0</ele>
        <time>2022-04-14T07:00:26Z</time>
      </trkpt>
      <trkpt lat="47.61145" lon="1.9635618">
        <ele>167.0</ele>
        <time>2022-04-14T07:00:27Z</time>
      </trkpt>
      <trkpt lat="47.61145" lon="1.9635618">
        <ele>167.0</ele>
        <time>2022-04-14T07:00:27Z</time>
      </trkpt>
      <trkpt lat="47.61145" lon="1.9635618">
        <ele>167.0</ele>
        <time>2022-04-14T07:00:27Z</time>
      </trkpt>
      <trkpt lat="47.611446" lon="1.9634993">
        <ele>166.0</ele>
        <time>2022-04-14T07:00:59Z</time>
      </trkpt>
      <trkpt lat="47.611446" lon="1.9634712">
        <ele>166.0</ele>
        <time>2022-04-14T07:01:01Z</time>
      </trkpt>
      <trkpt lat="47.61145" lon="1.9634448">
        <ele>166.0</ele>
        <time>2022-04-14T07:01:03Z</time>
      </trkpt>
      <trkpt lat="47.61145" lon="1.963435">
        <ele>166.0</ele>
        <time>2022-04-14T07:01:04Z</time>
      </trkpt>
      <trkpt lat="47.61145" lon="1.9634213">
        <ele>166.0</ele>
        <time>2022-04-14T07:01:05Z</time>
      </trkpt>
      <trkpt lat="47.611454" lon="1.9634056">
        <ele>166.0</ele>
        <time>2022-04-14T07:01:06Z</time>
      </trkpt>
      <trkpt lat="47.611454" lon="1.9633895">
        <ele>166.0</ele>
        <time>2022-04-14T07:01:07Z</time>
      </trkpt>
      <trkpt lat="47.611458" lon="1.9633762">
        <ele>166.0</ele>
        <time>2022-04-14T07:01:08Z</time>
      </trkpt>
      <trkpt lat="47.61146" lon="1.963363">
        <ele>165.0</ele>
        <time>2022-04-14T07:01:09Z</time>
      </trkpt>
      <trkpt lat="47.61146" lon="1.9633484">
        <ele>166.0</ele>
        <time>2022-04-14T07:01:10Z</time>
      </trkpt>
      <trkpt lat="47.611465" lon="1.9633348">
        <ele>166.0</ele>
        <time>2022-04-14T07:01:11Z</time>
      </trkpt>
      <trkpt lat="47.61147" lon="1.9633236">
        <ele>166.0</ele>
        <time>2022-04-14T07:01:12Z</time>
      </trkpt>
      <trkpt lat="47.611473" lon="1.9633121">
        <ele>166.0</ele>
        <time>2022-04-14T07:01:14Z</time>
      </trkpt>
      <trkpt lat="47.61148" lon="1.9632993">
        <ele>166.0</ele>
        <time>2022-04-14T07:01:15Z</time>
      </trkpt>
      <trkpt lat="47.61149" lon="1.9632833">
        <ele>167.0</ele>
        <time>2022-04-14T07:01:16Z</time>
      </trkpt>
      <trkpt lat="47.611496" lon="1.9632697">
        <ele>167.0</ele>
        <time>2022-04-14T07:01:17Z</time>
      </trkpt>
      <trkpt lat="47.611496" lon="1.9632556">
        <ele>167.0</ele>
        <time>2022-04-14T07:01:18Z</time>
      </trkpt>
      <trkpt lat="47.611504" lon="1.9632444">
        <ele>167.0</ele>
        <time>2022-04-14T07:01:19Z</time>
      </trkpt>
      <trkpt lat="47.611507" lon="1.9632308">
        <ele>167.0</ele>
        <time>2022-04-14T07:01:20Z</time>
      </trkpt>
      <trkpt lat="47.611515" lon="1.963219">
        <ele>167.0</ele>
        <time>2022-04-14T07:01:21Z</time>
      </trkpt>
      <trkpt lat="47.611523" lon="1.9632037">
        <ele>167.0</ele>
        <time>2022-04-14T07:01:22Z</time>
      </trkpt>
      <trkpt lat="47.611526" lon="1.9631903">
        <ele>168.0</ele>
        <time>2022-04-14T07:01:23Z</time>
      </trkpt>
      <trkpt lat="47.611534" lon="1.9631742">
        <ele>168.0</ele>
        <time>2022-04-14T07:01:24Z</time>
      </trkpt>
      <trkpt lat="47.61154" lon="1.9631634">
        <ele>168.0</ele>
        <time>2022-04-14T07:01:25Z</time>
      </trkpt>
      <trkpt lat="47.61155" lon="1.9631535">
        <ele>168.0</ele>
        <time>2022-04-14T07:01:26Z</time>
      </trkpt>
      <trkpt lat="47.611557" lon="1.9631449">
        <ele>168.0</ele>
        <time>2022-04-14T07:01:27Z</time>
      </trkpt>
      <trkpt lat="47.61156" lon="1.9631374">
        <ele>168.0</ele>
        <time>2022-04-14T07:01:28Z</time>
      </trkpt>
      <trkpt lat="47.611565" lon="1.9631296">
        <ele>169.0</ele>
        <time>2022-04-14T07:01:29Z</time>
      </trkpt>
      <trkpt lat="47.611572" lon="1.9631236">
        <ele>169.0</ele>
        <time>2022-04-14T07:01:30Z</time>
      </trkpt>
      <trkpt lat="47.611576" lon="1.9631164">
        <ele>170.0</ele>
        <time>2022-04-14T07:01:31Z</time>
      </trkpt>
      <trkpt lat="47.611584" lon="1.9631162">
        <ele>171.0</ele>
        <time>2022-04-14T07:01:32Z</time>
      </trkpt>
      <trkpt lat="47.611588" lon="1.9631089">
        <ele>171.0</ele>
        <time>2022-04-14T07:01:33Z</time>
      </trkpt>
      <trkpt lat="47.611595" lon="1.9631025">
        <ele>172.0</ele>
        <time>2022-04-14T07:01:34Z</time>
      </trkpt>
      <trkpt lat="47.611603" lon="1.9631007">
        <ele>172.0</ele>
        <time>2022-04-14T07:01:35Z</time>
      </trkpt>
      <trkpt lat="47.61161" lon="1.9630926">
        <ele>172.0</ele>
        <time>2022-04-14T07:01:36Z</time>
      </trkpt>
      <trkpt lat="47.611626" lon="1.9630823">
        <ele>172.0</ele>
        <time>2022-04-14T07:01:37Z</time>
      </trkpt>
      <trkpt lat="47.61164" lon="1.9630736">
        <ele>172.0</ele>
        <time>2022-04-14T07:01:39Z</time>
      </trkpt>
      <trkpt lat="47.61165" lon="1.9630696">
        <ele>172.0</ele>
        <time>2022-04-14T07:01:40Z</time>
      </trkpt>
      <trkpt lat="47.611656" lon="1.96307">
        <ele>172.0</ele>
        <time>2022-04-14T07:01:41Z</time>
      </trkpt>
      <trkpt lat="47.611664" lon="1.9630672">
        <ele>172.0</ele>
        <time>2022-04-14T07:01:42Z</time>
      </trkpt>
      <trkpt lat="47.611675" lon="1.963068">
        <ele>172.0</ele>
        <time>2022-04-14T07:01:43Z</time>
      </trkpt>
      <trkpt lat="47.611683" lon="1.9630691">
        <ele>172.0</ele>
        <time>2022-04-14T07:01:44Z</time>
      </trkpt>
      <trkpt lat="47.611687" lon="1.9630637">
        <ele>172.0</ele>
        <time>2022-04-14T07:01:45Z</time>
      </trkpt>
      <trkpt lat="47.6117" lon="1.9630591">
        <ele>171.0</ele>
        <time>2022-04-14T07:01:46Z</time>
      </trkpt>
      <trkpt lat="47.611706" lon="1.9630558">
        <ele>171.0</ele>
        <time>2022-04-14T07:01:47Z</time>
      </trkpt>
      <trkpt lat="47.61171" lon="1.9630569">
        <ele>171.0</ele>
        <time>2022-04-14T07:01:48Z</time>
      </trkpt>
      <trkpt lat="47.61172" lon="1.9630527">
        <ele>170.0</ele>
        <time>2022-04-14T07:01:49Z</time>
      </trkpt>
      <trkpt lat="47.611732" lon="1.9630498">
        <ele>169.0</ele>
        <time>2022-04-14T07:01:50Z</time>
      </trkpt>
      <trkpt lat="47.611744" lon="1.9630482">
        <ele>169.0</ele>
        <time>2022-04-14T07:01:51Z</time>
      </trkpt>
      <trkpt lat="47.61175" lon="1.9630467">
        <ele>168.0</ele>
        <time>2022-04-14T07:01:52Z</time>
      </trkpt>
      <trkpt lat="47.61176" lon="1.9630535">
        <ele>168.0</ele>
        <time>2022-04-14T07:01:53Z</time>
      </trkpt>
      <trkpt lat="47.61177" lon="1.9630592">
        <ele>168.0</ele>
        <time>2022-04-14T07:01:54Z</time>
      </trkpt>
      <trkpt lat="47.61178" lon="1.9630595">
        <ele>167.0</ele>
        <time>2022-04-14T07:01:55Z</time>
      </trkpt>
      <trkpt lat="47.611786" lon="1.9630604">
        <ele>167.0</ele>
        <time>2022-04-14T07:01:56Z</time>
      </trkpt>
      <trkpt lat="47.611797" lon="1.9630654">
        <ele>166.0</ele>
        <time>2022-04-14T07:01:57Z</time>
      </trkpt>
      <trkpt lat="47.6118" lon="1.9630697">
        <ele>166.0</ele>
        <time>2022-04-14T07:01:58Z</time>
      </trkpt>
      <trkpt lat="47.611816" lon="1.9630764">
        <ele>165.0</ele>
        <time>2022-04-14T07:02:00Z</time>
      </trkpt>
      <trkpt lat="47.611824" lon="1.963081">
        <ele>164.0</ele>
        <time>2022-04-14T07:02:01Z</time>
      </trkpt>
      <trkpt lat="47.61183" lon="1.9630827">
        <ele>164.0</ele>
        <time>2022-04-14T07:02:02Z</time>
      </trkpt>
      <trkpt lat="47.61184" lon="1.9630839">
        <ele>164.0</ele>
        <time>2022-04-14T07:02:03Z</time>
      </trkpt>
      <trkpt lat="47.611847" lon="1.9630922">
        <ele>164.0</ele>
        <time>2022-04-14T07:02:04Z</time>
      </trkpt>
      <trkpt lat="47.61186" lon="1.9631003">
        <ele>164.0</ele>
        <time>2022-04-14T07:02:05Z</time>
      </trkpt>
      <trkpt lat="47.61187" lon="1.9631052">
        <ele>165.0</ele>
        <time>2022-04-14T07:02:06Z</time>
      </trkpt>
      <trkpt lat="47.61188" lon="1.9631106">
        <ele>166.0</ele>
        <time>2022-04-14T07:02:07Z</time>
      </trkpt>
      <trkpt lat="47.61189" lon="1.9631181">
        <ele>166.0</ele>
        <time>2022-04-14T07:02:09Z</time>
      </trkpt>
      <trkpt lat="47.611893" lon="1.9631217">
        <ele>166.0</ele>
        <time>2022-04-14T07:02:10Z</time>
      </trkpt>
      <trkpt lat="47.611904" lon="1.9631268">
        <ele>166.0</ele>
        <time>2022-04-14T07:02:11Z</time>
      </trkpt>
      <trkpt lat="47.611916" lon="1.9631295">
        <ele>166.0</ele>
        <time>2022-04-14T07:02:12Z</time>
      </trkpt>
      <trkpt lat="47.611923" lon="1.9631348">
        <ele>167.0</ele>
        <time>2022-04-14T07:02:13Z</time>
      </trkpt>
      <trkpt lat="47.611935" lon="1.9631393">
        <ele>166.0</ele>
        <time>2022-04-14T07:02:14Z</time>
      </trkpt>
      <trkpt lat="47.611946" lon="1.963143">
        <ele>166.0</ele>
        <time>2022-04-14T07:02:15Z</time>
      </trkpt>
      <trkpt lat="47.611954" lon="1.9631433">
        <ele>166.0</ele>
        <time>2022-04-14T07:02:16Z</time>
      </trkpt>
      <trkpt lat="47.61196" lon="1.9631442">
        <ele>166.0</ele>
        <time>2022-04-14T07:02:17Z</time>
      </trkpt>
      <trkpt lat="47.61197" lon="1.9631438">
        <ele>166.0</ele>
        <time>2022-04-14T07:02:18Z</time>
      </trkpt>
      <trkpt lat="47.61198" lon="1.9631455">
        <ele>166.0</ele>
        <time>2022-04-14T07:02:19Z</time>
      </trkpt>
      <trkpt lat="47.611988" lon="1.9631456">
        <ele>166.0</ele>
        <time>2022-04-14T07:02:20Z</time>
      </trkpt>
      <trkpt lat="47.61199" lon="1.9631473">
        <ele>166.0</ele>
        <time>2022-04-14T07:02:21Z</time>
      </trkpt>
      <trkpt lat="47.612" lon="1.9631487">
        <ele>166.0</ele>
        <time>2022-04-14T07:02:22Z</time>
      </trkpt>
      <trkpt lat="47.612" lon="1.9631445">
        <ele>166.0</ele>
        <time>2022-04-14T07:02:23Z</time>
      </trkpt>
      <trkpt lat="47.612003" lon="1.9631308">
        <ele>165.0</ele>
        <time>2022-04-14T07:02:24Z</time>
      </trkpt>
      <trkpt lat="47.61201" lon="1.9631222">
        <ele>165.0</ele>
        <time>2022-04-14T07:02:25Z</time>
      </trkpt>
      <trkpt lat="47.612015" lon="1.9631178">
        <ele>165.0</ele>
        <time>2022-04-14T07:02:26Z</time>
      </trkpt>
      <trkpt lat="47.612015" lon="1.9631081">
        <ele>164.0</ele>
        <time>2022-04-14T07:02:27Z</time>
      </trkpt>
      <trkpt lat="47.612022" lon="1.9630985">
        <ele>164.0</ele>
        <time>2022-04-14T07:02:28Z</time>
      </trkpt>
      <trkpt lat="47.612022" lon="1.9630985">
        <ele>164.0</ele>
        <time>2022-04-14T07:02:29Z</time>
      </trkpt>
      <trkpt lat="47.61203" lon="1.9630812">
        <ele>163.0</ele>
        <time>2022-04-14T07:02:30Z</time>
      </trkpt>
      <trkpt lat="47.61203" lon="1.9630678">
        <ele>162.0</ele>
        <time>2022-04-14T07:02:31Z</time>
      </trkpt>
      <trkpt lat="47.612034" lon="1.9630548">
        <ele>162.0</ele>
        <time>2022-04-14T07:02:32Z</time>
      </trkpt>
      <trkpt lat="47.612038" lon="1.9630452">
        <ele>161.0</ele>
        <time>2022-04-14T07:02:33Z</time>
      </trkpt>
      <trkpt lat="47.61204" lon="1.9630315">
        <ele>161.0</ele>
        <time>2022-04-14T07:02:34Z</time>
      </trkpt>
      <trkpt lat="47.612045" lon="1.9630233">
        <ele>162.0</ele>
        <time>2022-04-14T07:02:35Z</time>
      </trkpt>
      <trkpt lat="47.61205" lon="1.9630113">
        <ele>162.0</ele>
        <time>2022-04-14T07:02:36Z</time>
      </trkpt>
      <trkpt lat="47.61205" lon="1.9629948">
        <ele>162.0</ele>
        <time>2022-04-14T07:02:37Z</time>
      </trkpt>
      <trkpt lat="47.61204" lon="1.9629813">
        <ele>161.0</ele>
        <time>2022-04-14T07:02:38Z</time>
      </trkpt>
      <trkpt lat="47.61204" lon="1.9629755">
        <ele>162.0</ele>
        <time>2022-04-14T07:02:39Z</time>
      </trkpt>
      <trkpt lat="47.61204" lon="1.9629633">
        <ele>162.0</ele>
        <time>2022-04-14T07:02:40Z</time>
      </trkpt>
      <trkpt lat="47.612045" lon="1.9629514">
        <ele>161.0</ele>
        <time>2022-04-14T07:02:41Z</time>
      </trkpt>
      <trkpt lat="47.612045" lon="1.9629351">
        <ele>161.0</ele>
        <time>2022-04-14T07:02:42Z</time>
      </trkpt>
      <trkpt lat="47.61205" lon="1.9629241">
        <ele>161.0</ele>
        <time>2022-04-14T07:02:43Z</time>
      </trkpt>
      <trkpt lat="47.612045" lon="1.9629172">
        <ele>161.0</ele>
        <time>2022-04-14T07:02:44Z</time>
      </trkpt>
      <trkpt lat="47.61205" lon="1.9629074">
        <ele>160.0</ele>
        <time>2022-04-14T07:02:45Z</time>
      </trkpt>
      <trkpt lat="47.61205" lon="1.9628996">
        <ele>160.0</ele>
        <time>2022-04-14T07:02:46Z</time>
      </trkpt>
      <trkpt lat="47.61205" lon="1.9628996">
        <ele>160.0</ele>
        <time>2022-04-14T07:02:47Z</time>
      </trkpt>
      <trkpt lat="47.61205" lon="1.9628996">
        <ele>160.0</ele>
        <time>2022-04-14T07:02:48Z</time>
      </trkpt>
      <trkpt lat="47.61204" lon="1.9628704">
        <ele>160.0</ele>
        <time>2022-04-14T07:02:49Z</time>
      </trkpt>
      <trkpt lat="47.612038" lon="1.9628576">
        <ele>160.0</ele>
        <time>2022-04-14T07:02:50Z</time>
      </trkpt>
      <trkpt lat="47.612038" lon="1.9628439">
        <ele>160.0</ele>
        <time>2022-04-14T07:02:51Z</time>
      </trkpt>
      <trkpt lat="47.612034" lon="1.9628288">
        <ele>159.0</ele>
        <time>2022-04-14T07:02:52Z</time>
      </trkpt>
      <trkpt lat="47.612034" lon="1.9628161">
        <ele>159.0</ele>
        <time>2022-04-14T07:02:53Z</time>
      </trkpt>
      <trkpt lat="47.61203" lon="1.9628078">
        <ele>160.0</ele>
        <time>2022-04-14T07:02:54Z</time>
      </trkpt>
      <trkpt lat="47.61203" lon="1.9627979">
        <ele>160.0</ele>
        <time>2022-04-14T07:02:55Z</time>
      </trkpt>
      <trkpt lat="47.61203" lon="1.9627913">
        <ele>159.0</ele>
        <time>2022-04-14T07:02:56Z</time>
      </trkpt>
      <trkpt lat="47.61203" lon="1.9627895">
        <ele>159.0</ele>
        <time>2022-04-14T07:02:57Z</time>
      </trkpt>
      <trkpt lat="47.612034" lon="1.9627846">
        <ele>159.0</ele>
        <time>2022-04-14T07:02:58Z</time>
      </trkpt>
      <trkpt lat="47.612038" lon="1.9627726">
        <ele>159.0</ele>
        <time>2022-04-14T07:02:59Z</time>
      </trkpt>
      <trkpt lat="47.61204" lon="1.9627646">
        <ele>159.0</ele>
        <time>2022-04-14T07:03:00Z</time>
      </trkpt>
      <trkpt lat="47.612045" lon="1.9627546">
        <ele>159.0</ele>
        <time>2022-04-14T07:03:01Z</time>
      </trkpt>
      <trkpt lat="47.61205" lon="1.9627432">
        <ele>159.0</ele>
        <time>2022-04-14T07:03:02Z</time>
      </trkpt>
      <trkpt lat="47.612057" lon="1.9627312">
        <ele>159.0</ele>
        <time>2022-04-14T07:03:03Z</time>
      </trkpt>
      <trkpt lat="47.612057" lon="1.9627215">
        <ele>158.0</ele>
        <time>2022-04-14T07:03:04Z</time>
      </trkpt>
      <trkpt lat="47.61206" lon="1.9627132">
        <ele>158.0</ele>
        <time>2022-04-14T07:03:05Z</time>
      </trkpt>
      <trkpt lat="47.61206" lon="1.9627132">
        <ele>158.0</ele>
        <time>2022-04-14T07:03:06Z</time>
      </trkpt>
      <trkpt lat="47.61206" lon="1.9627132">
        <ele>158.0</ele>
        <time>2022-04-14T07:03:07Z</time>
      </trkpt>
      <trkpt lat="47.61207" lon="1.9626921">
        <ele>158.0</ele>
        <time>2022-04-14T07:03:08Z</time>
      </trkpt>
      <trkpt lat="47.612072" lon="1.9626845">
        <ele>158.0</ele>
        <time>2022-04-14T07:03:09Z</time>
      </trkpt>
      <trkpt lat="47.612072" lon="1.9626797">
        <ele>157.0</ele>
        <time>2022-04-14T07:03:10Z</time>
      </trkpt>
      <trkpt lat="47.612076" lon="1.9626739">
        <ele>157.0</ele>
        <time>2022-04-14T07:03:11Z</time>
      </trkpt>
      <trkpt lat="47.612076" lon="1.9626739">
        <ele>157.0</ele>
        <time>2022-04-14T07:03:12Z</time>
      </trkpt>
      <trkpt lat="47.612076" lon="1.9626739">
        <ele>157.0</ele>
        <time>2022-04-14T07:03:13Z</time>
      </trkpt>
      <trkpt lat="47.612076" lon="1.9626739">
        <ele>157.0</ele>
        <time>2022-04-14T07:03:14Z</time>
      </trkpt>
      <trkpt lat="47.612064" lon="1.9626456">
        <ele>156.0</ele>
        <time>2022-04-14T07:03:15Z</time>
      </trkpt>
      <trkpt lat="47.61206" lon="1.9626323">
        <ele>156.0</ele>
        <time>2022-04-14T07:03:16Z</time>
      </trkpt>
      <trkpt lat="47.61206" lon="1.9626222">
        <ele>156.0</ele>
        <time>2022-04-14T07:03:17Z</time>
      </trkpt>
      <trkpt lat="47.612057" lon="1.9626148">
        <ele>156.0</ele>
        <time>2022-04-14T07:03:18Z</time>
      </trkpt>
      <trkpt lat="47.612057" lon="1.9626148">
        <ele>156.0</ele>
        <time>2022-04-14T07:03:19Z</time>
      </trkpt>
      <trkpt lat="47.612057" lon="1.9626148">
        <ele>156.0</ele>
        <time>2022-04-14T07:03:20Z</time>
      </trkpt>
      <trkpt lat="47.612064" lon="1.9625887">
        <ele>156.0</ele>
        <time>2022-04-14T07:03:21Z</time>
      </trkpt>
      <trkpt lat="47.612064" lon="1.962576">
        <ele>156.0</ele>
        <time>2022-04-14T07:03:22Z</time>
      </trkpt>
      <trkpt lat="47.61207" lon="1.9625682">
        <ele>156.0</ele>
        <time>2022-04-14T07:03:23Z</time>
      </trkpt>
      <trkpt lat="47.612064" lon="1.9625542">
        <ele>155.0</ele>
        <time>2022-04-14T07:03:24Z</time>
      </trkpt>
      <trkpt lat="47.612064" lon="1.9625542">
        <ele>155.0</ele>
        <time>2022-04-14T07:03:25Z</time>
      </trkpt>
      <trkpt lat="47.612064" lon="1.9625319">
        <ele>154.0</ele>
        <time>2022-04-14T07:03:26Z</time>
      </trkpt>
      <trkpt lat="47.612072" lon="1.9625205">
        <ele>153.0</ele>
        <time>2022-04-14T07:03:27Z</time>
      </trkpt>
      <trkpt lat="47.612076" lon="1.962507">
        <ele>153.0</ele>
        <time>2022-04-14T07:03:28Z</time>
      </trkpt>
      <trkpt lat="47.612076" lon="1.9624963">
        <ele>153.0</ele>
        <time>2022-04-14T07:03:29Z</time>
      </trkpt>
      <trkpt lat="47.612076" lon="1.9624963">
        <ele>153.0</ele>
        <time>2022-04-14T07:03:30Z</time>
      </trkpt>
      <trkpt lat="47.612076" lon="1.9624963">
        <ele>153.0</ele>
        <time>2022-04-14T07:03:31Z</time>
      </trkpt>
      <trkpt lat="47.612083" lon="1.9624714">
        <ele>152.0</ele>
        <time>2022-04-14T07:03:32Z</time>
      </trkpt>
      <trkpt lat="47.612083" lon="1.9624587">
        <ele>152.0</ele>
        <time>2022-04-14T07:03:33Z</time>
      </trkpt>
      <trkpt lat="47.612087" lon="1.9624455">
        <ele>152.0</ele>
        <time>2022-04-14T07:03:34Z</time>
      </trkpt>
      <trkpt lat="47.612087" lon="1.9624338">
        <ele>151.0</ele>
        <time>2022-04-14T07:03:35Z</time>
      </trkpt>
      <trkpt lat="47.612087" lon="1.9624219">
        <ele>151.0</ele>
        <time>2022-04-14T07:03:36Z</time>
      </trkpt>
      <trkpt lat="47.612087" lon="1.9624084">
        <ele>151.0</ele>
        <time>2022-04-14T07:03:37Z</time>
      </trkpt>
      <trkpt lat="47.61209" lon="1.9623917">
        <ele>151.0</ele>
        <time>2022-04-14T07:03:38Z</time>
      </trkpt>
      <trkpt lat="47.61209" lon="1.9623756">
        <ele>151.0</ele>
        <time>2022-04-14T07:03:39Z</time>
      </trkpt>
      <trkpt lat="47.61209" lon="1.9623613">
        <ele>151.0</ele>
        <time>2022-04-14T07:03:40Z</time>
      </trkpt>
      <trkpt lat="47.612095" lon="1.9623463">
        <ele>150.0</ele>
        <time>2022-04-14T07:03:41Z</time>
      </trkpt>
      <trkpt lat="47.612095" lon="1.9623309">
        <ele>150.0</ele>
        <time>2022-04-14T07:03:42Z</time>
      </trkpt>
      <trkpt lat="47.6121" lon="1.9623166">
        <ele>149.0</ele>
        <time>2022-04-14T07:03:43Z</time>
      </trkpt>
      <trkpt lat="47.612103" lon="1.9622971">
        <ele>149.0</ele>
        <time>2022-04-14T07:03:44Z</time>
      </trkpt>
      <trkpt lat="47.612103" lon="1.9622825">
        <ele>149.0</ele>
        <time>2022-04-14T07:03:45Z</time>
      </trkpt>
      <trkpt lat="47.612114" lon="1.962266">
        <ele>149.0</ele>
        <time>2022-04-14T07:03:46Z</time>
      </trkpt>
      <trkpt lat="47.612114" lon="1.962266">
        <ele>149.0</ele>
        <time>2022-04-14T07:03:47Z</time>
      </trkpt>
      <trkpt lat="47.612114" lon="1.962266">
        <ele>149.0</ele>
        <time>2022-04-14T07:03:48Z</time>
      </trkpt>
      <trkpt lat="47.612118" lon="1.9622247">
        <ele>148.0</ele>
        <time>2022-04-14T07:03:49Z</time>
      </trkpt>
      <trkpt lat="47.612118" lon="1.962212">
        <ele>148.0</ele>
        <time>2022-04-14T07:03:50Z</time>
      </trkpt>
      <trkpt lat="47.612118" lon="1.9622005">
        <ele>148.0</ele>
        <time>2022-04-14T07:03:51Z</time>
      </trkpt>
      <trkpt lat="47.612118" lon="1.9621894">
        <ele>148.0</ele>
        <time>2022-04-14T07:03:52Z</time>
      </trkpt>
      <trkpt lat="47.612118" lon="1.9621894">
        <ele>148.0</ele>
        <time>2022-04-14T07:03:53Z</time>
      </trkpt>
      <trkpt lat="47.612118" lon="1.9621894">
        <ele>148.0</ele>
        <time>2022-04-14T07:03:54Z</time>
      </trkpt>
      <trkpt lat="47.61211" lon="1.9621679">
        <ele>147.0</ele>
        <time>2022-04-14T07:03:55Z</time>
      </trkpt>
      <trkpt lat="47.612114" lon="1.9621543">
        <ele>147.0</ele>
        <time>2022-04-14T07:03:56Z</time>
      </trkpt>
      <trkpt lat="47.612114" lon="1.9621394">
        <ele>148.0</ele>
        <time>2022-04-14T07:03:57Z</time>
      </trkpt>
      <trkpt lat="47.612114" lon="1.9621218">
        <ele>147.0</ele>
        <time>2022-04-14T07:03:58Z</time>
      </trkpt>
      <trkpt lat="47.612118" lon="1.962109">
        <ele>148.0</ele>
        <time>2022-04-14T07:03:59Z</time>
      </trkpt>
      <trkpt lat="47.612114" lon="1.962096">
        <ele>148.0</ele>
        <time>2022-04-14T07:04:00Z</time>
      </trkpt>
      <trkpt lat="47.612114" lon="1.9620812">
        <ele>147.0</ele>
        <time>2022-04-14T07:04:01Z</time>
      </trkpt>
      <trkpt lat="47.612114" lon="1.9620812">
        <ele>147.0</ele>
        <time>2022-04-14T07:04:02Z</time>
      </trkpt>
      <trkpt lat="47.612114" lon="1.9620812">
        <ele>147.0</ele>
        <time>2022-04-14T07:04:03Z</time>
      </trkpt>
      <trkpt lat="47.61211" lon="1.962053">
        <ele>146.0</ele>
        <time>2022-04-14T07:04:04Z</time>
      </trkpt>
      <trkpt lat="47.612114" lon="1.962043">
        <ele>146.0</ele>
        <time>2022-04-14T07:04:05Z</time>
      </trkpt>
      <trkpt lat="47.612118" lon="1.962036">
        <ele>146.0</ele>
        <time>2022-04-14T07:04:06Z</time>
      </trkpt>
      <trkpt lat="47.612118" lon="1.962028">
        <ele>146.0</ele>
        <time>2022-04-14T07:04:07Z</time>
      </trkpt>
      <trkpt lat="47.612118" lon="1.962028">
        <ele>146.0</ele>
        <time>2022-04-14T07:04:08Z</time>
      </trkpt>
      <trkpt lat="47.612118" lon="1.962028">
        <ele>146.0</ele>
        <time>2022-04-14T07:04:09Z</time>
      </trkpt>
      <trkpt lat="47.612133" lon="1.9619952">
        <ele>146.0</ele>
        <time>2022-04-14T07:04:10Z</time>
      </trkpt>
      <trkpt lat="47.612133" lon="1.9619813">
        <ele>146.0</ele>
        <time>2022-04-14T07:04:11Z</time>
      </trkpt>
      <trkpt lat="47.612137" lon="1.961968">
        <ele>145.0</ele>
        <time>2022-04-14T07:04:12Z</time>
      </trkpt>
      <trkpt lat="47.61214" lon="1.9619502">
        <ele>144.0</ele>
        <time>2022-04-14T07:04:13Z</time>
      </trkpt>
      <trkpt lat="47.612144" lon="1.961934">
        <ele>144.0</ele>
        <time>2022-04-14T07:04:14Z</time>
      </trkpt>
      <trkpt lat="47.61215" lon="1.9619215">
        <ele>144.0</ele>
        <time>2022-04-14T07:04:15Z</time>
      </trkpt>
      <trkpt lat="47.612152" lon="1.9619086">
        <ele>143.0</ele>
        <time>2022-04-14T07:04:16Z</time>
      </trkpt>
      <trkpt lat="47.612152" lon="1.9619086">
        <ele>143.0</ele>
        <time>2022-04-14T07:04:17Z</time>
      </trkpt>
      <trkpt lat="47.612152" lon="1.9619086">
        <ele>143.0</ele>
        <time>2022-04-14T07:04:18Z</time>
      </trkpt>
      <trkpt lat="47.612152" lon="1.9618772">
        <ele>143.0</ele>
        <time>2022-04-14T07:04:19Z</time>
      </trkpt>
      <trkpt lat="47.61215" lon="1.9618618">
        <ele>142.0</ele>
        <time>2022-04-14T07:04:20Z</time>
      </trkpt>
      <trkpt lat="47.612156" lon="1.9618464">
        <ele>142.0</ele>
        <time>2022-04-14T07:04:21Z</time>
      </trkpt>
      <trkpt lat="47.61216" lon="1.961831">
        <ele>142.0</ele>
        <time>2022-04-14T07:04:22Z</time>
      </trkpt>
      <trkpt lat="47.61216" lon="1.961831">
        <ele>142.0</ele>
        <time>2022-04-14T07:04:23Z</time>
      </trkpt>
      <trkpt lat="47.61216" lon="1.961831">
        <ele>142.0</ele>
        <time>2022-04-14T07:04:24Z</time>
      </trkpt>
      <trkpt lat="47.612167" lon="1.9617954">
        <ele>142.0</ele>
        <time>2022-04-14T07:04:25Z</time>
      </trkpt>
      <trkpt lat="47.61217" lon="1.9617836">
        <ele>142.0</ele>
        <time>2022-04-14T07:04:26Z</time>
      </trkpt>
      <trkpt lat="47.61217" lon="1.961783">
        <ele>142.0</ele>
        <time>2022-04-14T07:04:27Z</time>
      </trkpt>
      <trkpt lat="47.612167" lon="1.9617712">
        <ele>141.0</ele>
        <time>2022-04-14T07:04:28Z</time>
      </trkpt>
      <trkpt lat="47.612167" lon="1.9617712">
        <ele>141.0</ele>
        <time>2022-04-14T07:04:29Z</time>
      </trkpt>
      <trkpt lat="47.612167" lon="1.9617712">
        <ele>141.0</ele>
        <time>2022-04-14T07:04:30Z</time>
      </trkpt>
      <trkpt lat="47.61218" lon="1.9617395">
        <ele>140.0</ele>
        <time>2022-04-14T07:04:31Z</time>
      </trkpt>
      <trkpt lat="47.612186" lon="1.961727">
        <ele>140.0</ele>
        <time>2022-04-14T07:04:32Z</time>
      </trkpt>
      <trkpt lat="47.61219" lon="1.9617156">
        <ele>139.0</ele>
        <time>2022-04-14T07:04:33Z</time>
      </trkpt>
      <trkpt lat="47.61219" lon="1.9617023">
        <ele>139.0</ele>
        <time>2022-04-14T07:04:34Z</time>
      </trkpt>
      <trkpt lat="47.61219" lon="1.9617023">
        <ele>139.0</ele>
        <time>2022-04-14T07:04:35Z</time>
      </trkpt>
      <trkpt lat="47.61219" lon="1.9617023">
        <ele>139.0</ele>
        <time>2022-04-14T07:04:36Z</time>
      </trkpt>
      <trkpt lat="47.612186" lon="1.9616734">
        <ele>138.0</ele>
        <time>2022-04-14T07:04:37Z</time>
      </trkpt>
      <trkpt lat="47.612186" lon="1.9616642">
        <ele>137.0</ele>
        <time>2022-04-14T07:04:38Z</time>
      </trkpt>
      <trkpt lat="47.612183" lon="1.9616543">
        <ele>137.0</ele>
        <time>2022-04-14T07:04:39Z</time>
      </trkpt>
      <trkpt lat="47.612186" lon="1.9616414">
        <ele>136.0</ele>
        <time>2022-04-14T07:04:40Z</time>
      </trkpt>
      <trkpt lat="47.612186" lon="1.9616284">
        <ele>135.0</ele>
        <time>2022-04-14T07:04:41Z</time>
      </trkpt>
      <trkpt lat="47.612186" lon="1.961614">
        <ele>135.0</ele>
        <time>2022-04-14T07:04:42Z</time>
      </trkpt>
      <trkpt lat="47.61219" lon="1.9616011">
        <ele>135.0</ele>
        <time>2022-04-14T07:04:43Z</time>
      </trkpt>
      <trkpt lat="47.612194" lon="1.9615878">
        <ele>135.0</ele>
        <time>2022-04-14T07:04:44Z</time>
      </trkpt>
      <trkpt lat="47.612194" lon="1.9615878">
        <ele>135.0</ele>
        <time>2022-04-14T07:04:45Z</time>
      </trkpt>
      <trkpt lat="47.612194" lon="1.9615878">
        <ele>135.0</ele>
        <time>2022-04-14T07:04:46Z</time>
      </trkpt>
      <trkpt lat="47.612194" lon="1.9615561">
        <ele>135.0</ele>
        <time>2022-04-14T07:04:47Z</time>
      </trkpt>
      <trkpt lat="47.612198" lon="1.9615442">
        <ele>135.0</ele>
        <time>2022-04-14T07:04:48Z</time>
      </trkpt>
      <trkpt lat="47.612198" lon="1.9615309">
        <ele>135.0</ele>
        <time>2022-04-14T07:04:49Z</time>
      </trkpt>
      <trkpt lat="47.612198" lon="1.9615191">
        <ele>135.0</ele>
        <time>2022-04-14T07:04:50Z</time>
      </trkpt>
      <trkpt lat="47.612198" lon="1.9615191">
        <ele>135.0</ele>
        <time>2022-04-14T07:04:51Z</time>
      </trkpt>
      <trkpt lat="47.612198" lon="1.9615191">
        <ele>135.0</ele>
        <time>2022-04-14T07:04:52Z</time>
      </trkpt>
      <trkpt lat="47.6122" lon="1.9614865">
        <ele>135.0</ele>
        <time>2022-04-14T07:04:53Z</time>
      </trkpt>
      <trkpt lat="47.612198" lon="1.9614743">
        <ele>135.0</ele>
        <time>2022-04-14T07:04:54Z</time>
      </trkpt>
      <trkpt lat="47.6122" lon="1.9614602">
        <ele>135.0</ele>
        <time>2022-04-14T07:04:55Z</time>
      </trkpt>
      <trkpt lat="47.6122" lon="1.9614486">
        <ele>135.0</ele>
        <time>2022-04-14T07:04:56Z</time>
      </trkpt>
      <trkpt lat="47.6122" lon="1.9614486">
        <ele>135.0</ele>
        <time>2022-04-14T07:04:57Z</time>
      </trkpt>
      <trkpt lat="47.6122" lon="1.9614486">
        <ele>135.0</ele>
        <time>2022-04-14T07:04:58Z</time>
      </trkpt>
      <trkpt lat="47.6122" lon="1.9614065">
        <ele>134.0</ele>
        <time>2022-04-14T07:04:59Z</time>
      </trkpt>
      <trkpt lat="47.612198" lon="1.9613881">
        <ele>134.0</ele>
        <time>2022-04-14T07:05:00Z</time>
      </trkpt>
      <trkpt lat="47.6122" lon="1.9613687">
        <ele>134.0</ele>
        <time>2022-04-14T07:05:01Z</time>
      </trkpt>
      <trkpt lat="47.612198" lon="1.9613483">
        <ele>134.0</ele>
        <time>2022-04-14T07:05:02Z</time>
      </trkpt>
      <trkpt lat="47.612198" lon="1.9613314">
        <ele>133.0</ele>
        <time>2022-04-14T07:05:03Z</time>
      </trkpt>
      <trkpt lat="47.612198" lon="1.9613178">
        <ele>133.0</ele>
        <time>2022-04-14T07:05:04Z</time>
      </trkpt>
      <trkpt lat="47.612198" lon="1.9613031">
        <ele>132.0</ele>
        <time>2022-04-14T07:05:05Z</time>
      </trkpt>
      <trkpt lat="47.612198" lon="1.9613031">
        <ele>132.0</ele>
        <time>2022-04-14T07:05:06Z</time>
      </trkpt>
      <trkpt lat="47.612198" lon="1.9613031">
        <ele>132.0</ele>
        <time>2022-04-14T07:05:07Z</time>
      </trkpt>
      <trkpt lat="47.612194" lon="1.9612566">
        <ele>132.0</ele>
        <time>2022-04-14T07:05:08Z</time>
      </trkpt>
      <trkpt lat="47.612194" lon="1.9612386">
        <ele>133.0</ele>
        <time>2022-04-14T07:05:09Z</time>
      </trkpt>
      <trkpt lat="47.612194" lon="1.9612192">
        <ele>133.0</ele>
        <time>2022-04-14T07:05:10Z</time>
      </trkpt>
      <trkpt lat="47.612194" lon="1.9611992">
        <ele>133.0</ele>
        <time>2022-04-14T07:05:11Z</time>
      </trkpt>
      <trkpt lat="47.612194" lon="1.9611782">
        <ele>133.0</ele>
        <time>2022-04-14T07:05:12Z</time>
      </trkpt>
      <trkpt lat="47.612194" lon="1.9611571">
        <ele>133.0</ele>
        <time>2022-04-14T07:05:13Z</time>
      </trkpt>
      <trkpt lat="47.612198" lon="1.9611413">
        <ele>133.0</ele>
        <time>2022-04-14T07:05:14Z</time>
      </trkpt>
      <trkpt lat="47.612206" lon="1.9611255">
        <ele>133.0</ele>
        <time>2022-04-14T07:05:15Z</time>
      </trkpt>
      <trkpt lat="47.6122" lon="1.961107">
        <ele>133.0</ele>
        <time>2022-04-14T07:05:16Z</time>
      </trkpt>
      <trkpt lat="47.6122" lon="1.9610925">
        <ele>134.0</ele>
        <time>2022-04-14T07:05:17Z</time>
      </trkpt>
      <trkpt lat="47.6122" lon="1.9610802">
        <ele>134.0</ele>
        <time>2022-04-14T07:05:18Z</time>
      </trkpt>
      <trkpt lat="47.6122" lon="1.9610802">
        <ele>134.0</ele>
        <time>2022-04-14T07:05:19Z</time>
      </trkpt>
      <trkpt lat="47.612198" lon="1.961049">
        <ele>134.0</ele>
        <time>2022-04-14T07:05:20Z</time>
      </trkpt>
      <trkpt lat="47.612198" lon="1.9610314">
        <ele>135.0</ele>
        <time>2022-04-14T07:05:21Z</time>
      </trkpt>
      <trkpt lat="47.612194" lon="1.961012">
        <ele>135.0</ele>
        <time>2022-04-14T07:05:22Z</time>
      </trkpt>
      <trkpt lat="47.61219" lon="1.960997">
        <ele>136.0</ele>
        <time>2022-04-14T07:05:23Z</time>
      </trkpt>
      <trkpt lat="47.61219" lon="1.96098">
        <ele>136.0</ele>
        <time>2022-04-14T07:05:24Z</time>
      </trkpt>
      <trkpt lat="47.61219" lon="1.9609629">
        <ele>136.0</ele>
        <time>2022-04-14T07:05:25Z</time>
      </trkpt>
      <trkpt lat="47.61219" lon="1.9609426">
        <ele>136.0</ele>
        <time>2022-04-14T07:05:26Z</time>
      </trkpt>
      <trkpt lat="47.612198" lon="1.9609269">
        <ele>136.0</ele>
        <time>2022-04-14T07:05:27Z</time>
      </trkpt>
      <trkpt lat="47.6122" lon="1.9609113">
        <ele>135.0</ele>
        <time>2022-04-14T07:05:28Z</time>
      </trkpt>
      <trkpt lat="47.612206" lon="1.9608934">
        <ele>135.0</ele>
        <time>2022-04-14T07:05:29Z</time>
      </trkpt>
      <trkpt lat="47.61221" lon="1.9608767">
        <ele>135.0</ele>
        <time>2022-04-14T07:05:30Z</time>
      </trkpt>
      <trkpt lat="47.61221" lon="1.9608767">
        <ele>135.0</ele>
        <time>2022-04-14T07:05:31Z</time>
      </trkpt>
      <trkpt lat="47.61221" lon="1.9608674">
        <ele>135.0</ele>
        <time>2022-04-14T07:05:32Z</time>
      </trkpt>
      <trkpt lat="47.612213" lon="1.9608476">
        <ele>136.0</ele>
        <time>2022-04-14T07:05:33Z</time>
      </trkpt>
      <trkpt lat="47.612213" lon="1.9608476">
        <ele>136.0</ele>
        <time>2022-04-14T07:05:34Z</time>
      </trkpt>
      <trkpt lat="47.612213" lon="1.9608476">
        <ele>136.0</ele>
        <time>2022-04-14T07:05:35Z</time>
      </trkpt>
      <trkpt lat="47.612213" lon="1.9608107">
        <ele>136.0</ele>
        <time>2022-04-14T07:05:36Z</time>
      </trkpt>
      <trkpt lat="47.612213" lon="1.9607918">
        <ele>136.0</ele>
        <time>2022-04-14T07:05:37Z</time>
      </trkpt>
      <trkpt lat="47.612217" lon="1.9607794">
        <ele>136.0</ele>
        <time>2022-04-14T07:05:38Z</time>
      </trkpt>
      <trkpt lat="47.612213" lon="1.9607654">
        <ele>137.0</ele>
        <time>2022-04-14T07:05:39Z</time>
      </trkpt>
      <trkpt lat="47.612213" lon="1.9607654">
        <ele>137.0</ele>
        <time>2022-04-14T07:05:40Z</time>
      </trkpt>
      <trkpt lat="47.612213" lon="1.9607654">
        <ele>137.0</ele>
        <time>2022-04-14T07:05:41Z</time>
      </trkpt>
      <trkpt lat="47.612217" lon="1.9607208">
        <ele>137.0</ele>
        <time>2022-04-14T07:05:42Z</time>
      </trkpt>
      <trkpt lat="47.61222" lon="1.9607031">
        <ele>137.0</ele>
        <time>2022-04-14T07:05:43Z</time>
      </trkpt>
      <trkpt lat="47.612225" lon="1.9606873">
        <ele>138.0</ele>
        <time>2022-04-14T07:05:44Z</time>
      </trkpt>
      <trkpt lat="47.612225" lon="1.9606754">
        <ele>138.0</ele>
        <time>2022-04-14T07:05:45Z</time>
      </trkpt>
      <trkpt lat="47.612225" lon="1.9606754">
        <ele>138.0</ele>
        <time>2022-04-14T07:05:46Z</time>
      </trkpt>
      <trkpt lat="47.612225" lon="1.9606754">
        <ele>138.0</ele>
        <time>2022-04-14T07:05:47Z</time>
      </trkpt>
      <trkpt lat="47.61222" lon="1.9606371">
        <ele>139.0</ele>
        <time>2022-04-14T07:05:48Z</time>
      </trkpt>
      <trkpt lat="47.61222" lon="1.9606247">
        <ele>139.0</ele>
        <time>2022-04-14T07:05:49Z</time>
      </trkpt>
      <trkpt lat="47.612217" lon="1.9606069">
        <ele>139.0</ele>
        <time>2022-04-14T07:05:50Z</time>
      </trkpt>
      <trkpt lat="47.612213" lon="1.9605961">
        <ele>139.0</ele>
        <time>2022-04-14T07:05:51Z</time>
      </trkpt>
      <trkpt lat="47.612213" lon="1.9605961">
        <ele>139.0</ele>
        <time>2022-04-14T07:05:52Z</time>
      </trkpt>
      <trkpt lat="47.612213" lon="1.9605961">
        <ele>139.0</ele>
        <time>2022-04-14T07:05:53Z</time>
      </trkpt>
      <trkpt lat="47.612206" lon="1.9605557">
        <ele>139.0</ele>
        <time>2022-04-14T07:05:54Z</time>
      </trkpt>
      <trkpt lat="47.612206" lon="1.9605402">
        <ele>139.0</ele>
        <time>2022-04-14T07:05:55Z</time>
      </trkpt>
      <trkpt lat="47.61221" lon="1.9605216">
        <ele>140.0</ele>
        <time>2022-04-14T07:05:56Z</time>
      </trkpt>
      <trkpt lat="47.612206" lon="1.9605039">
        <ele>140.0</ele>
        <time>2022-04-14T07:05:57Z</time>
      </trkpt>
      <trkpt lat="47.6122" lon="1.9604894">
        <ele>139.0</ele>
        <time>2022-04-14T07:05:58Z</time>
      </trkpt>
      <trkpt lat="47.6122" lon="1.9604719">
        <ele>140.0</ele>
        <time>2022-04-14T07:05:59Z</time>
      </trkpt>
      <trkpt lat="47.612198" lon="1.9604547">
        <ele>140.0</ele>
        <time>2022-04-14T07:06:00Z</time>
      </trkpt>
      <trkpt lat="47.6122" lon="1.9604373">
        <ele>140.0</ele>
        <time>2022-04-14T07:06:01Z</time>
      </trkpt>
      <trkpt lat="47.612206" lon="1.96042">
        <ele>141.0</ele>
        <time>2022-04-14T07:06:02Z</time>
      </trkpt>
      <trkpt lat="47.612206" lon="1.9604074">
        <ele>141.0</ele>
        <time>2022-04-14T07:06:03Z</time>
      </trkpt>
      <trkpt lat="47.6122" lon="1.960398">
        <ele>141.0</ele>
        <time>2022-04-14T07:06:04Z</time>
      </trkpt>
      <trkpt lat="47.6122" lon="1.9603812">
        <ele>141.0</ele>
        <time>2022-04-14T07:06:05Z</time>
      </trkpt>
      <trkpt lat="47.612198" lon="1.9603705">
        <ele>142.0</ele>
        <time>2022-04-14T07:06:06Z</time>
      </trkpt>
      <trkpt lat="47.612198" lon="1.9603602">
        <ele>142.0</ele>
        <time>2022-04-14T07:06:07Z</time>
      </trkpt>
      <trkpt lat="47.612198" lon="1.9603602">
        <ele>142.0</ele>
        <time>2022-04-14T07:06:08Z</time>
      </trkpt>
      <trkpt lat="47.612198" lon="1.9603602">
        <ele>142.0</ele>
        <time>2022-04-14T07:06:09Z</time>
      </trkpt>
      <trkpt lat="47.612194" lon="1.9603273">
        <ele>142.0</ele>
        <time>2022-04-14T07:06:10Z</time>
      </trkpt>
      <trkpt lat="47.612194" lon="1.9603146">
        <ele>142.0</ele>
        <time>2022-04-14T07:06:11Z</time>
      </trkpt>
      <trkpt lat="47.612194" lon="1.960301">
        <ele>142.0</ele>
        <time>2022-04-14T07:06:12Z</time>
      </trkpt>
      <trkpt lat="47.612198" lon="1.960285">
        <ele>142.0</ele>
        <time>2022-04-14T07:06:13Z</time>
      </trkpt>
      <trkpt lat="47.612198" lon="1.960266">
        <ele>142.0</ele>
        <time>2022-04-14T07:06:14Z</time>
      </trkpt>
      <trkpt lat="47.612198" lon="1.9602513">
        <ele>143.0</ele>
        <time>2022-04-14T07:06:15Z</time>
      </trkpt>
      <trkpt lat="47.6122" lon="1.9602387">
        <ele>143.0</ele>
        <time>2022-04-14T07:06:16Z</time>
      </trkpt>
      <trkpt lat="47.6122" lon="1.9602387">
        <ele>143.0</ele>
        <time>2022-04-14T07:06:17Z</time>
      </trkpt>
      <trkpt lat="47.6122" lon="1.9602387">
        <ele>143.0</ele>
        <time>2022-04-14T07:06:18Z</time>
      </trkpt>
      <trkpt lat="47.61221" lon="1.9601921">
        <ele>144.0</ele>
        <time>2022-04-14T07:06:19Z</time>
      </trkpt>
      <trkpt lat="47.61221" lon="1.9601742">
        <ele>144.0</ele>
        <time>2022-04-14T07:06:20Z</time>
      </trkpt>
      <trkpt lat="47.61221" lon="1.9601537">
        <ele>143.0</ele>
        <time>2022-04-14T07:06:21Z</time>
      </trkpt>
      <trkpt lat="47.61221" lon="1.9601356">
        <ele>144.0</ele>
        <time>2022-04-14T07:06:22Z</time>
      </trkpt>
      <trkpt lat="47.61221" lon="1.9601206">
        <ele>144.0</ele>
        <time>2022-04-14T07:06:23Z</time>
      </trkpt>
      <trkpt lat="47.612206" lon="1.9601026">
        <ele>144.0</ele>
        <time>2022-04-14T07:06:24Z</time>
      </trkpt>
      <trkpt lat="47.612206" lon="1.9600815">
        <ele>143.0</ele>
        <time>2022-04-14T07:06:25Z</time>
      </trkpt>
      <trkpt lat="47.6122" lon="1.9600585">
        <ele>143.0</ele>
        <time>2022-04-14T07:06:26Z</time>
      </trkpt>
      <trkpt lat="47.612198" lon="1.9600376">
        <ele>143.0</ele>
        <time>2022-04-14T07:06:27Z</time>
      </trkpt>
      <trkpt lat="47.612198" lon="1.9600213">
        <ele>143.0</ele>
        <time>2022-04-14T07:06:28Z</time>
      </trkpt>
      <trkpt lat="47.612198" lon="1.9600041">
        <ele>143.0</ele>
        <time>2022-04-14T07:06:29Z</time>
      </trkpt>
      <trkpt lat="47.612194" lon="1.9599862">
        <ele>143.0</ele>
        <time>2022-04-14T07:06:30Z</time>
      </trkpt>
      <trkpt lat="47.61219" lon="1.959966">
        <ele>144.0</ele>
        <time>2022-04-14T07:06:31Z</time>
      </trkpt>
      <trkpt lat="47.612186" lon="1.9599427">
        <ele>144.0</ele>
        <time>2022-04-14T07:06:32Z</time>
      </trkpt>
      <trkpt lat="47.612183" lon="1.9599202">
        <ele>144.0</ele>
        <time>2022-04-14T07:06:33Z</time>
      </trkpt>
      <trkpt lat="47.612183" lon="1.9598999">
        <ele>144.0</ele>
        <time>2022-04-14T07:06:34Z</time>
      </trkpt>
      <trkpt lat="47.612183" lon="1.959876">
        <ele>145.0</ele>
        <time>2022-04-14T07:06:35Z</time>
      </trkpt>
      <trkpt lat="47.612183" lon="1.9598521">
        <ele>145.0</ele>
        <time>2022-04-14T07:06:36Z</time>
      </trkpt>
      <trkpt lat="47.612175" lon="1.9598296">
        <ele>145.0</ele>
        <time>2022-04-14T07:06:37Z</time>
      </trkpt>
      <trkpt lat="47.612175" lon="1.9598112">
        <ele>145.0</ele>
        <time>2022-04-14T07:06:38Z</time>
      </trkpt>
      <trkpt lat="47.612175" lon="1.9597933">
        <ele>146.0</ele>
        <time>2022-04-14T07:06:39Z</time>
      </trkpt>
      <trkpt lat="47.61217" lon="1.9597676">
        <ele>147.0</ele>
        <time>2022-04-14T07:06:40Z</time>
      </trkpt>
      <trkpt lat="47.61217" lon="1.9597422">
        <ele>147.0</ele>
        <time>2022-04-14T07:06:41Z</time>
      </trkpt>
      <trkpt lat="47.612167" lon="1.959719">
        <ele>147.0</ele>
        <time>2022-04-14T07:06:42Z</time>
      </trkpt>
      <trkpt lat="47.612167" lon="1.9597">
        <ele>147.0</ele>
        <time>2022-04-14T07:06:43Z</time>
      </trkpt>
      <trkpt lat="47.612164" lon="1.9596821">
        <ele>148.0</ele>
        <time>2022-04-14T07:06:44Z</time>
      </trkpt>
      <trkpt lat="47.61216" lon="1.9596647">
        <ele>148.0</ele>
        <time>2022-04-14T07:06:45Z</time>
      </trkpt>
      <trkpt lat="47.612152" lon="1.959648">
        <ele>148.0</ele>
        <time>2022-04-14T07:06:46Z</time>
      </trkpt>
      <trkpt lat="47.61215" lon="1.9596285">
        <ele>149.0</ele>
        <time>2022-04-14T07:06:47Z</time>
      </trkpt>
      <trkpt lat="47.612144" lon="1.9596084">
        <ele>149.0</ele>
        <time>2022-04-14T07:06:48Z</time>
      </trkpt>
      <trkpt lat="47.61214" lon="1.9595925">
        <ele>149.0</ele>
        <time>2022-04-14T07:06:49Z</time>
      </trkpt>
      <trkpt lat="47.612144" lon="1.959578">
        <ele>149.0</ele>
        <time>2022-04-14T07:06:50Z</time>
      </trkpt>
      <trkpt lat="47.61214" lon="1.9595647">
        <ele>149.0</ele>
        <time>2022-04-14T07:06:51Z</time>
      </trkpt>
      <trkpt lat="47.61214" lon="1.9595467">
        <ele>150.0</ele>
        <time>2022-04-14T07:06:52Z</time>
      </trkpt>
      <trkpt lat="47.61214" lon="1.959527">
        <ele>150.0</ele>
        <time>2022-04-14T07:06:53Z</time>
      </trkpt>
      <trkpt lat="47.61214" lon="1.9595071">
        <ele>150.0</ele>
        <time>2022-04-14T07:06:54Z</time>
      </trkpt>
      <trkpt lat="47.612137" lon="1.9594885">
        <ele>150.0</ele>
        <time>2022-04-14T07:06:55Z</time>
      </trkpt>
      <trkpt lat="47.612137" lon="1.9594724">
        <ele>150.0</ele>
        <time>2022-04-14T07:06:56Z</time>
      </trkpt>
      <trkpt lat="47.612133" lon="1.9594569">
        <ele>150.0</ele>
        <time>2022-04-14T07:06:57Z</time>
      </trkpt>
      <trkpt lat="47.61213" lon="1.9594394">
        <ele>151.0</ele>
        <time>2022-04-14T07:06:58Z</time>
      </trkpt>
      <trkpt lat="47.612125" lon="1.9594221">
        <ele>151.0</ele>
        <time>2022-04-14T07:06:59Z</time>
      </trkpt>
      <trkpt lat="47.61212" lon="1.9594048">
        <ele>151.0</ele>
        <time>2022-04-14T07:07:00Z</time>
      </trkpt>
      <trkpt lat="47.61212" lon="1.9593837">
        <ele>151.0</ele>
        <time>2022-04-14T07:07:01Z</time>
      </trkpt>
      <trkpt lat="47.61212" lon="1.9593699">
        <ele>152.0</ele>
        <time>2022-04-14T07:07:02Z</time>
      </trkpt>
      <trkpt lat="47.612114" lon="1.9593524">
        <ele>152.0</ele>
        <time>2022-04-14T07:07:03Z</time>
      </trkpt>
      <trkpt lat="47.61211" lon="1.9593332">
        <ele>153.0</ele>
        <time>2022-04-14T07:07:04Z</time>
      </trkpt>
      <trkpt lat="47.61211" lon="1.9593157">
        <ele>153.0</ele>
        <time>2022-04-14T07:07:05Z</time>
      </trkpt>
      <trkpt lat="47.612106" lon="1.9593003">
        <ele>153.0</ele>
        <time>2022-04-14T07:07:06Z</time>
      </trkpt>
      <trkpt lat="47.612106" lon="1.9592795">
        <ele>153.0</ele>
        <time>2022-04-14T07:07:07Z</time>
      </trkpt>
      <trkpt lat="47.6121" lon="1.9592633">
        <ele>153.0</ele>
        <time>2022-04-14T07:07:08Z</time>
      </trkpt>
      <trkpt lat="47.612095" lon="1.9592453">
        <ele>153.0</ele>
        <time>2022-04-14T07:07:09Z</time>
      </trkpt>
      <trkpt lat="47.612095" lon="1.9592286">
        <ele>153.0</ele>
        <time>2022-04-14T07:07:10Z</time>
      </trkpt>
      <trkpt lat="47.61209" lon="1.9592127">
        <ele>153.0</ele>
        <time>2022-04-14T07:07:11Z</time>
      </trkpt>
      <trkpt lat="47.612083" lon="1.9591949">
        <ele>153.0</ele>
        <time>2022-04-14T07:07:12Z</time>
      </trkpt>
      <trkpt lat="47.612083" lon="1.959177">
        <ele>153.0</ele>
        <time>2022-04-14T07:07:13Z</time>
      </trkpt>
      <trkpt lat="47.612076" lon="1.9591584">
        <ele>153.0</ele>
        <time>2022-04-14T07:07:14Z</time>
      </trkpt>
      <trkpt lat="47.612072" lon="1.9591405">
        <ele>154.0</ele>
        <time>2022-04-14T07:07:15Z</time>
      </trkpt>
      <trkpt lat="47.61207" lon="1.9591241">
        <ele>154.0</ele>
        <time>2022-04-14T07:07:16Z</time>
      </trkpt>
      <trkpt lat="47.612064" lon="1.9591123">
        <ele>155.0</ele>
        <time>2022-04-14T07:07:17Z</time>
      </trkpt>
      <trkpt lat="47.61206" lon="1.959098">
        <ele>155.0</ele>
        <time>2022-04-14T07:07:18Z</time>
      </trkpt>
      <trkpt lat="47.612053" lon="1.9590857">
        <ele>154.0</ele>
        <time>2022-04-14T07:07:19Z</time>
      </trkpt>
      <trkpt lat="47.61205" lon="1.9590704">
        <ele>153.0</ele>
        <time>2022-04-14T07:07:20Z</time>
      </trkpt>
      <trkpt lat="47.61204" lon="1.9590542">
        <ele>153.0</ele>
        <time>2022-04-14T07:07:21Z</time>
      </trkpt>
      <trkpt lat="47.61204" lon="1.9590367">
        <ele>153.0</ele>
        <time>2022-04-14T07:07:22Z</time>
      </trkpt>
      <trkpt lat="47.612038" lon="1.9590226">
        <ele>153.0</ele>
        <time>2022-04-14T07:07:23Z</time>
      </trkpt>
      <trkpt lat="47.612038" lon="1.9590226">
        <ele>153.0</ele>
        <time>2022-04-14T07:07:24Z</time>
      </trkpt>
      <trkpt lat="47.612038" lon="1.9590226">
        <ele>153.0</ele>
        <time>2022-04-14T07:07:25Z</time>
      </trkpt>
      <trkpt lat="47.61203" lon="1.9589808">
        <ele>151.0</ele>
        <time>2022-04-14T07:07:26Z</time>
      </trkpt>
      <trkpt lat="47.612026" lon="1.9589651">
        <ele>151.0</ele>
        <time>2022-04-14T07:07:27Z</time>
      </trkpt>
      <trkpt lat="47.612022" lon="1.9589479">
        <ele>151.0</ele>
        <time>2022-04-14T07:07:28Z</time>
      </trkpt>
      <trkpt lat="47.61202" lon="1.958929">
        <ele>151.0</ele>
        <time>2022-04-14T07:07:29Z</time>
      </trkpt>
      <trkpt lat="47.612015" lon="1.9589113">
        <ele>151.0</ele>
        <time>2022-04-14T07:07:30Z</time>
      </trkpt>
      <trkpt lat="47.61201" lon="1.9588983">
        <ele>151.0</ele>
        <time>2022-04-14T07:07:31Z</time>
      </trkpt>
      <trkpt lat="47.612007" lon="1.9588851">
        <ele>151.0</ele>
        <time>2022-04-14T07:07:32Z</time>
      </trkpt>
      <trkpt lat="47.612007" lon="1.9588851">
        <ele>151.0</ele>
        <time>2022-04-14T07:07:33Z</time>
      </trkpt>
      <trkpt lat="47.612007" lon="1.9588851">
        <ele>151.0</ele>
        <time>2022-04-14T07:07:34Z</time>
      </trkpt>
      <trkpt lat="47.612" lon="1.9588518">
        <ele>151.0</ele>
        <time>2022-04-14T07:07:35Z</time>
      </trkpt>
      <trkpt lat="47.611996" lon="1.9588388">
        <ele>152.0</ele>
        <time>2022-04-14T07:07:36Z</time>
      </trkpt>
      <trkpt lat="47.61199" lon="1.9588252">
        <ele>152.0</ele>
        <time>2022-04-14T07:07:37Z</time>
      </trkpt>
      <trkpt lat="47.611988" lon="1.9588107">
        <ele>152.0</ele>
        <time>2022-04-14T07:07:38Z</time>
      </trkpt>
      <trkpt lat="47.611988" lon="1.9588107">
        <ele>152.0</ele>
        <time>2022-04-14T07:07:39Z</time>
      </trkpt>
      <trkpt lat="47.611973" lon="1.958785">
        <ele>153.0</ele>
        <time>2022-04-14T07:07:40Z</time>
      </trkpt>
      <trkpt lat="47.61197" lon="1.958767">
        <ele>153.0</ele>
        <time>2022-04-14T07:07:41Z</time>
      </trkpt>
      <trkpt lat="47.61196" lon="1.9587473">
        <ele>153.0</ele>
        <time>2022-04-14T07:07:42Z</time>
      </trkpt>
      <trkpt lat="47.611958" lon="1.9587282">
        <ele>153.0</ele>
        <time>2022-04-14T07:07:43Z</time>
      </trkpt>
      <trkpt lat="47.61195" lon="1.958714">
        <ele>153.0</ele>
        <time>2022-04-14T07:07:44Z</time>
      </trkpt>
      <trkpt lat="47.611946" lon="1.9587">
        <ele>153.0</ele>
        <time>2022-04-14T07:07:45Z</time>
      </trkpt>
      <trkpt lat="47.611942" lon="1.958688">
        <ele>154.0</ele>
        <time>2022-04-14T07:07:46Z</time>
      </trkpt>
      <trkpt lat="47.611942" lon="1.958688">
        <ele>154.0</ele>
        <time>2022-04-14T07:07:47Z</time>
      </trkpt>
      <trkpt lat="47.611942" lon="1.958688">
        <ele>154.0</ele>
        <time>2022-04-14T07:07:48Z</time>
      </trkpt>
      <trkpt lat="47.61194" lon="1.9586611">
        <ele>155.0</ele>
        <time>2022-04-14T07:07:49Z</time>
      </trkpt>
      <trkpt lat="47.61194" lon="1.9586502">
        <ele>155.0</ele>
        <time>2022-04-14T07:07:50Z</time>
      </trkpt>
      <trkpt lat="47.61194" lon="1.958637">
        <ele>155.0</ele>
        <time>2022-04-14T07:07:51Z</time>
      </trkpt>
      <trkpt lat="47.61194" lon="1.9586232">
        <ele>155.0</ele>
        <time>2022-04-14T07:07:52Z</time>
      </trkpt>
      <trkpt lat="47.61194" lon="1.9586232">
        <ele>155.0</ele>
        <time>2022-04-14T07:07:53Z</time>
      </trkpt>
      <trkpt lat="47.61194" lon="1.9586232">
        <ele>155.0</ele>
        <time>2022-04-14T07:07:54Z</time>
      </trkpt>
      <trkpt lat="47.611935" lon="1.9585867">
        <ele>156.0</ele>
        <time>2022-04-14T07:07:55Z</time>
      </trkpt>
      <trkpt lat="47.611935" lon="1.9585713">
        <ele>156.0</ele>
        <time>2022-04-14T07:07:56Z</time>
      </trkpt>
      <trkpt lat="47.611935" lon="1.9585563">
        <ele>156.0</ele>
        <time>2022-04-14T07:07:57Z</time>
      </trkpt>
      <trkpt lat="47.61193" lon="1.958539">
        <ele>156.0</ele>
        <time>2022-04-14T07:07:58Z</time>
      </trkpt>
      <trkpt lat="47.61193" lon="1.9585208">
        <ele>157.0</ele>
        <time>2022-04-14T07:07:59Z</time>
      </trkpt>
      <trkpt lat="47.611927" lon="1.9585038">
        <ele>157.0</ele>
        <time>2022-04-14T07:08:00Z</time>
      </trkpt>
      <trkpt lat="47.611923" lon="1.9584854">
        <ele>157.0</ele>
        <time>2022-04-14T07:08:01Z</time>
      </trkpt>
      <trkpt lat="47.611923" lon="1.9584694">
        <ele>156.0</ele>
        <time>2022-04-14T07:08:02Z</time>
      </trkpt>
      <trkpt lat="47.611923" lon="1.958453">
        <ele>156.0</ele>
        <time>2022-04-14T07:08:03Z</time>
      </trkpt>
      <trkpt lat="47.611927" lon="1.9584382">
        <ele>156.0</ele>
        <time>2022-04-14T07:08:04Z</time>
      </trkpt>
      <trkpt lat="47.611927" lon="1.958425">
        <ele>156.0</ele>
        <time>2022-04-14T07:08:05Z</time>
      </trkpt>
      <trkpt lat="47.611923" lon="1.9584162">
        <ele>156.0</ele>
        <time>2022-04-14T07:08:06Z</time>
      </trkpt>
      <trkpt lat="47.611923" lon="1.9584162">
        <ele>156.0</ele>
        <time>2022-04-14T07:08:07Z</time>
      </trkpt>
      <trkpt lat="47.611923" lon="1.9584162">
        <ele>156.0</ele>
        <time>2022-04-14T07:08:08Z</time>
      </trkpt>
      <trkpt lat="47.611927" lon="1.9583882">
        <ele>155.0</ele>
        <time>2022-04-14T07:08:09Z</time>
      </trkpt>
      <trkpt lat="47.611927" lon="1.9583725">
        <ele>155.0</ele>
        <time>2022-04-14T07:08:10Z</time>
      </trkpt>
      <trkpt lat="47.611923" lon="1.9583586">
        <ele>155.0</ele>
        <time>2022-04-14T07:08:11Z</time>
      </trkpt>
      <trkpt lat="47.611923" lon="1.9583446">
        <ele>154.0</ele>
        <time>2022-04-14T07:08:12Z</time>
      </trkpt>
      <trkpt lat="47.611927" lon="1.958332">
        <ele>154.0</ele>
        <time>2022-04-14T07:08:13Z</time>
      </trkpt>
      <trkpt lat="47.611927" lon="1.958332">
        <ele>154.0</ele>
        <time>2022-04-14T07:08:14Z</time>
      </trkpt>
      <trkpt lat="47.611927" lon="1.958332">
        <ele>154.0</ele>
        <time>2022-04-14T07:08:15Z</time>
      </trkpt>
      <trkpt lat="47.611927" lon="1.9582978">
        <ele>154.0</ele>
        <time>2022-04-14T07:08:16Z</time>
      </trkpt>
      <trkpt lat="47.611923" lon="1.9582846">
        <ele>155.0</ele>
        <time>2022-04-14T07:08:17Z</time>
      </trkpt>
      <trkpt lat="47.611923" lon="1.9582691">
        <ele>155.0</ele>
        <time>2022-04-14T07:08:18Z</time>
      </trkpt>
      <trkpt lat="47.61192" lon="1.9582545">
        <ele>154.0</ele>
        <time>2022-04-14T07:08:19Z</time>
      </trkpt>
      <trkpt lat="47.61192" lon="1.9582545">
        <ele>154.0</ele>
        <time>2022-04-14T07:08:20Z</time>
      </trkpt>
      <trkpt lat="47.61191" lon="1.9582304">
        <ele>155.0</ele>
        <time>2022-04-14T07:08:21Z</time>
      </trkpt>
      <trkpt lat="47.611904" lon="1.9582093">
        <ele>155.0</ele>
        <time>2022-04-14T07:08:22Z</time>
      </trkpt>
      <trkpt lat="47.6119" lon="1.9581896">
        <ele>155.0</ele>
        <time>2022-04-14T07:08:23Z</time>
      </trkpt>
      <trkpt lat="47.611893" lon="1.9581691">
        <ele>155.0</ele>
        <time>2022-04-14T07:08:24Z</time>
      </trkpt>
      <trkpt lat="47.61188" lon="1.9581484">
        <ele>155.0</ele>
        <time>2022-04-14T07:08:25Z</time>
      </trkpt>
      <trkpt lat="47.611874" lon="1.9581307">
        <ele>155.0</ele>
        <time>2022-04-14T07:08:26Z</time>
      </trkpt>
      <trkpt lat="47.611866" lon="1.9581198">
        <ele>155.0</ele>
        <time>2022-04-14T07:08:27Z</time>
      </trkpt>
      <trkpt lat="47.611862" lon="1.9581093">
        <ele>155.0</ele>
        <time>2022-04-14T07:08:28Z</time>
      </trkpt>
      <trkpt lat="47.611855" lon="1.9580978">
        <ele>155.0</ele>
        <time>2022-04-14T07:08:29Z</time>
      </trkpt>
      <trkpt lat="47.611855" lon="1.9580978">
        <ele>155.0</ele>
        <time>2022-04-14T07:08:30Z</time>
      </trkpt>
      <trkpt lat="47.611855" lon="1.9580978">
        <ele>155.0</ele>
        <time>2022-04-14T07:08:31Z</time>
      </trkpt>
      <trkpt lat="47.611835" lon="1.9580641">
        <ele>155.0</ele>
        <time>2022-04-14T07:08:32Z</time>
      </trkpt>
      <trkpt lat="47.611828" lon="1.9580468">
        <ele>155.0</ele>
        <time>2022-04-14T07:08:33Z</time>
      </trkpt>
      <trkpt lat="47.611824" lon="1.9580309">
        <ele>155.0</ele>
        <time>2022-04-14T07:08:34Z</time>
      </trkpt>
      <trkpt lat="47.61182" lon="1.958014">
        <ele>156.0</ele>
        <time>2022-04-14T07:08:35Z</time>
      </trkpt>
      <trkpt lat="47.61182" lon="1.958014">
        <ele>156.0</ele>
        <time>2022-04-14T07:08:36Z</time>
      </trkpt>
      <trkpt lat="47.61182" lon="1.958014">
        <ele>156.0</ele>
        <time>2022-04-14T07:08:37Z</time>
      </trkpt>
      <trkpt lat="47.61181" lon="1.9579762">
        <ele>157.0</ele>
        <time>2022-04-14T07:08:38Z</time>
      </trkpt>
      <trkpt lat="47.6118" lon="1.9579636">
        <ele>157.0</ele>
        <time>2022-04-14T07:08:39Z</time>
      </trkpt>
      <trkpt lat="47.611794" lon="1.9579489">
        <ele>157.0</ele>
        <time>2022-04-14T07:08:40Z</time>
      </trkpt>
      <trkpt lat="47.611786" lon="1.9579302">
        <ele>157.0</ele>
        <time>2022-04-14T07:08:41Z</time>
      </trkpt>
      <trkpt lat="47.611786" lon="1.957912">
        <ele>156.0</ele>
        <time>2022-04-14T07:08:42Z</time>
      </trkpt>
      <trkpt lat="47.611786" lon="1.957895">
        <ele>156.0</ele>
        <time>2022-04-14T07:08:43Z</time>
      </trkpt>
      <trkpt lat="47.611782" lon="1.9578767">
        <ele>156.0</ele>
        <time>2022-04-14T07:08:44Z</time>
      </trkpt>
      <trkpt lat="47.61178" lon="1.9578586">
        <ele>157.0</ele>
        <time>2022-04-14T07:08:45Z</time>
      </trkpt>
      <trkpt lat="47.611774" lon="1.95784">
        <ele>156.0</ele>
        <time>2022-04-14T07:08:46Z</time>
      </trkpt>
      <trkpt lat="47.611774" lon="1.9578212">
        <ele>156.0</ele>
        <time>2022-04-14T07:08:47Z</time>
      </trkpt>
      <trkpt lat="47.611774" lon="1.9578047">
        <ele>156.0</ele>
        <time>2022-04-14T07:08:48Z</time>
      </trkpt>
      <trkpt lat="47.611774" lon="1.9578047">
        <ele>156.0</ele>
        <time>2022-04-14T07:08:49Z</time>
      </trkpt>
      <trkpt lat="47.611774" lon="1.9578047">
        <ele>156.0</ele>
        <time>2022-04-14T07:08:50Z</time>
      </trkpt>
      <trkpt lat="47.61176" lon="1.9577671">
        <ele>156.0</ele>
        <time>2022-04-14T07:08:51Z</time>
      </trkpt>
      <trkpt lat="47.611755" lon="1.9577523">
        <ele>156.0</ele>
        <time>2022-04-14T07:08:52Z</time>
      </trkpt>
      <trkpt lat="47.611748" lon="1.9577373">
        <ele>157.0</ele>
        <time>2022-04-14T07:08:53Z</time>
      </trkpt>
      <trkpt lat="47.611744" lon="1.9577216">
        <ele>157.0</ele>
        <time>2022-04-14T07:08:54Z</time>
      </trkpt>
      <trkpt lat="47.611736" lon="1.9577045">
        <ele>157.0</ele>
        <time>2022-04-14T07:08:55Z</time>
      </trkpt>
      <trkpt lat="47.61173" lon="1.957692">
        <ele>157.0</ele>
        <time>2022-04-14T07:08:56Z</time>
      </trkpt>
      <trkpt lat="47.61172" lon="1.9576758">
        <ele>158.0</ele>
        <time>2022-04-14T07:08:57Z</time>
      </trkpt>
      <trkpt lat="47.611717" lon="1.9576635">
        <ele>158.0</ele>
        <time>2022-04-14T07:08:58Z</time>
      </trkpt>
      <trkpt lat="47.611713" lon="1.9576468">
        <ele>158.0</ele>
        <time>2022-04-14T07:08:59Z</time>
      </trkpt>
      <trkpt lat="47.611706" lon="1.9576312">
        <ele>158.0</ele>
        <time>2022-04-14T07:09:00Z</time>
      </trkpt>
      <trkpt lat="47.611702" lon="1.957617">
        <ele>158.0</ele>
        <time>2022-04-14T07:09:01Z</time>
      </trkpt>
      <trkpt lat="47.6117" lon="1.9576045">
        <ele>159.0</ele>
        <time>2022-04-14T07:09:02Z</time>
      </trkpt>
      <trkpt lat="47.611694" lon="1.9575951">
        <ele>159.0</ele>
        <time>2022-04-14T07:09:03Z</time>
      </trkpt>
      <trkpt lat="47.611694" lon="1.9575951">
        <ele>159.0</ele>
        <time>2022-04-14T07:09:04Z</time>
      </trkpt>
      <trkpt lat="47.611694" lon="1.9575951">
        <ele>159.0</ele>
        <time>2022-04-14T07:09:05Z</time>
      </trkpt>
      <trkpt lat="47.61168" lon="1.957578">
        <ele>159.0</ele>
        <time>2022-04-14T07:09:06Z</time>
      </trkpt>
      <trkpt lat="47.61167" lon="1.9575655">
        <ele>159.0</ele>
        <time>2022-04-14T07:09:07Z</time>
      </trkpt>
      <trkpt lat="47.611668" lon="1.9575545">
        <ele>159.0</ele>
        <time>2022-04-14T07:09:08Z</time>
      </trkpt>
      <trkpt lat="47.611664" lon="1.9575421">
        <ele>159.0</ele>
        <time>2022-04-14T07:09:09Z</time>
      </trkpt>
      <trkpt lat="47.611664" lon="1.9575421">
        <ele>159.0</ele>
        <time>2022-04-14T07:09:10Z</time>
      </trkpt>
      <trkpt lat="47.611664" lon="1.9575421">
        <ele>159.0</ele>
        <time>2022-04-14T07:09:11Z</time>
      </trkpt>
      <trkpt lat="47.61165" lon="1.9575185">
        <ele>159.0</ele>
        <time>2022-04-14T07:09:12Z</time>
      </trkpt>
      <trkpt lat="47.61164" lon="1.9575088">
        <ele>160.0</ele>
        <time>2022-04-14T07:09:13Z</time>
      </trkpt>
      <trkpt lat="47.611637" lon="1.9574999">
        <ele>159.0</ele>
        <time>2022-04-14T07:09:14Z</time>
      </trkpt>
      <trkpt lat="47.611633" lon="1.9574897">
        <ele>159.0</ele>
        <time>2022-04-14T07:09:15Z</time>
      </trkpt>
      <trkpt lat="47.611633" lon="1.9574897">
        <ele>159.0</ele>
        <time>2022-04-14T07:09:16Z</time>
      </trkpt>
      <trkpt lat="47.611633" lon="1.9574897">
        <ele>159.0</ele>
        <time>2022-04-14T07:09:17Z</time>
      </trkpt>
      <trkpt lat="47.61163" lon="1.9574629">
        <ele>160.0</ele>
        <time>2022-04-14T07:09:18Z</time>
      </trkpt>
      <trkpt lat="47.61162" lon="1.9574487">
        <ele>159.0</ele>
        <time>2022-04-14T07:09:19Z</time>
      </trkpt>
      <trkpt lat="47.61162" lon="1.9574312">
        <ele>159.0</ele>
        <time>2022-04-14T07:09:20Z</time>
      </trkpt>
      <trkpt lat="47.611614" lon="1.9574171">
        <ele>160.0</ele>
        <time>2022-04-14T07:09:21Z</time>
      </trkpt>
      <trkpt lat="47.61161" lon="1.9574056">
        <ele>160.0</ele>
        <time>2022-04-14T07:09:22Z</time>
      </trkpt>
      <trkpt lat="47.611603" lon="1.957397">
        <ele>160.0</ele>
        <time>2022-04-14T07:09:23Z</time>
      </trkpt>
      <trkpt lat="47.611603" lon="1.9573872">
        <ele>160.0</ele>
        <time>2022-04-14T07:09:24Z</time>
      </trkpt>
      <trkpt lat="47.611603" lon="1.9573872">
        <ele>160.0</ele>
        <time>2022-04-14T07:09:25Z</time>
      </trkpt>
      <trkpt lat="47.611603" lon="1.9573872">
        <ele>160.0</ele>
        <time>2022-04-14T07:09:26Z</time>
      </trkpt>
      <trkpt lat="47.6116" lon="1.9573662">
        <ele>161.0</ele>
        <time>2022-04-14T07:09:27Z</time>
      </trkpt>
      <trkpt lat="47.611595" lon="1.9573556">
        <ele>162.0</ele>
        <time>2022-04-14T07:09:28Z</time>
      </trkpt>
      <trkpt lat="47.611595" lon="1.957343">
        <ele>162.0</ele>
        <time>2022-04-14T07:09:29Z</time>
      </trkpt>
      <trkpt lat="47.61159" lon="1.9573314">
        <ele>162.0</ele>
        <time>2022-04-14T07:09:30Z</time>
      </trkpt>
      <trkpt lat="47.61159" lon="1.9573314">
        <ele>162.0</ele>
        <time>2022-04-14T07:09:31Z</time>
      </trkpt>
      <trkpt lat="47.61159" lon="1.9573314">
        <ele>162.0</ele>
        <time>2022-04-14T07:09:32Z</time>
      </trkpt>
      <trkpt lat="47.611584" lon="1.9572914">
        <ele>162.0</ele>
        <time>2022-04-14T07:09:33Z</time>
      </trkpt>
      <trkpt lat="47.61158" lon="1.957277">
        <ele>162.0</ele>
        <time>2022-04-14T07:09:34Z</time>
      </trkpt>
      <trkpt lat="47.611576" lon="1.9572629">
        <ele>162.0</ele>
        <time>2022-04-14T07:09:35Z</time>
      </trkpt>
      <trkpt lat="47.611576" lon="1.9572469">
        <ele>162.0</ele>
        <time>2022-04-14T07:09:36Z</time>
      </trkpt>
      <trkpt lat="47.611576" lon="1.957234">
        <ele>161.0</ele>
        <time>2022-04-14T07:09:37Z</time>
      </trkpt>
      <trkpt lat="47.611572" lon="1.9572202">
        <ele>161.0</ele>
        <time>2022-04-14T07:09:38Z</time>
      </trkpt>
      <trkpt lat="47.611565" lon="1.9572058">
        <ele>161.0</ele>
        <time>2022-04-14T07:09:39Z</time>
      </trkpt>
      <trkpt lat="47.611565" lon="1.9572058">
        <ele>161.0</ele>
        <time>2022-04-14T07:09:40Z</time>
      </trkpt>
      <trkpt lat="47.611565" lon="1.9572058">
        <ele>161.0</ele>
        <time>2022-04-14T07:09:41Z</time>
      </trkpt>
      <trkpt lat="47.61156" lon="1.9571757">
        <ele>161.0</ele>
        <time>2022-04-14T07:09:42Z</time>
      </trkpt>
      <trkpt lat="47.611553" lon="1.9571592">
        <ele>160.0</ele>
        <time>2022-04-14T07:09:43Z</time>
      </trkpt>
      <trkpt lat="47.61155" lon="1.9571449">
        <ele>160.0</ele>
        <time>2022-04-14T07:09:44Z</time>
      </trkpt>
      <trkpt lat="47.611546" lon="1.9571304">
        <ele>160.0</ele>
        <time>2022-04-14T07:09:45Z</time>
      </trkpt>
      <trkpt lat="47.611546" lon="1.9571304">
        <ele>160.0</ele>
        <time>2022-04-14T07:09:46Z</time>
      </trkpt>
      <trkpt lat="47.611546" lon="1.9571304">
        <ele>160.0</ele>
        <time>2022-04-14T07:09:47Z</time>
      </trkpt>
      <trkpt lat="47.611538" lon="1.9571068">
        <ele>159.0</ele>
        <time>2022-04-14T07:09:48Z</time>
      </trkpt>
      <trkpt lat="47.611538" lon="1.9570954">
        <ele>159.0</ele>
        <time>2022-04-14T07:09:49Z</time>
      </trkpt>
      <trkpt lat="47.611538" lon="1.9570826">
        <ele>159.0</ele>
        <time>2022-04-14T07:09:50Z</time>
      </trkpt>
      <trkpt lat="47.611534" lon="1.9570692">
        <ele>159.0</ele>
        <time>2022-04-14T07:09:51Z</time>
      </trkpt>
      <trkpt lat="47.611534" lon="1.9570692">
        <ele>159.0</ele>
        <time>2022-04-14T07:09:52Z</time>
      </trkpt>
      <trkpt lat="47.611534" lon="1.9570692">
        <ele>159.0</ele>
        <time>2022-04-14T07:09:53Z</time>
      </trkpt>
      <trkpt lat="47.611526" lon="1.9570353">
        <ele>160.0</ele>
        <time>2022-04-14T07:09:54Z</time>
      </trkpt>
      <trkpt lat="47.61152" lon="1.9570218">
        <ele>160.0</ele>
        <time>2022-04-14T07:09:55Z</time>
      </trkpt>
      <trkpt lat="47.61152" lon="1.9570098">
        <ele>160.0</ele>
        <time>2022-04-14T07:09:56Z</time>
      </trkpt>
      <trkpt lat="47.61152" lon="1.9569966">
        <ele>160.0</ele>
        <time>2022-04-14T07:09:57Z</time>
      </trkpt>
      <trkpt lat="47.611515" lon="1.9569808">
        <ele>160.0</ele>
        <time>2022-04-14T07:09:58Z</time>
      </trkpt>
      <trkpt lat="47.61151" lon="1.956966">
        <ele>160.0</ele>
        <time>2022-04-14T07:09:59Z</time>
      </trkpt>
      <trkpt lat="47.61151" lon="1.9569554">
        <ele>160.0</ele>
        <time>2022-04-14T07:10:00Z</time>
      </trkpt>
      <trkpt lat="47.611507" lon="1.9569441">
        <ele>160.0</ele>
        <time>2022-04-14T07:10:01Z</time>
      </trkpt>
      <trkpt lat="47.611504" lon="1.9569334">
        <ele>160.0</ele>
        <time>2022-04-14T07:10:02Z</time>
      </trkpt>
      <trkpt lat="47.611504" lon="1.9569334">
        <ele>160.0</ele>
        <time>2022-04-14T07:10:03Z</time>
      </trkpt>
      <trkpt lat="47.611504" lon="1.9569334">
        <ele>160.0</ele>
        <time>2022-04-14T07:10:04Z</time>
      </trkpt>
      <trkpt lat="47.611515" lon="1.9569144">
        <ele>159.0</ele>
        <time>2022-04-14T07:10:05Z</time>
      </trkpt>
      <trkpt lat="47.61152" lon="1.9569101">
        <ele>159.0</ele>
        <time>2022-04-14T07:10:06Z</time>
      </trkpt>
      <trkpt lat="47.611523" lon="1.9569046">
        <ele>159.0</ele>
        <time>2022-04-14T07:10:07Z</time>
      </trkpt>
      <trkpt lat="47.61153" lon="1.956897">
        <ele>159.0</ele>
        <time>2022-04-14T07:10:08Z</time>
      </trkpt>
      <trkpt lat="47.61153" lon="1.956897">
        <ele>159.0</ele>
        <time>2022-04-14T07:10:09Z</time>
      </trkpt>
      <trkpt lat="47.61153" lon="1.956897">
        <ele>159.0</ele>
        <time>2022-04-14T07:10:10Z</time>
      </trkpt>
      <trkpt lat="47.611538" lon="1.9568694">
        <ele>158.0</ele>
        <time>2022-04-14T07:10:11Z</time>
      </trkpt>
      <trkpt lat="47.611538" lon="1.9568585">
        <ele>157.0</ele>
        <time>2022-04-14T07:10:12Z</time>
      </trkpt>
      <trkpt lat="47.611538" lon="1.9568465">
        <ele>158.0</ele>
        <time>2022-04-14T07:10:13Z</time>
      </trkpt>
      <trkpt lat="47.611538" lon="1.9568352">
        <ele>157.0</ele>
        <time>2022-04-14T07:10:14Z</time>
      </trkpt>
      <trkpt lat="47.611538" lon="1.9568352">
        <ele>157.0</ele>
        <time>2022-04-14T07:10:15Z</time>
      </trkpt>
      <trkpt lat="47.611538" lon="1.9568352">
        <ele>157.0</ele>
        <time>2022-04-14T07:10:16Z</time>
      </trkpt>
      <trkpt lat="47.611534" lon="1.9568039">
        <ele>155.0</ele>
        <time>2022-04-14T07:10:17Z</time>
      </trkpt>
      <trkpt lat="47.611538" lon="1.9567909">
        <ele>155.0</ele>
        <time>2022-04-14T07:10:18Z</time>
      </trkpt>
      <trkpt lat="47.611534" lon="1.9567747">
        <ele>154.0</ele>
        <time>2022-04-14T07:10:19Z</time>
      </trkpt>
      <trkpt lat="47.611534" lon="1.9567574">
        <ele>153.0</ele>
        <time>2022-04-14T07:10:20Z</time>
      </trkpt>
      <trkpt lat="47.611534" lon="1.9567574">
        <ele>153.0</ele>
        <time>2022-04-14T07:10:21Z</time>
      </trkpt>
      <trkpt lat="47.611534" lon="1.9567574">
        <ele>153.0</ele>
        <time>2022-04-14T07:10:22Z</time>
      </trkpt>
      <trkpt lat="47.611534" lon="1.9567184">
        <ele>152.0</ele>
        <time>2022-04-14T07:10:23Z</time>
      </trkpt>
      <trkpt lat="47.61153" lon="1.9567013">
        <ele>151.0</ele>
        <time>2022-04-14T07:10:24Z</time>
      </trkpt>
      <trkpt lat="47.611526" lon="1.956683">
        <ele>151.0</ele>
        <time>2022-04-14T07:10:25Z</time>
      </trkpt>
      <trkpt lat="47.611526" lon="1.9566618">
        <ele>150.0</ele>
        <time>2022-04-14T07:10:26Z</time>
      </trkpt>
      <trkpt lat="47.611526" lon="1.9566618">
        <ele>150.0</ele>
        <time>2022-04-14T07:10:27Z</time>
      </trkpt>
      <trkpt lat="47.611526" lon="1.9566225">
        <ele>150.0</ele>
        <time>2022-04-14T07:10:28Z</time>
      </trkpt>
      <trkpt lat="47.611523" lon="1.9566045">
        <ele>150.0</ele>
        <time>2022-04-14T07:10:29Z</time>
      </trkpt>
      <trkpt lat="47.61152" lon="1.9565917">
        <ele>151.0</ele>
        <time>2022-04-14T07:10:30Z</time>
      </trkpt>
      <trkpt lat="47.611515" lon="1.9565767">
        <ele>151.0</ele>
        <time>2022-04-14T07:10:31Z</time>
      </trkpt>
      <trkpt lat="47.611515" lon="1.9565598">
        <ele>151.0</ele>
        <time>2022-04-14T07:10:32Z</time>
      </trkpt>
      <trkpt lat="47.61151" lon="1.9565406">
        <ele>151.0</ele>
        <time>2022-04-14T07:10:33Z</time>
      </trkpt>
      <trkpt lat="47.61151" lon="1.9565226">
        <ele>151.0</ele>
        <time>2022-04-14T07:10:34Z</time>
      </trkpt>
      <trkpt lat="47.61151" lon="1.9565018">
        <ele>151.0</ele>
        <time>2022-04-14T07:10:35Z</time>
      </trkpt>
      <trkpt lat="47.61151" lon="1.9564867">
        <ele>151.0</ele>
        <time>2022-04-14T07:10:36Z</time>
      </trkpt>
      <trkpt lat="47.611515" lon="1.9564722">
        <ele>151.0</ele>
        <time>2022-04-14T07:10:37Z</time>
      </trkpt>
      <trkpt lat="47.61152" lon="1.9564575">
        <ele>151.0</ele>
        <time>2022-04-14T07:10:38Z</time>
      </trkpt>
      <trkpt lat="47.611523" lon="1.9564407">
        <ele>151.0</ele>
        <time>2022-04-14T07:10:39Z</time>
      </trkpt>
      <trkpt lat="47.611526" lon="1.9564216">
        <ele>151.0</ele>
        <time>2022-04-14T07:10:40Z</time>
      </trkpt>
      <trkpt lat="47.611534" lon="1.9564011">
        <ele>151.0</ele>
        <time>2022-04-14T07:10:41Z</time>
      </trkpt>
      <trkpt lat="47.61154" lon="1.9563842">
        <ele>150.0</ele>
        <time>2022-04-14T07:10:42Z</time>
      </trkpt>
      <trkpt lat="47.611546" lon="1.9563694">
        <ele>150.0</ele>
        <time>2022-04-14T07:10:43Z</time>
      </trkpt>
      <trkpt lat="47.61155" lon="1.956358">
        <ele>150.0</ele>
        <time>2022-04-14T07:10:44Z</time>
      </trkpt>
      <trkpt lat="47.611553" lon="1.9563447">
        <ele>150.0</ele>
        <time>2022-04-14T07:10:45Z</time>
      </trkpt>
      <trkpt lat="47.61156" lon="1.956331">
        <ele>150.0</ele>
        <time>2022-04-14T07:10:46Z</time>
      </trkpt>
      <trkpt lat="47.611565" lon="1.9563181">
        <ele>149.0</ele>
        <time>2022-04-14T07:10:47Z</time>
      </trkpt>
      <trkpt lat="47.611565" lon="1.9563062">
        <ele>149.0</ele>
        <time>2022-04-14T07:10:48Z</time>
      </trkpt>
      <trkpt lat="47.61157" lon="1.9562913">
        <ele>148.0</ele>
        <time>2022-04-14T07:10:49Z</time>
      </trkpt>
      <trkpt lat="47.61157" lon="1.9562788">
        <ele>148.0</ele>
        <time>2022-04-14T07:10:50Z</time>
      </trkpt>
      <trkpt lat="47.611572" lon="1.9562674">
        <ele>148.0</ele>
        <time>2022-04-14T07:10:51Z</time>
      </trkpt>
      <trkpt lat="47.611576" lon="1.9562545">
        <ele>148.0</ele>
        <time>2022-04-14T07:10:52Z</time>
      </trkpt>
      <trkpt lat="47.61158" lon="1.956241">
        <ele>148.0</ele>
        <time>2022-04-14T07:10:53Z</time>
      </trkpt>
      <trkpt lat="47.61158" lon="1.9562292">
        <ele>147.0</ele>
        <time>2022-04-14T07:10:54Z</time>
      </trkpt>
      <trkpt lat="47.61158" lon="1.9562292">
        <ele>147.0</ele>
        <time>2022-04-14T07:10:55Z</time>
      </trkpt>
      <trkpt lat="47.61158" lon="1.9562292">
        <ele>147.0</ele>
        <time>2022-04-14T07:10:56Z</time>
      </trkpt>
      <trkpt lat="47.61158" lon="1.956197">
        <ele>147.0</ele>
        <time>2022-04-14T07:10:57Z</time>
      </trkpt>
      <trkpt lat="47.611584" lon="1.9561828">
        <ele>147.0</ele>
        <time>2022-04-14T07:10:58Z</time>
      </trkpt>
      <trkpt lat="47.611584" lon="1.9561682">
        <ele>147.0</ele>
        <time>2022-04-14T07:10:59Z</time>
      </trkpt>
      <trkpt lat="47.611584" lon="1.9561532">
        <ele>146.0</ele>
        <time>2022-04-14T07:11:00Z</time>
      </trkpt>
      <trkpt lat="47.611584" lon="1.9561532">
        <ele>146.0</ele>
        <time>2022-04-14T07:11:01Z</time>
      </trkpt>
      <trkpt lat="47.611584" lon="1.9561532">
        <ele>146.0</ele>
        <time>2022-04-14T07:11:02Z</time>
      </trkpt>
      <trkpt lat="47.611588" lon="1.9561131">
        <ele>146.0</ele>
        <time>2022-04-14T07:11:03Z</time>
      </trkpt>
      <trkpt lat="47.611588" lon="1.9560982">
        <ele>146.0</ele>
        <time>2022-04-14T07:11:04Z</time>
      </trkpt>
      <trkpt lat="47.61159" lon="1.9560809">
        <ele>145.0</ele>
        <time>2022-04-14T07:11:05Z</time>
      </trkpt>
      <trkpt lat="47.61159" lon="1.9560657">
        <ele>145.0</ele>
        <time>2022-04-14T07:11:06Z</time>
      </trkpt>
      <trkpt lat="47.6116" lon="1.9560535">
        <ele>145.0</ele>
        <time>2022-04-14T07:11:07Z</time>
      </trkpt>
      <trkpt lat="47.6116" lon="1.9560535">
        <ele>145.0</ele>
        <time>2022-04-14T07:11:08Z</time>
      </trkpt>
      <trkpt lat="47.6116" lon="1.9560535">
        <ele>145.0</ele>
        <time>2022-04-14T07:11:09Z</time>
      </trkpt>
      <trkpt lat="47.611607" lon="1.9560108">
        <ele>145.0</ele>
        <time>2022-04-14T07:11:10Z</time>
      </trkpt>
      <trkpt lat="47.611607" lon="1.9559929">
        <ele>145.0</ele>
        <time>2022-04-14T07:11:11Z</time>
      </trkpt>
      <trkpt lat="47.61161" lon="1.9559722">
        <ele>144.0</ele>
        <time>2022-04-14T07:11:12Z</time>
      </trkpt>
      <trkpt lat="47.61161" lon="1.9559572">
        <ele>144.0</ele>
        <time>2022-04-14T07:11:13Z</time>
      </trkpt>
      <trkpt lat="47.611614" lon="1.9559404">
        <ele>144.0</ele>
        <time>2022-04-14T07:11:14Z</time>
      </trkpt>
      <trkpt lat="47.611614" lon="1.9559404">
        <ele>144.0</ele>
        <time>2022-04-14T07:11:15Z</time>
      </trkpt>
      <trkpt lat="47.611614" lon="1.9559404">
        <ele>144.0</ele>
        <time>2022-04-14T07:11:16Z</time>
      </trkpt>
      <trkpt lat="47.611618" lon="1.9559005">
        <ele>144.0</ele>
        <time>2022-04-14T07:11:17Z</time>
      </trkpt>
      <trkpt lat="47.61162" lon="1.9558865">
        <ele>143.0</ele>
        <time>2022-04-14T07:11:18Z</time>
      </trkpt>
      <trkpt lat="47.61162" lon="1.9558705">
        <ele>143.0</ele>
        <time>2022-04-14T07:11:19Z</time>
      </trkpt>
      <trkpt lat="47.61162" lon="1.9558548">
        <ele>143.0</ele>
        <time>2022-04-14T07:11:20Z</time>
      </trkpt>
      <trkpt lat="47.61162" lon="1.9558548">
        <ele>143.0</ele>
        <time>2022-04-14T07:11:21Z</time>
      </trkpt>
      <trkpt lat="47.61162" lon="1.9558548">
        <ele>143.0</ele>
        <time>2022-04-14T07:11:22Z</time>
      </trkpt>
      <trkpt lat="47.61163" lon="1.9558176">
        <ele>143.0</ele>
        <time>2022-04-14T07:11:23Z</time>
      </trkpt>
      <trkpt lat="47.611633" lon="1.9558043">
        <ele>143.0</ele>
        <time>2022-04-14T07:11:24Z</time>
      </trkpt>
      <trkpt lat="47.611633" lon="1.9557912">
        <ele>143.0</ele>
        <time>2022-04-14T07:11:25Z</time>
      </trkpt>
      <trkpt lat="47.61164" lon="1.9557797">
        <ele>142.0</ele>
        <time>2022-04-14T07:11:26Z</time>
      </trkpt>
      <trkpt lat="47.61164" lon="1.9557797">
        <ele>142.0</ele>
        <time>2022-04-14T07:11:27Z</time>
      </trkpt>
      <trkpt lat="47.61164" lon="1.9557797">
        <ele>142.0</ele>
        <time>2022-04-14T07:11:28Z</time>
      </trkpt>
      <trkpt lat="47.61164" lon="1.9557322">
        <ele>142.0</ele>
        <time>2022-04-14T07:11:29Z</time>
      </trkpt>
      <trkpt lat="47.611645" lon="1.9557152">
        <ele>141.0</ele>
        <time>2022-04-14T07:11:30Z</time>
      </trkpt>
      <trkpt lat="47.61165" lon="1.9557003">
        <ele>141.0</ele>
        <time>2022-04-14T07:11:31Z</time>
      </trkpt>
      <trkpt lat="47.611652" lon="1.9556845">
        <ele>141.0</ele>
        <time>2022-04-14T07:11:32Z</time>
      </trkpt>
      <trkpt lat="47.611652" lon="1.9556845">
        <ele>141.0</ele>
        <time>2022-04-14T07:11:33Z</time>
      </trkpt>
      <trkpt lat="47.611652" lon="1.9556845">
        <ele>141.0</ele>
        <time>2022-04-14T07:11:34Z</time>
      </trkpt>
      <trkpt lat="47.611652" lon="1.9556379">
        <ele>141.0</ele>
        <time>2022-04-14T07:11:35Z</time>
      </trkpt>
      <trkpt lat="47.611652" lon="1.9556214">
        <ele>141.0</ele>
        <time>2022-04-14T07:11:36Z</time>
      </trkpt>
      <trkpt lat="47.611652" lon="1.9556035">
        <ele>141.0</ele>
        <time>2022-04-14T07:11:37Z</time>
      </trkpt>
      <trkpt lat="47.61165" lon="1.955588">
        <ele>141.0</ele>
        <time>2022-04-14T07:11:38Z</time>
      </trkpt>
      <trkpt lat="47.61165" lon="1.955588">
        <ele>141.0</ele>
        <time>2022-04-14T07:11:39Z</time>
      </trkpt>
      <trkpt lat="47.61165" lon="1.955588">
        <ele>141.0</ele>
        <time>2022-04-14T07:11:40Z</time>
      </trkpt>
      <trkpt lat="47.611652" lon="1.9555527">
        <ele>141.0</ele>
        <time>2022-04-14T07:11:41Z</time>
      </trkpt>
      <trkpt lat="47.611652" lon="1.9555433">
        <ele>141.0</ele>
        <time>2022-04-14T07:11:42Z</time>
      </trkpt>
      <trkpt lat="47.611656" lon="1.9555286">
        <ele>141.0</ele>
        <time>2022-04-14T07:11:43Z</time>
      </trkpt>
      <trkpt lat="47.61166" lon="1.95551">
        <ele>141.0</ele>
        <time>2022-04-14T07:11:44Z</time>
      </trkpt>
      <trkpt lat="47.611668" lon="1.9554961">
        <ele>142.0</ele>
        <time>2022-04-14T07:11:45Z</time>
      </trkpt>
      <trkpt lat="47.611675" lon="1.9554855">
        <ele>142.0</ele>
        <time>2022-04-14T07:11:46Z</time>
      </trkpt>
      <trkpt lat="47.61168" lon="1.9554697">
        <ele>142.0</ele>
        <time>2022-04-14T07:11:47Z</time>
      </trkpt>
      <trkpt lat="47.611683" lon="1.9554523">
        <ele>142.0</ele>
        <time>2022-04-14T07:11:48Z</time>
      </trkpt>
      <trkpt lat="47.611687" lon="1.9554356">
        <ele>142.0</ele>
        <time>2022-04-14T07:11:49Z</time>
      </trkpt>
      <trkpt lat="47.61169" lon="1.9554201">
        <ele>142.0</ele>
        <time>2022-04-14T07:11:50Z</time>
      </trkpt>
      <trkpt lat="47.611694" lon="1.9553993">
        <ele>142.0</ele>
        <time>2022-04-14T07:11:51Z</time>
      </trkpt>
      <trkpt lat="47.611694" lon="1.9553834">
        <ele>142.0</ele>
        <time>2022-04-14T07:11:52Z</time>
      </trkpt>
      <trkpt lat="47.6117" lon="1.9553688">
        <ele>142.0</ele>
        <time>2022-04-14T07:11:53Z</time>
      </trkpt>
      <trkpt lat="47.611702" lon="1.9553508">
        <ele>142.0</ele>
        <time>2022-04-14T07:11:54Z</time>
      </trkpt>
      <trkpt lat="47.611706" lon="1.9553353">
        <ele>142.0</ele>
        <time>2022-04-14T07:11:55Z</time>
      </trkpt>
      <trkpt lat="47.61171" lon="1.9553229">
        <ele>142.0</ele>
        <time>2022-04-14T07:11:56Z</time>
      </trkpt>
      <trkpt lat="47.611717" lon="1.9553035">
        <ele>141.0</ele>
        <time>2022-04-14T07:11:57Z</time>
      </trkpt>
      <trkpt lat="47.61172" lon="1.955282">
        <ele>142.0</ele>
        <time>2022-04-14T07:11:58Z</time>
      </trkpt>
      <trkpt lat="47.61173" lon="1.955263">
        <ele>142.0</ele>
        <time>2022-04-14T07:11:59Z</time>
      </trkpt>
      <trkpt lat="47.611732" lon="1.955243">
        <ele>141.0</ele>
        <time>2022-04-14T07:12:00Z</time>
      </trkpt>
      <trkpt lat="47.61174" lon="1.9552239">
        <ele>141.0</ele>
        <time>2022-04-14T07:12:01Z</time>
      </trkpt>
      <trkpt lat="47.611744" lon="1.9552073">
        <ele>141.0</ele>
        <time>2022-04-14T07:12:02Z</time>
      </trkpt>
      <trkpt lat="47.611744" lon="1.95519">
        <ele>141.0</ele>
        <time>2022-04-14T07:12:03Z</time>
      </trkpt>
      <trkpt lat="47.611748" lon="1.9551747">
        <ele>141.0</ele>
        <time>2022-04-14T07:12:04Z</time>
      </trkpt>
      <trkpt lat="47.61175" lon="1.95516">
        <ele>141.0</ele>
        <time>2022-04-14T07:12:05Z</time>
      </trkpt>
      <trkpt lat="47.611755" lon="1.9551431">
        <ele>142.0</ele>
        <time>2022-04-14T07:12:06Z</time>
      </trkpt>
      <trkpt lat="47.611755" lon="1.9551275">
        <ele>142.0</ele>
        <time>2022-04-14T07:12:07Z</time>
      </trkpt>
      <trkpt lat="47.61176" lon="1.9551109">
        <ele>142.0</ele>
        <time>2022-04-14T07:12:08Z</time>
      </trkpt>
      <trkpt lat="47.611763" lon="1.9550948">
        <ele>143.0</ele>
        <time>2022-04-14T07:12:09Z</time>
      </trkpt>
      <trkpt lat="47.611767" lon="1.9550773">
        <ele>143.0</ele>
        <time>2022-04-14T07:12:10Z</time>
      </trkpt>
      <trkpt lat="47.611767" lon="1.9550592">
        <ele>143.0</ele>
        <time>2022-04-14T07:12:11Z</time>
      </trkpt>
      <trkpt lat="47.611774" lon="1.9550431">
        <ele>143.0</ele>
        <time>2022-04-14T07:12:12Z</time>
      </trkpt>
      <trkpt lat="47.611782" lon="1.9550271">
        <ele>142.0</ele>
        <time>2022-04-14T07:12:13Z</time>
      </trkpt>
      <trkpt lat="47.61179" lon="1.9550102">
        <ele>141.0</ele>
        <time>2022-04-14T07:12:14Z</time>
      </trkpt>
      <trkpt lat="47.611797" lon="1.9549888">
        <ele>141.0</ele>
        <time>2022-04-14T07:12:15Z</time>
      </trkpt>
      <trkpt lat="47.6118" lon="1.9549711">
        <ele>142.0</ele>
        <time>2022-04-14T07:12:16Z</time>
      </trkpt>
      <trkpt lat="47.611805" lon="1.954957">
        <ele>142.0</ele>
        <time>2022-04-14T07:12:17Z</time>
      </trkpt>
      <trkpt lat="47.61181" lon="1.9549395">
        <ele>142.0</ele>
        <time>2022-04-14T07:12:18Z</time>
      </trkpt>
      <trkpt lat="47.611816" lon="1.9549261">
        <ele>142.0</ele>
        <time>2022-04-14T07:12:19Z</time>
      </trkpt>
      <trkpt lat="47.611816" lon="1.9549122">
        <ele>143.0</ele>
        <time>2022-04-14T07:12:20Z</time>
      </trkpt>
      <trkpt lat="47.61182" lon="1.9548969">
        <ele>143.0</ele>
        <time>2022-04-14T07:12:21Z</time>
      </trkpt>
      <trkpt lat="47.61182" lon="1.9548969">
        <ele>143.0</ele>
        <time>2022-04-14T07:12:22Z</time>
      </trkpt>
      <trkpt lat="47.61182" lon="1.9548969">
        <ele>143.0</ele>
        <time>2022-04-14T07:12:23Z</time>
      </trkpt>
      <trkpt lat="47.611835" lon="1.9548643">
        <ele>144.0</ele>
        <time>2022-04-14T07:12:24Z</time>
      </trkpt>
      <trkpt lat="47.611835" lon="1.9548489">
        <ele>143.0</ele>
        <time>2022-04-14T07:12:25Z</time>
      </trkpt>
      <trkpt lat="47.611843" lon="1.9548357">
        <ele>143.0</ele>
        <time>2022-04-14T07:12:26Z</time>
      </trkpt>
      <trkpt lat="47.611847" lon="1.9548178">
        <ele>143.0</ele>
        <time>2022-04-14T07:12:27Z</time>
      </trkpt>
      <trkpt lat="47.61185" lon="1.9547997">
        <ele>143.0</ele>
        <time>2022-04-14T07:12:28Z</time>
      </trkpt>
      <trkpt lat="47.61185" lon="1.954785">
        <ele>143.0</ele>
        <time>2022-04-14T07:12:29Z</time>
      </trkpt>
      <trkpt lat="47.611855" lon="1.9547715">
        <ele>143.0</ele>
        <time>2022-04-14T07:12:30Z</time>
      </trkpt>
      <trkpt lat="47.61186" lon="1.9547608">
        <ele>144.0</ele>
        <time>2022-04-14T07:12:31Z</time>
      </trkpt>
      <trkpt lat="47.611862" lon="1.954744">
        <ele>144.0</ele>
        <time>2022-04-14T07:12:32Z</time>
      </trkpt>
      <trkpt lat="47.611862" lon="1.954744">
        <ele>144.0</ele>
        <time>2022-04-14T07:12:33Z</time>
      </trkpt>
      <trkpt lat="47.611862" lon="1.954744">
        <ele>144.0</ele>
        <time>2022-04-14T07:12:34Z</time>
      </trkpt>
      <trkpt lat="47.61187" lon="1.9547065">
        <ele>144.0</ele>
        <time>2022-04-14T07:12:35Z</time>
      </trkpt>
      <trkpt lat="47.611877" lon="1.9546915">
        <ele>145.0</ele>
        <time>2022-04-14T07:12:36Z</time>
      </trkpt>
      <trkpt lat="47.611885" lon="1.9546744">
        <ele>145.0</ele>
        <time>2022-04-14T07:12:37Z</time>
      </trkpt>
      <trkpt lat="47.611893" lon="1.9546564">
        <ele>145.0</ele>
        <time>2022-04-14T07:12:38Z</time>
      </trkpt>
      <trkpt lat="47.6119" lon="1.9546422">
        <ele>145.0</ele>
        <time>2022-04-14T07:12:39Z</time>
      </trkpt>
      <trkpt lat="47.611908" lon="1.9546269">
        <ele>145.0</ele>
        <time>2022-04-14T07:12:40Z</time>
      </trkpt>
      <trkpt lat="47.611916" lon="1.9546094">
        <ele>145.0</ele>
        <time>2022-04-14T07:12:41Z</time>
      </trkpt>
      <trkpt lat="47.61192" lon="1.9545939">
        <ele>145.0</ele>
        <time>2022-04-14T07:12:42Z</time>
      </trkpt>
      <trkpt lat="47.611923" lon="1.9545747">
        <ele>146.0</ele>
        <time>2022-04-14T07:12:43Z</time>
      </trkpt>
      <trkpt lat="47.611927" lon="1.9545581">
        <ele>146.0</ele>
        <time>2022-04-14T07:12:44Z</time>
      </trkpt>
      <trkpt lat="47.61193" lon="1.9545453">
        <ele>146.0</ele>
        <time>2022-04-14T07:12:45Z</time>
      </trkpt>
      <trkpt lat="47.611935" lon="1.9545332">
        <ele>147.0</ele>
        <time>2022-04-14T07:12:46Z</time>
      </trkpt>
      <trkpt lat="47.611942" lon="1.9545212">
        <ele>146.0</ele>
        <time>2022-04-14T07:12:47Z</time>
      </trkpt>
      <trkpt lat="47.611942" lon="1.9545212">
        <ele>146.0</ele>
        <time>2022-04-14T07:12:48Z</time>
      </trkpt>
      <trkpt lat="47.611942" lon="1.9545212">
        <ele>146.0</ele>
        <time>2022-04-14T07:12:49Z</time>
      </trkpt>
      <trkpt lat="47.611958" lon="1.9544911">
        <ele>147.0</ele>
        <time>2022-04-14T07:12:50Z</time>
      </trkpt>
      <trkpt lat="47.611965" lon="1.9544771">
        <ele>147.0</ele>
        <time>2022-04-14T07:12:51Z</time>
      </trkpt>
      <trkpt lat="47.61197" lon="1.9544632">
        <ele>146.0</ele>
        <time>2022-04-14T07:12:52Z</time>
      </trkpt>
      <trkpt lat="47.611977" lon="1.95445">
        <ele>146.0</ele>
        <time>2022-04-14T07:12:53Z</time>
      </trkpt>
      <trkpt lat="47.611977" lon="1.9544325">
        <ele>146.0</ele>
        <time>2022-04-14T07:12:54Z</time>
      </trkpt>
      <trkpt lat="47.611984" lon="1.9544172">
        <ele>146.0</ele>
        <time>2022-04-14T07:12:55Z</time>
      </trkpt>
      <trkpt lat="47.611988" lon="1.9544007">
        <ele>146.0</ele>
        <time>2022-04-14T07:12:56Z</time>
      </trkpt>
      <trkpt lat="47.61199" lon="1.9543867">
        <ele>146.0</ele>
        <time>2022-04-14T07:12:57Z</time>
      </trkpt>
      <trkpt lat="47.611996" lon="1.95437">
        <ele>146.0</ele>
        <time>2022-04-14T07:12:58Z</time>
      </trkpt>
      <trkpt lat="47.612" lon="1.954353">
        <ele>145.0</ele>
        <time>2022-04-14T07:12:59Z</time>
      </trkpt>
      <trkpt lat="47.612003" lon="1.9543381">
        <ele>145.0</ele>
        <time>2022-04-14T07:13:00Z</time>
      </trkpt>
      <trkpt lat="47.612003" lon="1.9543381">
        <ele>145.0</ele>
        <time>2022-04-14T07:13:01Z</time>
      </trkpt>
      <trkpt lat="47.612003" lon="1.9543381">
        <ele>145.0</ele>
        <time>2022-04-14T07:13:02Z</time>
      </trkpt>
      <trkpt lat="47.612015" lon="1.9542992">
        <ele>145.0</ele>
        <time>2022-04-14T07:13:03Z</time>
      </trkpt>
      <trkpt lat="47.61202" lon="1.9542882">
        <ele>146.0</ele>
        <time>2022-04-14T07:13:04Z</time>
      </trkpt>
      <trkpt lat="47.612022" lon="1.9542768">
        <ele>146.0</ele>
        <time>2022-04-14T07:13:05Z</time>
      </trkpt>
      <trkpt lat="47.612026" lon="1.9542605">
        <ele>145.0</ele>
        <time>2022-04-14T07:13:06Z</time>
      </trkpt>
      <trkpt lat="47.612026" lon="1.9542605">
        <ele>145.0</ele>
        <time>2022-04-14T07:13:07Z</time>
      </trkpt>
      <trkpt lat="47.612026" lon="1.9542605">
        <ele>145.0</ele>
        <time>2022-04-14T07:13:08Z</time>
      </trkpt>
      <trkpt lat="47.612034" lon="1.9542204">
        <ele>143.0</ele>
        <time>2022-04-14T07:13:09Z</time>
      </trkpt>
      <trkpt lat="47.61204" lon="1.9542068">
        <ele>143.0</ele>
        <time>2022-04-14T07:13:10Z</time>
      </trkpt>
      <trkpt lat="47.612045" lon="1.9541909">
        <ele>143.0</ele>
        <time>2022-04-14T07:13:11Z</time>
      </trkpt>
      <trkpt lat="47.61205" lon="1.9541712">
        <ele>143.0</ele>
        <time>2022-04-14T07:13:12Z</time>
      </trkpt>
      <trkpt lat="47.61205" lon="1.9541528">
        <ele>143.0</ele>
        <time>2022-04-14T07:13:13Z</time>
      </trkpt>
      <trkpt lat="47.61205" lon="1.9541384">
        <ele>143.0</ele>
        <time>2022-04-14T07:13:14Z</time>
      </trkpt>
      <trkpt lat="47.61205" lon="1.9541384">
        <ele>143.0</ele>
        <time>2022-04-14T07:13:15Z</time>
      </trkpt>
      <trkpt lat="47.61205" lon="1.9541384">
        <ele>143.0</ele>
        <time>2022-04-14T07:13:16Z</time>
      </trkpt>
      <trkpt lat="47.612057" lon="1.9541037">
        <ele>142.0</ele>
        <time>2022-04-14T07:13:17Z</time>
      </trkpt>
      <trkpt lat="47.61206" lon="1.95409">
        <ele>142.0</ele>
        <time>2022-04-14T07:13:18Z</time>
      </trkpt>
      <trkpt lat="47.612064" lon="1.9540733">
        <ele>141.0</ele>
        <time>2022-04-14T07:13:19Z</time>
      </trkpt>
      <trkpt lat="47.612072" lon="1.9540616">
        <ele>141.0</ele>
        <time>2022-04-14T07:13:20Z</time>
      </trkpt>
      <trkpt lat="47.612076" lon="1.9540474">
        <ele>140.0</ele>
        <time>2022-04-14T07:13:21Z</time>
      </trkpt>
      <trkpt lat="47.612087" lon="1.9540359">
        <ele>140.0</ele>
        <time>2022-04-14T07:13:22Z</time>
      </trkpt>
      <trkpt lat="47.61209" lon="1.9540238">
        <ele>140.0</ele>
        <time>2022-04-14T07:13:23Z</time>
      </trkpt>
      <trkpt lat="47.6121" lon="1.95401">
        <ele>140.0</ele>
        <time>2022-04-14T07:13:24Z</time>
      </trkpt>
      <trkpt lat="47.61211" lon="1.9539993">
        <ele>140.0</ele>
        <time>2022-04-14T07:13:25Z</time>
      </trkpt>
      <trkpt lat="47.612114" lon="1.9539894">
        <ele>140.0</ele>
        <time>2022-04-14T07:13:26Z</time>
      </trkpt>
      <trkpt lat="47.61212" lon="1.9539802">
        <ele>140.0</ele>
        <time>2022-04-14T07:13:27Z</time>
      </trkpt>
      <trkpt lat="47.61213" lon="1.9539644">
        <ele>141.0</ele>
        <time>2022-04-14T07:13:28Z</time>
      </trkpt>
      <trkpt lat="47.612137" lon="1.9539458">
        <ele>141.0</ele>
        <time>2022-04-14T07:13:29Z</time>
      </trkpt>
      <trkpt lat="47.61214" lon="1.9539316">
        <ele>142.0</ele>
        <time>2022-04-14T07:13:30Z</time>
      </trkpt>
      <trkpt lat="47.612152" lon="1.9539154">
        <ele>142.0</ele>
        <time>2022-04-14T07:13:31Z</time>
      </trkpt>
      <trkpt lat="47.61216" lon="1.9538977">
        <ele>142.0</ele>
        <time>2022-04-14T07:13:32Z</time>
      </trkpt>
      <trkpt lat="47.612164" lon="1.9538856">
        <ele>142.0</ele>
        <time>2022-04-14T07:13:33Z</time>
      </trkpt>
      <trkpt lat="47.61217" lon="1.9538711">
        <ele>142.0</ele>
        <time>2022-04-14T07:13:34Z</time>
      </trkpt>
      <trkpt lat="47.612175" lon="1.9538606">
        <ele>142.0</ele>
        <time>2022-04-14T07:13:35Z</time>
      </trkpt>
      <trkpt lat="47.612183" lon="1.9538503">
        <ele>142.0</ele>
        <time>2022-04-14T07:13:36Z</time>
      </trkpt>
      <trkpt lat="47.61219" lon="1.9538373">
        <ele>142.0</ele>
        <time>2022-04-14T07:13:37Z</time>
      </trkpt>
      <trkpt lat="47.6122" lon="1.9538226">
        <ele>142.0</ele>
        <time>2022-04-14T07:13:38Z</time>
      </trkpt>
      <trkpt lat="47.61221" lon="1.9538076">
        <ele>142.0</ele>
        <time>2022-04-14T07:13:39Z</time>
      </trkpt>
      <trkpt lat="47.612213" lon="1.9538002">
        <ele>142.0</ele>
        <time>2022-04-14T07:13:40Z</time>
      </trkpt>
      <trkpt lat="47.612217" lon="1.9537828">
        <ele>142.0</ele>
        <time>2022-04-14T07:13:41Z</time>
      </trkpt>
      <trkpt lat="47.612217" lon="1.9537828">
        <ele>142.0</ele>
        <time>2022-04-14T07:13:42Z</time>
      </trkpt>
      <trkpt lat="47.612217" lon="1.9537828">
        <ele>142.0</ele>
        <time>2022-04-14T07:13:43Z</time>
      </trkpt>
      <trkpt lat="47.61222" lon="1.9537373">
        <ele>141.0</ele>
        <time>2022-04-14T07:13:44Z</time>
      </trkpt>
      <trkpt lat="47.61223" lon="1.9537246">
        <ele>141.0</ele>
        <time>2022-04-14T07:13:45Z</time>
      </trkpt>
      <trkpt lat="47.61224" lon="1.9537101">
        <ele>141.0</ele>
        <time>2022-04-14T07:13:46Z</time>
      </trkpt>
      <trkpt lat="47.612247" lon="1.9536955">
        <ele>140.0</ele>
        <time>2022-04-14T07:13:47Z</time>
      </trkpt>
      <trkpt lat="47.612255" lon="1.9536834">
        <ele>141.0</ele>
        <time>2022-04-14T07:13:48Z</time>
      </trkpt>
      <trkpt lat="47.612263" lon="1.9536684">
        <ele>141.0</ele>
        <time>2022-04-14T07:13:49Z</time>
      </trkpt>
      <trkpt lat="47.61227" lon="1.9536506">
        <ele>140.0</ele>
        <time>2022-04-14T07:13:50Z</time>
      </trkpt>
      <trkpt lat="47.612278" lon="1.953632">
        <ele>140.0</ele>
        <time>2022-04-14T07:13:51Z</time>
      </trkpt>
      <trkpt lat="47.61228" lon="1.9536172">
        <ele>140.0</ele>
        <time>2022-04-14T07:13:52Z</time>
      </trkpt>
      <trkpt lat="47.61229" lon="1.9535978">
        <ele>140.0</ele>
        <time>2022-04-14T07:13:53Z</time>
      </trkpt>
      <trkpt lat="47.612293" lon="1.9535836">
        <ele>140.0</ele>
        <time>2022-04-14T07:13:54Z</time>
      </trkpt>
      <trkpt lat="47.612305" lon="1.9535531">
        <ele>140.0</ele>
        <time>2022-04-14T07:13:55Z</time>
      </trkpt>
      <trkpt lat="47.612305" lon="1.9535531">
        <ele>140.0</ele>
        <time>2022-04-14T07:13:55Z</time>
      </trkpt>
      <trkpt lat="47.612312" lon="1.9535376">
        <ele>141.0</ele>
        <time>2022-04-14T07:13:57Z</time>
      </trkpt>
      <trkpt lat="47.61232" lon="1.9535182">
        <ele>141.0</ele>
        <time>2022-04-14T07:13:58Z</time>
      </trkpt>
      <trkpt lat="47.61232" lon="1.9535006">
        <ele>141.0</ele>
        <time>2022-04-14T07:13:59Z</time>
      </trkpt>
      <trkpt lat="47.612328" lon="1.9534832">
        <ele>141.0</ele>
        <time>2022-04-14T07:14:00Z</time>
      </trkpt>
      <trkpt lat="47.61233" lon="1.9534649">
        <ele>141.0</ele>
        <time>2022-04-14T07:14:01Z</time>
      </trkpt>
      <trkpt lat="47.61234" lon="1.9534299">
        <ele>141.0</ele>
        <time>2022-04-14T07:14:02Z</time>
      </trkpt>
      <trkpt lat="47.61234" lon="1.9534299">
        <ele>141.0</ele>
        <time>2022-04-14T07:14:02Z</time>
      </trkpt>
      <trkpt lat="47.612343" lon="1.9534129">
        <ele>142.0</ele>
        <time>2022-04-14T07:14:04Z</time>
      </trkpt>
      <trkpt lat="47.612343" lon="1.9534129">
        <ele>142.0</ele>
        <time>2022-04-14T07:14:05Z</time>
      </trkpt>
      <trkpt lat="47.612343" lon="1.9534129">
        <ele>142.0</ele>
        <time>2022-04-14T07:14:05Z</time>
      </trkpt>
      <trkpt lat="47.612354" lon="1.9533681">
        <ele>141.0</ele>
        <time>2022-04-14T07:14:07Z</time>
      </trkpt>
      <trkpt lat="47.612366" lon="1.9533415">
        <ele>141.0</ele>
        <time>2022-04-14T07:14:08Z</time>
      </trkpt>
      <trkpt lat="47.612366" lon="1.9533415">
        <ele>141.0</ele>
        <time>2022-04-14T07:14:08Z</time>
      </trkpt>
      <trkpt lat="47.61237" lon="1.95333">
        <ele>141.0</ele>
        <time>2022-04-14T07:14:10Z</time>
      </trkpt>
      <trkpt lat="47.61237" lon="1.9533163">
        <ele>141.0</ele>
        <time>2022-04-14T07:14:11Z</time>
      </trkpt>
      <trkpt lat="47.61237" lon="1.9533163">
        <ele>141.0</ele>
        <time>2022-04-14T07:14:12Z</time>
      </trkpt>
      <trkpt lat="47.61237" lon="1.9533163">
        <ele>141.0</ele>
        <time>2022-04-14T07:14:13Z</time>
      </trkpt>
      <trkpt lat="47.61238" lon="1.953289">
        <ele>141.0</ele>
        <time>2022-04-14T07:14:14Z</time>
      </trkpt>
      <trkpt lat="47.61239" lon="1.9532782">
        <ele>141.0</ele>
        <time>2022-04-14T07:14:15Z</time>
      </trkpt>
      <trkpt lat="47.61239" lon="1.9532686">
        <ele>142.0</ele>
        <time>2022-04-14T07:14:16Z</time>
      </trkpt>
      <trkpt lat="47.612396" lon="1.9532495">
        <ele>141.0</ele>
        <time>2022-04-14T07:14:17Z</time>
      </trkpt>
      <trkpt lat="47.6124" lon="1.9532297">
        <ele>141.0</ele>
        <time>2022-04-14T07:14:18Z</time>
      </trkpt>
      <trkpt lat="47.612404" lon="1.9532117">
        <ele>141.0</ele>
        <time>2022-04-14T07:14:19Z</time>
      </trkpt>
      <trkpt lat="47.61241" lon="1.9531935">
        <ele>141.0</ele>
        <time>2022-04-14T07:14:20Z</time>
      </trkpt>
      <trkpt lat="47.612415" lon="1.9531751">
        <ele>141.0</ele>
        <time>2022-04-14T07:14:21Z</time>
      </trkpt>
      <trkpt lat="47.612427" lon="1.9531338">
        <ele>140.0</ele>
        <time>2022-04-14T07:14:22Z</time>
      </trkpt>
      <trkpt lat="47.612427" lon="1.9531338">
        <ele>140.0</ele>
        <time>2022-04-14T07:14:22Z</time>
      </trkpt>
      <trkpt lat="47.61243" lon="1.9531147">
        <ele>140.0</ele>
        <time>2022-04-14T07:14:24Z</time>
      </trkpt>
      <trkpt lat="47.61244" lon="1.9530993">
        <ele>140.0</ele>
        <time>2022-04-14T07:14:25Z</time>
      </trkpt>
      <trkpt lat="47.612446" lon="1.9530842">
        <ele>140.0</ele>
        <time>2022-04-14T07:14:26Z</time>
      </trkpt>
      <trkpt lat="47.612457" lon="1.9530523">
        <ele>140.0</ele>
        <time>2022-04-14T07:14:27Z</time>
      </trkpt>
      <trkpt lat="47.612457" lon="1.9530523">
        <ele>140.0</ele>
        <time>2022-04-14T07:14:27Z</time>
      </trkpt>
      <trkpt lat="47.61246" lon="1.9530361">
        <ele>139.0</ele>
        <time>2022-04-14T07:14:29Z</time>
      </trkpt>
      <trkpt lat="47.61247" lon="1.9530001">
        <ele>139.0</ele>
        <time>2022-04-14T07:14:30Z</time>
      </trkpt>
      <trkpt lat="47.612473" lon="1.9529816">
        <ele>139.0</ele>
        <time>2022-04-14T07:14:31Z</time>
      </trkpt>
      <trkpt lat="47.612473" lon="1.9529654">
        <ele>139.0</ele>
        <time>2022-04-14T07:14:32Z</time>
      </trkpt>
      <trkpt lat="47.61248" lon="1.9529468">
        <ele>139.0</ele>
        <time>2022-04-14T07:14:33Z</time>
      </trkpt>
      <trkpt lat="47.61248" lon="1.9529468">
        <ele>139.0</ele>
        <time>2022-04-14T07:14:33Z</time>
      </trkpt>
      <trkpt lat="47.612484" lon="1.9529252">
        <ele>138.0</ele>
        <time>2022-04-14T07:14:35Z</time>
      </trkpt>
      <trkpt lat="47.6125" lon="1.9528772">
        <ele>138.0</ele>
        <time>2022-04-14T07:14:36Z</time>
      </trkpt>
      <trkpt lat="47.6125" lon="1.9528772">
        <ele>138.0</ele>
        <time>2022-04-14T07:14:36Z</time>
      </trkpt>
      <trkpt lat="47.612507" lon="1.9528408">
        <ele>138.0</ele>
        <time>2022-04-14T07:14:38Z</time>
      </trkpt>
      <trkpt lat="47.61251" lon="1.9528254">
        <ele>138.0</ele>
        <time>2022-04-14T07:14:39Z</time>
      </trkpt>
      <trkpt lat="47.61251" lon="1.9528104">
        <ele>138.0</ele>
        <time>2022-04-14T07:14:40Z</time>
      </trkpt>
      <trkpt lat="47.612514" lon="1.9527904">
        <ele>138.0</ele>
        <time>2022-04-14T07:14:41Z</time>
      </trkpt>
      <trkpt lat="47.612514" lon="1.9527904">
        <ele>138.0</ele>
        <time>2022-04-14T07:14:41Z</time>
      </trkpt>
      <trkpt lat="47.61252" lon="1.9527577">
        <ele>139.0</ele>
        <time>2022-04-14T07:14:43Z</time>
      </trkpt>
      <trkpt lat="47.61252" lon="1.9527577">
        <ele>139.0</ele>
        <time>2022-04-14T07:14:43Z</time>
      </trkpt>
      <trkpt lat="47.612526" lon="1.952724">
        <ele>139.0</ele>
        <time>2022-04-14T07:14:45Z</time>
      </trkpt>
      <trkpt lat="47.612534" lon="1.952704">
        <ele>140.0</ele>
        <time>2022-04-14T07:14:46Z</time>
      </trkpt>
      <trkpt lat="47.612537" lon="1.9526877">
        <ele>140.0</ele>
        <time>2022-04-14T07:14:47Z</time>
      </trkpt>
      <trkpt lat="47.612545" lon="1.952667">
        <ele>141.0</ele>
        <time>2022-04-14T07:14:48Z</time>
      </trkpt>
      <trkpt lat="47.61255" lon="1.9526507">
        <ele>141.0</ele>
        <time>2022-04-14T07:14:49Z</time>
      </trkpt>
      <trkpt lat="47.61255" lon="1.9526337">
        <ele>141.0</ele>
        <time>2022-04-14T07:14:50Z</time>
      </trkpt>
      <trkpt lat="47.612553" lon="1.9526155">
        <ele>142.0</ele>
        <time>2022-04-14T07:14:51Z</time>
      </trkpt>
      <trkpt lat="47.612553" lon="1.9526155">
        <ele>142.0</ele>
        <time>2022-04-14T07:14:51Z</time>
      </trkpt>
      <trkpt lat="47.61256" lon="1.9525844">
        <ele>143.0</ele>
        <time>2022-04-14T07:14:53Z</time>
      </trkpt>
      <trkpt lat="47.612568" lon="1.9525726">
        <ele>143.0</ele>
        <time>2022-04-14T07:14:54Z</time>
      </trkpt>
      <trkpt lat="47.61257" lon="1.9525605">
        <ele>143.0</ele>
        <time>2022-04-14T07:14:55Z</time>
      </trkpt>
      <trkpt lat="47.61257" lon="1.952546">
        <ele>143.0</ele>
        <time>2022-04-14T07:14:56Z</time>
      </trkpt>
      <trkpt lat="47.612576" lon="1.9525284">
        <ele>143.0</ele>
        <time>2022-04-14T07:14:57Z</time>
      </trkpt>
      <trkpt lat="47.61258" lon="1.9525096">
        <ele>143.0</ele>
        <time>2022-04-14T07:14:58Z</time>
      </trkpt>
      <trkpt lat="47.612587" lon="1.9524915">
        <ele>144.0</ele>
        <time>2022-04-14T07:14:59Z</time>
      </trkpt>
      <trkpt lat="47.61259" lon="1.952475">
        <ele>144.0</ele>
        <time>2022-04-14T07:15:00Z</time>
      </trkpt>
      <trkpt lat="47.612595" lon="1.952459">
        <ele>144.0</ele>
        <time>2022-04-14T07:15:01Z</time>
      </trkpt>
      <trkpt lat="47.612602" lon="1.952438">
        <ele>145.0</ele>
        <time>2022-04-14T07:15:02Z</time>
      </trkpt>
      <trkpt lat="47.612602" lon="1.9524193">
        <ele>145.0</ele>
        <time>2022-04-14T07:15:03Z</time>
      </trkpt>
      <trkpt lat="47.612606" lon="1.9524007">
        <ele>145.0</ele>
        <time>2022-04-14T07:15:04Z</time>
      </trkpt>
      <trkpt lat="47.61261" lon="1.9523807">
        <ele>145.0</ele>
        <time>2022-04-14T07:15:05Z</time>
      </trkpt>
      <trkpt lat="47.612617" lon="1.9523629">
        <ele>144.0</ele>
        <time>2022-04-14T07:15:06Z</time>
      </trkpt>
      <trkpt lat="47.612617" lon="1.9523473">
        <ele>145.0</ele>
        <time>2022-04-14T07:15:07Z</time>
      </trkpt>
      <trkpt lat="47.612617" lon="1.9523473">
        <ele>145.0</ele>
        <time>2022-04-14T07:15:07Z</time>
      </trkpt>
      <trkpt lat="47.612625" lon="1.9523143">
        <ele>145.0</ele>
        <time>2022-04-14T07:15:09Z</time>
      </trkpt>
      <trkpt lat="47.61263" lon="1.9523013">
        <ele>145.0</ele>
        <time>2022-04-14T07:15:10Z</time>
      </trkpt>
      <trkpt lat="47.612633" lon="1.9522828">
        <ele>145.0</ele>
        <time>2022-04-14T07:15:11Z</time>
      </trkpt>
      <trkpt lat="47.612637" lon="1.9522688">
        <ele>146.0</ele>
        <time>2022-04-14T07:15:12Z</time>
      </trkpt>
      <trkpt lat="47.612637" lon="1.9522514">
        <ele>145.0</ele>
        <time>2022-04-14T07:15:13Z</time>
      </trkpt>
      <trkpt lat="47.61264" lon="1.9522345">
        <ele>146.0</ele>
        <time>2022-04-14T07:15:14Z</time>
      </trkpt>
      <trkpt lat="47.612648" lon="1.9522166">
        <ele>146.0</ele>
        <time>2022-04-14T07:15:15Z</time>
      </trkpt>
      <trkpt lat="47.61265" lon="1.9521995">
        <ele>146.0</ele>
        <time>2022-04-14T07:15:16Z</time>
      </trkpt>
      <trkpt lat="47.61265" lon="1.9521855">
        <ele>146.0</ele>
        <time>2022-04-14T07:15:17Z</time>
      </trkpt>
      <trkpt lat="47.61266" lon="1.952171">
        <ele>146.0</ele>
        <time>2022-04-14T07:15:18Z</time>
      </trkpt>
      <trkpt lat="47.612663" lon="1.9521564">
        <ele>146.0</ele>
        <time>2022-04-14T07:15:19Z</time>
      </trkpt>
      <trkpt lat="47.612667" lon="1.9521362">
        <ele>146.0</ele>
        <time>2022-04-14T07:15:20Z</time>
      </trkpt>
      <trkpt lat="47.61267" lon="1.9521157">
        <ele>147.0</ele>
        <time>2022-04-14T07:15:21Z</time>
      </trkpt>
      <trkpt lat="47.612675" lon="1.952094">
        <ele>147.0</ele>
        <time>2022-04-14T07:15:22Z</time>
      </trkpt>
      <trkpt lat="47.61268" lon="1.9520707">
        <ele>147.0</ele>
        <time>2022-04-14T07:15:23Z</time>
      </trkpt>
      <trkpt lat="47.612682" lon="1.9520589">
        <ele>147.0</ele>
        <time>2022-04-14T07:15:24Z</time>
      </trkpt>
      <trkpt lat="47.612686" lon="1.9520371">
        <ele>148.0</ele>
        <time>2022-04-14T07:15:25Z</time>
      </trkpt>
      <trkpt lat="47.612694" lon="1.9520171">
        <ele>148.0</ele>
        <time>2022-04-14T07:15:26Z</time>
      </trkpt>
      <trkpt lat="47.612698" lon="1.9520013">
        <ele>149.0</ele>
        <time>2022-04-14T07:15:27Z</time>
      </trkpt>
      <trkpt lat="47.612705" lon="1.951987">
        <ele>149.0</ele>
        <time>2022-04-14T07:15:28Z</time>
      </trkpt>
      <trkpt lat="47.612713" lon="1.9519731">
        <ele>149.0</ele>
        <time>2022-04-14T07:15:29Z</time>
      </trkpt>
      <trkpt lat="47.612713" lon="1.9519523">
        <ele>148.0</ele>
        <time>2022-04-14T07:15:30Z</time>
      </trkpt>
      <trkpt lat="47.612717" lon="1.9519362">
        <ele>149.0</ele>
        <time>2022-04-14T07:15:31Z</time>
      </trkpt>
      <trkpt lat="47.61272" lon="1.9519218">
        <ele>149.0</ele>
        <time>2022-04-14T07:15:32Z</time>
      </trkpt>
      <trkpt lat="47.61273" lon="1.9519083">
        <ele>149.0</ele>
        <time>2022-04-14T07:15:33Z</time>
      </trkpt>
      <trkpt lat="47.612732" lon="1.9518918">
        <ele>150.0</ele>
        <time>2022-04-14T07:15:34Z</time>
      </trkpt>
      <trkpt lat="47.612736" lon="1.9518743">
        <ele>150.0</ele>
        <time>2022-04-14T07:15:35Z</time>
      </trkpt>
      <trkpt lat="47.612743" lon="1.951859">
        <ele>150.0</ele>
        <time>2022-04-14T07:15:36Z</time>
      </trkpt>
      <trkpt lat="47.612747" lon="1.9518458">
        <ele>150.0</ele>
        <time>2022-04-14T07:15:37Z</time>
      </trkpt>
      <trkpt lat="47.61275" lon="1.9518304">
        <ele>150.0</ele>
        <time>2022-04-14T07:15:38Z</time>
      </trkpt>
      <trkpt lat="47.612755" lon="1.9518126">
        <ele>151.0</ele>
        <time>2022-04-14T07:15:39Z</time>
      </trkpt>
      <trkpt lat="47.612755" lon="1.9517946">
        <ele>151.0</ele>
        <time>2022-04-14T07:15:40Z</time>
      </trkpt>
      <trkpt lat="47.61276" lon="1.9517748">
        <ele>152.0</ele>
        <time>2022-04-14T07:15:41Z</time>
      </trkpt>
      <trkpt lat="47.61276" lon="1.9517527">
        <ele>153.0</ele>
        <time>2022-04-14T07:15:42Z</time>
      </trkpt>
      <trkpt lat="47.612762" lon="1.9517335">
        <ele>153.0</ele>
        <time>2022-04-14T07:15:43Z</time>
      </trkpt>
      <trkpt lat="47.61277" lon="1.951713">
        <ele>153.0</ele>
        <time>2022-04-14T07:15:44Z</time>
      </trkpt>
      <trkpt lat="47.612778" lon="1.9516969">
        <ele>153.0</ele>
        <time>2022-04-14T07:15:45Z</time>
      </trkpt>
      <trkpt lat="47.612785" lon="1.9516835">
        <ele>153.0</ele>
        <time>2022-04-14T07:15:46Z</time>
      </trkpt>
      <trkpt lat="47.612793" lon="1.9516662">
        <ele>154.0</ele>
        <time>2022-04-14T07:15:47Z</time>
      </trkpt>
      <trkpt lat="47.612797" lon="1.9516506">
        <ele>154.0</ele>
        <time>2022-04-14T07:15:48Z</time>
      </trkpt>
      <trkpt lat="47.612804" lon="1.9516375">
        <ele>154.0</ele>
        <time>2022-04-14T07:15:49Z</time>
      </trkpt>
      <trkpt lat="47.612812" lon="1.9516212">
        <ele>155.0</ele>
        <time>2022-04-14T07:15:50Z</time>
      </trkpt>
      <trkpt lat="47.612812" lon="1.9516212">
        <ele>155.0</ele>
        <time>2022-04-14T07:15:51Z</time>
      </trkpt>
      <trkpt lat="47.612812" lon="1.9516212">
        <ele>155.0</ele>
        <time>2022-04-14T07:15:52Z</time>
      </trkpt>
      <trkpt lat="47.612827" lon="1.9515843">
        <ele>155.0</ele>
        <time>2022-04-14T07:15:53Z</time>
      </trkpt>
      <trkpt lat="47.61283" lon="1.9515698">
        <ele>155.0</ele>
        <time>2022-04-14T07:15:54Z</time>
      </trkpt>
      <trkpt lat="47.61284" lon="1.9515566">
        <ele>154.0</ele>
        <time>2022-04-14T07:15:55Z</time>
      </trkpt>
      <trkpt lat="47.612843" lon="1.9515387">
        <ele>154.0</ele>
        <time>2022-04-14T07:15:56Z</time>
      </trkpt>
      <trkpt lat="47.612843" lon="1.9515214">
        <ele>155.0</ele>
        <time>2022-04-14T07:15:57Z</time>
      </trkpt>
      <trkpt lat="47.612846" lon="1.9515028">
        <ele>155.0</ele>
        <time>2022-04-14T07:15:58Z</time>
      </trkpt>
      <trkpt lat="47.612846" lon="1.9515028">
        <ele>155.0</ele>
        <time>2022-04-14T07:15:59Z</time>
      </trkpt>
      <trkpt lat="47.612846" lon="1.9515028">
        <ele>155.0</ele>
        <time>2022-04-14T07:16:00Z</time>
      </trkpt>
      <trkpt lat="47.61285" lon="1.9514599">
        <ele>154.0</ele>
        <time>2022-04-14T07:16:01Z</time>
      </trkpt>
      <trkpt lat="47.612854" lon="1.9514426">
        <ele>154.0</ele>
        <time>2022-04-14T07:16:02Z</time>
      </trkpt>
      <trkpt lat="47.612858" lon="1.9514309">
        <ele>154.0</ele>
        <time>2022-04-14T07:16:03Z</time>
      </trkpt>
      <trkpt lat="47.61286" lon="1.9514159">
        <ele>155.0</ele>
        <time>2022-04-14T07:16:04Z</time>
      </trkpt>
      <trkpt lat="47.61286" lon="1.9514159">
        <ele>155.0</ele>
        <time>2022-04-14T07:16:05Z</time>
      </trkpt>
      <trkpt lat="47.612873" lon="1.9513868">
        <ele>154.0</ele>
        <time>2022-04-14T07:16:06Z</time>
      </trkpt>
      <trkpt lat="47.612885" lon="1.9513732">
        <ele>153.0</ele>
        <time>2022-04-14T07:16:07Z</time>
      </trkpt>
      <trkpt lat="47.612885" lon="1.9513652">
        <ele>153.0</ele>
        <time>2022-04-14T07:16:08Z</time>
      </trkpt>
      <trkpt lat="47.612885" lon="1.9513565">
        <ele>154.0</ele>
        <time>2022-04-14T07:16:09Z</time>
      </trkpt>
      <trkpt lat="47.612885" lon="1.951346">
        <ele>154.0</ele>
        <time>2022-04-14T07:16:10Z</time>
      </trkpt>
      <trkpt lat="47.612885" lon="1.951346">
        <ele>154.0</ele>
        <time>2022-04-14T07:16:11Z</time>
      </trkpt>
      <trkpt lat="47.612885" lon="1.951346">
        <ele>154.0</ele>
        <time>2022-04-14T07:16:12Z</time>
      </trkpt>
      <trkpt lat="47.612896" lon="1.9513298">
        <ele>156.0</ele>
        <time>2022-04-14T07:16:13Z</time>
      </trkpt>
      <trkpt lat="47.6129" lon="1.9513161">
        <ele>156.0</ele>
        <time>2022-04-14T07:16:14Z</time>
      </trkpt>
      <trkpt lat="47.612907" lon="1.9513044">
        <ele>157.0</ele>
        <time>2022-04-14T07:16:15Z</time>
      </trkpt>
      <trkpt lat="47.612915" lon="1.9512968">
        <ele>158.0</ele>
        <time>2022-04-14T07:16:16Z</time>
      </trkpt>
      <trkpt lat="47.612926" lon="1.9512826">
        <ele>158.0</ele>
        <time>2022-04-14T07:16:17Z</time>
      </trkpt>
      <trkpt lat="47.61293" lon="1.9512682">
        <ele>158.0</ele>
        <time>2022-04-14T07:16:18Z</time>
      </trkpt>
      <trkpt lat="47.61294" lon="1.9512558">
        <ele>158.0</ele>
        <time>2022-04-14T07:16:19Z</time>
      </trkpt>
      <trkpt lat="47.61295" lon="1.9512483">
        <ele>158.0</ele>
        <time>2022-04-14T07:16:20Z</time>
      </trkpt>
      <trkpt lat="47.61296" lon="1.9512395">
        <ele>158.0</ele>
        <time>2022-04-14T07:16:21Z</time>
      </trkpt>
      <trkpt lat="47.61297" lon="1.9512298">
        <ele>158.0</ele>
        <time>2022-04-14T07:16:22Z</time>
      </trkpt>
      <trkpt lat="47.61298" lon="1.9512211">
        <ele>158.0</ele>
        <time>2022-04-14T07:16:23Z</time>
      </trkpt>
      <trkpt lat="47.61299" lon="1.9512159">
        <ele>158.0</ele>
        <time>2022-04-14T07:16:24Z</time>
      </trkpt>
      <trkpt lat="47.613003" lon="1.9512061">
        <ele>158.0</ele>
        <time>2022-04-14T07:16:25Z</time>
      </trkpt>
      <trkpt lat="47.613014" lon="1.9511992">
        <ele>158.0</ele>
        <time>2022-04-14T07:16:26Z</time>
      </trkpt>
      <trkpt lat="47.613026" lon="1.9511882">
        <ele>157.0</ele>
        <time>2022-04-14T07:16:27Z</time>
      </trkpt>
      <trkpt lat="47.613033" lon="1.9511822">
        <ele>158.0</ele>
        <time>2022-04-14T07:16:28Z</time>
      </trkpt>
      <trkpt lat="47.613045" lon="1.9511712">
        <ele>157.0</ele>
        <time>2022-04-14T07:16:29Z</time>
      </trkpt>
      <trkpt lat="47.613052" lon="1.9511615">
        <ele>158.0</ele>
        <time>2022-04-14T07:16:30Z</time>
      </trkpt>
      <trkpt lat="47.61306" lon="1.9511485">
        <ele>158.0</ele>
        <time>2022-04-14T07:16:31Z</time>
      </trkpt>
      <trkpt lat="47.613064" lon="1.9511359">
        <ele>158.0</ele>
        <time>2022-04-14T07:16:32Z</time>
      </trkpt>
      <trkpt lat="47.61307" lon="1.9511235">
        <ele>158.0</ele>
        <time>2022-04-14T07:16:33Z</time>
      </trkpt>
      <trkpt lat="47.61307" lon="1.9511235">
        <ele>158.0</ele>
        <time>2022-04-14T07:16:34Z</time>
      </trkpt>
      <trkpt lat="47.61307" lon="1.9511235">
        <ele>158.0</ele>
        <time>2022-04-14T07:16:35Z</time>
      </trkpt>
      <trkpt lat="47.61309" lon="1.9510908">
        <ele>159.0</ele>
        <time>2022-04-14T07:16:36Z</time>
      </trkpt>
      <trkpt lat="47.6131" lon="1.9510776">
        <ele>159.0</ele>
        <time>2022-04-14T07:16:37Z</time>
      </trkpt>
      <trkpt lat="47.613102" lon="1.9510703">
        <ele>159.0</ele>
        <time>2022-04-14T07:16:38Z</time>
      </trkpt>
      <trkpt lat="47.61311" lon="1.9510623">
        <ele>159.0</ele>
        <time>2022-04-14T07:16:39Z</time>
      </trkpt>
      <trkpt lat="47.61311" lon="1.9510623">
        <ele>159.0</ele>
        <time>2022-04-14T07:16:40Z</time>
      </trkpt>
      <trkpt lat="47.61311" lon="1.9510623">
        <ele>159.0</ele>
        <time>2022-04-14T07:16:41Z</time>
      </trkpt>
      <trkpt lat="47.61312" lon="1.9510338">
        <ele>159.0</ele>
        <time>2022-04-14T07:16:42Z</time>
      </trkpt>
      <trkpt lat="47.61313" lon="1.95102">
        <ele>159.0</ele>
        <time>2022-04-14T07:16:43Z</time>
      </trkpt>
      <trkpt lat="47.613132" lon="1.9510049">
        <ele>159.0</ele>
        <time>2022-04-14T07:16:44Z</time>
      </trkpt>
      <trkpt lat="47.61314" lon="1.9509908">
        <ele>159.0</ele>
        <time>2022-04-14T07:16:45Z</time>
      </trkpt>
      <trkpt lat="47.61314" lon="1.9509908">
        <ele>159.0</ele>
        <time>2022-04-14T07:16:46Z</time>
      </trkpt>
      <trkpt lat="47.61314" lon="1.9509908">
        <ele>159.0</ele>
        <time>2022-04-14T07:16:47Z</time>
      </trkpt>
      <trkpt lat="47.613163" lon="1.9509621">
        <ele>159.0</ele>
        <time>2022-04-14T07:16:48Z</time>
      </trkpt>
      <trkpt lat="47.613174" lon="1.9509529">
        <ele>159.0</ele>
        <time>2022-04-14T07:16:49Z</time>
      </trkpt>
      <trkpt lat="47.613182" lon="1.9509417">
        <ele>159.0</ele>
        <time>2022-04-14T07:16:50Z</time>
      </trkpt>
      <trkpt lat="47.61319" lon="1.9509288">
        <ele>159.0</ele>
        <time>2022-04-14T07:16:51Z</time>
      </trkpt>
      <trkpt lat="47.61319" lon="1.9509288">
        <ele>159.0</ele>
        <time>2022-04-14T07:16:52Z</time>
      </trkpt>
      <trkpt lat="47.61319" lon="1.9509288">
        <ele>159.0</ele>
        <time>2022-04-14T07:16:53Z</time>
      </trkpt>
      <trkpt lat="47.61321" lon="1.9509102">
        <ele>160.0</ele>
        <time>2022-04-14T07:16:54Z</time>
      </trkpt>
      <trkpt lat="47.61322" lon="1.950897">
        <ele>160.0</ele>
        <time>2022-04-14T07:16:55Z</time>
      </trkpt>
      <trkpt lat="47.61323" lon="1.9508852">
        <ele>160.0</ele>
        <time>2022-04-14T07:16:56Z</time>
      </trkpt>
      <trkpt lat="47.61324" lon="1.9508792">
        <ele>160.0</ele>
        <time>2022-04-14T07:16:57Z</time>
      </trkpt>
      <trkpt lat="47.61325" lon="1.950873">
        <ele>160.0</ele>
        <time>2022-04-14T07:16:58Z</time>
      </trkpt>
      <trkpt lat="47.613262" lon="1.9508638">
        <ele>160.0</ele>
        <time>2022-04-14T07:16:59Z</time>
      </trkpt>
      <trkpt lat="47.61327" lon="1.9508549">
        <ele>161.0</ele>
        <time>2022-04-14T07:17:00Z</time>
      </trkpt>
      <trkpt lat="47.613285" lon="1.950847">
        <ele>162.0</ele>
        <time>2022-04-14T07:17:01Z</time>
      </trkpt>
      <trkpt lat="47.613293" lon="1.9508351">
        <ele>162.0</ele>
        <time>2022-04-14T07:17:02Z</time>
      </trkpt>
      <trkpt lat="47.6133" lon="1.9508203">
        <ele>162.0</ele>
        <time>2022-04-14T07:17:03Z</time>
      </trkpt>
      <trkpt lat="47.613308" lon="1.950806">
        <ele>162.0</ele>
        <time>2022-04-14T07:17:04Z</time>
      </trkpt>
      <trkpt lat="47.613316" lon="1.9507947">
        <ele>162.0</ele>
        <time>2022-04-14T07:17:05Z</time>
      </trkpt>
      <trkpt lat="47.613323" lon="1.9507897">
        <ele>163.0</ele>
        <time>2022-04-14T07:17:06Z</time>
      </trkpt>
      <trkpt lat="47.613327" lon="1.9507836">
        <ele>164.0</ele>
        <time>2022-04-14T07:17:07Z</time>
      </trkpt>
      <trkpt lat="47.613335" lon="1.9507792">
        <ele>164.0</ele>
        <time>2022-04-14T07:17:08Z</time>
      </trkpt>
      <trkpt lat="47.61335" lon="1.9507736">
        <ele>164.0</ele>
        <time>2022-04-14T07:17:09Z</time>
      </trkpt>
      <trkpt lat="47.613358" lon="1.9507672">
        <ele>165.0</ele>
        <time>2022-04-14T07:17:10Z</time>
      </trkpt>
      <trkpt lat="47.61337" lon="1.9507618">
        <ele>165.0</ele>
        <time>2022-04-14T07:17:11Z</time>
      </trkpt>
      <trkpt lat="47.613377" lon="1.9507571">
        <ele>166.0</ele>
        <time>2022-04-14T07:17:12Z</time>
      </trkpt>
      <trkpt lat="47.613384" lon="1.9507513">
        <ele>165.0</ele>
        <time>2022-04-14T07:17:13Z</time>
      </trkpt>
      <trkpt lat="47.61339" lon="1.9507456">
        <ele>165.0</ele>
        <time>2022-04-14T07:17:14Z</time>
      </trkpt>
      <trkpt lat="47.613396" lon="1.9507394">
        <ele>166.0</ele>
        <time>2022-04-14T07:17:15Z</time>
      </trkpt>
      <trkpt lat="47.613396" lon="1.9507394">
        <ele>166.0</ele>
        <time>2022-04-14T07:17:16Z</time>
      </trkpt>
      <trkpt lat="47.613415" lon="1.9507221">
        <ele>166.0</ele>
        <time>2022-04-14T07:17:17Z</time>
      </trkpt>
      <trkpt lat="47.613426" lon="1.9507095">
        <ele>166.0</ele>
        <time>2022-04-14T07:17:18Z</time>
      </trkpt>
      <trkpt lat="47.613434" lon="1.9506965">
        <ele>166.0</ele>
        <time>2022-04-14T07:17:19Z</time>
      </trkpt>
      <trkpt lat="47.613445" lon="1.9506855">
        <ele>166.0</ele>
        <time>2022-04-14T07:17:20Z</time>
      </trkpt>
      <trkpt lat="47.613453" lon="1.9506805">
        <ele>166.0</ele>
        <time>2022-04-14T07:17:21Z</time>
      </trkpt>
      <trkpt lat="47.61346" lon="1.9506704">
        <ele>166.0</ele>
        <time>2022-04-14T07:17:22Z</time>
      </trkpt>
      <trkpt lat="47.613472" lon="1.9506581">
        <ele>166.0</ele>
        <time>2022-04-14T07:17:23Z</time>
      </trkpt>
      <trkpt lat="47.61348" lon="1.9506502">
        <ele>166.0</ele>
        <time>2022-04-14T07:17:24Z</time>
      </trkpt>
      <trkpt lat="47.61349" lon="1.9506365">
        <ele>166.0</ele>
        <time>2022-04-14T07:17:25Z</time>
      </trkpt>
      <trkpt lat="47.61349" lon="1.9506365">
        <ele>166.0</ele>
        <time>2022-04-14T07:17:26Z</time>
      </trkpt>
      <trkpt lat="47.61349" lon="1.9506365">
        <ele>166.0</ele>
        <time>2022-04-14T07:17:27Z</time>
      </trkpt>
      <trkpt lat="47.61351" lon="1.9506042">
        <ele>165.0</ele>
        <time>2022-04-14T07:17:28Z</time>
      </trkpt>
      <trkpt lat="47.613518" lon="1.9505935">
        <ele>165.0</ele>
        <time>2022-04-14T07:17:29Z</time>
      </trkpt>
      <trkpt lat="47.61352" lon="1.9505866">
        <ele>165.0</ele>
        <time>2022-04-14T07:17:30Z</time>
      </trkpt>
      <trkpt lat="47.61353" lon="1.9505799">
        <ele>165.0</ele>
        <time>2022-04-14T07:17:31Z</time>
      </trkpt>
      <trkpt lat="47.61353" lon="1.9505799">
        <ele>165.0</ele>
        <time>2022-04-14T07:17:32Z</time>
      </trkpt>
      <trkpt lat="47.61353" lon="1.9505799">
        <ele>165.0</ele>
        <time>2022-04-14T07:17:33Z</time>
      </trkpt>
      <trkpt lat="47.61355" lon="1.950555">
        <ele>164.0</ele>
        <time>2022-04-14T07:17:34Z</time>
      </trkpt>
      <trkpt lat="47.613556" lon="1.9505452">
        <ele>163.0</ele>
        <time>2022-04-14T07:17:35Z</time>
      </trkpt>
      <trkpt lat="47.613564" lon="1.9505347">
        <ele>163.0</ele>
        <time>2022-04-14T07:17:36Z</time>
      </trkpt>
      <trkpt lat="47.613567" lon="1.9505283">
        <ele>163.0</ele>
        <time>2022-04-14T07:17:37Z</time>
      </trkpt>
      <trkpt lat="47.613567" lon="1.9505283">
        <ele>163.0</ele>
        <time>2022-04-14T07:17:38Z</time>
      </trkpt>
      <trkpt lat="47.613567" lon="1.9505283">
        <ele>163.0</ele>
        <time>2022-04-14T07:17:39Z</time>
      </trkpt>
      <trkpt lat="47.613583" lon="1.9505076">
        <ele>163.0</ele>
        <time>2022-04-14T07:17:40Z</time>
      </trkpt>
      <trkpt lat="47.61359" lon="1.9504969">
        <ele>163.0</ele>
        <time>2022-04-14T07:17:41Z</time>
      </trkpt>
      <trkpt lat="47.613594" lon="1.950491">
        <ele>163.0</ele>
        <time>2022-04-14T07:17:42Z</time>
      </trkpt>
      <trkpt lat="47.6136" lon="1.9504851">
        <ele>162.0</ele>
        <time>2022-04-14T07:17:43Z</time>
      </trkpt>
      <trkpt lat="47.6136" lon="1.9504851">
        <ele>162.0</ele>
        <time>2022-04-14T07:17:44Z</time>
      </trkpt>
      <trkpt lat="47.6136" lon="1.9504851">
        <ele>162.0</ele>
        <time>2022-04-14T07:17:45Z</time>
      </trkpt>
      <trkpt lat="47.61363" lon="1.9504611">
        <ele>162.0</ele>
        <time>2022-04-14T07:17:46Z</time>
      </trkpt>
      <trkpt lat="47.61364" lon="1.9504513">
        <ele>162.0</ele>
        <time>2022-04-14T07:17:47Z</time>
      </trkpt>
      <trkpt lat="47.61365" lon="1.9504406">
        <ele>162.0</ele>
        <time>2022-04-14T07:17:48Z</time>
      </trkpt>
      <trkpt lat="47.613667" lon="1.9504282">
        <ele>163.0</ele>
        <time>2022-04-14T07:17:49Z</time>
      </trkpt>
      <trkpt lat="47.613674" lon="1.9504175">
        <ele>163.0</ele>
        <time>2022-04-14T07:17:50Z</time>
      </trkpt>
      <trkpt lat="47.613674" lon="1.9504175">
        <ele>163.0</ele>
        <time>2022-04-14T07:17:51Z</time>
      </trkpt>
      <trkpt lat="47.613674" lon="1.9504175">
        <ele>163.0</ele>
        <time>2022-04-14T07:17:52Z</time>
      </trkpt>
      <trkpt lat="47.613705" lon="1.9503973">
        <ele>162.0</ele>
        <time>2022-04-14T07:17:53Z</time>
      </trkpt>
      <trkpt lat="47.613716" lon="1.9503874">
        <ele>162.0</ele>
        <time>2022-04-14T07:17:54Z</time>
      </trkpt>
      <trkpt lat="47.61372" lon="1.9503806">
        <ele>162.0</ele>
        <time>2022-04-14T07:17:55Z</time>
      </trkpt>
      <trkpt lat="47.61373" lon="1.9503751">
        <ele>161.0</ele>
        <time>2022-04-14T07:17:56Z</time>
      </trkpt>
      <trkpt lat="47.61373" lon="1.9503751">
        <ele>161.0</ele>
        <time>2022-04-14T07:17:57Z</time>
      </trkpt>
      <trkpt lat="47.61373" lon="1.9503751">
        <ele>161.0</ele>
        <time>2022-04-14T07:17:58Z</time>
      </trkpt>
      <trkpt lat="47.61376" lon="1.9503534">
        <ele>161.0</ele>
        <time>2022-04-14T07:17:59Z</time>
      </trkpt>
      <trkpt lat="47.613766" lon="1.9503464">
        <ele>162.0</ele>
        <time>2022-04-14T07:18:00Z</time>
      </trkpt>
      <trkpt lat="47.61378" lon="1.950338">
        <ele>162.0</ele>
        <time>2022-04-14T07:18:01Z</time>
      </trkpt>
      <trkpt lat="47.613792" lon="1.950331">
        <ele>162.0</ele>
        <time>2022-04-14T07:18:02Z</time>
      </trkpt>
      <trkpt lat="47.613792" lon="1.950331">
        <ele>162.0</ele>
        <time>2022-04-14T07:18:03Z</time>
      </trkpt>
      <trkpt lat="47.613792" lon="1.950331">
        <ele>162.0</ele>
        <time>2022-04-14T07:18:04Z</time>
      </trkpt>
      <trkpt lat="47.61383" lon="1.9503065">
        <ele>162.0</ele>
        <time>2022-04-14T07:18:05Z</time>
      </trkpt>
      <trkpt lat="47.613842" lon="1.9502999">
        <ele>162.0</ele>
        <time>2022-04-14T07:18:06Z</time>
      </trkpt>
      <trkpt lat="47.613857" lon="1.9502945">
        <ele>162.0</ele>
        <time>2022-04-14T07:18:07Z</time>
      </trkpt>
      <trkpt lat="47.613873" lon="1.9502876">
        <ele>162.0</ele>
        <time>2022-04-14T07:18:08Z</time>
      </trkpt>
      <trkpt lat="47.613873" lon="1.9502876">
        <ele>162.0</ele>
        <time>2022-04-14T07:18:09Z</time>
      </trkpt>
      <trkpt lat="47.61389" lon="1.9502766">
        <ele>162.0</ele>
        <time>2022-04-14T07:18:10Z</time>
      </trkpt>
      <trkpt lat="47.61391" lon="1.9502678">
        <ele>162.0</ele>
        <time>2022-04-14T07:18:11Z</time>
      </trkpt>
      <trkpt lat="47.613922" lon="1.9502605">
        <ele>162.0</ele>
        <time>2022-04-14T07:18:12Z</time>
      </trkpt>
      <trkpt lat="47.61394" lon="1.9502498">
        <ele>162.0</ele>
        <time>2022-04-14T07:18:13Z</time>
      </trkpt>
      <trkpt lat="47.61396" lon="1.9502435">
        <ele>162.0</ele>
        <time>2022-04-14T07:18:14Z</time>
      </trkpt>
      <trkpt lat="47.61398" lon="1.9502362">
        <ele>163.0</ele>
        <time>2022-04-14T07:18:15Z</time>
      </trkpt>
      <trkpt lat="47.613995" lon="1.9502286">
        <ele>163.0</ele>
        <time>2022-04-14T07:18:16Z</time>
      </trkpt>
      <trkpt lat="47.61401" lon="1.9502236">
        <ele>163.0</ele>
        <time>2022-04-14T07:18:17Z</time>
      </trkpt>
      <trkpt lat="47.614025" lon="1.9502198">
        <ele>163.0</ele>
        <time>2022-04-14T07:18:18Z</time>
      </trkpt>
      <trkpt lat="47.614037" lon="1.9502186">
        <ele>163.0</ele>
        <time>2022-04-14T07:18:19Z</time>
      </trkpt>
      <trkpt lat="47.614048" lon="1.950219">
        <ele>164.0</ele>
        <time>2022-04-14T07:18:20Z</time>
      </trkpt>
      <trkpt lat="47.61406" lon="1.9502112">
        <ele>164.0</ele>
        <time>2022-04-14T07:18:21Z</time>
      </trkpt>
      <trkpt lat="47.614067" lon="1.9502065">
        <ele>165.0</ele>
        <time>2022-04-14T07:18:22Z</time>
      </trkpt>
      <trkpt lat="47.61408" lon="1.9502038">
        <ele>164.0</ele>
        <time>2022-04-14T07:18:23Z</time>
      </trkpt>
      <trkpt lat="47.61408" lon="1.9502038">
        <ele>164.0</ele>
        <time>2022-04-14T07:18:24Z</time>
      </trkpt>
      <trkpt lat="47.61408" lon="1.9502038">
        <ele>164.0</ele>
        <time>2022-04-14T07:18:25Z</time>
      </trkpt>
      <trkpt lat="47.61411" lon="1.9501961">
        <ele>163.0</ele>
        <time>2022-04-14T07:18:26Z</time>
      </trkpt>
      <trkpt lat="47.61412" lon="1.9501895">
        <ele>164.0</ele>
        <time>2022-04-14T07:18:27Z</time>
      </trkpt>
      <trkpt lat="47.614136" lon="1.950179">
        <ele>163.0</ele>
        <time>2022-04-14T07:18:28Z</time>
      </trkpt>
      <trkpt lat="47.614147" lon="1.9501674">
        <ele>163.0</ele>
        <time>2022-04-14T07:18:29Z</time>
      </trkpt>
      <trkpt lat="47.61416" lon="1.9501594">
        <ele>163.0</ele>
        <time>2022-04-14T07:18:30Z</time>
      </trkpt>
      <trkpt lat="47.614174" lon="1.9501498">
        <ele>163.0</ele>
        <time>2022-04-14T07:18:31Z</time>
      </trkpt>
      <trkpt lat="47.61418" lon="1.9501361">
        <ele>163.0</ele>
        <time>2022-04-14T07:18:32Z</time>
      </trkpt>
      <trkpt lat="47.614193" lon="1.9501243">
        <ele>163.0</ele>
        <time>2022-04-14T07:18:33Z</time>
      </trkpt>
      <trkpt lat="47.614204" lon="1.9501173">
        <ele>163.0</ele>
        <time>2022-04-14T07:18:34Z</time>
      </trkpt>
      <trkpt lat="47.614212" lon="1.9501121">
        <ele>163.0</ele>
        <time>2022-04-14T07:18:35Z</time>
      </trkpt>
      <trkpt lat="47.61422" lon="1.9501054">
        <ele>163.0</ele>
        <time>2022-04-14T07:18:36Z</time>
      </trkpt>
      <trkpt lat="47.61422" lon="1.9501054">
        <ele>163.0</ele>
        <time>2022-04-14T07:18:37Z</time>
      </trkpt>
      <trkpt lat="47.61422" lon="1.9501054">
        <ele>163.0</ele>
        <time>2022-04-14T07:18:38Z</time>
      </trkpt>
      <trkpt lat="47.614235" lon="1.9500816">
        <ele>163.0</ele>
        <time>2022-04-14T07:18:39Z</time>
      </trkpt>
      <trkpt lat="47.614243" lon="1.9500701">
        <ele>163.0</ele>
        <time>2022-04-14T07:18:40Z</time>
      </trkpt>
      <trkpt lat="47.61425" lon="1.9500593">
        <ele>163.0</ele>
        <time>2022-04-14T07:18:41Z</time>
      </trkpt>
      <trkpt lat="47.61426" lon="1.9500475">
        <ele>163.0</ele>
        <time>2022-04-14T07:18:42Z</time>
      </trkpt>
      <trkpt lat="47.614277" lon="1.9500397">
        <ele>163.0</ele>
        <time>2022-04-14T07:18:43Z</time>
      </trkpt>
      <trkpt lat="47.61429" lon="1.9500316">
        <ele>163.0</ele>
        <time>2022-04-14T07:18:44Z</time>
      </trkpt>
      <trkpt lat="47.614296" lon="1.9500244">
        <ele>163.0</ele>
        <time>2022-04-14T07:18:45Z</time>
      </trkpt>
      <trkpt lat="47.614307" lon="1.9500172">
        <ele>164.0</ele>
        <time>2022-04-14T07:18:46Z</time>
      </trkpt>
      <trkpt lat="47.61432" lon="1.9500096">
        <ele>164.0</ele>
        <time>2022-04-14T07:18:47Z</time>
      </trkpt>
      <trkpt lat="47.614326" lon="1.9500014">
        <ele>164.0</ele>
        <time>2022-04-14T07:18:48Z</time>
      </trkpt>
      <trkpt lat="47.614334" lon="1.949992">
        <ele>164.0</ele>
        <time>2022-04-14T07:18:49Z</time>
      </trkpt>
      <trkpt lat="47.614346" lon="1.9499819">
        <ele>164.0</ele>
        <time>2022-04-14T07:18:50Z</time>
      </trkpt>
      <trkpt lat="47.614353" lon="1.949975">
        <ele>164.0</ele>
        <time>2022-04-14T07:18:51Z</time>
      </trkpt>
      <trkpt lat="47.61436" lon="1.9499706">
        <ele>164.0</ele>
        <time>2022-04-14T07:18:52Z</time>
      </trkpt>
      <trkpt lat="47.614372" lon="1.9499651">
        <ele>165.0</ele>
        <time>2022-04-14T07:18:53Z</time>
      </trkpt>
      <trkpt lat="47.61438" lon="1.949958">
        <ele>166.0</ele>
        <time>2022-04-14T07:18:54Z</time>
      </trkpt>
      <trkpt lat="47.614395" lon="1.949951">
        <ele>166.0</ele>
        <time>2022-04-14T07:18:55Z</time>
      </trkpt>
      <trkpt lat="47.614403" lon="1.9499409">
        <ele>166.0</ele>
        <time>2022-04-14T07:18:56Z</time>
      </trkpt>
      <trkpt lat="47.61441" lon="1.949934">
        <ele>166.0</ele>
        <time>2022-04-14T07:18:57Z</time>
      </trkpt>
      <trkpt lat="47.61441" lon="1.949934">
        <ele>166.0</ele>
        <time>2022-04-14T07:18:58Z</time>
      </trkpt>
      <trkpt lat="47.61441" lon="1.949934">
        <ele>166.0</ele>
        <time>2022-04-14T07:18:59Z</time>
      </trkpt>
      <trkpt lat="47.61443" lon="1.9499094">
        <ele>166.0</ele>
        <time>2022-04-14T07:19:00Z</time>
      </trkpt>
      <trkpt lat="47.61444" lon="1.949902">
        <ele>167.0</ele>
        <time>2022-04-14T07:19:01Z</time>
      </trkpt>
      <trkpt lat="47.61445" lon="1.9498965">
        <ele>167.0</ele>
        <time>2022-04-14T07:19:02Z</time>
      </trkpt>
      <trkpt lat="47.61446" lon="1.9498824">
        <ele>166.0</ele>
        <time>2022-04-14T07:19:03Z</time>
      </trkpt>
      <trkpt lat="47.614468" lon="1.9498726">
        <ele>166.0</ele>
        <time>2022-04-14T07:19:04Z</time>
      </trkpt>
      <trkpt lat="47.614475" lon="1.9498636">
        <ele>166.0</ele>
        <time>2022-04-14T07:19:05Z</time>
      </trkpt>
      <trkpt lat="47.614487" lon="1.949852">
        <ele>165.0</ele>
        <time>2022-04-14T07:19:06Z</time>
      </trkpt>
      <trkpt lat="47.6145" lon="1.9498417">
        <ele>165.0</ele>
        <time>2022-04-14T07:19:07Z</time>
      </trkpt>
      <trkpt lat="47.6145" lon="1.9498417">
        <ele>165.0</ele>
        <time>2022-04-14T07:19:08Z</time>
      </trkpt>
      <trkpt lat="47.6145" lon="1.9498417">
        <ele>165.0</ele>
        <time>2022-04-14T07:19:09Z</time>
      </trkpt>
      <trkpt lat="47.614517" lon="1.9498185">
        <ele>165.0</ele>
        <time>2022-04-14T07:19:10Z</time>
      </trkpt>
      <trkpt lat="47.61453" lon="1.9498072">
        <ele>164.0</ele>
        <time>2022-04-14T07:19:11Z</time>
      </trkpt>
      <trkpt lat="47.61454" lon="1.9497975">
        <ele>164.0</ele>
        <time>2022-04-14T07:19:12Z</time>
      </trkpt>
      <trkpt lat="47.61455" lon="1.9497906">
        <ele>165.0</ele>
        <time>2022-04-14T07:19:13Z</time>
      </trkpt>
      <trkpt lat="47.614567" lon="1.9497845">
        <ele>165.0</ele>
        <time>2022-04-14T07:19:14Z</time>
      </trkpt>
      <trkpt lat="47.614574" lon="1.9497751">
        <ele>164.0</ele>
        <time>2022-04-14T07:19:15Z</time>
      </trkpt>
      <trkpt lat="47.614586" lon="1.9497639">
        <ele>164.0</ele>
        <time>2022-04-14T07:19:16Z</time>
      </trkpt>
      <trkpt lat="47.614594" lon="1.949754">
        <ele>164.0</ele>
        <time>2022-04-14T07:19:17Z</time>
      </trkpt>
      <trkpt lat="47.614605" lon="1.9497465">
        <ele>165.0</ele>
        <time>2022-04-14T07:19:18Z</time>
      </trkpt>
      <trkpt lat="47.61462" lon="1.9497353">
        <ele>165.0</ele>
        <time>2022-04-14T07:19:19Z</time>
      </trkpt>
      <trkpt lat="47.614635" lon="1.9497238">
        <ele>164.0</ele>
        <time>2022-04-14T07:19:20Z</time>
      </trkpt>
      <trkpt lat="47.614643" lon="1.9497167">
        <ele>164.0</ele>
        <time>2022-04-14T07:19:21Z</time>
      </trkpt>
      <trkpt lat="47.61465" lon="1.9497128">
        <ele>165.0</ele>
        <time>2022-04-14T07:19:22Z</time>
      </trkpt>
      <trkpt lat="47.614662" lon="1.9497092">
        <ele>165.0</ele>
        <time>2022-04-14T07:19:23Z</time>
      </trkpt>
      <trkpt lat="47.61467" lon="1.9497007">
        <ele>165.0</ele>
        <time>2022-04-14T07:19:24Z</time>
      </trkpt>
      <trkpt lat="47.61468" lon="1.9496896">
        <ele>165.0</ele>
        <time>2022-04-14T07:19:25Z</time>
      </trkpt>
      <trkpt lat="47.61468" lon="1.9496896">
        <ele>165.0</ele>
        <time>2022-04-14T07:19:26Z</time>
      </trkpt>
      <trkpt lat="47.61468" lon="1.9496896">
        <ele>165.0</ele>
        <time>2022-04-14T07:19:27Z</time>
      </trkpt>
      <trkpt lat="47.614704" lon="1.9496717">
        <ele>166.0</ele>
        <time>2022-04-14T07:19:28Z</time>
      </trkpt>
      <trkpt lat="47.614716" lon="1.9496648">
        <ele>167.0</ele>
        <time>2022-04-14T07:19:29Z</time>
      </trkpt>
      <trkpt lat="47.614723" lon="1.949658">
        <ele>167.0</ele>
        <time>2022-04-14T07:19:30Z</time>
      </trkpt>
      <trkpt lat="47.614735" lon="1.9496456">
        <ele>167.0</ele>
        <time>2022-04-14T07:19:31Z</time>
      </trkpt>
      <trkpt lat="47.614746" lon="1.9496354">
        <ele>167.0</ele>
        <time>2022-04-14T07:19:32Z</time>
      </trkpt>
      <trkpt lat="47.614758" lon="1.9496274">
        <ele>167.0</ele>
        <time>2022-04-14T07:19:33Z</time>
      </trkpt>
      <trkpt lat="47.614765" lon="1.9496217">
        <ele>167.0</ele>
        <time>2022-04-14T07:19:34Z</time>
      </trkpt>
      <trkpt lat="47.614765" lon="1.9496217">
        <ele>167.0</ele>
        <time>2022-04-14T07:19:35Z</time>
      </trkpt>
      <trkpt lat="47.614765" lon="1.9496217">
        <ele>167.0</ele>
        <time>2022-04-14T07:19:36Z</time>
      </trkpt>
      <trkpt lat="47.61479" lon="1.9496042">
        <ele>167.0</ele>
        <time>2022-04-14T07:19:37Z</time>
      </trkpt>
      <trkpt lat="47.6148" lon="1.9495921">
        <ele>167.0</ele>
        <time>2022-04-14T07:19:38Z</time>
      </trkpt>
      <trkpt lat="47.61481" lon="1.9495807">
        <ele>167.0</ele>
        <time>2022-04-14T07:19:39Z</time>
      </trkpt>
      <trkpt lat="47.61482" lon="1.9495714">
        <ele>167.0</ele>
        <time>2022-04-14T07:19:40Z</time>
      </trkpt>
      <trkpt lat="47.614826" lon="1.9495615">
        <ele>167.0</ele>
        <time>2022-04-14T07:19:41Z</time>
      </trkpt>
      <trkpt lat="47.614834" lon="1.9495516">
        <ele>167.0</ele>
        <time>2022-04-14T07:19:42Z</time>
      </trkpt>
      <trkpt lat="47.614845" lon="1.9495449">
        <ele>167.0</ele>
        <time>2022-04-14T07:19:43Z</time>
      </trkpt>
      <trkpt lat="47.614853" lon="1.9495375">
        <ele>167.0</ele>
        <time>2022-04-14T07:19:44Z</time>
      </trkpt>
      <trkpt lat="47.61486" lon="1.9495325">
        <ele>167.0</ele>
        <time>2022-04-14T07:19:45Z</time>
      </trkpt>
      <trkpt lat="47.61487" lon="1.9495275">
        <ele>167.0</ele>
        <time>2022-04-14T07:19:46Z</time>
      </trkpt>
      <trkpt lat="47.61488" lon="1.9495257">
        <ele>167.0</ele>
        <time>2022-04-14T07:19:47Z</time>
      </trkpt>
      <trkpt lat="47.61488" lon="1.9495257">
        <ele>167.0</ele>
        <time>2022-04-14T07:19:48Z</time>
      </trkpt>
      <trkpt lat="47.61488" lon="1.9495257">
        <ele>167.0</ele>
        <time>2022-04-14T07:19:49Z</time>
      </trkpt>
      <trkpt lat="47.6149" lon="1.9495058">
        <ele>167.0</ele>
        <time>2022-04-14T07:19:50Z</time>
      </trkpt>
      <trkpt lat="47.614902" lon="1.9494994">
        <ele>166.0</ele>
        <time>2022-04-14T07:19:51Z</time>
      </trkpt>
      <trkpt lat="47.614906" lon="1.9494907">
        <ele>167.0</ele>
        <time>2022-04-14T07:19:52Z</time>
      </trkpt>
      <trkpt lat="47.614914" lon="1.9494823">
        <ele>167.0</ele>
        <time>2022-04-14T07:19:53Z</time>
      </trkpt>
      <trkpt lat="47.614914" lon="1.9494823">
        <ele>167.0</ele>
        <time>2022-04-14T07:19:54Z</time>
      </trkpt>
      <trkpt lat="47.614914" lon="1.9494823">
        <ele>167.0</ele>
        <time>2022-04-14T07:19:55Z</time>
      </trkpt>
      <trkpt lat="47.614933" lon="1.9494699">
        <ele>167.0</ele>
        <time>2022-04-14T07:19:56Z</time>
      </trkpt>
      <trkpt lat="47.614944" lon="1.9494616">
        <ele>167.0</ele>
        <time>2022-04-14T07:19:57Z</time>
      </trkpt>
      <trkpt lat="47.614952" lon="1.9494528">
        <ele>167.0</ele>
        <time>2022-04-14T07:19:58Z</time>
      </trkpt>
      <trkpt lat="47.614964" lon="1.9494395">
        <ele>167.0</ele>
        <time>2022-04-14T07:19:59Z</time>
      </trkpt>
      <trkpt lat="47.614964" lon="1.9494395">
        <ele>167.0</ele>
        <time>2022-04-14T07:20:00Z</time>
      </trkpt>
      <trkpt lat="47.614964" lon="1.9494395">
        <ele>167.0</ele>
        <time>2022-04-14T07:20:01Z</time>
      </trkpt>
      <trkpt lat="47.61498" lon="1.9494226">
        <ele>166.0</ele>
        <time>2022-04-14T07:20:02Z</time>
      </trkpt>
      <trkpt lat="47.614983" lon="1.9494178">
        <ele>166.0</ele>
        <time>2022-04-14T07:20:03Z</time>
      </trkpt>
      <trkpt lat="47.61499" lon="1.9494082">
        <ele>166.0</ele>
        <time>2022-04-14T07:20:04Z</time>
      </trkpt>
      <trkpt lat="47.614998" lon="1.9493995">
        <ele>166.0</ele>
        <time>2022-04-14T07:20:05Z</time>
      </trkpt>
      <trkpt lat="47.614998" lon="1.9493995">
        <ele>166.0</ele>
        <time>2022-04-14T07:20:06Z</time>
      </trkpt>
      <trkpt lat="47.614998" lon="1.9493995">
        <ele>166.0</ele>
        <time>2022-04-14T07:20:07Z</time>
      </trkpt>
      <trkpt lat="47.615013" lon="1.9493815">
        <ele>165.0</ele>
        <time>2022-04-14T07:20:08Z</time>
      </trkpt>
      <trkpt lat="47.615017" lon="1.949372">
        <ele>165.0</ele>
        <time>2022-04-14T07:20:09Z</time>
      </trkpt>
      <trkpt lat="47.61502" lon="1.9493642">
        <ele>165.0</ele>
        <time>2022-04-14T07:20:10Z</time>
      </trkpt>
      <trkpt lat="47.61503" lon="1.9493555">
        <ele>165.0</ele>
        <time>2022-04-14T07:20:11Z</time>
      </trkpt>
      <trkpt lat="47.61503" lon="1.9493555">
        <ele>165.0</ele>
        <time>2022-04-14T07:20:12Z</time>
      </trkpt>
      <trkpt lat="47.61503" lon="1.9493555">
        <ele>165.0</ele>
        <time>2022-04-14T07:20:13Z</time>
      </trkpt>
      <trkpt lat="47.615044" lon="1.9493337">
        <ele>164.0</ele>
        <time>2022-04-14T07:20:14Z</time>
      </trkpt>
      <trkpt lat="47.615044" lon="1.949328">
        <ele>164.0</ele>
        <time>2022-04-14T07:20:15Z</time>
      </trkpt>
      <trkpt lat="47.61505" lon="1.9493247">
        <ele>164.0</ele>
        <time>2022-04-14T07:20:16Z</time>
      </trkpt>
      <trkpt lat="47.61506" lon="1.9493206">
        <ele>164.0</ele>
        <time>2022-04-14T07:20:17Z</time>
      </trkpt>
      <trkpt lat="47.61506" lon="1.9493206">
        <ele>164.0</ele>
        <time>2022-04-14T07:20:18Z</time>
      </trkpt>
      <trkpt lat="47.61506" lon="1.9493206">
        <ele>164.0</ele>
        <time>2022-04-14T07:20:19Z</time>
      </trkpt>
      <trkpt lat="47.61508" lon="1.9493058">
        <ele>163.0</ele>
        <time>2022-04-14T07:20:20Z</time>
      </trkpt>
      <trkpt lat="47.61509" lon="1.9492962">
        <ele>163.0</ele>
        <time>2022-04-14T07:20:21Z</time>
      </trkpt>
      <trkpt lat="47.6151" lon="1.9492891">
        <ele>162.0</ele>
        <time>2022-04-14T07:20:22Z</time>
      </trkpt>
      <trkpt lat="47.615116" lon="1.949283">
        <ele>162.0</ele>
        <time>2022-04-14T07:20:23Z</time>
      </trkpt>
      <trkpt lat="47.615128" lon="1.949278">
        <ele>162.0</ele>
        <time>2022-04-14T07:20:24Z</time>
      </trkpt>
      <trkpt lat="47.615135" lon="1.9492694">
        <ele>161.0</ele>
        <time>2022-04-14T07:20:25Z</time>
      </trkpt>
      <trkpt lat="47.615135" lon="1.9492694">
        <ele>161.0</ele>
        <time>2022-04-14T07:20:26Z</time>
      </trkpt>
      <trkpt lat="47.615135" lon="1.9492694">
        <ele>161.0</ele>
        <time>2022-04-14T07:20:27Z</time>
      </trkpt>
      <trkpt lat="47.615166" lon="1.9492475">
        <ele>161.0</ele>
        <time>2022-04-14T07:20:28Z</time>
      </trkpt>
      <trkpt lat="47.615173" lon="1.9492373">
        <ele>161.0</ele>
        <time>2022-04-14T07:20:29Z</time>
      </trkpt>
      <trkpt lat="47.615185" lon="1.949231">
        <ele>160.0</ele>
        <time>2022-04-14T07:20:30Z</time>
      </trkpt>
      <trkpt lat="47.615196" lon="1.9492238">
        <ele>160.0</ele>
        <time>2022-04-14T07:20:31Z</time>
      </trkpt>
      <trkpt lat="47.615196" lon="1.9492238">
        <ele>160.0</ele>
        <time>2022-04-14T07:20:32Z</time>
      </trkpt>
      <trkpt lat="47.615196" lon="1.9492238">
        <ele>160.0</ele>
        <time>2022-04-14T07:20:33Z</time>
      </trkpt>
      <trkpt lat="47.615215" lon="1.9492105">
        <ele>161.0</ele>
        <time>2022-04-14T07:20:34Z</time>
      </trkpt>
      <trkpt lat="47.61523" lon="1.9492062">
        <ele>161.0</ele>
        <time>2022-04-14T07:20:35Z</time>
      </trkpt>
      <trkpt lat="47.615242" lon="1.9491994">
        <ele>161.0</ele>
        <time>2022-04-14T07:20:36Z</time>
      </trkpt>
      <trkpt lat="47.615253" lon="1.9491944">
        <ele>161.0</ele>
        <time>2022-04-14T07:20:37Z</time>
      </trkpt>
      <trkpt lat="47.615253" lon="1.9491944">
        <ele>161.0</ele>
        <time>2022-04-14T07:20:38Z</time>
      </trkpt>
      <trkpt lat="47.615253" lon="1.9491944">
        <ele>161.0</ele>
        <time>2022-04-14T07:20:39Z</time>
      </trkpt>
      <trkpt lat="47.615284" lon="1.9491845">
        <ele>161.0</ele>
        <time>2022-04-14T07:20:40Z</time>
      </trkpt>
      <trkpt lat="47.615295" lon="1.9491817">
        <ele>161.0</ele>
        <time>2022-04-14T07:20:41Z</time>
      </trkpt>
      <trkpt lat="47.615307" lon="1.949176">
        <ele>161.0</ele>
        <time>2022-04-14T07:20:42Z</time>
      </trkpt>
      <trkpt lat="47.61532" lon="1.9491705">
        <ele>161.0</ele>
        <time>2022-04-14T07:20:43Z</time>
      </trkpt>
      <trkpt lat="47.61532" lon="1.9491705">
        <ele>161.0</ele>
        <time>2022-04-14T07:20:44Z</time>
      </trkpt>
      <trkpt lat="47.61532" lon="1.9491705">
        <ele>161.0</ele>
        <time>2022-04-14T07:20:45Z</time>
      </trkpt>
      <trkpt lat="47.615356" lon="1.949154">
        <ele>161.0</ele>
        <time>2022-04-14T07:20:46Z</time>
      </trkpt>
      <trkpt lat="47.61537" lon="1.9491445">
        <ele>161.0</ele>
        <time>2022-04-14T07:20:47Z</time>
      </trkpt>
      <trkpt lat="47.615383" lon="1.949134">
        <ele>161.0</ele>
        <time>2022-04-14T07:20:48Z</time>
      </trkpt>
      <trkpt lat="47.6154" lon="1.9491245">
        <ele>161.0</ele>
        <time>2022-04-14T07:20:49Z</time>
      </trkpt>
      <trkpt lat="47.6154" lon="1.9491245">
        <ele>161.0</ele>
        <time>2022-04-14T07:20:50Z</time>
      </trkpt>
      <trkpt lat="47.6154" lon="1.9491245">
        <ele>161.0</ele>
        <time>2022-04-14T07:20:51Z</time>
      </trkpt>
      <trkpt lat="47.61543" lon="1.9491009">
        <ele>160.0</ele>
        <time>2022-04-14T07:20:52Z</time>
      </trkpt>
      <trkpt lat="47.615444" lon="1.9490969">
        <ele>160.0</ele>
        <time>2022-04-14T07:20:53Z</time>
      </trkpt>
      <trkpt lat="47.61546" lon="1.9490888">
        <ele>160.0</ele>
        <time>2022-04-14T07:20:54Z</time>
      </trkpt>
      <trkpt lat="47.61547" lon="1.9490794">
        <ele>159.0</ele>
        <time>2022-04-14T07:20:55Z</time>
      </trkpt>
      <trkpt lat="47.615486" lon="1.9490694">
        <ele>160.0</ele>
        <time>2022-04-14T07:20:56Z</time>
      </trkpt>
      <trkpt lat="47.615498" lon="1.9490623">
        <ele>160.0</ele>
        <time>2022-04-14T07:20:57Z</time>
      </trkpt>
      <trkpt lat="47.615505" lon="1.9490559">
        <ele>160.0</ele>
        <time>2022-04-14T07:20:58Z</time>
      </trkpt>
      <trkpt lat="47.615513" lon="1.9490476">
        <ele>160.0</ele>
        <time>2022-04-14T07:20:59Z</time>
      </trkpt>
      <trkpt lat="47.61552" lon="1.9490439">
        <ele>161.0</ele>
        <time>2022-04-14T07:21:00Z</time>
      </trkpt>
      <trkpt lat="47.61553" lon="1.9490395">
        <ele>161.0</ele>
        <time>2022-04-14T07:21:01Z</time>
      </trkpt>
      <trkpt lat="47.615543" lon="1.9490321">
        <ele>161.0</ele>
        <time>2022-04-14T07:21:02Z</time>
      </trkpt>
      <trkpt lat="47.615555" lon="1.9490263">
        <ele>161.0</ele>
        <time>2022-04-14T07:21:03Z</time>
      </trkpt>
      <trkpt lat="47.615566" lon="1.9490196">
        <ele>161.0</ele>
        <time>2022-04-14T07:21:04Z</time>
      </trkpt>
      <trkpt lat="47.61558" lon="1.9490079">
        <ele>161.0</ele>
        <time>2022-04-14T07:21:05Z</time>
      </trkpt>
      <trkpt lat="47.615593" lon="1.949002">
        <ele>161.0</ele>
        <time>2022-04-14T07:21:06Z</time>
      </trkpt>
      <trkpt lat="47.615593" lon="1.949002">
        <ele>161.0</ele>
        <time>2022-04-14T07:21:07Z</time>
      </trkpt>
      <trkpt lat="47.615593" lon="1.949002">
        <ele>161.0</ele>
        <time>2022-04-14T07:21:08Z</time>
      </trkpt>
      <trkpt lat="47.615627" lon="1.9489809">
        <ele>162.0</ele>
        <time>2022-04-14T07:21:09Z</time>
      </trkpt>
      <trkpt lat="47.61564" lon="1.9489723">
        <ele>162.0</ele>
        <time>2022-04-14T07:21:10Z</time>
      </trkpt>
      <trkpt lat="47.61565" lon="1.9489621">
        <ele>162.0</ele>
        <time>2022-04-14T07:21:11Z</time>
      </trkpt>
      <trkpt lat="47.61566" lon="1.9489571">
        <ele>162.0</ele>
        <time>2022-04-14T07:21:12Z</time>
      </trkpt>
      <trkpt lat="47.615673" lon="1.9489468">
        <ele>162.0</ele>
        <time>2022-04-14T07:21:13Z</time>
      </trkpt>
      <trkpt lat="47.61569" lon="1.94894">
        <ele>162.0</ele>
        <time>2022-04-14T07:21:14Z</time>
      </trkpt>
      <trkpt lat="47.6157" lon="1.9489324">
        <ele>162.0</ele>
        <time>2022-04-14T07:21:15Z</time>
      </trkpt>
      <trkpt lat="47.61571" lon="1.9489311">
        <ele>163.0</ele>
        <time>2022-04-14T07:21:16Z</time>
      </trkpt>
      <trkpt lat="47.615726" lon="1.948924">
        <ele>164.0</ele>
        <time>2022-04-14T07:21:17Z</time>
      </trkpt>
      <trkpt lat="47.615738" lon="1.9489177">
        <ele>164.0</ele>
        <time>2022-04-14T07:21:18Z</time>
      </trkpt>
      <trkpt lat="47.615738" lon="1.9489177">
        <ele>164.0</ele>
        <time>2022-04-14T07:21:19Z</time>
      </trkpt>
      <trkpt lat="47.615738" lon="1.9489177">
        <ele>164.0</ele>
        <time>2022-04-14T07:21:20Z</time>
      </trkpt>
      <trkpt lat="47.61577" lon="1.948898">
        <ele>164.0</ele>
        <time>2022-04-14T07:21:21Z</time>
      </trkpt>
      <trkpt lat="47.615776" lon="1.9488904">
        <ele>164.0</ele>
        <time>2022-04-14T07:21:22Z</time>
      </trkpt>
      <trkpt lat="47.615788" lon="1.9488868">
        <ele>163.0</ele>
        <time>2022-04-14T07:21:23Z</time>
      </trkpt>
      <trkpt lat="47.6158" lon="1.9488798">
        <ele>163.0</ele>
        <time>2022-04-14T07:21:24Z</time>
      </trkpt>
      <trkpt lat="47.61581" lon="1.9488734">
        <ele>163.0</ele>
        <time>2022-04-14T07:21:25Z</time>
      </trkpt>
      <trkpt lat="47.615818" lon="1.94887">
        <ele>163.0</ele>
        <time>2022-04-14T07:21:26Z</time>
      </trkpt>
      <trkpt lat="47.615818" lon="1.94887">
        <ele>163.0</ele>
        <time>2022-04-14T07:21:27Z</time>
      </trkpt>
      <trkpt lat="47.615818" lon="1.94887">
        <ele>163.0</ele>
        <time>2022-04-14T07:21:28Z</time>
      </trkpt>
      <trkpt lat="47.615845" lon="1.9488552">
        <ele>164.0</ele>
        <time>2022-04-14T07:21:29Z</time>
      </trkpt>
      <trkpt lat="47.615852" lon="1.9488461">
        <ele>163.0</ele>
        <time>2022-04-14T07:21:30Z</time>
      </trkpt>
      <trkpt lat="47.61586" lon="1.9488368">
        <ele>163.0</ele>
        <time>2022-04-14T07:21:31Z</time>
      </trkpt>
      <trkpt lat="47.61587" lon="1.9488271">
        <ele>164.0</ele>
        <time>2022-04-14T07:21:32Z</time>
      </trkpt>
      <trkpt lat="47.61587" lon="1.9488271">
        <ele>164.0</ele>
        <time>2022-04-14T07:21:33Z</time>
      </trkpt>
      <trkpt lat="47.61587" lon="1.9488271">
        <ele>164.0</ele>
        <time>2022-04-14T07:21:34Z</time>
      </trkpt>
      <trkpt lat="47.6159" lon="1.9488071">
        <ele>164.0</ele>
        <time>2022-04-14T07:21:35Z</time>
      </trkpt>
      <trkpt lat="47.61591" lon="1.9488014">
        <ele>164.0</ele>
        <time>2022-04-14T07:21:36Z</time>
      </trkpt>
      <trkpt lat="47.615917" lon="1.9487942">
        <ele>164.0</ele>
        <time>2022-04-14T07:21:37Z</time>
      </trkpt>
      <trkpt lat="47.615925" lon="1.9487867">
        <ele>164.0</ele>
        <time>2022-04-14T07:21:38Z</time>
      </trkpt>
      <trkpt lat="47.615936" lon="1.9487797">
        <ele>164.0</ele>
        <time>2022-04-14T07:21:39Z</time>
      </trkpt>
      <trkpt lat="47.615944" lon="1.948772">
        <ele>165.0</ele>
        <time>2022-04-14T07:21:40Z</time>
      </trkpt>
      <trkpt lat="47.61595" lon="1.9487609">
        <ele>165.0</ele>
        <time>2022-04-14T07:21:41Z</time>
      </trkpt>
      <trkpt lat="47.61595" lon="1.9487609">
        <ele>165.0</ele>
        <time>2022-04-14T07:21:42Z</time>
      </trkpt>
      <trkpt lat="47.61595" lon="1.9487609">
        <ele>165.0</ele>
        <time>2022-04-14T07:21:43Z</time>
      </trkpt>
      <trkpt lat="47.615974" lon="1.9487402">
        <ele>166.0</ele>
        <time>2022-04-14T07:21:44Z</time>
      </trkpt>
      <trkpt lat="47.615982" lon="1.9487321">
        <ele>166.0</ele>
        <time>2022-04-14T07:21:45Z</time>
      </trkpt>
      <trkpt lat="47.615997" lon="1.9487265">
        <ele>166.0</ele>
        <time>2022-04-14T07:21:46Z</time>
      </trkpt>
      <trkpt lat="47.616005" lon="1.9487163">
        <ele>166.0</ele>
        <time>2022-04-14T07:21:47Z</time>
      </trkpt>
      <trkpt lat="47.616005" lon="1.9487163">
        <ele>166.0</ele>
        <time>2022-04-14T07:21:48Z</time>
      </trkpt>
      <trkpt lat="47.616005" lon="1.9487163">
        <ele>166.0</ele>
        <time>2022-04-14T07:21:49Z</time>
      </trkpt>
      <trkpt lat="47.61604" lon="1.948697">
        <ele>166.0</ele>
        <time>2022-04-14T07:21:50Z</time>
      </trkpt>
      <trkpt lat="47.616047" lon="1.9486918">
        <ele>166.0</ele>
        <time>2022-04-14T07:21:51Z</time>
      </trkpt>
      <trkpt lat="47.61606" lon="1.9486834">
        <ele>166.0</ele>
        <time>2022-04-14T07:21:52Z</time>
      </trkpt>
      <trkpt lat="47.61607" lon="1.9486741">
        <ele>167.0</ele>
        <time>2022-04-14T07:21:53Z</time>
      </trkpt>
      <trkpt lat="47.616077" lon="1.9486566">
        <ele>167.0</ele>
        <time>2022-04-14T07:21:54Z</time>
      </trkpt>
      <trkpt lat="47.616077" lon="1.9486566">
        <ele>167.0</ele>
        <time>2022-04-14T07:21:55Z</time>
      </trkpt>
      <trkpt lat="47.616077" lon="1.9486566">
        <ele>167.0</ele>
        <time>2022-04-14T07:21:56Z</time>
      </trkpt>
      <trkpt lat="47.616104" lon="1.9486374">
        <ele>167.0</ele>
        <time>2022-04-14T07:21:57Z</time>
      </trkpt>
      <trkpt lat="47.616116" lon="1.948633">
        <ele>167.0</ele>
        <time>2022-04-14T07:21:58Z</time>
      </trkpt>
      <trkpt lat="47.616127" lon="1.9486259">
        <ele>168.0</ele>
        <time>2022-04-14T07:21:59Z</time>
      </trkpt>
      <trkpt lat="47.616142" lon="1.948625">
        <ele>168.0</ele>
        <time>2022-04-14T07:22:00Z</time>
      </trkpt>
      <trkpt lat="47.616142" lon="1.948625">
        <ele>168.0</ele>
        <time>2022-04-14T07:22:01Z</time>
      </trkpt>
      <trkpt lat="47.616165" lon="1.9486117">
        <ele>169.0</ele>
        <time>2022-04-14T07:22:02Z</time>
      </trkpt>
      <trkpt lat="47.616177" lon="1.9486047">
        <ele>169.0</ele>
        <time>2022-04-14T07:22:03Z</time>
      </trkpt>
      <trkpt lat="47.616188" lon="1.9485958">
        <ele>169.0</ele>
        <time>2022-04-14T07:22:04Z</time>
      </trkpt>
      <trkpt lat="47.6162" lon="1.9485881">
        <ele>170.0</ele>
        <time>2022-04-14T07:22:05Z</time>
      </trkpt>
      <trkpt lat="47.61621" lon="1.9485798">
        <ele>170.0</ele>
        <time>2022-04-14T07:22:06Z</time>
      </trkpt>
      <trkpt lat="47.61622" lon="1.9485773">
        <ele>171.0</ele>
        <time>2022-04-14T07:22:07Z</time>
      </trkpt>
      <trkpt lat="47.61622" lon="1.9485773">
        <ele>171.0</ele>
        <time>2022-04-14T07:22:08Z</time>
      </trkpt>
      <trkpt lat="47.61622" lon="1.9485773">
        <ele>171.0</ele>
        <time>2022-04-14T07:22:09Z</time>
      </trkpt>
      <trkpt lat="47.616245" lon="1.9485605">
        <ele>170.0</ele>
        <time>2022-04-14T07:22:10Z</time>
      </trkpt>
      <trkpt lat="47.616257" lon="1.9485558">
        <ele>170.0</ele>
        <time>2022-04-14T07:22:11Z</time>
      </trkpt>
      <trkpt lat="47.61627" lon="1.948548">
        <ele>170.0</ele>
        <time>2022-04-14T07:22:12Z</time>
      </trkpt>
      <trkpt lat="47.616276" lon="1.9485426">
        <ele>170.0</ele>
        <time>2022-04-14T07:22:13Z</time>
      </trkpt>
      <trkpt lat="47.616283" lon="1.9485352">
        <ele>170.0</ele>
        <time>2022-04-14T07:22:14Z</time>
      </trkpt>
      <trkpt lat="47.61629" lon="1.9485304">
        <ele>169.0</ele>
        <time>2022-04-14T07:22:15Z</time>
      </trkpt>
      <trkpt lat="47.6163" lon="1.9485291">
        <ele>170.0</ele>
        <time>2022-04-14T07:22:16Z</time>
      </trkpt>
      <trkpt lat="47.6163" lon="1.9485291">
        <ele>170.0</ele>
        <time>2022-04-14T07:22:17Z</time>
      </trkpt>
      <trkpt lat="47.6163" lon="1.9485291">
        <ele>170.0</ele>
        <time>2022-04-14T07:22:18Z</time>
      </trkpt>
      <trkpt lat="47.61632" lon="1.9485145">
        <ele>169.0</ele>
        <time>2022-04-14T07:22:19Z</time>
      </trkpt>
      <trkpt lat="47.61633" lon="1.9485095">
        <ele>169.0</ele>
        <time>2022-04-14T07:22:20Z</time>
      </trkpt>
      <trkpt lat="47.616337" lon="1.9485042">
        <ele>169.0</ele>
        <time>2022-04-14T07:22:21Z</time>
      </trkpt>
      <trkpt lat="47.616344" lon="1.9484994">
        <ele>169.0</ele>
        <time>2022-04-14T07:22:22Z</time>
      </trkpt>
      <trkpt lat="47.616344" lon="1.9484994">
        <ele>169.0</ele>
        <time>2022-04-14T07:22:23Z</time>
      </trkpt>
      <trkpt lat="47.61637" lon="1.9484863">
        <ele>169.0</ele>
        <time>2022-04-14T07:22:24Z</time>
      </trkpt>
      <trkpt lat="47.616383" lon="1.9484849">
        <ele>169.0</ele>
        <time>2022-04-14T07:22:25Z</time>
      </trkpt>
      <trkpt lat="47.61639" lon="1.9484813">
        <ele>169.0</ele>
        <time>2022-04-14T07:22:26Z</time>
      </trkpt>
      <trkpt lat="47.616405" lon="1.9484752">
        <ele>169.0</ele>
        <time>2022-04-14T07:22:27Z</time>
      </trkpt>
      <trkpt lat="47.616417" lon="1.9484661">
        <ele>168.0</ele>
        <time>2022-04-14T07:22:28Z</time>
      </trkpt>
      <trkpt lat="47.616425" lon="1.9484581">
        <ele>168.0</ele>
        <time>2022-04-14T07:22:29Z</time>
      </trkpt>
      <trkpt lat="47.616432" lon="1.9484544">
        <ele>168.0</ele>
        <time>2022-04-14T07:22:30Z</time>
      </trkpt>
      <trkpt lat="47.616436" lon="1.9484471">
        <ele>168.0</ele>
        <time>2022-04-14T07:22:31Z</time>
      </trkpt>
      <trkpt lat="47.616436" lon="1.9484471">
        <ele>168.0</ele>
        <time>2022-04-14T07:22:32Z</time>
      </trkpt>
      <trkpt lat="47.616436" lon="1.9484471">
        <ele>168.0</ele>
        <time>2022-04-14T07:22:33Z</time>
      </trkpt>
      <trkpt lat="47.616455" lon="1.9484338">
        <ele>168.0</ele>
        <time>2022-04-14T07:22:34Z</time>
      </trkpt>
      <trkpt lat="47.616463" lon="1.9484265">
        <ele>167.0</ele>
        <time>2022-04-14T07:22:35Z</time>
      </trkpt>
      <trkpt lat="47.616474" lon="1.9484236">
        <ele>167.0</ele>
        <time>2022-04-14T07:22:36Z</time>
      </trkpt>
      <trkpt lat="47.616478" lon="1.9484239">
        <ele>167.0</ele>
        <time>2022-04-14T07:22:37Z</time>
      </trkpt>
      <trkpt lat="47.616478" lon="1.9484239">
        <ele>167.0</ele>
        <time>2022-04-14T07:22:38Z</time>
      </trkpt>
      <trkpt lat="47.616478" lon="1.9484239">
        <ele>167.0</ele>
        <time>2022-04-14T07:22:39Z</time>
      </trkpt>
      <trkpt lat="47.6165" lon="1.9484056">
        <ele>166.0</ele>
        <time>2022-04-14T07:22:40Z</time>
      </trkpt>
      <trkpt lat="47.61651" lon="1.9483997">
        <ele>166.0</ele>
        <time>2022-04-14T07:22:41Z</time>
      </trkpt>
      <trkpt lat="47.616516" lon="1.9483967">
        <ele>166.0</ele>
        <time>2022-04-14T07:22:42Z</time>
      </trkpt>
      <trkpt lat="47.616528" lon="1.9483943">
        <ele>165.0</ele>
        <time>2022-04-14T07:22:43Z</time>
      </trkpt>
      <trkpt lat="47.61654" lon="1.9483947">
        <ele>165.0</ele>
        <time>2022-04-14T07:22:44Z</time>
      </trkpt>
      <trkpt lat="47.616547" lon="1.948393">
        <ele>164.0</ele>
        <time>2022-04-14T07:22:45Z</time>
      </trkpt>
      <trkpt lat="47.616558" lon="1.9483893">
        <ele>164.0</ele>
        <time>2022-04-14T07:22:46Z</time>
      </trkpt>
      <trkpt lat="47.61657" lon="1.9483827">
        <ele>163.0</ele>
        <time>2022-04-14T07:22:47Z</time>
      </trkpt>
      <trkpt lat="47.61657" lon="1.9483827">
        <ele>163.0</ele>
        <time>2022-04-14T07:22:48Z</time>
      </trkpt>
      <trkpt lat="47.61657" lon="1.9483827">
        <ele>163.0</ele>
        <time>2022-04-14T07:22:49Z</time>
      </trkpt>
      <trkpt lat="47.6166" lon="1.9483672">
        <ele>162.0</ele>
        <time>2022-04-14T07:22:50Z</time>
      </trkpt>
      <trkpt lat="47.61661" lon="1.9483625">
        <ele>163.0</ele>
        <time>2022-04-14T07:22:51Z</time>
      </trkpt>
      <trkpt lat="47.61662" lon="1.9483602">
        <ele>163.0</ele>
        <time>2022-04-14T07:22:52Z</time>
      </trkpt>
      <trkpt lat="47.616623" lon="1.9483601">
        <ele>163.0</ele>
        <time>2022-04-14T07:22:53Z</time>
      </trkpt>
      <trkpt lat="47.616623" lon="1.9483601">
        <ele>163.0</ele>
        <time>2022-04-14T07:22:54Z</time>
      </trkpt>
      <trkpt lat="47.616623" lon="1.9483601">
        <ele>163.0</ele>
        <time>2022-04-14T07:22:55Z</time>
      </trkpt>
      <trkpt lat="47.616646" lon="1.948351">
        <ele>163.0</ele>
        <time>2022-04-14T07:22:56Z</time>
      </trkpt>
      <trkpt lat="47.616653" lon="1.9483495">
        <ele>163.0</ele>
        <time>2022-04-14T07:22:57Z</time>
      </trkpt>
      <trkpt lat="47.616665" lon="1.9483466">
        <ele>162.0</ele>
        <time>2022-04-14T07:22:58Z</time>
      </trkpt>
      <trkpt lat="47.616673" lon="1.9483421">
        <ele>162.0</ele>
        <time>2022-04-14T07:22:59Z</time>
      </trkpt>
      <trkpt lat="47.616673" lon="1.9483421">
        <ele>162.0</ele>
        <time>2022-04-14T07:23:00Z</time>
      </trkpt>
      <trkpt lat="47.616673" lon="1.9483421">
        <ele>162.0</ele>
        <time>2022-04-14T07:23:01Z</time>
      </trkpt>
      <trkpt lat="47.616703" lon="1.9483281">
        <ele>163.0</ele>
        <time>2022-04-14T07:23:02Z</time>
      </trkpt>
      <trkpt lat="47.61671" lon="1.9483262">
        <ele>163.0</ele>
        <time>2022-04-14T07:23:03Z</time>
      </trkpt>
      <trkpt lat="47.616722" lon="1.9483231">
        <ele>163.0</ele>
        <time>2022-04-14T07:23:04Z</time>
      </trkpt>
      <trkpt lat="47.61673" lon="1.9483167">
        <ele>163.0</ele>
        <time>2022-04-14T07:23:05Z</time>
      </trkpt>
      <trkpt lat="47.61673" lon="1.9483167">
        <ele>163.0</ele>
        <time>2022-04-14T07:23:06Z</time>
      </trkpt>
      <trkpt lat="47.61673" lon="1.9483167">
        <ele>163.0</ele>
        <time>2022-04-14T07:23:07Z</time>
      </trkpt>
      <trkpt lat="47.616756" lon="1.9482957">
        <ele>162.0</ele>
        <time>2022-04-14T07:23:08Z</time>
      </trkpt>
      <trkpt lat="47.616768" lon="1.9482841">
        <ele>163.0</ele>
        <time>2022-04-14T07:23:09Z</time>
      </trkpt>
      <trkpt lat="47.61677" lon="1.9482739">
        <ele>163.0</ele>
        <time>2022-04-14T07:23:10Z</time>
      </trkpt>
      <trkpt lat="47.616783" lon="1.9482645">
        <ele>163.0</ele>
        <time>2022-04-14T07:23:11Z</time>
      </trkpt>
      <trkpt lat="47.616783" lon="1.9482645">
        <ele>163.0</ele>
        <time>2022-04-14T07:23:12Z</time>
      </trkpt>
      <trkpt lat="47.616783" lon="1.9482645">
        <ele>163.0</ele>
        <time>2022-04-14T07:23:13Z</time>
      </trkpt>
      <trkpt lat="47.616814" lon="1.948235">
        <ele>164.0</ele>
        <time>2022-04-14T07:23:14Z</time>
      </trkpt>
      <trkpt lat="47.616825" lon="1.9482251">
        <ele>163.0</ele>
        <time>2022-04-14T07:23:15Z</time>
      </trkpt>
      <trkpt lat="47.616837" lon="1.9482172">
        <ele>164.0</ele>
        <time>2022-04-14T07:23:16Z</time>
      </trkpt>
      <trkpt lat="47.616848" lon="1.948209">
        <ele>164.0</ele>
        <time>2022-04-14T07:23:17Z</time>
      </trkpt>
      <trkpt lat="47.616848" lon="1.948209">
        <ele>164.0</ele>
        <time>2022-04-14T07:23:18Z</time>
      </trkpt>
      <trkpt lat="47.616848" lon="1.948209">
        <ele>164.0</ele>
        <time>2022-04-14T07:23:19Z</time>
      </trkpt>
      <trkpt lat="47.616882" lon="1.9481845">
        <ele>164.0</ele>
        <time>2022-04-14T07:23:20Z</time>
      </trkpt>
      <trkpt lat="47.61689" lon="1.9481783">
        <ele>164.0</ele>
        <time>2022-04-14T07:23:21Z</time>
      </trkpt>
      <trkpt lat="47.616905" lon="1.9481694">
        <ele>163.0</ele>
        <time>2022-04-14T07:23:22Z</time>
      </trkpt>
      <trkpt lat="47.616905" lon="1.9481689">
        <ele>163.0</ele>
        <time>2022-04-14T07:23:23Z</time>
      </trkpt>
      <trkpt lat="47.61691" lon="1.9481659">
        <ele>163.0</ele>
        <time>2022-04-14T07:23:24Z</time>
      </trkpt>
      <trkpt lat="47.616917" lon="1.9481624">
        <ele>162.0</ele>
        <time>2022-04-14T07:23:25Z</time>
      </trkpt>
      <trkpt lat="47.616917" lon="1.9481624">
        <ele>162.0</ele>
        <time>2022-04-14T07:23:26Z</time>
      </trkpt>
      <trkpt lat="47.616917" lon="1.9481624">
        <ele>162.0</ele>
        <time>2022-04-14T07:23:27Z</time>
      </trkpt>
      <trkpt lat="47.61694" lon="1.9481535">
        <ele>162.0</ele>
        <time>2022-04-14T07:23:28Z</time>
      </trkpt>
      <trkpt lat="47.61695" lon="1.9481496">
        <ele>163.0</ele>
        <time>2022-04-14T07:23:29Z</time>
      </trkpt>
      <trkpt lat="47.616966" lon="1.9481465">
        <ele>163.0</ele>
        <time>2022-04-14T07:23:30Z</time>
      </trkpt>
      <trkpt lat="47.616978" lon="1.9481444">
        <ele>163.0</ele>
        <time>2022-04-14T07:23:31Z</time>
      </trkpt>
      <trkpt lat="47.616978" lon="1.9481444">
        <ele>163.0</ele>
        <time>2022-04-14T07:23:32Z</time>
      </trkpt>
      <trkpt lat="47.616978" lon="1.9481444">
        <ele>163.0</ele>
        <time>2022-04-14T07:23:33Z</time>
      </trkpt>
      <trkpt lat="47.617004" lon="1.948124">
        <ele>162.0</ele>
        <time>2022-04-14T07:23:34Z</time>
      </trkpt>
      <trkpt lat="47.617012" lon="1.9481206">
        <ele>162.0</ele>
        <time>2022-04-14T07:23:35Z</time>
      </trkpt>
      <trkpt lat="47.617023" lon="1.9481148">
        <ele>162.0</ele>
        <time>2022-04-14T07:23:36Z</time>
      </trkpt>
      <trkpt lat="47.61704" lon="1.9481108">
        <ele>163.0</ele>
        <time>2022-04-14T07:23:37Z</time>
      </trkpt>
      <trkpt lat="47.61704" lon="1.9481108">
        <ele>163.0</ele>
        <time>2022-04-14T07:23:38Z</time>
      </trkpt>
      <trkpt lat="47.61704" lon="1.9481108">
        <ele>163.0</ele>
        <time>2022-04-14T07:23:39Z</time>
      </trkpt>
      <trkpt lat="47.61707" lon="1.9480969">
        <ele>162.0</ele>
        <time>2022-04-14T07:23:40Z</time>
      </trkpt>
      <trkpt lat="47.61709" lon="1.9480886">
        <ele>162.0</ele>
        <time>2022-04-14T07:23:41Z</time>
      </trkpt>
      <trkpt lat="47.6171" lon="1.9480786">
        <ele>162.0</ele>
        <time>2022-04-14T07:23:42Z</time>
      </trkpt>
      <trkpt lat="47.61711" lon="1.948072">
        <ele>162.0</ele>
        <time>2022-04-14T07:23:43Z</time>
      </trkpt>
      <trkpt lat="47.617126" lon="1.9480687">
        <ele>162.0</ele>
        <time>2022-04-14T07:23:44Z</time>
      </trkpt>
      <trkpt lat="47.61714" lon="1.9480631">
        <ele>162.0</ele>
        <time>2022-04-14T07:23:45Z</time>
      </trkpt>
      <trkpt lat="47.617153" lon="1.9480574">
        <ele>162.0</ele>
        <time>2022-04-14T07:23:46Z</time>
      </trkpt>
      <trkpt lat="47.617165" lon="1.9480518">
        <ele>163.0</ele>
        <time>2022-04-14T07:23:47Z</time>
      </trkpt>
      <trkpt lat="47.617165" lon="1.9480518">
        <ele>163.0</ele>
        <time>2022-04-14T07:23:48Z</time>
      </trkpt>
      <trkpt lat="47.617165" lon="1.9480518">
        <ele>163.0</ele>
        <time>2022-04-14T07:23:49Z</time>
      </trkpt>
      <trkpt lat="47.617195" lon="1.948039">
        <ele>164.0</ele>
        <time>2022-04-14T07:23:50Z</time>
      </trkpt>
      <trkpt lat="47.6172" lon="1.9480313">
        <ele>164.0</ele>
        <time>2022-04-14T07:23:51Z</time>
      </trkpt>
      <trkpt lat="47.617207" lon="1.9480253">
        <ele>164.0</ele>
        <time>2022-04-14T07:23:52Z</time>
      </trkpt>
      <trkpt lat="47.617214" lon="1.9480237">
        <ele>164.0</ele>
        <time>2022-04-14T07:23:53Z</time>
      </trkpt>
      <trkpt lat="47.61723" lon="1.9480195">
        <ele>164.0</ele>
        <time>2022-04-14T07:23:54Z</time>
      </trkpt>
      <trkpt lat="47.61724" lon="1.9480166">
        <ele>164.0</ele>
        <time>2022-04-14T07:23:55Z</time>
      </trkpt>
      <trkpt lat="47.61725" lon="1.9480095">
        <ele>165.0</ele>
        <time>2022-04-14T07:23:56Z</time>
      </trkpt>
      <trkpt lat="47.61726" lon="1.9480035">
        <ele>165.0</ele>
        <time>2022-04-14T07:23:57Z</time>
      </trkpt>
      <trkpt lat="47.61726" lon="1.9480035">
        <ele>165.0</ele>
        <time>2022-04-14T07:23:58Z</time>
      </trkpt>
      <trkpt lat="47.61726" lon="1.9480035">
        <ele>165.0</ele>
        <time>2022-04-14T07:23:59Z</time>
      </trkpt>
      <trkpt lat="47.617283" lon="1.9479901">
        <ele>165.0</ele>
        <time>2022-04-14T07:24:00Z</time>
      </trkpt>
      <trkpt lat="47.617294" lon="1.9479831">
        <ele>165.0</ele>
        <time>2022-04-14T07:24:01Z</time>
      </trkpt>
      <trkpt lat="47.617302" lon="1.9479786">
        <ele>164.0</ele>
        <time>2022-04-14T07:24:02Z</time>
      </trkpt>
      <trkpt lat="47.617306" lon="1.9479699">
        <ele>164.0</ele>
        <time>2022-04-14T07:24:03Z</time>
      </trkpt>
      <trkpt lat="47.617306" lon="1.9479699">
        <ele>164.0</ele>
        <time>2022-04-14T07:24:04Z</time>
      </trkpt>
      <trkpt lat="47.617306" lon="1.9479699">
        <ele>164.0</ele>
        <time>2022-04-14T07:24:05Z</time>
      </trkpt>
      <trkpt lat="47.617332" lon="1.9479433">
        <ele>164.0</ele>
        <time>2022-04-14T07:24:06Z</time>
      </trkpt>
      <trkpt lat="47.61734" lon="1.9479331">
        <ele>163.0</ele>
        <time>2022-04-14T07:24:07Z</time>
      </trkpt>
      <trkpt lat="47.617348" lon="1.9479237">
        <ele>163.0</ele>
        <time>2022-04-14T07:24:08Z</time>
      </trkpt>
      <trkpt lat="47.61736" lon="1.9479144">
        <ele>164.0</ele>
        <time>2022-04-14T07:24:09Z</time>
      </trkpt>
      <trkpt lat="47.61736" lon="1.9479144">
        <ele>164.0</ele>
        <time>2022-04-14T07:24:10Z</time>
      </trkpt>
      <trkpt lat="47.61736" lon="1.9479144">
        <ele>164.0</ele>
        <time>2022-04-14T07:24:11Z</time>
      </trkpt>
      <trkpt lat="47.617386" lon="1.9478999">
        <ele>164.0</ele>
        <time>2022-04-14T07:24:12Z</time>
      </trkpt>
      <trkpt lat="47.617397" lon="1.9478966">
        <ele>164.0</ele>
        <time>2022-04-14T07:24:13Z</time>
      </trkpt>
      <trkpt lat="47.61741" lon="1.9478886">
        <ele>163.0</ele>
        <time>2022-04-14T07:24:14Z</time>
      </trkpt>
      <trkpt lat="47.617416" lon="1.9478794">
        <ele>163.0</ele>
        <time>2022-04-14T07:24:15Z</time>
      </trkpt>
      <trkpt lat="47.617416" lon="1.9478794">
        <ele>163.0</ele>
        <time>2022-04-14T07:24:16Z</time>
      </trkpt>
      <trkpt lat="47.61743" lon="1.9478618">
        <ele>164.0</ele>
        <time>2022-04-14T07:24:17Z</time>
      </trkpt>
      <trkpt lat="47.617443" lon="1.947854">
        <ele>164.0</ele>
        <time>2022-04-14T07:24:18Z</time>
      </trkpt>
      <trkpt lat="47.61746" lon="1.9478471">
        <ele>164.0</ele>
        <time>2022-04-14T07:24:19Z</time>
      </trkpt>
      <trkpt lat="47.61747" lon="1.9478413">
        <ele>164.0</ele>
        <time>2022-04-14T07:24:20Z</time>
      </trkpt>
      <trkpt lat="47.61747" lon="1.9478413">
        <ele>164.0</ele>
        <time>2022-04-14T07:24:21Z</time>
      </trkpt>
      <trkpt lat="47.61747" lon="1.9478413">
        <ele>164.0</ele>
        <time>2022-04-14T07:24:22Z</time>
      </trkpt>
      <trkpt lat="47.617493" lon="1.9478195">
        <ele>165.0</ele>
        <time>2022-04-14T07:24:23Z</time>
      </trkpt>
      <trkpt lat="47.617504" lon="1.9478161">
        <ele>165.0</ele>
        <time>2022-04-14T07:24:24Z</time>
      </trkpt>
      <trkpt lat="47.61752" lon="1.9478079">
        <ele>165.0</ele>
        <time>2022-04-14T07:24:25Z</time>
      </trkpt>
      <trkpt lat="47.61753" lon="1.9478009">
        <ele>165.0</ele>
        <time>2022-04-14T07:24:26Z</time>
      </trkpt>
      <trkpt lat="47.617542" lon="1.9477937">
        <ele>165.0</ele>
        <time>2022-04-14T07:24:27Z</time>
      </trkpt>
      <trkpt lat="47.617554" lon="1.9477876">
        <ele>166.0</ele>
        <time>2022-04-14T07:24:28Z</time>
      </trkpt>
      <trkpt lat="47.617554" lon="1.9477876">
        <ele>166.0</ele>
        <time>2022-04-14T07:24:29Z</time>
      </trkpt>
      <trkpt lat="47.617554" lon="1.9477876">
        <ele>166.0</ele>
        <time>2022-04-14T07:24:30Z</time>
      </trkpt>
      <trkpt lat="47.617584" lon="1.9477798">
        <ele>167.0</ele>
        <time>2022-04-14T07:24:31Z</time>
      </trkpt>
      <trkpt lat="47.617596" lon="1.9477695">
        <ele>166.0</ele>
        <time>2022-04-14T07:24:32Z</time>
      </trkpt>
      <trkpt lat="47.617607" lon="1.9477639">
        <ele>167.0</ele>
        <time>2022-04-14T07:24:33Z</time>
      </trkpt>
      <trkpt lat="47.61762" lon="1.9477602">
        <ele>167.0</ele>
        <time>2022-04-14T07:24:34Z</time>
      </trkpt>
      <trkpt lat="47.61762" lon="1.9477602">
        <ele>167.0</ele>
        <time>2022-04-14T07:24:35Z</time>
      </trkpt>
      <trkpt lat="47.61762" lon="1.9477602">
        <ele>167.0</ele>
        <time>2022-04-14T07:24:36Z</time>
      </trkpt>
      <trkpt lat="47.617645" lon="1.9477402">
        <ele>167.0</ele>
        <time>2022-04-14T07:24:37Z</time>
      </trkpt>
      <trkpt lat="47.617657" lon="1.9477308">
        <ele>167.0</ele>
        <time>2022-04-14T07:24:38Z</time>
      </trkpt>
      <trkpt lat="47.617672" lon="1.9477218">
        <ele>167.0</ele>
        <time>2022-04-14T07:24:39Z</time>
      </trkpt>
      <trkpt lat="47.617687" lon="1.9477117">
        <ele>168.0</ele>
        <time>2022-04-14T07:24:40Z</time>
      </trkpt>
      <trkpt lat="47.617702" lon="1.9477041">
        <ele>168.0</ele>
        <time>2022-04-14T07:24:41Z</time>
      </trkpt>
      <trkpt lat="47.617718" lon="1.9476954">
        <ele>168.0</ele>
        <time>2022-04-14T07:24:42Z</time>
      </trkpt>
      <trkpt lat="47.617733" lon="1.9476882">
        <ele>168.0</ele>
        <time>2022-04-14T07:24:43Z</time>
      </trkpt>
      <trkpt lat="47.61775" lon="1.947683">
        <ele>169.0</ele>
        <time>2022-04-14T07:24:44Z</time>
      </trkpt>
      <trkpt lat="47.61776" lon="1.947679">
        <ele>169.0</ele>
        <time>2022-04-14T07:24:45Z</time>
      </trkpt>
      <trkpt lat="47.617767" lon="1.947678">
        <ele>169.0</ele>
        <time>2022-04-14T07:24:46Z</time>
      </trkpt>
      <trkpt lat="47.617767" lon="1.947678">
        <ele>169.0</ele>
        <time>2022-04-14T07:24:47Z</time>
      </trkpt>
      <trkpt lat="47.617767" lon="1.947678">
        <ele>169.0</ele>
        <time>2022-04-14T07:24:48Z</time>
      </trkpt>
      <trkpt lat="47.617794" lon="1.947659">
        <ele>170.0</ele>
        <time>2022-04-14T07:24:49Z</time>
      </trkpt>
      <trkpt lat="47.617798" lon="1.9476553">
        <ele>169.0</ele>
        <time>2022-04-14T07:24:50Z</time>
      </trkpt>
      <trkpt lat="47.617805" lon="1.9476441">
        <ele>169.0</ele>
        <time>2022-04-14T07:24:51Z</time>
      </trkpt>
      <trkpt lat="47.617813" lon="1.9476385">
        <ele>169.0</ele>
        <time>2022-04-14T07:24:52Z</time>
      </trkpt>
      <trkpt lat="47.617813" lon="1.9476385">
        <ele>169.0</ele>
        <time>2022-04-14T07:24:53Z</time>
      </trkpt>
      <trkpt lat="47.617813" lon="1.9476385">
        <ele>169.0</ele>
        <time>2022-04-14T07:24:54Z</time>
      </trkpt>
      <trkpt lat="47.617844" lon="1.9476169">
        <ele>169.0</ele>
        <time>2022-04-14T07:24:55Z</time>
      </trkpt>
      <trkpt lat="47.617855" lon="1.9476055">
        <ele>169.0</ele>
        <time>2022-04-14T07:24:56Z</time>
      </trkpt>
      <trkpt lat="47.617867" lon="1.9475954">
        <ele>169.0</ele>
        <time>2022-04-14T07:24:57Z</time>
      </trkpt>
      <trkpt lat="47.61787" lon="1.9475876">
        <ele>168.0</ele>
        <time>2022-04-14T07:24:58Z</time>
      </trkpt>
      <trkpt lat="47.61787" lon="1.9475876">
        <ele>168.0</ele>
        <time>2022-04-14T07:24:59Z</time>
      </trkpt>
      <trkpt lat="47.61787" lon="1.9475876">
        <ele>168.0</ele>
        <time>2022-04-14T07:25:00Z</time>
      </trkpt>
      <trkpt lat="47.617886" lon="1.9475745">
        <ele>169.0</ele>
        <time>2022-04-14T07:25:01Z</time>
      </trkpt>
      <trkpt lat="47.617893" lon="1.9475689">
        <ele>168.0</ele>
        <time>2022-04-14T07:25:02Z</time>
      </trkpt>
      <trkpt lat="47.6179" lon="1.9475663">
        <ele>168.0</ele>
        <time>2022-04-14T07:25:03Z</time>
      </trkpt>
      <trkpt lat="47.61791" lon="1.9475642">
        <ele>169.0</ele>
        <time>2022-04-14T07:25:04Z</time>
      </trkpt>
      <trkpt lat="47.61791" lon="1.9475642">
        <ele>169.0</ele>
        <time>2022-04-14T07:25:05Z</time>
      </trkpt>
      <trkpt lat="47.61793" lon="1.9475551">
        <ele>169.0</ele>
        <time>2022-04-14T07:25:06Z</time>
      </trkpt>
      <trkpt lat="47.617943" lon="1.9475468">
        <ele>168.0</ele>
        <time>2022-04-14T07:25:07Z</time>
      </trkpt>
      <trkpt lat="47.617954" lon="1.9475384">
        <ele>168.0</ele>
        <time>2022-04-14T07:25:08Z</time>
      </trkpt>
      <trkpt lat="47.617966" lon="1.9475331">
        <ele>168.0</ele>
        <time>2022-04-14T07:25:09Z</time>
      </trkpt>
      <trkpt lat="47.61798" lon="1.9475287">
        <ele>168.0</ele>
        <time>2022-04-14T07:25:10Z</time>
      </trkpt>
      <trkpt lat="47.617996" lon="1.9475253">
        <ele>168.0</ele>
        <time>2022-04-14T07:25:11Z</time>
      </trkpt>
      <trkpt lat="47.618008" lon="1.9475194">
        <ele>168.0</ele>
        <time>2022-04-14T07:25:12Z</time>
      </trkpt>
      <trkpt lat="47.618015" lon="1.9475132">
        <ele>168.0</ele>
        <time>2022-04-14T07:25:13Z</time>
      </trkpt>
      <trkpt lat="47.618027" lon="1.9475129">
        <ele>169.0</ele>
        <time>2022-04-14T07:25:14Z</time>
      </trkpt>
      <trkpt lat="47.618034" lon="1.9475114">
        <ele>168.0</ele>
        <time>2022-04-14T07:25:15Z</time>
      </trkpt>
      <trkpt lat="47.618034" lon="1.9475114">
        <ele>168.0</ele>
        <time>2022-04-14T07:25:16Z</time>
      </trkpt>
      <trkpt lat="47.618034" lon="1.9475114">
        <ele>168.0</ele>
        <time>2022-04-14T07:25:17Z</time>
      </trkpt>
      <trkpt lat="47.618053" lon="1.947512">
        <ele>168.0</ele>
        <time>2022-04-14T07:25:18Z</time>
      </trkpt>
      <trkpt lat="47.618057" lon="1.9475093">
        <ele>168.0</ele>
        <time>2022-04-14T07:25:19Z</time>
      </trkpt>
      <trkpt lat="47.618065" lon="1.9475061">
        <ele>169.0</ele>
        <time>2022-04-14T07:25:20Z</time>
      </trkpt>
      <trkpt lat="47.618065" lon="1.9475034">
        <ele>169.0</ele>
        <time>2022-04-14T07:25:21Z</time>
      </trkpt>
      <trkpt lat="47.618065" lon="1.9475034">
        <ele>169.0</ele>
        <time>2022-04-14T07:25:22Z</time>
      </trkpt>
      <trkpt lat="47.618065" lon="1.9475034">
        <ele>169.0</ele>
        <time>2022-04-14T07:25:23Z</time>
      </trkpt>
      <trkpt lat="47.618084" lon="1.9474947">
        <ele>170.0</ele>
        <time>2022-04-14T07:25:24Z</time>
      </trkpt>
      <trkpt lat="47.618095" lon="1.947487">
        <ele>170.0</ele>
        <time>2022-04-14T07:25:25Z</time>
      </trkpt>
      <trkpt lat="47.618103" lon="1.9474784">
        <ele>170.0</ele>
        <time>2022-04-14T07:25:26Z</time>
      </trkpt>
      <trkpt lat="47.61811" lon="1.947466">
        <ele>169.0</ele>
        <time>2022-04-14T07:25:27Z</time>
      </trkpt>
      <trkpt lat="47.61812" lon="1.9474585">
        <ele>169.0</ele>
        <time>2022-04-14T07:25:28Z</time>
      </trkpt>
      <trkpt lat="47.618134" lon="1.9474514">
        <ele>169.0</ele>
        <time>2022-04-14T07:25:29Z</time>
      </trkpt>
      <trkpt lat="47.61815" lon="1.9474409">
        <ele>169.0</ele>
        <time>2022-04-14T07:25:30Z</time>
      </trkpt>
      <trkpt lat="47.61816" lon="1.9474299">
        <ele>169.0</ele>
        <time>2022-04-14T07:25:31Z</time>
      </trkpt>
      <trkpt lat="47.61817" lon="1.947413">
        <ele>168.0</ele>
        <time>2022-04-14T07:25:32Z</time>
      </trkpt>
      <trkpt lat="47.618183" lon="1.947395">
        <ele>168.0</ele>
        <time>2022-04-14T07:25:33Z</time>
      </trkpt>
      <trkpt lat="47.618183" lon="1.947395">
        <ele>168.0</ele>
        <time>2022-04-14T07:25:34Z</time>
      </trkpt>
      <trkpt lat="47.618183" lon="1.947395">
        <ele>168.0</ele>
        <time>2022-04-14T07:25:35Z</time>
      </trkpt>
      <trkpt lat="47.618214" lon="1.9473633">
        <ele>168.0</ele>
        <time>2022-04-14T07:25:36Z</time>
      </trkpt>
      <trkpt lat="47.61822" lon="1.9473549">
        <ele>168.0</ele>
        <time>2022-04-14T07:25:37Z</time>
      </trkpt>
      <trkpt lat="47.618233" lon="1.947348">
        <ele>167.0</ele>
        <time>2022-04-14T07:25:38Z</time>
      </trkpt>
      <trkpt lat="47.618248" lon="1.9473382">
        <ele>167.0</ele>
        <time>2022-04-14T07:25:39Z</time>
      </trkpt>
      <trkpt lat="47.618248" lon="1.9473382">
        <ele>167.0</ele>
        <time>2022-04-14T07:25:40Z</time>
      </trkpt>
      <trkpt lat="47.618248" lon="1.9473382">
        <ele>167.0</ele>
        <time>2022-04-14T07:25:41Z</time>
      </trkpt>
      <trkpt lat="47.618267" lon="1.9473166">
        <ele>168.0</ele>
        <time>2022-04-14T07:25:42Z</time>
      </trkpt>
      <trkpt lat="47.61827" lon="1.947308">
        <ele>168.0</ele>
        <time>2022-04-14T07:25:43Z</time>
      </trkpt>
      <trkpt lat="47.618275" lon="1.9473068">
        <ele>168.0</ele>
        <time>2022-04-14T07:25:44Z</time>
      </trkpt>
      <trkpt lat="47.618286" lon="1.9473016">
        <ele>168.0</ele>
        <time>2022-04-14T07:25:45Z</time>
      </trkpt>
      <trkpt lat="47.618286" lon="1.9473016">
        <ele>168.0</ele>
        <time>2022-04-14T07:25:46Z</time>
      </trkpt>
      <trkpt lat="47.618286" lon="1.9473016">
        <ele>168.0</ele>
        <time>2022-04-14T07:25:47Z</time>
      </trkpt>
      <trkpt lat="47.618305" lon="1.9472952">
        <ele>168.0</ele>
        <time>2022-04-14T07:25:48Z</time>
      </trkpt>
      <trkpt lat="47.618317" lon="1.9472921">
        <ele>169.0</ele>
        <time>2022-04-14T07:25:49Z</time>
      </trkpt>
      <trkpt lat="47.61833" lon="1.9472882">
        <ele>168.0</ele>
        <time>2022-04-14T07:25:50Z</time>
      </trkpt>
      <trkpt lat="47.61834" lon="1.9472862">
        <ele>168.0</ele>
        <time>2022-04-14T07:25:51Z</time>
      </trkpt>
      <trkpt lat="47.61834" lon="1.9472862">
        <ele>168.0</ele>
        <time>2022-04-14T07:25:52Z</time>
      </trkpt>
      <trkpt lat="47.618362" lon="1.9472828">
        <ele>168.0</ele>
        <time>2022-04-14T07:25:53Z</time>
      </trkpt>
      <trkpt lat="47.618378" lon="1.94728">
        <ele>168.0</ele>
        <time>2022-04-14T07:25:54Z</time>
      </trkpt>
      <trkpt lat="47.61839" lon="1.9472779">
        <ele>168.0</ele>
        <time>2022-04-14T07:25:55Z</time>
      </trkpt>
      <trkpt lat="47.618404" lon="1.9472771">
        <ele>168.0</ele>
        <time>2022-04-14T07:25:56Z</time>
      </trkpt>
      <trkpt lat="47.618404" lon="1.9472771">
        <ele>168.0</ele>
        <time>2022-04-14T07:25:57Z</time>
      </trkpt>
      <trkpt lat="47.618404" lon="1.9472771">
        <ele>168.0</ele>
        <time>2022-04-14T07:25:58Z</time>
      </trkpt>
      <trkpt lat="47.61843" lon="1.9472697">
        <ele>168.0</ele>
        <time>2022-04-14T07:25:59Z</time>
      </trkpt>
      <trkpt lat="47.618443" lon="1.9472616">
        <ele>168.0</ele>
        <time>2022-04-14T07:26:00Z</time>
      </trkpt>
      <trkpt lat="47.618454" lon="1.9472566">
        <ele>168.0</ele>
        <time>2022-04-14T07:26:01Z</time>
      </trkpt>
      <trkpt lat="47.61846" lon="1.9472525">
        <ele>167.0</ele>
        <time>2022-04-14T07:26:02Z</time>
      </trkpt>
      <trkpt lat="47.618473" lon="1.947251">
        <ele>166.0</ele>
        <time>2022-04-14T07:26:03Z</time>
      </trkpt>
      <trkpt lat="47.618484" lon="1.9472548">
        <ele>166.0</ele>
        <time>2022-04-14T07:26:04Z</time>
      </trkpt>
      <trkpt lat="47.618496" lon="1.9472504">
        <ele>166.0</ele>
        <time>2022-04-14T07:26:05Z</time>
      </trkpt>
      <trkpt lat="47.61851" lon="1.9472438">
        <ele>166.0</ele>
        <time>2022-04-14T07:26:06Z</time>
      </trkpt>
      <trkpt lat="47.618523" lon="1.9472384">
        <ele>166.0</ele>
        <time>2022-04-14T07:26:07Z</time>
      </trkpt>
      <trkpt lat="47.61853" lon="1.9472381">
        <ele>166.0</ele>
        <time>2022-04-14T07:26:08Z</time>
      </trkpt>
      <trkpt lat="47.61853" lon="1.9472381">
        <ele>166.0</ele>
        <time>2022-04-14T07:26:09Z</time>
      </trkpt>
      <trkpt lat="47.61853" lon="1.9472381">
        <ele>166.0</ele>
        <time>2022-04-14T07:26:10Z</time>
      </trkpt>
      <trkpt lat="47.618553" lon="1.947232">
        <ele>166.0</ele>
        <time>2022-04-14T07:26:11Z</time>
      </trkpt>
      <trkpt lat="47.618557" lon="1.9472287">
        <ele>167.0</ele>
        <time>2022-04-14T07:26:12Z</time>
      </trkpt>
      <trkpt lat="47.61856" lon="1.947226">
        <ele>167.0</ele>
        <time>2022-04-14T07:26:13Z</time>
      </trkpt>
      <trkpt lat="47.618565" lon="1.9472207">
        <ele>167.0</ele>
        <time>2022-04-14T07:26:14Z</time>
      </trkpt>
      <trkpt lat="47.618565" lon="1.9472207">
        <ele>167.0</ele>
        <time>2022-04-14T07:26:15Z</time>
      </trkpt>
      <trkpt lat="47.618565" lon="1.9472207">
        <ele>167.0</ele>
        <time>2022-04-14T07:26:16Z</time>
      </trkpt>
      <trkpt lat="47.618584" lon="1.9472023">
        <ele>167.0</ele>
        <time>2022-04-14T07:26:17Z</time>
      </trkpt>
      <trkpt lat="47.61859" lon="1.9471962">
        <ele>167.0</ele>
        <time>2022-04-14T07:26:18Z</time>
      </trkpt>
      <trkpt lat="47.618603" lon="1.9471887">
        <ele>167.0</ele>
        <time>2022-04-14T07:26:19Z</time>
      </trkpt>
      <trkpt lat="47.61861" lon="1.9471855">
        <ele>167.0</ele>
        <time>2022-04-14T07:26:20Z</time>
      </trkpt>
      <trkpt lat="47.61861" lon="1.9471855">
        <ele>167.0</ele>
        <time>2022-04-14T07:26:21Z</time>
      </trkpt>
      <trkpt lat="47.61861" lon="1.9471855">
        <ele>167.0</ele>
        <time>2022-04-14T07:26:22Z</time>
      </trkpt>
      <trkpt lat="47.61863" lon="1.9471636">
        <ele>167.0</ele>
        <time>2022-04-14T07:26:23Z</time>
      </trkpt>
      <trkpt lat="47.618637" lon="1.9471594">
        <ele>167.0</ele>
        <time>2022-04-14T07:26:24Z</time>
      </trkpt>
      <trkpt lat="47.618645" lon="1.9471503">
        <ele>167.0</ele>
        <time>2022-04-14T07:26:25Z</time>
      </trkpt>
      <trkpt lat="47.618656" lon="1.9471376">
        <ele>167.0</ele>
        <time>2022-04-14T07:26:26Z</time>
      </trkpt>
      <trkpt lat="47.618656" lon="1.9471376">
        <ele>167.0</ele>
        <time>2022-04-14T07:26:27Z</time>
      </trkpt>
      <trkpt lat="47.618656" lon="1.9471376">
        <ele>167.0</ele>
        <time>2022-04-14T07:26:28Z</time>
      </trkpt>
      <trkpt lat="47.618687" lon="1.9471399">
        <ele>166.0</ele>
        <time>2022-04-14T07:26:29Z</time>
      </trkpt>
      <trkpt lat="47.618694" lon="1.9471408">
        <ele>165.0</ele>
        <time>2022-04-14T07:26:30Z</time>
      </trkpt>
      <trkpt lat="47.618706" lon="1.9471337">
        <ele>165.0</ele>
        <time>2022-04-14T07:26:31Z</time>
      </trkpt>
      <trkpt lat="47.618717" lon="1.9471203">
        <ele>165.0</ele>
        <time>2022-04-14T07:26:32Z</time>
      </trkpt>
      <trkpt lat="47.618717" lon="1.9471203">
        <ele>165.0</ele>
        <time>2022-04-14T07:26:33Z</time>
      </trkpt>
      <trkpt lat="47.618717" lon="1.9471203">
        <ele>165.0</ele>
        <time>2022-04-14T07:26:34Z</time>
      </trkpt>
      <trkpt lat="47.618748" lon="1.9471025">
        <ele>164.0</ele>
        <time>2022-04-14T07:26:35Z</time>
      </trkpt>
      <trkpt lat="47.618755" lon="1.947093">
        <ele>164.0</ele>
        <time>2022-04-14T07:26:36Z</time>
      </trkpt>
      <trkpt lat="47.61877" lon="1.9470782">
        <ele>164.0</ele>
        <time>2022-04-14T07:26:37Z</time>
      </trkpt>
      <trkpt lat="47.61878" lon="1.9470648">
        <ele>164.0</ele>
        <time>2022-04-14T07:26:38Z</time>
      </trkpt>
      <trkpt lat="47.61878" lon="1.9470648">
        <ele>164.0</ele>
        <time>2022-04-14T07:26:39Z</time>
      </trkpt>
      <trkpt lat="47.61878" lon="1.9470648">
        <ele>164.0</ele>
        <time>2022-04-14T07:26:40Z</time>
      </trkpt>
      <trkpt lat="47.618805" lon="1.9470227">
        <ele>163.0</ele>
        <time>2022-04-14T07:26:41Z</time>
      </trkpt>
      <trkpt lat="47.618813" lon="1.9470017">
        <ele>162.0</ele>
        <time>2022-04-14T07:26:42Z</time>
      </trkpt>
      <trkpt lat="47.618824" lon="1.9469825">
        <ele>162.0</ele>
        <time>2022-04-14T07:26:43Z</time>
      </trkpt>
      <trkpt lat="47.618828" lon="1.9469705">
        <ele>162.0</ele>
        <time>2022-04-14T07:26:44Z</time>
      </trkpt>
      <trkpt lat="47.618828" lon="1.9469705">
        <ele>162.0</ele>
        <time>2022-04-14T07:26:45Z</time>
      </trkpt>
      <trkpt lat="47.618828" lon="1.9469705">
        <ele>162.0</ele>
        <time>2022-04-14T07:26:46Z</time>
      </trkpt>
      <trkpt lat="47.618847" lon="1.9469366">
        <ele>161.0</ele>
        <time>2022-04-14T07:26:47Z</time>
      </trkpt>
      <trkpt lat="47.61885" lon="1.9469228">
        <ele>161.0</ele>
        <time>2022-04-14T07:26:48Z</time>
      </trkpt>
      <trkpt lat="47.61886" lon="1.946905">
        <ele>160.0</ele>
        <time>2022-04-14T07:26:49Z</time>
      </trkpt>
      <trkpt lat="47.618862" lon="1.9468912">
        <ele>160.0</ele>
        <time>2022-04-14T07:26:50Z</time>
      </trkpt>
      <trkpt lat="47.618862" lon="1.9468912">
        <ele>160.0</ele>
        <time>2022-04-14T07:26:51Z</time>
      </trkpt>
      <trkpt lat="47.618862" lon="1.9468912">
        <ele>160.0</ele>
        <time>2022-04-14T07:26:52Z</time>
      </trkpt>
      <trkpt lat="47.61887" lon="1.9468577">
        <ele>160.0</ele>
        <time>2022-04-14T07:26:53Z</time>
      </trkpt>
      <trkpt lat="47.61887" lon="1.9468457">
        <ele>160.0</ele>
        <time>2022-04-14T07:26:54Z</time>
      </trkpt>
      <trkpt lat="47.618877" lon="1.9468304">
        <ele>161.0</ele>
        <time>2022-04-14T07:26:55Z</time>
      </trkpt>
      <trkpt lat="47.61888" lon="1.9468192">
        <ele>161.0</ele>
        <time>2022-04-14T07:26:56Z</time>
      </trkpt>
      <trkpt lat="47.61888" lon="1.9468192">
        <ele>161.0</ele>
        <time>2022-04-14T07:26:57Z</time>
      </trkpt>
      <trkpt lat="47.61888" lon="1.9468192">
        <ele>161.0</ele>
        <time>2022-04-14T07:26:58Z</time>
      </trkpt>
      <trkpt lat="47.61888" lon="1.9467858">
        <ele>160.0</ele>
        <time>2022-04-14T07:26:59Z</time>
      </trkpt>
      <trkpt lat="47.61888" lon="1.946768">
        <ele>160.0</ele>
        <time>2022-04-14T07:27:00Z</time>
      </trkpt>
      <trkpt lat="47.618877" lon="1.9467517">
        <ele>160.0</ele>
        <time>2022-04-14T07:27:01Z</time>
      </trkpt>
      <trkpt lat="47.618874" lon="1.9467381">
        <ele>160.0</ele>
        <time>2022-04-14T07:27:02Z</time>
      </trkpt>
      <trkpt lat="47.618874" lon="1.9467263">
        <ele>161.0</ele>
        <time>2022-04-14T07:27:03Z</time>
      </trkpt>
      <trkpt lat="47.61887" lon="1.9467146">
        <ele>160.0</ele>
        <time>2022-04-14T07:27:04Z</time>
      </trkpt>
      <trkpt lat="47.61887" lon="1.9467146">
        <ele>160.0</ele>
        <time>2022-04-14T07:27:05Z</time>
      </trkpt>
      <trkpt lat="47.61887" lon="1.9466926">
        <ele>160.0</ele>
        <time>2022-04-14T07:27:06Z</time>
      </trkpt>
      <trkpt lat="47.61887" lon="1.9466808">
        <ele>160.0</ele>
        <time>2022-04-14T07:27:07Z</time>
      </trkpt>
      <trkpt lat="47.618874" lon="1.9466667">
        <ele>161.0</ele>
        <time>2022-04-14T07:27:08Z</time>
      </trkpt>
      <trkpt lat="47.61887" lon="1.9466512">
        <ele>161.0</ele>
        <time>2022-04-14T07:27:09Z</time>
      </trkpt>
      <trkpt lat="47.61887" lon="1.9466512">
        <ele>161.0</ele>
        <time>2022-04-14T07:27:10Z</time>
      </trkpt>
      <trkpt lat="47.61887" lon="1.9466512">
        <ele>161.0</ele>
        <time>2022-04-14T07:27:11Z</time>
      </trkpt>
      <trkpt lat="47.618862" lon="1.9466184">
        <ele>160.0</ele>
        <time>2022-04-14T07:27:12Z</time>
      </trkpt>
      <trkpt lat="47.618862" lon="1.9466031">
        <ele>160.0</ele>
        <time>2022-04-14T07:27:13Z</time>
      </trkpt>
      <trkpt lat="47.618862" lon="1.9465882">
        <ele>160.0</ele>
        <time>2022-04-14T07:27:14Z</time>
      </trkpt>
      <trkpt lat="47.618862" lon="1.9465741">
        <ele>160.0</ele>
        <time>2022-04-14T07:27:15Z</time>
      </trkpt>
      <trkpt lat="47.618862" lon="1.9465741">
        <ele>160.0</ele>
        <time>2022-04-14T07:27:16Z</time>
      </trkpt>
      <trkpt lat="47.618862" lon="1.9465741">
        <ele>160.0</ele>
        <time>2022-04-14T07:27:17Z</time>
      </trkpt>
      <trkpt lat="47.618855" lon="1.9465296">
        <ele>159.0</ele>
        <time>2022-04-14T07:27:18Z</time>
      </trkpt>
      <trkpt lat="47.618855" lon="1.9465141">
        <ele>159.0</ele>
        <time>2022-04-14T07:27:19Z</time>
      </trkpt>
      <trkpt lat="47.618855" lon="1.9464982">
        <ele>159.0</ele>
        <time>2022-04-14T07:27:20Z</time>
      </trkpt>
      <trkpt lat="47.61885" lon="1.9464831">
        <ele>159.0</ele>
        <time>2022-04-14T07:27:21Z</time>
      </trkpt>
      <trkpt lat="47.61885" lon="1.9464831">
        <ele>159.0</ele>
        <time>2022-04-14T07:27:22Z</time>
      </trkpt>
      <trkpt lat="47.61885" lon="1.9464831">
        <ele>159.0</ele>
        <time>2022-04-14T07:27:23Z</time>
      </trkpt>
      <trkpt lat="47.61885" lon="1.9464499">
        <ele>159.0</ele>
        <time>2022-04-14T07:27:24Z</time>
      </trkpt>
      <trkpt lat="47.618855" lon="1.9464352">
        <ele>159.0</ele>
        <time>2022-04-14T07:27:25Z</time>
      </trkpt>
      <trkpt lat="47.618855" lon="1.9464182">
        <ele>159.0</ele>
        <time>2022-04-14T07:27:26Z</time>
      </trkpt>
      <trkpt lat="47.61886" lon="1.9464072">
        <ele>158.0</ele>
        <time>2022-04-14T07:27:27Z</time>
      </trkpt>
      <trkpt lat="47.61886" lon="1.9464072">
        <ele>158.0</ele>
        <time>2022-04-14T07:27:28Z</time>
      </trkpt>
      <trkpt lat="47.61886" lon="1.9464072">
        <ele>158.0</ele>
        <time>2022-04-14T07:27:29Z</time>
      </trkpt>
      <trkpt lat="47.618866" lon="1.9463791">
        <ele>158.0</ele>
        <time>2022-04-14T07:27:30Z</time>
      </trkpt>
      <trkpt lat="47.618866" lon="1.9463685">
        <ele>158.0</ele>
        <time>2022-04-14T07:27:31Z</time>
      </trkpt>
      <trkpt lat="47.618862" lon="1.9463569">
        <ele>158.0</ele>
        <time>2022-04-14T07:27:32Z</time>
      </trkpt>
      <trkpt lat="47.618866" lon="1.9463438">
        <ele>158.0</ele>
        <time>2022-04-14T07:27:33Z</time>
      </trkpt>
      <trkpt lat="47.618866" lon="1.9463438">
        <ele>158.0</ele>
        <time>2022-04-14T07:27:34Z</time>
      </trkpt>
      <trkpt lat="47.618866" lon="1.9463438">
        <ele>158.0</ele>
        <time>2022-04-14T07:27:35Z</time>
      </trkpt>
      <trkpt lat="47.618862" lon="1.946306">
        <ele>157.0</ele>
        <time>2022-04-14T07:27:36Z</time>
      </trkpt>
      <trkpt lat="47.618862" lon="1.9462914">
        <ele>157.0</ele>
        <time>2022-04-14T07:27:37Z</time>
      </trkpt>
      <trkpt lat="47.618866" lon="1.9462739">
        <ele>157.0</ele>
        <time>2022-04-14T07:27:38Z</time>
      </trkpt>
      <trkpt lat="47.618866" lon="1.94626">
        <ele>156.0</ele>
        <time>2022-04-14T07:27:39Z</time>
      </trkpt>
      <trkpt lat="47.618866" lon="1.94626">
        <ele>156.0</ele>
        <time>2022-04-14T07:27:40Z</time>
      </trkpt>
      <trkpt lat="47.618866" lon="1.94626">
        <ele>156.0</ele>
        <time>2022-04-14T07:27:41Z</time>
      </trkpt>
      <trkpt lat="47.618862" lon="1.9462285">
        <ele>156.0</ele>
        <time>2022-04-14T07:27:42Z</time>
      </trkpt>
      <trkpt lat="47.61886" lon="1.9462163">
        <ele>157.0</ele>
        <time>2022-04-14T07:27:43Z</time>
      </trkpt>
      <trkpt lat="47.61886" lon="1.9462011">
        <ele>157.0</ele>
        <time>2022-04-14T07:27:44Z</time>
      </trkpt>
      <trkpt lat="47.61886" lon="1.9461906">
        <ele>156.0</ele>
        <time>2022-04-14T07:27:45Z</time>
      </trkpt>
      <trkpt lat="47.61886" lon="1.9461906">
        <ele>156.0</ele>
        <time>2022-04-14T07:27:46Z</time>
      </trkpt>
      <trkpt lat="47.61886" lon="1.9461906">
        <ele>156.0</ele>
        <time>2022-04-14T07:27:47Z</time>
      </trkpt>
      <trkpt lat="47.618855" lon="1.9461534">
        <ele>156.0</ele>
        <time>2022-04-14T07:27:48Z</time>
      </trkpt>
      <trkpt lat="47.618855" lon="1.9461383">
        <ele>156.0</ele>
        <time>2022-04-14T07:27:49Z</time>
      </trkpt>
      <trkpt lat="47.61885" lon="1.9461246">
        <ele>156.0</ele>
        <time>2022-04-14T07:27:50Z</time>
      </trkpt>
      <trkpt lat="47.61885" lon="1.9461062">
        <ele>156.0</ele>
        <time>2022-04-14T07:27:51Z</time>
      </trkpt>
      <trkpt lat="47.61885" lon="1.9461062">
        <ele>156.0</ele>
        <time>2022-04-14T07:27:52Z</time>
      </trkpt>
      <trkpt lat="47.61885" lon="1.9461062">
        <ele>156.0</ele>
        <time>2022-04-14T07:27:53Z</time>
      </trkpt>
      <trkpt lat="47.618855" lon="1.9460713">
        <ele>156.0</ele>
        <time>2022-04-14T07:27:54Z</time>
      </trkpt>
      <trkpt lat="47.61885" lon="1.9460545">
        <ele>156.0</ele>
        <time>2022-04-14T07:27:55Z</time>
      </trkpt>
      <trkpt lat="47.61885" lon="1.9460382">
        <ele>156.0</ele>
        <time>2022-04-14T07:27:56Z</time>
      </trkpt>
      <trkpt lat="47.618847" lon="1.9460171">
        <ele>156.0</ele>
        <time>2022-04-14T07:27:57Z</time>
      </trkpt>
      <trkpt lat="47.618847" lon="1.9460171">
        <ele>156.0</ele>
        <time>2022-04-14T07:27:58Z</time>
      </trkpt>
      <trkpt lat="47.618847" lon="1.9460171">
        <ele>156.0</ele>
        <time>2022-04-14T07:27:59Z</time>
      </trkpt>
      <trkpt lat="47.618843" lon="1.9459679">
        <ele>156.0</ele>
        <time>2022-04-14T07:28:00Z</time>
      </trkpt>
      <trkpt lat="47.618835" lon="1.9459494">
        <ele>156.0</ele>
        <time>2022-04-14T07:28:01Z</time>
      </trkpt>
      <trkpt lat="47.61883" lon="1.9459289">
        <ele>156.0</ele>
        <time>2022-04-14T07:28:02Z</time>
      </trkpt>
      <trkpt lat="47.618828" lon="1.9459056">
        <ele>156.0</ele>
        <time>2022-04-14T07:28:03Z</time>
      </trkpt>
      <trkpt lat="47.618828" lon="1.9459056">
        <ele>156.0</ele>
        <time>2022-04-14T07:28:04Z</time>
      </trkpt>
      <trkpt lat="47.618828" lon="1.9459056">
        <ele>156.0</ele>
        <time>2022-04-14T07:28:05Z</time>
      </trkpt>
      <trkpt lat="47.618824" lon="1.9458374">
        <ele>157.0</ele>
        <time>2022-04-14T07:28:06Z</time>
      </trkpt>
      <trkpt lat="47.61882" lon="1.9458213">
        <ele>157.0</ele>
        <time>2022-04-14T07:28:07Z</time>
      </trkpt>
      <trkpt lat="47.61882" lon="1.9458083">
        <ele>157.0</ele>
        <time>2022-04-14T07:28:08Z</time>
      </trkpt>
      <trkpt lat="47.618816" lon="1.9457911">
        <ele>157.0</ele>
        <time>2022-04-14T07:28:09Z</time>
      </trkpt>
      <trkpt lat="47.618816" lon="1.9457911">
        <ele>157.0</ele>
        <time>2022-04-14T07:28:10Z</time>
      </trkpt>
      <trkpt lat="47.618816" lon="1.9457911">
        <ele>157.0</ele>
        <time>2022-04-14T07:28:11Z</time>
      </trkpt>
      <trkpt lat="47.618805" lon="1.9457371">
        <ele>157.0</ele>
        <time>2022-04-14T07:28:12Z</time>
      </trkpt>
      <trkpt lat="47.6188" lon="1.9457239">
        <ele>157.0</ele>
        <time>2022-04-14T07:28:13Z</time>
      </trkpt>
      <trkpt lat="47.6188" lon="1.945704">
        <ele>158.0</ele>
        <time>2022-04-14T07:28:14Z</time>
      </trkpt>
      <trkpt lat="47.6188" lon="1.94569">
        <ele>158.0</ele>
        <time>2022-04-14T07:28:15Z</time>
      </trkpt>
      <trkpt lat="47.618797" lon="1.9456695">
        <ele>158.0</ele>
        <time>2022-04-14T07:28:16Z</time>
      </trkpt>
      <trkpt lat="47.618797" lon="1.9456695">
        <ele>158.0</ele>
        <time>2022-04-14T07:28:17Z</time>
      </trkpt>
      <trkpt lat="47.618797" lon="1.9456695">
        <ele>158.0</ele>
        <time>2022-04-14T07:28:18Z</time>
      </trkpt>
      <trkpt lat="47.61879" lon="1.9456228">
        <ele>158.0</ele>
        <time>2022-04-14T07:28:19Z</time>
      </trkpt>
      <trkpt lat="47.61879" lon="1.9456056">
        <ele>158.0</ele>
        <time>2022-04-14T07:28:20Z</time>
      </trkpt>
      <trkpt lat="47.618793" lon="1.9455888">
        <ele>158.0</ele>
        <time>2022-04-14T07:28:21Z</time>
      </trkpt>
      <trkpt lat="47.618793" lon="1.9455751">
        <ele>158.0</ele>
        <time>2022-04-14T07:28:22Z</time>
      </trkpt>
      <trkpt lat="47.618797" lon="1.9455606">
        <ele>157.0</ele>
        <time>2022-04-14T07:28:23Z</time>
      </trkpt>
      <trkpt lat="47.618797" lon="1.9455456">
        <ele>157.0</ele>
        <time>2022-04-14T07:28:24Z</time>
      </trkpt>
      <trkpt lat="47.618797" lon="1.945534">
        <ele>157.0</ele>
        <time>2022-04-14T07:28:25Z</time>
      </trkpt>
      <trkpt lat="47.618797" lon="1.9455198">
        <ele>156.0</ele>
        <time>2022-04-14T07:28:26Z</time>
      </trkpt>
      <trkpt lat="47.618797" lon="1.9455198">
        <ele>156.0</ele>
        <time>2022-04-14T07:28:27Z</time>
      </trkpt>
      <trkpt lat="47.618797" lon="1.9455198">
        <ele>156.0</ele>
        <time>2022-04-14T07:28:28Z</time>
      </trkpt>
      <trkpt lat="47.618793" lon="1.9454794">
        <ele>156.0</ele>
        <time>2022-04-14T07:28:29Z</time>
      </trkpt>
      <trkpt lat="47.618793" lon="1.9454653">
        <ele>156.0</ele>
        <time>2022-04-14T07:28:30Z</time>
      </trkpt>
      <trkpt lat="47.618793" lon="1.9454473">
        <ele>156.0</ele>
        <time>2022-04-14T07:28:31Z</time>
      </trkpt>
      <trkpt lat="47.618793" lon="1.9454292">
        <ele>156.0</ele>
        <time>2022-04-14T07:28:32Z</time>
      </trkpt>
      <trkpt lat="47.618793" lon="1.9454292">
        <ele>156.0</ele>
        <time>2022-04-14T07:28:33Z</time>
      </trkpt>
      <trkpt lat="47.618793" lon="1.9454292">
        <ele>156.0</ele>
        <time>2022-04-14T07:28:34Z</time>
      </trkpt>
      <trkpt lat="47.618793" lon="1.9453851">
        <ele>156.0</ele>
        <time>2022-04-14T07:28:35Z</time>
      </trkpt>
      <trkpt lat="47.618793" lon="1.9453746">
        <ele>157.0</ele>
        <time>2022-04-14T07:28:36Z</time>
      </trkpt>
      <trkpt lat="47.61879" lon="1.9453615">
        <ele>157.0</ele>
        <time>2022-04-14T07:28:37Z</time>
      </trkpt>
      <trkpt lat="47.618782" lon="1.9453441">
        <ele>157.0</ele>
        <time>2022-04-14T07:28:38Z</time>
      </trkpt>
      <trkpt lat="47.618782" lon="1.9453441">
        <ele>157.0</ele>
        <time>2022-04-14T07:28:39Z</time>
      </trkpt>
      <trkpt lat="47.618782" lon="1.9453441">
        <ele>157.0</ele>
        <time>2022-04-14T07:28:40Z</time>
      </trkpt>
      <trkpt lat="47.618774" lon="1.9453032">
        <ele>157.0</ele>
        <time>2022-04-14T07:28:41Z</time>
      </trkpt>
      <trkpt lat="47.61877" lon="1.9452875">
        <ele>157.0</ele>
        <time>2022-04-14T07:28:42Z</time>
      </trkpt>
      <trkpt lat="47.618763" lon="1.9452658">
        <ele>157.0</ele>
        <time>2022-04-14T07:28:43Z</time>
      </trkpt>
      <trkpt lat="47.618755" lon="1.9452404">
        <ele>157.0</ele>
        <time>2022-04-14T07:28:44Z</time>
      </trkpt>
      <trkpt lat="47.618748" lon="1.9452183">
        <ele>156.0</ele>
        <time>2022-04-14T07:28:45Z</time>
      </trkpt>
      <trkpt lat="47.618744" lon="1.945202">
        <ele>156.0</ele>
        <time>2022-04-14T07:28:46Z</time>
      </trkpt>
      <trkpt lat="47.61874" lon="1.9451845">
        <ele>156.0</ele>
        <time>2022-04-14T07:28:47Z</time>
      </trkpt>
      <trkpt lat="47.61874" lon="1.9451661">
        <ele>156.0</ele>
        <time>2022-04-14T07:28:48Z</time>
      </trkpt>
      <trkpt lat="47.618736" lon="1.945141">
        <ele>156.0</ele>
        <time>2022-04-14T07:28:49Z</time>
      </trkpt>
      <trkpt lat="47.618732" lon="1.945125">
        <ele>156.0</ele>
        <time>2022-04-14T07:28:50Z</time>
      </trkpt>
      <trkpt lat="47.618732" lon="1.945125">
        <ele>156.0</ele>
        <time>2022-04-14T07:28:51Z</time>
      </trkpt>
      <trkpt lat="47.618732" lon="1.945125">
        <ele>156.0</ele>
        <time>2022-04-14T07:28:52Z</time>
      </trkpt>
      <trkpt lat="47.61872" lon="1.9450766">
        <ele>156.0</ele>
        <time>2022-04-14T07:28:53Z</time>
      </trkpt>
      <trkpt lat="47.618717" lon="1.945057">
        <ele>156.0</ele>
        <time>2022-04-14T07:28:54Z</time>
      </trkpt>
      <trkpt lat="47.618717" lon="1.9450368">
        <ele>156.0</ele>
        <time>2022-04-14T07:28:55Z</time>
      </trkpt>
      <trkpt lat="47.618713" lon="1.9450228">
        <ele>156.0</ele>
        <time>2022-04-14T07:28:56Z</time>
      </trkpt>
      <trkpt lat="47.618713" lon="1.9450228">
        <ele>156.0</ele>
        <time>2022-04-14T07:28:57Z</time>
      </trkpt>
      <trkpt lat="47.618713" lon="1.9450228">
        <ele>156.0</ele>
        <time>2022-04-14T07:28:58Z</time>
      </trkpt>
      <trkpt lat="47.618713" lon="1.9449911">
        <ele>157.0</ele>
        <time>2022-04-14T07:28:59Z</time>
      </trkpt>
      <trkpt lat="47.61871" lon="1.9449775">
        <ele>157.0</ele>
        <time>2022-04-14T07:29:00Z</time>
      </trkpt>
      <trkpt lat="47.618706" lon="1.9449639">
        <ele>157.0</ele>
        <time>2022-04-14T07:29:01Z</time>
      </trkpt>
      <trkpt lat="47.618706" lon="1.9449525">
        <ele>157.0</ele>
        <time>2022-04-14T07:29:02Z</time>
      </trkpt>
      <trkpt lat="47.618706" lon="1.9449388">
        <ele>157.0</ele>
        <time>2022-04-14T07:29:03Z</time>
      </trkpt>
      <trkpt lat="47.61871" lon="1.9449216">
        <ele>157.0</ele>
        <time>2022-04-14T07:29:04Z</time>
      </trkpt>
      <trkpt lat="47.618706" lon="1.9449034">
        <ele>157.0</ele>
        <time>2022-04-14T07:29:05Z</time>
      </trkpt>
      <trkpt lat="47.6187" lon="1.9448854">
        <ele>157.0</ele>
        <time>2022-04-14T07:29:06Z</time>
      </trkpt>
      <trkpt lat="47.618694" lon="1.9448714">
        <ele>158.0</ele>
        <time>2022-04-14T07:29:07Z</time>
      </trkpt>
      <trkpt lat="47.61869" lon="1.9448543">
        <ele>157.0</ele>
        <time>2022-04-14T07:29:08Z</time>
      </trkpt>
      <trkpt lat="47.61869" lon="1.9448543">
        <ele>157.0</ele>
        <time>2022-04-14T07:29:09Z</time>
      </trkpt>
      <trkpt lat="47.61869" lon="1.9448543">
        <ele>157.0</ele>
        <time>2022-04-14T07:29:10Z</time>
      </trkpt>
      <trkpt lat="47.618687" lon="1.9448112">
        <ele>158.0</ele>
        <time>2022-04-14T07:29:11Z</time>
      </trkpt>
      <trkpt lat="47.618683" lon="1.94479">
        <ele>158.0</ele>
        <time>2022-04-14T07:29:12Z</time>
      </trkpt>
      <trkpt lat="47.618683" lon="1.944769">
        <ele>157.0</ele>
        <time>2022-04-14T07:29:13Z</time>
      </trkpt>
      <trkpt lat="47.61868" lon="1.94475">
        <ele>158.0</ele>
        <time>2022-04-14T07:29:14Z</time>
      </trkpt>
      <trkpt lat="47.61868" lon="1.9447324">
        <ele>158.0</ele>
        <time>2022-04-14T07:29:15Z</time>
      </trkpt>
      <trkpt lat="47.61868" lon="1.9447134">
        <ele>158.0</ele>
        <time>2022-04-14T07:29:16Z</time>
      </trkpt>
      <trkpt lat="47.618675" lon="1.9446967">
        <ele>158.0</ele>
        <time>2022-04-14T07:29:17Z</time>
      </trkpt>
      <trkpt lat="47.618668" lon="1.944679">
        <ele>158.0</ele>
        <time>2022-04-14T07:29:18Z</time>
      </trkpt>
      <trkpt lat="47.618668" lon="1.944679">
        <ele>158.0</ele>
        <time>2022-04-14T07:29:19Z</time>
      </trkpt>
      <trkpt lat="47.618668" lon="1.944679">
        <ele>158.0</ele>
        <time>2022-04-14T07:29:20Z</time>
      </trkpt>
      <trkpt lat="47.618656" lon="1.9446344">
        <ele>159.0</ele>
        <time>2022-04-14T07:29:21Z</time>
      </trkpt>
      <trkpt lat="47.61865" lon="1.9446179">
        <ele>160.0</ele>
        <time>2022-04-14T07:29:22Z</time>
      </trkpt>
      <trkpt lat="47.618645" lon="1.9446061">
        <ele>160.0</ele>
        <time>2022-04-14T07:29:23Z</time>
      </trkpt>
      <trkpt lat="47.618645" lon="1.9445872">
        <ele>160.0</ele>
        <time>2022-04-14T07:29:24Z</time>
      </trkpt>
      <trkpt lat="47.61864" lon="1.9445695">
        <ele>160.0</ele>
        <time>2022-04-14T07:29:25Z</time>
      </trkpt>
      <trkpt lat="47.61864" lon="1.9445474">
        <ele>160.0</ele>
        <time>2022-04-14T07:29:26Z</time>
      </trkpt>
      <trkpt lat="47.618645" lon="1.944526">
        <ele>160.0</ele>
        <time>2022-04-14T07:29:27Z</time>
      </trkpt>
      <trkpt lat="47.61864" lon="1.9445065">
        <ele>160.0</ele>
        <time>2022-04-14T07:29:28Z</time>
      </trkpt>
      <trkpt lat="47.61864" lon="1.9445065">
        <ele>160.0</ele>
        <time>2022-04-14T07:29:29Z</time>
      </trkpt>
      <trkpt lat="47.61864" lon="1.9445065">
        <ele>160.0</ele>
        <time>2022-04-14T07:29:30Z</time>
      </trkpt>
      <trkpt lat="47.61864" lon="1.944463">
        <ele>161.0</ele>
        <time>2022-04-14T07:29:31Z</time>
      </trkpt>
      <trkpt lat="47.61864" lon="1.9444385">
        <ele>161.0</ele>
        <time>2022-04-14T07:29:32Z</time>
      </trkpt>
      <trkpt lat="47.618645" lon="1.9444196">
        <ele>162.0</ele>
        <time>2022-04-14T07:29:33Z</time>
      </trkpt>
      <trkpt lat="47.618645" lon="1.9444017">
        <ele>162.0</ele>
        <time>2022-04-14T07:29:34Z</time>
      </trkpt>
      <trkpt lat="47.618645" lon="1.9444017">
        <ele>162.0</ele>
        <time>2022-04-14T07:29:35Z</time>
      </trkpt>
      <trkpt lat="47.618645" lon="1.9444017">
        <ele>162.0</ele>
        <time>2022-04-14T07:29:36Z</time>
      </trkpt>
      <trkpt lat="47.61864" lon="1.9443477">
        <ele>162.0</ele>
        <time>2022-04-14T07:29:37Z</time>
      </trkpt>
      <trkpt lat="47.618637" lon="1.9443288">
        <ele>162.0</ele>
        <time>2022-04-14T07:29:38Z</time>
      </trkpt>
      <trkpt lat="47.618637" lon="1.9443103">
        <ele>163.0</ele>
        <time>2022-04-14T07:29:39Z</time>
      </trkpt>
      <trkpt lat="47.618633" lon="1.9442903">
        <ele>163.0</ele>
        <time>2022-04-14T07:29:40Z</time>
      </trkpt>
      <trkpt lat="47.618633" lon="1.9442903">
        <ele>163.0</ele>
        <time>2022-04-14T07:29:41Z</time>
      </trkpt>
      <trkpt lat="47.618633" lon="1.9442903">
        <ele>163.0</ele>
        <time>2022-04-14T07:29:42Z</time>
      </trkpt>
      <trkpt lat="47.61863" lon="1.9442437">
        <ele>163.0</ele>
        <time>2022-04-14T07:29:43Z</time>
      </trkpt>
      <trkpt lat="47.618626" lon="1.9442255">
        <ele>163.0</ele>
        <time>2022-04-14T07:29:44Z</time>
      </trkpt>
      <trkpt lat="47.61863" lon="1.9442133">
        <ele>164.0</ele>
        <time>2022-04-14T07:29:45Z</time>
      </trkpt>
      <trkpt lat="47.618626" lon="1.9441956">
        <ele>164.0</ele>
        <time>2022-04-14T07:29:46Z</time>
      </trkpt>
      <trkpt lat="47.61862" lon="1.9441748">
        <ele>165.0</ele>
        <time>2022-04-14T07:29:47Z</time>
      </trkpt>
      <trkpt lat="47.618618" lon="1.9441544">
        <ele>165.0</ele>
        <time>2022-04-14T07:29:48Z</time>
      </trkpt>
      <trkpt lat="47.61862" lon="1.9441296">
        <ele>165.0</ele>
        <time>2022-04-14T07:29:49Z</time>
      </trkpt>
      <trkpt lat="47.618618" lon="1.9441072">
        <ele>165.0</ele>
        <time>2022-04-14T07:29:50Z</time>
      </trkpt>
      <trkpt lat="47.618614" lon="1.9440905">
        <ele>165.0</ele>
        <time>2022-04-14T07:29:51Z</time>
      </trkpt>
      <trkpt lat="47.61861" lon="1.9440691">
        <ele>166.0</ele>
        <time>2022-04-14T07:29:52Z</time>
      </trkpt>
      <trkpt lat="47.618607" lon="1.9440513">
        <ele>166.0</ele>
        <time>2022-04-14T07:29:53Z</time>
      </trkpt>
      <trkpt lat="47.618603" lon="1.9440312">
        <ele>167.0</ele>
        <time>2022-04-14T07:29:54Z</time>
      </trkpt>
      <trkpt lat="47.6186" lon="1.9440112">
        <ele>167.0</ele>
        <time>2022-04-14T07:29:55Z</time>
      </trkpt>
      <trkpt lat="47.6186" lon="1.9440112">
        <ele>167.0</ele>
        <time>2022-04-14T07:29:56Z</time>
      </trkpt>
      <trkpt lat="47.6186" lon="1.9440112">
        <ele>167.0</ele>
        <time>2022-04-14T07:29:57Z</time>
      </trkpt>
      <trkpt lat="47.618587" lon="1.9439678">
        <ele>168.0</ele>
        <time>2022-04-14T07:29:58Z</time>
      </trkpt>
      <trkpt lat="47.61859" lon="1.9439489">
        <ele>168.0</ele>
        <time>2022-04-14T07:29:59Z</time>
      </trkpt>
      <trkpt lat="47.61859" lon="1.9439303">
        <ele>169.0</ele>
        <time>2022-04-14T07:30:00Z</time>
      </trkpt>
      <trkpt lat="47.618587" lon="1.9439105">
        <ele>169.0</ele>
        <time>2022-04-14T07:30:01Z</time>
      </trkpt>
      <trkpt lat="47.618584" lon="1.9438899">
        <ele>169.0</ele>
        <time>2022-04-14T07:30:02Z</time>
      </trkpt>
      <trkpt lat="47.61858" lon="1.9438742">
        <ele>169.0</ele>
        <time>2022-04-14T07:30:03Z</time>
      </trkpt>
      <trkpt lat="47.618587" lon="1.9438583">
        <ele>169.0</ele>
        <time>2022-04-14T07:30:04Z</time>
      </trkpt>
      <trkpt lat="47.618587" lon="1.9438426">
        <ele>169.0</ele>
        <time>2022-04-14T07:30:05Z</time>
      </trkpt>
      <trkpt lat="47.618587" lon="1.9438426">
        <ele>169.0</ele>
        <time>2022-04-14T07:30:06Z</time>
      </trkpt>
      <trkpt lat="47.618587" lon="1.9438426">
        <ele>169.0</ele>
        <time>2022-04-14T07:30:07Z</time>
      </trkpt>
      <trkpt lat="47.618587" lon="1.9438071">
        <ele>170.0</ele>
        <time>2022-04-14T07:30:08Z</time>
      </trkpt>
      <trkpt lat="47.618587" lon="1.9437919">
        <ele>170.0</ele>
        <time>2022-04-14T07:30:09Z</time>
      </trkpt>
      <trkpt lat="47.618587" lon="1.9437764">
        <ele>170.0</ele>
        <time>2022-04-14T07:30:10Z</time>
      </trkpt>
      <trkpt lat="47.618584" lon="1.9437611">
        <ele>170.0</ele>
        <time>2022-04-14T07:30:11Z</time>
      </trkpt>
      <trkpt lat="47.618587" lon="1.9437424">
        <ele>170.0</ele>
        <time>2022-04-14T07:30:12Z</time>
      </trkpt>
      <trkpt lat="47.61858" lon="1.9437261">
        <ele>170.0</ele>
        <time>2022-04-14T07:30:13Z</time>
      </trkpt>
      <trkpt lat="47.61858" lon="1.9437047">
        <ele>170.0</ele>
        <time>2022-04-14T07:30:14Z</time>
      </trkpt>
      <trkpt lat="47.61858" lon="1.9436872">
        <ele>170.0</ele>
        <time>2022-04-14T07:30:15Z</time>
      </trkpt>
      <trkpt lat="47.61858" lon="1.9436674">
        <ele>170.0</ele>
        <time>2022-04-14T07:30:16Z</time>
      </trkpt>
      <trkpt lat="47.61858" lon="1.94366">
        <ele>170.0</ele>
        <time>2022-04-14T07:30:17Z</time>
      </trkpt>
      <trkpt lat="47.61858" lon="1.94365">
        <ele>170.0</ele>
        <time>2022-04-14T07:30:18Z</time>
      </trkpt>
      <trkpt lat="47.61858" lon="1.9436426">
        <ele>170.0</ele>
        <time>2022-04-14T07:30:19Z</time>
      </trkpt>
      <trkpt lat="47.61858" lon="1.9436426">
        <ele>170.0</ele>
        <time>2022-04-14T07:30:20Z</time>
      </trkpt>
      <trkpt lat="47.61858" lon="1.9436426">
        <ele>170.0</ele>
        <time>2022-04-14T07:30:21Z</time>
      </trkpt>
      <trkpt lat="47.618572" lon="1.9436104">
        <ele>170.0</ele>
        <time>2022-04-14T07:30:22Z</time>
      </trkpt>
      <trkpt lat="47.618572" lon="1.9435956">
        <ele>170.0</ele>
        <time>2022-04-14T07:30:23Z</time>
      </trkpt>
      <trkpt lat="47.61857" lon="1.9435837">
        <ele>170.0</ele>
        <time>2022-04-14T07:30:24Z</time>
      </trkpt>
      <trkpt lat="47.618565" lon="1.9435672">
        <ele>171.0</ele>
        <time>2022-04-14T07:30:25Z</time>
      </trkpt>
      <trkpt lat="47.61856" lon="1.9435508">
        <ele>171.0</ele>
        <time>2022-04-14T07:30:26Z</time>
      </trkpt>
      <trkpt lat="47.618557" lon="1.9435359">
        <ele>171.0</ele>
        <time>2022-04-14T07:30:27Z</time>
      </trkpt>
      <trkpt lat="47.618553" lon="1.9435205">
        <ele>171.0</ele>
        <time>2022-04-14T07:30:28Z</time>
      </trkpt>
      <trkpt lat="47.618553" lon="1.9435034">
        <ele>171.0</ele>
        <time>2022-04-14T07:30:29Z</time>
      </trkpt>
      <trkpt lat="47.61855" lon="1.9434893">
        <ele>172.0</ele>
        <time>2022-04-14T07:30:30Z</time>
      </trkpt>
      <trkpt lat="47.61855" lon="1.9434695">
        <ele>172.0</ele>
        <time>2022-04-14T07:30:31Z</time>
      </trkpt>
      <trkpt lat="47.61855" lon="1.9434695">
        <ele>172.0</ele>
        <time>2022-04-14T07:30:32Z</time>
      </trkpt>
      <trkpt lat="47.618553" lon="1.9434592">
        <ele>172.0</ele>
        <time>2022-04-14T07:30:33Z</time>
      </trkpt>
      <trkpt lat="47.618553" lon="1.9434488">
        <ele>172.0</ele>
        <time>2022-04-14T07:30:34Z</time>
      </trkpt>
      <trkpt lat="47.618553" lon="1.9434382">
        <ele>171.0</ele>
        <time>2022-04-14T07:30:35Z</time>
      </trkpt>
      <trkpt lat="47.618553" lon="1.9434248">
        <ele>171.0</ele>
        <time>2022-04-14T07:30:36Z</time>
      </trkpt>
      <trkpt lat="47.618553" lon="1.9434248">
        <ele>171.0</ele>
        <time>2022-04-14T07:30:37Z</time>
      </trkpt>
      <trkpt lat="47.618553" lon="1.9434248">
        <ele>171.0</ele>
        <time>2022-04-14T07:30:38Z</time>
      </trkpt>
      <trkpt lat="47.618553" lon="1.9433877">
        <ele>171.0</ele>
        <time>2022-04-14T07:30:39Z</time>
      </trkpt>
      <trkpt lat="47.618553" lon="1.9433765">
        <ele>171.0</ele>
        <time>2022-04-14T07:30:40Z</time>
      </trkpt>
      <trkpt lat="47.61855" lon="1.9433633">
        <ele>171.0</ele>
        <time>2022-04-14T07:30:42Z</time>
      </trkpt>
      <trkpt lat="47.61855" lon="1.943348">
        <ele>171.0</ele>
        <time>2022-04-14T07:30:43Z</time>
      </trkpt>
      <trkpt lat="47.61855" lon="1.943348">
        <ele>171.0</ele>
        <time>2022-04-14T07:30:44Z</time>
      </trkpt>
      <trkpt lat="47.61855" lon="1.943348">
        <ele>171.0</ele>
        <time>2022-04-14T07:30:45Z</time>
      </trkpt>
      <trkpt lat="47.61855" lon="1.9433128">
        <ele>172.0</ele>
        <time>2022-04-14T07:30:46Z</time>
      </trkpt>
      <trkpt lat="47.618546" lon="1.9432958">
        <ele>172.0</ele>
        <time>2022-04-14T07:30:47Z</time>
      </trkpt>
      <trkpt lat="47.61854" lon="1.9432833">
        <ele>172.0</ele>
        <time>2022-04-14T07:30:48Z</time>
      </trkpt>
      <trkpt lat="47.618538" lon="1.9432678">
        <ele>171.0</ele>
        <time>2022-04-14T07:30:49Z</time>
      </trkpt>
      <trkpt lat="47.618538" lon="1.9432678">
        <ele>171.0</ele>
        <time>2022-04-14T07:30:50Z</time>
      </trkpt>
      <trkpt lat="47.618538" lon="1.9432678">
        <ele>171.0</ele>
        <time>2022-04-14T07:30:51Z</time>
      </trkpt>
      <trkpt lat="47.61853" lon="1.9432273">
        <ele>171.0</ele>
        <time>2022-04-14T07:30:52Z</time>
      </trkpt>
      <trkpt lat="47.61853" lon="1.9432108">
        <ele>171.0</ele>
        <time>2022-04-14T07:30:53Z</time>
      </trkpt>
      <trkpt lat="47.618526" lon="1.9431925">
        <ele>171.0</ele>
        <time>2022-04-14T07:30:54Z</time>
      </trkpt>
      <trkpt lat="47.618526" lon="1.9431747">
        <ele>170.0</ele>
        <time>2022-04-14T07:30:55Z</time>
      </trkpt>
      <trkpt lat="47.618526" lon="1.9431562">
        <ele>170.0</ele>
        <time>2022-04-14T07:30:56Z</time>
      </trkpt>
      <trkpt lat="47.61853" lon="1.9431366">
        <ele>170.0</ele>
        <time>2022-04-14T07:30:57Z</time>
      </trkpt>
      <trkpt lat="47.618534" lon="1.9431193">
        <ele>170.0</ele>
        <time>2022-04-14T07:30:58Z</time>
      </trkpt>
      <trkpt lat="47.618538" lon="1.9431067">
        <ele>170.0</ele>
        <time>2022-04-14T07:30:59Z</time>
      </trkpt>
      <trkpt lat="47.618546" lon="1.9430968">
        <ele>170.0</ele>
        <time>2022-04-14T07:31:00Z</time>
      </trkpt>
      <trkpt lat="47.61855" lon="1.9430889">
        <ele>170.0</ele>
        <time>2022-04-14T07:31:01Z</time>
      </trkpt>
      <trkpt lat="47.618553" lon="1.9430805">
        <ele>170.0</ele>
        <time>2022-04-14T07:31:02Z</time>
      </trkpt>
      <trkpt lat="47.618553" lon="1.9430655">
        <ele>170.0</ele>
        <time>2022-04-14T07:31:03Z</time>
      </trkpt>
      <trkpt lat="47.618557" lon="1.9430534">
        <ele>170.0</ele>
        <time>2022-04-14T07:31:04Z</time>
      </trkpt>
      <trkpt lat="47.61856" lon="1.9430418">
        <ele>170.0</ele>
        <time>2022-04-14T07:31:05Z</time>
      </trkpt>
      <trkpt lat="47.618565" lon="1.9430326">
        <ele>170.0</ele>
        <time>2022-04-14T07:31:06Z</time>
      </trkpt>
      <trkpt lat="47.618572" lon="1.9430206">
        <ele>170.0</ele>
        <time>2022-04-14T07:31:07Z</time>
      </trkpt>
      <trkpt lat="47.618572" lon="1.943005">
        <ele>170.0</ele>
        <time>2022-04-14T07:31:08Z</time>
      </trkpt>
      <trkpt lat="47.618572" lon="1.943005">
        <ele>170.0</ele>
        <time>2022-04-14T07:31:09Z</time>
      </trkpt>
      <trkpt lat="47.618572" lon="1.943005">
        <ele>170.0</ele>
        <time>2022-04-14T07:31:10Z</time>
      </trkpt>
      <trkpt lat="47.618576" lon="1.9429708">
        <ele>170.0</ele>
        <time>2022-04-14T07:31:11Z</time>
      </trkpt>
      <trkpt lat="47.618587" lon="1.9429617">
        <ele>170.0</ele>
        <time>2022-04-14T07:31:12Z</time>
      </trkpt>
      <trkpt lat="47.618595" lon="1.942955">
        <ele>169.0</ele>
        <time>2022-04-14T07:31:13Z</time>
      </trkpt>
      <trkpt lat="47.618603" lon="1.942947">
        <ele>169.0</ele>
        <time>2022-04-14T07:31:14Z</time>
      </trkpt>
      <trkpt lat="47.61861" lon="1.9429387">
        <ele>169.0</ele>
        <time>2022-04-14T07:31:15Z</time>
      </trkpt>
      <trkpt lat="47.61862" lon="1.9429278">
        <ele>169.0</ele>
        <time>2022-04-14T07:31:16Z</time>
      </trkpt>
      <trkpt lat="47.61862" lon="1.9429278">
        <ele>169.0</ele>
        <time>2022-04-14T07:31:17Z</time>
      </trkpt>
      <trkpt lat="47.61862" lon="1.9429278">
        <ele>169.0</ele>
        <time>2022-04-14T07:31:18Z</time>
      </trkpt>
      <trkpt lat="47.61864" lon="1.9429059">
        <ele>168.0</ele>
        <time>2022-04-14T07:31:19Z</time>
      </trkpt>
      <trkpt lat="47.61865" lon="1.9428968">
        <ele>168.0</ele>
        <time>2022-04-14T07:31:20Z</time>
      </trkpt>
      <trkpt lat="47.618656" lon="1.9428906">
        <ele>168.0</ele>
        <time>2022-04-14T07:31:21Z</time>
      </trkpt>
      <trkpt lat="47.61866" lon="1.9428794">
        <ele>168.0</ele>
        <time>2022-04-14T07:31:22Z</time>
      </trkpt>
      <trkpt lat="47.61866" lon="1.9428794">
        <ele>168.0</ele>
        <time>2022-04-14T07:31:23Z</time>
      </trkpt>
      <trkpt lat="47.61866" lon="1.9428794">
        <ele>168.0</ele>
        <time>2022-04-14T07:31:24Z</time>
      </trkpt>
      <trkpt lat="47.618683" lon="1.9428505">
        <ele>167.0</ele>
        <time>2022-04-14T07:31:25Z</time>
      </trkpt>
      <trkpt lat="47.61869" lon="1.942843">
        <ele>167.0</ele>
        <time>2022-04-14T07:31:26Z</time>
      </trkpt>
      <trkpt lat="47.618702" lon="1.9428349">
        <ele>167.0</ele>
        <time>2022-04-14T07:31:27Z</time>
      </trkpt>
      <trkpt lat="47.61871" lon="1.9428211">
        <ele>167.0</ele>
        <time>2022-04-14T07:31:28Z</time>
      </trkpt>
      <trkpt lat="47.61871" lon="1.9428211">
        <ele>167.0</ele>
        <time>2022-04-14T07:31:29Z</time>
      </trkpt>
      <trkpt lat="47.61871" lon="1.9428211">
        <ele>167.0</ele>
        <time>2022-04-14T07:31:30Z</time>
      </trkpt>
      <trkpt lat="47.618725" lon="1.9428062">
        <ele>167.0</ele>
        <time>2022-04-14T07:31:31Z</time>
      </trkpt>
      <trkpt lat="47.61873" lon="1.9427979">
        <ele>167.0</ele>
        <time>2022-04-14T07:31:32Z</time>
      </trkpt>
      <trkpt lat="47.618736" lon="1.9427857">
        <ele>167.0</ele>
        <time>2022-04-14T07:31:33Z</time>
      </trkpt>
      <trkpt lat="47.61874" lon="1.9427687">
        <ele>167.0</ele>
        <time>2022-04-14T07:31:34Z</time>
      </trkpt>
      <trkpt lat="47.618744" lon="1.9427557">
        <ele>168.0</ele>
        <time>2022-04-14T07:31:35Z</time>
      </trkpt>
      <trkpt lat="47.618748" lon="1.9427491">
        <ele>168.0</ele>
        <time>2022-04-14T07:31:36Z</time>
      </trkpt>
      <trkpt lat="47.618748" lon="1.9427491">
        <ele>168.0</ele>
        <time>2022-04-14T07:31:37Z</time>
      </trkpt>
      <trkpt lat="47.618748" lon="1.9427491">
        <ele>168.0</ele>
        <time>2022-04-14T07:31:38Z</time>
      </trkpt>
      <trkpt lat="47.61876" lon="1.9427334">
        <ele>168.0</ele>
        <time>2022-04-14T07:31:39Z</time>
      </trkpt>
      <trkpt lat="47.61877" lon="1.9427286">
        <ele>168.0</ele>
        <time>2022-04-14T07:31:40Z</time>
      </trkpt>
      <trkpt lat="47.61878" lon="1.942724">
        <ele>168.0</ele>
        <time>2022-04-14T07:31:41Z</time>
      </trkpt>
      <trkpt lat="47.618793" lon="1.9427156">
        <ele>168.0</ele>
        <time>2022-04-14T07:31:42Z</time>
      </trkpt>
      <trkpt lat="47.6188" lon="1.9427153">
        <ele>168.0</ele>
        <time>2022-04-14T07:31:43Z</time>
      </trkpt>
      <trkpt lat="47.61881" lon="1.9427137">
        <ele>168.0</ele>
        <time>2022-04-14T07:31:44Z</time>
      </trkpt>
      <trkpt lat="47.618813" lon="1.9427123">
        <ele>169.0</ele>
        <time>2022-04-14T07:31:45Z</time>
      </trkpt>
      <trkpt lat="47.61882" lon="1.9427103">
        <ele>169.0</ele>
        <time>2022-04-14T07:31:46Z</time>
      </trkpt>
      <trkpt lat="47.618824" lon="1.9427072">
        <ele>169.0</ele>
        <time>2022-04-14T07:31:47Z</time>
      </trkpt>
      <trkpt lat="47.61883" lon="1.9427048">
        <ele>169.0</ele>
        <time>2022-04-14T07:31:48Z</time>
      </trkpt>
      <trkpt lat="47.618843" lon="1.9427049">
        <ele>170.0</ele>
        <time>2022-04-14T07:31:49Z</time>
      </trkpt>
      <trkpt lat="47.618855" lon="1.942702">
        <ele>170.0</ele>
        <time>2022-04-14T07:31:50Z</time>
      </trkpt>
      <trkpt lat="47.618866" lon="1.9426996">
        <ele>169.0</ele>
        <time>2022-04-14T07:31:51Z</time>
      </trkpt>
      <trkpt lat="47.618874" lon="1.942695">
        <ele>169.0</ele>
        <time>2022-04-14T07:31:52Z</time>
      </trkpt>
      <trkpt lat="47.61888" lon="1.9426905">
        <ele>169.0</ele>
        <time>2022-04-14T07:31:53Z</time>
      </trkpt>
      <trkpt lat="47.61888" lon="1.9426905">
        <ele>169.0</ele>
        <time>2022-04-14T07:31:54Z</time>
      </trkpt>
      <trkpt lat="47.61888" lon="1.9426905">
        <ele>169.0</ele>
        <time>2022-04-14T07:31:55Z</time>
      </trkpt>
      <trkpt lat="47.61891" lon="1.9426755">
        <ele>169.0</ele>
        <time>2022-04-14T07:31:56Z</time>
      </trkpt>
      <trkpt lat="47.61892" lon="1.9426763">
        <ele>169.0</ele>
        <time>2022-04-14T07:31:57Z</time>
      </trkpt>
      <trkpt lat="47.618927" lon="1.9426725">
        <ele>169.0</ele>
        <time>2022-04-14T07:31:58Z</time>
      </trkpt>
      <trkpt lat="47.61894" lon="1.9426717">
        <ele>169.0</ele>
        <time>2022-04-14T07:31:59Z</time>
      </trkpt>
      <trkpt lat="47.61894" lon="1.9426717">
        <ele>169.0</ele>
        <time>2022-04-14T07:32:00Z</time>
      </trkpt>
      <trkpt lat="47.61894" lon="1.9426717">
        <ele>169.0</ele>
        <time>2022-04-14T07:32:01Z</time>
      </trkpt>
      <trkpt lat="47.61896" lon="1.9426583">
        <ele>169.0</ele>
        <time>2022-04-14T07:32:02Z</time>
      </trkpt>
      <trkpt lat="47.61897" lon="1.942647">
        <ele>169.0</ele>
        <time>2022-04-14T07:32:03Z</time>
      </trkpt>
      <trkpt lat="47.618984" lon="1.9426422">
        <ele>170.0</ele>
        <time>2022-04-14T07:32:04Z</time>
      </trkpt>
      <trkpt lat="47.61899" lon="1.9426419">
        <ele>170.0</ele>
        <time>2022-04-14T07:32:05Z</time>
      </trkpt>
      <trkpt lat="47.61899" lon="1.9426419">
        <ele>170.0</ele>
        <time>2022-04-14T07:32:06Z</time>
      </trkpt>
      <trkpt lat="47.61899" lon="1.9426419">
        <ele>170.0</ele>
        <time>2022-04-14T07:32:07Z</time>
      </trkpt>
      <trkpt lat="47.61902" lon="1.9426188">
        <ele>170.0</ele>
        <time>2022-04-14T07:32:08Z</time>
      </trkpt>
      <trkpt lat="47.619026" lon="1.9426086">
        <ele>170.0</ele>
        <time>2022-04-14T07:32:09Z</time>
      </trkpt>
      <trkpt lat="47.619038" lon="1.9425968">
        <ele>170.0</ele>
        <time>2022-04-14T07:32:10Z</time>
      </trkpt>
      <trkpt lat="47.61904" lon="1.9425881">
        <ele>170.0</ele>
        <time>2022-04-14T07:32:11Z</time>
      </trkpt>
      <trkpt lat="47.61904" lon="1.9425881">
        <ele>170.0</ele>
        <time>2022-04-14T07:32:12Z</time>
      </trkpt>
      <trkpt lat="47.61904" lon="1.9425881">
        <ele>170.0</ele>
        <time>2022-04-14T07:32:13Z</time>
      </trkpt>
      <trkpt lat="47.619053" lon="1.9425514">
        <ele>171.0</ele>
        <time>2022-04-14T07:32:14Z</time>
      </trkpt>
      <trkpt lat="47.61906" lon="1.9425347">
        <ele>171.0</ele>
        <time>2022-04-14T07:32:15Z</time>
      </trkpt>
      <trkpt lat="47.619064" lon="1.9425168">
        <ele>171.0</ele>
        <time>2022-04-14T07:32:16Z</time>
      </trkpt>
      <trkpt lat="47.619064" lon="1.9424983">
        <ele>171.0</ele>
        <time>2022-04-14T07:32:17Z</time>
      </trkpt>
      <trkpt lat="47.61907" lon="1.9424783">
        <ele>171.0</ele>
        <time>2022-04-14T07:32:18Z</time>
      </trkpt>
      <trkpt lat="47.619072" lon="1.9424591">
        <ele>171.0</ele>
        <time>2022-04-14T07:32:19Z</time>
      </trkpt>
      <trkpt lat="47.619076" lon="1.9424424">
        <ele>171.0</ele>
        <time>2022-04-14T07:32:20Z</time>
      </trkpt>
      <trkpt lat="47.619076" lon="1.9424292">
        <ele>171.0</ele>
        <time>2022-04-14T07:32:21Z</time>
      </trkpt>
      <trkpt lat="47.619076" lon="1.9424292">
        <ele>171.0</ele>
        <time>2022-04-14T07:32:22Z</time>
      </trkpt>
      <trkpt lat="47.619076" lon="1.9424292">
        <ele>171.0</ele>
        <time>2022-04-14T07:32:23Z</time>
      </trkpt>
      <trkpt lat="47.61908" lon="1.9423896">
        <ele>171.0</ele>
        <time>2022-04-14T07:32:24Z</time>
      </trkpt>
      <trkpt lat="47.61908" lon="1.9423766">
        <ele>172.0</ele>
        <time>2022-04-14T07:32:25Z</time>
      </trkpt>
      <trkpt lat="47.61908" lon="1.9423616">
        <ele>172.0</ele>
        <time>2022-04-14T07:32:26Z</time>
      </trkpt>
      <trkpt lat="47.61908" lon="1.9423486">
        <ele>172.0</ele>
        <time>2022-04-14T07:32:27Z</time>
      </trkpt>
      <trkpt lat="47.61908" lon="1.9423486">
        <ele>172.0</ele>
        <time>2022-04-14T07:32:28Z</time>
      </trkpt>
      <trkpt lat="47.61908" lon="1.9423486">
        <ele>172.0</ele>
        <time>2022-04-14T07:32:29Z</time>
      </trkpt>
      <trkpt lat="47.619087" lon="1.9422988">
        <ele>171.0</ele>
        <time>2022-04-14T07:32:30Z</time>
      </trkpt>
      <trkpt lat="47.619087" lon="1.942282">
        <ele>171.0</ele>
        <time>2022-04-14T07:32:31Z</time>
      </trkpt>
      <trkpt lat="47.619087" lon="1.9422659">
        <ele>170.0</ele>
        <time>2022-04-14T07:32:32Z</time>
      </trkpt>
      <trkpt lat="47.619095" lon="1.9422516">
        <ele>170.0</ele>
        <time>2022-04-14T07:32:33Z</time>
      </trkpt>
      <trkpt lat="47.6191" lon="1.942235">
        <ele>170.0</ele>
        <time>2022-04-14T07:32:34Z</time>
      </trkpt>
      <trkpt lat="47.619095" lon="1.9422203">
        <ele>170.0</ele>
        <time>2022-04-14T07:32:35Z</time>
      </trkpt>
      <trkpt lat="47.619095" lon="1.9422083">
        <ele>169.0</ele>
        <time>2022-04-14T07:32:36Z</time>
      </trkpt>
      <trkpt lat="47.6191" lon="1.9421922">
        <ele>169.0</ele>
        <time>2022-04-14T07:32:37Z</time>
      </trkpt>
      <trkpt lat="47.6191" lon="1.9421756">
        <ele>169.0</ele>
        <time>2022-04-14T07:32:38Z</time>
      </trkpt>
      <trkpt lat="47.619102" lon="1.9421599">
        <ele>169.0</ele>
        <time>2022-04-14T07:32:39Z</time>
      </trkpt>
      <trkpt lat="47.619106" lon="1.9421437">
        <ele>169.0</ele>
        <time>2022-04-14T07:32:40Z</time>
      </trkpt>
      <trkpt lat="47.619106" lon="1.9421282">
        <ele>169.0</ele>
        <time>2022-04-14T07:32:41Z</time>
      </trkpt>
      <trkpt lat="47.619106" lon="1.9421282">
        <ele>169.0</ele>
        <time>2022-04-14T07:32:42Z</time>
      </trkpt>
      <trkpt lat="47.619106" lon="1.9421282">
        <ele>169.0</ele>
        <time>2022-04-14T07:32:43Z</time>
      </trkpt>
      <trkpt lat="47.619114" lon="1.9420906">
        <ele>168.0</ele>
        <time>2022-04-14T07:32:44Z</time>
      </trkpt>
      <trkpt lat="47.619114" lon="1.9420724">
        <ele>168.0</ele>
        <time>2022-04-14T07:32:45Z</time>
      </trkpt>
      <trkpt lat="47.619118" lon="1.942053">
        <ele>168.0</ele>
        <time>2022-04-14T07:32:46Z</time>
      </trkpt>
      <trkpt lat="47.61912" lon="1.9420333">
        <ele>168.0</ele>
        <time>2022-04-14T07:32:47Z</time>
      </trkpt>
      <trkpt lat="47.61912" lon="1.9420164">
        <ele>168.0</ele>
        <time>2022-04-14T07:32:48Z</time>
      </trkpt>
      <trkpt lat="47.61912" lon="1.942001">
        <ele>168.0</ele>
        <time>2022-04-14T07:32:49Z</time>
      </trkpt>
      <trkpt lat="47.619125" lon="1.9419858">
        <ele>168.0</ele>
        <time>2022-04-14T07:32:50Z</time>
      </trkpt>
      <trkpt lat="47.619125" lon="1.9419858">
        <ele>168.0</ele>
        <time>2022-04-14T07:32:51Z</time>
      </trkpt>
      <trkpt lat="47.619125" lon="1.9419858">
        <ele>168.0</ele>
        <time>2022-04-14T07:32:52Z</time>
      </trkpt>
      <trkpt lat="47.61913" lon="1.9419522">
        <ele>168.0</ele>
        <time>2022-04-14T07:32:53Z</time>
      </trkpt>
      <trkpt lat="47.619133" lon="1.9419318">
        <ele>168.0</ele>
        <time>2022-04-14T07:32:54Z</time>
      </trkpt>
      <trkpt lat="47.619137" lon="1.9419167">
        <ele>168.0</ele>
        <time>2022-04-14T07:32:55Z</time>
      </trkpt>
      <trkpt lat="47.619137" lon="1.9419037">
        <ele>168.0</ele>
        <time>2022-04-14T07:32:56Z</time>
      </trkpt>
      <trkpt lat="47.619137" lon="1.9419037">
        <ele>168.0</ele>
        <time>2022-04-14T07:32:57Z</time>
      </trkpt>
      <trkpt lat="47.619137" lon="1.9419037">
        <ele>168.0</ele>
        <time>2022-04-14T07:32:58Z</time>
      </trkpt>
      <trkpt lat="47.61914" lon="1.9418542">
        <ele>167.0</ele>
        <time>2022-04-14T07:32:59Z</time>
      </trkpt>
      <trkpt lat="47.61914" lon="1.9418352">
        <ele>167.0</ele>
        <time>2022-04-14T07:33:00Z</time>
      </trkpt>
      <trkpt lat="47.619137" lon="1.9418223">
        <ele>167.0</ele>
        <time>2022-04-14T07:33:01Z</time>
      </trkpt>
      <trkpt lat="47.619133" lon="1.9418087">
        <ele>167.0</ele>
        <time>2022-04-14T07:33:02Z</time>
      </trkpt>
      <trkpt lat="47.619133" lon="1.9418087">
        <ele>167.0</ele>
        <time>2022-04-14T07:33:03Z</time>
      </trkpt>
      <trkpt lat="47.619133" lon="1.9418087">
        <ele>167.0</ele>
        <time>2022-04-14T07:33:04Z</time>
      </trkpt>
      <trkpt lat="47.619133" lon="1.9417627">
        <ele>167.0</ele>
        <time>2022-04-14T07:33:05Z</time>
      </trkpt>
      <trkpt lat="47.619133" lon="1.9417434">
        <ele>167.0</ele>
        <time>2022-04-14T07:33:06Z</time>
      </trkpt>
      <trkpt lat="47.61913" lon="1.9417263">
        <ele>168.0</ele>
        <time>2022-04-14T07:33:07Z</time>
      </trkpt>
      <trkpt lat="47.619125" lon="1.9417111">
        <ele>168.0</ele>
        <time>2022-04-14T07:33:08Z</time>
      </trkpt>
      <trkpt lat="47.619125" lon="1.9416915">
        <ele>168.0</ele>
        <time>2022-04-14T07:33:09Z</time>
      </trkpt>
      <trkpt lat="47.619125" lon="1.9416915">
        <ele>168.0</ele>
        <time>2022-04-14T07:33:10Z</time>
      </trkpt>
      <trkpt lat="47.619125" lon="1.9416915">
        <ele>168.0</ele>
        <time>2022-04-14T07:33:11Z</time>
      </trkpt>
      <trkpt lat="47.619125" lon="1.9416417">
        <ele>168.0</ele>
        <time>2022-04-14T07:33:12Z</time>
      </trkpt>
      <trkpt lat="47.619125" lon="1.941618">
        <ele>168.0</ele>
        <time>2022-04-14T07:33:13Z</time>
      </trkpt>
      <trkpt lat="47.61912" lon="1.9416009">
        <ele>168.0</ele>
        <time>2022-04-14T07:33:14Z</time>
      </trkpt>
      <trkpt lat="47.61912" lon="1.9415996">
        <ele>168.0</ele>
        <time>2022-04-14T07:33:15Z</time>
      </trkpt>
      <trkpt lat="47.61912" lon="1.9415996">
        <ele>168.0</ele>
        <time>2022-04-14T07:33:16Z</time>
      </trkpt>
      <trkpt lat="47.61912" lon="1.9415996">
        <ele>168.0</ele>
        <time>2022-04-14T07:33:17Z</time>
      </trkpt>
      <trkpt lat="47.619114" lon="1.941564">
        <ele>168.0</ele>
        <time>2022-04-14T07:33:18Z</time>
      </trkpt>
      <trkpt lat="47.61911" lon="1.9415398">
        <ele>168.0</ele>
        <time>2022-04-14T07:33:19Z</time>
      </trkpt>
      <trkpt lat="47.61911" lon="1.9415182">
        <ele>168.0</ele>
        <time>2022-04-14T07:33:20Z</time>
      </trkpt>
      <trkpt lat="47.619114" lon="1.9415">
        <ele>169.0</ele>
        <time>2022-04-14T07:33:21Z</time>
      </trkpt>
      <trkpt lat="47.61911" lon="1.9414831">
        <ele>169.0</ele>
        <time>2022-04-14T07:33:22Z</time>
      </trkpt>
      <trkpt lat="47.619106" lon="1.9414703">
        <ele>169.0</ele>
        <time>2022-04-14T07:33:23Z</time>
      </trkpt>
      <trkpt lat="47.619106" lon="1.9414579">
        <ele>169.0</ele>
        <time>2022-04-14T07:33:24Z</time>
      </trkpt>
      <trkpt lat="47.619106" lon="1.9414579">
        <ele>169.0</ele>
        <time>2022-04-14T07:33:25Z</time>
      </trkpt>
      <trkpt lat="47.619106" lon="1.9414579">
        <ele>169.0</ele>
        <time>2022-04-14T07:33:26Z</time>
      </trkpt>
      <trkpt lat="47.619114" lon="1.9414198">
        <ele>170.0</ele>
        <time>2022-04-14T07:33:27Z</time>
      </trkpt>
      <trkpt lat="47.619114" lon="1.9414011">
        <ele>170.0</ele>
        <time>2022-04-14T07:33:28Z</time>
      </trkpt>
      <trkpt lat="47.619114" lon="1.941385">
        <ele>170.0</ele>
        <time>2022-04-14T07:33:29Z</time>
      </trkpt>
      <trkpt lat="47.619118" lon="1.941375">
        <ele>170.0</ele>
        <time>2022-04-14T07:33:30Z</time>
      </trkpt>
      <trkpt lat="47.619118" lon="1.941375">
        <ele>170.0</ele>
        <time>2022-04-14T07:33:31Z</time>
      </trkpt>
      <trkpt lat="47.619118" lon="1.941375">
        <ele>170.0</ele>
        <time>2022-04-14T07:33:32Z</time>
      </trkpt>
      <trkpt lat="47.619118" lon="1.9413624">
        <ele>170.0</ele>
        <time>2022-04-14T07:33:33Z</time>
      </trkpt>
      <trkpt lat="47.619114" lon="1.9413512">
        <ele>170.0</ele>
        <time>2022-04-14T07:33:34Z</time>
      </trkpt>
      <trkpt lat="47.619114" lon="1.9413512">
        <ele>170.0</ele>
        <time>2022-04-14T07:33:34Z</time>
      </trkpt>
      <trkpt lat="47.619114" lon="1.9413512">
        <ele>170.0</ele>
        <time>2022-04-14T07:33:34Z</time>
      </trkpt>
      <trkpt lat="47.619137" lon="1.9411567">
        <ele>172.0</ele>
        <time>2022-04-14T07:34:28Z</time>
      </trkpt>
      <trkpt lat="47.619144" lon="1.9411452">
        <ele>172.0</ele>
        <time>2022-04-14T07:34:29Z</time>
      </trkpt>
      <trkpt lat="47.619152" lon="1.941132">
        <ele>172.0</ele>
        <time>2022-04-14T07:34:30Z</time>
      </trkpt>
      <trkpt lat="47.619152" lon="1.941132">
        <ele>172.0</ele>
        <time>2022-04-14T07:34:31Z</time>
      </trkpt>
      <trkpt lat="47.619152" lon="1.941132">
        <ele>172.0</ele>
        <time>2022-04-14T07:34:32Z</time>
      </trkpt>
      <trkpt lat="47.61916" lon="1.9411017">
        <ele>171.0</ele>
        <time>2022-04-14T07:34:33Z</time>
      </trkpt>
      <trkpt lat="47.619164" lon="1.9410964">
        <ele>172.0</ele>
        <time>2022-04-14T07:34:34Z</time>
      </trkpt>
      <trkpt lat="47.619167" lon="1.9410956">
        <ele>172.0</ele>
        <time>2022-04-14T07:34:35Z</time>
      </trkpt>
      <trkpt lat="47.619175" lon="1.9410912">
        <ele>172.0</ele>
        <time>2022-04-14T07:34:36Z</time>
      </trkpt>
      <trkpt lat="47.619175" lon="1.9410912">
        <ele>172.0</ele>
        <time>2022-04-14T07:34:37Z</time>
      </trkpt>
      <trkpt lat="47.619175" lon="1.9410912">
        <ele>172.0</ele>
        <time>2022-04-14T07:34:38Z</time>
      </trkpt>
      <trkpt lat="47.619175" lon="1.9410912">
        <ele>172.0</ele>
        <time>2022-04-14T07:34:39Z</time>
      </trkpt>
      <trkpt lat="47.619175" lon="1.9410912">
        <ele>172.0</ele>
        <time>2022-04-14T07:34:40Z</time>
      </trkpt>
      <trkpt lat="47.619175" lon="1.9410912">
        <ele>172.0</ele>
        <time>2022-04-14T07:34:41Z</time>
      </trkpt>
      <trkpt lat="47.619194" lon="1.9410741">
        <ele>172.0</ele>
        <time>2022-04-14T07:34:42Z</time>
      </trkpt>
      <trkpt lat="47.619205" lon="1.9410684">
        <ele>172.0</ele>
        <time>2022-04-14T07:34:43Z</time>
      </trkpt>
      <trkpt lat="47.61921" lon="1.9410632">
        <ele>172.0</ele>
        <time>2022-04-14T07:34:44Z</time>
      </trkpt>
      <trkpt lat="47.619217" lon="1.9410635">
        <ele>171.0</ele>
        <time>2022-04-14T07:34:45Z</time>
      </trkpt>
      <trkpt lat="47.61922" lon="1.9410778">
        <ele>171.0</ele>
        <time>2022-04-14T07:34:46Z</time>
      </trkpt>
      <trkpt lat="47.619225" lon="1.941083">
        <ele>171.0</ele>
        <time>2022-04-14T07:34:47Z</time>
      </trkpt>
      <trkpt lat="47.61923" lon="1.9410881">
        <ele>170.0</ele>
        <time>2022-04-14T07:34:48Z</time>
      </trkpt>
      <trkpt lat="47.619232" lon="1.9410977">
        <ele>170.0</ele>
        <time>2022-04-14T07:34:49Z</time>
      </trkpt>
      <trkpt lat="47.61924" lon="1.9411035">
        <ele>171.0</ele>
        <time>2022-04-14T07:34:50Z</time>
      </trkpt>
      <trkpt lat="47.61924" lon="1.9411035">
        <ele>171.0</ele>
        <time>2022-04-14T07:34:51Z</time>
      </trkpt>
      <trkpt lat="47.61924" lon="1.9411035">
        <ele>171.0</ele>
        <time>2022-04-14T07:34:52Z</time>
      </trkpt>
      <trkpt lat="47.61925" lon="1.9411063">
        <ele>172.0</ele>
        <time>2022-04-14T07:34:53Z</time>
      </trkpt>
      <trkpt lat="47.61926" lon="1.9411114">
        <ele>171.0</ele>
        <time>2022-04-14T07:34:54Z</time>
      </trkpt>
      <trkpt lat="47.619267" lon="1.9411203">
        <ele>172.0</ele>
        <time>2022-04-14T07:34:55Z</time>
      </trkpt>
      <trkpt lat="47.61927" lon="1.9411284">
        <ele>171.0</ele>
        <time>2022-04-14T07:34:56Z</time>
      </trkpt>
      <trkpt lat="47.619278" lon="1.941131">
        <ele>171.0</ele>
        <time>2022-04-14T07:34:57Z</time>
      </trkpt>
      <trkpt lat="47.619278" lon="1.941131">
        <ele>171.0</ele>
        <time>2022-04-14T07:34:58Z</time>
      </trkpt>
      <trkpt lat="47.619278" lon="1.941131">
        <ele>171.0</ele>
        <time>2022-04-14T07:34:59Z</time>
      </trkpt>
      <trkpt lat="47.619293" lon="1.9411228">
        <ele>171.0</ele>
        <time>2022-04-14T07:35:00Z</time>
      </trkpt>
      <trkpt lat="47.6193" lon="1.9411255">
        <ele>170.0</ele>
        <time>2022-04-14T07:35:01Z</time>
      </trkpt>
      <trkpt lat="47.619316" lon="1.9411237">
        <ele>169.0</ele>
        <time>2022-04-14T07:35:02Z</time>
      </trkpt>
      <trkpt lat="47.61932" lon="1.9411151">
        <ele>168.0</ele>
        <time>2022-04-14T07:35:03Z</time>
      </trkpt>
      <trkpt lat="47.61932" lon="1.9411151">
        <ele>168.0</ele>
        <time>2022-04-14T07:35:04Z</time>
      </trkpt>
      <trkpt lat="47.61932" lon="1.9411151">
        <ele>168.0</ele>
        <time>2022-04-14T07:35:05Z</time>
      </trkpt>
      <trkpt lat="47.619343" lon="1.9411061">
        <ele>168.0</ele>
        <time>2022-04-14T07:35:06Z</time>
      </trkpt>
      <trkpt lat="47.61935" lon="1.9411077">
        <ele>168.0</ele>
        <time>2022-04-14T07:35:07Z</time>
      </trkpt>
      <trkpt lat="47.61936" lon="1.9411077">
        <ele>167.0</ele>
        <time>2022-04-14T07:35:08Z</time>
      </trkpt>
      <trkpt lat="47.61937" lon="1.9411035">
        <ele>167.0</ele>
        <time>2022-04-14T07:35:09Z</time>
      </trkpt>
      <trkpt lat="47.619377" lon="1.9410901">
        <ele>167.0</ele>
        <time>2022-04-14T07:35:10Z</time>
      </trkpt>
      <trkpt lat="47.61939" lon="1.9410814">
        <ele>167.0</ele>
        <time>2022-04-14T07:35:11Z</time>
      </trkpt>
      <trkpt lat="47.619396" lon="1.9410803">
        <ele>166.0</ele>
        <time>2022-04-14T07:35:12Z</time>
      </trkpt>
      <trkpt lat="47.619404" lon="1.9410725">
        <ele>166.0</ele>
        <time>2022-04-14T07:35:13Z</time>
      </trkpt>
      <trkpt lat="47.619404" lon="1.9410725">
        <ele>166.0</ele>
        <time>2022-04-14T07:35:14Z</time>
      </trkpt>
      <trkpt lat="47.619404" lon="1.9410725">
        <ele>166.0</ele>
        <time>2022-04-14T07:35:15Z</time>
      </trkpt>
      <trkpt lat="47.61943" lon="1.9410586">
        <ele>165.0</ele>
        <time>2022-04-14T07:35:16Z</time>
      </trkpt>
      <trkpt lat="47.61944" lon="1.9410491">
        <ele>164.0</ele>
        <time>2022-04-14T07:35:17Z</time>
      </trkpt>
      <trkpt lat="47.61945" lon="1.9410472">
        <ele>164.0</ele>
        <time>2022-04-14T07:35:18Z</time>
      </trkpt>
      <trkpt lat="47.61946" lon="1.9410411">
        <ele>164.0</ele>
        <time>2022-04-14T07:35:19Z</time>
      </trkpt>
      <trkpt lat="47.61946" lon="1.9410411">
        <ele>164.0</ele>
        <time>2022-04-14T07:35:20Z</time>
      </trkpt>
      <trkpt lat="47.61946" lon="1.9410411">
        <ele>164.0</ele>
        <time>2022-04-14T07:35:21Z</time>
      </trkpt>
      <trkpt lat="47.619484" lon="1.9410324">
        <ele>164.0</ele>
        <time>2022-04-14T07:35:22Z</time>
      </trkpt>
      <trkpt lat="47.619495" lon="1.9410254">
        <ele>163.0</ele>
        <time>2022-04-14T07:35:23Z</time>
      </trkpt>
      <trkpt lat="47.619503" lon="1.9410247">
        <ele>163.0</ele>
        <time>2022-04-14T07:35:24Z</time>
      </trkpt>
      <trkpt lat="47.619514" lon="1.9410253">
        <ele>163.0</ele>
        <time>2022-04-14T07:35:25Z</time>
      </trkpt>
      <trkpt lat="47.619514" lon="1.9410253">
        <ele>163.0</ele>
        <time>2022-04-14T07:35:26Z</time>
      </trkpt>
      <trkpt lat="47.619514" lon="1.9410253">
        <ele>163.0</ele>
        <time>2022-04-14T07:35:27Z</time>
      </trkpt>
      <trkpt lat="47.61954" lon="1.9410253">
        <ele>163.0</ele>
        <time>2022-04-14T07:35:28Z</time>
      </trkpt>
      <trkpt lat="47.61955" lon="1.9410315">
        <ele>163.0</ele>
        <time>2022-04-14T07:35:29Z</time>
      </trkpt>
      <trkpt lat="47.619553" lon="1.9410318">
        <ele>163.0</ele>
        <time>2022-04-14T07:35:30Z</time>
      </trkpt>
      <trkpt lat="47.619564" lon="1.941036">
        <ele>162.0</ele>
        <time>2022-04-14T07:35:31Z</time>
      </trkpt>
      <trkpt lat="47.619564" lon="1.941036">
        <ele>162.0</ele>
        <time>2022-04-14T07:35:32Z</time>
      </trkpt>
      <trkpt lat="47.61958" lon="1.9410386">
        <ele>162.0</ele>
        <time>2022-04-14T07:35:33Z</time>
      </trkpt>
      <trkpt lat="47.619587" lon="1.9410313">
        <ele>161.0</ele>
        <time>2022-04-14T07:35:34Z</time>
      </trkpt>
      <trkpt lat="47.619595" lon="1.9410256">
        <ele>161.0</ele>
        <time>2022-04-14T07:35:35Z</time>
      </trkpt>
      <trkpt lat="47.619606" lon="1.941019">
        <ele>161.0</ele>
        <time>2022-04-14T07:35:36Z</time>
      </trkpt>
      <trkpt lat="47.619606" lon="1.941019">
        <ele>161.0</ele>
        <time>2022-04-14T07:35:37Z</time>
      </trkpt>
      <trkpt lat="47.619606" lon="1.941019">
        <ele>161.0</ele>
        <time>2022-04-14T07:35:38Z</time>
      </trkpt>
      <trkpt lat="47.619633" lon="1.9410069">
        <ele>161.0</ele>
        <time>2022-04-14T07:35:39Z</time>
      </trkpt>
      <trkpt lat="47.619648" lon="1.9410039">
        <ele>162.0</ele>
        <time>2022-04-14T07:35:40Z</time>
      </trkpt>
      <trkpt lat="47.619656" lon="1.9410055">
        <ele>161.0</ele>
        <time>2022-04-14T07:35:41Z</time>
      </trkpt>
      <trkpt lat="47.619667" lon="1.940999">
        <ele>161.0</ele>
        <time>2022-04-14T07:35:42Z</time>
      </trkpt>
      <trkpt lat="47.619667" lon="1.940999">
        <ele>161.0</ele>
        <time>2022-04-14T07:35:43Z</time>
      </trkpt>
      <trkpt lat="47.619667" lon="1.940999">
        <ele>161.0</ele>
        <time>2022-04-14T07:35:44Z</time>
      </trkpt>
      <trkpt lat="47.619694" lon="1.9409846">
        <ele>160.0</ele>
        <time>2022-04-14T07:35:45Z</time>
      </trkpt>
      <trkpt lat="47.61971" lon="1.940979">
        <ele>160.0</ele>
        <time>2022-04-14T07:35:46Z</time>
      </trkpt>
      <trkpt lat="47.619724" lon="1.9409748">
        <ele>159.0</ele>
        <time>2022-04-14T07:35:47Z</time>
      </trkpt>
      <trkpt lat="47.61974" lon="1.9409776">
        <ele>160.0</ele>
        <time>2022-04-14T07:35:48Z</time>
      </trkpt>
      <trkpt lat="47.61975" lon="1.9409809">
        <ele>160.0</ele>
        <time>2022-04-14T07:35:49Z</time>
      </trkpt>
      <trkpt lat="47.619766" lon="1.94098">
        <ele>161.0</ele>
        <time>2022-04-14T07:35:50Z</time>
      </trkpt>
      <trkpt lat="47.619766" lon="1.94098">
        <ele>161.0</ele>
        <time>2022-04-14T07:35:51Z</time>
      </trkpt>
      <trkpt lat="47.61979" lon="1.9409745">
        <ele>160.0</ele>
        <time>2022-04-14T07:35:52Z</time>
      </trkpt>
      <trkpt lat="47.619804" lon="1.9409716">
        <ele>160.0</ele>
        <time>2022-04-14T07:35:53Z</time>
      </trkpt>
      <trkpt lat="47.61982" lon="1.9409693">
        <ele>160.0</ele>
        <time>2022-04-14T07:35:54Z</time>
      </trkpt>
      <trkpt lat="47.61983" lon="1.9409671">
        <ele>160.0</ele>
        <time>2022-04-14T07:35:55Z</time>
      </trkpt>
      <trkpt lat="47.61983" lon="1.9409671">
        <ele>160.0</ele>
        <time>2022-04-14T07:35:56Z</time>
      </trkpt>
      <trkpt lat="47.61983" lon="1.9409671">
        <ele>160.0</ele>
        <time>2022-04-14T07:35:57Z</time>
      </trkpt>
      <trkpt lat="47.619854" lon="1.9409614">
        <ele>159.0</ele>
        <time>2022-04-14T07:35:58Z</time>
      </trkpt>
      <trkpt lat="47.619873" lon="1.94096">
        <ele>159.0</ele>
        <time>2022-04-14T07:35:59Z</time>
      </trkpt>
      <trkpt lat="47.61989" lon="1.94096">
        <ele>159.0</ele>
        <time>2022-04-14T07:36:00Z</time>
      </trkpt>
      <trkpt lat="47.6199" lon="1.9409528">
        <ele>159.0</ele>
        <time>2022-04-14T07:36:01Z</time>
      </trkpt>
      <trkpt lat="47.61991" lon="1.9409454">
        <ele>158.0</ele>
        <time>2022-04-14T07:36:02Z</time>
      </trkpt>
      <trkpt lat="47.619923" lon="1.9409451">
        <ele>158.0</ele>
        <time>2022-04-14T07:36:03Z</time>
      </trkpt>
      <trkpt lat="47.619934" lon="1.9409434">
        <ele>158.0</ele>
        <time>2022-04-14T07:36:04Z</time>
      </trkpt>
      <trkpt lat="47.61994" lon="1.9409395">
        <ele>158.0</ele>
        <time>2022-04-14T07:36:05Z</time>
      </trkpt>
      <trkpt lat="47.61994" lon="1.9409395">
        <ele>158.0</ele>
        <time>2022-04-14T07:36:06Z</time>
      </trkpt>
      <trkpt lat="47.61994" lon="1.9409395">
        <ele>158.0</ele>
        <time>2022-04-14T07:36:07Z</time>
      </trkpt>
      <trkpt lat="47.619972" lon="1.9409388">
        <ele>158.0</ele>
        <time>2022-04-14T07:36:08Z</time>
      </trkpt>
      <trkpt lat="47.619984" lon="1.940939">
        <ele>158.0</ele>
        <time>2022-04-14T07:36:09Z</time>
      </trkpt>
      <trkpt lat="47.619995" lon="1.9409363">
        <ele>158.0</ele>
        <time>2022-04-14T07:36:10Z</time>
      </trkpt>
      <trkpt lat="47.620007" lon="1.9409317">
        <ele>158.0</ele>
        <time>2022-04-14T07:36:11Z</time>
      </trkpt>
      <trkpt lat="47.620014" lon="1.9409271">
        <ele>158.0</ele>
        <time>2022-04-14T07:36:12Z</time>
      </trkpt>
      <trkpt lat="47.620026" lon="1.9409245">
        <ele>157.0</ele>
        <time>2022-04-14T07:36:13Z</time>
      </trkpt>
      <trkpt lat="47.620037" lon="1.9409225">
        <ele>157.0</ele>
        <time>2022-04-14T07:36:14Z</time>
      </trkpt>
      <trkpt lat="47.62005" lon="1.9409229">
        <ele>157.0</ele>
        <time>2022-04-14T07:36:15Z</time>
      </trkpt>
      <trkpt lat="47.620056" lon="1.9409294">
        <ele>156.0</ele>
        <time>2022-04-14T07:36:16Z</time>
      </trkpt>
      <trkpt lat="47.620056" lon="1.9409294">
        <ele>156.0</ele>
        <time>2022-04-14T07:36:17Z</time>
      </trkpt>
      <trkpt lat="47.620056" lon="1.9409294">
        <ele>156.0</ele>
        <time>2022-04-14T07:36:18Z</time>
      </trkpt>
      <trkpt lat="47.620083" lon="1.9409169">
        <ele>155.0</ele>
        <time>2022-04-14T07:36:19Z</time>
      </trkpt>
      <trkpt lat="47.62009" lon="1.9409139">
        <ele>155.0</ele>
        <time>2022-04-14T07:36:20Z</time>
      </trkpt>
      <trkpt lat="47.620094" lon="1.9409145">
        <ele>155.0</ele>
        <time>2022-04-14T07:36:21Z</time>
      </trkpt>
      <trkpt lat="47.620102" lon="1.940911">
        <ele>155.0</ele>
        <time>2022-04-14T07:36:22Z</time>
      </trkpt>
      <trkpt lat="47.620102" lon="1.940911">
        <ele>155.0</ele>
        <time>2022-04-14T07:36:23Z</time>
      </trkpt>
      <trkpt lat="47.620102" lon="1.940911">
        <ele>155.0</ele>
        <time>2022-04-14T07:36:24Z</time>
      </trkpt>
      <trkpt lat="47.62012" lon="1.9409056">
        <ele>156.0</ele>
        <time>2022-04-14T07:36:25Z</time>
      </trkpt>
      <trkpt lat="47.62013" lon="1.9409037">
        <ele>156.0</ele>
        <time>2022-04-14T07:36:26Z</time>
      </trkpt>
      <trkpt lat="47.620136" lon="1.9409016">
        <ele>156.0</ele>
        <time>2022-04-14T07:36:27Z</time>
      </trkpt>
      <trkpt lat="47.620144" lon="1.9409008">
        <ele>156.0</ele>
        <time>2022-04-14T07:36:28Z</time>
      </trkpt>
      <trkpt lat="47.620144" lon="1.9409008">
        <ele>156.0</ele>
        <time>2022-04-14T07:36:29Z</time>
      </trkpt>
      <trkpt lat="47.620144" lon="1.9409008">
        <ele>156.0</ele>
        <time>2022-04-14T07:36:30Z</time>
      </trkpt>
      <trkpt lat="47.620174" lon="1.9409004">
        <ele>156.0</ele>
        <time>2022-04-14T07:36:31Z</time>
      </trkpt>
      <trkpt lat="47.620186" lon="1.9409037">
        <ele>156.0</ele>
        <time>2022-04-14T07:36:32Z</time>
      </trkpt>
      <trkpt lat="47.6202" lon="1.9409019">
        <ele>157.0</ele>
        <time>2022-04-14T07:36:33Z</time>
      </trkpt>
      <trkpt lat="47.620216" lon="1.9408972">
        <ele>157.0</ele>
        <time>2022-04-14T07:36:34Z</time>
      </trkpt>
      <trkpt lat="47.620216" lon="1.9408972">
        <ele>157.0</ele>
        <time>2022-04-14T07:36:35Z</time>
      </trkpt>
      <trkpt lat="47.620216" lon="1.9408972">
        <ele>157.0</ele>
        <time>2022-04-14T07:36:36Z</time>
      </trkpt>
      <trkpt lat="47.62024" lon="1.9408932">
        <ele>157.0</ele>
        <time>2022-04-14T07:36:37Z</time>
      </trkpt>
      <trkpt lat="47.62025" lon="1.9408895">
        <ele>158.0</ele>
        <time>2022-04-14T07:36:38Z</time>
      </trkpt>
      <trkpt lat="47.62026" lon="1.9408832">
        <ele>158.0</ele>
        <time>2022-04-14T07:36:39Z</time>
      </trkpt>
      <trkpt lat="47.62027" lon="1.9408748">
        <ele>157.0</ele>
        <time>2022-04-14T07:36:40Z</time>
      </trkpt>
      <trkpt lat="47.620285" lon="1.9408668">
        <ele>158.0</ele>
        <time>2022-04-14T07:36:41Z</time>
      </trkpt>
      <trkpt lat="47.620296" lon="1.9408581">
        <ele>157.0</ele>
        <time>2022-04-14T07:36:42Z</time>
      </trkpt>
      <trkpt lat="47.620296" lon="1.9408581">
        <ele>157.0</ele>
        <time>2022-04-14T07:36:43Z</time>
      </trkpt>
      <trkpt lat="47.620296" lon="1.9408581">
        <ele>157.0</ele>
        <time>2022-04-14T07:36:44Z</time>
      </trkpt>
      <trkpt lat="47.62033" lon="1.9408486">
        <ele>157.0</ele>
        <time>2022-04-14T07:36:45Z</time>
      </trkpt>
      <trkpt lat="47.620342" lon="1.9408506">
        <ele>157.0</ele>
        <time>2022-04-14T07:36:46Z</time>
      </trkpt>
      <trkpt lat="47.620354" lon="1.940855">
        <ele>157.0</ele>
        <time>2022-04-14T07:36:47Z</time>
      </trkpt>
      <trkpt lat="47.62037" lon="1.9408568">
        <ele>156.0</ele>
        <time>2022-04-14T07:36:48Z</time>
      </trkpt>
      <trkpt lat="47.62037" lon="1.9408568">
        <ele>156.0</ele>
        <time>2022-04-14T07:36:49Z</time>
      </trkpt>
      <trkpt lat="47.62037" lon="1.9408568">
        <ele>156.0</ele>
        <time>2022-04-14T07:36:50Z</time>
      </trkpt>
      <trkpt lat="47.6204" lon="1.940859">
        <ele>156.0</ele>
        <time>2022-04-14T07:36:51Z</time>
      </trkpt>
      <trkpt lat="47.620407" lon="1.9408551">
        <ele>156.0</ele>
        <time>2022-04-14T07:36:52Z</time>
      </trkpt>
      <trkpt lat="47.620422" lon="1.9408513">
        <ele>156.0</ele>
        <time>2022-04-14T07:36:53Z</time>
      </trkpt>
      <trkpt lat="47.62043" lon="1.9408506">
        <ele>155.0</ele>
        <time>2022-04-14T07:36:54Z</time>
      </trkpt>
      <trkpt lat="47.62043" lon="1.9408506">
        <ele>155.0</ele>
        <time>2022-04-14T07:36:55Z</time>
      </trkpt>
      <trkpt lat="47.62043" lon="1.9408506">
        <ele>155.0</ele>
        <time>2022-04-14T07:36:56Z</time>
      </trkpt>
      <trkpt lat="47.620457" lon="1.9408553">
        <ele>156.0</ele>
        <time>2022-04-14T07:36:57Z</time>
      </trkpt>
      <trkpt lat="47.62047" lon="1.9408547">
        <ele>156.0</ele>
        <time>2022-04-14T07:36:58Z</time>
      </trkpt>
      <trkpt lat="47.620476" lon="1.9408494">
        <ele>157.0</ele>
        <time>2022-04-14T07:36:59Z</time>
      </trkpt>
      <trkpt lat="47.620483" lon="1.9408425">
        <ele>157.0</ele>
        <time>2022-04-14T07:37:00Z</time>
      </trkpt>
      <trkpt lat="47.62049" lon="1.940841">
        <ele>156.0</ele>
        <time>2022-04-14T07:37:01Z</time>
      </trkpt>
      <trkpt lat="47.620502" lon="1.9408401">
        <ele>156.0</ele>
        <time>2022-04-14T07:37:02Z</time>
      </trkpt>
      <trkpt lat="47.620502" lon="1.9408401">
        <ele>156.0</ele>
        <time>2022-04-14T07:37:03Z</time>
      </trkpt>
      <trkpt lat="47.620502" lon="1.9408401">
        <ele>156.0</ele>
        <time>2022-04-14T07:37:04Z</time>
      </trkpt>
      <trkpt lat="47.62053" lon="1.9408342">
        <ele>156.0</ele>
        <time>2022-04-14T07:37:05Z</time>
      </trkpt>
      <trkpt lat="47.62054" lon="1.9408374">
        <ele>156.0</ele>
        <time>2022-04-14T07:37:06Z</time>
      </trkpt>
      <trkpt lat="47.620552" lon="1.9408336">
        <ele>156.0</ele>
        <time>2022-04-14T07:37:07Z</time>
      </trkpt>
      <trkpt lat="47.620564" lon="1.9408301">
        <ele>156.0</ele>
        <time>2022-04-14T07:37:08Z</time>
      </trkpt>
      <trkpt lat="47.620564" lon="1.9408301">
        <ele>156.0</ele>
        <time>2022-04-14T07:37:09Z</time>
      </trkpt>
      <trkpt lat="47.620564" lon="1.9408301">
        <ele>156.0</ele>
        <time>2022-04-14T07:37:10Z</time>
      </trkpt>
      <trkpt lat="47.62059" lon="1.9408158">
        <ele>156.0</ele>
        <time>2022-04-14T07:37:11Z</time>
      </trkpt>
      <trkpt lat="47.6206" lon="1.9408172">
        <ele>156.0</ele>
        <time>2022-04-14T07:37:12Z</time>
      </trkpt>
      <trkpt lat="47.620613" lon="1.9408108">
        <ele>155.0</ele>
        <time>2022-04-14T07:37:13Z</time>
      </trkpt>
      <trkpt lat="47.620625" lon="1.9408028">
        <ele>155.0</ele>
        <time>2022-04-14T07:37:14Z</time>
      </trkpt>
      <trkpt lat="47.620625" lon="1.9408028">
        <ele>155.0</ele>
        <time>2022-04-14T07:37:15Z</time>
      </trkpt>
      <trkpt lat="47.620625" lon="1.9408028">
        <ele>155.0</ele>
        <time>2022-04-14T07:37:16Z</time>
      </trkpt>
      <trkpt lat="47.620655" lon="1.9407976">
        <ele>154.0</ele>
        <time>2022-04-14T07:37:17Z</time>
      </trkpt>
      <trkpt lat="47.620663" lon="1.9407921">
        <ele>155.0</ele>
        <time>2022-04-14T07:37:18Z</time>
      </trkpt>
      <trkpt lat="47.620674" lon="1.9407895">
        <ele>155.0</ele>
        <time>2022-04-14T07:37:19Z</time>
      </trkpt>
      <trkpt lat="47.620686" lon="1.940785">
        <ele>155.0</ele>
        <time>2022-04-14T07:37:20Z</time>
      </trkpt>
      <trkpt lat="47.620697" lon="1.940781">
        <ele>155.0</ele>
        <time>2022-04-14T07:37:21Z</time>
      </trkpt>
      <trkpt lat="47.620697" lon="1.940781">
        <ele>155.0</ele>
        <time>2022-04-14T07:37:22Z</time>
      </trkpt>
      <trkpt lat="47.62072" lon="1.9407763">
        <ele>156.0</ele>
        <time>2022-04-14T07:37:23Z</time>
      </trkpt>
      <trkpt lat="47.620735" lon="1.9407692">
        <ele>156.0</ele>
        <time>2022-04-14T07:37:24Z</time>
      </trkpt>
      <trkpt lat="47.620743" lon="1.9407667">
        <ele>156.0</ele>
        <time>2022-04-14T07:37:25Z</time>
      </trkpt>
      <trkpt lat="47.62075" lon="1.9407659">
        <ele>156.0</ele>
        <time>2022-04-14T07:37:26Z</time>
      </trkpt>
      <trkpt lat="47.620754" lon="1.9407665">
        <ele>156.0</ele>
        <time>2022-04-14T07:37:27Z</time>
      </trkpt>
      <trkpt lat="47.620754" lon="1.9407665">
        <ele>156.0</ele>
        <time>2022-04-14T07:37:28Z</time>
      </trkpt>
      <trkpt lat="47.620754" lon="1.9407665">
        <ele>156.0</ele>
        <time>2022-04-14T07:37:29Z</time>
      </trkpt>
      <trkpt lat="47.620777" lon="1.940773">
        <ele>157.0</ele>
        <time>2022-04-14T07:37:30Z</time>
      </trkpt>
      <trkpt lat="47.620785" lon="1.9407718">
        <ele>157.0</ele>
        <time>2022-04-14T07:37:31Z</time>
      </trkpt>
      <trkpt lat="47.620796" lon="1.9407727">
        <ele>157.0</ele>
        <time>2022-04-14T07:37:32Z</time>
      </trkpt>
      <trkpt lat="47.620808" lon="1.9407682">
        <ele>157.0</ele>
        <time>2022-04-14T07:37:33Z</time>
      </trkpt>
      <trkpt lat="47.620808" lon="1.9407682">
        <ele>157.0</ele>
        <time>2022-04-14T07:37:34Z</time>
      </trkpt>
      <trkpt lat="47.620808" lon="1.9407682">
        <ele>157.0</ele>
        <time>2022-04-14T07:37:35Z</time>
      </trkpt>
      <trkpt lat="47.62084" lon="1.9407676">
        <ele>158.0</ele>
        <time>2022-04-14T07:37:36Z</time>
      </trkpt>
      <trkpt lat="47.62085" lon="1.9407678">
        <ele>158.0</ele>
        <time>2022-04-14T07:37:37Z</time>
      </trkpt>
      <trkpt lat="47.62086" lon="1.9407665">
        <ele>158.0</ele>
        <time>2022-04-14T07:37:38Z</time>
      </trkpt>
      <trkpt lat="47.620872" lon="1.9407616">
        <ele>158.0</ele>
        <time>2022-04-14T07:37:39Z</time>
      </trkpt>
      <trkpt lat="47.620888" lon="1.9407567">
        <ele>158.0</ele>
        <time>2022-04-14T07:37:40Z</time>
      </trkpt>
      <trkpt lat="47.620903" lon="1.9407547">
        <ele>159.0</ele>
        <time>2022-04-14T07:37:41Z</time>
      </trkpt>
      <trkpt lat="47.620922" lon="1.9407504">
        <ele>159.0</ele>
        <time>2022-04-14T07:37:42Z</time>
      </trkpt>
      <trkpt lat="47.620934" lon="1.9407538">
        <ele>159.0</ele>
        <time>2022-04-14T07:37:43Z</time>
      </trkpt>
      <trkpt lat="47.62095" lon="1.94075">
        <ele>159.0</ele>
        <time>2022-04-14T07:37:44Z</time>
      </trkpt>
      <trkpt lat="47.620968" lon="1.9407498">
        <ele>159.0</ele>
        <time>2022-04-14T07:37:45Z</time>
      </trkpt>
      <trkpt lat="47.62098" lon="1.9407465">
        <ele>159.0</ele>
        <time>2022-04-14T07:37:46Z</time>
      </trkpt>
      <trkpt lat="47.620987" lon="1.9407473">
        <ele>159.0</ele>
        <time>2022-04-14T07:37:47Z</time>
      </trkpt>
      <trkpt lat="47.621002" lon="1.9407519">
        <ele>159.0</ele>
        <time>2022-04-14T07:37:48Z</time>
      </trkpt>
      <trkpt lat="47.621014" lon="1.9407523">
        <ele>158.0</ele>
        <time>2022-04-14T07:37:49Z</time>
      </trkpt>
      <trkpt lat="47.621025" lon="1.9407563">
        <ele>158.0</ele>
        <time>2022-04-14T07:37:50Z</time>
      </trkpt>
      <trkpt lat="47.62104" lon="1.9407567">
        <ele>158.0</ele>
        <time>2022-04-14T07:37:51Z</time>
      </trkpt>
      <trkpt lat="47.62104" lon="1.9407567">
        <ele>158.0</ele>
        <time>2022-04-14T07:37:52Z</time>
      </trkpt>
      <trkpt lat="47.62104" lon="1.9407567">
        <ele>158.0</ele>
        <time>2022-04-14T07:37:53Z</time>
      </trkpt>
      <trkpt lat="47.62107" lon="1.9407543">
        <ele>157.0</ele>
        <time>2022-04-14T07:37:54Z</time>
      </trkpt>
      <trkpt lat="47.621086" lon="1.9407552">
        <ele>157.0</ele>
        <time>2022-04-14T07:37:55Z</time>
      </trkpt>
      <trkpt lat="47.6211" lon="1.9407539">
        <ele>157.0</ele>
        <time>2022-04-14T07:37:56Z</time>
      </trkpt>
      <trkpt lat="47.621113" lon="1.940757">
        <ele>157.0</ele>
        <time>2022-04-14T07:37:57Z</time>
      </trkpt>
      <trkpt lat="47.621113" lon="1.940757">
        <ele>157.0</ele>
        <time>2022-04-14T07:37:58Z</time>
      </trkpt>
      <trkpt lat="47.621113" lon="1.940757">
        <ele>157.0</ele>
        <time>2022-04-14T07:37:59Z</time>
      </trkpt>
      <trkpt lat="47.621143" lon="1.9407543">
        <ele>157.0</ele>
        <time>2022-04-14T07:38:00Z</time>
      </trkpt>
      <trkpt lat="47.621155" lon="1.9407508">
        <ele>157.0</ele>
        <time>2022-04-14T07:38:01Z</time>
      </trkpt>
      <trkpt lat="47.621166" lon="1.9407512">
        <ele>157.0</ele>
        <time>2022-04-14T07:38:02Z</time>
      </trkpt>
      <trkpt lat="47.62118" lon="1.9407523">
        <ele>157.0</ele>
        <time>2022-04-14T07:38:03Z</time>
      </trkpt>
      <trkpt lat="47.62118" lon="1.9407523">
        <ele>157.0</ele>
        <time>2022-04-14T07:38:04Z</time>
      </trkpt>
      <trkpt lat="47.62118" lon="1.9407523">
        <ele>157.0</ele>
        <time>2022-04-14T07:38:05Z</time>
      </trkpt>
      <trkpt lat="47.621204" lon="1.9407476">
        <ele>157.0</ele>
        <time>2022-04-14T07:38:06Z</time>
      </trkpt>
      <trkpt lat="47.621212" lon="1.9407463">
        <ele>157.0</ele>
        <time>2022-04-14T07:38:07Z</time>
      </trkpt>
      <trkpt lat="47.621227" lon="1.9407443">
        <ele>157.0</ele>
        <time>2022-04-14T07:38:08Z</time>
      </trkpt>
      <trkpt lat="47.621235" lon="1.9407418">
        <ele>158.0</ele>
        <time>2022-04-14T07:38:09Z</time>
      </trkpt>
      <trkpt lat="47.621246" lon="1.9407377">
        <ele>158.0</ele>
        <time>2022-04-14T07:38:10Z</time>
      </trkpt>
      <trkpt lat="47.62126" lon="1.9407316">
        <ele>158.0</ele>
        <time>2022-04-14T07:38:11Z</time>
      </trkpt>
      <trkpt lat="47.62127" lon="1.940731">
        <ele>158.0</ele>
        <time>2022-04-14T07:38:12Z</time>
      </trkpt>
      <trkpt lat="47.621284" lon="1.9407237">
        <ele>157.0</ele>
        <time>2022-04-14T07:38:13Z</time>
      </trkpt>
      <trkpt lat="47.621284" lon="1.9407237">
        <ele>157.0</ele>
        <time>2022-04-14T07:38:14Z</time>
      </trkpt>
      <trkpt lat="47.621284" lon="1.9407237">
        <ele>157.0</ele>
        <time>2022-04-14T07:38:15Z</time>
      </trkpt>
      <trkpt lat="47.62132" lon="1.9407068">
        <ele>157.0</ele>
        <time>2022-04-14T07:38:16Z</time>
      </trkpt>
      <trkpt lat="47.621334" lon="1.9407043">
        <ele>156.0</ele>
        <time>2022-04-14T07:38:17Z</time>
      </trkpt>
      <trkpt lat="47.621346" lon="1.940704">
        <ele>156.0</ele>
        <time>2022-04-14T07:38:18Z</time>
      </trkpt>
      <trkpt lat="47.621365" lon="1.9407014">
        <ele>157.0</ele>
        <time>2022-04-14T07:38:19Z</time>
      </trkpt>
      <trkpt lat="47.62138" lon="1.940694">
        <ele>157.0</ele>
        <time>2022-04-14T07:38:20Z</time>
      </trkpt>
      <trkpt lat="47.62139" lon="1.9406866">
        <ele>156.0</ele>
        <time>2022-04-14T07:38:21Z</time>
      </trkpt>
      <trkpt lat="47.6214" lon="1.9406846">
        <ele>156.0</ele>
        <time>2022-04-14T07:38:22Z</time>
      </trkpt>
      <trkpt lat="47.6214" lon="1.9406846">
        <ele>156.0</ele>
        <time>2022-04-14T07:38:23Z</time>
      </trkpt>
      <trkpt lat="47.6214" lon="1.9406846">
        <ele>156.0</ele>
        <time>2022-04-14T07:38:24Z</time>
      </trkpt>
      <trkpt lat="47.621418" lon="1.9406798">
        <ele>156.0</ele>
        <time>2022-04-14T07:38:25Z</time>
      </trkpt>
      <trkpt lat="47.62143" lon="1.9406745">
        <ele>156.0</ele>
        <time>2022-04-14T07:38:26Z</time>
      </trkpt>
      <trkpt lat="47.621445" lon="1.9406741">
        <ele>156.0</ele>
        <time>2022-04-14T07:38:27Z</time>
      </trkpt>
      <trkpt lat="47.62146" lon="1.940669">
        <ele>155.0</ele>
        <time>2022-04-14T07:38:28Z</time>
      </trkpt>
      <trkpt lat="47.621475" lon="1.9406648">
        <ele>155.0</ele>
        <time>2022-04-14T07:38:29Z</time>
      </trkpt>
      <trkpt lat="47.6215" lon="1.9406532">
        <ele>155.0</ele>
        <time>2022-04-14T07:38:30Z</time>
      </trkpt>
      <trkpt lat="47.621517" lon="1.9406422">
        <ele>154.0</ele>
        <time>2022-04-14T07:38:31Z</time>
      </trkpt>
      <trkpt lat="47.621532" lon="1.9406357">
        <ele>154.0</ele>
        <time>2022-04-14T07:38:32Z</time>
      </trkpt>
      <trkpt lat="47.621548" lon="1.9406344">
        <ele>154.0</ele>
        <time>2022-04-14T07:38:33Z</time>
      </trkpt>
      <trkpt lat="47.621548" lon="1.9406344">
        <ele>154.0</ele>
        <time>2022-04-14T07:38:34Z</time>
      </trkpt>
      <trkpt lat="47.621548" lon="1.9406344">
        <ele>154.0</ele>
        <time>2022-04-14T07:38:35Z</time>
      </trkpt>
      <trkpt lat="47.62158" lon="1.9406368">
        <ele>152.0</ele>
        <time>2022-04-14T07:38:36Z</time>
      </trkpt>
      <trkpt lat="47.621586" lon="1.9406337">
        <ele>152.0</ele>
        <time>2022-04-14T07:38:37Z</time>
      </trkpt>
      <trkpt lat="47.6216" lon="1.9406351">
        <ele>153.0</ele>
        <time>2022-04-14T07:38:38Z</time>
      </trkpt>
      <trkpt lat="47.621616" lon="1.9406312">
        <ele>152.0</ele>
        <time>2022-04-14T07:38:39Z</time>
      </trkpt>
      <trkpt lat="47.621628" lon="1.9406317">
        <ele>152.0</ele>
        <time>2022-04-14T07:38:40Z</time>
      </trkpt>
      <trkpt lat="47.621635" lon="1.9406284">
        <ele>152.0</ele>
        <time>2022-04-14T07:38:41Z</time>
      </trkpt>
      <trkpt lat="47.621635" lon="1.9406284">
        <ele>152.0</ele>
        <time>2022-04-14T07:38:42Z</time>
      </trkpt>
      <trkpt lat="47.621635" lon="1.9406284">
        <ele>152.0</ele>
        <time>2022-04-14T07:38:43Z</time>
      </trkpt>
      <trkpt lat="47.621662" lon="1.9406192">
        <ele>152.0</ele>
        <time>2022-04-14T07:38:44Z</time>
      </trkpt>
      <trkpt lat="47.621674" lon="1.9406104">
        <ele>152.0</ele>
        <time>2022-04-14T07:38:45Z</time>
      </trkpt>
      <trkpt lat="47.621685" lon="1.940599">
        <ele>152.0</ele>
        <time>2022-04-14T07:38:46Z</time>
      </trkpt>
      <trkpt lat="47.621704" lon="1.9405925">
        <ele>152.0</ele>
        <time>2022-04-14T07:38:47Z</time>
      </trkpt>
      <trkpt lat="47.62171" lon="1.9405894">
        <ele>152.0</ele>
        <time>2022-04-14T07:38:48Z</time>
      </trkpt>
      <trkpt lat="47.621723" lon="1.9405884">
        <ele>152.0</ele>
        <time>2022-04-14T07:38:49Z</time>
      </trkpt>
      <trkpt lat="47.62173" lon="1.9405851">
        <ele>152.0</ele>
        <time>2022-04-14T07:38:50Z</time>
      </trkpt>
      <trkpt lat="47.621742" lon="1.9405807">
        <ele>151.0</ele>
        <time>2022-04-14T07:38:51Z</time>
      </trkpt>
      <trkpt lat="47.621754" lon="1.9405757">
        <ele>151.0</ele>
        <time>2022-04-14T07:38:52Z</time>
      </trkpt>
      <trkpt lat="47.62176" lon="1.9405719">
        <ele>152.0</ele>
        <time>2022-04-14T07:38:53Z</time>
      </trkpt>
      <trkpt lat="47.621777" lon="1.9405675">
        <ele>151.0</ele>
        <time>2022-04-14T07:38:54Z</time>
      </trkpt>
      <trkpt lat="47.621777" lon="1.9405675">
        <ele>151.0</ele>
        <time>2022-04-14T07:38:55Z</time>
      </trkpt>
      <trkpt lat="47.621777" lon="1.9405675">
        <ele>151.0</ele>
        <time>2022-04-14T07:38:56Z</time>
      </trkpt>
      <trkpt lat="47.62181" lon="1.9405496">
        <ele>151.0</ele>
        <time>2022-04-14T07:38:57Z</time>
      </trkpt>
      <trkpt lat="47.621822" lon="1.9405419">
        <ele>150.0</ele>
        <time>2022-04-14T07:38:58Z</time>
      </trkpt>
      <trkpt lat="47.621834" lon="1.940536">
        <ele>150.0</ele>
        <time>2022-04-14T07:38:59Z</time>
      </trkpt>
      <trkpt lat="47.621853" lon="1.9405315">
        <ele>150.0</ele>
        <time>2022-04-14T07:39:00Z</time>
      </trkpt>
      <trkpt lat="47.621853" lon="1.9405315">
        <ele>150.0</ele>
        <time>2022-04-14T07:39:01Z</time>
      </trkpt>
      <trkpt lat="47.621853" lon="1.9405315">
        <ele>150.0</ele>
        <time>2022-04-14T07:39:02Z</time>
      </trkpt>
      <trkpt lat="47.62188" lon="1.9405217">
        <ele>150.0</ele>
        <time>2022-04-14T07:39:03Z</time>
      </trkpt>
      <trkpt lat="47.62189" lon="1.9405216">
        <ele>150.0</ele>
        <time>2022-04-14T07:39:04Z</time>
      </trkpt>
      <trkpt lat="47.6219" lon="1.9405181">
        <ele>150.0</ele>
        <time>2022-04-14T07:39:05Z</time>
      </trkpt>
      <trkpt lat="47.62191" lon="1.9405121">
        <ele>150.0</ele>
        <time>2022-04-14T07:39:06Z</time>
      </trkpt>
      <trkpt lat="47.621925" lon="1.9405013">
        <ele>150.0</ele>
        <time>2022-04-14T07:39:07Z</time>
      </trkpt>
      <trkpt lat="47.62194" lon="1.9404877">
        <ele>150.0</ele>
        <time>2022-04-14T07:39:08Z</time>
      </trkpt>
      <trkpt lat="47.621956" lon="1.9404738">
        <ele>151.0</ele>
        <time>2022-04-14T07:39:09Z</time>
      </trkpt>
      <trkpt lat="47.62197" lon="1.9404615">
        <ele>151.0</ele>
        <time>2022-04-14T07:39:10Z</time>
      </trkpt>
      <trkpt lat="47.621986" lon="1.9404504">
        <ele>152.0</ele>
        <time>2022-04-14T07:39:11Z</time>
      </trkpt>
      <trkpt lat="47.621998" lon="1.9404382">
        <ele>152.0</ele>
        <time>2022-04-14T07:39:12Z</time>
      </trkpt>
      <trkpt lat="47.622013" lon="1.9404272">
        <ele>153.0</ele>
        <time>2022-04-14T07:39:13Z</time>
      </trkpt>
      <trkpt lat="47.62203" lon="1.9404151">
        <ele>153.0</ele>
        <time>2022-04-14T07:39:14Z</time>
      </trkpt>
      <trkpt lat="47.62204" lon="1.9404044">
        <ele>154.0</ele>
        <time>2022-04-14T07:39:15Z</time>
      </trkpt>
      <trkpt lat="47.62205" lon="1.9403987">
        <ele>154.0</ele>
        <time>2022-04-14T07:39:16Z</time>
      </trkpt>
      <trkpt lat="47.62205" lon="1.9403987">
        <ele>154.0</ele>
        <time>2022-04-14T07:39:17Z</time>
      </trkpt>
      <trkpt lat="47.62205" lon="1.9403987">
        <ele>154.0</ele>
        <time>2022-04-14T07:39:18Z</time>
      </trkpt>
      <trkpt lat="47.622063" lon="1.9403734">
        <ele>155.0</ele>
        <time>2022-04-14T07:39:19Z</time>
      </trkpt>
      <trkpt lat="47.622066" lon="1.9403623">
        <ele>155.0</ele>
        <time>2022-04-14T07:39:20Z</time>
      </trkpt>
      <trkpt lat="47.622066" lon="1.9403472">
        <ele>156.0</ele>
        <time>2022-04-14T07:39:21Z</time>
      </trkpt>
      <trkpt lat="47.62207" lon="1.9403378">
        <ele>157.0</ele>
        <time>2022-04-14T07:39:22Z</time>
      </trkpt>
      <trkpt lat="47.62207" lon="1.9403378">
        <ele>157.0</ele>
        <time>2022-04-14T07:39:23Z</time>
      </trkpt>
      <trkpt lat="47.62207" lon="1.9403378">
        <ele>157.0</ele>
        <time>2022-04-14T07:39:24Z</time>
      </trkpt>
      <trkpt lat="47.622078" lon="1.9403033">
        <ele>157.0</ele>
        <time>2022-04-14T07:39:25Z</time>
      </trkpt>
      <trkpt lat="47.62208" lon="1.9402848">
        <ele>157.0</ele>
        <time>2022-04-14T07:39:26Z</time>
      </trkpt>
      <trkpt lat="47.62208" lon="1.9402673">
        <ele>158.0</ele>
        <time>2022-04-14T07:39:27Z</time>
      </trkpt>
      <trkpt lat="47.622086" lon="1.9402533">
        <ele>158.0</ele>
        <time>2022-04-14T07:39:28Z</time>
      </trkpt>
      <trkpt lat="47.622086" lon="1.9402533">
        <ele>158.0</ele>
        <time>2022-04-14T07:39:29Z</time>
      </trkpt>
      <trkpt lat="47.622086" lon="1.9402533">
        <ele>158.0</ele>
        <time>2022-04-14T07:39:30Z</time>
      </trkpt>
      <trkpt lat="47.622086" lon="1.9402099">
        <ele>160.0</ele>
        <time>2022-04-14T07:39:31Z</time>
      </trkpt>
      <trkpt lat="47.622086" lon="1.9401933">
        <ele>160.0</ele>
        <time>2022-04-14T07:39:32Z</time>
      </trkpt>
      <trkpt lat="47.62208" lon="1.9401815">
        <ele>160.0</ele>
        <time>2022-04-14T07:39:33Z</time>
      </trkpt>
      <trkpt lat="47.62208" lon="1.9401704">
        <ele>160.0</ele>
        <time>2022-04-14T07:39:34Z</time>
      </trkpt>
      <trkpt lat="47.622074" lon="1.9401546">
        <ele>160.0</ele>
        <time>2022-04-14T07:39:35Z</time>
      </trkpt>
      <trkpt lat="47.622074" lon="1.9401546">
        <ele>160.0</ele>
        <time>2022-04-14T07:39:36Z</time>
      </trkpt>
      <trkpt lat="47.622074" lon="1.9401546">
        <ele>160.0</ele>
        <time>2022-04-14T07:39:37Z</time>
      </trkpt>
      <trkpt lat="47.622074" lon="1.9401188">
        <ele>161.0</ele>
        <time>2022-04-14T07:39:38Z</time>
      </trkpt>
      <trkpt lat="47.622074" lon="1.9401044">
        <ele>161.0</ele>
        <time>2022-04-14T07:39:39Z</time>
      </trkpt>
      <trkpt lat="47.62207" lon="1.9400891">
        <ele>161.0</ele>
        <time>2022-04-14T07:39:40Z</time>
      </trkpt>
      <trkpt lat="47.622066" lon="1.9400737">
        <ele>161.0</ele>
        <time>2022-04-14T07:39:41Z</time>
      </trkpt>
      <trkpt lat="47.622063" lon="1.9400654">
        <ele>161.0</ele>
        <time>2022-04-14T07:39:42Z</time>
      </trkpt>
      <trkpt lat="47.622063" lon="1.9400654">
        <ele>161.0</ele>
        <time>2022-04-14T07:39:43Z</time>
      </trkpt>
      <trkpt lat="47.622063" lon="1.9400654">
        <ele>161.0</ele>
        <time>2022-04-14T07:39:44Z</time>
      </trkpt>
      <trkpt lat="47.62206" lon="1.9400363">
        <ele>161.0</ele>
        <time>2022-04-14T07:39:45Z</time>
      </trkpt>
      <trkpt lat="47.622055" lon="1.9400167">
        <ele>161.0</ele>
        <time>2022-04-14T07:39:46Z</time>
      </trkpt>
      <trkpt lat="47.622055" lon="1.9399989">
        <ele>161.0</ele>
        <time>2022-04-14T07:39:47Z</time>
      </trkpt>
      <trkpt lat="47.622055" lon="1.9399784">
        <ele>162.0</ele>
        <time>2022-04-14T07:39:48Z</time>
      </trkpt>
      <trkpt lat="47.622055" lon="1.93996">
        <ele>162.0</ele>
        <time>2022-04-14T07:39:49Z</time>
      </trkpt>
      <trkpt lat="47.622055" lon="1.93996">
        <ele>162.0</ele>
        <time>2022-04-14T07:39:50Z</time>
      </trkpt>
      <trkpt lat="47.622055" lon="1.93996">
        <ele>162.0</ele>
        <time>2022-04-14T07:39:51Z</time>
      </trkpt>
      <trkpt lat="47.622044" lon="1.9399223">
        <ele>162.0</ele>
        <time>2022-04-14T07:39:52Z</time>
      </trkpt>
      <trkpt lat="47.62204" lon="1.9399093">
        <ele>162.0</ele>
        <time>2022-04-14T07:39:53Z</time>
      </trkpt>
      <trkpt lat="47.62204" lon="1.939893">
        <ele>162.0</ele>
        <time>2022-04-14T07:39:54Z</time>
      </trkpt>
      <trkpt lat="47.622032" lon="1.9398799">
        <ele>162.0</ele>
        <time>2022-04-14T07:39:55Z</time>
      </trkpt>
      <trkpt lat="47.622032" lon="1.9398799">
        <ele>162.0</ele>
        <time>2022-04-14T07:39:56Z</time>
      </trkpt>
      <trkpt lat="47.622032" lon="1.9398799">
        <ele>162.0</ele>
        <time>2022-04-14T07:39:57Z</time>
      </trkpt>
      <trkpt lat="47.622025" lon="1.9398433">
        <ele>161.0</ele>
        <time>2022-04-14T07:39:58Z</time>
      </trkpt>
      <trkpt lat="47.62202" lon="1.9398355">
        <ele>161.0</ele>
        <time>2022-04-14T07:39:59Z</time>
      </trkpt>
      <trkpt lat="47.622013" lon="1.9398214">
        <ele>161.0</ele>
        <time>2022-04-14T07:40:00Z</time>
      </trkpt>
      <trkpt lat="47.62201" lon="1.9398068">
        <ele>161.0</ele>
        <time>2022-04-14T07:40:01Z</time>
      </trkpt>
      <trkpt lat="47.62201" lon="1.939792">
        <ele>161.0</ele>
        <time>2022-04-14T07:40:02Z</time>
      </trkpt>
      <trkpt lat="47.622005" lon="1.9397764">
        <ele>161.0</ele>
        <time>2022-04-14T07:40:03Z</time>
      </trkpt>
      <trkpt lat="47.622005" lon="1.9397588">
        <ele>161.0</ele>
        <time>2022-04-14T07:40:04Z</time>
      </trkpt>
      <trkpt lat="47.622005" lon="1.9397339">
        <ele>161.0</ele>
        <time>2022-04-14T07:40:05Z</time>
      </trkpt>
      <trkpt lat="47.622005" lon="1.9397131">
        <ele>161.0</ele>
        <time>2022-04-14T07:40:06Z</time>
      </trkpt>
      <trkpt lat="47.622" lon="1.9396945">
        <ele>161.0</ele>
        <time>2022-04-14T07:40:07Z</time>
      </trkpt>
      <trkpt lat="47.622005" lon="1.9396794">
        <ele>161.0</ele>
        <time>2022-04-14T07:40:08Z</time>
      </trkpt>
      <trkpt lat="47.622005" lon="1.9396794">
        <ele>161.0</ele>
        <time>2022-04-14T07:40:09Z</time>
      </trkpt>
      <trkpt lat="47.622005" lon="1.9396794">
        <ele>161.0</ele>
        <time>2022-04-14T07:40:10Z</time>
      </trkpt>
      <trkpt lat="47.622005" lon="1.9396379">
        <ele>162.0</ele>
        <time>2022-04-14T07:40:11Z</time>
      </trkpt>
      <trkpt lat="47.622005" lon="1.9396235">
        <ele>163.0</ele>
        <time>2022-04-14T07:40:12Z</time>
      </trkpt>
      <trkpt lat="47.62201" lon="1.9396042">
        <ele>163.0</ele>
        <time>2022-04-14T07:40:13Z</time>
      </trkpt>
      <trkpt lat="47.622013" lon="1.939595">
        <ele>163.0</ele>
        <time>2022-04-14T07:40:14Z</time>
      </trkpt>
      <trkpt lat="47.622013" lon="1.939595">
        <ele>163.0</ele>
        <time>2022-04-14T07:40:15Z</time>
      </trkpt>
      <trkpt lat="47.622025" lon="1.9395713">
        <ele>164.0</ele>
        <time>2022-04-14T07:40:16Z</time>
      </trkpt>
      <trkpt lat="47.622036" lon="1.9395553">
        <ele>164.0</ele>
        <time>2022-04-14T07:40:17Z</time>
      </trkpt>
      <trkpt lat="47.622047" lon="1.9395399">
        <ele>164.0</ele>
        <time>2022-04-14T07:40:18Z</time>
      </trkpt>
      <trkpt lat="47.622055" lon="1.9395247">
        <ele>165.0</ele>
        <time>2022-04-14T07:40:19Z</time>
      </trkpt>
      <trkpt lat="47.622063" lon="1.9395121">
        <ele>165.0</ele>
        <time>2022-04-14T07:40:20Z</time>
      </trkpt>
      <trkpt lat="47.622066" lon="1.9395025">
        <ele>166.0</ele>
        <time>2022-04-14T07:40:21Z</time>
      </trkpt>
      <trkpt lat="47.62207" lon="1.9394947">
        <ele>166.0</ele>
        <time>2022-04-14T07:40:22Z</time>
      </trkpt>
      <trkpt lat="47.62207" lon="1.9394947">
        <ele>166.0</ele>
        <time>2022-04-14T07:40:23Z</time>
      </trkpt>
      <trkpt lat="47.62207" lon="1.9394947">
        <ele>166.0</ele>
        <time>2022-04-14T07:40:24Z</time>
      </trkpt>
      <trkpt lat="47.622078" lon="1.939469">
        <ele>166.0</ele>
        <time>2022-04-14T07:40:25Z</time>
      </trkpt>
      <trkpt lat="47.62208" lon="1.9394592">
        <ele>167.0</ele>
        <time>2022-04-14T07:40:26Z</time>
      </trkpt>
      <trkpt lat="47.62209" lon="1.9394468">
        <ele>167.0</ele>
        <time>2022-04-14T07:40:27Z</time>
      </trkpt>
      <trkpt lat="47.622097" lon="1.9394335">
        <ele>167.0</ele>
        <time>2022-04-14T07:40:28Z</time>
      </trkpt>
      <trkpt lat="47.622097" lon="1.9394335">
        <ele>167.0</ele>
        <time>2022-04-14T07:40:29Z</time>
      </trkpt>
      <trkpt lat="47.622097" lon="1.9394335">
        <ele>167.0</ele>
        <time>2022-04-14T07:40:30Z</time>
      </trkpt>
      <trkpt lat="47.62212" lon="1.9394163">
        <ele>167.0</ele>
        <time>2022-04-14T07:40:31Z</time>
      </trkpt>
      <trkpt lat="47.622124" lon="1.9394058">
        <ele>166.0</ele>
        <time>2022-04-14T07:40:32Z</time>
      </trkpt>
      <trkpt lat="47.62213" lon="1.939398">
        <ele>165.0</ele>
        <time>2022-04-14T07:40:33Z</time>
      </trkpt>
      <trkpt lat="47.62214" lon="1.9393954">
        <ele>165.0</ele>
        <time>2022-04-14T07:40:34Z</time>
      </trkpt>
      <trkpt lat="47.62214" lon="1.9393954">
        <ele>165.0</ele>
        <time>2022-04-14T07:40:35Z</time>
      </trkpt>
      <trkpt lat="47.62214" lon="1.9393954">
        <ele>165.0</ele>
        <time>2022-04-14T07:40:36Z</time>
      </trkpt>
      <trkpt lat="47.62216" lon="1.9393963">
        <ele>165.0</ele>
        <time>2022-04-14T07:40:37Z</time>
      </trkpt>
      <trkpt lat="47.62217" lon="1.9393991">
        <ele>165.0</ele>
        <time>2022-04-14T07:40:38Z</time>
      </trkpt>
      <trkpt lat="47.622177" lon="1.9393983">
        <ele>164.0</ele>
        <time>2022-04-14T07:40:39Z</time>
      </trkpt>
      <trkpt lat="47.62218" lon="1.9394">
        <ele>164.0</ele>
        <time>2022-04-14T07:40:40Z</time>
      </trkpt>
      <trkpt lat="47.62218" lon="1.9394">
        <ele>164.0</ele>
        <time>2022-04-14T07:40:41Z</time>
      </trkpt>
      <trkpt lat="47.62218" lon="1.9394">
        <ele>164.0</ele>
        <time>2022-04-14T07:40:42Z</time>
      </trkpt>
      <trkpt lat="47.6222" lon="1.9393833">
        <ele>163.0</ele>
        <time>2022-04-14T07:40:43Z</time>
      </trkpt>
      <trkpt lat="47.622208" lon="1.9393734">
        <ele>163.0</ele>
        <time>2022-04-14T07:40:44Z</time>
      </trkpt>
      <trkpt lat="47.62222" lon="1.9393677">
        <ele>162.0</ele>
        <time>2022-04-14T07:40:45Z</time>
      </trkpt>
      <trkpt lat="47.62223" lon="1.9393644">
        <ele>162.0</ele>
        <time>2022-04-14T07:40:46Z</time>
      </trkpt>
      <trkpt lat="47.62223" lon="1.9393644">
        <ele>162.0</ele>
        <time>2022-04-14T07:40:47Z</time>
      </trkpt>
      <trkpt lat="47.62223" lon="1.9393644">
        <ele>162.0</ele>
        <time>2022-04-14T07:40:48Z</time>
      </trkpt>
      <trkpt lat="47.622253" lon="1.9393615">
        <ele>162.0</ele>
        <time>2022-04-14T07:40:49Z</time>
      </trkpt>
      <trkpt lat="47.622265" lon="1.939361">
        <ele>162.0</ele>
        <time>2022-04-14T07:40:50Z</time>
      </trkpt>
      <trkpt lat="47.622272" lon="1.9393556">
        <ele>162.0</ele>
        <time>2022-04-14T07:40:51Z</time>
      </trkpt>
      <trkpt lat="47.622284" lon="1.9393529">
        <ele>162.0</ele>
        <time>2022-04-14T07:40:52Z</time>
      </trkpt>
      <trkpt lat="47.622295" lon="1.9393493">
        <ele>162.0</ele>
        <time>2022-04-14T07:40:53Z</time>
      </trkpt>
      <trkpt lat="47.622303" lon="1.939349">
        <ele>162.0</ele>
        <time>2022-04-14T07:40:54Z</time>
      </trkpt>
      <trkpt lat="47.62231" lon="1.9393437">
        <ele>162.0</ele>
        <time>2022-04-14T07:40:55Z</time>
      </trkpt>
      <trkpt lat="47.622322" lon="1.939339">
        <ele>161.0</ele>
        <time>2022-04-14T07:40:56Z</time>
      </trkpt>
      <trkpt lat="47.622337" lon="1.9393343">
        <ele>161.0</ele>
        <time>2022-04-14T07:40:57Z</time>
      </trkpt>
      <trkpt lat="47.62235" lon="1.9393281">
        <ele>161.0</ele>
        <time>2022-04-14T07:40:58Z</time>
      </trkpt>
      <trkpt lat="47.62236" lon="1.9393264">
        <ele>160.0</ele>
        <time>2022-04-14T07:40:59Z</time>
      </trkpt>
      <trkpt lat="47.622375" lon="1.9393197">
        <ele>160.0</ele>
        <time>2022-04-14T07:41:00Z</time>
      </trkpt>
      <trkpt lat="47.622375" lon="1.9393197">
        <ele>160.0</ele>
        <time>2022-04-14T07:41:01Z</time>
      </trkpt>
      <trkpt lat="47.6224" lon="1.9393073">
        <ele>159.0</ele>
        <time>2022-04-14T07:41:02Z</time>
      </trkpt>
      <trkpt lat="47.622417" lon="1.9393035">
        <ele>159.0</ele>
        <time>2022-04-14T07:41:03Z</time>
      </trkpt>
      <trkpt lat="47.622425" lon="1.9393039">
        <ele>159.0</ele>
        <time>2022-04-14T07:41:04Z</time>
      </trkpt>
      <trkpt lat="47.622433" lon="1.9392952">
        <ele>159.0</ele>
        <time>2022-04-14T07:41:05Z</time>
      </trkpt>
      <trkpt lat="47.622433" lon="1.9392952">
        <ele>159.0</ele>
        <time>2022-04-14T07:41:06Z</time>
      </trkpt>
      <trkpt lat="47.622433" lon="1.9392952">
        <ele>159.0</ele>
        <time>2022-04-14T07:41:07Z</time>
      </trkpt>
      <trkpt lat="47.622448" lon="1.9392816">
        <ele>158.0</ele>
        <time>2022-04-14T07:41:08Z</time>
      </trkpt>
      <trkpt lat="47.62245" lon="1.9392778">
        <ele>158.0</ele>
        <time>2022-04-14T07:41:09Z</time>
      </trkpt>
      <trkpt lat="47.622456" lon="1.9392805">
        <ele>157.0</ele>
        <time>2022-04-14T07:41:10Z</time>
      </trkpt>
      <trkpt lat="47.622463" lon="1.9392811">
        <ele>157.0</ele>
        <time>2022-04-14T07:41:11Z</time>
      </trkpt>
      <trkpt lat="47.622463" lon="1.9392811">
        <ele>157.0</ele>
        <time>2022-04-14T07:41:12Z</time>
      </trkpt>
      <trkpt lat="47.622463" lon="1.9392811">
        <ele>157.0</ele>
        <time>2022-04-14T07:41:13Z</time>
      </trkpt>
      <trkpt lat="47.622486" lon="1.9392833">
        <ele>157.0</ele>
        <time>2022-04-14T07:41:14Z</time>
      </trkpt>
      <trkpt lat="47.6225" lon="1.9392865">
        <ele>156.0</ele>
        <time>2022-04-14T07:41:15Z</time>
      </trkpt>
      <trkpt lat="47.622505" lon="1.9392881">
        <ele>156.0</ele>
        <time>2022-04-14T07:41:16Z</time>
      </trkpt>
      <trkpt lat="47.622505" lon="1.9392892">
        <ele>155.0</ele>
        <time>2022-04-14T07:41:17Z</time>
      </trkpt>
      <trkpt lat="47.622513" lon="1.9392905">
        <ele>155.0</ele>
        <time>2022-04-14T07:41:18Z</time>
      </trkpt>
      <trkpt lat="47.622513" lon="1.9392905">
        <ele>155.0</ele>
        <time>2022-04-14T07:41:19Z</time>
      </trkpt>
      <trkpt lat="47.622513" lon="1.9392905">
        <ele>155.0</ele>
        <time>2022-04-14T07:41:20Z</time>
      </trkpt>
      <trkpt lat="47.622536" lon="1.9392817">
        <ele>155.0</ele>
        <time>2022-04-14T07:41:21Z</time>
      </trkpt>
      <trkpt lat="47.622547" lon="1.9392853">
        <ele>154.0</ele>
        <time>2022-04-14T07:41:22Z</time>
      </trkpt>
      <trkpt lat="47.622555" lon="1.9392827">
        <ele>154.0</ele>
        <time>2022-04-14T07:41:23Z</time>
      </trkpt>
      <trkpt lat="47.622562" lon="1.9392754">
        <ele>155.0</ele>
        <time>2022-04-14T07:41:24Z</time>
      </trkpt>
      <trkpt lat="47.622562" lon="1.9392754">
        <ele>155.0</ele>
        <time>2022-04-14T07:41:25Z</time>
      </trkpt>
      <trkpt lat="47.622562" lon="1.9392754">
        <ele>155.0</ele>
        <time>2022-04-14T07:41:26Z</time>
      </trkpt>
      <trkpt lat="47.62258" lon="1.9392707">
        <ele>154.0</ele>
        <time>2022-04-14T07:41:27Z</time>
      </trkpt>
      <trkpt lat="47.622585" lon="1.9392732">
        <ele>154.0</ele>
        <time>2022-04-14T07:41:28Z</time>
      </trkpt>
      <trkpt lat="47.622593" lon="1.9392784">
        <ele>154.0</ele>
        <time>2022-04-14T07:41:29Z</time>
      </trkpt>
      <trkpt lat="47.6226" lon="1.9392818">
        <ele>153.0</ele>
        <time>2022-04-14T07:41:30Z</time>
      </trkpt>
      <trkpt lat="47.6226" lon="1.9392818">
        <ele>153.0</ele>
        <time>2022-04-14T07:41:31Z</time>
      </trkpt>
      <trkpt lat="47.6226" lon="1.9392818">
        <ele>153.0</ele>
        <time>2022-04-14T07:41:32Z</time>
      </trkpt>
      <trkpt lat="47.622627" lon="1.9392852">
        <ele>152.0</ele>
        <time>2022-04-14T07:41:33Z</time>
      </trkpt>
      <trkpt lat="47.62264" lon="1.9392788">
        <ele>152.0</ele>
        <time>2022-04-14T07:41:34Z</time>
      </trkpt>
      <trkpt lat="47.622646" lon="1.9392715">
        <ele>152.0</ele>
        <time>2022-04-14T07:41:35Z</time>
      </trkpt>
      <trkpt lat="47.622658" lon="1.9392647">
        <ele>151.0</ele>
        <time>2022-04-14T07:41:36Z</time>
      </trkpt>
      <trkpt lat="47.622658" lon="1.9392647">
        <ele>151.0</ele>
        <time>2022-04-14T07:41:37Z</time>
      </trkpt>
      <trkpt lat="47.622658" lon="1.9392647">
        <ele>151.0</ele>
        <time>2022-04-14T07:41:38Z</time>
      </trkpt>
      <trkpt lat="47.62269" lon="1.9392486">
        <ele>151.0</ele>
        <time>2022-04-14T07:41:39Z</time>
      </trkpt>
      <trkpt lat="47.622704" lon="1.9392449">
        <ele>151.0</ele>
        <time>2022-04-14T07:41:40Z</time>
      </trkpt>
      <trkpt lat="47.62271" lon="1.9392437">
        <ele>150.0</ele>
        <time>2022-04-14T07:41:41Z</time>
      </trkpt>
      <trkpt lat="47.622723" lon="1.9392374">
        <ele>150.0</ele>
        <time>2022-04-14T07:41:42Z</time>
      </trkpt>
      <trkpt lat="47.622723" lon="1.9392374">
        <ele>150.0</ele>
        <time>2022-04-14T07:41:43Z</time>
      </trkpt>
      <trkpt lat="47.622723" lon="1.9392374">
        <ele>150.0</ele>
        <time>2022-04-14T07:41:44Z</time>
      </trkpt>
      <trkpt lat="47.622757" lon="1.9392309">
        <ele>150.0</ele>
        <time>2022-04-14T07:41:45Z</time>
      </trkpt>
      <trkpt lat="47.62277" lon="1.9392262">
        <ele>150.0</ele>
        <time>2022-04-14T07:41:46Z</time>
      </trkpt>
      <trkpt lat="47.62278" lon="1.9392178">
        <ele>150.0</ele>
        <time>2022-04-14T07:41:47Z</time>
      </trkpt>
      <trkpt lat="47.62279" lon="1.9392172">
        <ele>149.0</ele>
        <time>2022-04-14T07:41:48Z</time>
      </trkpt>
      <trkpt lat="47.62279" lon="1.9392172">
        <ele>149.0</ele>
        <time>2022-04-14T07:41:49Z</time>
      </trkpt>
      <trkpt lat="47.62279" lon="1.9392172">
        <ele>149.0</ele>
        <time>2022-04-14T07:41:50Z</time>
      </trkpt>
      <trkpt lat="47.622818" lon="1.9392003">
        <ele>148.0</ele>
        <time>2022-04-14T07:41:51Z</time>
      </trkpt>
      <trkpt lat="47.622826" lon="1.9391953">
        <ele>148.0</ele>
        <time>2022-04-14T07:41:52Z</time>
      </trkpt>
      <trkpt lat="47.622837" lon="1.9391875">
        <ele>147.0</ele>
        <time>2022-04-14T07:41:53Z</time>
      </trkpt>
      <trkpt lat="47.62285" lon="1.9391786">
        <ele>147.0</ele>
        <time>2022-04-14T07:41:54Z</time>
      </trkpt>
      <trkpt lat="47.62285" lon="1.9391786">
        <ele>147.0</ele>
        <time>2022-04-14T07:41:55Z</time>
      </trkpt>
      <trkpt lat="47.62285" lon="1.9391786">
        <ele>147.0</ele>
        <time>2022-04-14T07:41:56Z</time>
      </trkpt>
      <trkpt lat="47.622875" lon="1.939173">
        <ele>146.0</ele>
        <time>2022-04-14T07:41:57Z</time>
      </trkpt>
      <trkpt lat="47.622887" lon="1.939173">
        <ele>145.0</ele>
        <time>2022-04-14T07:41:58Z</time>
      </trkpt>
      <trkpt lat="47.6229" lon="1.9391754">
        <ele>144.0</ele>
        <time>2022-04-14T07:41:59Z</time>
      </trkpt>
      <trkpt lat="47.62291" lon="1.9391776">
        <ele>143.0</ele>
        <time>2022-04-14T07:42:00Z</time>
      </trkpt>
      <trkpt lat="47.62291" lon="1.9391776">
        <ele>143.0</ele>
        <time>2022-04-14T07:42:01Z</time>
      </trkpt>
      <trkpt lat="47.62291" lon="1.9391776">
        <ele>143.0</ele>
        <time>2022-04-14T07:42:02Z</time>
      </trkpt>
      <trkpt lat="47.622936" lon="1.9391791">
        <ele>143.0</ele>
        <time>2022-04-14T07:42:03Z</time>
      </trkpt>
      <trkpt lat="47.622948" lon="1.9391768">
        <ele>143.0</ele>
        <time>2022-04-14T07:42:04Z</time>
      </trkpt>
      <trkpt lat="47.622963" lon="1.939176">
        <ele>143.0</ele>
        <time>2022-04-14T07:42:05Z</time>
      </trkpt>
      <trkpt lat="47.62298" lon="1.9391736">
        <ele>143.0</ele>
        <time>2022-04-14T07:42:06Z</time>
      </trkpt>
      <trkpt lat="47.62299" lon="1.9391687">
        <ele>143.0</ele>
        <time>2022-04-14T07:42:07Z</time>
      </trkpt>
      <trkpt lat="47.623005" lon="1.9391611">
        <ele>143.0</ele>
        <time>2022-04-14T07:42:08Z</time>
      </trkpt>
      <trkpt lat="47.623024" lon="1.9391559">
        <ele>143.0</ele>
        <time>2022-04-14T07:42:09Z</time>
      </trkpt>
      <trkpt lat="47.623035" lon="1.9391495">
        <ele>143.0</ele>
        <time>2022-04-14T07:42:10Z</time>
      </trkpt>
      <trkpt lat="47.62305" lon="1.9391432">
        <ele>143.0</ele>
        <time>2022-04-14T07:42:11Z</time>
      </trkpt>
      <trkpt lat="47.623066" lon="1.9391338">
        <ele>143.0</ele>
        <time>2022-04-14T07:42:12Z</time>
      </trkpt>
      <trkpt lat="47.62308" lon="1.9391296">
        <ele>142.0</ele>
        <time>2022-04-14T07:42:13Z</time>
      </trkpt>
      <trkpt lat="47.623096" lon="1.9391232">
        <ele>142.0</ele>
        <time>2022-04-14T07:42:14Z</time>
      </trkpt>
      <trkpt lat="47.623096" lon="1.9391232">
        <ele>142.0</ele>
        <time>2022-04-14T07:42:15Z</time>
      </trkpt>
      <trkpt lat="47.623096" lon="1.9391232">
        <ele>142.0</ele>
        <time>2022-04-14T07:42:16Z</time>
      </trkpt>
      <trkpt lat="47.62313" lon="1.9391285">
        <ele>142.0</ele>
        <time>2022-04-14T07:42:17Z</time>
      </trkpt>
      <trkpt lat="47.623146" lon="1.9391322">
        <ele>143.0</ele>
        <time>2022-04-14T07:42:18Z</time>
      </trkpt>
      <trkpt lat="47.623154" lon="1.9391322">
        <ele>143.0</ele>
        <time>2022-04-14T07:42:19Z</time>
      </trkpt>
      <trkpt lat="47.623165" lon="1.939131">
        <ele>144.0</ele>
        <time>2022-04-14T07:42:20Z</time>
      </trkpt>
      <trkpt lat="47.623165" lon="1.939131">
        <ele>144.0</ele>
        <time>2022-04-14T07:42:21Z</time>
      </trkpt>
      <trkpt lat="47.623165" lon="1.939131">
        <ele>144.0</ele>
        <time>2022-04-14T07:42:22Z</time>
      </trkpt>
      <trkpt lat="47.623196" lon="1.9391382">
        <ele>143.0</ele>
        <time>2022-04-14T07:42:23Z</time>
      </trkpt>
      <trkpt lat="47.623207" lon="1.9391384">
        <ele>142.0</ele>
        <time>2022-04-14T07:42:24Z</time>
      </trkpt>
      <trkpt lat="47.62322" lon="1.9391384">
        <ele>143.0</ele>
        <time>2022-04-14T07:42:25Z</time>
      </trkpt>
      <trkpt lat="47.62323" lon="1.9391394">
        <ele>143.0</ele>
        <time>2022-04-14T07:42:26Z</time>
      </trkpt>
      <trkpt lat="47.62323" lon="1.9391394">
        <ele>143.0</ele>
        <time>2022-04-14T07:42:27Z</time>
      </trkpt>
      <trkpt lat="47.62323" lon="1.9391394">
        <ele>143.0</ele>
        <time>2022-04-14T07:42:28Z</time>
      </trkpt>
      <trkpt lat="47.623257" lon="1.9391335">
        <ele>144.0</ele>
        <time>2022-04-14T07:42:29Z</time>
      </trkpt>
      <trkpt lat="47.62327" lon="1.9391345">
        <ele>143.0</ele>
        <time>2022-04-14T07:42:30Z</time>
      </trkpt>
      <trkpt lat="47.623276" lon="1.9391333">
        <ele>144.0</ele>
        <time>2022-04-14T07:42:31Z</time>
      </trkpt>
      <trkpt lat="47.623287" lon="1.9391334">
        <ele>144.0</ele>
        <time>2022-04-14T07:42:32Z</time>
      </trkpt>
      <trkpt lat="47.623287" lon="1.9391334">
        <ele>144.0</ele>
        <time>2022-04-14T07:42:33Z</time>
      </trkpt>
      <trkpt lat="47.623287" lon="1.9391334">
        <ele>144.0</ele>
        <time>2022-04-14T07:42:34Z</time>
      </trkpt>
      <trkpt lat="47.623302" lon="1.939131">
        <ele>146.0</ele>
        <time>2022-04-14T07:42:35Z</time>
      </trkpt>
      <trkpt lat="47.623302" lon="1.939131">
        <ele>146.0</ele>
        <time>2022-04-14T07:42:35Z</time>
      </trkpt>
      <trkpt lat="47.623302" lon="1.939131">
        <ele>146.0</ele>
        <time>2022-04-14T07:42:35Z</time>
      </trkpt>
      <trkpt lat="47.623444" lon="1.9389967">
        <ele>152.0</ele>
        <time>2022-04-14T07:43:05Z</time>
      </trkpt>
      <trkpt lat="47.623444" lon="1.9389967">
        <ele>152.0</ele>
        <time>2022-04-14T07:43:06Z</time>
      </trkpt>
      <trkpt lat="47.623444" lon="1.9389967">
        <ele>152.0</ele>
        <time>2022-04-14T07:43:07Z</time>
      </trkpt>
      <trkpt lat="47.62345" lon="1.9389751">
        <ele>153.0</ele>
        <time>2022-04-14T07:43:08Z</time>
      </trkpt>
      <trkpt lat="47.623455" lon="1.9389657">
        <ele>153.0</ele>
        <time>2022-04-14T07:43:09Z</time>
      </trkpt>
      <trkpt lat="47.62346" lon="1.9389548">
        <ele>154.0</ele>
        <time>2022-04-14T07:43:10Z</time>
      </trkpt>
      <trkpt lat="47.623463" lon="1.9389435">
        <ele>155.0</ele>
        <time>2022-04-14T07:43:11Z</time>
      </trkpt>
      <trkpt lat="47.623463" lon="1.9389435">
        <ele>155.0</ele>
        <time>2022-04-14T07:43:12Z</time>
      </trkpt>
      <trkpt lat="47.623463" lon="1.9389435">
        <ele>155.0</ele>
        <time>2022-04-14T07:43:13Z</time>
      </trkpt>
      <trkpt lat="47.623466" lon="1.9389179">
        <ele>156.0</ele>
        <time>2022-04-14T07:43:14Z</time>
      </trkpt>
      <trkpt lat="47.623474" lon="1.938905">
        <ele>158.0</ele>
        <time>2022-04-14T07:43:15Z</time>
      </trkpt>
      <trkpt lat="47.623474" lon="1.9388924">
        <ele>159.0</ele>
        <time>2022-04-14T07:43:16Z</time>
      </trkpt>
      <trkpt lat="47.623474" lon="1.9388891">
        <ele>160.0</ele>
        <time>2022-04-14T07:43:17Z</time>
      </trkpt>
      <trkpt lat="47.623474" lon="1.9388891">
        <ele>160.0</ele>
        <time>2022-04-14T07:43:18Z</time>
      </trkpt>
      <trkpt lat="47.623474" lon="1.9388891">
        <ele>160.0</ele>
        <time>2022-04-14T07:43:19Z</time>
      </trkpt>
      <trkpt lat="47.623474" lon="1.9388891">
        <ele>160.0</ele>
        <time>2022-04-14T07:43:19Z</time>
      </trkpt>
      <trkpt lat="47.623474" lon="1.9388891">
        <ele>160.0</ele>
        <time>2022-04-14T07:43:19Z</time>
      </trkpt>
      <trkpt lat="47.623493" lon="1.9388224">
        <ele>166.0</ele>
        <time>2022-04-14T07:43:29Z</time>
      </trkpt>
      <trkpt lat="47.62349" lon="1.9388107">
        <ele>167.0</ele>
        <time>2022-04-14T07:43:30Z</time>
      </trkpt>
      <trkpt lat="47.623486" lon="1.9388025">
        <ele>167.0</ele>
        <time>2022-04-14T07:43:31Z</time>
      </trkpt>
      <trkpt lat="47.62348" lon="1.9387909">
        <ele>168.0</ele>
        <time>2022-04-14T07:43:32Z</time>
      </trkpt>
      <trkpt lat="47.62348" lon="1.9387909">
        <ele>168.0</ele>
        <time>2022-04-14T07:43:33Z</time>
      </trkpt>
      <trkpt lat="47.62348" lon="1.9387909">
        <ele>168.0</ele>
        <time>2022-04-14T07:43:34Z</time>
      </trkpt>
      <trkpt lat="47.623474" lon="1.9387529">
        <ele>170.0</ele>
        <time>2022-04-14T07:43:35Z</time>
      </trkpt>
      <trkpt lat="47.62347" lon="1.9387441">
        <ele>171.0</ele>
        <time>2022-04-14T07:43:36Z</time>
      </trkpt>
      <trkpt lat="47.623463" lon="1.9387324">
        <ele>171.0</ele>
        <time>2022-04-14T07:43:37Z</time>
      </trkpt>
      <trkpt lat="47.62346" lon="1.9387168">
        <ele>172.0</ele>
        <time>2022-04-14T07:43:38Z</time>
      </trkpt>
      <trkpt lat="47.623455" lon="1.9387008">
        <ele>172.0</ele>
        <time>2022-04-14T07:43:39Z</time>
      </trkpt>
      <trkpt lat="47.62345" lon="1.9386879">
        <ele>172.0</ele>
        <time>2022-04-14T07:43:40Z</time>
      </trkpt>
      <trkpt lat="47.62345" lon="1.9386737">
        <ele>173.0</ele>
        <time>2022-04-14T07:43:41Z</time>
      </trkpt>
      <trkpt lat="47.623447" lon="1.9386592">
        <ele>173.0</ele>
        <time>2022-04-14T07:43:42Z</time>
      </trkpt>
      <trkpt lat="47.623447" lon="1.9386497">
        <ele>173.0</ele>
        <time>2022-04-14T07:43:43Z</time>
      </trkpt>
      <trkpt lat="47.623444" lon="1.9386345">
        <ele>174.0</ele>
        <time>2022-04-14T07:43:44Z</time>
      </trkpt>
      <trkpt lat="47.623444" lon="1.9386212">
        <ele>174.0</ele>
        <time>2022-04-14T07:43:45Z</time>
      </trkpt>
      <trkpt lat="47.62344" lon="1.9386084">
        <ele>174.0</ele>
        <time>2022-04-14T07:43:46Z</time>
      </trkpt>
      <trkpt lat="47.623444" lon="1.9386059">
        <ele>175.0</ele>
        <time>2022-04-14T07:43:47Z</time>
      </trkpt>
      <trkpt lat="47.62344" lon="1.9385984">
        <ele>176.0</ele>
        <time>2022-04-14T07:43:48Z</time>
      </trkpt>
      <trkpt lat="47.623447" lon="1.9385877">
        <ele>176.0</ele>
        <time>2022-04-14T07:43:49Z</time>
      </trkpt>
      <trkpt lat="47.623447" lon="1.9385713">
        <ele>177.0</ele>
        <time>2022-04-14T07:43:50Z</time>
      </trkpt>
      <trkpt lat="47.623444" lon="1.9385573">
        <ele>177.0</ele>
        <time>2022-04-14T07:43:51Z</time>
      </trkpt>
      <trkpt lat="47.62344" lon="1.9385403">
        <ele>177.0</ele>
        <time>2022-04-14T07:43:52Z</time>
      </trkpt>
      <trkpt lat="47.62344" lon="1.9385294">
        <ele>177.0</ele>
        <time>2022-04-14T07:43:53Z</time>
      </trkpt>
      <trkpt lat="47.623436" lon="1.9385169">
        <ele>177.0</ele>
        <time>2022-04-14T07:43:54Z</time>
      </trkpt>
      <trkpt lat="47.623436" lon="1.9385169">
        <ele>177.0</ele>
        <time>2022-04-14T07:43:55Z</time>
      </trkpt>
      <trkpt lat="47.623436" lon="1.9385169">
        <ele>177.0</ele>
        <time>2022-04-14T07:43:56Z</time>
      </trkpt>
      <trkpt lat="47.623425" lon="1.9384837">
        <ele>177.0</ele>
        <time>2022-04-14T07:43:57Z</time>
      </trkpt>
      <trkpt lat="47.623417" lon="1.9384742">
        <ele>176.0</ele>
        <time>2022-04-14T07:43:58Z</time>
      </trkpt>
      <trkpt lat="47.623413" lon="1.9384611">
        <ele>176.0</ele>
        <time>2022-04-14T07:43:59Z</time>
      </trkpt>
      <trkpt lat="47.62341" lon="1.9384499">
        <ele>175.0</ele>
        <time>2022-04-14T07:44:00Z</time>
      </trkpt>
      <trkpt lat="47.62341" lon="1.9384499">
        <ele>175.0</ele>
        <time>2022-04-14T07:44:01Z</time>
      </trkpt>
      <trkpt lat="47.62341" lon="1.9384499">
        <ele>175.0</ele>
        <time>2022-04-14T07:44:02Z</time>
      </trkpt>
      <trkpt lat="47.623394" lon="1.9384218">
        <ele>175.0</ele>
        <time>2022-04-14T07:44:03Z</time>
      </trkpt>
      <trkpt lat="47.62339" lon="1.9384098">
        <ele>175.0</ele>
        <time>2022-04-14T07:44:04Z</time>
      </trkpt>
      <trkpt lat="47.623386" lon="1.9383938">
        <ele>175.0</ele>
        <time>2022-04-14T07:44:05Z</time>
      </trkpt>
      <trkpt lat="47.623383" lon="1.9383804">
        <ele>175.0</ele>
        <time>2022-04-14T07:44:06Z</time>
      </trkpt>
      <trkpt lat="47.623383" lon="1.9383804">
        <ele>175.0</ele>
        <time>2022-04-14T07:44:07Z</time>
      </trkpt>
      <trkpt lat="47.623383" lon="1.9383804">
        <ele>175.0</ele>
        <time>2022-04-14T07:44:08Z</time>
      </trkpt>
      <trkpt lat="47.623367" lon="1.9383477">
        <ele>175.0</ele>
        <time>2022-04-14T07:44:09Z</time>
      </trkpt>
      <trkpt lat="47.62336" lon="1.9383364">
        <ele>176.0</ele>
        <time>2022-04-14T07:44:10Z</time>
      </trkpt>
      <trkpt lat="47.623356" lon="1.9383318">
        <ele>176.0</ele>
        <time>2022-04-14T07:44:11Z</time>
      </trkpt>
      <trkpt lat="47.623352" lon="1.93832">
        <ele>175.0</ele>
        <time>2022-04-14T07:44:12Z</time>
      </trkpt>
      <trkpt lat="47.62335" lon="1.9383061">
        <ele>175.0</ele>
        <time>2022-04-14T07:44:13Z</time>
      </trkpt>
      <trkpt lat="47.62335" lon="1.9383061">
        <ele>175.0</ele>
        <time>2022-04-14T07:44:14Z</time>
      </trkpt>
      <trkpt lat="47.62333" lon="1.9382834">
        <ele>176.0</ele>
        <time>2022-04-14T07:44:15Z</time>
      </trkpt>
      <trkpt lat="47.62332" lon="1.9382706">
        <ele>176.0</ele>
        <time>2022-04-14T07:44:16Z</time>
      </trkpt>
      <trkpt lat="47.623314" lon="1.938254">
        <ele>176.0</ele>
        <time>2022-04-14T07:44:17Z</time>
      </trkpt>
      <trkpt lat="47.62331" lon="1.938239">
        <ele>176.0</ele>
        <time>2022-04-14T07:44:18Z</time>
      </trkpt>
      <trkpt lat="47.623302" lon="1.9382206">
        <ele>176.0</ele>
        <time>2022-04-14T07:44:19Z</time>
      </trkpt>
      <trkpt lat="47.623295" lon="1.9382048">
        <ele>176.0</ele>
        <time>2022-04-14T07:44:20Z</time>
      </trkpt>
      <trkpt lat="47.623283" lon="1.9381878">
        <ele>175.0</ele>
        <time>2022-04-14T07:44:21Z</time>
      </trkpt>
      <trkpt lat="47.623276" lon="1.9381672">
        <ele>175.0</ele>
        <time>2022-04-14T07:44:22Z</time>
      </trkpt>
      <trkpt lat="47.623272" lon="1.9381509">
        <ele>175.0</ele>
        <time>2022-04-14T07:44:23Z</time>
      </trkpt>
      <trkpt lat="47.623272" lon="1.9381377">
        <ele>174.0</ele>
        <time>2022-04-14T07:44:24Z</time>
      </trkpt>
      <trkpt lat="47.623264" lon="1.9381241">
        <ele>174.0</ele>
        <time>2022-04-14T07:44:25Z</time>
      </trkpt>
      <trkpt lat="47.623264" lon="1.9381082">
        <ele>173.0</ele>
        <time>2022-04-14T07:44:26Z</time>
      </trkpt>
      <trkpt lat="47.623264" lon="1.9381082">
        <ele>173.0</ele>
        <time>2022-04-14T07:44:27Z</time>
      </trkpt>
      <trkpt lat="47.623264" lon="1.9381082">
        <ele>173.0</ele>
        <time>2022-04-14T07:44:28Z</time>
      </trkpt>
      <trkpt lat="47.623253" lon="1.9380742">
        <ele>174.0</ele>
        <time>2022-04-14T07:44:29Z</time>
      </trkpt>
      <trkpt lat="47.623253" lon="1.9380658">
        <ele>173.0</ele>
        <time>2022-04-14T07:44:30Z</time>
      </trkpt>
      <trkpt lat="47.623245" lon="1.9380538">
        <ele>174.0</ele>
        <time>2022-04-14T07:44:31Z</time>
      </trkpt>
      <trkpt lat="47.62324" lon="1.9380417">
        <ele>173.0</ele>
        <time>2022-04-14T07:44:32Z</time>
      </trkpt>
      <trkpt lat="47.623234" lon="1.9380265">
        <ele>173.0</ele>
        <time>2022-04-14T07:44:33Z</time>
      </trkpt>
      <trkpt lat="47.62323" lon="1.9380128">
        <ele>173.0</ele>
        <time>2022-04-14T07:44:34Z</time>
      </trkpt>
      <trkpt lat="47.623226" lon="1.9379997">
        <ele>174.0</ele>
        <time>2022-04-14T07:44:35Z</time>
      </trkpt>
      <trkpt lat="47.623222" lon="1.9379919">
        <ele>173.0</ele>
        <time>2022-04-14T07:44:36Z</time>
      </trkpt>
      <trkpt lat="47.62322" lon="1.9379811">
        <ele>173.0</ele>
        <time>2022-04-14T07:44:37Z</time>
      </trkpt>
      <trkpt lat="47.623215" lon="1.9379685">
        <ele>174.0</ele>
        <time>2022-04-14T07:44:38Z</time>
      </trkpt>
      <trkpt lat="47.623215" lon="1.9379685">
        <ele>174.0</ele>
        <time>2022-04-14T07:44:39Z</time>
      </trkpt>
      <trkpt lat="47.623215" lon="1.9379685">
        <ele>174.0</ele>
        <time>2022-04-14T07:44:40Z</time>
      </trkpt>
      <trkpt lat="47.6232" lon="1.9379292">
        <ele>174.0</ele>
        <time>2022-04-14T07:44:41Z</time>
      </trkpt>
      <trkpt lat="47.62319" lon="1.9379094">
        <ele>174.0</ele>
        <time>2022-04-14T07:44:42Z</time>
      </trkpt>
      <trkpt lat="47.623188" lon="1.9378955">
        <ele>174.0</ele>
        <time>2022-04-14T07:44:43Z</time>
      </trkpt>
      <trkpt lat="47.62318" lon="1.9378811">
        <ele>174.0</ele>
        <time>2022-04-14T07:44:44Z</time>
      </trkpt>
      <trkpt lat="47.623177" lon="1.9378651">
        <ele>174.0</ele>
        <time>2022-04-14T07:44:45Z</time>
      </trkpt>
      <trkpt lat="47.623173" lon="1.9378515">
        <ele>174.0</ele>
        <time>2022-04-14T07:44:46Z</time>
      </trkpt>
      <trkpt lat="47.62317" lon="1.9378363">
        <ele>174.0</ele>
        <time>2022-04-14T07:44:47Z</time>
      </trkpt>
      <trkpt lat="47.62317" lon="1.9378262">
        <ele>174.0</ele>
        <time>2022-04-14T07:44:48Z</time>
      </trkpt>
      <trkpt lat="47.623165" lon="1.9378134">
        <ele>174.0</ele>
        <time>2022-04-14T07:44:49Z</time>
      </trkpt>
      <trkpt lat="47.62316" lon="1.9378064">
        <ele>174.0</ele>
        <time>2022-04-14T07:44:50Z</time>
      </trkpt>
      <trkpt lat="47.623158" lon="1.9377974">
        <ele>174.0</ele>
        <time>2022-04-14T07:44:51Z</time>
      </trkpt>
      <trkpt lat="47.62315" lon="1.9377807">
        <ele>174.0</ele>
        <time>2022-04-14T07:44:52Z</time>
      </trkpt>
      <trkpt lat="47.623142" lon="1.937764">
        <ele>174.0</ele>
        <time>2022-04-14T07:44:53Z</time>
      </trkpt>
      <trkpt lat="47.62314" lon="1.9377469">
        <ele>174.0</ele>
        <time>2022-04-14T07:44:54Z</time>
      </trkpt>
      <trkpt lat="47.623135" lon="1.937726">
        <ele>174.0</ele>
        <time>2022-04-14T07:44:55Z</time>
      </trkpt>
      <trkpt lat="47.623135" lon="1.9377104">
        <ele>175.0</ele>
        <time>2022-04-14T07:44:56Z</time>
      </trkpt>
      <trkpt lat="47.623127" lon="1.9377002">
        <ele>175.0</ele>
        <time>2022-04-14T07:44:57Z</time>
      </trkpt>
      <trkpt lat="47.623127" lon="1.9377002">
        <ele>175.0</ele>
        <time>2022-04-14T07:44:58Z</time>
      </trkpt>
      <trkpt lat="47.62312" lon="1.9376748">
        <ele>175.0</ele>
        <time>2022-04-14T07:44:59Z</time>
      </trkpt>
      <trkpt lat="47.62311" lon="1.9376587">
        <ele>176.0</ele>
        <time>2022-04-14T07:45:00Z</time>
      </trkpt>
      <trkpt lat="47.623104" lon="1.9376415">
        <ele>176.0</ele>
        <time>2022-04-14T07:45:01Z</time>
      </trkpt>
      <trkpt lat="47.623096" lon="1.9376249">
        <ele>176.0</ele>
        <time>2022-04-14T07:45:02Z</time>
      </trkpt>
      <trkpt lat="47.623093" lon="1.9376144">
        <ele>176.0</ele>
        <time>2022-04-14T07:45:03Z</time>
      </trkpt>
      <trkpt lat="47.62309" lon="1.9376036">
        <ele>176.0</ele>
        <time>2022-04-14T07:45:04Z</time>
      </trkpt>
      <trkpt lat="47.62309" lon="1.9375864">
        <ele>177.0</ele>
        <time>2022-04-14T07:45:05Z</time>
      </trkpt>
      <trkpt lat="47.623085" lon="1.9375712">
        <ele>177.0</ele>
        <time>2022-04-14T07:45:06Z</time>
      </trkpt>
      <trkpt lat="47.62308" lon="1.9375557">
        <ele>177.0</ele>
        <time>2022-04-14T07:45:07Z</time>
      </trkpt>
      <trkpt lat="47.623074" lon="1.9375474">
        <ele>177.0</ele>
        <time>2022-04-14T07:45:08Z</time>
      </trkpt>
      <trkpt lat="47.62307" lon="1.9375377">
        <ele>177.0</ele>
        <time>2022-04-14T07:45:09Z</time>
      </trkpt>
      <trkpt lat="47.623062" lon="1.9375277">
        <ele>177.0</ele>
        <time>2022-04-14T07:45:10Z</time>
      </trkpt>
      <trkpt lat="47.623055" lon="1.9375119">
        <ele>177.0</ele>
        <time>2022-04-14T07:45:11Z</time>
      </trkpt>
      <trkpt lat="47.62305" lon="1.9374969">
        <ele>177.0</ele>
        <time>2022-04-14T07:45:12Z</time>
      </trkpt>
      <trkpt lat="47.623043" lon="1.9374807">
        <ele>177.0</ele>
        <time>2022-04-14T07:45:13Z</time>
      </trkpt>
      <trkpt lat="47.62304" lon="1.9374676">
        <ele>177.0</ele>
        <time>2022-04-14T07:45:14Z</time>
      </trkpt>
      <trkpt lat="47.62304" lon="1.9374676">
        <ele>177.0</ele>
        <time>2022-04-14T07:45:15Z</time>
      </trkpt>
      <trkpt lat="47.62304" lon="1.9374676">
        <ele>177.0</ele>
        <time>2022-04-14T07:45:16Z</time>
      </trkpt>
      <trkpt lat="47.623035" lon="1.937434">
        <ele>176.0</ele>
        <time>2022-04-14T07:45:17Z</time>
      </trkpt>
      <trkpt lat="47.623028" lon="1.9374195">
        <ele>175.0</ele>
        <time>2022-04-14T07:45:18Z</time>
      </trkpt>
      <trkpt lat="47.623024" lon="1.9374055">
        <ele>175.0</ele>
        <time>2022-04-14T07:45:19Z</time>
      </trkpt>
      <trkpt lat="47.62302" lon="1.937393">
        <ele>175.0</ele>
        <time>2022-04-14T07:45:20Z</time>
      </trkpt>
      <trkpt lat="47.623013" lon="1.9373707">
        <ele>175.0</ele>
        <time>2022-04-14T07:45:21Z</time>
      </trkpt>
      <trkpt lat="47.62301" lon="1.9373559">
        <ele>175.0</ele>
        <time>2022-04-14T07:45:22Z</time>
      </trkpt>
      <trkpt lat="47.62301" lon="1.9373559">
        <ele>175.0</ele>
        <time>2022-04-14T07:45:23Z</time>
      </trkpt>
      <trkpt lat="47.62301" lon="1.9373559">
        <ele>175.0</ele>
        <time>2022-04-14T07:45:24Z</time>
      </trkpt>
      <trkpt lat="47.622993" lon="1.9373165">
        <ele>175.0</ele>
        <time>2022-04-14T07:45:25Z</time>
      </trkpt>
      <trkpt lat="47.622986" lon="1.937302">
        <ele>175.0</ele>
        <time>2022-04-14T07:45:26Z</time>
      </trkpt>
      <trkpt lat="47.62298" lon="1.9372866">
        <ele>176.0</ele>
        <time>2022-04-14T07:45:27Z</time>
      </trkpt>
      <trkpt lat="47.62298" lon="1.937272">
        <ele>176.0</ele>
        <time>2022-04-14T07:45:28Z</time>
      </trkpt>
      <trkpt lat="47.62297" lon="1.9372547">
        <ele>176.0</ele>
        <time>2022-04-14T07:45:29Z</time>
      </trkpt>
      <trkpt lat="47.62296" lon="1.9372281">
        <ele>177.0</ele>
        <time>2022-04-14T07:45:30Z</time>
      </trkpt>
      <trkpt lat="47.62296" lon="1.9372281">
        <ele>177.0</ele>
        <time>2022-04-14T07:45:30Z</time>
      </trkpt>
      <trkpt lat="47.622948" lon="1.937211">
        <ele>176.0</ele>
        <time>2022-04-14T07:45:32Z</time>
      </trkpt>
      <trkpt lat="47.622944" lon="1.9371979">
        <ele>176.0</ele>
        <time>2022-04-14T07:45:33Z</time>
      </trkpt>
      <trkpt lat="47.622936" lon="1.9371847">
        <ele>176.0</ele>
        <time>2022-04-14T07:45:34Z</time>
      </trkpt>
      <trkpt lat="47.622925" lon="1.9371734">
        <ele>175.0</ele>
        <time>2022-04-14T07:45:35Z</time>
      </trkpt>
      <trkpt lat="47.62292" lon="1.9371545">
        <ele>175.0</ele>
        <time>2022-04-14T07:45:36Z</time>
      </trkpt>
      <trkpt lat="47.622913" lon="1.9371437">
        <ele>176.0</ele>
        <time>2022-04-14T07:45:37Z</time>
      </trkpt>
      <trkpt lat="47.62291" lon="1.937128">
        <ele>176.0</ele>
        <time>2022-04-14T07:45:38Z</time>
      </trkpt>
      <trkpt lat="47.622902" lon="1.9371161">
        <ele>176.0</ele>
        <time>2022-04-14T07:45:39Z</time>
      </trkpt>
      <trkpt lat="47.6229" lon="1.9371014">
        <ele>176.0</ele>
        <time>2022-04-14T07:45:40Z</time>
      </trkpt>
      <trkpt lat="47.622894" lon="1.9370863">
        <ele>176.0</ele>
        <time>2022-04-14T07:45:41Z</time>
      </trkpt>
      <trkpt lat="47.622887" lon="1.9370735">
        <ele>177.0</ele>
        <time>2022-04-14T07:45:42Z</time>
      </trkpt>
      <trkpt lat="47.62288" lon="1.9370596">
        <ele>177.0</ele>
        <time>2022-04-14T07:45:43Z</time>
      </trkpt>
      <trkpt lat="47.62287" lon="1.9370452">
        <ele>178.0</ele>
        <time>2022-04-14T07:45:44Z</time>
      </trkpt>
      <trkpt lat="47.622868" lon="1.9370272">
        <ele>178.0</ele>
        <time>2022-04-14T07:45:45Z</time>
      </trkpt>
      <trkpt lat="47.62286" lon="1.9370022">
        <ele>178.0</ele>
        <time>2022-04-14T07:45:46Z</time>
      </trkpt>
      <trkpt lat="47.62286" lon="1.9370022">
        <ele>178.0</ele>
        <time>2022-04-14T07:45:46Z</time>
      </trkpt>
      <trkpt lat="47.622856" lon="1.9369905">
        <ele>178.0</ele>
        <time>2022-04-14T07:45:48Z</time>
      </trkpt>
      <trkpt lat="47.62285" lon="1.9369757">
        <ele>178.0</ele>
        <time>2022-04-14T07:45:49Z</time>
      </trkpt>
      <trkpt lat="47.622845" lon="1.9369664">
        <ele>178.0</ele>
        <time>2022-04-14T07:45:50Z</time>
      </trkpt>
      <trkpt lat="47.622837" lon="1.9369543">
        <ele>178.0</ele>
        <time>2022-04-14T07:45:51Z</time>
      </trkpt>
      <trkpt lat="47.622833" lon="1.9369398">
        <ele>177.0</ele>
        <time>2022-04-14T07:45:52Z</time>
      </trkpt>
      <trkpt lat="47.62283" lon="1.9369272">
        <ele>178.0</ele>
        <time>2022-04-14T07:45:53Z</time>
      </trkpt>
      <trkpt lat="47.62282" lon="1.9369133">
        <ele>178.0</ele>
        <time>2022-04-14T07:45:54Z</time>
      </trkpt>
      <trkpt lat="47.622818" lon="1.9368975">
        <ele>178.0</ele>
        <time>2022-04-14T07:45:55Z</time>
      </trkpt>
      <trkpt lat="47.622818" lon="1.9368843">
        <ele>179.0</ele>
        <time>2022-04-14T07:45:56Z</time>
      </trkpt>
      <trkpt lat="47.622814" lon="1.9368719">
        <ele>179.0</ele>
        <time>2022-04-14T07:45:57Z</time>
      </trkpt>
      <trkpt lat="47.622814" lon="1.9368719">
        <ele>179.0</ele>
        <time>2022-04-14T07:45:58Z</time>
      </trkpt>
      <trkpt lat="47.622814" lon="1.9368719">
        <ele>179.0</ele>
        <time>2022-04-14T07:45:59Z</time>
      </trkpt>
      <trkpt lat="47.622818" lon="1.9368365">
        <ele>179.0</ele>
        <time>2022-04-14T07:46:00Z</time>
      </trkpt>
      <trkpt lat="47.622814" lon="1.936804">
        <ele>180.0</ele>
        <time>2022-04-14T07:46:01Z</time>
      </trkpt>
      <trkpt lat="47.622814" lon="1.936804">
        <ele>180.0</ele>
        <time>2022-04-14T07:46:01Z</time>
      </trkpt>
      <trkpt lat="47.622807" lon="1.93679">
        <ele>180.0</ele>
        <time>2022-04-14T07:46:03Z</time>
      </trkpt>
      <trkpt lat="47.622803" lon="1.9367756">
        <ele>180.0</ele>
        <time>2022-04-14T07:46:04Z</time>
      </trkpt>
      <trkpt lat="47.622795" lon="1.9367626">
        <ele>180.0</ele>
        <time>2022-04-14T07:46:05Z</time>
      </trkpt>
      <trkpt lat="47.62279" lon="1.9367485">
        <ele>180.0</ele>
        <time>2022-04-14T07:46:06Z</time>
      </trkpt>
      <trkpt lat="47.622784" lon="1.9367349">
        <ele>180.0</ele>
        <time>2022-04-14T07:46:07Z</time>
      </trkpt>
      <trkpt lat="47.622784" lon="1.9367226">
        <ele>181.0</ele>
        <time>2022-04-14T07:46:08Z</time>
      </trkpt>
      <trkpt lat="47.62278" lon="1.9367094">
        <ele>181.0</ele>
        <time>2022-04-14T07:46:09Z</time>
      </trkpt>
      <trkpt lat="47.622776" lon="1.9366966">
        <ele>181.0</ele>
        <time>2022-04-14T07:46:10Z</time>
      </trkpt>
      <trkpt lat="47.622776" lon="1.936681">
        <ele>181.0</ele>
        <time>2022-04-14T07:46:11Z</time>
      </trkpt>
      <trkpt lat="47.622776" lon="1.936681">
        <ele>181.0</ele>
        <time>2022-04-14T07:46:12Z</time>
      </trkpt>
      <trkpt lat="47.622776" lon="1.936681">
        <ele>181.0</ele>
        <time>2022-04-14T07:46:13Z</time>
      </trkpt>
      <trkpt lat="47.622772" lon="1.9366423">
        <ele>182.0</ele>
        <time>2022-04-14T07:46:14Z</time>
      </trkpt>
      <trkpt lat="47.622772" lon="1.9366257">
        <ele>182.0</ele>
        <time>2022-04-14T07:46:15Z</time>
      </trkpt>
      <trkpt lat="47.62276" lon="1.936601">
        <ele>182.0</ele>
        <time>2022-04-14T07:46:16Z</time>
      </trkpt>
      <trkpt lat="47.62276" lon="1.936601">
        <ele>182.0</ele>
        <time>2022-04-14T07:46:16Z</time>
      </trkpt>
      <trkpt lat="47.622753" lon="1.9365823">
        <ele>183.0</ele>
        <time>2022-04-14T07:46:18Z</time>
      </trkpt>
      <trkpt lat="47.622746" lon="1.936557">
        <ele>182.0</ele>
        <time>2022-04-14T07:46:19Z</time>
      </trkpt>
      <trkpt lat="47.62274" lon="1.936545">
        <ele>183.0</ele>
        <time>2022-04-14T07:46:20Z</time>
      </trkpt>
      <trkpt lat="47.62274" lon="1.936545">
        <ele>183.0</ele>
        <time>2022-04-14T07:46:20Z</time>
      </trkpt>
      <trkpt lat="47.62274" lon="1.9365281">
        <ele>183.0</ele>
        <time>2022-04-14T07:46:22Z</time>
      </trkpt>
      <trkpt lat="47.622738" lon="1.9365008">
        <ele>182.0</ele>
        <time>2022-04-14T07:46:23Z</time>
      </trkpt>
      <trkpt lat="47.622738" lon="1.9365008">
        <ele>182.0</ele>
        <time>2022-04-14T07:46:23Z</time>
      </trkpt>
      <trkpt lat="47.622734" lon="1.936487">
        <ele>182.0</ele>
        <time>2022-04-14T07:46:25Z</time>
      </trkpt>
      <trkpt lat="47.622734" lon="1.9364761">
        <ele>182.0</ele>
        <time>2022-04-14T07:46:26Z</time>
      </trkpt>
      <trkpt lat="47.62273" lon="1.9364616">
        <ele>182.0</ele>
        <time>2022-04-14T07:46:27Z</time>
      </trkpt>
      <trkpt lat="47.62273" lon="1.9364507">
        <ele>182.0</ele>
        <time>2022-04-14T07:46:28Z</time>
      </trkpt>
      <trkpt lat="47.622726" lon="1.9364347">
        <ele>182.0</ele>
        <time>2022-04-14T07:46:29Z</time>
      </trkpt>
      <trkpt lat="47.622726" lon="1.9364347">
        <ele>182.0</ele>
        <time>2022-04-14T07:46:30Z</time>
      </trkpt>
      <trkpt lat="47.62272" lon="1.9363943">
        <ele>183.0</ele>
        <time>2022-04-14T07:46:31Z</time>
      </trkpt>
      <trkpt lat="47.62272" lon="1.9363755">
        <ele>183.0</ele>
        <time>2022-04-14T07:46:32Z</time>
      </trkpt>
      <trkpt lat="47.62272" lon="1.9363755">
        <ele>183.0</ele>
        <time>2022-04-14T07:46:32Z</time>
      </trkpt>
      <trkpt lat="47.62272" lon="1.9363502">
        <ele>183.0</ele>
        <time>2022-04-14T07:46:34Z</time>
      </trkpt>
      <trkpt lat="47.62272" lon="1.9363502">
        <ele>183.0</ele>
        <time>2022-04-14T07:46:34Z</time>
      </trkpt>
      <trkpt lat="47.62272" lon="1.9363502">
        <ele>183.0</ele>
        <time>2022-04-14T07:46:36Z</time>
      </trkpt>
      <trkpt lat="47.62271" lon="1.9363122">
        <ele>183.0</ele>
        <time>2022-04-14T07:46:37Z</time>
      </trkpt>
      <trkpt lat="47.62271" lon="1.9363122">
        <ele>183.0</ele>
        <time>2022-04-14T07:46:37Z</time>
      </trkpt>
      <trkpt lat="47.622704" lon="1.9362817">
        <ele>182.0</ele>
        <time>2022-04-14T07:46:39Z</time>
      </trkpt>
      <trkpt lat="47.6227" lon="1.9362631">
        <ele>182.0</ele>
        <time>2022-04-14T07:46:40Z</time>
      </trkpt>
      <trkpt lat="47.6227" lon="1.9362631">
        <ele>182.0</ele>
        <time>2022-04-14T07:46:40Z</time>
      </trkpt>
      <trkpt lat="47.6227" lon="1.9362631">
        <ele>182.0</ele>
        <time>2022-04-14T07:46:42Z</time>
      </trkpt>
      <trkpt lat="47.622692" lon="1.9362262">
        <ele>181.0</ele>
        <time>2022-04-14T07:46:43Z</time>
      </trkpt>
      <trkpt lat="47.62269" lon="1.9362084">
        <ele>182.0</ele>
        <time>2022-04-14T07:46:44Z</time>
      </trkpt>
      <trkpt lat="47.622684" lon="1.9361956">
        <ele>182.0</ele>
        <time>2022-04-14T07:46:45Z</time>
      </trkpt>
      <trkpt lat="47.622684" lon="1.9361873">
        <ele>182.0</ele>
        <time>2022-04-14T07:46:46Z</time>
      </trkpt>
      <trkpt lat="47.622684" lon="1.9361873">
        <ele>182.0</ele>
        <time>2022-04-14T07:46:46Z</time>
      </trkpt>
      <trkpt lat="47.622684" lon="1.9361873">
        <ele>182.0</ele>
        <time>2022-04-14T07:46:48Z</time>
      </trkpt>
      <trkpt lat="47.62267" lon="1.9361442">
        <ele>182.0</ele>
        <time>2022-04-14T07:46:49Z</time>
      </trkpt>
      <trkpt lat="47.622665" lon="1.9361343">
        <ele>182.0</ele>
        <time>2022-04-14T07:46:50Z</time>
      </trkpt>
      <trkpt lat="47.622658" lon="1.9361155">
        <ele>181.0</ele>
        <time>2022-04-14T07:46:51Z</time>
      </trkpt>
      <trkpt lat="47.622654" lon="1.9360974">
        <ele>181.0</ele>
        <time>2022-04-14T07:46:52Z</time>
      </trkpt>
      <trkpt lat="47.622654" lon="1.9360974">
        <ele>181.0</ele>
        <time>2022-04-14T07:46:53Z</time>
      </trkpt>
      <trkpt lat="47.622654" lon="1.9360974">
        <ele>181.0</ele>
        <time>2022-04-14T07:46:54Z</time>
      </trkpt>
      <trkpt lat="47.622646" lon="1.9360565">
        <ele>181.0</ele>
        <time>2022-04-14T07:46:55Z</time>
      </trkpt>
      <trkpt lat="47.622646" lon="1.9360435">
        <ele>181.0</ele>
        <time>2022-04-14T07:46:56Z</time>
      </trkpt>
      <trkpt lat="47.622646" lon="1.9360305">
        <ele>181.0</ele>
        <time>2022-04-14T07:46:57Z</time>
      </trkpt>
      <trkpt lat="47.622643" lon="1.936018">
        <ele>181.0</ele>
        <time>2022-04-14T07:46:58Z</time>
      </trkpt>
      <trkpt lat="47.622643" lon="1.936018">
        <ele>181.0</ele>
        <time>2022-04-14T07:46:59Z</time>
      </trkpt>
      <trkpt lat="47.622643" lon="1.936018">
        <ele>181.0</ele>
        <time>2022-04-14T07:47:00Z</time>
      </trkpt>
      <trkpt lat="47.622635" lon="1.9359895">
        <ele>181.0</ele>
        <time>2022-04-14T07:47:01Z</time>
      </trkpt>
      <trkpt lat="47.62263" lon="1.9359723">
        <ele>181.0</ele>
        <time>2022-04-14T07:47:02Z</time>
      </trkpt>
      <trkpt lat="47.622627" lon="1.9359604">
        <ele>181.0</ele>
        <time>2022-04-14T07:47:03Z</time>
      </trkpt>
      <trkpt lat="47.622627" lon="1.9359483">
        <ele>182.0</ele>
        <time>2022-04-14T07:47:04Z</time>
      </trkpt>
      <trkpt lat="47.622627" lon="1.9359483">
        <ele>182.0</ele>
        <time>2022-04-14T07:47:05Z</time>
      </trkpt>
      <trkpt lat="47.622627" lon="1.9359483">
        <ele>182.0</ele>
        <time>2022-04-14T07:47:06Z</time>
      </trkpt>
      <trkpt lat="47.62263" lon="1.9359076">
        <ele>182.0</ele>
        <time>2022-04-14T07:47:07Z</time>
      </trkpt>
      <trkpt lat="47.622635" lon="1.9358946">
        <ele>182.0</ele>
        <time>2022-04-14T07:47:08Z</time>
      </trkpt>
      <trkpt lat="47.62264" lon="1.9358828">
        <ele>182.0</ele>
        <time>2022-04-14T07:47:09Z</time>
      </trkpt>
      <trkpt lat="47.622643" lon="1.9358733">
        <ele>181.0</ele>
        <time>2022-04-14T07:47:10Z</time>
      </trkpt>
      <trkpt lat="47.622643" lon="1.9358733">
        <ele>181.0</ele>
        <time>2022-04-14T07:47:11Z</time>
      </trkpt>
      <trkpt lat="47.622643" lon="1.9358733">
        <ele>181.0</ele>
        <time>2022-04-14T07:47:12Z</time>
      </trkpt>
      <trkpt lat="47.622646" lon="1.9358649">
        <ele>180.0</ele>
        <time>2022-04-14T07:47:13Z</time>
      </trkpt>
      <trkpt lat="47.62265" lon="1.9358615">
        <ele>180.0</ele>
        <time>2022-04-14T07:47:14Z</time>
      </trkpt>
      <trkpt lat="47.622654" lon="1.9358546">
        <ele>180.0</ele>
        <time>2022-04-14T07:47:15Z</time>
      </trkpt>
      <trkpt lat="47.622658" lon="1.9358482">
        <ele>180.0</ele>
        <time>2022-04-14T07:47:16Z</time>
      </trkpt>
      <trkpt lat="47.622658" lon="1.9358482">
        <ele>180.0</ele>
        <time>2022-04-14T07:47:17Z</time>
      </trkpt>
      <trkpt lat="47.622658" lon="1.9358482">
        <ele>180.0</ele>
        <time>2022-04-14T07:47:18Z</time>
      </trkpt>
      <trkpt lat="47.62268" lon="1.9358536">
        <ele>178.0</ele>
        <time>2022-04-14T07:47:19Z</time>
      </trkpt>
      <trkpt lat="47.622692" lon="1.9358441">
        <ele>178.0</ele>
        <time>2022-04-14T07:47:20Z</time>
      </trkpt>
      <trkpt lat="47.6227" lon="1.935836">
        <ele>177.0</ele>
        <time>2022-04-14T07:47:21Z</time>
      </trkpt>
      <trkpt lat="47.622704" lon="1.9358368">
        <ele>178.0</ele>
        <time>2022-04-14T07:47:22Z</time>
      </trkpt>
      <trkpt lat="47.622704" lon="1.9358368">
        <ele>178.0</ele>
        <time>2022-04-14T07:47:23Z</time>
      </trkpt>
      <trkpt lat="47.622704" lon="1.9358368">
        <ele>178.0</ele>
        <time>2022-04-14T07:47:24Z</time>
      </trkpt>
      <trkpt lat="47.62272" lon="1.9358288">
        <ele>177.0</ele>
        <time>2022-04-14T07:47:25Z</time>
      </trkpt>
      <trkpt lat="47.622723" lon="1.9358304">
        <ele>177.0</ele>
        <time>2022-04-14T07:47:26Z</time>
      </trkpt>
      <trkpt lat="47.622726" lon="1.9358283">
        <ele>176.0</ele>
        <time>2022-04-14T07:47:27Z</time>
      </trkpt>
      <trkpt lat="47.62273" lon="1.9358354">
        <ele>175.0</ele>
        <time>2022-04-14T07:47:28Z</time>
      </trkpt>
      <trkpt lat="47.62273" lon="1.9358354">
        <ele>175.0</ele>
        <time>2022-04-14T07:47:29Z</time>
      </trkpt>
      <trkpt lat="47.62273" lon="1.9358354">
        <ele>175.0</ele>
        <time>2022-04-14T07:47:30Z</time>
      </trkpt>
      <trkpt lat="47.622753" lon="1.935845">
        <ele>174.0</ele>
        <time>2022-04-14T07:47:31Z</time>
      </trkpt>
      <trkpt lat="47.622765" lon="1.9358459">
        <ele>173.0</ele>
        <time>2022-04-14T07:47:32Z</time>
      </trkpt>
      <trkpt lat="47.622776" lon="1.9358467">
        <ele>171.0</ele>
        <time>2022-04-14T07:47:33Z</time>
      </trkpt>
      <trkpt lat="47.622784" lon="1.9358431">
        <ele>171.0</ele>
        <time>2022-04-14T07:47:34Z</time>
      </trkpt>
      <trkpt lat="47.622784" lon="1.9358431">
        <ele>171.0</ele>
        <time>2022-04-14T07:47:35Z</time>
      </trkpt>
      <trkpt lat="47.622784" lon="1.9358431">
        <ele>171.0</ele>
        <time>2022-04-14T07:47:35Z</time>
      </trkpt>
      <trkpt lat="47.622803" lon="1.9358404">
        <ele>170.0</ele>
        <time>2022-04-14T07:47:37Z</time>
      </trkpt>
      <trkpt lat="47.622807" lon="1.9358407">
        <ele>169.0</ele>
        <time>2022-04-14T07:47:38Z</time>
      </trkpt>
      <trkpt lat="47.622814" lon="1.935839">
        <ele>169.0</ele>
        <time>2022-04-14T07:47:39Z</time>
      </trkpt>
      <trkpt lat="47.62282" lon="1.935838">
        <ele>168.0</ele>
        <time>2022-04-14T07:47:40Z</time>
      </trkpt>
      <trkpt lat="47.622833" lon="1.9358377">
        <ele>168.0</ele>
        <time>2022-04-14T07:47:41Z</time>
      </trkpt>
      <trkpt lat="47.622833" lon="1.9358377">
        <ele>168.0</ele>
        <time>2022-04-14T07:47:42Z</time>
      </trkpt>
      <trkpt lat="47.622833" lon="1.9358377">
        <ele>168.0</ele>
        <time>2022-04-14T07:47:43Z</time>
      </trkpt>
      <trkpt lat="47.62285" lon="1.9358467">
        <ele>167.0</ele>
        <time>2022-04-14T07:47:44Z</time>
      </trkpt>
      <trkpt lat="47.622856" lon="1.9358444">
        <ele>167.0</ele>
        <time>2022-04-14T07:47:45Z</time>
      </trkpt>
      <trkpt lat="47.62286" lon="1.9358461">
        <ele>167.0</ele>
        <time>2022-04-14T07:47:46Z</time>
      </trkpt>
      <trkpt lat="47.622864" lon="1.935847">
        <ele>166.0</ele>
        <time>2022-04-14T07:47:47Z</time>
      </trkpt>
      <trkpt lat="47.622864" lon="1.935847">
        <ele>166.0</ele>
        <time>2022-04-14T07:47:48Z</time>
      </trkpt>
      <trkpt lat="47.622864" lon="1.935847">
        <ele>166.0</ele>
        <time>2022-04-14T07:47:49Z</time>
      </trkpt>
      <trkpt lat="47.622883" lon="1.935848">
        <ele>166.0</ele>
        <time>2022-04-14T07:47:50Z</time>
      </trkpt>
      <trkpt lat="47.622894" lon="1.9358512">
        <ele>165.0</ele>
        <time>2022-04-14T07:47:51Z</time>
      </trkpt>
      <trkpt lat="47.622902" lon="1.9358488">
        <ele>165.0</ele>
        <time>2022-04-14T07:47:52Z</time>
      </trkpt>
      <trkpt lat="47.622913" lon="1.9358504">
        <ele>165.0</ele>
        <time>2022-04-14T07:47:53Z</time>
      </trkpt>
      <trkpt lat="47.622913" lon="1.9358504">
        <ele>165.0</ele>
        <time>2022-04-14T07:47:54Z</time>
      </trkpt>
      <trkpt lat="47.622913" lon="1.9358504">
        <ele>165.0</ele>
        <time>2022-04-14T07:47:55Z</time>
      </trkpt>
      <trkpt lat="47.622936" lon="1.9358436">
        <ele>164.0</ele>
        <time>2022-04-14T07:47:56Z</time>
      </trkpt>
      <trkpt lat="47.62295" lon="1.93584">
        <ele>164.0</ele>
        <time>2022-04-14T07:47:57Z</time>
      </trkpt>
      <trkpt lat="47.62296" lon="1.9358388">
        <ele>163.0</ele>
        <time>2022-04-14T07:47:58Z</time>
      </trkpt>
      <trkpt lat="47.622967" lon="1.935842">
        <ele>164.0</ele>
        <time>2022-04-14T07:47:59Z</time>
      </trkpt>
      <trkpt lat="47.622967" lon="1.935842">
        <ele>164.0</ele>
        <time>2022-04-14T07:48:00Z</time>
      </trkpt>
      <trkpt lat="47.622982" lon="1.9358379">
        <ele>163.0</ele>
        <time>2022-04-14T07:48:01Z</time>
      </trkpt>
      <trkpt lat="47.62299" lon="1.9358354">
        <ele>163.0</ele>
        <time>2022-04-14T07:48:02Z</time>
      </trkpt>
      <trkpt lat="47.622997" lon="1.9358331">
        <ele>162.0</ele>
        <time>2022-04-14T07:48:03Z</time>
      </trkpt>
      <trkpt lat="47.623005" lon="1.9358307">
        <ele>162.0</ele>
        <time>2022-04-14T07:48:04Z</time>
      </trkpt>
      <trkpt lat="47.623005" lon="1.9358307">
        <ele>162.0</ele>
        <time>2022-04-14T07:48:05Z</time>
      </trkpt>
      <trkpt lat="47.623005" lon="1.9358307">
        <ele>162.0</ele>
        <time>2022-04-14T07:48:06Z</time>
      </trkpt>
      <trkpt lat="47.623013" lon="1.9358336">
        <ele>162.0</ele>
        <time>2022-04-14T07:48:07Z</time>
      </trkpt>
      <trkpt lat="47.62302" lon="1.9358306">
        <ele>161.0</ele>
        <time>2022-04-14T07:48:08Z</time>
      </trkpt>
      <trkpt lat="47.623028" lon="1.9358274">
        <ele>161.0</ele>
        <time>2022-04-14T07:48:09Z</time>
      </trkpt>
      <trkpt lat="47.62304" lon="1.9358239">
        <ele>161.0</ele>
        <time>2022-04-14T07:48:10Z</time>
      </trkpt>
      <trkpt lat="47.62304" lon="1.9358239">
        <ele>161.0</ele>
        <time>2022-04-14T07:48:11Z</time>
      </trkpt>
      <trkpt lat="47.62304" lon="1.9358239">
        <ele>161.0</ele>
        <time>2022-04-14T07:48:12Z</time>
      </trkpt>
      <trkpt lat="47.623062" lon="1.9358256">
        <ele>159.0</ele>
        <time>2022-04-14T07:48:13Z</time>
      </trkpt>
      <trkpt lat="47.623074" lon="1.9358286">
        <ele>159.0</ele>
        <time>2022-04-14T07:48:14Z</time>
      </trkpt>
      <trkpt lat="47.623077" lon="1.9358265">
        <ele>159.0</ele>
        <time>2022-04-14T07:48:15Z</time>
      </trkpt>
      <trkpt lat="47.623085" lon="1.9358286">
        <ele>158.0</ele>
        <time>2022-04-14T07:48:16Z</time>
      </trkpt>
      <trkpt lat="47.623085" lon="1.9358286">
        <ele>158.0</ele>
        <time>2022-04-14T07:48:17Z</time>
      </trkpt>
      <trkpt lat="47.623085" lon="1.9358286">
        <ele>158.0</ele>
        <time>2022-04-14T07:48:18Z</time>
      </trkpt>
      <trkpt lat="47.62311" lon="1.9358249">
        <ele>157.0</ele>
        <time>2022-04-14T07:48:19Z</time>
      </trkpt>
      <trkpt lat="47.62312" lon="1.935823">
        <ele>156.0</ele>
        <time>2022-04-14T07:48:20Z</time>
      </trkpt>
      <trkpt lat="47.62313" lon="1.9358186">
        <ele>156.0</ele>
        <time>2022-04-14T07:48:21Z</time>
      </trkpt>
      <trkpt lat="47.623142" lon="1.9358171">
        <ele>156.0</ele>
        <time>2022-04-14T07:48:22Z</time>
      </trkpt>
      <trkpt lat="47.623142" lon="1.9358171">
        <ele>156.0</ele>
        <time>2022-04-14T07:48:23Z</time>
      </trkpt>
      <trkpt lat="47.623142" lon="1.9358171">
        <ele>156.0</ele>
        <time>2022-04-14T07:48:24Z</time>
      </trkpt>
      <trkpt lat="47.62316" lon="1.9358078">
        <ele>154.0</ele>
        <time>2022-04-14T07:48:25Z</time>
      </trkpt>
      <trkpt lat="47.623173" lon="1.9358007">
        <ele>154.0</ele>
        <time>2022-04-14T07:48:26Z</time>
      </trkpt>
      <trkpt lat="47.623184" lon="1.9357998">
        <ele>154.0</ele>
        <time>2022-04-14T07:48:27Z</time>
      </trkpt>
      <trkpt lat="47.62319" lon="1.9357978">
        <ele>153.0</ele>
        <time>2022-04-14T07:48:28Z</time>
      </trkpt>
      <trkpt lat="47.62319" lon="1.9357978">
        <ele>153.0</ele>
        <time>2022-04-14T07:48:29Z</time>
      </trkpt>
      <trkpt lat="47.62319" lon="1.9357978">
        <ele>153.0</ele>
        <time>2022-04-14T07:48:30Z</time>
      </trkpt>
      <trkpt lat="47.623207" lon="1.9357972">
        <ele>152.0</ele>
        <time>2022-04-14T07:48:31Z</time>
      </trkpt>
      <trkpt lat="47.623215" lon="1.9357932">
        <ele>152.0</ele>
        <time>2022-04-14T07:48:32Z</time>
      </trkpt>
      <trkpt lat="47.62322" lon="1.9357896">
        <ele>152.0</ele>
        <time>2022-04-14T07:48:33Z</time>
      </trkpt>
      <trkpt lat="47.623226" lon="1.9357841">
        <ele>152.0</ele>
        <time>2022-04-14T07:48:34Z</time>
      </trkpt>
      <trkpt lat="47.623234" lon="1.9357826">
        <ele>152.0</ele>
        <time>2022-04-14T07:48:35Z</time>
      </trkpt>
      <trkpt lat="47.623245" lon="1.9357834">
        <ele>152.0</ele>
        <time>2022-04-14T07:48:36Z</time>
      </trkpt>
      <trkpt lat="47.623253" lon="1.9357787">
        <ele>152.0</ele>
        <time>2022-04-14T07:48:37Z</time>
      </trkpt>
      <trkpt lat="47.62326" lon="1.9357764">
        <ele>152.0</ele>
        <time>2022-04-14T07:48:38Z</time>
      </trkpt>
      <trkpt lat="47.623272" lon="1.9357724">
        <ele>151.0</ele>
        <time>2022-04-14T07:48:39Z</time>
      </trkpt>
      <trkpt lat="47.623272" lon="1.9357724">
        <ele>151.0</ele>
        <time>2022-04-14T07:48:40Z</time>
      </trkpt>
      <trkpt lat="47.623272" lon="1.9357724">
        <ele>151.0</ele>
        <time>2022-04-14T07:48:41Z</time>
      </trkpt>
      <trkpt lat="47.623302" lon="1.9357616">
        <ele>149.0</ele>
        <time>2022-04-14T07:48:42Z</time>
      </trkpt>
      <trkpt lat="47.623314" lon="1.9357592">
        <ele>149.0</ele>
        <time>2022-04-14T07:48:43Z</time>
      </trkpt>
      <trkpt lat="47.62332" lon="1.9357607">
        <ele>148.0</ele>
        <time>2022-04-14T07:48:44Z</time>
      </trkpt>
      <trkpt lat="47.62333" lon="1.9357678">
        <ele>148.0</ele>
        <time>2022-04-14T07:48:45Z</time>
      </trkpt>
      <trkpt lat="47.62333" lon="1.9357678">
        <ele>148.0</ele>
        <time>2022-04-14T07:48:46Z</time>
      </trkpt>
      <trkpt lat="47.62333" lon="1.9357678">
        <ele>148.0</ele>
        <time>2022-04-14T07:48:47Z</time>
      </trkpt>
      <trkpt lat="47.623352" lon="1.9357914">
        <ele>147.0</ele>
        <time>2022-04-14T07:48:48Z</time>
      </trkpt>
      <trkpt lat="47.623356" lon="1.935797">
        <ele>147.0</ele>
        <time>2022-04-14T07:48:49Z</time>
      </trkpt>
      <trkpt lat="47.62336" lon="1.9358017">
        <ele>146.0</ele>
        <time>2022-04-14T07:48:50Z</time>
      </trkpt>
      <trkpt lat="47.623367" lon="1.9358062">
        <ele>146.0</ele>
        <time>2022-04-14T07:48:51Z</time>
      </trkpt>
      <trkpt lat="47.623367" lon="1.9358062">
        <ele>146.0</ele>
        <time>2022-04-14T07:48:52Z</time>
      </trkpt>
      <trkpt lat="47.623367" lon="1.9358062">
        <ele>146.0</ele>
        <time>2022-04-14T07:48:53Z</time>
      </trkpt>
      <trkpt lat="47.623386" lon="1.9358044">
        <ele>147.0</ele>
        <time>2022-04-14T07:48:54Z</time>
      </trkpt>
      <trkpt lat="47.623398" lon="1.9358071">
        <ele>146.0</ele>
        <time>2022-04-14T07:48:55Z</time>
      </trkpt>
      <trkpt lat="47.62341" lon="1.9358028">
        <ele>146.0</ele>
        <time>2022-04-14T07:48:56Z</time>
      </trkpt>
      <trkpt lat="47.623425" lon="1.9357977">
        <ele>146.0</ele>
        <time>2022-04-14T07:48:57Z</time>
      </trkpt>
      <trkpt lat="47.623425" lon="1.9357977">
        <ele>146.0</ele>
        <time>2022-04-14T07:48:58Z</time>
      </trkpt>
      <trkpt lat="47.623425" lon="1.9357977">
        <ele>146.0</ele>
        <time>2022-04-14T07:48:59Z</time>
      </trkpt>
      <trkpt lat="47.62345" lon="1.9357868">
        <ele>146.0</ele>
        <time>2022-04-14T07:49:00Z</time>
      </trkpt>
      <trkpt lat="47.623463" lon="1.9357795">
        <ele>146.0</ele>
        <time>2022-04-14T07:49:01Z</time>
      </trkpt>
      <trkpt lat="47.623466" lon="1.935775">
        <ele>145.0</ele>
        <time>2022-04-14T07:49:02Z</time>
      </trkpt>
      <trkpt lat="47.623474" lon="1.9357716">
        <ele>145.0</ele>
        <time>2022-04-14T07:49:03Z</time>
      </trkpt>
      <trkpt lat="47.623474" lon="1.9357716">
        <ele>145.0</ele>
        <time>2022-04-14T07:49:04Z</time>
      </trkpt>
      <trkpt lat="47.623474" lon="1.9357716">
        <ele>145.0</ele>
        <time>2022-04-14T07:49:05Z</time>
      </trkpt>
      <trkpt lat="47.62351" lon="1.9357699">
        <ele>145.0</ele>
        <time>2022-04-14T07:49:06Z</time>
      </trkpt>
      <trkpt lat="47.62352" lon="1.9357677">
        <ele>144.0</ele>
        <time>2022-04-14T07:49:07Z</time>
      </trkpt>
      <trkpt lat="47.623535" lon="1.9357599">
        <ele>144.0</ele>
        <time>2022-04-14T07:49:08Z</time>
      </trkpt>
      <trkpt lat="47.623547" lon="1.9357568">
        <ele>143.0</ele>
        <time>2022-04-14T07:49:09Z</time>
      </trkpt>
      <trkpt lat="47.623547" lon="1.9357568">
        <ele>143.0</ele>
        <time>2022-04-14T07:49:10Z</time>
      </trkpt>
      <trkpt lat="47.623547" lon="1.9357568">
        <ele>143.0</ele>
        <time>2022-04-14T07:49:11Z</time>
      </trkpt>
      <trkpt lat="47.623573" lon="1.9357507">
        <ele>143.0</ele>
        <time>2022-04-14T07:49:12Z</time>
      </trkpt>
      <trkpt lat="47.62358" lon="1.935746">
        <ele>143.0</ele>
        <time>2022-04-14T07:49:13Z</time>
      </trkpt>
      <trkpt lat="47.623592" lon="1.9357439">
        <ele>143.0</ele>
        <time>2022-04-14T07:49:14Z</time>
      </trkpt>
      <trkpt lat="47.623604" lon="1.9357432">
        <ele>143.0</ele>
        <time>2022-04-14T07:49:15Z</time>
      </trkpt>
      <trkpt lat="47.623604" lon="1.9357432">
        <ele>143.0</ele>
        <time>2022-04-14T07:49:16Z</time>
      </trkpt>
      <trkpt lat="47.623604" lon="1.9357432">
        <ele>143.0</ele>
        <time>2022-04-14T07:49:17Z</time>
      </trkpt>
      <trkpt lat="47.623623" lon="1.9357408">
        <ele>143.0</ele>
        <time>2022-04-14T07:49:18Z</time>
      </trkpt>
      <trkpt lat="47.623634" lon="1.9357417">
        <ele>144.0</ele>
        <time>2022-04-14T07:49:19Z</time>
      </trkpt>
      <trkpt lat="47.623642" lon="1.9357413">
        <ele>144.0</ele>
        <time>2022-04-14T07:49:20Z</time>
      </trkpt>
      <trkpt lat="47.623653" lon="1.9357365">
        <ele>144.0</ele>
        <time>2022-04-14T07:49:21Z</time>
      </trkpt>
      <trkpt lat="47.623653" lon="1.9357365">
        <ele>144.0</ele>
        <time>2022-04-14T07:49:22Z</time>
      </trkpt>
      <trkpt lat="47.623653" lon="1.9357365">
        <ele>144.0</ele>
        <time>2022-04-14T07:49:23Z</time>
      </trkpt>
      <trkpt lat="47.62369" lon="1.9357252">
        <ele>143.0</ele>
        <time>2022-04-14T07:49:24Z</time>
      </trkpt>
      <trkpt lat="47.623707" lon="1.9357189">
        <ele>143.0</ele>
        <time>2022-04-14T07:49:25Z</time>
      </trkpt>
      <trkpt lat="47.62372" lon="1.935707">
        <ele>143.0</ele>
        <time>2022-04-14T07:49:26Z</time>
      </trkpt>
      <trkpt lat="47.623734" lon="1.9356976">
        <ele>143.0</ele>
        <time>2022-04-14T07:49:27Z</time>
      </trkpt>
      <trkpt lat="47.623734" lon="1.9356976">
        <ele>143.0</ele>
        <time>2022-04-14T07:49:28Z</time>
      </trkpt>
      <trkpt lat="47.623734" lon="1.9356976">
        <ele>143.0</ele>
        <time>2022-04-14T07:49:29Z</time>
      </trkpt>
      <trkpt lat="47.623764" lon="1.9356859">
        <ele>142.0</ele>
        <time>2022-04-14T07:49:30Z</time>
      </trkpt>
      <trkpt lat="47.62378" lon="1.9356878">
        <ele>141.0</ele>
        <time>2022-04-14T07:49:31Z</time>
      </trkpt>
      <trkpt lat="47.623795" lon="1.9356927">
        <ele>141.0</ele>
        <time>2022-04-14T07:49:32Z</time>
      </trkpt>
      <trkpt lat="47.623806" lon="1.9356927">
        <ele>141.0</ele>
        <time>2022-04-14T07:49:33Z</time>
      </trkpt>
      <trkpt lat="47.623806" lon="1.9356927">
        <ele>141.0</ele>
        <time>2022-04-14T07:49:34Z</time>
      </trkpt>
      <trkpt lat="47.623806" lon="1.9356927">
        <ele>141.0</ele>
        <time>2022-04-14T07:49:35Z</time>
      </trkpt>
      <trkpt lat="47.62384" lon="1.9356953">
        <ele>141.0</ele>
        <time>2022-04-14T07:49:36Z</time>
      </trkpt>
      <trkpt lat="47.62386" lon="1.9356942">
        <ele>141.0</ele>
        <time>2022-04-14T07:49:37Z</time>
      </trkpt>
      <trkpt lat="47.62387" lon="1.9356922">
        <ele>141.0</ele>
        <time>2022-04-14T07:49:38Z</time>
      </trkpt>
      <trkpt lat="47.623882" lon="1.9356873">
        <ele>141.0</ele>
        <time>2022-04-14T07:49:39Z</time>
      </trkpt>
      <trkpt lat="47.623894" lon="1.9356833">
        <ele>142.0</ele>
        <time>2022-04-14T07:49:40Z</time>
      </trkpt>
      <trkpt lat="47.623894" lon="1.9356833">
        <ele>142.0</ele>
        <time>2022-04-14T07:49:41Z</time>
      </trkpt>
      <trkpt lat="47.623894" lon="1.9356833">
        <ele>142.0</ele>
        <time>2022-04-14T07:49:42Z</time>
      </trkpt>
      <trkpt lat="47.623917" lon="1.9356747">
        <ele>143.0</ele>
        <time>2022-04-14T07:49:43Z</time>
      </trkpt>
      <trkpt lat="47.623924" lon="1.9356695">
        <ele>144.0</ele>
        <time>2022-04-14T07:49:44Z</time>
      </trkpt>
      <trkpt lat="47.62393" lon="1.9356612">
        <ele>143.0</ele>
        <time>2022-04-14T07:49:45Z</time>
      </trkpt>
      <trkpt lat="47.62394" lon="1.9356586">
        <ele>143.0</ele>
        <time>2022-04-14T07:49:46Z</time>
      </trkpt>
      <trkpt lat="47.62394" lon="1.9356586">
        <ele>143.0</ele>
        <time>2022-04-14T07:49:47Z</time>
      </trkpt>
      <trkpt lat="47.62394" lon="1.9356586">
        <ele>143.0</ele>
        <time>2022-04-14T07:49:48Z</time>
      </trkpt>
      <trkpt lat="47.623974" lon="1.9356515">
        <ele>143.0</ele>
        <time>2022-04-14T07:49:49Z</time>
      </trkpt>
      <trkpt lat="47.62399" lon="1.935647">
        <ele>144.0</ele>
        <time>2022-04-14T07:49:50Z</time>
      </trkpt>
      <trkpt lat="47.623997" lon="1.9356445">
        <ele>144.0</ele>
        <time>2022-04-14T07:49:51Z</time>
      </trkpt>
      <trkpt lat="47.624004" lon="1.9356439">
        <ele>145.0</ele>
        <time>2022-04-14T07:49:52Z</time>
      </trkpt>
      <trkpt lat="47.624004" lon="1.9356439">
        <ele>145.0</ele>
        <time>2022-04-14T07:49:53Z</time>
      </trkpt>
      <trkpt lat="47.624004" lon="1.9356439">
        <ele>145.0</ele>
        <time>2022-04-14T07:49:54Z</time>
      </trkpt>
      <trkpt lat="47.624027" lon="1.9356349">
        <ele>145.0</ele>
        <time>2022-04-14T07:49:55Z</time>
      </trkpt>
      <trkpt lat="47.624035" lon="1.9356312">
        <ele>145.0</ele>
        <time>2022-04-14T07:49:56Z</time>
      </trkpt>
      <trkpt lat="47.624043" lon="1.9356215">
        <ele>145.0</ele>
        <time>2022-04-14T07:49:57Z</time>
      </trkpt>
      <trkpt lat="47.624054" lon="1.9356146">
        <ele>145.0</ele>
        <time>2022-04-14T07:49:58Z</time>
      </trkpt>
      <trkpt lat="47.624054" lon="1.9356146">
        <ele>145.0</ele>
        <time>2022-04-14T07:49:59Z</time>
      </trkpt>
      <trkpt lat="47.624054" lon="1.9356146">
        <ele>145.0</ele>
        <time>2022-04-14T07:50:00Z</time>
      </trkpt>
      <trkpt lat="47.624092" lon="1.9355993">
        <ele>146.0</ele>
        <time>2022-04-14T07:50:01Z</time>
      </trkpt>
      <trkpt lat="47.624107" lon="1.93559">
        <ele>146.0</ele>
        <time>2022-04-14T07:50:02Z</time>
      </trkpt>
      <trkpt lat="47.62412" lon="1.9355878">
        <ele>146.0</ele>
        <time>2022-04-14T07:50:03Z</time>
      </trkpt>
      <trkpt lat="47.62413" lon="1.9355847">
        <ele>146.0</ele>
        <time>2022-04-14T07:50:04Z</time>
      </trkpt>
      <trkpt lat="47.62413" lon="1.9355847">
        <ele>146.0</ele>
        <time>2022-04-14T07:50:05Z</time>
      </trkpt>
      <trkpt lat="47.62413" lon="1.9355847">
        <ele>146.0</ele>
        <time>2022-04-14T07:50:06Z</time>
      </trkpt>
      <trkpt lat="47.624165" lon="1.9355798">
        <ele>145.0</ele>
        <time>2022-04-14T07:50:07Z</time>
      </trkpt>
      <trkpt lat="47.62418" lon="1.9355776">
        <ele>145.0</ele>
        <time>2022-04-14T07:50:08Z</time>
      </trkpt>
      <trkpt lat="47.624195" lon="1.9355713">
        <ele>145.0</ele>
        <time>2022-04-14T07:50:09Z</time>
      </trkpt>
      <trkpt lat="47.624207" lon="1.9355627">
        <ele>144.0</ele>
        <time>2022-04-14T07:50:10Z</time>
      </trkpt>
      <trkpt lat="47.624207" lon="1.9355627">
        <ele>144.0</ele>
        <time>2022-04-14T07:50:11Z</time>
      </trkpt>
      <trkpt lat="47.624207" lon="1.9355627">
        <ele>144.0</ele>
        <time>2022-04-14T07:50:12Z</time>
      </trkpt>
      <trkpt lat="47.62425" lon="1.9355378">
        <ele>144.0</ele>
        <time>2022-04-14T07:50:13Z</time>
      </trkpt>
      <trkpt lat="47.624264" lon="1.9355307">
        <ele>144.0</ele>
        <time>2022-04-14T07:50:14Z</time>
      </trkpt>
      <trkpt lat="47.62428" lon="1.93552">
        <ele>144.0</ele>
        <time>2022-04-14T07:50:15Z</time>
      </trkpt>
      <trkpt lat="47.6243" lon="1.9355161">
        <ele>144.0</ele>
        <time>2022-04-14T07:50:16Z</time>
      </trkpt>
      <trkpt lat="47.624313" lon="1.9355017">
        <ele>144.0</ele>
        <time>2022-04-14T07:50:17Z</time>
      </trkpt>
      <trkpt lat="47.62433" lon="1.9354855">
        <ele>144.0</ele>
        <time>2022-04-14T07:50:18Z</time>
      </trkpt>
      <trkpt lat="47.62433" lon="1.9354855">
        <ele>144.0</ele>
        <time>2022-04-14T07:50:19Z</time>
      </trkpt>
      <trkpt lat="47.62433" lon="1.9354855">
        <ele>144.0</ele>
        <time>2022-04-14T07:50:20Z</time>
      </trkpt>
      <trkpt lat="47.624363" lon="1.9354607">
        <ele>144.0</ele>
        <time>2022-04-14T07:50:21Z</time>
      </trkpt>
      <trkpt lat="47.62438" lon="1.9354548">
        <ele>144.0</ele>
        <time>2022-04-14T07:50:22Z</time>
      </trkpt>
      <trkpt lat="47.624393" lon="1.9354454">
        <ele>144.0</ele>
        <time>2022-04-14T07:50:23Z</time>
      </trkpt>
      <trkpt lat="47.624405" lon="1.9354386">
        <ele>144.0</ele>
        <time>2022-04-14T07:50:24Z</time>
      </trkpt>
      <trkpt lat="47.624405" lon="1.9354386">
        <ele>144.0</ele>
        <time>2022-04-14T07:50:25Z</time>
      </trkpt>
      <trkpt lat="47.624405" lon="1.9354386">
        <ele>144.0</ele>
        <time>2022-04-14T07:50:26Z</time>
      </trkpt>
      <trkpt lat="47.624443" lon="1.9354323">
        <ele>144.0</ele>
        <time>2022-04-14T07:50:27Z</time>
      </trkpt>
      <trkpt lat="47.62445" lon="1.9354252">
        <ele>144.0</ele>
        <time>2022-04-14T07:50:28Z</time>
      </trkpt>
      <trkpt lat="47.624466" lon="1.9354206">
        <ele>144.0</ele>
        <time>2022-04-14T07:50:29Z</time>
      </trkpt>
      <trkpt lat="47.624485" lon="1.9354136">
        <ele>144.0</ele>
        <time>2022-04-14T07:50:30Z</time>
      </trkpt>
      <trkpt lat="47.624496" lon="1.9354011">
        <ele>143.0</ele>
        <time>2022-04-14T07:50:31Z</time>
      </trkpt>
      <trkpt lat="47.624508" lon="1.935395">
        <ele>143.0</ele>
        <time>2022-04-14T07:50:32Z</time>
      </trkpt>
      <trkpt lat="47.62452" lon="1.9353889">
        <ele>143.0</ele>
        <time>2022-04-14T07:50:33Z</time>
      </trkpt>
      <trkpt lat="47.62452" lon="1.9353889">
        <ele>143.0</ele>
        <time>2022-04-14T07:50:34Z</time>
      </trkpt>
      <trkpt lat="47.62452" lon="1.9353889">
        <ele>143.0</ele>
        <time>2022-04-14T07:50:35Z</time>
      </trkpt>
      <trkpt lat="47.624554" lon="1.9353573">
        <ele>142.0</ele>
        <time>2022-04-14T07:50:36Z</time>
      </trkpt>
      <trkpt lat="47.624565" lon="1.9353507">
        <ele>143.0</ele>
        <time>2022-04-14T07:50:37Z</time>
      </trkpt>
      <trkpt lat="47.62457" lon="1.9353486">
        <ele>143.0</ele>
        <time>2022-04-14T07:50:38Z</time>
      </trkpt>
      <trkpt lat="47.62458" lon="1.9353508">
        <ele>143.0</ele>
        <time>2022-04-14T07:50:39Z</time>
      </trkpt>
      <trkpt lat="47.62458" lon="1.9353508">
        <ele>143.0</ele>
        <time>2022-04-14T07:50:40Z</time>
      </trkpt>
      <trkpt lat="47.62458" lon="1.9353508">
        <ele>143.0</ele>
        <time>2022-04-14T07:50:41Z</time>
      </trkpt>
      <trkpt lat="47.624603" lon="1.9353418">
        <ele>142.0</ele>
        <time>2022-04-14T07:50:42Z</time>
      </trkpt>
      <trkpt lat="47.62461" lon="1.9353353">
        <ele>142.0</ele>
        <time>2022-04-14T07:50:43Z</time>
      </trkpt>
      <trkpt lat="47.624626" lon="1.935326">
        <ele>142.0</ele>
        <time>2022-04-14T07:50:44Z</time>
      </trkpt>
      <trkpt lat="47.62464" lon="1.9353157">
        <ele>141.0</ele>
        <time>2022-04-14T07:50:45Z</time>
      </trkpt>
      <trkpt lat="47.62464" lon="1.9353157">
        <ele>141.0</ele>
        <time>2022-04-14T07:50:46Z</time>
      </trkpt>
      <trkpt lat="47.62466" lon="1.9352942">
        <ele>141.0</ele>
        <time>2022-04-14T07:50:47Z</time>
      </trkpt>
      <trkpt lat="47.624672" lon="1.9352877">
        <ele>141.0</ele>
        <time>2022-04-14T07:50:48Z</time>
      </trkpt>
      <trkpt lat="47.624687" lon="1.9352822">
        <ele>141.0</ele>
        <time>2022-04-14T07:50:49Z</time>
      </trkpt>
      <trkpt lat="47.6247" lon="1.9352759">
        <ele>141.0</ele>
        <time>2022-04-14T07:50:50Z</time>
      </trkpt>
      <trkpt lat="47.624714" lon="1.9352694">
        <ele>141.0</ele>
        <time>2022-04-14T07:50:51Z</time>
      </trkpt>
      <trkpt lat="47.624714" lon="1.9352694">
        <ele>141.0</ele>
        <time>2022-04-14T07:50:52Z</time>
      </trkpt>
      <trkpt lat="47.624714" lon="1.9352694">
        <ele>141.0</ele>
        <time>2022-04-14T07:50:53Z</time>
      </trkpt>
      <trkpt lat="47.624737" lon="1.9352623">
        <ele>142.0</ele>
        <time>2022-04-14T07:50:54Z</time>
      </trkpt>
      <trkpt lat="47.62474" lon="1.9352568">
        <ele>142.0</ele>
        <time>2022-04-14T07:50:55Z</time>
      </trkpt>
      <trkpt lat="47.624752" lon="1.9352535">
        <ele>141.0</ele>
        <time>2022-04-14T07:50:56Z</time>
      </trkpt>
      <trkpt lat="47.624763" lon="1.9352465">
        <ele>141.0</ele>
        <time>2022-04-14T07:50:57Z</time>
      </trkpt>
      <trkpt lat="47.624775" lon="1.9352399">
        <ele>141.0</ele>
        <time>2022-04-14T07:50:58Z</time>
      </trkpt>
      <trkpt lat="47.624786" lon="1.9352329">
        <ele>141.0</ele>
        <time>2022-04-14T07:50:59Z</time>
      </trkpt>
      <trkpt lat="47.624786" lon="1.9352329">
        <ele>141.0</ele>
        <time>2022-04-14T07:51:00Z</time>
      </trkpt>
      <trkpt lat="47.624786" lon="1.9352329">
        <ele>141.0</ele>
        <time>2022-04-14T07:51:01Z</time>
      </trkpt>
      <trkpt lat="47.624813" lon="1.9352126">
        <ele>141.0</ele>
        <time>2022-04-14T07:51:02Z</time>
      </trkpt>
      <trkpt lat="47.624825" lon="1.935203">
        <ele>140.0</ele>
        <time>2022-04-14T07:51:03Z</time>
      </trkpt>
      <trkpt lat="47.624836" lon="1.9351941">
        <ele>140.0</ele>
        <time>2022-04-14T07:51:04Z</time>
      </trkpt>
      <trkpt lat="47.624847" lon="1.9351897">
        <ele>140.0</ele>
        <time>2022-04-14T07:51:05Z</time>
      </trkpt>
      <trkpt lat="47.624847" lon="1.9351897">
        <ele>140.0</ele>
        <time>2022-04-14T07:51:06Z</time>
      </trkpt>
      <trkpt lat="47.624847" lon="1.9351897">
        <ele>140.0</ele>
        <time>2022-04-14T07:51:07Z</time>
      </trkpt>
      <trkpt lat="47.624878" lon="1.9351763">
        <ele>141.0</ele>
        <time>2022-04-14T07:51:08Z</time>
      </trkpt>
      <trkpt lat="47.624893" lon="1.9351733">
        <ele>141.0</ele>
        <time>2022-04-14T07:51:09Z</time>
      </trkpt>
      <trkpt lat="47.62491" lon="1.935171">
        <ele>141.0</ele>
        <time>2022-04-14T07:51:10Z</time>
      </trkpt>
      <trkpt lat="47.62492" lon="1.9351695">
        <ele>140.0</ele>
        <time>2022-04-14T07:51:11Z</time>
      </trkpt>
      <trkpt lat="47.624935" lon="1.9351646">
        <ele>141.0</ele>
        <time>2022-04-14T07:51:12Z</time>
      </trkpt>
      <trkpt lat="47.624935" lon="1.9351646">
        <ele>141.0</ele>
        <time>2022-04-14T07:51:13Z</time>
      </trkpt>
      <trkpt lat="47.624935" lon="1.9351646">
        <ele>141.0</ele>
        <time>2022-04-14T07:51:14Z</time>
      </trkpt>
      <trkpt lat="47.624954" lon="1.9351591">
        <ele>140.0</ele>
        <time>2022-04-14T07:51:15Z</time>
      </trkpt>
      <trkpt lat="47.62497" lon="1.9351556">
        <ele>139.0</ele>
        <time>2022-04-14T07:51:16Z</time>
      </trkpt>
      <trkpt lat="47.62498" lon="1.935157">
        <ele>139.0</ele>
        <time>2022-04-14T07:51:17Z</time>
      </trkpt>
      <trkpt lat="47.62499" lon="1.9351541">
        <ele>139.0</ele>
        <time>2022-04-14T07:51:18Z</time>
      </trkpt>
      <trkpt lat="47.62499" lon="1.9351541">
        <ele>139.0</ele>
        <time>2022-04-14T07:51:19Z</time>
      </trkpt>
      <trkpt lat="47.62499" lon="1.9351541">
        <ele>139.0</ele>
        <time>2022-04-14T07:51:20Z</time>
      </trkpt>
      <trkpt lat="47.62502" lon="1.935141">
        <ele>138.0</ele>
        <time>2022-04-14T07:51:21Z</time>
      </trkpt>
      <trkpt lat="47.62503" lon="1.9351335">
        <ele>139.0</ele>
        <time>2022-04-14T07:51:22Z</time>
      </trkpt>
      <trkpt lat="47.625042" lon="1.9351256">
        <ele>139.0</ele>
        <time>2022-04-14T07:51:23Z</time>
      </trkpt>
      <trkpt lat="47.625057" lon="1.9351206">
        <ele>139.0</ele>
        <time>2022-04-14T07:51:24Z</time>
      </trkpt>
      <trkpt lat="47.625057" lon="1.9351206">
        <ele>139.0</ele>
        <time>2022-04-14T07:51:25Z</time>
      </trkpt>
      <trkpt lat="47.625057" lon="1.9351206">
        <ele>139.0</ele>
        <time>2022-04-14T07:51:26Z</time>
      </trkpt>
      <trkpt lat="47.625088" lon="1.9351019">
        <ele>139.0</ele>
        <time>2022-04-14T07:51:27Z</time>
      </trkpt>
      <trkpt lat="47.6251" lon="1.9351013">
        <ele>139.0</ele>
        <time>2022-04-14T07:51:28Z</time>
      </trkpt>
      <trkpt lat="47.625107" lon="1.9350979">
        <ele>138.0</ele>
        <time>2022-04-14T07:51:29Z</time>
      </trkpt>
      <trkpt lat="47.62512" lon="1.9350936">
        <ele>137.0</ele>
        <time>2022-04-14T07:51:30Z</time>
      </trkpt>
      <trkpt lat="47.62512" lon="1.9350936">
        <ele>137.0</ele>
        <time>2022-04-14T07:51:31Z</time>
      </trkpt>
      <trkpt lat="47.62512" lon="1.9350936">
        <ele>137.0</ele>
        <time>2022-04-14T07:51:32Z</time>
      </trkpt>
      <trkpt lat="47.625153" lon="1.9350652">
        <ele>136.0</ele>
        <time>2022-04-14T07:51:33Z</time>
      </trkpt>
      <trkpt lat="47.625164" lon="1.9350598">
        <ele>136.0</ele>
        <time>2022-04-14T07:51:34Z</time>
      </trkpt>
      <trkpt lat="47.625175" lon="1.935048">
        <ele>136.0</ele>
        <time>2022-04-14T07:51:35Z</time>
      </trkpt>
      <trkpt lat="47.62519" lon="1.9350412">
        <ele>136.0</ele>
        <time>2022-04-14T07:51:36Z</time>
      </trkpt>
      <trkpt lat="47.6252" lon="1.9350349">
        <ele>135.0</ele>
        <time>2022-04-14T07:51:37Z</time>
      </trkpt>
      <trkpt lat="47.625202" lon="1.9350315">
        <ele>136.0</ele>
        <time>2022-04-14T07:51:38Z</time>
      </trkpt>
      <trkpt lat="47.625214" lon="1.9350269">
        <ele>136.0</ele>
        <time>2022-04-14T07:51:39Z</time>
      </trkpt>
      <trkpt lat="47.62522" lon="1.9350216">
        <ele>136.0</ele>
        <time>2022-04-14T07:51:40Z</time>
      </trkpt>
      <trkpt lat="47.62522" lon="1.9350216">
        <ele>136.0</ele>
        <time>2022-04-14T07:51:41Z</time>
      </trkpt>
      <trkpt lat="47.62522" lon="1.9350216">
        <ele>136.0</ele>
        <time>2022-04-14T07:51:42Z</time>
      </trkpt>
      <trkpt lat="47.625256" lon="1.9350086">
        <ele>135.0</ele>
        <time>2022-04-14T07:51:43Z</time>
      </trkpt>
      <trkpt lat="47.625267" lon="1.9350083">
        <ele>135.0</ele>
        <time>2022-04-14T07:51:44Z</time>
      </trkpt>
      <trkpt lat="47.625275" lon="1.9350059">
        <ele>135.0</ele>
        <time>2022-04-14T07:51:45Z</time>
      </trkpt>
      <trkpt lat="47.625286" lon="1.935005">
        <ele>135.0</ele>
        <time>2022-04-14T07:51:46Z</time>
      </trkpt>
      <trkpt lat="47.625286" lon="1.935005">
        <ele>135.0</ele>
        <time>2022-04-14T07:51:47Z</time>
      </trkpt>
      <trkpt lat="47.625286" lon="1.935005">
        <ele>135.0</ele>
        <time>2022-04-14T07:51:48Z</time>
      </trkpt>
      <trkpt lat="47.625313" lon="1.9349836">
        <ele>134.0</ele>
        <time>2022-04-14T07:51:49Z</time>
      </trkpt>
      <trkpt lat="47.625324" lon="1.9349772">
        <ele>134.0</ele>
        <time>2022-04-14T07:51:50Z</time>
      </trkpt>
      <trkpt lat="47.62534" lon="1.9349709">
        <ele>135.0</ele>
        <time>2022-04-14T07:51:51Z</time>
      </trkpt>
      <trkpt lat="47.625355" lon="1.934965">
        <ele>135.0</ele>
        <time>2022-04-14T07:51:52Z</time>
      </trkpt>
      <trkpt lat="47.625366" lon="1.9349601">
        <ele>135.0</ele>
        <time>2022-04-14T07:51:53Z</time>
      </trkpt>
      <trkpt lat="47.625385" lon="1.9349529">
        <ele>135.0</ele>
        <time>2022-04-14T07:51:54Z</time>
      </trkpt>
      <trkpt lat="47.625397" lon="1.93495">
        <ele>135.0</ele>
        <time>2022-04-14T07:51:55Z</time>
      </trkpt>
      <trkpt lat="47.62541" lon="1.9349431">
        <ele>135.0</ele>
        <time>2022-04-14T07:51:56Z</time>
      </trkpt>
      <trkpt lat="47.62542" lon="1.934942">
        <ele>134.0</ele>
        <time>2022-04-14T07:51:57Z</time>
      </trkpt>
      <trkpt lat="47.625427" lon="1.9349402">
        <ele>135.0</ele>
        <time>2022-04-14T07:51:58Z</time>
      </trkpt>
      <trkpt lat="47.625435" lon="1.9349313">
        <ele>135.0</ele>
        <time>2022-04-14T07:51:59Z</time>
      </trkpt>
      <trkpt lat="47.62544" lon="1.9349293">
        <ele>135.0</ele>
        <time>2022-04-14T07:52:00Z</time>
      </trkpt>
      <trkpt lat="47.62544" lon="1.9349275">
        <ele>135.0</ele>
        <time>2022-04-14T07:52:01Z</time>
      </trkpt>
      <trkpt lat="47.625443" lon="1.9349359">
        <ele>134.0</ele>
        <time>2022-04-14T07:52:02Z</time>
      </trkpt>
      <trkpt lat="47.625454" lon="1.9349294">
        <ele>134.0</ele>
        <time>2022-04-14T07:52:03Z</time>
      </trkpt>
      <trkpt lat="47.625465" lon="1.9349239">
        <ele>134.0</ele>
        <time>2022-04-14T07:52:04Z</time>
      </trkpt>
      <trkpt lat="47.625477" lon="1.9349201">
        <ele>133.0</ele>
        <time>2022-04-14T07:52:05Z</time>
      </trkpt>
      <trkpt lat="47.62549" lon="1.9349133">
        <ele>133.0</ele>
        <time>2022-04-14T07:52:06Z</time>
      </trkpt>
      <trkpt lat="47.62549" lon="1.9349133">
        <ele>133.0</ele>
        <time>2022-04-14T07:52:07Z</time>
      </trkpt>
      <trkpt lat="47.62549" lon="1.9349133">
        <ele>133.0</ele>
        <time>2022-04-14T07:52:08Z</time>
      </trkpt>
      <trkpt lat="47.62552" lon="1.9348792">
        <ele>132.0</ele>
        <time>2022-04-14T07:52:09Z</time>
      </trkpt>
      <trkpt lat="47.62553" lon="1.9348685">
        <ele>132.0</ele>
        <time>2022-04-14T07:52:10Z</time>
      </trkpt>
      <trkpt lat="47.62554" lon="1.9348602">
        <ele>132.0</ele>
        <time>2022-04-14T07:52:11Z</time>
      </trkpt>
      <trkpt lat="47.62555" lon="1.9348574">
        <ele>133.0</ele>
        <time>2022-04-14T07:52:12Z</time>
      </trkpt>
      <trkpt lat="47.625557" lon="1.9348537">
        <ele>134.0</ele>
        <time>2022-04-14T07:52:13Z</time>
      </trkpt>
      <trkpt lat="47.62556" lon="1.9348483">
        <ele>134.0</ele>
        <time>2022-04-14T07:52:14Z</time>
      </trkpt>
      <trkpt lat="47.62557" lon="1.9348472">
        <ele>134.0</ele>
        <time>2022-04-14T07:52:15Z</time>
      </trkpt>
      <trkpt lat="47.62557" lon="1.9348472">
        <ele>134.0</ele>
        <time>2022-04-14T07:52:16Z</time>
      </trkpt>
      <trkpt lat="47.62557" lon="1.9348472">
        <ele>134.0</ele>
        <time>2022-04-14T07:52:17Z</time>
      </trkpt>
      <trkpt lat="47.625587" lon="1.9348577">
        <ele>134.0</ele>
        <time>2022-04-14T07:52:18Z</time>
      </trkpt>
      <trkpt lat="47.62559" lon="1.9348549">
        <ele>134.0</ele>
        <time>2022-04-14T07:52:19Z</time>
      </trkpt>
      <trkpt lat="47.625603" lon="1.9348514">
        <ele>133.0</ele>
        <time>2022-04-14T07:52:20Z</time>
      </trkpt>
      <trkpt lat="47.62561" lon="1.9348495">
        <ele>133.0</ele>
        <time>2022-04-14T07:52:21Z</time>
      </trkpt>
      <trkpt lat="47.62561" lon="1.9348495">
        <ele>133.0</ele>
        <time>2022-04-14T07:52:22Z</time>
      </trkpt>
      <trkpt lat="47.62561" lon="1.9348495">
        <ele>133.0</ele>
        <time>2022-04-14T07:52:23Z</time>
      </trkpt>
      <trkpt lat="47.625637" lon="1.9348295">
        <ele>135.0</ele>
        <time>2022-04-14T07:52:24Z</time>
      </trkpt>
      <trkpt lat="47.625652" lon="1.9348273">
        <ele>135.0</ele>
        <time>2022-04-14T07:52:25Z</time>
      </trkpt>
      <trkpt lat="47.625664" lon="1.9348223">
        <ele>135.0</ele>
        <time>2022-04-14T07:52:26Z</time>
      </trkpt>
      <trkpt lat="47.62568" lon="1.9348189">
        <ele>136.0</ele>
        <time>2022-04-14T07:52:27Z</time>
      </trkpt>
      <trkpt lat="47.62568" lon="1.9348189">
        <ele>136.0</ele>
        <time>2022-04-14T07:52:28Z</time>
      </trkpt>
      <trkpt lat="47.62568" lon="1.9348189">
        <ele>136.0</ele>
        <time>2022-04-14T07:52:29Z</time>
      </trkpt>
      <trkpt lat="47.625706" lon="1.9348089">
        <ele>136.0</ele>
        <time>2022-04-14T07:52:30Z</time>
      </trkpt>
      <trkpt lat="47.625717" lon="1.9348005">
        <ele>136.0</ele>
        <time>2022-04-14T07:52:31Z</time>
      </trkpt>
      <trkpt lat="47.625725" lon="1.9347991">
        <ele>136.0</ele>
        <time>2022-04-14T07:52:32Z</time>
      </trkpt>
      <trkpt lat="47.625736" lon="1.9347893">
        <ele>135.0</ele>
        <time>2022-04-14T07:52:33Z</time>
      </trkpt>
      <trkpt lat="47.625736" lon="1.9347893">
        <ele>135.0</ele>
        <time>2022-04-14T07:52:34Z</time>
      </trkpt>
      <trkpt lat="47.625736" lon="1.9347893">
        <ele>135.0</ele>
        <time>2022-04-14T07:52:35Z</time>
      </trkpt>
      <trkpt lat="47.62576" lon="1.934786">
        <ele>135.0</ele>
        <time>2022-04-14T07:52:36Z</time>
      </trkpt>
      <trkpt lat="47.625763" lon="1.9347893">
        <ele>136.0</ele>
        <time>2022-04-14T07:52:37Z</time>
      </trkpt>
      <trkpt lat="47.625767" lon="1.934787">
        <ele>136.0</ele>
        <time>2022-04-14T07:52:38Z</time>
      </trkpt>
      <trkpt lat="47.62578" lon="1.9347807">
        <ele>136.0</ele>
        <time>2022-04-14T07:52:39Z</time>
      </trkpt>
      <trkpt lat="47.62578" lon="1.9347807">
        <ele>136.0</ele>
        <time>2022-04-14T07:52:40Z</time>
      </trkpt>
      <trkpt lat="47.62578" lon="1.9347807">
        <ele>136.0</ele>
        <time>2022-04-14T07:52:41Z</time>
      </trkpt>
      <trkpt lat="47.625805" lon="1.9347626">
        <ele>136.0</ele>
        <time>2022-04-14T07:52:42Z</time>
      </trkpt>
      <trkpt lat="47.62581" lon="1.9347506">
        <ele>136.0</ele>
        <time>2022-04-14T07:52:43Z</time>
      </trkpt>
      <trkpt lat="47.62582" lon="1.9347404">
        <ele>136.0</ele>
        <time>2022-04-14T07:52:44Z</time>
      </trkpt>
      <trkpt lat="47.625828" lon="1.9347255">
        <ele>136.0</ele>
        <time>2022-04-14T07:52:45Z</time>
      </trkpt>
      <trkpt lat="47.625828" lon="1.9347255">
        <ele>136.0</ele>
        <time>2022-04-14T07:52:46Z</time>
      </trkpt>
      <trkpt lat="47.625828" lon="1.9347255">
        <ele>136.0</ele>
        <time>2022-04-14T07:52:47Z</time>
      </trkpt>
      <trkpt lat="47.62585" lon="1.9347013">
        <ele>136.0</ele>
        <time>2022-04-14T07:52:48Z</time>
      </trkpt>
      <trkpt lat="47.62586" lon="1.9346925">
        <ele>136.0</ele>
        <time>2022-04-14T07:52:49Z</time>
      </trkpt>
      <trkpt lat="47.625874" lon="1.9346828">
        <ele>135.0</ele>
        <time>2022-04-14T07:52:50Z</time>
      </trkpt>
      <trkpt lat="47.625885" lon="1.9346731">
        <ele>134.0</ele>
        <time>2022-04-14T07:52:51Z</time>
      </trkpt>
      <trkpt lat="47.625885" lon="1.9346731">
        <ele>134.0</ele>
        <time>2022-04-14T07:52:52Z</time>
      </trkpt>
      <trkpt lat="47.625885" lon="1.9346731">
        <ele>134.0</ele>
        <time>2022-04-14T07:52:53Z</time>
      </trkpt>
      <trkpt lat="47.62591" lon="1.9346507">
        <ele>133.0</ele>
        <time>2022-04-14T07:52:54Z</time>
      </trkpt>
      <trkpt lat="47.625927" lon="1.9346411">
        <ele>133.0</ele>
        <time>2022-04-14T07:52:55Z</time>
      </trkpt>
      <trkpt lat="47.625942" lon="1.934629">
        <ele>133.0</ele>
        <time>2022-04-14T07:52:56Z</time>
      </trkpt>
      <trkpt lat="47.625957" lon="1.9346145">
        <ele>133.0</ele>
        <time>2022-04-14T07:52:57Z</time>
      </trkpt>
      <trkpt lat="47.625957" lon="1.9346145">
        <ele>133.0</ele>
        <time>2022-04-14T07:52:58Z</time>
      </trkpt>
      <trkpt lat="47.625957" lon="1.9346145">
        <ele>133.0</ele>
        <time>2022-04-14T07:52:59Z</time>
      </trkpt>
      <trkpt lat="47.625996" lon="1.9345914">
        <ele>133.0</ele>
        <time>2022-04-14T07:53:00Z</time>
      </trkpt>
      <trkpt lat="47.626007" lon="1.9345819">
        <ele>133.0</ele>
        <time>2022-04-14T07:53:01Z</time>
      </trkpt>
      <trkpt lat="47.626015" lon="1.9345752">
        <ele>134.0</ele>
        <time>2022-04-14T07:53:02Z</time>
      </trkpt>
      <trkpt lat="47.626026" lon="1.9345689">
        <ele>134.0</ele>
        <time>2022-04-14T07:53:03Z</time>
      </trkpt>
      <trkpt lat="47.626038" lon="1.9345646">
        <ele>134.0</ele>
        <time>2022-04-14T07:53:04Z</time>
      </trkpt>
      <trkpt lat="47.626038" lon="1.9345646">
        <ele>134.0</ele>
        <time>2022-04-14T07:53:05Z</time>
      </trkpt>
      <trkpt lat="47.626038" lon="1.9345646">
        <ele>134.0</ele>
        <time>2022-04-14T07:53:06Z</time>
      </trkpt>
      <trkpt lat="47.62606" lon="1.9345527">
        <ele>134.0</ele>
        <time>2022-04-14T07:53:07Z</time>
      </trkpt>
      <trkpt lat="47.626076" lon="1.9345475">
        <ele>134.0</ele>
        <time>2022-04-14T07:53:08Z</time>
      </trkpt>
      <trkpt lat="47.626083" lon="1.9345398">
        <ele>134.0</ele>
        <time>2022-04-14T07:53:09Z</time>
      </trkpt>
      <trkpt lat="47.626095" lon="1.9345325">
        <ele>133.0</ele>
        <time>2022-04-14T07:53:10Z</time>
      </trkpt>
      <trkpt lat="47.626095" lon="1.9345325">
        <ele>133.0</ele>
        <time>2022-04-14T07:53:11Z</time>
      </trkpt>
      <trkpt lat="47.626118" lon="1.9345126">
        <ele>133.0</ele>
        <time>2022-04-14T07:53:12Z</time>
      </trkpt>
      <trkpt lat="47.626133" lon="1.934501">
        <ele>132.0</ele>
        <time>2022-04-14T07:53:13Z</time>
      </trkpt>
      <trkpt lat="47.62615" lon="1.9344891">
        <ele>132.0</ele>
        <time>2022-04-14T07:53:14Z</time>
      </trkpt>
      <trkpt lat="47.626163" lon="1.9344748">
        <ele>132.0</ele>
        <time>2022-04-14T07:53:15Z</time>
      </trkpt>
      <trkpt lat="47.62618" lon="1.9344656">
        <ele>132.0</ele>
        <time>2022-04-14T07:53:16Z</time>
      </trkpt>
      <trkpt lat="47.626194" lon="1.9344573">
        <ele>132.0</ele>
        <time>2022-04-14T07:53:17Z</time>
      </trkpt>
      <trkpt lat="47.62621" lon="1.9344511">
        <ele>131.0</ele>
        <time>2022-04-14T07:53:18Z</time>
      </trkpt>
      <trkpt lat="47.62622" lon="1.9344429">
        <ele>131.0</ele>
        <time>2022-04-14T07:53:19Z</time>
      </trkpt>
      <trkpt lat="47.626236" lon="1.9344367">
        <ele>131.0</ele>
        <time>2022-04-14T07:53:20Z</time>
      </trkpt>
      <trkpt lat="47.626255" lon="1.9344312">
        <ele>130.0</ele>
        <time>2022-04-14T07:53:21Z</time>
      </trkpt>
      <trkpt lat="47.626255" lon="1.9344312">
        <ele>130.0</ele>
        <time>2022-04-14T07:53:22Z</time>
      </trkpt>
      <trkpt lat="47.626255" lon="1.9344312">
        <ele>130.0</ele>
        <time>2022-04-14T07:53:23Z</time>
      </trkpt>
      <trkpt lat="47.626286" lon="1.9344146">
        <ele>129.0</ele>
        <time>2022-04-14T07:53:24Z</time>
      </trkpt>
      <trkpt lat="47.626297" lon="1.9344101">
        <ele>129.0</ele>
        <time>2022-04-14T07:53:25Z</time>
      </trkpt>
      <trkpt lat="47.626305" lon="1.9344035">
        <ele>129.0</ele>
        <time>2022-04-14T07:53:26Z</time>
      </trkpt>
      <trkpt lat="47.626316" lon="1.9343979">
        <ele>129.0</ele>
        <time>2022-04-14T07:53:27Z</time>
      </trkpt>
      <trkpt lat="47.626328" lon="1.9343883">
        <ele>129.0</ele>
        <time>2022-04-14T07:53:28Z</time>
      </trkpt>
      <trkpt lat="47.62634" lon="1.9343842">
        <ele>129.0</ele>
        <time>2022-04-14T07:53:29Z</time>
      </trkpt>
      <trkpt lat="47.62635" lon="1.9343777">
        <ele>129.0</ele>
        <time>2022-04-14T07:53:30Z</time>
      </trkpt>
      <trkpt lat="47.626354" lon="1.9343688">
        <ele>129.0</ele>
        <time>2022-04-14T07:53:31Z</time>
      </trkpt>
      <trkpt lat="47.62636" lon="1.9343638">
        <ele>129.0</ele>
        <time>2022-04-14T07:53:32Z</time>
      </trkpt>
      <trkpt lat="47.62637" lon="1.9343588">
        <ele>129.0</ele>
        <time>2022-04-14T07:53:33Z</time>
      </trkpt>
      <trkpt lat="47.626377" lon="1.9343523">
        <ele>129.0</ele>
        <time>2022-04-14T07:53:34Z</time>
      </trkpt>
      <trkpt lat="47.626377" lon="1.9343523">
        <ele>129.0</ele>
        <time>2022-04-14T07:53:35Z</time>
      </trkpt>
      <trkpt lat="47.626377" lon="1.9343523">
        <ele>129.0</ele>
        <time>2022-04-14T07:53:36Z</time>
      </trkpt>
      <trkpt lat="47.626404" lon="1.934331">
        <ele>129.0</ele>
        <time>2022-04-14T07:53:37Z</time>
      </trkpt>
      <trkpt lat="47.62642" lon="1.9343152">
        <ele>128.0</ele>
        <time>2022-04-14T07:53:38Z</time>
      </trkpt>
      <trkpt lat="47.62643" lon="1.9343082">
        <ele>127.0</ele>
        <time>2022-04-14T07:53:39Z</time>
      </trkpt>
      <trkpt lat="47.626442" lon="1.9343013">
        <ele>127.0</ele>
        <time>2022-04-14T07:53:40Z</time>
      </trkpt>
      <trkpt lat="47.62645" lon="1.9342943">
        <ele>128.0</ele>
        <time>2022-04-14T07:53:41Z</time>
      </trkpt>
      <trkpt lat="47.62646" lon="1.9342904">
        <ele>128.0</ele>
        <time>2022-04-14T07:53:42Z</time>
      </trkpt>
      <trkpt lat="47.626472" lon="1.9342902">
        <ele>128.0</ele>
        <time>2022-04-14T07:53:43Z</time>
      </trkpt>
      <trkpt lat="47.62649" lon="1.9342879">
        <ele>129.0</ele>
        <time>2022-04-14T07:53:44Z</time>
      </trkpt>
      <trkpt lat="47.626503" lon="1.9342871">
        <ele>128.0</ele>
        <time>2022-04-14T07:53:45Z</time>
      </trkpt>
      <trkpt lat="47.626514" lon="1.934286">
        <ele>128.0</ele>
        <time>2022-04-14T07:53:46Z</time>
      </trkpt>
      <trkpt lat="47.626514" lon="1.934286">
        <ele>128.0</ele>
        <time>2022-04-14T07:53:47Z</time>
      </trkpt>
      <trkpt lat="47.626514" lon="1.934286">
        <ele>128.0</ele>
        <time>2022-04-14T07:53:48Z</time>
      </trkpt>
      <trkpt lat="47.626534" lon="1.9342723">
        <ele>127.0</ele>
        <time>2022-04-14T07:53:49Z</time>
      </trkpt>
      <trkpt lat="47.626545" lon="1.934263">
        <ele>127.0</ele>
        <time>2022-04-14T07:53:50Z</time>
      </trkpt>
      <trkpt lat="47.62656" lon="1.9342554">
        <ele>127.0</ele>
        <time>2022-04-14T07:53:51Z</time>
      </trkpt>
      <trkpt lat="47.62657" lon="1.9342521">
        <ele>127.0</ele>
        <time>2022-04-14T07:53:52Z</time>
      </trkpt>
      <trkpt lat="47.62657" lon="1.9342521">
        <ele>127.0</ele>
        <time>2022-04-14T07:53:53Z</time>
      </trkpt>
      <trkpt lat="47.62657" lon="1.9342521">
        <ele>127.0</ele>
        <time>2022-04-14T07:53:54Z</time>
      </trkpt>
      <trkpt lat="47.626595" lon="1.9342389">
        <ele>127.0</ele>
        <time>2022-04-14T07:53:55Z</time>
      </trkpt>
      <trkpt lat="47.626602" lon="1.9342343">
        <ele>127.0</ele>
        <time>2022-04-14T07:53:56Z</time>
      </trkpt>
      <trkpt lat="47.626614" lon="1.9342302">
        <ele>127.0</ele>
        <time>2022-04-14T07:53:57Z</time>
      </trkpt>
      <trkpt lat="47.62662" lon="1.9342268">
        <ele>128.0</ele>
        <time>2022-04-14T07:53:58Z</time>
      </trkpt>
      <trkpt lat="47.62664" lon="1.9342153">
        <ele>128.0</ele>
        <time>2022-04-14T07:53:59Z</time>
      </trkpt>
      <trkpt lat="47.626663" lon="1.934207">
        <ele>128.0</ele>
        <time>2022-04-14T07:54:00Z</time>
      </trkpt>
      <trkpt lat="47.626675" lon="1.9342031">
        <ele>128.0</ele>
        <time>2022-04-14T07:54:01Z</time>
      </trkpt>
      <trkpt lat="47.62669" lon="1.934195">
        <ele>128.0</ele>
        <time>2022-04-14T07:54:02Z</time>
      </trkpt>
      <trkpt lat="47.626705" lon="1.9341807">
        <ele>128.0</ele>
        <time>2022-04-14T07:54:03Z</time>
      </trkpt>
      <trkpt lat="47.626724" lon="1.934169">
        <ele>128.0</ele>
        <time>2022-04-14T07:54:04Z</time>
      </trkpt>
      <trkpt lat="47.62674" lon="1.9341581">
        <ele>128.0</ele>
        <time>2022-04-14T07:54:05Z</time>
      </trkpt>
      <trkpt lat="47.62675" lon="1.9341539">
        <ele>128.0</ele>
        <time>2022-04-14T07:54:06Z</time>
      </trkpt>
      <trkpt lat="47.626766" lon="1.9341551">
        <ele>128.0</ele>
        <time>2022-04-14T07:54:07Z</time>
      </trkpt>
      <trkpt lat="47.626774" lon="1.9341499">
        <ele>128.0</ele>
        <time>2022-04-14T07:54:08Z</time>
      </trkpt>
      <trkpt lat="47.626785" lon="1.9341476">
        <ele>128.0</ele>
        <time>2022-04-14T07:54:09Z</time>
      </trkpt>
      <trkpt lat="47.626785" lon="1.9341476">
        <ele>128.0</ele>
        <time>2022-04-14T07:54:10Z</time>
      </trkpt>
      <trkpt lat="47.626785" lon="1.9341476">
        <ele>128.0</ele>
        <time>2022-04-14T07:54:11Z</time>
      </trkpt>
      <trkpt lat="47.626816" lon="1.9341453">
        <ele>128.0</ele>
        <time>2022-04-14T07:54:12Z</time>
      </trkpt>
      <trkpt lat="47.626827" lon="1.9341384">
        <ele>128.0</ele>
        <time>2022-04-14T07:54:13Z</time>
      </trkpt>
      <trkpt lat="47.626835" lon="1.9341321">
        <ele>128.0</ele>
        <time>2022-04-14T07:54:14Z</time>
      </trkpt>
      <trkpt lat="47.62685" lon="1.9341208">
        <ele>127.0</ele>
        <time>2022-04-14T07:54:15Z</time>
      </trkpt>
      <trkpt lat="47.62685" lon="1.9341208">
        <ele>127.0</ele>
        <time>2022-04-14T07:54:16Z</time>
      </trkpt>
      <trkpt lat="47.62685" lon="1.9341208">
        <ele>127.0</ele>
        <time>2022-04-14T07:54:17Z</time>
      </trkpt>
      <trkpt lat="47.62687" lon="1.9341002">
        <ele>126.0</ele>
        <time>2022-04-14T07:54:18Z</time>
      </trkpt>
      <trkpt lat="47.62688" lon="1.9340928">
        <ele>126.0</ele>
        <time>2022-04-14T07:54:19Z</time>
      </trkpt>
      <trkpt lat="47.626892" lon="1.9340849">
        <ele>126.0</ele>
        <time>2022-04-14T07:54:20Z</time>
      </trkpt>
      <trkpt lat="47.626907" lon="1.9340767">
        <ele>126.0</ele>
        <time>2022-04-14T07:54:21Z</time>
      </trkpt>
      <trkpt lat="47.62691" lon="1.9340696">
        <ele>125.0</ele>
        <time>2022-04-14T07:54:22Z</time>
      </trkpt>
      <trkpt lat="47.62692" lon="1.9340659">
        <ele>126.0</ele>
        <time>2022-04-14T07:54:23Z</time>
      </trkpt>
      <trkpt lat="47.62693" lon="1.9340601">
        <ele>126.0</ele>
        <time>2022-04-14T07:54:24Z</time>
      </trkpt>
      <trkpt lat="47.626945" lon="1.9340591">
        <ele>127.0</ele>
        <time>2022-04-14T07:54:25Z</time>
      </trkpt>
      <trkpt lat="47.626957" lon="1.9340541">
        <ele>127.0</ele>
        <time>2022-04-14T07:54:26Z</time>
      </trkpt>
      <trkpt lat="47.62697" lon="1.9340502">
        <ele>127.0</ele>
        <time>2022-04-14T07:54:27Z</time>
      </trkpt>
      <trkpt lat="47.62698" lon="1.9340459">
        <ele>128.0</ele>
        <time>2022-04-14T07:54:28Z</time>
      </trkpt>
      <trkpt lat="47.62699" lon="1.934042">
        <ele>128.0</ele>
        <time>2022-04-14T07:54:29Z</time>
      </trkpt>
      <trkpt lat="47.627003" lon="1.934038">
        <ele>128.0</ele>
        <time>2022-04-14T07:54:30Z</time>
      </trkpt>
      <trkpt lat="47.627014" lon="1.934036">
        <ele>129.0</ele>
        <time>2022-04-14T07:54:31Z</time>
      </trkpt>
      <trkpt lat="47.62702" lon="1.9340357">
        <ele>129.0</ele>
        <time>2022-04-14T07:54:32Z</time>
      </trkpt>
      <trkpt lat="47.62702" lon="1.9340357">
        <ele>129.0</ele>
        <time>2022-04-14T07:54:33Z</time>
      </trkpt>
      <trkpt lat="47.62702" lon="1.9340357">
        <ele>129.0</ele>
        <time>2022-04-14T07:54:34Z</time>
      </trkpt>
      <trkpt lat="47.627052" lon="1.9340177">
        <ele>128.0</ele>
        <time>2022-04-14T07:54:35Z</time>
      </trkpt>
      <trkpt lat="47.627064" lon="1.9340092">
        <ele>128.0</ele>
        <time>2022-04-14T07:54:36Z</time>
      </trkpt>
      <trkpt lat="47.62708" lon="1.9340065">
        <ele>129.0</ele>
        <time>2022-04-14T07:54:37Z</time>
      </trkpt>
      <trkpt lat="47.627087" lon="1.9340032">
        <ele>129.0</ele>
        <time>2022-04-14T07:54:38Z</time>
      </trkpt>
      <trkpt lat="47.6271" lon="1.9340028">
        <ele>129.0</ele>
        <time>2022-04-14T07:54:39Z</time>
      </trkpt>
      <trkpt lat="47.627117" lon="1.934003">
        <ele>129.0</ele>
        <time>2022-04-14T07:54:40Z</time>
      </trkpt>
      <trkpt lat="47.627132" lon="1.9340026">
        <ele>129.0</ele>
        <time>2022-04-14T07:54:41Z</time>
      </trkpt>
      <trkpt lat="47.627132" lon="1.9340026">
        <ele>129.0</ele>
        <time>2022-04-14T07:54:42Z</time>
      </trkpt>
      <trkpt lat="47.627132" lon="1.9340026">
        <ele>129.0</ele>
        <time>2022-04-14T07:54:43Z</time>
      </trkpt>
      <trkpt lat="47.627163" lon="1.933994">
        <ele>128.0</ele>
        <time>2022-04-14T07:54:44Z</time>
      </trkpt>
      <trkpt lat="47.62718" lon="1.9339956">
        <ele>128.0</ele>
        <time>2022-04-14T07:54:45Z</time>
      </trkpt>
      <trkpt lat="47.627193" lon="1.9339929">
        <ele>129.0</ele>
        <time>2022-04-14T07:54:46Z</time>
      </trkpt>
      <trkpt lat="47.62721" lon="1.9339887">
        <ele>129.0</ele>
        <time>2022-04-14T07:54:47Z</time>
      </trkpt>
      <trkpt lat="47.627228" lon="1.9339813">
        <ele>130.0</ele>
        <time>2022-04-14T07:54:48Z</time>
      </trkpt>
      <trkpt lat="47.62724" lon="1.9339782">
        <ele>131.0</ele>
        <time>2022-04-14T07:54:49Z</time>
      </trkpt>
      <trkpt lat="47.62725" lon="1.9339727">
        <ele>131.0</ele>
        <time>2022-04-14T07:54:50Z</time>
      </trkpt>
      <trkpt lat="47.62725" lon="1.9339727">
        <ele>131.0</ele>
        <time>2022-04-14T07:54:51Z</time>
      </trkpt>
      <trkpt lat="47.62725" lon="1.9339727">
        <ele>131.0</ele>
        <time>2022-04-14T07:54:52Z</time>
      </trkpt>
      <trkpt lat="47.62728" lon="1.93397">
        <ele>132.0</ele>
        <time>2022-04-14T07:54:53Z</time>
      </trkpt>
      <trkpt lat="47.627293" lon="1.933971">
        <ele>132.0</ele>
        <time>2022-04-14T07:54:54Z</time>
      </trkpt>
      <trkpt lat="47.627308" lon="1.9339696">
        <ele>132.0</ele>
        <time>2022-04-14T07:54:55Z</time>
      </trkpt>
      <trkpt lat="47.627323" lon="1.9339716">
        <ele>134.0</ele>
        <time>2022-04-14T07:54:56Z</time>
      </trkpt>
      <trkpt lat="47.627327" lon="1.9339745">
        <ele>135.0</ele>
        <time>2022-04-14T07:54:57Z</time>
      </trkpt>
      <trkpt lat="47.62733" lon="1.9339695">
        <ele>135.0</ele>
        <time>2022-04-14T07:54:58Z</time>
      </trkpt>
      <trkpt lat="47.627335" lon="1.9339691">
        <ele>135.0</ele>
        <time>2022-04-14T07:54:59Z</time>
      </trkpt>
      <trkpt lat="47.627335" lon="1.9339688">
        <ele>135.0</ele>
        <time>2022-04-14T07:55:00Z</time>
      </trkpt>
      <trkpt lat="47.627335" lon="1.9339688">
        <ele>135.0</ele>
        <time>2022-04-14T07:55:00Z</time>
      </trkpt>
      <trkpt lat="47.627335" lon="1.9339688">
        <ele>135.0</ele>
        <time>2022-04-14T07:55:00Z</time>
      </trkpt>
      <trkpt lat="47.62763" lon="1.9339023">
        <ele>171.0</ele>
        <time>2022-04-14T08:01:22Z</time>
      </trkpt>
      <trkpt lat="47.62763" lon="1.9339023">
        <ele>171.0</ele>
        <time>2022-04-14T08:01:23Z</time>
      </trkpt>
      <trkpt lat="47.62763" lon="1.9339023">
        <ele>171.0</ele>
        <time>2022-04-14T08:01:24Z</time>
      </trkpt>
      <trkpt lat="47.62763" lon="1.9339023">
        <ele>171.0</ele>
        <time>2022-04-14T08:01:25Z</time>
      </trkpt>
      <trkpt lat="47.62763" lon="1.9339023">
        <ele>171.0</ele>
        <time>2022-04-14T08:01:26Z</time>
      </trkpt>
      <trkpt lat="47.62763" lon="1.9339023">
        <ele>171.0</ele>
        <time>2022-04-14T08:01:27Z</time>
      </trkpt>
      <trkpt lat="47.62763" lon="1.9339023">
        <ele>171.0</ele>
        <time>2022-04-14T08:01:28Z</time>
      </trkpt>
      <trkpt lat="47.62763" lon="1.9339023">
        <ele>171.0</ele>
        <time>2022-04-14T08:01:29Z</time>
      </trkpt>
      <trkpt lat="47.62763" lon="1.9339023">
        <ele>171.0</ele>
        <time>2022-04-14T08:01:30Z</time>
      </trkpt>
      <trkpt lat="47.62763" lon="1.9339023">
        <ele>171.0</ele>
        <time>2022-04-14T08:01:31Z</time>
      </trkpt>
      <trkpt lat="47.62763" lon="1.9339023">
        <ele>171.0</ele>
        <time>2022-04-14T08:01:31Z</time>
      </trkpt>
      <trkpt lat="47.62763" lon="1.9339023">
        <ele>171.0</ele>
        <time>2022-04-14T08:01:31Z</time>
      </trkpt>
      <trkpt lat="47.627663" lon="1.9338735">
        <ele>170.0</ele>
        <time>2022-04-14T08:03:42Z</time>
      </trkpt>
      <trkpt lat="47.627663" lon="1.9338735">
        <ele>170.0</ele>
        <time>2022-04-14T08:03:43Z</time>
      </trkpt>
      <trkpt lat="47.627663" lon="1.9338735">
        <ele>170.0</ele>
        <time>2022-04-14T08:03:44Z</time>
      </trkpt>
      <trkpt lat="47.627663" lon="1.9338735">
        <ele>170.0</ele>
        <time>2022-04-14T08:03:44Z</time>
      </trkpt>
      <trkpt lat="47.627663" lon="1.9338735">
        <ele>170.0</ele>
        <time>2022-04-14T08:03:44Z</time>
      </trkpt>
      <trkpt lat="47.627678" lon="1.9338815">
        <ele>167.0</ele>
        <time>2022-04-14T08:10:04Z</time>
      </trkpt>
      <trkpt lat="47.627693" lon="1.9338782">
        <ele>167.0</ele>
        <time>2022-04-14T08:10:05Z</time>
      </trkpt>
      <trkpt lat="47.627716" lon="1.933878">
        <ele>166.0</ele>
        <time>2022-04-14T08:10:07Z</time>
      </trkpt>
      <trkpt lat="47.627728" lon="1.9338799">
        <ele>166.0</ele>
        <time>2022-04-14T08:10:08Z</time>
      </trkpt>
      <trkpt lat="47.627743" lon="1.9338856">
        <ele>166.0</ele>
        <time>2022-04-14T08:10:09Z</time>
      </trkpt>
      <trkpt lat="47.627754" lon="1.9338915">
        <ele>166.0</ele>
        <time>2022-04-14T08:10:10Z</time>
      </trkpt>
      <trkpt lat="47.627766" lon="1.9338995">
        <ele>166.0</ele>
        <time>2022-04-14T08:10:11Z</time>
      </trkpt>
      <trkpt lat="47.627777" lon="1.933909">
        <ele>165.0</ele>
        <time>2022-04-14T08:10:12Z</time>
      </trkpt>
      <trkpt lat="47.627785" lon="1.9339172">
        <ele>165.0</ele>
        <time>2022-04-14T08:10:13Z</time>
      </trkpt>
      <trkpt lat="47.627796" lon="1.9339296">
        <ele>165.0</ele>
        <time>2022-04-14T08:10:14Z</time>
      </trkpt>
      <trkpt lat="47.627808" lon="1.933941">
        <ele>165.0</ele>
        <time>2022-04-14T08:10:15Z</time>
      </trkpt>
      <trkpt lat="47.62782" lon="1.9339503">
        <ele>165.0</ele>
        <time>2022-04-14T08:10:16Z</time>
      </trkpt>
      <trkpt lat="47.627827" lon="1.9339644">
        <ele>165.0</ele>
        <time>2022-04-14T08:10:17Z</time>
      </trkpt>
      <trkpt lat="47.62784" lon="1.9339784">
        <ele>166.0</ele>
        <time>2022-04-14T08:10:18Z</time>
      </trkpt>
      <trkpt lat="47.62785" lon="1.933988">
        <ele>165.0</ele>
        <time>2022-04-14T08:10:19Z</time>
      </trkpt>
      <trkpt lat="47.62786" lon="1.9339945">
        <ele>165.0</ele>
        <time>2022-04-14T08:10:20Z</time>
      </trkpt>
      <trkpt lat="47.627876" lon="1.9340011">
        <ele>165.0</ele>
        <time>2022-04-14T08:10:21Z</time>
      </trkpt>
      <trkpt lat="47.62789" lon="1.9340084">
        <ele>165.0</ele>
        <time>2022-04-14T08:10:22Z</time>
      </trkpt>
      <trkpt lat="47.62792" lon="1.9340239">
        <ele>165.0</ele>
        <time>2022-04-14T08:10:24Z</time>
      </trkpt>
      <trkpt lat="47.62795" lon="1.9340429">
        <ele>165.0</ele>
        <time>2022-04-14T08:10:26Z</time>
      </trkpt>
      <trkpt lat="47.627968" lon="1.9340609">
        <ele>164.0</ele>
        <time>2022-04-14T08:10:28Z</time>
      </trkpt>
      <trkpt lat="47.627983" lon="1.9340698">
        <ele>164.0</ele>
        <time>2022-04-14T08:10:29Z</time>
      </trkpt>
      <trkpt lat="47.628014" lon="1.9340885">
        <ele>164.0</ele>
        <time>2022-04-14T08:10:31Z</time>
      </trkpt>
      <trkpt lat="47.62805" lon="1.9341078">
        <ele>165.0</ele>
        <time>2022-04-14T08:10:33Z</time>
      </trkpt>
      <trkpt lat="47.628067" lon="1.9341136">
        <ele>165.0</ele>
        <time>2022-04-14T08:10:34Z</time>
      </trkpt>
      <trkpt lat="47.628082" lon="1.9341152">
        <ele>165.0</ele>
        <time>2022-04-14T08:10:35Z</time>
      </trkpt>
      <trkpt lat="47.628098" lon="1.934116">
        <ele>165.0</ele>
        <time>2022-04-14T08:10:36Z</time>
      </trkpt>
      <trkpt lat="47.628113" lon="1.9341183">
        <ele>165.0</ele>
        <time>2022-04-14T08:10:37Z</time>
      </trkpt>
      <trkpt lat="47.628143" lon="1.9341325">
        <ele>165.0</ele>
        <time>2022-04-14T08:10:39Z</time>
      </trkpt>
      <trkpt lat="47.628155" lon="1.9341391">
        <ele>165.0</ele>
        <time>2022-04-14T08:10:40Z</time>
      </trkpt>
      <trkpt lat="47.62817" lon="1.9341513">
        <ele>166.0</ele>
        <time>2022-04-14T08:10:41Z</time>
      </trkpt>
      <trkpt lat="47.628185" lon="1.9341649">
        <ele>166.0</ele>
        <time>2022-04-14T08:10:42Z</time>
      </trkpt>
      <trkpt lat="47.628197" lon="1.9341754">
        <ele>166.0</ele>
        <time>2022-04-14T08:10:43Z</time>
      </trkpt>
      <trkpt lat="47.628212" lon="1.934184">
        <ele>166.0</ele>
        <time>2022-04-14T08:10:44Z</time>
      </trkpt>
      <trkpt lat="47.628223" lon="1.9341909">
        <ele>166.0</ele>
        <time>2022-04-14T08:10:45Z</time>
      </trkpt>
      <trkpt lat="47.628242" lon="1.9341978">
        <ele>166.0</ele>
        <time>2022-04-14T08:10:46Z</time>
      </trkpt>
      <trkpt lat="47.628258" lon="1.9342061">
        <ele>166.0</ele>
        <time>2022-04-14T08:10:47Z</time>
      </trkpt>
      <trkpt lat="47.62827" lon="1.9342111">
        <ele>166.0</ele>
        <time>2022-04-14T08:10:48Z</time>
      </trkpt>
      <trkpt lat="47.628284" lon="1.9342152">
        <ele>166.0</ele>
        <time>2022-04-14T08:10:49Z</time>
      </trkpt>
      <trkpt lat="47.628296" lon="1.9342171">
        <ele>165.0</ele>
        <time>2022-04-14T08:10:50Z</time>
      </trkpt>
      <trkpt lat="47.628307" lon="1.9342223">
        <ele>165.0</ele>
        <time>2022-04-14T08:10:51Z</time>
      </trkpt>
      <trkpt lat="47.62832" lon="1.9342289">
        <ele>165.0</ele>
        <time>2022-04-14T08:10:52Z</time>
      </trkpt>
      <trkpt lat="47.628334" lon="1.9342339">
        <ele>165.0</ele>
        <time>2022-04-14T08:10:53Z</time>
      </trkpt>
      <trkpt lat="47.628353" lon="1.934241">
        <ele>165.0</ele>
        <time>2022-04-14T08:10:54Z</time>
      </trkpt>
      <trkpt lat="47.62837" lon="1.9342433">
        <ele>165.0</ele>
        <time>2022-04-14T08:10:55Z</time>
      </trkpt>
      <trkpt lat="47.628384" lon="1.9342461">
        <ele>165.0</ele>
        <time>2022-04-14T08:10:56Z</time>
      </trkpt>
      <trkpt lat="47.628403" lon="1.9342498">
        <ele>165.0</ele>
        <time>2022-04-14T08:10:57Z</time>
      </trkpt>
      <trkpt lat="47.628418" lon="1.9342514">
        <ele>165.0</ele>
        <time>2022-04-14T08:10:58Z</time>
      </trkpt>
      <trkpt lat="47.62843" lon="1.9342546">
        <ele>165.0</ele>
        <time>2022-04-14T08:10:59Z</time>
      </trkpt>
      <trkpt lat="47.62845" lon="1.9342642">
        <ele>165.0</ele>
        <time>2022-04-14T08:11:00Z</time>
      </trkpt>
      <trkpt lat="47.628468" lon="1.9342703">
        <ele>165.0</ele>
        <time>2022-04-14T08:11:01Z</time>
      </trkpt>
      <trkpt lat="47.62848" lon="1.9342799">
        <ele>166.0</ele>
        <time>2022-04-14T08:11:02Z</time>
      </trkpt>
      <trkpt lat="47.628498" lon="1.9342848">
        <ele>165.0</ele>
        <time>2022-04-14T08:11:03Z</time>
      </trkpt>
      <trkpt lat="47.628513" lon="1.9342912">
        <ele>165.0</ele>
        <time>2022-04-14T08:11:04Z</time>
      </trkpt>
      <trkpt lat="47.628532" lon="1.9342998">
        <ele>164.0</ele>
        <time>2022-04-14T08:11:05Z</time>
      </trkpt>
      <trkpt lat="47.62855" lon="1.9343108">
        <ele>165.0</ele>
        <time>2022-04-14T08:11:06Z</time>
      </trkpt>
      <trkpt lat="47.628563" lon="1.9343163">
        <ele>164.0</ele>
        <time>2022-04-14T08:11:07Z</time>
      </trkpt>
      <trkpt lat="47.628586" lon="1.9343315">
        <ele>165.0</ele>
        <time>2022-04-14T08:11:08Z</time>
      </trkpt>
      <trkpt lat="47.628605" lon="1.9343433">
        <ele>164.0</ele>
        <time>2022-04-14T08:11:09Z</time>
      </trkpt>
      <trkpt lat="47.62862" lon="1.9343544">
        <ele>164.0</ele>
        <time>2022-04-14T08:11:10Z</time>
      </trkpt>
      <trkpt lat="47.628635" lon="1.9343579">
        <ele>164.0</ele>
        <time>2022-04-14T08:11:11Z</time>
      </trkpt>
      <trkpt lat="47.628647" lon="1.9343659">
        <ele>164.0</ele>
        <time>2022-04-14T08:11:12Z</time>
      </trkpt>
      <trkpt lat="47.628666" lon="1.9343752">
        <ele>164.0</ele>
        <time>2022-04-14T08:11:13Z</time>
      </trkpt>
      <trkpt lat="47.62868" lon="1.9343777">
        <ele>164.0</ele>
        <time>2022-04-14T08:11:14Z</time>
      </trkpt>
      <trkpt lat="47.628696" lon="1.9343826">
        <ele>164.0</ele>
        <time>2022-04-14T08:11:15Z</time>
      </trkpt>
      <trkpt lat="47.628716" lon="1.9343921">
        <ele>165.0</ele>
        <time>2022-04-14T08:11:16Z</time>
      </trkpt>
      <trkpt lat="47.62873" lon="1.9343985">
        <ele>164.0</ele>
        <time>2022-04-14T08:11:17Z</time>
      </trkpt>
      <trkpt lat="47.628746" lon="1.9344072">
        <ele>164.0</ele>
        <time>2022-04-14T08:11:18Z</time>
      </trkpt>
      <trkpt lat="47.628765" lon="1.9344158">
        <ele>165.0</ele>
        <time>2022-04-14T08:11:19Z</time>
      </trkpt>
      <trkpt lat="47.62878" lon="1.9344181">
        <ele>165.0</ele>
        <time>2022-04-14T08:11:20Z</time>
      </trkpt>
      <trkpt lat="47.6288" lon="1.9344271">
        <ele>165.0</ele>
        <time>2022-04-14T08:11:21Z</time>
      </trkpt>
      <trkpt lat="47.628815" lon="1.9344367">
        <ele>165.0</ele>
        <time>2022-04-14T08:11:22Z</time>
      </trkpt>
      <trkpt lat="47.62883" lon="1.9344423">
        <ele>165.0</ele>
        <time>2022-04-14T08:11:23Z</time>
      </trkpt>
      <trkpt lat="47.628845" lon="1.9344454">
        <ele>164.0</ele>
        <time>2022-04-14T08:11:24Z</time>
      </trkpt>
      <trkpt lat="47.62886" lon="1.9344519">
        <ele>164.0</ele>
        <time>2022-04-14T08:11:25Z</time>
      </trkpt>
      <trkpt lat="47.628872" lon="1.9344554">
        <ele>164.0</ele>
        <time>2022-04-14T08:11:26Z</time>
      </trkpt>
      <trkpt lat="47.628887" lon="1.9344628">
        <ele>164.0</ele>
        <time>2022-04-14T08:11:27Z</time>
      </trkpt>
      <trkpt lat="47.6289" lon="1.9344724">
        <ele>165.0</ele>
        <time>2022-04-14T08:11:28Z</time>
      </trkpt>
      <trkpt lat="47.628914" lon="1.9344784">
        <ele>165.0</ele>
        <time>2022-04-14T08:11:29Z</time>
      </trkpt>
      <trkpt lat="47.62893" lon="1.9344804">
        <ele>166.0</ele>
        <time>2022-04-14T08:11:30Z</time>
      </trkpt>
      <trkpt lat="47.62894" lon="1.9344844">
        <ele>166.0</ele>
        <time>2022-04-14T08:11:31Z</time>
      </trkpt>
      <trkpt lat="47.628952" lon="1.9344895">
        <ele>166.0</ele>
        <time>2022-04-14T08:11:32Z</time>
      </trkpt>
      <trkpt lat="47.628967" lon="1.9344954">
        <ele>166.0</ele>
        <time>2022-04-14T08:11:33Z</time>
      </trkpt>
      <trkpt lat="47.628983" lon="1.9345003">
        <ele>166.0</ele>
        <time>2022-04-14T08:11:34Z</time>
      </trkpt>
      <trkpt lat="47.629" lon="1.9345031">
        <ele>166.0</ele>
        <time>2022-04-14T08:11:35Z</time>
      </trkpt>
      <trkpt lat="47.629017" lon="1.9345093">
        <ele>166.0</ele>
        <time>2022-04-14T08:11:36Z</time>
      </trkpt>
      <trkpt lat="47.629032" lon="1.934511">
        <ele>166.0</ele>
        <time>2022-04-14T08:11:37Z</time>
      </trkpt>
      <trkpt lat="47.629047" lon="1.9345102">
        <ele>165.0</ele>
        <time>2022-04-14T08:11:38Z</time>
      </trkpt>
      <trkpt lat="47.62907" lon="1.9345154">
        <ele>166.0</ele>
        <time>2022-04-14T08:11:39Z</time>
      </trkpt>
      <trkpt lat="47.629086" lon="1.9345217">
        <ele>166.0</ele>
        <time>2022-04-14T08:11:40Z</time>
      </trkpt>
      <trkpt lat="47.629105" lon="1.9345206">
        <ele>166.0</ele>
        <time>2022-04-14T08:11:41Z</time>
      </trkpt>
      <trkpt lat="47.629116" lon="1.9345233">
        <ele>166.0</ele>
        <time>2022-04-14T08:11:42Z</time>
      </trkpt>
      <trkpt lat="47.62913" lon="1.9345262">
        <ele>165.0</ele>
        <time>2022-04-14T08:11:43Z</time>
      </trkpt>
      <trkpt lat="47.629147" lon="1.9345332">
        <ele>166.0</ele>
        <time>2022-04-14T08:11:44Z</time>
      </trkpt>
      <trkpt lat="47.62916" lon="1.9345393">
        <ele>166.0</ele>
        <time>2022-04-14T08:11:45Z</time>
      </trkpt>
      <trkpt lat="47.62918" lon="1.9345496">
        <ele>166.0</ele>
        <time>2022-04-14T08:11:46Z</time>
      </trkpt>
      <trkpt lat="47.629196" lon="1.9345577">
        <ele>165.0</ele>
        <time>2022-04-14T08:11:47Z</time>
      </trkpt>
      <trkpt lat="47.629215" lon="1.9345663">
        <ele>166.0</ele>
        <time>2022-04-14T08:11:48Z</time>
      </trkpt>
      <trkpt lat="47.629227" lon="1.9345737">
        <ele>166.0</ele>
        <time>2022-04-14T08:11:49Z</time>
      </trkpt>
      <trkpt lat="47.62924" lon="1.934584">
        <ele>165.0</ele>
        <time>2022-04-14T08:11:50Z</time>
      </trkpt>
      <trkpt lat="47.629253" lon="1.9345968">
        <ele>165.0</ele>
        <time>2022-04-14T08:11:51Z</time>
      </trkpt>
      <trkpt lat="47.629265" lon="1.9346081">
        <ele>165.0</ele>
        <time>2022-04-14T08:11:52Z</time>
      </trkpt>
      <trkpt lat="47.629284" lon="1.9346112">
        <ele>165.0</ele>
        <time>2022-04-14T08:11:53Z</time>
      </trkpt>
      <trkpt lat="47.629295" lon="1.9346193">
        <ele>165.0</ele>
        <time>2022-04-14T08:11:54Z</time>
      </trkpt>
      <trkpt lat="47.629307" lon="1.934627">
        <ele>166.0</ele>
        <time>2022-04-14T08:11:55Z</time>
      </trkpt>
      <trkpt lat="47.629322" lon="1.9346347">
        <ele>166.0</ele>
        <time>2022-04-14T08:11:56Z</time>
      </trkpt>
      <trkpt lat="47.62934" lon="1.9346433">
        <ele>166.0</ele>
        <time>2022-04-14T08:11:57Z</time>
      </trkpt>
      <trkpt lat="47.62937" lon="1.9346548">
        <ele>166.0</ele>
        <time>2022-04-14T08:11:59Z</time>
      </trkpt>
      <trkpt lat="47.629387" lon="1.9346607">
        <ele>166.0</ele>
        <time>2022-04-14T08:12:00Z</time>
      </trkpt>
      <trkpt lat="47.6294" lon="1.9346684">
        <ele>166.0</ele>
        <time>2022-04-14T08:12:01Z</time>
      </trkpt>
      <trkpt lat="47.629414" lon="1.9346788">
        <ele>166.0</ele>
        <time>2022-04-14T08:12:02Z</time>
      </trkpt>
      <trkpt lat="47.62943" lon="1.9346867">
        <ele>166.0</ele>
        <time>2022-04-14T08:12:03Z</time>
      </trkpt>
      <trkpt lat="47.62944" lon="1.9346923">
        <ele>166.0</ele>
        <time>2022-04-14T08:12:04Z</time>
      </trkpt>
      <trkpt lat="47.629448" lon="1.9347029">
        <ele>166.0</ele>
        <time>2022-04-14T08:12:05Z</time>
      </trkpt>
      <trkpt lat="47.629463" lon="1.9347064">
        <ele>166.0</ele>
        <time>2022-04-14T08:12:06Z</time>
      </trkpt>
      <trkpt lat="47.629482" lon="1.9347111">
        <ele>166.0</ele>
        <time>2022-04-14T08:12:07Z</time>
      </trkpt>
      <trkpt lat="47.629494" lon="1.934717">
        <ele>166.0</ele>
        <time>2022-04-14T08:12:08Z</time>
      </trkpt>
      <trkpt lat="47.629505" lon="1.934721">
        <ele>166.0</ele>
        <time>2022-04-14T08:12:09Z</time>
      </trkpt>
      <trkpt lat="47.629517" lon="1.9347261">
        <ele>166.0</ele>
        <time>2022-04-14T08:12:10Z</time>
      </trkpt>
      <trkpt lat="47.629524" lon="1.9347328">
        <ele>165.0</ele>
        <time>2022-04-14T08:12:11Z</time>
      </trkpt>
      <trkpt lat="47.62954" lon="1.9347352">
        <ele>166.0</ele>
        <time>2022-04-14T08:12:12Z</time>
      </trkpt>
      <trkpt lat="47.629555" lon="1.9347404">
        <ele>166.0</ele>
        <time>2022-04-14T08:12:13Z</time>
      </trkpt>
      <trkpt lat="47.629562" lon="1.9347472">
        <ele>165.0</ele>
        <time>2022-04-14T08:12:14Z</time>
      </trkpt>
      <trkpt lat="47.629574" lon="1.9347546">
        <ele>165.0</ele>
        <time>2022-04-14T08:12:15Z</time>
      </trkpt>
      <trkpt lat="47.629585" lon="1.9347634">
        <ele>165.0</ele>
        <time>2022-04-14T08:12:16Z</time>
      </trkpt>
      <trkpt lat="47.629597" lon="1.934774">
        <ele>165.0</ele>
        <time>2022-04-14T08:12:17Z</time>
      </trkpt>
      <trkpt lat="47.62961" lon="1.9347788">
        <ele>165.0</ele>
        <time>2022-04-14T08:12:18Z</time>
      </trkpt>
      <trkpt lat="47.629623" lon="1.9347823">
        <ele>165.0</ele>
        <time>2022-04-14T08:12:19Z</time>
      </trkpt>
      <trkpt lat="47.629635" lon="1.9347845">
        <ele>164.0</ele>
        <time>2022-04-14T08:12:20Z</time>
      </trkpt>
      <trkpt lat="47.629642" lon="1.9347938">
        <ele>164.0</ele>
        <time>2022-04-14T08:12:21Z</time>
      </trkpt>
      <trkpt lat="47.62965" lon="1.9347992">
        <ele>164.0</ele>
        <time>2022-04-14T08:12:22Z</time>
      </trkpt>
      <trkpt lat="47.629658" lon="1.9348091">
        <ele>164.0</ele>
        <time>2022-04-14T08:12:23Z</time>
      </trkpt>
      <trkpt lat="47.629673" lon="1.9348204">
        <ele>164.0</ele>
        <time>2022-04-14T08:12:24Z</time>
      </trkpt>
      <trkpt lat="47.62968" lon="1.9348251">
        <ele>164.0</ele>
        <time>2022-04-14T08:12:25Z</time>
      </trkpt>
      <trkpt lat="47.629692" lon="1.9348334">
        <ele>164.0</ele>
        <time>2022-04-14T08:12:26Z</time>
      </trkpt>
      <trkpt lat="47.6297" lon="1.9348415">
        <ele>164.0</ele>
        <time>2022-04-14T08:12:27Z</time>
      </trkpt>
      <trkpt lat="47.629707" lon="1.9348553">
        <ele>164.0</ele>
        <time>2022-04-14T08:12:28Z</time>
      </trkpt>
      <trkpt lat="47.629715" lon="1.9348682">
        <ele>164.0</ele>
        <time>2022-04-14T08:12:29Z</time>
      </trkpt>
      <trkpt lat="47.629726" lon="1.9348754">
        <ele>164.0</ele>
        <time>2022-04-14T08:12:30Z</time>
      </trkpt>
      <trkpt lat="47.62974" lon="1.9348822">
        <ele>164.0</ele>
        <time>2022-04-14T08:12:31Z</time>
      </trkpt>
      <trkpt lat="47.629753" lon="1.9348862">
        <ele>164.0</ele>
        <time>2022-04-14T08:12:32Z</time>
      </trkpt>
      <trkpt lat="47.62977" lon="1.9348958">
        <ele>164.0</ele>
        <time>2022-04-14T08:12:33Z</time>
      </trkpt>
      <trkpt lat="47.62978" lon="1.9348983">
        <ele>164.0</ele>
        <time>2022-04-14T08:12:34Z</time>
      </trkpt>
      <trkpt lat="47.629795" lon="1.9348994">
        <ele>164.0</ele>
        <time>2022-04-14T08:12:35Z</time>
      </trkpt>
      <trkpt lat="47.62981" lon="1.9349039">
        <ele>165.0</ele>
        <time>2022-04-14T08:12:36Z</time>
      </trkpt>
      <trkpt lat="47.62982" lon="1.9349062">
        <ele>165.0</ele>
        <time>2022-04-14T08:12:37Z</time>
      </trkpt>
      <trkpt lat="47.629833" lon="1.9349066">
        <ele>165.0</ele>
        <time>2022-04-14T08:12:38Z</time>
      </trkpt>
      <trkpt lat="47.62985" lon="1.9349127">
        <ele>165.0</ele>
        <time>2022-04-14T08:12:39Z</time>
      </trkpt>
      <trkpt lat="47.62986" lon="1.9349215">
        <ele>165.0</ele>
        <time>2022-04-14T08:12:40Z</time>
      </trkpt>
      <trkpt lat="47.629868" lon="1.9349287">
        <ele>164.0</ele>
        <time>2022-04-14T08:12:41Z</time>
      </trkpt>
      <trkpt lat="47.62988" lon="1.9349333">
        <ele>164.0</ele>
        <time>2022-04-14T08:12:42Z</time>
      </trkpt>
      <trkpt lat="47.629894" lon="1.9349397">
        <ele>165.0</ele>
        <time>2022-04-14T08:12:43Z</time>
      </trkpt>
      <trkpt lat="47.629906" lon="1.9349436">
        <ele>165.0</ele>
        <time>2022-04-14T08:12:44Z</time>
      </trkpt>
      <trkpt lat="47.629917" lon="1.9349498">
        <ele>166.0</ele>
        <time>2022-04-14T08:12:45Z</time>
      </trkpt>
      <trkpt lat="47.62993" lon="1.9349579">
        <ele>166.0</ele>
        <time>2022-04-14T08:12:46Z</time>
      </trkpt>
      <trkpt lat="47.62994" lon="1.9349626">
        <ele>166.0</ele>
        <time>2022-04-14T08:12:47Z</time>
      </trkpt>
      <trkpt lat="47.629948" lon="1.9349697">
        <ele>166.0</ele>
        <time>2022-04-14T08:12:48Z</time>
      </trkpt>
      <trkpt lat="47.62996" lon="1.9349757">
        <ele>166.0</ele>
        <time>2022-04-14T08:12:49Z</time>
      </trkpt>
      <trkpt lat="47.62997" lon="1.934983">
        <ele>166.0</ele>
        <time>2022-04-14T08:12:50Z</time>
      </trkpt>
      <trkpt lat="47.62998" lon="1.9349908">
        <ele>166.0</ele>
        <time>2022-04-14T08:12:51Z</time>
      </trkpt>
      <trkpt lat="47.629986" lon="1.9349943">
        <ele>166.0</ele>
        <time>2022-04-14T08:12:52Z</time>
      </trkpt>
      <trkpt lat="47.629997" lon="1.9349989">
        <ele>166.0</ele>
        <time>2022-04-14T08:12:53Z</time>
      </trkpt>
      <trkpt lat="47.630005" lon="1.9350028">
        <ele>165.0</ele>
        <time>2022-04-14T08:12:54Z</time>
      </trkpt>
      <trkpt lat="47.63002" lon="1.935007">
        <ele>165.0</ele>
        <time>2022-04-14T08:12:55Z</time>
      </trkpt>
      <trkpt lat="47.630028" lon="1.9350123">
        <ele>165.0</ele>
        <time>2022-04-14T08:12:56Z</time>
      </trkpt>
      <trkpt lat="47.63004" lon="1.9350138">
        <ele>165.0</ele>
        <time>2022-04-14T08:12:57Z</time>
      </trkpt>
      <trkpt lat="47.63005" lon="1.9350212">
        <ele>165.0</ele>
        <time>2022-04-14T08:12:58Z</time>
      </trkpt>
      <trkpt lat="47.630062" lon="1.9350265">
        <ele>165.0</ele>
        <time>2022-04-14T08:12:59Z</time>
      </trkpt>
      <trkpt lat="47.630074" lon="1.9350368">
        <ele>166.0</ele>
        <time>2022-04-14T08:13:00Z</time>
      </trkpt>
      <trkpt lat="47.63009" lon="1.9350452">
        <ele>166.0</ele>
        <time>2022-04-14T08:13:01Z</time>
      </trkpt>
      <trkpt lat="47.6301" lon="1.9350541">
        <ele>166.0</ele>
        <time>2022-04-14T08:13:02Z</time>
      </trkpt>
      <trkpt lat="47.63011" lon="1.9350642">
        <ele>166.0</ele>
        <time>2022-04-14T08:13:03Z</time>
      </trkpt>
      <trkpt lat="47.630123" lon="1.9350708">
        <ele>166.0</ele>
        <time>2022-04-14T08:13:04Z</time>
      </trkpt>
      <trkpt lat="47.63014" lon="1.935075">
        <ele>166.0</ele>
        <time>2022-04-14T08:13:05Z</time>
      </trkpt>
      <trkpt lat="47.630154" lon="1.9350789">
        <ele>167.0</ele>
        <time>2022-04-14T08:13:06Z</time>
      </trkpt>
      <trkpt lat="47.630165" lon="1.9350833">
        <ele>167.0</ele>
        <time>2022-04-14T08:13:07Z</time>
      </trkpt>
      <trkpt lat="47.630173" lon="1.9350845">
        <ele>167.0</ele>
        <time>2022-04-14T08:13:08Z</time>
      </trkpt>
      <trkpt lat="47.63018" lon="1.935084">
        <ele>167.0</ele>
        <time>2022-04-14T08:13:09Z</time>
      </trkpt>
      <trkpt lat="47.63019" lon="1.9350839">
        <ele>167.0</ele>
        <time>2022-04-14T08:13:10Z</time>
      </trkpt>
      <trkpt lat="47.630203" lon="1.9350865">
        <ele>167.0</ele>
        <time>2022-04-14T08:13:11Z</time>
      </trkpt>
      <trkpt lat="47.630215" lon="1.9350903">
        <ele>167.0</ele>
        <time>2022-04-14T08:13:12Z</time>
      </trkpt>
      <trkpt lat="47.630226" lon="1.9350916">
        <ele>167.0</ele>
        <time>2022-04-14T08:13:13Z</time>
      </trkpt>
      <trkpt lat="47.630245" lon="1.9350911">
        <ele>167.0</ele>
        <time>2022-04-14T08:13:14Z</time>
      </trkpt>
      <trkpt lat="47.630257" lon="1.935097">
        <ele>167.0</ele>
        <time>2022-04-14T08:13:15Z</time>
      </trkpt>
      <trkpt lat="47.63027" lon="1.9351029">
        <ele>167.0</ele>
        <time>2022-04-14T08:13:16Z</time>
      </trkpt>
      <trkpt lat="47.630272" lon="1.9351106">
        <ele>167.0</ele>
        <time>2022-04-14T08:13:17Z</time>
      </trkpt>
      <trkpt lat="47.630283" lon="1.9351182">
        <ele>168.0</ele>
        <time>2022-04-14T08:13:18Z</time>
      </trkpt>
      <trkpt lat="47.630295" lon="1.9351244">
        <ele>168.0</ele>
        <time>2022-04-14T08:13:19Z</time>
      </trkpt>
      <trkpt lat="47.630306" lon="1.9351267">
        <ele>168.0</ele>
        <time>2022-04-14T08:13:20Z</time>
      </trkpt>
      <trkpt lat="47.630314" lon="1.9351298">
        <ele>168.0</ele>
        <time>2022-04-14T08:13:21Z</time>
      </trkpt>
      <trkpt lat="47.630325" lon="1.9351369">
        <ele>168.0</ele>
        <time>2022-04-14T08:13:22Z</time>
      </trkpt>
      <trkpt lat="47.63033" lon="1.9351443">
        <ele>168.0</ele>
        <time>2022-04-14T08:13:23Z</time>
      </trkpt>
      <trkpt lat="47.630344" lon="1.9351485">
        <ele>168.0</ele>
        <time>2022-04-14T08:13:24Z</time>
      </trkpt>
      <trkpt lat="47.630352" lon="1.9351465">
        <ele>168.0</ele>
        <time>2022-04-14T08:13:25Z</time>
      </trkpt>
      <trkpt lat="47.630363" lon="1.9351478">
        <ele>168.0</ele>
        <time>2022-04-14T08:13:26Z</time>
      </trkpt>
      <trkpt lat="47.630375" lon="1.9351497">
        <ele>168.0</ele>
        <time>2022-04-14T08:13:27Z</time>
      </trkpt>
      <trkpt lat="47.630386" lon="1.9351562">
        <ele>169.0</ele>
        <time>2022-04-14T08:13:28Z</time>
      </trkpt>
      <trkpt lat="47.630398" lon="1.9351603">
        <ele>168.0</ele>
        <time>2022-04-14T08:13:29Z</time>
      </trkpt>
      <trkpt lat="47.630405" lon="1.9351628">
        <ele>168.0</ele>
        <time>2022-04-14T08:13:30Z</time>
      </trkpt>
      <trkpt lat="47.630417" lon="1.935172">
        <ele>169.0</ele>
        <time>2022-04-14T08:13:31Z</time>
      </trkpt>
      <trkpt lat="47.63042" lon="1.935175">
        <ele>168.0</ele>
        <time>2022-04-14T08:13:32Z</time>
      </trkpt>
      <trkpt lat="47.630436" lon="1.9351792">
        <ele>169.0</ele>
        <time>2022-04-14T08:13:33Z</time>
      </trkpt>
      <trkpt lat="47.630447" lon="1.9351845">
        <ele>169.0</ele>
        <time>2022-04-14T08:13:34Z</time>
      </trkpt>
      <trkpt lat="47.63046" lon="1.9351903">
        <ele>169.0</ele>
        <time>2022-04-14T08:13:35Z</time>
      </trkpt>
      <trkpt lat="47.63047" lon="1.9351922">
        <ele>169.0</ele>
        <time>2022-04-14T08:13:36Z</time>
      </trkpt>
      <trkpt lat="47.63048" lon="1.9351914">
        <ele>169.0</ele>
        <time>2022-04-14T08:13:37Z</time>
      </trkpt>
      <trkpt lat="47.630493" lon="1.9352025">
        <ele>169.0</ele>
        <time>2022-04-14T08:13:38Z</time>
      </trkpt>
      <trkpt lat="47.63051" lon="1.9352107">
        <ele>169.0</ele>
        <time>2022-04-14T08:13:39Z</time>
      </trkpt>
      <trkpt lat="47.630516" lon="1.9352193">
        <ele>168.0</ele>
        <time>2022-04-14T08:13:40Z</time>
      </trkpt>
      <trkpt lat="47.630524" lon="1.9352263">
        <ele>168.0</ele>
        <time>2022-04-14T08:13:41Z</time>
      </trkpt>
      <trkpt lat="47.630535" lon="1.9352291">
        <ele>168.0</ele>
        <time>2022-04-14T08:13:42Z</time>
      </trkpt>
      <trkpt lat="47.630547" lon="1.9352366">
        <ele>168.0</ele>
        <time>2022-04-14T08:13:43Z</time>
      </trkpt>
      <trkpt lat="47.630554" lon="1.935246">
        <ele>167.0</ele>
        <time>2022-04-14T08:13:44Z</time>
      </trkpt>
      <trkpt lat="47.63056" lon="1.9352562">
        <ele>167.0</ele>
        <time>2022-04-14T08:13:45Z</time>
      </trkpt>
      <trkpt lat="47.630577" lon="1.9352655">
        <ele>167.0</ele>
        <time>2022-04-14T08:13:46Z</time>
      </trkpt>
      <trkpt lat="47.630592" lon="1.9352678">
        <ele>167.0</ele>
        <time>2022-04-14T08:13:47Z</time>
      </trkpt>
      <trkpt lat="47.6306" lon="1.9352713">
        <ele>166.0</ele>
        <time>2022-04-14T08:13:48Z</time>
      </trkpt>
      <trkpt lat="47.630608" lon="1.9352752">
        <ele>166.0</ele>
        <time>2022-04-14T08:13:49Z</time>
      </trkpt>
      <trkpt lat="47.630615" lon="1.9352822">
        <ele>167.0</ele>
        <time>2022-04-14T08:13:50Z</time>
      </trkpt>
      <trkpt lat="47.630627" lon="1.9352856">
        <ele>167.0</ele>
        <time>2022-04-14T08:13:51Z</time>
      </trkpt>
      <trkpt lat="47.63064" lon="1.9352926">
        <ele>167.0</ele>
        <time>2022-04-14T08:13:52Z</time>
      </trkpt>
      <trkpt lat="47.63065" lon="1.9352905">
        <ele>166.0</ele>
        <time>2022-04-14T08:13:53Z</time>
      </trkpt>
      <trkpt lat="47.630657" lon="1.9352902">
        <ele>166.0</ele>
        <time>2022-04-14T08:13:54Z</time>
      </trkpt>
      <trkpt lat="47.630672" lon="1.9352953">
        <ele>166.0</ele>
        <time>2022-04-14T08:13:55Z</time>
      </trkpt>
      <trkpt lat="47.630688" lon="1.9352998">
        <ele>167.0</ele>
        <time>2022-04-14T08:13:56Z</time>
      </trkpt>
      <trkpt lat="47.6307" lon="1.9353074">
        <ele>167.0</ele>
        <time>2022-04-14T08:13:57Z</time>
      </trkpt>
      <trkpt lat="47.63071" lon="1.9353145">
        <ele>167.0</ele>
        <time>2022-04-14T08:13:58Z</time>
      </trkpt>
      <trkpt lat="47.630722" lon="1.9353222">
        <ele>167.0</ele>
        <time>2022-04-14T08:13:59Z</time>
      </trkpt>
      <trkpt lat="47.630733" lon="1.9353251">
        <ele>168.0</ele>
        <time>2022-04-14T08:14:00Z</time>
      </trkpt>
      <trkpt lat="47.63075" lon="1.9353247">
        <ele>168.0</ele>
        <time>2022-04-14T08:14:01Z</time>
      </trkpt>
      <trkpt lat="47.63076" lon="1.9353232">
        <ele>168.0</ele>
        <time>2022-04-14T08:14:02Z</time>
      </trkpt>
      <trkpt lat="47.63077" lon="1.9353256">
        <ele>168.0</ele>
        <time>2022-04-14T08:14:03Z</time>
      </trkpt>
      <trkpt lat="47.63078" lon="1.9353249">
        <ele>169.0</ele>
        <time>2022-04-14T08:14:04Z</time>
      </trkpt>
      <trkpt lat="47.63079" lon="1.9353225">
        <ele>169.0</ele>
        <time>2022-04-14T08:14:05Z</time>
      </trkpt>
      <trkpt lat="47.6308" lon="1.9353213">
        <ele>168.0</ele>
        <time>2022-04-14T08:14:06Z</time>
      </trkpt>
      <trkpt lat="47.630814" lon="1.9353185">
        <ele>169.0</ele>
        <time>2022-04-14T08:14:07Z</time>
      </trkpt>
      <trkpt lat="47.63082" lon="1.9353192">
        <ele>168.0</ele>
        <time>2022-04-14T08:14:08Z</time>
      </trkpt>
      <trkpt lat="47.63083" lon="1.9353218">
        <ele>168.0</ele>
        <time>2022-04-14T08:14:09Z</time>
      </trkpt>
      <trkpt lat="47.63084" lon="1.9353232">
        <ele>168.0</ele>
        <time>2022-04-14T08:14:10Z</time>
      </trkpt>
      <trkpt lat="47.63085" lon="1.9353296">
        <ele>168.0</ele>
        <time>2022-04-14T08:14:11Z</time>
      </trkpt>
      <trkpt lat="47.63086" lon="1.9353311">
        <ele>168.0</ele>
        <time>2022-04-14T08:14:12Z</time>
      </trkpt>
      <trkpt lat="47.630867" lon="1.935332">
        <ele>168.0</ele>
        <time>2022-04-14T08:14:13Z</time>
      </trkpt>
      <trkpt lat="47.63088" lon="1.9353327">
        <ele>167.0</ele>
        <time>2022-04-14T08:14:14Z</time>
      </trkpt>
      <trkpt lat="47.63089" lon="1.9353426">
        <ele>168.0</ele>
        <time>2022-04-14T08:14:15Z</time>
      </trkpt>
      <trkpt lat="47.6309" lon="1.9353515">
        <ele>168.0</ele>
        <time>2022-04-14T08:14:16Z</time>
      </trkpt>
      <trkpt lat="47.630917" lon="1.9353532">
        <ele>168.0</ele>
        <time>2022-04-14T08:14:17Z</time>
      </trkpt>
      <trkpt lat="47.630928" lon="1.9353608">
        <ele>168.0</ele>
        <time>2022-04-14T08:14:18Z</time>
      </trkpt>
      <trkpt lat="47.63094" lon="1.9353707">
        <ele>168.0</ele>
        <time>2022-04-14T08:14:19Z</time>
      </trkpt>
      <trkpt lat="47.63095" lon="1.9353752">
        <ele>168.0</ele>
        <time>2022-04-14T08:14:20Z</time>
      </trkpt>
      <trkpt lat="47.630966" lon="1.9353819">
        <ele>168.0</ele>
        <time>2022-04-14T08:14:21Z</time>
      </trkpt>
      <trkpt lat="47.63098" lon="1.935383">
        <ele>168.0</ele>
        <time>2022-04-14T08:14:22Z</time>
      </trkpt>
      <trkpt lat="47.630993" lon="1.9353871">
        <ele>168.0</ele>
        <time>2022-04-14T08:14:23Z</time>
      </trkpt>
      <trkpt lat="47.63101" lon="1.9353932">
        <ele>169.0</ele>
        <time>2022-04-14T08:14:24Z</time>
      </trkpt>
      <trkpt lat="47.631023" lon="1.9353966">
        <ele>169.0</ele>
        <time>2022-04-14T08:14:25Z</time>
      </trkpt>
      <trkpt lat="47.631035" lon="1.9354005">
        <ele>169.0</ele>
        <time>2022-04-14T08:14:26Z</time>
      </trkpt>
      <trkpt lat="47.631042" lon="1.9354026">
        <ele>168.0</ele>
        <time>2022-04-14T08:14:27Z</time>
      </trkpt>
      <trkpt lat="47.631054" lon="1.9354091">
        <ele>168.0</ele>
        <time>2022-04-14T08:14:28Z</time>
      </trkpt>
      <trkpt lat="47.63106" lon="1.9354172">
        <ele>168.0</ele>
        <time>2022-04-14T08:14:29Z</time>
      </trkpt>
      <trkpt lat="47.631077" lon="1.9354165">
        <ele>168.0</ele>
        <time>2022-04-14T08:14:30Z</time>
      </trkpt>
      <trkpt lat="47.631092" lon="1.9354163">
        <ele>169.0</ele>
        <time>2022-04-14T08:14:31Z</time>
      </trkpt>
      <trkpt lat="47.631107" lon="1.9354229">
        <ele>169.0</ele>
        <time>2022-04-14T08:14:32Z</time>
      </trkpt>
      <trkpt lat="47.63112" lon="1.9354284">
        <ele>168.0</ele>
        <time>2022-04-14T08:14:33Z</time>
      </trkpt>
      <trkpt lat="47.631134" lon="1.9354326">
        <ele>169.0</ele>
        <time>2022-04-14T08:14:34Z</time>
      </trkpt>
      <trkpt lat="47.63115" lon="1.9354373">
        <ele>168.0</ele>
        <time>2022-04-14T08:14:35Z</time>
      </trkpt>
      <trkpt lat="47.63116" lon="1.9354428">
        <ele>168.0</ele>
        <time>2022-04-14T08:14:36Z</time>
      </trkpt>
      <trkpt lat="47.631172" lon="1.9354485">
        <ele>168.0</ele>
        <time>2022-04-14T08:14:37Z</time>
      </trkpt>
      <trkpt lat="47.631184" lon="1.935457">
        <ele>168.0</ele>
        <time>2022-04-14T08:14:38Z</time>
      </trkpt>
      <trkpt lat="47.6312" lon="1.9354669">
        <ele>168.0</ele>
        <time>2022-04-14T08:14:39Z</time>
      </trkpt>
      <trkpt lat="47.63121" lon="1.9354753">
        <ele>169.0</ele>
        <time>2022-04-14T08:14:40Z</time>
      </trkpt>
      <trkpt lat="47.631226" lon="1.9354823">
        <ele>169.0</ele>
        <time>2022-04-14T08:14:41Z</time>
      </trkpt>
      <trkpt lat="47.631237" lon="1.9354911">
        <ele>169.0</ele>
        <time>2022-04-14T08:14:42Z</time>
      </trkpt>
      <trkpt lat="47.63125" lon="1.9354949">
        <ele>169.0</ele>
        <time>2022-04-14T08:14:43Z</time>
      </trkpt>
      <trkpt lat="47.63126" lon="1.9354973">
        <ele>170.0</ele>
        <time>2022-04-14T08:14:44Z</time>
      </trkpt>
      <trkpt lat="47.631268" lon="1.9354964">
        <ele>169.0</ele>
        <time>2022-04-14T08:14:45Z</time>
      </trkpt>
      <trkpt lat="47.63128" lon="1.9355001">
        <ele>170.0</ele>
        <time>2022-04-14T08:14:46Z</time>
      </trkpt>
      <trkpt lat="47.631294" lon="1.9355042">
        <ele>170.0</ele>
        <time>2022-04-14T08:14:47Z</time>
      </trkpt>
      <trkpt lat="47.6313" lon="1.9355079">
        <ele>170.0</ele>
        <time>2022-04-14T08:14:48Z</time>
      </trkpt>
      <trkpt lat="47.631313" lon="1.9355112">
        <ele>170.0</ele>
        <time>2022-04-14T08:14:49Z</time>
      </trkpt>
      <trkpt lat="47.63133" lon="1.9355165">
        <ele>170.0</ele>
        <time>2022-04-14T08:14:50Z</time>
      </trkpt>
      <trkpt lat="47.63134" lon="1.9355239">
        <ele>170.0</ele>
        <time>2022-04-14T08:14:51Z</time>
      </trkpt>
      <trkpt lat="47.631348" lon="1.9355341">
        <ele>170.0</ele>
        <time>2022-04-14T08:14:52Z</time>
      </trkpt>
      <trkpt lat="47.63136" lon="1.9355458">
        <ele>171.0</ele>
        <time>2022-04-14T08:14:53Z</time>
      </trkpt>
      <trkpt lat="47.631374" lon="1.9355531">
        <ele>170.0</ele>
        <time>2022-04-14T08:14:54Z</time>
      </trkpt>
      <trkpt lat="47.631386" lon="1.9355589">
        <ele>170.0</ele>
        <time>2022-04-14T08:14:55Z</time>
      </trkpt>
      <trkpt lat="47.6314" lon="1.935567">
        <ele>170.0</ele>
        <time>2022-04-14T08:14:56Z</time>
      </trkpt>
      <trkpt lat="47.631413" lon="1.9355743">
        <ele>171.0</ele>
        <time>2022-04-14T08:14:57Z</time>
      </trkpt>
      <trkpt lat="47.631424" lon="1.9355818">
        <ele>171.0</ele>
        <time>2022-04-14T08:14:58Z</time>
      </trkpt>
      <trkpt lat="47.631435" lon="1.9355884">
        <ele>171.0</ele>
        <time>2022-04-14T08:14:59Z</time>
      </trkpt>
      <trkpt lat="47.631443" lon="1.9355898">
        <ele>171.0</ele>
        <time>2022-04-14T08:15:00Z</time>
      </trkpt>
      <trkpt lat="47.631454" lon="1.9355917">
        <ele>171.0</ele>
        <time>2022-04-14T08:15:01Z</time>
      </trkpt>
      <trkpt lat="47.63147" lon="1.9355971">
        <ele>171.0</ele>
        <time>2022-04-14T08:15:02Z</time>
      </trkpt>
      <trkpt lat="47.63148" lon="1.9356039">
        <ele>172.0</ele>
        <time>2022-04-14T08:15:03Z</time>
      </trkpt>
      <trkpt lat="47.6315" lon="1.9356129">
        <ele>171.0</ele>
        <time>2022-04-14T08:15:04Z</time>
      </trkpt>
      <trkpt lat="47.6315" lon="1.9356129">
        <ele>171.0</ele>
        <time>2022-04-14T08:15:04Z</time>
      </trkpt>
      <trkpt lat="47.63151" lon="1.9356169">
        <ele>172.0</ele>
        <time>2022-04-14T08:15:06Z</time>
      </trkpt>
      <trkpt lat="47.631527" lon="1.9356229">
        <ele>172.0</ele>
        <time>2022-04-14T08:15:07Z</time>
      </trkpt>
      <trkpt lat="47.63154" lon="1.9356302">
        <ele>173.0</ele>
        <time>2022-04-14T08:15:08Z</time>
      </trkpt>
      <trkpt lat="47.631546" lon="1.9356412">
        <ele>173.0</ele>
        <time>2022-04-14T08:15:09Z</time>
      </trkpt>
      <trkpt lat="47.631557" lon="1.9356508">
        <ele>173.0</ele>
        <time>2022-04-14T08:15:10Z</time>
      </trkpt>
      <trkpt lat="47.63157" lon="1.9356582">
        <ele>174.0</ele>
        <time>2022-04-14T08:15:11Z</time>
      </trkpt>
      <trkpt lat="47.631577" lon="1.9356635">
        <ele>174.0</ele>
        <time>2022-04-14T08:15:12Z</time>
      </trkpt>
      <trkpt lat="47.631584" lon="1.9356704">
        <ele>173.0</ele>
        <time>2022-04-14T08:15:13Z</time>
      </trkpt>
      <trkpt lat="47.63159" lon="1.9356773">
        <ele>173.0</ele>
        <time>2022-04-14T08:15:14Z</time>
      </trkpt>
      <trkpt lat="47.631607" lon="1.9356863">
        <ele>173.0</ele>
        <time>2022-04-14T08:15:15Z</time>
      </trkpt>
      <trkpt lat="47.631622" lon="1.935695">
        <ele>173.0</ele>
        <time>2022-04-14T08:15:16Z</time>
      </trkpt>
      <trkpt lat="47.631638" lon="1.9357023">
        <ele>174.0</ele>
        <time>2022-04-14T08:15:17Z</time>
      </trkpt>
      <trkpt lat="47.63165" lon="1.9357105">
        <ele>174.0</ele>
        <time>2022-04-14T08:15:18Z</time>
      </trkpt>
      <trkpt lat="47.63166" lon="1.9357194">
        <ele>174.0</ele>
        <time>2022-04-14T08:15:19Z</time>
      </trkpt>
      <trkpt lat="47.63167" lon="1.9357276">
        <ele>174.0</ele>
        <time>2022-04-14T08:15:20Z</time>
      </trkpt>
      <trkpt lat="47.63168" lon="1.9357382">
        <ele>174.0</ele>
        <time>2022-04-14T08:15:21Z</time>
      </trkpt>
      <trkpt lat="47.63169" lon="1.935751">
        <ele>174.0</ele>
        <time>2022-04-14T08:15:22Z</time>
      </trkpt>
      <trkpt lat="47.631702" lon="1.9357599">
        <ele>174.0</ele>
        <time>2022-04-14T08:15:23Z</time>
      </trkpt>
      <trkpt lat="47.631706" lon="1.9357738">
        <ele>174.0</ele>
        <time>2022-04-14T08:15:24Z</time>
      </trkpt>
      <trkpt lat="47.631718" lon="1.9357803">
        <ele>174.0</ele>
        <time>2022-04-14T08:15:25Z</time>
      </trkpt>
      <trkpt lat="47.63173" lon="1.935782">
        <ele>174.0</ele>
        <time>2022-04-14T08:15:26Z</time>
      </trkpt>
      <trkpt lat="47.631737" lon="1.9357818">
        <ele>174.0</ele>
        <time>2022-04-14T08:15:27Z</time>
      </trkpt>
      <trkpt lat="47.631744" lon="1.9357845">
        <ele>174.0</ele>
        <time>2022-04-14T08:15:28Z</time>
      </trkpt>
      <trkpt lat="47.631756" lon="1.9357927">
        <ele>174.0</ele>
        <time>2022-04-14T08:15:29Z</time>
      </trkpt>
      <trkpt lat="47.631763" lon="1.9357998">
        <ele>174.0</ele>
        <time>2022-04-14T08:15:30Z</time>
      </trkpt>
      <trkpt lat="47.631775" lon="1.9358046">
        <ele>174.0</ele>
        <time>2022-04-14T08:15:31Z</time>
      </trkpt>
      <trkpt lat="47.631783" lon="1.9358102">
        <ele>174.0</ele>
        <time>2022-04-14T08:15:32Z</time>
      </trkpt>
      <trkpt lat="47.631794" lon="1.9358139">
        <ele>174.0</ele>
        <time>2022-04-14T08:15:33Z</time>
      </trkpt>
      <trkpt lat="47.631805" lon="1.9358209">
        <ele>174.0</ele>
        <time>2022-04-14T08:15:34Z</time>
      </trkpt>
      <trkpt lat="47.631813" lon="1.9358267">
        <ele>174.0</ele>
        <time>2022-04-14T08:15:35Z</time>
      </trkpt>
      <trkpt lat="47.63183" lon="1.9358345">
        <ele>174.0</ele>
        <time>2022-04-14T08:15:36Z</time>
      </trkpt>
      <trkpt lat="47.631836" lon="1.9358386">
        <ele>174.0</ele>
        <time>2022-04-14T08:15:37Z</time>
      </trkpt>
      <trkpt lat="47.631844" lon="1.9358392">
        <ele>174.0</ele>
        <time>2022-04-14T08:15:38Z</time>
      </trkpt>
      <trkpt lat="47.63185" lon="1.9358422">
        <ele>174.0</ele>
        <time>2022-04-14T08:15:39Z</time>
      </trkpt>
      <trkpt lat="47.631863" lon="1.935845">
        <ele>174.0</ele>
        <time>2022-04-14T08:15:40Z</time>
      </trkpt>
      <trkpt lat="47.63187" lon="1.9358555">
        <ele>174.0</ele>
        <time>2022-04-14T08:15:41Z</time>
      </trkpt>
      <trkpt lat="47.63188" lon="1.9358655">
        <ele>174.0</ele>
        <time>2022-04-14T08:15:42Z</time>
      </trkpt>
      <trkpt lat="47.63189" lon="1.9358765">
        <ele>174.0</ele>
        <time>2022-04-14T08:15:43Z</time>
      </trkpt>
      <trkpt lat="47.631897" lon="1.9358913">
        <ele>174.0</ele>
        <time>2022-04-14T08:15:44Z</time>
      </trkpt>
      <trkpt lat="47.631916" lon="1.9359082">
        <ele>174.0</ele>
        <time>2022-04-14T08:15:45Z</time>
      </trkpt>
      <trkpt lat="47.631916" lon="1.9359082">
        <ele>174.0</ele>
        <time>2022-04-14T08:15:45Z</time>
      </trkpt>
      <trkpt lat="47.631927" lon="1.9359202">
        <ele>174.0</ele>
        <time>2022-04-14T08:15:47Z</time>
      </trkpt>
      <trkpt lat="47.63194" lon="1.9359324">
        <ele>175.0</ele>
        <time>2022-04-14T08:15:48Z</time>
      </trkpt>
      <trkpt lat="47.63195" lon="1.9359447">
        <ele>175.0</ele>
        <time>2022-04-14T08:15:49Z</time>
      </trkpt>
      <trkpt lat="47.631958" lon="1.9359573">
        <ele>175.0</ele>
        <time>2022-04-14T08:15:50Z</time>
      </trkpt>
      <trkpt lat="47.631966" lon="1.9359708">
        <ele>175.0</ele>
        <time>2022-04-14T08:15:51Z</time>
      </trkpt>
      <trkpt lat="47.631973" lon="1.9359832">
        <ele>175.0</ele>
        <time>2022-04-14T08:15:52Z</time>
      </trkpt>
      <trkpt lat="47.63198" lon="1.9359902">
        <ele>175.0</ele>
        <time>2022-04-14T08:15:53Z</time>
      </trkpt>
      <trkpt lat="47.631992" lon="1.9360002">
        <ele>176.0</ele>
        <time>2022-04-14T08:15:54Z</time>
      </trkpt>
      <trkpt lat="47.632" lon="1.9360126">
        <ele>176.0</ele>
        <time>2022-04-14T08:15:55Z</time>
      </trkpt>
      <trkpt lat="47.632008" lon="1.9360172">
        <ele>176.0</ele>
        <time>2022-04-14T08:15:56Z</time>
      </trkpt>
      <trkpt lat="47.632015" lon="1.9360228">
        <ele>176.0</ele>
        <time>2022-04-14T08:15:57Z</time>
      </trkpt>
      <trkpt lat="47.632023" lon="1.936031">
        <ele>176.0</ele>
        <time>2022-04-14T08:15:58Z</time>
      </trkpt>
      <trkpt lat="47.632034" lon="1.9360329">
        <ele>176.0</ele>
        <time>2022-04-14T08:15:59Z</time>
      </trkpt>
      <trkpt lat="47.632046" lon="1.936041">
        <ele>176.0</ele>
        <time>2022-04-14T08:16:00Z</time>
      </trkpt>
      <trkpt lat="47.632053" lon="1.9360523">
        <ele>176.0</ele>
        <time>2022-04-14T08:16:01Z</time>
      </trkpt>
      <trkpt lat="47.63206" lon="1.9360628">
        <ele>176.0</ele>
        <time>2022-04-14T08:16:02Z</time>
      </trkpt>
      <trkpt lat="47.632072" lon="1.9360793">
        <ele>177.0</ele>
        <time>2022-04-14T08:16:03Z</time>
      </trkpt>
      <trkpt lat="47.632084" lon="1.9360926">
        <ele>177.0</ele>
        <time>2022-04-14T08:16:04Z</time>
      </trkpt>
      <trkpt lat="47.632095" lon="1.9361036">
        <ele>177.0</ele>
        <time>2022-04-14T08:16:05Z</time>
      </trkpt>
      <trkpt lat="47.632103" lon="1.9361148">
        <ele>177.0</ele>
        <time>2022-04-14T08:16:06Z</time>
      </trkpt>
      <trkpt lat="47.63211" lon="1.9361293">
        <ele>177.0</ele>
        <time>2022-04-14T08:16:07Z</time>
      </trkpt>
      <trkpt lat="47.63212" lon="1.9361466">
        <ele>177.0</ele>
        <time>2022-04-14T08:16:08Z</time>
      </trkpt>
      <trkpt lat="47.632126" lon="1.9361669">
        <ele>177.0</ele>
        <time>2022-04-14T08:16:09Z</time>
      </trkpt>
      <trkpt lat="47.63214" lon="1.9361988">
        <ele>177.0</ele>
        <time>2022-04-14T08:16:10Z</time>
      </trkpt>
      <trkpt lat="47.63214" lon="1.9361988">
        <ele>177.0</ele>
        <time>2022-04-14T08:16:10Z</time>
      </trkpt>
      <trkpt lat="47.63215" lon="1.9362102">
        <ele>177.0</ele>
        <time>2022-04-14T08:16:12Z</time>
      </trkpt>
      <trkpt lat="47.632156" lon="1.936227">
        <ele>176.0</ele>
        <time>2022-04-14T08:16:13Z</time>
      </trkpt>
      <trkpt lat="47.632164" lon="1.9362433">
        <ele>177.0</ele>
        <time>2022-04-14T08:16:14Z</time>
      </trkpt>
      <trkpt lat="47.632175" lon="1.9362705">
        <ele>177.0</ele>
        <time>2022-04-14T08:16:15Z</time>
      </trkpt>
      <trkpt lat="47.632183" lon="1.9362828">
        <ele>177.0</ele>
        <time>2022-04-14T08:16:16Z</time>
      </trkpt>
      <trkpt lat="47.632183" lon="1.9362828">
        <ele>177.0</ele>
        <time>2022-04-14T08:16:16Z</time>
      </trkpt>
      <trkpt lat="47.63219" lon="1.9362928">
        <ele>177.0</ele>
        <time>2022-04-14T08:16:18Z</time>
      </trkpt>
      <trkpt lat="47.632206" lon="1.9363188">
        <ele>177.0</ele>
        <time>2022-04-14T08:16:19Z</time>
      </trkpt>
      <trkpt lat="47.632214" lon="1.936329">
        <ele>177.0</ele>
        <time>2022-04-14T08:16:20Z</time>
      </trkpt>
      <trkpt lat="47.632225" lon="1.9363412">
        <ele>177.0</ele>
        <time>2022-04-14T08:16:21Z</time>
      </trkpt>
      <trkpt lat="47.632233" lon="1.9363526">
        <ele>177.0</ele>
        <time>2022-04-14T08:16:22Z</time>
      </trkpt>
      <trkpt lat="47.632233" lon="1.9363526">
        <ele>177.0</ele>
        <time>2022-04-14T08:16:22Z</time>
      </trkpt>
      <trkpt lat="47.63224" lon="1.9363703">
        <ele>177.0</ele>
        <time>2022-04-14T08:16:24Z</time>
      </trkpt>
      <trkpt lat="47.632248" lon="1.9363842">
        <ele>177.0</ele>
        <time>2022-04-14T08:16:25Z</time>
      </trkpt>
      <trkpt lat="47.63226" lon="1.9364088">
        <ele>177.0</ele>
        <time>2022-04-14T08:16:26Z</time>
      </trkpt>
      <trkpt lat="47.632263" lon="1.936422">
        <ele>177.0</ele>
        <time>2022-04-14T08:16:27Z</time>
      </trkpt>
      <trkpt lat="47.632267" lon="1.9364347">
        <ele>177.0</ele>
        <time>2022-04-14T08:16:28Z</time>
      </trkpt>
      <trkpt lat="47.632275" lon="1.9364555">
        <ele>177.0</ele>
        <time>2022-04-14T08:16:29Z</time>
      </trkpt>
      <trkpt lat="47.63228" lon="1.9364653">
        <ele>176.0</ele>
        <time>2022-04-14T08:16:30Z</time>
      </trkpt>
      <trkpt lat="47.632282" lon="1.9364768">
        <ele>176.0</ele>
        <time>2022-04-14T08:16:31Z</time>
      </trkpt>
      <trkpt lat="47.63229" lon="1.9364876">
        <ele>176.0</ele>
        <time>2022-04-14T08:16:32Z</time>
      </trkpt>
      <trkpt lat="47.6323" lon="1.9365001">
        <ele>176.0</ele>
        <time>2022-04-14T08:16:33Z</time>
      </trkpt>
      <trkpt lat="47.6323" lon="1.9365001">
        <ele>176.0</ele>
        <time>2022-04-14T08:16:33Z</time>
      </trkpt>
      <trkpt lat="47.63231" lon="1.9365096">
        <ele>176.0</ele>
        <time>2022-04-14T08:16:35Z</time>
      </trkpt>
      <trkpt lat="47.632317" lon="1.9365249">
        <ele>176.0</ele>
        <time>2022-04-14T08:16:36Z</time>
      </trkpt>
      <trkpt lat="47.63233" lon="1.9365592">
        <ele>176.0</ele>
        <time>2022-04-14T08:16:37Z</time>
      </trkpt>
      <trkpt lat="47.63234" lon="1.9365749">
        <ele>177.0</ele>
        <time>2022-04-14T08:16:38Z</time>
      </trkpt>
      <trkpt lat="47.632347" lon="1.936588">
        <ele>177.0</ele>
        <time>2022-04-14T08:16:39Z</time>
      </trkpt>
      <trkpt lat="47.63236" lon="1.9366008">
        <ele>177.0</ele>
        <time>2022-04-14T08:16:40Z</time>
      </trkpt>
      <trkpt lat="47.632366" lon="1.9366136">
        <ele>177.0</ele>
        <time>2022-04-14T08:16:41Z</time>
      </trkpt>
      <trkpt lat="47.632378" lon="1.9366174">
        <ele>177.0</ele>
        <time>2022-04-14T08:16:42Z</time>
      </trkpt>
      <trkpt lat="47.632385" lon="1.9366276">
        <ele>177.0</ele>
        <time>2022-04-14T08:16:43Z</time>
      </trkpt>
      <trkpt lat="47.632393" lon="1.9366382">
        <ele>177.0</ele>
        <time>2022-04-14T08:16:44Z</time>
      </trkpt>
      <trkpt lat="47.632397" lon="1.936651">
        <ele>177.0</ele>
        <time>2022-04-14T08:16:45Z</time>
      </trkpt>
      <trkpt lat="47.632404" lon="1.9366611">
        <ele>177.0</ele>
        <time>2022-04-14T08:16:46Z</time>
      </trkpt>
      <trkpt lat="47.632416" lon="1.9366703">
        <ele>176.0</ele>
        <time>2022-04-14T08:16:47Z</time>
      </trkpt>
      <trkpt lat="47.632427" lon="1.9366834">
        <ele>177.0</ele>
        <time>2022-04-14T08:16:48Z</time>
      </trkpt>
      <trkpt lat="47.63243" lon="1.9366982">
        <ele>177.0</ele>
        <time>2022-04-14T08:16:49Z</time>
      </trkpt>
      <trkpt lat="47.63244" lon="1.9367195">
        <ele>177.0</ele>
        <time>2022-04-14T08:16:50Z</time>
      </trkpt>
      <trkpt lat="47.632446" lon="1.9367315">
        <ele>177.0</ele>
        <time>2022-04-14T08:16:51Z</time>
      </trkpt>
      <trkpt lat="47.63245" lon="1.9367454">
        <ele>177.0</ele>
        <time>2022-04-14T08:16:52Z</time>
      </trkpt>
      <trkpt lat="47.63245" lon="1.9367454">
        <ele>177.0</ele>
        <time>2022-04-14T08:16:52Z</time>
      </trkpt>
      <trkpt lat="47.63246" lon="1.9367795">
        <ele>177.0</ele>
        <time>2022-04-14T08:16:54Z</time>
      </trkpt>
      <trkpt lat="47.63247" lon="1.9367937">
        <ele>176.0</ele>
        <time>2022-04-14T08:16:55Z</time>
      </trkpt>
      <trkpt lat="47.63248" lon="1.9368134">
        <ele>177.0</ele>
        <time>2022-04-14T08:16:56Z</time>
      </trkpt>
      <trkpt lat="47.63248" lon="1.9368134">
        <ele>177.0</ele>
        <time>2022-04-14T08:16:56Z</time>
      </trkpt>
      <trkpt lat="47.63249" lon="1.9368242">
        <ele>177.0</ele>
        <time>2022-04-14T08:16:58Z</time>
      </trkpt>
      <trkpt lat="47.632504" lon="1.9368516">
        <ele>177.0</ele>
        <time>2022-04-14T08:16:59Z</time>
      </trkpt>
      <trkpt lat="47.63251" lon="1.9368653">
        <ele>178.0</ele>
        <time>2022-04-14T08:17:00Z</time>
      </trkpt>
      <trkpt lat="47.632523" lon="1.9368752">
        <ele>178.0</ele>
        <time>2022-04-14T08:17:01Z</time>
      </trkpt>
      <trkpt lat="47.63253" lon="1.9368923">
        <ele>178.0</ele>
        <time>2022-04-14T08:17:02Z</time>
      </trkpt>
      <trkpt lat="47.632538" lon="1.9369063">
        <ele>178.0</ele>
        <time>2022-04-14T08:17:03Z</time>
      </trkpt>
      <trkpt lat="47.63255" lon="1.9369203">
        <ele>178.0</ele>
        <time>2022-04-14T08:17:04Z</time>
      </trkpt>
      <trkpt lat="47.632553" lon="1.9369345">
        <ele>178.0</ele>
        <time>2022-04-14T08:17:05Z</time>
      </trkpt>
      <trkpt lat="47.63256" lon="1.9369463">
        <ele>178.0</ele>
        <time>2022-04-14T08:17:06Z</time>
      </trkpt>
      <trkpt lat="47.63257" lon="1.9369615">
        <ele>179.0</ele>
        <time>2022-04-14T08:17:07Z</time>
      </trkpt>
      <trkpt lat="47.632576" lon="1.9369771">
        <ele>179.0</ele>
        <time>2022-04-14T08:17:08Z</time>
      </trkpt>
      <trkpt lat="47.632584" lon="1.9369895">
        <ele>179.0</ele>
        <time>2022-04-14T08:17:09Z</time>
      </trkpt>
      <trkpt lat="47.63259" lon="1.9370027">
        <ele>179.0</ele>
        <time>2022-04-14T08:17:10Z</time>
      </trkpt>
      <trkpt lat="47.632595" lon="1.9370153">
        <ele>179.0</ele>
        <time>2022-04-14T08:17:11Z</time>
      </trkpt>
      <trkpt lat="47.632603" lon="1.9370285">
        <ele>179.0</ele>
        <time>2022-04-14T08:17:12Z</time>
      </trkpt>
      <trkpt lat="47.63261" lon="1.9370368">
        <ele>179.0</ele>
        <time>2022-04-14T08:17:13Z</time>
      </trkpt>
      <trkpt lat="47.632618" lon="1.9370517">
        <ele>179.0</ele>
        <time>2022-04-14T08:17:14Z</time>
      </trkpt>
      <trkpt lat="47.63263" lon="1.9370624">
        <ele>179.0</ele>
        <time>2022-04-14T08:17:15Z</time>
      </trkpt>
      <trkpt lat="47.632637" lon="1.9370735">
        <ele>180.0</ele>
        <time>2022-04-14T08:17:16Z</time>
      </trkpt>
      <trkpt lat="47.632645" lon="1.9370824">
        <ele>180.0</ele>
        <time>2022-04-14T08:17:17Z</time>
      </trkpt>
      <trkpt lat="47.632652" lon="1.9370956">
        <ele>180.0</ele>
        <time>2022-04-14T08:17:18Z</time>
      </trkpt>
      <trkpt lat="47.63266" lon="1.9371059">
        <ele>180.0</ele>
        <time>2022-04-14T08:17:19Z</time>
      </trkpt>
      <trkpt lat="47.63267" lon="1.9371169">
        <ele>180.0</ele>
        <time>2022-04-14T08:17:20Z</time>
      </trkpt>
      <trkpt lat="47.632683" lon="1.937129">
        <ele>180.0</ele>
        <time>2022-04-14T08:17:21Z</time>
      </trkpt>
      <trkpt lat="47.632687" lon="1.9371403">
        <ele>180.0</ele>
        <time>2022-04-14T08:17:22Z</time>
      </trkpt>
      <trkpt lat="47.632698" lon="1.9371495">
        <ele>180.0</ele>
        <time>2022-04-14T08:17:23Z</time>
      </trkpt>
      <trkpt lat="47.6327" lon="1.9371634">
        <ele>180.0</ele>
        <time>2022-04-14T08:17:24Z</time>
      </trkpt>
      <trkpt lat="47.63271" lon="1.9371775">
        <ele>180.0</ele>
        <time>2022-04-14T08:17:25Z</time>
      </trkpt>
      <trkpt lat="47.632713" lon="1.937192">
        <ele>180.0</ele>
        <time>2022-04-14T08:17:26Z</time>
      </trkpt>
      <trkpt lat="47.63272" lon="1.9372075">
        <ele>180.0</ele>
        <time>2022-04-14T08:17:27Z</time>
      </trkpt>
      <trkpt lat="47.63273" lon="1.9372262">
        <ele>180.0</ele>
        <time>2022-04-14T08:17:28Z</time>
      </trkpt>
      <trkpt lat="47.632732" lon="1.9372442">
        <ele>180.0</ele>
        <time>2022-04-14T08:17:29Z</time>
      </trkpt>
      <trkpt lat="47.632736" lon="1.9372637">
        <ele>180.0</ele>
        <time>2022-04-14T08:17:30Z</time>
      </trkpt>
      <trkpt lat="47.63274" lon="1.9372813">
        <ele>180.0</ele>
        <time>2022-04-14T08:17:31Z</time>
      </trkpt>
      <trkpt lat="47.632748" lon="1.9372902">
        <ele>180.0</ele>
        <time>2022-04-14T08:17:32Z</time>
      </trkpt>
      <trkpt lat="47.632755" lon="1.937306">
        <ele>180.0</ele>
        <time>2022-04-14T08:17:33Z</time>
      </trkpt>
      <trkpt lat="47.63276" lon="1.9373211">
        <ele>180.0</ele>
        <time>2022-04-14T08:17:34Z</time>
      </trkpt>
      <trkpt lat="47.632763" lon="1.9373372">
        <ele>180.0</ele>
        <time>2022-04-14T08:17:35Z</time>
      </trkpt>
      <trkpt lat="47.632767" lon="1.9373521">
        <ele>181.0</ele>
        <time>2022-04-14T08:17:36Z</time>
      </trkpt>
      <trkpt lat="47.63277" lon="1.9373636">
        <ele>181.0</ele>
        <time>2022-04-14T08:17:37Z</time>
      </trkpt>
      <trkpt lat="47.632774" lon="1.9373755">
        <ele>180.0</ele>
        <time>2022-04-14T08:17:38Z</time>
      </trkpt>
      <trkpt lat="47.63278" lon="1.9373822">
        <ele>180.0</ele>
        <time>2022-04-14T08:17:39Z</time>
      </trkpt>
      <trkpt lat="47.632786" lon="1.9373919">
        <ele>180.0</ele>
        <time>2022-04-14T08:17:40Z</time>
      </trkpt>
      <trkpt lat="47.63279" lon="1.9374064">
        <ele>179.0</ele>
        <time>2022-04-14T08:17:41Z</time>
      </trkpt>
      <trkpt lat="47.63279" lon="1.9374261">
        <ele>179.0</ele>
        <time>2022-04-14T08:17:42Z</time>
      </trkpt>
      <trkpt lat="47.632797" lon="1.9374449">
        <ele>179.0</ele>
        <time>2022-04-14T08:17:43Z</time>
      </trkpt>
      <trkpt lat="47.632805" lon="1.9374614">
        <ele>179.0</ele>
        <time>2022-04-14T08:17:44Z</time>
      </trkpt>
      <trkpt lat="47.632812" lon="1.9374754">
        <ele>179.0</ele>
        <time>2022-04-14T08:17:45Z</time>
      </trkpt>
      <trkpt lat="47.63282" lon="1.9374943">
        <ele>179.0</ele>
        <time>2022-04-14T08:17:46Z</time>
      </trkpt>
      <trkpt lat="47.632828" lon="1.9375099">
        <ele>179.0</ele>
        <time>2022-04-14T08:17:47Z</time>
      </trkpt>
      <trkpt lat="47.63284" lon="1.9375182">
        <ele>179.0</ele>
        <time>2022-04-14T08:17:48Z</time>
      </trkpt>
      <trkpt lat="47.63285" lon="1.9375288">
        <ele>179.0</ele>
        <time>2022-04-14T08:17:49Z</time>
      </trkpt>
      <trkpt lat="47.63286" lon="1.9375433">
        <ele>178.0</ele>
        <time>2022-04-14T08:17:50Z</time>
      </trkpt>
      <trkpt lat="47.632862" lon="1.9375571">
        <ele>178.0</ele>
        <time>2022-04-14T08:17:51Z</time>
      </trkpt>
      <trkpt lat="47.63287" lon="1.9375672">
        <ele>178.0</ele>
        <time>2022-04-14T08:17:52Z</time>
      </trkpt>
      <trkpt lat="47.632874" lon="1.9375777">
        <ele>178.0</ele>
        <time>2022-04-14T08:17:53Z</time>
      </trkpt>
      <trkpt lat="47.63288" lon="1.9375895">
        <ele>178.0</ele>
        <time>2022-04-14T08:17:54Z</time>
      </trkpt>
      <trkpt lat="47.63289" lon="1.9376012">
        <ele>178.0</ele>
        <time>2022-04-14T08:17:55Z</time>
      </trkpt>
      <trkpt lat="47.6329" lon="1.9376093">
        <ele>179.0</ele>
        <time>2022-04-14T08:17:56Z</time>
      </trkpt>
      <trkpt lat="47.63291" lon="1.9376262">
        <ele>179.0</ele>
        <time>2022-04-14T08:17:57Z</time>
      </trkpt>
      <trkpt lat="47.63292" lon="1.937633">
        <ele>180.0</ele>
        <time>2022-04-14T08:17:58Z</time>
      </trkpt>
      <trkpt lat="47.632927" lon="1.9376436">
        <ele>180.0</ele>
        <time>2022-04-14T08:17:59Z</time>
      </trkpt>
      <trkpt lat="47.632935" lon="1.9376547">
        <ele>180.0</ele>
        <time>2022-04-14T08:18:00Z</time>
      </trkpt>
      <trkpt lat="47.632942" lon="1.9376646">
        <ele>180.0</ele>
        <time>2022-04-14T08:18:01Z</time>
      </trkpt>
      <trkpt lat="47.63295" lon="1.9376782">
        <ele>180.0</ele>
        <time>2022-04-14T08:18:02Z</time>
      </trkpt>
      <trkpt lat="47.632946" lon="1.9376962">
        <ele>179.0</ele>
        <time>2022-04-14T08:18:03Z</time>
      </trkpt>
      <trkpt lat="47.632954" lon="1.9377068">
        <ele>179.0</ele>
        <time>2022-04-14T08:18:04Z</time>
      </trkpt>
      <trkpt lat="47.632957" lon="1.9377195">
        <ele>179.0</ele>
        <time>2022-04-14T08:18:05Z</time>
      </trkpt>
      <trkpt lat="47.632965" lon="1.9377288">
        <ele>179.0</ele>
        <time>2022-04-14T08:18:06Z</time>
      </trkpt>
      <trkpt lat="47.632973" lon="1.937744">
        <ele>179.0</ele>
        <time>2022-04-14T08:18:07Z</time>
      </trkpt>
      <trkpt lat="47.632977" lon="1.9377567">
        <ele>178.0</ele>
        <time>2022-04-14T08:18:08Z</time>
      </trkpt>
      <trkpt lat="47.632988" lon="1.9377714">
        <ele>179.0</ele>
        <time>2022-04-14T08:18:09Z</time>
      </trkpt>
      <trkpt lat="47.632996" lon="1.9377826">
        <ele>179.0</ele>
        <time>2022-04-14T08:18:10Z</time>
      </trkpt>
      <trkpt lat="47.633" lon="1.9377949">
        <ele>178.0</ele>
        <time>2022-04-14T08:18:11Z</time>
      </trkpt>
      <trkpt lat="47.633007" lon="1.9378027">
        <ele>178.0</ele>
        <time>2022-04-14T08:18:12Z</time>
      </trkpt>
      <trkpt lat="47.633015" lon="1.937814">
        <ele>178.0</ele>
        <time>2022-04-14T08:18:13Z</time>
      </trkpt>
      <trkpt lat="47.633022" lon="1.9378272">
        <ele>178.0</ele>
        <time>2022-04-14T08:18:14Z</time>
      </trkpt>
      <trkpt lat="47.633034" lon="1.9378356">
        <ele>179.0</ele>
        <time>2022-04-14T08:18:15Z</time>
      </trkpt>
      <trkpt lat="47.63304" lon="1.9378431">
        <ele>179.0</ele>
        <time>2022-04-14T08:18:16Z</time>
      </trkpt>
      <trkpt lat="47.63305" lon="1.9378515">
        <ele>179.0</ele>
        <time>2022-04-14T08:18:17Z</time>
      </trkpt>
      <trkpt lat="47.63306" lon="1.9378679">
        <ele>179.0</ele>
        <time>2022-04-14T08:18:18Z</time>
      </trkpt>
      <trkpt lat="47.633064" lon="1.9378783">
        <ele>179.0</ele>
        <time>2022-04-14T08:18:19Z</time>
      </trkpt>
      <trkpt lat="47.633076" lon="1.9378886">
        <ele>179.0</ele>
        <time>2022-04-14T08:18:20Z</time>
      </trkpt>
      <trkpt lat="47.633087" lon="1.9379058">
        <ele>179.0</ele>
        <time>2022-04-14T08:18:21Z</time>
      </trkpt>
      <trkpt lat="47.633095" lon="1.9379236">
        <ele>179.0</ele>
        <time>2022-04-14T08:18:22Z</time>
      </trkpt>
      <trkpt lat="47.6331" lon="1.9379396">
        <ele>180.0</ele>
        <time>2022-04-14T08:18:23Z</time>
      </trkpt>
      <trkpt lat="47.63311" lon="1.9379501">
        <ele>180.0</ele>
        <time>2022-04-14T08:18:24Z</time>
      </trkpt>
      <trkpt lat="47.633118" lon="1.9379649">
        <ele>180.0</ele>
        <time>2022-04-14T08:18:25Z</time>
      </trkpt>
      <trkpt lat="47.63313" lon="1.9379749">
        <ele>180.0</ele>
        <time>2022-04-14T08:18:26Z</time>
      </trkpt>
      <trkpt lat="47.633137" lon="1.9379911">
        <ele>180.0</ele>
        <time>2022-04-14T08:18:27Z</time>
      </trkpt>
      <trkpt lat="47.633144" lon="1.9379991">
        <ele>180.0</ele>
        <time>2022-04-14T08:18:28Z</time>
      </trkpt>
      <trkpt lat="47.633152" lon="1.9380025">
        <ele>180.0</ele>
        <time>2022-04-14T08:18:29Z</time>
      </trkpt>
      <trkpt lat="47.633163" lon="1.9380131">
        <ele>181.0</ele>
        <time>2022-04-14T08:18:30Z</time>
      </trkpt>
      <trkpt lat="47.63317" lon="1.9380208">
        <ele>180.0</ele>
        <time>2022-04-14T08:18:31Z</time>
      </trkpt>
      <trkpt lat="47.63318" lon="1.9380325">
        <ele>180.0</ele>
        <time>2022-04-14T08:18:32Z</time>
      </trkpt>
      <trkpt lat="47.633186" lon="1.938048">
        <ele>180.0</ele>
        <time>2022-04-14T08:18:33Z</time>
      </trkpt>
      <trkpt lat="47.633198" lon="1.9380579">
        <ele>180.0</ele>
        <time>2022-04-14T08:18:34Z</time>
      </trkpt>
      <trkpt lat="47.63321" lon="1.9380693">
        <ele>180.0</ele>
        <time>2022-04-14T08:18:35Z</time>
      </trkpt>
      <trkpt lat="47.63322" lon="1.9380827">
        <ele>180.0</ele>
        <time>2022-04-14T08:18:36Z</time>
      </trkpt>
      <trkpt lat="47.633232" lon="1.938093">
        <ele>181.0</ele>
        <time>2022-04-14T08:18:37Z</time>
      </trkpt>
      <trkpt lat="47.633236" lon="1.9381027">
        <ele>181.0</ele>
        <time>2022-04-14T08:18:38Z</time>
      </trkpt>
      <trkpt lat="47.63324" lon="1.9381164">
        <ele>181.0</ele>
        <time>2022-04-14T08:18:39Z</time>
      </trkpt>
      <trkpt lat="47.63325" lon="1.9381298">
        <ele>181.0</ele>
        <time>2022-04-14T08:18:40Z</time>
      </trkpt>
      <trkpt lat="47.63326" lon="1.938142">
        <ele>181.0</ele>
        <time>2022-04-14T08:18:41Z</time>
      </trkpt>
      <trkpt lat="47.633266" lon="1.9381523">
        <ele>181.0</ele>
        <time>2022-04-14T08:18:42Z</time>
      </trkpt>
      <trkpt lat="47.63327" lon="1.9381584">
        <ele>182.0</ele>
        <time>2022-04-14T08:18:43Z</time>
      </trkpt>
      <trkpt lat="47.633278" lon="1.9381615">
        <ele>182.0</ele>
        <time>2022-04-14T08:18:44Z</time>
      </trkpt>
      <trkpt lat="47.633286" lon="1.9381707">
        <ele>182.0</ele>
        <time>2022-04-14T08:18:45Z</time>
      </trkpt>
      <trkpt lat="47.63329" lon="1.9381818">
        <ele>182.0</ele>
        <time>2022-04-14T08:18:46Z</time>
      </trkpt>
      <trkpt lat="47.633297" lon="1.9381931">
        <ele>182.0</ele>
        <time>2022-04-14T08:18:47Z</time>
      </trkpt>
      <trkpt lat="47.633305" lon="1.9382032">
        <ele>182.0</ele>
        <time>2022-04-14T08:18:48Z</time>
      </trkpt>
      <trkpt lat="47.633312" lon="1.9382102">
        <ele>183.0</ele>
        <time>2022-04-14T08:18:49Z</time>
      </trkpt>
      <trkpt lat="47.63332" lon="1.9382217">
        <ele>183.0</ele>
        <time>2022-04-14T08:18:50Z</time>
      </trkpt>
      <trkpt lat="47.63333" lon="1.938235">
        <ele>183.0</ele>
        <time>2022-04-14T08:18:51Z</time>
      </trkpt>
      <trkpt lat="47.63334" lon="1.9382508">
        <ele>184.0</ele>
        <time>2022-04-14T08:18:52Z</time>
      </trkpt>
      <trkpt lat="47.633343" lon="1.9382657">
        <ele>184.0</ele>
        <time>2022-04-14T08:18:53Z</time>
      </trkpt>
      <trkpt lat="47.63335" lon="1.9382787">
        <ele>184.0</ele>
        <time>2022-04-14T08:18:54Z</time>
      </trkpt>
      <trkpt lat="47.633358" lon="1.9382924">
        <ele>184.0</ele>
        <time>2022-04-14T08:18:55Z</time>
      </trkpt>
      <trkpt lat="47.63337" lon="1.9383026">
        <ele>184.0</ele>
        <time>2022-04-14T08:18:56Z</time>
      </trkpt>
      <trkpt lat="47.633377" lon="1.9383146">
        <ele>184.0</ele>
        <time>2022-04-14T08:18:57Z</time>
      </trkpt>
      <trkpt lat="47.633385" lon="1.9383287">
        <ele>184.0</ele>
        <time>2022-04-14T08:18:58Z</time>
      </trkpt>
      <trkpt lat="47.633392" lon="1.9383414">
        <ele>185.0</ele>
        <time>2022-04-14T08:18:59Z</time>
      </trkpt>
      <trkpt lat="47.633404" lon="1.9383552">
        <ele>185.0</ele>
        <time>2022-04-14T08:19:00Z</time>
      </trkpt>
      <trkpt lat="47.633408" lon="1.9383694">
        <ele>185.0</ele>
        <time>2022-04-14T08:19:01Z</time>
      </trkpt>
      <trkpt lat="47.633415" lon="1.9383837">
        <ele>185.0</ele>
        <time>2022-04-14T08:19:02Z</time>
      </trkpt>
      <trkpt lat="47.633423" lon="1.9383966">
        <ele>185.0</ele>
        <time>2022-04-14T08:19:03Z</time>
      </trkpt>
      <trkpt lat="47.633423" lon="1.938409">
        <ele>186.0</ele>
        <time>2022-04-14T08:19:04Z</time>
      </trkpt>
      <trkpt lat="47.633427" lon="1.9384203">
        <ele>186.0</ele>
        <time>2022-04-14T08:19:05Z</time>
      </trkpt>
      <trkpt lat="47.63344" lon="1.938432">
        <ele>186.0</ele>
        <time>2022-04-14T08:19:06Z</time>
      </trkpt>
      <trkpt lat="47.633442" lon="1.938444">
        <ele>186.0</ele>
        <time>2022-04-14T08:19:07Z</time>
      </trkpt>
      <trkpt lat="47.63345" lon="1.9384558">
        <ele>187.0</ele>
        <time>2022-04-14T08:19:08Z</time>
      </trkpt>
      <trkpt lat="47.633453" lon="1.9384688">
        <ele>187.0</ele>
        <time>2022-04-14T08:19:09Z</time>
      </trkpt>
      <trkpt lat="47.633457" lon="1.93848">
        <ele>187.0</ele>
        <time>2022-04-14T08:19:10Z</time>
      </trkpt>
      <trkpt lat="47.633465" lon="1.9384913">
        <ele>187.0</ele>
        <time>2022-04-14T08:19:11Z</time>
      </trkpt>
      <trkpt lat="47.633472" lon="1.9385029">
        <ele>187.0</ele>
        <time>2022-04-14T08:19:12Z</time>
      </trkpt>
      <trkpt lat="47.63348" lon="1.9385134">
        <ele>188.0</ele>
        <time>2022-04-14T08:19:13Z</time>
      </trkpt>
      <trkpt lat="47.633488" lon="1.9385223">
        <ele>188.0</ele>
        <time>2022-04-14T08:19:14Z</time>
      </trkpt>
      <trkpt lat="47.63349" lon="1.9385339">
        <ele>187.0</ele>
        <time>2022-04-14T08:19:15Z</time>
      </trkpt>
      <trkpt lat="47.6335" lon="1.9385449">
        <ele>187.0</ele>
        <time>2022-04-14T08:19:16Z</time>
      </trkpt>
      <trkpt lat="47.63351" lon="1.9385574">
        <ele>188.0</ele>
        <time>2022-04-14T08:19:17Z</time>
      </trkpt>
      <trkpt lat="47.633514" lon="1.938574">
        <ele>188.0</ele>
        <time>2022-04-14T08:19:18Z</time>
      </trkpt>
      <trkpt lat="47.633522" lon="1.938591">
        <ele>188.0</ele>
        <time>2022-04-14T08:19:19Z</time>
      </trkpt>
      <trkpt lat="47.63353" lon="1.938603">
        <ele>189.0</ele>
        <time>2022-04-14T08:19:20Z</time>
      </trkpt>
      <trkpt lat="47.633537" lon="1.9386122">
        <ele>189.0</ele>
        <time>2022-04-14T08:19:21Z</time>
      </trkpt>
      <trkpt lat="47.633556" lon="1.9386239">
        <ele>189.0</ele>
        <time>2022-04-14T08:19:22Z</time>
      </trkpt>
      <trkpt lat="47.633568" lon="1.9386369">
        <ele>189.0</ele>
        <time>2022-04-14T08:19:23Z</time>
      </trkpt>
      <trkpt lat="47.633575" lon="1.9386469">
        <ele>190.0</ele>
        <time>2022-04-14T08:19:24Z</time>
      </trkpt>
      <trkpt lat="47.633575" lon="1.9386578">
        <ele>189.0</ele>
        <time>2022-04-14T08:19:25Z</time>
      </trkpt>
      <trkpt lat="47.633583" lon="1.9386706">
        <ele>189.0</ele>
        <time>2022-04-14T08:19:26Z</time>
      </trkpt>
      <trkpt lat="47.63359" lon="1.9386847">
        <ele>189.0</ele>
        <time>2022-04-14T08:19:27Z</time>
      </trkpt>
      <trkpt lat="47.633602" lon="1.938699">
        <ele>190.0</ele>
        <time>2022-04-14T08:19:28Z</time>
      </trkpt>
      <trkpt lat="47.633614" lon="1.9387172">
        <ele>190.0</ele>
        <time>2022-04-14T08:19:29Z</time>
      </trkpt>
      <trkpt lat="47.63362" lon="1.9387307">
        <ele>190.0</ele>
        <time>2022-04-14T08:19:30Z</time>
      </trkpt>
      <trkpt lat="47.633633" lon="1.9387461">
        <ele>190.0</ele>
        <time>2022-04-14T08:19:31Z</time>
      </trkpt>
      <trkpt lat="47.633636" lon="1.9387616">
        <ele>189.0</ele>
        <time>2022-04-14T08:19:32Z</time>
      </trkpt>
      <trkpt lat="47.633644" lon="1.9387795">
        <ele>189.0</ele>
        <time>2022-04-14T08:19:33Z</time>
      </trkpt>
      <trkpt lat="47.633648" lon="1.9387897">
        <ele>188.0</ele>
        <time>2022-04-14T08:19:34Z</time>
      </trkpt>
      <trkpt lat="47.633656" lon="1.9387999">
        <ele>188.0</ele>
        <time>2022-04-14T08:19:35Z</time>
      </trkpt>
      <trkpt lat="47.633667" lon="1.9388133">
        <ele>188.0</ele>
        <time>2022-04-14T08:19:36Z</time>
      </trkpt>
      <trkpt lat="47.63367" lon="1.9388217">
        <ele>188.0</ele>
        <time>2022-04-14T08:19:37Z</time>
      </trkpt>
      <trkpt lat="47.633682" lon="1.9388398">
        <ele>188.0</ele>
        <time>2022-04-14T08:19:38Z</time>
      </trkpt>
      <trkpt lat="47.633694" lon="1.9388535">
        <ele>188.0</ele>
        <time>2022-04-14T08:19:39Z</time>
      </trkpt>
      <trkpt lat="47.633698" lon="1.9388688">
        <ele>188.0</ele>
        <time>2022-04-14T08:19:40Z</time>
      </trkpt>
      <trkpt lat="47.633705" lon="1.9388816">
        <ele>187.0</ele>
        <time>2022-04-14T08:19:41Z</time>
      </trkpt>
      <trkpt lat="47.63372" lon="1.9388931">
        <ele>187.0</ele>
        <time>2022-04-14T08:19:42Z</time>
      </trkpt>
      <trkpt lat="47.633736" lon="1.9389126">
        <ele>187.0</ele>
        <time>2022-04-14T08:19:43Z</time>
      </trkpt>
      <trkpt lat="47.633747" lon="1.9389284">
        <ele>186.0</ele>
        <time>2022-04-14T08:19:44Z</time>
      </trkpt>
      <trkpt lat="47.63376" lon="1.9389435">
        <ele>186.0</ele>
        <time>2022-04-14T08:19:45Z</time>
      </trkpt>
      <trkpt lat="47.63377" lon="1.938959">
        <ele>186.0</ele>
        <time>2022-04-14T08:19:46Z</time>
      </trkpt>
      <trkpt lat="47.633778" lon="1.9389975">
        <ele>186.0</ele>
        <time>2022-04-14T08:19:48Z</time>
      </trkpt>
      <trkpt lat="47.633778" lon="1.939011">
        <ele>186.0</ele>
        <time>2022-04-14T08:19:49Z</time>
      </trkpt>
      <trkpt lat="47.63378" lon="1.9390235">
        <ele>186.0</ele>
        <time>2022-04-14T08:19:50Z</time>
      </trkpt>
      <trkpt lat="47.633785" lon="1.9390363">
        <ele>185.0</ele>
        <time>2022-04-14T08:19:51Z</time>
      </trkpt>
      <trkpt lat="47.63379" lon="1.9390495">
        <ele>185.0</ele>
        <time>2022-04-14T08:19:52Z</time>
      </trkpt>
      <trkpt lat="47.633793" lon="1.9390609">
        <ele>185.0</ele>
        <time>2022-04-14T08:19:53Z</time>
      </trkpt>
      <trkpt lat="47.6338" lon="1.9390762">
        <ele>185.0</ele>
        <time>2022-04-14T08:19:54Z</time>
      </trkpt>
      <trkpt lat="47.633812" lon="1.9390938">
        <ele>185.0</ele>
        <time>2022-04-14T08:19:55Z</time>
      </trkpt>
      <trkpt lat="47.63382" lon="1.939111">
        <ele>185.0</ele>
        <time>2022-04-14T08:19:56Z</time>
      </trkpt>
      <trkpt lat="47.633827" lon="1.93913">
        <ele>185.0</ele>
        <time>2022-04-14T08:19:57Z</time>
      </trkpt>
      <trkpt lat="47.63383" lon="1.9391451">
        <ele>184.0</ele>
        <time>2022-04-14T08:19:58Z</time>
      </trkpt>
      <trkpt lat="47.633842" lon="1.9391574">
        <ele>184.0</ele>
        <time>2022-04-14T08:19:59Z</time>
      </trkpt>
      <trkpt lat="47.63385" lon="1.9391683">
        <ele>184.0</ele>
        <time>2022-04-14T08:20:00Z</time>
      </trkpt>
      <trkpt lat="47.633858" lon="1.9391799">
        <ele>184.0</ele>
        <time>2022-04-14T08:20:01Z</time>
      </trkpt>
      <trkpt lat="47.633865" lon="1.9391923">
        <ele>184.0</ele>
        <time>2022-04-14T08:20:02Z</time>
      </trkpt>
      <trkpt lat="47.633873" lon="1.9392033">
        <ele>184.0</ele>
        <time>2022-04-14T08:20:03Z</time>
      </trkpt>
      <trkpt lat="47.63388" lon="1.9392192">
        <ele>184.0</ele>
        <time>2022-04-14T08:20:04Z</time>
      </trkpt>
      <trkpt lat="47.63389" lon="1.939235">
        <ele>184.0</ele>
        <time>2022-04-14T08:20:05Z</time>
      </trkpt>
      <trkpt lat="47.63389" lon="1.9392495">
        <ele>184.0</ele>
        <time>2022-04-14T08:20:06Z</time>
      </trkpt>
      <trkpt lat="47.633896" lon="1.9392669">
        <ele>184.0</ele>
        <time>2022-04-14T08:20:07Z</time>
      </trkpt>
      <trkpt lat="47.633904" lon="1.9392835">
        <ele>184.0</ele>
        <time>2022-04-14T08:20:08Z</time>
      </trkpt>
      <trkpt lat="47.633915" lon="1.9392971">
        <ele>184.0</ele>
        <time>2022-04-14T08:20:09Z</time>
      </trkpt>
      <trkpt lat="47.633926" lon="1.9393038">
        <ele>183.0</ele>
        <time>2022-04-14T08:20:10Z</time>
      </trkpt>
      <trkpt lat="47.633934" lon="1.9393134">
        <ele>183.0</ele>
        <time>2022-04-14T08:20:11Z</time>
      </trkpt>
      <trkpt lat="47.633945" lon="1.9393278">
        <ele>183.0</ele>
        <time>2022-04-14T08:20:12Z</time>
      </trkpt>
      <trkpt lat="47.633953" lon="1.9393431">
        <ele>183.0</ele>
        <time>2022-04-14T08:20:13Z</time>
      </trkpt>
      <trkpt lat="47.633965" lon="1.9393585">
        <ele>183.0</ele>
        <time>2022-04-14T08:20:14Z</time>
      </trkpt>
      <trkpt lat="47.633972" lon="1.9393723">
        <ele>184.0</ele>
        <time>2022-04-14T08:20:15Z</time>
      </trkpt>
      <trkpt lat="47.633976" lon="1.939391">
        <ele>184.0</ele>
        <time>2022-04-14T08:20:16Z</time>
      </trkpt>
      <trkpt lat="47.633976" lon="1.9394045">
        <ele>183.0</ele>
        <time>2022-04-14T08:20:17Z</time>
      </trkpt>
      <trkpt lat="47.633984" lon="1.9394122">
        <ele>183.0</ele>
        <time>2022-04-14T08:20:18Z</time>
      </trkpt>
      <trkpt lat="47.633995" lon="1.939425">
        <ele>183.0</ele>
        <time>2022-04-14T08:20:19Z</time>
      </trkpt>
      <trkpt lat="47.634003" lon="1.9394357">
        <ele>183.0</ele>
        <time>2022-04-14T08:20:20Z</time>
      </trkpt>
      <trkpt lat="47.634014" lon="1.9394462">
        <ele>183.0</ele>
        <time>2022-04-14T08:20:21Z</time>
      </trkpt>
      <trkpt lat="47.63402" lon="1.9394611">
        <ele>183.0</ele>
        <time>2022-04-14T08:20:22Z</time>
      </trkpt>
      <trkpt lat="47.63403" lon="1.9394765">
        <ele>183.0</ele>
        <time>2022-04-14T08:20:23Z</time>
      </trkpt>
      <trkpt lat="47.634037" lon="1.9394927">
        <ele>183.0</ele>
        <time>2022-04-14T08:20:24Z</time>
      </trkpt>
      <trkpt lat="47.63404" lon="1.9395112">
        <ele>183.0</ele>
        <time>2022-04-14T08:20:25Z</time>
      </trkpt>
      <trkpt lat="47.634045" lon="1.9395267">
        <ele>183.0</ele>
        <time>2022-04-14T08:20:26Z</time>
      </trkpt>
      <trkpt lat="47.634052" lon="1.9395396">
        <ele>182.0</ele>
        <time>2022-04-14T08:20:27Z</time>
      </trkpt>
      <trkpt lat="47.634064" lon="1.939554">
        <ele>182.0</ele>
        <time>2022-04-14T08:20:28Z</time>
      </trkpt>
      <trkpt lat="47.63407" lon="1.9395696">
        <ele>182.0</ele>
        <time>2022-04-14T08:20:29Z</time>
      </trkpt>
      <trkpt lat="47.63408" lon="1.9395894">
        <ele>182.0</ele>
        <time>2022-04-14T08:20:30Z</time>
      </trkpt>
      <trkpt lat="47.634083" lon="1.9396024">
        <ele>182.0</ele>
        <time>2022-04-14T08:20:31Z</time>
      </trkpt>
      <trkpt lat="47.63409" lon="1.9396185">
        <ele>182.0</ele>
        <time>2022-04-14T08:20:32Z</time>
      </trkpt>
      <trkpt lat="47.634106" lon="1.939628">
        <ele>182.0</ele>
        <time>2022-04-14T08:20:33Z</time>
      </trkpt>
      <trkpt lat="47.634117" lon="1.9396381">
        <ele>181.0</ele>
        <time>2022-04-14T08:20:34Z</time>
      </trkpt>
      <trkpt lat="47.634125" lon="1.939647">
        <ele>181.0</ele>
        <time>2022-04-14T08:20:35Z</time>
      </trkpt>
      <trkpt lat="47.634136" lon="1.9396514">
        <ele>181.0</ele>
        <time>2022-04-14T08:20:36Z</time>
      </trkpt>
      <trkpt lat="47.63414" lon="1.9396629">
        <ele>181.0</ele>
        <time>2022-04-14T08:20:37Z</time>
      </trkpt>
      <trkpt lat="47.63414" lon="1.9396768">
        <ele>180.0</ele>
        <time>2022-04-14T08:20:38Z</time>
      </trkpt>
      <trkpt lat="47.634148" lon="1.939687">
        <ele>180.0</ele>
        <time>2022-04-14T08:20:39Z</time>
      </trkpt>
      <trkpt lat="47.63415" lon="1.9396995">
        <ele>180.0</ele>
        <time>2022-04-14T08:20:40Z</time>
      </trkpt>
      <trkpt lat="47.634163" lon="1.939712">
        <ele>180.0</ele>
        <time>2022-04-14T08:20:41Z</time>
      </trkpt>
      <trkpt lat="47.63417" lon="1.9397261">
        <ele>179.0</ele>
        <time>2022-04-14T08:20:42Z</time>
      </trkpt>
      <trkpt lat="47.63418" lon="1.9397417">
        <ele>179.0</ele>
        <time>2022-04-14T08:20:43Z</time>
      </trkpt>
      <trkpt lat="47.634186" lon="1.9397582">
        <ele>180.0</ele>
        <time>2022-04-14T08:20:44Z</time>
      </trkpt>
      <trkpt lat="47.634193" lon="1.9397788">
        <ele>180.0</ele>
        <time>2022-04-14T08:20:45Z</time>
      </trkpt>
      <trkpt lat="47.6342" lon="1.9397998">
        <ele>180.0</ele>
        <time>2022-04-14T08:20:46Z</time>
      </trkpt>
      <trkpt lat="47.63421" lon="1.939813">
        <ele>180.0</ele>
        <time>2022-04-14T08:20:47Z</time>
      </trkpt>
      <trkpt lat="47.634212" lon="1.9398206">
        <ele>181.0</ele>
        <time>2022-04-14T08:20:48Z</time>
      </trkpt>
      <trkpt lat="47.634224" lon="1.939832">
        <ele>180.0</ele>
        <time>2022-04-14T08:20:49Z</time>
      </trkpt>
      <trkpt lat="47.634235" lon="1.9398419">
        <ele>180.0</ele>
        <time>2022-04-14T08:20:50Z</time>
      </trkpt>
      <trkpt lat="47.634247" lon="1.9398524">
        <ele>180.0</ele>
        <time>2022-04-14T08:20:51Z</time>
      </trkpt>
      <trkpt lat="47.634262" lon="1.9398606">
        <ele>180.0</ele>
        <time>2022-04-14T08:20:52Z</time>
      </trkpt>
      <trkpt lat="47.634274" lon="1.9398686">
        <ele>181.0</ele>
        <time>2022-04-14T08:20:53Z</time>
      </trkpt>
      <trkpt lat="47.634285" lon="1.9398776">
        <ele>181.0</ele>
        <time>2022-04-14T08:20:54Z</time>
      </trkpt>
      <trkpt lat="47.634293" lon="1.9398848">
        <ele>182.0</ele>
        <time>2022-04-14T08:20:55Z</time>
      </trkpt>
      <trkpt lat="47.634304" lon="1.9398932">
        <ele>182.0</ele>
        <time>2022-04-14T08:20:56Z</time>
      </trkpt>
      <trkpt lat="47.634315" lon="1.9399047">
        <ele>182.0</ele>
        <time>2022-04-14T08:20:57Z</time>
      </trkpt>
      <trkpt lat="47.634327" lon="1.9399197">
        <ele>182.0</ele>
        <time>2022-04-14T08:20:58Z</time>
      </trkpt>
      <trkpt lat="47.63434" lon="1.9399273">
        <ele>182.0</ele>
        <time>2022-04-14T08:20:59Z</time>
      </trkpt>
      <trkpt lat="47.63435" lon="1.9399385">
        <ele>182.0</ele>
        <time>2022-04-14T08:21:00Z</time>
      </trkpt>
      <trkpt lat="47.634354" lon="1.9399515">
        <ele>182.0</ele>
        <time>2022-04-14T08:21:01Z</time>
      </trkpt>
      <trkpt lat="47.63436" lon="1.9399655">
        <ele>182.0</ele>
        <time>2022-04-14T08:21:02Z</time>
      </trkpt>
      <trkpt lat="47.63437" lon="1.939984">
        <ele>182.0</ele>
        <time>2022-04-14T08:21:03Z</time>
      </trkpt>
      <trkpt lat="47.634377" lon="1.9400005">
        <ele>182.0</ele>
        <time>2022-04-14T08:21:04Z</time>
      </trkpt>
      <trkpt lat="47.634388" lon="1.9400172">
        <ele>182.0</ele>
        <time>2022-04-14T08:21:05Z</time>
      </trkpt>
      <trkpt lat="47.634396" lon="1.9400338">
        <ele>182.0</ele>
        <time>2022-04-14T08:21:06Z</time>
      </trkpt>
      <trkpt lat="47.6344" lon="1.9400489">
        <ele>183.0</ele>
        <time>2022-04-14T08:21:07Z</time>
      </trkpt>
      <trkpt lat="47.634407" lon="1.9400637">
        <ele>183.0</ele>
        <time>2022-04-14T08:21:08Z</time>
      </trkpt>
      <trkpt lat="47.63441" lon="1.9400768">
        <ele>183.0</ele>
        <time>2022-04-14T08:21:09Z</time>
      </trkpt>
      <trkpt lat="47.634415" lon="1.940088">
        <ele>183.0</ele>
        <time>2022-04-14T08:21:10Z</time>
      </trkpt>
      <trkpt lat="47.63442" lon="1.9401009">
        <ele>183.0</ele>
        <time>2022-04-14T08:21:11Z</time>
      </trkpt>
      <trkpt lat="47.634426" lon="1.940112">
        <ele>183.0</ele>
        <time>2022-04-14T08:21:12Z</time>
      </trkpt>
      <trkpt lat="47.63443" lon="1.9401196">
        <ele>183.0</ele>
        <time>2022-04-14T08:21:13Z</time>
      </trkpt>
      <trkpt lat="47.63444" lon="1.9401298">
        <ele>183.0</ele>
        <time>2022-04-14T08:21:14Z</time>
      </trkpt>
      <trkpt lat="47.634445" lon="1.9401407">
        <ele>183.0</ele>
        <time>2022-04-14T08:21:15Z</time>
      </trkpt>
      <trkpt lat="47.634453" lon="1.940156">
        <ele>183.0</ele>
        <time>2022-04-14T08:21:16Z</time>
      </trkpt>
      <trkpt lat="47.63446" lon="1.9401742">
        <ele>183.0</ele>
        <time>2022-04-14T08:21:17Z</time>
      </trkpt>
      <trkpt lat="47.634468" lon="1.9401913">
        <ele>183.0</ele>
        <time>2022-04-14T08:21:18Z</time>
      </trkpt>
      <trkpt lat="47.63447" lon="1.9402068">
        <ele>183.0</ele>
        <time>2022-04-14T08:21:19Z</time>
      </trkpt>
      <trkpt lat="47.63448" lon="1.9402206">
        <ele>183.0</ele>
        <time>2022-04-14T08:21:20Z</time>
      </trkpt>
      <trkpt lat="47.634483" lon="1.9402348">
        <ele>183.0</ele>
        <time>2022-04-14T08:21:21Z</time>
      </trkpt>
      <trkpt lat="47.634487" lon="1.9402536">
        <ele>182.0</ele>
        <time>2022-04-14T08:21:22Z</time>
      </trkpt>
      <trkpt lat="47.634495" lon="1.9402672">
        <ele>182.0</ele>
        <time>2022-04-14T08:21:23Z</time>
      </trkpt>
      <trkpt lat="47.6345" lon="1.9402775">
        <ele>181.0</ele>
        <time>2022-04-14T08:21:24Z</time>
      </trkpt>
      <trkpt lat="47.63451" lon="1.9402952">
        <ele>182.0</ele>
        <time>2022-04-14T08:21:25Z</time>
      </trkpt>
      <trkpt lat="47.634514" lon="1.9403076">
        <ele>181.0</ele>
        <time>2022-04-14T08:21:26Z</time>
      </trkpt>
      <trkpt lat="47.634525" lon="1.9403197">
        <ele>181.0</ele>
        <time>2022-04-14T08:21:27Z</time>
      </trkpt>
      <trkpt lat="47.634533" lon="1.9403325">
        <ele>181.0</ele>
        <time>2022-04-14T08:21:28Z</time>
      </trkpt>
      <trkpt lat="47.634544" lon="1.9403454">
        <ele>181.0</ele>
        <time>2022-04-14T08:21:29Z</time>
      </trkpt>
      <trkpt lat="47.634556" lon="1.9403642">
        <ele>181.0</ele>
        <time>2022-04-14T08:21:30Z</time>
      </trkpt>
      <trkpt lat="47.634563" lon="1.940381">
        <ele>181.0</ele>
        <time>2022-04-14T08:21:31Z</time>
      </trkpt>
      <trkpt lat="47.634575" lon="1.9403942">
        <ele>181.0</ele>
        <time>2022-04-14T08:21:32Z</time>
      </trkpt>
      <trkpt lat="47.634583" lon="1.9404112">
        <ele>181.0</ele>
        <time>2022-04-14T08:21:33Z</time>
      </trkpt>
      <trkpt lat="47.634594" lon="1.940428">
        <ele>181.0</ele>
        <time>2022-04-14T08:21:34Z</time>
      </trkpt>
      <trkpt lat="47.6346" lon="1.9404397">
        <ele>181.0</ele>
        <time>2022-04-14T08:21:35Z</time>
      </trkpt>
      <trkpt lat="47.634613" lon="1.9404541">
        <ele>181.0</ele>
        <time>2022-04-14T08:21:36Z</time>
      </trkpt>
      <trkpt lat="47.63462" lon="1.9404676">
        <ele>182.0</ele>
        <time>2022-04-14T08:21:37Z</time>
      </trkpt>
      <trkpt lat="47.634624" lon="1.940485">
        <ele>182.0</ele>
        <time>2022-04-14T08:21:38Z</time>
      </trkpt>
      <trkpt lat="47.634632" lon="1.9405019">
        <ele>182.0</ele>
        <time>2022-04-14T08:21:39Z</time>
      </trkpt>
      <trkpt lat="47.63464" lon="1.9405164">
        <ele>182.0</ele>
        <time>2022-04-14T08:21:40Z</time>
      </trkpt>
      <trkpt lat="47.634647" lon="1.9405309">
        <ele>182.0</ele>
        <time>2022-04-14T08:21:41Z</time>
      </trkpt>
      <trkpt lat="47.634655" lon="1.9405444">
        <ele>182.0</ele>
        <time>2022-04-14T08:21:42Z</time>
      </trkpt>
      <trkpt lat="47.634663" lon="1.9405577">
        <ele>182.0</ele>
        <time>2022-04-14T08:21:43Z</time>
      </trkpt>
      <trkpt lat="47.634666" lon="1.9405688">
        <ele>182.0</ele>
        <time>2022-04-14T08:21:44Z</time>
      </trkpt>
      <trkpt lat="47.634674" lon="1.9405843">
        <ele>182.0</ele>
        <time>2022-04-14T08:21:45Z</time>
      </trkpt>
      <trkpt lat="47.63468" lon="1.9405994">
        <ele>182.0</ele>
        <time>2022-04-14T08:21:46Z</time>
      </trkpt>
      <trkpt lat="47.63469" lon="1.9406146">
        <ele>182.0</ele>
        <time>2022-04-14T08:21:47Z</time>
      </trkpt>
      <trkpt lat="47.6347" lon="1.9406271">
        <ele>182.0</ele>
        <time>2022-04-14T08:21:48Z</time>
      </trkpt>
      <trkpt lat="47.63471" lon="1.9406397">
        <ele>182.0</ele>
        <time>2022-04-14T08:21:49Z</time>
      </trkpt>
      <trkpt lat="47.634716" lon="1.9406507">
        <ele>182.0</ele>
        <time>2022-04-14T08:21:50Z</time>
      </trkpt>
      <trkpt lat="47.634727" lon="1.940666">
        <ele>183.0</ele>
        <time>2022-04-14T08:21:51Z</time>
      </trkpt>
      <trkpt lat="47.634735" lon="1.9406778">
        <ele>183.0</ele>
        <time>2022-04-14T08:21:52Z</time>
      </trkpt>
      <trkpt lat="47.63474" lon="1.9406929">
        <ele>183.0</ele>
        <time>2022-04-14T08:21:53Z</time>
      </trkpt>
      <trkpt lat="47.634747" lon="1.9407037">
        <ele>183.0</ele>
        <time>2022-04-14T08:21:54Z</time>
      </trkpt>
      <trkpt lat="47.634754" lon="1.9407176">
        <ele>182.0</ele>
        <time>2022-04-14T08:21:55Z</time>
      </trkpt>
      <trkpt lat="47.634758" lon="1.9407324">
        <ele>183.0</ele>
        <time>2022-04-14T08:21:56Z</time>
      </trkpt>
      <trkpt lat="47.63477" lon="1.9407444">
        <ele>183.0</ele>
        <time>2022-04-14T08:21:57Z</time>
      </trkpt>
      <trkpt lat="47.634777" lon="1.9407572">
        <ele>183.0</ele>
        <time>2022-04-14T08:21:58Z</time>
      </trkpt>
      <trkpt lat="47.634785" lon="1.9407758">
        <ele>183.0</ele>
        <time>2022-04-14T08:21:59Z</time>
      </trkpt>
      <trkpt lat="47.634792" lon="1.9407898">
        <ele>182.0</ele>
        <time>2022-04-14T08:22:00Z</time>
      </trkpt>
      <trkpt lat="47.634796" lon="1.9408017">
        <ele>182.0</ele>
        <time>2022-04-14T08:22:01Z</time>
      </trkpt>
      <trkpt lat="47.634804" lon="1.9408143">
        <ele>182.0</ele>
        <time>2022-04-14T08:22:02Z</time>
      </trkpt>
      <trkpt lat="47.63481" lon="1.9408259">
        <ele>182.0</ele>
        <time>2022-04-14T08:22:03Z</time>
      </trkpt>
      <trkpt lat="47.63482" lon="1.9408386">
        <ele>182.0</ele>
        <time>2022-04-14T08:22:04Z</time>
      </trkpt>
      <trkpt lat="47.634827" lon="1.9408511">
        <ele>181.0</ele>
        <time>2022-04-14T08:22:05Z</time>
      </trkpt>
      <trkpt lat="47.63483" lon="1.9408704">
        <ele>181.0</ele>
        <time>2022-04-14T08:22:06Z</time>
      </trkpt>
      <trkpt lat="47.63483" lon="1.9408845">
        <ele>181.0</ele>
        <time>2022-04-14T08:22:07Z</time>
      </trkpt>
      <trkpt lat="47.634834" lon="1.9408996">
        <ele>181.0</ele>
        <time>2022-04-14T08:22:08Z</time>
      </trkpt>
      <trkpt lat="47.634842" lon="1.9409161">
        <ele>181.0</ele>
        <time>2022-04-14T08:22:09Z</time>
      </trkpt>
      <trkpt lat="47.63485" lon="1.9409268">
        <ele>181.0</ele>
        <time>2022-04-14T08:22:10Z</time>
      </trkpt>
      <trkpt lat="47.63486" lon="1.9409394">
        <ele>182.0</ele>
        <time>2022-04-14T08:22:11Z</time>
      </trkpt>
      <trkpt lat="47.63487" lon="1.9409486">
        <ele>181.0</ele>
        <time>2022-04-14T08:22:12Z</time>
      </trkpt>
      <trkpt lat="47.634876" lon="1.9409623">
        <ele>182.0</ele>
        <time>2022-04-14T08:22:13Z</time>
      </trkpt>
      <trkpt lat="47.63488" lon="1.9409703">
        <ele>182.0</ele>
        <time>2022-04-14T08:22:14Z</time>
      </trkpt>
      <trkpt lat="47.63489" lon="1.9409821">
        <ele>181.0</ele>
        <time>2022-04-14T08:22:15Z</time>
      </trkpt>
      <trkpt lat="47.6349" lon="1.9409944">
        <ele>182.0</ele>
        <time>2022-04-14T08:22:16Z</time>
      </trkpt>
      <trkpt lat="47.634907" lon="1.9410069">
        <ele>182.0</ele>
        <time>2022-04-14T08:22:17Z</time>
      </trkpt>
      <trkpt lat="47.634914" lon="1.9410228">
        <ele>182.0</ele>
        <time>2022-04-14T08:22:18Z</time>
      </trkpt>
      <trkpt lat="47.634922" lon="1.9410399">
        <ele>182.0</ele>
        <time>2022-04-14T08:22:19Z</time>
      </trkpt>
      <trkpt lat="47.63493" lon="1.9410539">
        <ele>181.0</ele>
        <time>2022-04-14T08:22:20Z</time>
      </trkpt>
      <trkpt lat="47.634933" lon="1.9410708">
        <ele>181.0</ele>
        <time>2022-04-14T08:22:21Z</time>
      </trkpt>
      <trkpt lat="47.63494" lon="1.941088">
        <ele>181.0</ele>
        <time>2022-04-14T08:22:22Z</time>
      </trkpt>
      <trkpt lat="47.63495" lon="1.9411039">
        <ele>181.0</ele>
        <time>2022-04-14T08:22:23Z</time>
      </trkpt>
      <trkpt lat="47.634956" lon="1.9411215">
        <ele>181.0</ele>
        <time>2022-04-14T08:22:24Z</time>
      </trkpt>
      <trkpt lat="47.634964" lon="1.9411392">
        <ele>181.0</ele>
        <time>2022-04-14T08:22:25Z</time>
      </trkpt>
      <trkpt lat="47.634975" lon="1.9411582">
        <ele>181.0</ele>
        <time>2022-04-14T08:22:26Z</time>
      </trkpt>
      <trkpt lat="47.63498" lon="1.9411709">
        <ele>181.0</ele>
        <time>2022-04-14T08:22:27Z</time>
      </trkpt>
      <trkpt lat="47.634983" lon="1.9411864">
        <ele>180.0</ele>
        <time>2022-04-14T08:22:28Z</time>
      </trkpt>
      <trkpt lat="47.63499" lon="1.9412001">
        <ele>181.0</ele>
        <time>2022-04-14T08:22:29Z</time>
      </trkpt>
      <trkpt lat="47.634995" lon="1.9412123">
        <ele>180.0</ele>
        <time>2022-04-14T08:22:30Z</time>
      </trkpt>
      <trkpt lat="47.635002" lon="1.9412268">
        <ele>180.0</ele>
        <time>2022-04-14T08:22:31Z</time>
      </trkpt>
      <trkpt lat="47.635006" lon="1.9412373">
        <ele>180.0</ele>
        <time>2022-04-14T08:22:32Z</time>
      </trkpt>
      <trkpt lat="47.635014" lon="1.9412487">
        <ele>180.0</ele>
        <time>2022-04-14T08:22:33Z</time>
      </trkpt>
      <trkpt lat="47.63502" lon="1.9412613">
        <ele>180.0</ele>
        <time>2022-04-14T08:22:34Z</time>
      </trkpt>
      <trkpt lat="47.63503" lon="1.9412777">
        <ele>180.0</ele>
        <time>2022-04-14T08:22:35Z</time>
      </trkpt>
      <trkpt lat="47.635036" lon="1.9412897">
        <ele>180.0</ele>
        <time>2022-04-14T08:22:36Z</time>
      </trkpt>
      <trkpt lat="47.635044" lon="1.9413016">
        <ele>180.0</ele>
        <time>2022-04-14T08:22:37Z</time>
      </trkpt>
      <trkpt lat="47.635056" lon="1.9413143">
        <ele>180.0</ele>
        <time>2022-04-14T08:22:38Z</time>
      </trkpt>
      <trkpt lat="47.635063" lon="1.9413254">
        <ele>180.0</ele>
        <time>2022-04-14T08:22:39Z</time>
      </trkpt>
      <trkpt lat="47.63507" lon="1.941336">
        <ele>180.0</ele>
        <time>2022-04-14T08:22:40Z</time>
      </trkpt>
      <trkpt lat="47.63508" lon="1.9413459">
        <ele>180.0</ele>
        <time>2022-04-14T08:22:41Z</time>
      </trkpt>
      <trkpt lat="47.635086" lon="1.9413571">
        <ele>180.0</ele>
        <time>2022-04-14T08:22:42Z</time>
      </trkpt>
      <trkpt lat="47.635098" lon="1.9413741">
        <ele>180.0</ele>
        <time>2022-04-14T08:22:43Z</time>
      </trkpt>
      <trkpt lat="47.635105" lon="1.9413891">
        <ele>180.0</ele>
        <time>2022-04-14T08:22:44Z</time>
      </trkpt>
      <trkpt lat="47.635113" lon="1.9414036">
        <ele>180.0</ele>
        <time>2022-04-14T08:22:45Z</time>
      </trkpt>
      <trkpt lat="47.63512" lon="1.9414158">
        <ele>180.0</ele>
        <time>2022-04-14T08:22:46Z</time>
      </trkpt>
      <trkpt lat="47.635128" lon="1.9414297">
        <ele>180.0</ele>
        <time>2022-04-14T08:22:47Z</time>
      </trkpt>
      <trkpt lat="47.63514" lon="1.9414426">
        <ele>180.0</ele>
        <time>2022-04-14T08:22:48Z</time>
      </trkpt>
      <trkpt lat="47.635147" lon="1.941455">
        <ele>180.0</ele>
        <time>2022-04-14T08:22:49Z</time>
      </trkpt>
      <trkpt lat="47.63516" lon="1.9414697">
        <ele>180.0</ele>
        <time>2022-04-14T08:22:50Z</time>
      </trkpt>
      <trkpt lat="47.635166" lon="1.9414867">
        <ele>180.0</ele>
        <time>2022-04-14T08:22:51Z</time>
      </trkpt>
      <trkpt lat="47.635174" lon="1.9415008">
        <ele>180.0</ele>
        <time>2022-04-14T08:22:52Z</time>
      </trkpt>
      <trkpt lat="47.635185" lon="1.9415185">
        <ele>180.0</ele>
        <time>2022-04-14T08:22:53Z</time>
      </trkpt>
      <trkpt lat="47.635193" lon="1.9415332">
        <ele>180.0</ele>
        <time>2022-04-14T08:22:54Z</time>
      </trkpt>
      <trkpt lat="47.635197" lon="1.9415472">
        <ele>179.0</ele>
        <time>2022-04-14T08:22:55Z</time>
      </trkpt>
      <trkpt lat="47.63521" lon="1.9415617">
        <ele>180.0</ele>
        <time>2022-04-14T08:22:56Z</time>
      </trkpt>
      <trkpt lat="47.635216" lon="1.9415766">
        <ele>180.0</ele>
        <time>2022-04-14T08:22:57Z</time>
      </trkpt>
      <trkpt lat="47.63522" lon="1.9415944">
        <ele>180.0</ele>
        <time>2022-04-14T08:22:58Z</time>
      </trkpt>
      <trkpt lat="47.635223" lon="1.9416101">
        <ele>180.0</ele>
        <time>2022-04-14T08:22:59Z</time>
      </trkpt>
      <trkpt lat="47.63523" lon="1.9416223">
        <ele>179.0</ele>
        <time>2022-04-14T08:23:00Z</time>
      </trkpt>
      <trkpt lat="47.63524" lon="1.941634">
        <ele>179.0</ele>
        <time>2022-04-14T08:23:01Z</time>
      </trkpt>
      <trkpt lat="47.635246" lon="1.9416453">
        <ele>179.0</ele>
        <time>2022-04-14T08:23:02Z</time>
      </trkpt>
      <trkpt lat="47.635258" lon="1.9416614">
        <ele>179.0</ele>
        <time>2022-04-14T08:23:03Z</time>
      </trkpt>
      <trkpt lat="47.635265" lon="1.9416769">
        <ele>179.0</ele>
        <time>2022-04-14T08:23:04Z</time>
      </trkpt>
      <trkpt lat="47.63527" lon="1.9416919">
        <ele>179.0</ele>
        <time>2022-04-14T08:23:05Z</time>
      </trkpt>
      <trkpt lat="47.635277" lon="1.9417045">
        <ele>179.0</ele>
        <time>2022-04-14T08:23:06Z</time>
      </trkpt>
      <trkpt lat="47.63529" lon="1.9417198">
        <ele>179.0</ele>
        <time>2022-04-14T08:23:07Z</time>
      </trkpt>
      <trkpt lat="47.635296" lon="1.9417344">
        <ele>179.0</ele>
        <time>2022-04-14T08:23:08Z</time>
      </trkpt>
      <trkpt lat="47.635303" lon="1.9417511">
        <ele>179.0</ele>
        <time>2022-04-14T08:23:09Z</time>
      </trkpt>
      <trkpt lat="47.63531" lon="1.9417664">
        <ele>179.0</ele>
        <time>2022-04-14T08:23:10Z</time>
      </trkpt>
      <trkpt lat="47.63532" lon="1.9417785">
        <ele>179.0</ele>
        <time>2022-04-14T08:23:11Z</time>
      </trkpt>
      <trkpt lat="47.635326" lon="1.9417907">
        <ele>179.0</ele>
        <time>2022-04-14T08:23:12Z</time>
      </trkpt>
      <trkpt lat="47.63533" lon="1.9418021">
        <ele>178.0</ele>
        <time>2022-04-14T08:23:13Z</time>
      </trkpt>
      <trkpt lat="47.635338" lon="1.9418124">
        <ele>179.0</ele>
        <time>2022-04-14T08:23:14Z</time>
      </trkpt>
      <trkpt lat="47.63535" lon="1.9418243">
        <ele>179.0</ele>
        <time>2022-04-14T08:23:15Z</time>
      </trkpt>
      <trkpt lat="47.63536" lon="1.9418402">
        <ele>179.0</ele>
        <time>2022-04-14T08:23:16Z</time>
      </trkpt>
      <trkpt lat="47.63537" lon="1.9418557">
        <ele>179.0</ele>
        <time>2022-04-14T08:23:17Z</time>
      </trkpt>
      <trkpt lat="47.63538" lon="1.9418707">
        <ele>179.0</ele>
        <time>2022-04-14T08:23:18Z</time>
      </trkpt>
      <trkpt lat="47.63539" lon="1.9418839">
        <ele>179.0</ele>
        <time>2022-04-14T08:23:19Z</time>
      </trkpt>
      <trkpt lat="47.6354" lon="1.9419005">
        <ele>179.0</ele>
        <time>2022-04-14T08:23:20Z</time>
      </trkpt>
      <trkpt lat="47.635403" lon="1.9419158">
        <ele>179.0</ele>
        <time>2022-04-14T08:23:21Z</time>
      </trkpt>
      <trkpt lat="47.63541" lon="1.9419315">
        <ele>179.0</ele>
        <time>2022-04-14T08:23:22Z</time>
      </trkpt>
      <trkpt lat="47.635414" lon="1.9419456">
        <ele>179.0</ele>
        <time>2022-04-14T08:23:23Z</time>
      </trkpt>
      <trkpt lat="47.63542" lon="1.9419605">
        <ele>179.0</ele>
        <time>2022-04-14T08:23:24Z</time>
      </trkpt>
      <trkpt lat="47.63543" lon="1.9419715">
        <ele>179.0</ele>
        <time>2022-04-14T08:23:25Z</time>
      </trkpt>
      <trkpt lat="47.635433" lon="1.941989">
        <ele>179.0</ele>
        <time>2022-04-14T08:23:26Z</time>
      </trkpt>
      <trkpt lat="47.63544" lon="1.9420067">
        <ele>179.0</ele>
        <time>2022-04-14T08:23:27Z</time>
      </trkpt>
      <trkpt lat="47.63545" lon="1.9420236">
        <ele>179.0</ele>
        <time>2022-04-14T08:23:28Z</time>
      </trkpt>
      <trkpt lat="47.635456" lon="1.9420406">
        <ele>180.0</ele>
        <time>2022-04-14T08:23:29Z</time>
      </trkpt>
      <trkpt lat="47.635464" lon="1.942056">
        <ele>180.0</ele>
        <time>2022-04-14T08:23:30Z</time>
      </trkpt>
      <trkpt lat="47.63547" lon="1.9420711">
        <ele>180.0</ele>
        <time>2022-04-14T08:23:31Z</time>
      </trkpt>
      <trkpt lat="47.635475" lon="1.9420847">
        <ele>180.0</ele>
        <time>2022-04-14T08:23:32Z</time>
      </trkpt>
      <trkpt lat="47.635483" lon="1.9421012">
        <ele>180.0</ele>
        <time>2022-04-14T08:23:33Z</time>
      </trkpt>
      <trkpt lat="47.635494" lon="1.9421177">
        <ele>180.0</ele>
        <time>2022-04-14T08:23:34Z</time>
      </trkpt>
      <trkpt lat="47.6355" lon="1.9421332">
        <ele>180.0</ele>
        <time>2022-04-14T08:23:35Z</time>
      </trkpt>
      <trkpt lat="47.63551" lon="1.942144">
        <ele>179.0</ele>
        <time>2022-04-14T08:23:36Z</time>
      </trkpt>
      <trkpt lat="47.635517" lon="1.9421583">
        <ele>179.0</ele>
        <time>2022-04-14T08:23:37Z</time>
      </trkpt>
      <trkpt lat="47.635525" lon="1.9421732">
        <ele>179.0</ele>
        <time>2022-04-14T08:23:38Z</time>
      </trkpt>
      <trkpt lat="47.63553" lon="1.942188">
        <ele>179.0</ele>
        <time>2022-04-14T08:23:39Z</time>
      </trkpt>
      <trkpt lat="47.635536" lon="1.9422058">
        <ele>179.0</ele>
        <time>2022-04-14T08:23:40Z</time>
      </trkpt>
      <trkpt lat="47.635544" lon="1.9422184">
        <ele>179.0</ele>
        <time>2022-04-14T08:23:41Z</time>
      </trkpt>
      <trkpt lat="47.63555" lon="1.9422326">
        <ele>178.0</ele>
        <time>2022-04-14T08:23:42Z</time>
      </trkpt>
      <trkpt lat="47.63556" lon="1.942247">
        <ele>178.0</ele>
        <time>2022-04-14T08:23:43Z</time>
      </trkpt>
      <trkpt lat="47.635567" lon="1.942261">
        <ele>178.0</ele>
        <time>2022-04-14T08:23:44Z</time>
      </trkpt>
      <trkpt lat="47.63558" lon="1.9422725">
        <ele>178.0</ele>
        <time>2022-04-14T08:23:45Z</time>
      </trkpt>
      <trkpt lat="47.63559" lon="1.9422851">
        <ele>178.0</ele>
        <time>2022-04-14T08:23:46Z</time>
      </trkpt>
      <trkpt lat="47.635597" lon="1.9423006">
        <ele>177.0</ele>
        <time>2022-04-14T08:23:47Z</time>
      </trkpt>
      <trkpt lat="47.635605" lon="1.9423182">
        <ele>178.0</ele>
        <time>2022-04-14T08:23:48Z</time>
      </trkpt>
      <trkpt lat="47.635612" lon="1.9423357">
        <ele>178.0</ele>
        <time>2022-04-14T08:23:49Z</time>
      </trkpt>
      <trkpt lat="47.63562" lon="1.9423525">
        <ele>178.0</ele>
        <time>2022-04-14T08:23:50Z</time>
      </trkpt>
      <trkpt lat="47.63563" lon="1.9423678">
        <ele>178.0</ele>
        <time>2022-04-14T08:23:51Z</time>
      </trkpt>
      <trkpt lat="47.635635" lon="1.9423779">
        <ele>178.0</ele>
        <time>2022-04-14T08:23:52Z</time>
      </trkpt>
      <trkpt lat="47.635647" lon="1.9423901">
        <ele>179.0</ele>
        <time>2022-04-14T08:23:53Z</time>
      </trkpt>
      <trkpt lat="47.635654" lon="1.9424055">
        <ele>178.0</ele>
        <time>2022-04-14T08:23:54Z</time>
      </trkpt>
      <trkpt lat="47.63566" lon="1.9424168">
        <ele>178.0</ele>
        <time>2022-04-14T08:23:55Z</time>
      </trkpt>
      <trkpt lat="47.635666" lon="1.9424303">
        <ele>178.0</ele>
        <time>2022-04-14T08:23:56Z</time>
      </trkpt>
      <trkpt lat="47.635674" lon="1.94244">
        <ele>178.0</ele>
        <time>2022-04-14T08:23:57Z</time>
      </trkpt>
      <trkpt lat="47.63568" lon="1.9424534">
        <ele>178.0</ele>
        <time>2022-04-14T08:23:58Z</time>
      </trkpt>
      <trkpt lat="47.63569" lon="1.9424626">
        <ele>178.0</ele>
        <time>2022-04-14T08:23:59Z</time>
      </trkpt>
      <trkpt lat="47.635696" lon="1.9424742">
        <ele>178.0</ele>
        <time>2022-04-14T08:24:00Z</time>
      </trkpt>
      <trkpt lat="47.635704" lon="1.9424874">
        <ele>178.0</ele>
        <time>2022-04-14T08:24:01Z</time>
      </trkpt>
      <trkpt lat="47.63572" lon="1.9425039">
        <ele>178.0</ele>
        <time>2022-04-14T08:24:02Z</time>
      </trkpt>
      <trkpt lat="47.635727" lon="1.9425166">
        <ele>178.0</ele>
        <time>2022-04-14T08:24:03Z</time>
      </trkpt>
      <trkpt lat="47.63574" lon="1.9425305">
        <ele>178.0</ele>
        <time>2022-04-14T08:24:04Z</time>
      </trkpt>
      <trkpt lat="47.635746" lon="1.9425412">
        <ele>178.0</ele>
        <time>2022-04-14T08:24:05Z</time>
      </trkpt>
      <trkpt lat="47.635757" lon="1.9425534">
        <ele>178.0</ele>
        <time>2022-04-14T08:24:06Z</time>
      </trkpt>
      <trkpt lat="47.635765" lon="1.942566">
        <ele>178.0</ele>
        <time>2022-04-14T08:24:07Z</time>
      </trkpt>
      <trkpt lat="47.635773" lon="1.9425774">
        <ele>178.0</ele>
        <time>2022-04-14T08:24:08Z</time>
      </trkpt>
      <trkpt lat="47.63578" lon="1.9425883">
        <ele>178.0</ele>
        <time>2022-04-14T08:24:09Z</time>
      </trkpt>
      <trkpt lat="47.63579" lon="1.9426033">
        <ele>178.0</ele>
        <time>2022-04-14T08:24:10Z</time>
      </trkpt>
      <trkpt lat="47.6358" lon="1.9426175">
        <ele>178.0</ele>
        <time>2022-04-14T08:24:11Z</time>
      </trkpt>
      <trkpt lat="47.635807" lon="1.9426318">
        <ele>178.0</ele>
        <time>2022-04-14T08:24:12Z</time>
      </trkpt>
      <trkpt lat="47.635815" lon="1.9426497">
        <ele>178.0</ele>
        <time>2022-04-14T08:24:13Z</time>
      </trkpt>
      <trkpt lat="47.635815" lon="1.9426693">
        <ele>178.0</ele>
        <time>2022-04-14T08:24:14Z</time>
      </trkpt>
      <trkpt lat="47.635815" lon="1.9426886">
        <ele>178.0</ele>
        <time>2022-04-14T08:24:15Z</time>
      </trkpt>
      <trkpt lat="47.63582" lon="1.9427066">
        <ele>178.0</ele>
        <time>2022-04-14T08:24:16Z</time>
      </trkpt>
      <trkpt lat="47.63582" lon="1.942723">
        <ele>179.0</ele>
        <time>2022-04-14T08:24:17Z</time>
      </trkpt>
      <trkpt lat="47.63582" lon="1.9427416">
        <ele>179.0</ele>
        <time>2022-04-14T08:24:18Z</time>
      </trkpt>
      <trkpt lat="47.63582" lon="1.9427564">
        <ele>179.0</ele>
        <time>2022-04-14T08:24:19Z</time>
      </trkpt>
      <trkpt lat="47.635815" lon="1.9427694">
        <ele>180.0</ele>
        <time>2022-04-14T08:24:20Z</time>
      </trkpt>
      <trkpt lat="47.635807" lon="1.94278">
        <ele>180.0</ele>
        <time>2022-04-14T08:24:21Z</time>
      </trkpt>
      <trkpt lat="47.635803" lon="1.9427928">
        <ele>180.0</ele>
        <time>2022-04-14T08:24:22Z</time>
      </trkpt>
      <trkpt lat="47.635796" lon="1.9428039">
        <ele>180.0</ele>
        <time>2022-04-14T08:24:23Z</time>
      </trkpt>
      <trkpt lat="47.635788" lon="1.9428122">
        <ele>181.0</ele>
        <time>2022-04-14T08:24:24Z</time>
      </trkpt>
      <trkpt lat="47.635784" lon="1.9428167">
        <ele>181.0</ele>
        <time>2022-04-14T08:24:25Z</time>
      </trkpt>
      <trkpt lat="47.635773" lon="1.9428221">
        <ele>181.0</ele>
        <time>2022-04-14T08:24:26Z</time>
      </trkpt>
      <trkpt lat="47.635765" lon="1.9428302">
        <ele>181.0</ele>
        <time>2022-04-14T08:24:27Z</time>
      </trkpt>
      <trkpt lat="47.635754" lon="1.9428343">
        <ele>181.0</ele>
        <time>2022-04-14T08:24:28Z</time>
      </trkpt>
      <trkpt lat="47.63574" lon="1.9428341">
        <ele>180.0</ele>
        <time>2022-04-14T08:24:29Z</time>
      </trkpt>
      <trkpt lat="47.63573" lon="1.9428382">
        <ele>180.0</ele>
        <time>2022-04-14T08:24:30Z</time>
      </trkpt>
      <trkpt lat="47.63572" lon="1.9428493">
        <ele>180.0</ele>
        <time>2022-04-14T08:24:31Z</time>
      </trkpt>
      <trkpt lat="47.63571" lon="1.942856">
        <ele>180.0</ele>
        <time>2022-04-14T08:24:32Z</time>
      </trkpt>
      <trkpt lat="47.635708" lon="1.9428605">
        <ele>181.0</ele>
        <time>2022-04-14T08:24:33Z</time>
      </trkpt>
      <trkpt lat="47.6357" lon="1.9428656">
        <ele>181.0</ele>
        <time>2022-04-14T08:24:34Z</time>
      </trkpt>
      <trkpt lat="47.635693" lon="1.942875">
        <ele>181.0</ele>
        <time>2022-04-14T08:24:35Z</time>
      </trkpt>
      <trkpt lat="47.635685" lon="1.9428813">
        <ele>182.0</ele>
        <time>2022-04-14T08:24:36Z</time>
      </trkpt>
      <trkpt lat="47.635677" lon="1.9428836">
        <ele>182.0</ele>
        <time>2022-04-14T08:24:37Z</time>
      </trkpt>
      <trkpt lat="47.63567" lon="1.9428899">
        <ele>182.0</ele>
        <time>2022-04-14T08:24:38Z</time>
      </trkpt>
      <trkpt lat="47.63566" lon="1.9428917">
        <ele>183.0</ele>
        <time>2022-04-14T08:24:39Z</time>
      </trkpt>
      <trkpt lat="47.635647" lon="1.9428997">
        <ele>183.0</ele>
        <time>2022-04-14T08:24:40Z</time>
      </trkpt>
      <trkpt lat="47.635635" lon="1.9429073">
        <ele>183.0</ele>
        <time>2022-04-14T08:24:41Z</time>
      </trkpt>
      <trkpt lat="47.635628" lon="1.9429138">
        <ele>183.0</ele>
        <time>2022-04-14T08:24:42Z</time>
      </trkpt>
      <trkpt lat="47.635616" lon="1.9429204">
        <ele>182.0</ele>
        <time>2022-04-14T08:24:43Z</time>
      </trkpt>
      <trkpt lat="47.63561" lon="1.9429249">
        <ele>182.0</ele>
        <time>2022-04-14T08:24:44Z</time>
      </trkpt>
      <trkpt lat="47.635597" lon="1.942932">
        <ele>182.0</ele>
        <time>2022-04-14T08:24:45Z</time>
      </trkpt>
      <trkpt lat="47.635586" lon="1.942939">
        <ele>182.0</ele>
        <time>2022-04-14T08:24:46Z</time>
      </trkpt>
      <trkpt lat="47.635574" lon="1.9429519">
        <ele>182.0</ele>
        <time>2022-04-14T08:24:47Z</time>
      </trkpt>
      <trkpt lat="47.635567" lon="1.9429607">
        <ele>182.0</ele>
        <time>2022-04-14T08:24:48Z</time>
      </trkpt>
      <trkpt lat="47.63556" lon="1.9429647">
        <ele>182.0</ele>
        <time>2022-04-14T08:24:49Z</time>
      </trkpt>
      <trkpt lat="47.63555" lon="1.9429677">
        <ele>182.0</ele>
        <time>2022-04-14T08:24:50Z</time>
      </trkpt>
      <trkpt lat="47.63554" lon="1.9429706">
        <ele>181.0</ele>
        <time>2022-04-14T08:24:51Z</time>
      </trkpt>
      <trkpt lat="47.63553" lon="1.9429806">
        <ele>181.0</ele>
        <time>2022-04-14T08:24:52Z</time>
      </trkpt>
      <trkpt lat="47.635517" lon="1.9429862">
        <ele>181.0</ele>
        <time>2022-04-14T08:24:53Z</time>
      </trkpt>
      <trkpt lat="47.635506" lon="1.9429948">
        <ele>181.0</ele>
        <time>2022-04-14T08:24:54Z</time>
      </trkpt>
      <trkpt lat="47.635498" lon="1.9430039">
        <ele>182.0</ele>
        <time>2022-04-14T08:24:55Z</time>
      </trkpt>
      <trkpt lat="47.635487" lon="1.9430135">
        <ele>182.0</ele>
        <time>2022-04-14T08:24:56Z</time>
      </trkpt>
      <trkpt lat="47.635475" lon="1.9430199">
        <ele>182.0</ele>
        <time>2022-04-14T08:24:57Z</time>
      </trkpt>
      <trkpt lat="47.635464" lon="1.9430221">
        <ele>182.0</ele>
        <time>2022-04-14T08:24:58Z</time>
      </trkpt>
      <trkpt lat="47.635456" lon="1.9430257">
        <ele>181.0</ele>
        <time>2022-04-14T08:24:59Z</time>
      </trkpt>
      <trkpt lat="47.635445" lon="1.9430288">
        <ele>181.0</ele>
        <time>2022-04-14T08:25:00Z</time>
      </trkpt>
      <trkpt lat="47.635437" lon="1.9430331">
        <ele>181.0</ele>
        <time>2022-04-14T08:25:01Z</time>
      </trkpt>
      <trkpt lat="47.635426" lon="1.9430315">
        <ele>180.0</ele>
        <time>2022-04-14T08:25:02Z</time>
      </trkpt>
      <trkpt lat="47.635418" lon="1.9430276">
        <ele>180.0</ele>
        <time>2022-04-14T08:25:03Z</time>
      </trkpt>
      <trkpt lat="47.63541" lon="1.9430273">
        <ele>180.0</ele>
        <time>2022-04-14T08:25:04Z</time>
      </trkpt>
      <trkpt lat="47.6354" lon="1.9430268">
        <ele>179.0</ele>
        <time>2022-04-14T08:25:05Z</time>
      </trkpt>
      <trkpt lat="47.63539" lon="1.9430289">
        <ele>179.0</ele>
        <time>2022-04-14T08:25:06Z</time>
      </trkpt>
      <trkpt lat="47.635384" lon="1.9430312">
        <ele>179.0</ele>
        <time>2022-04-14T08:25:07Z</time>
      </trkpt>
      <trkpt lat="47.63538" lon="1.9430337">
        <ele>179.0</ele>
        <time>2022-04-14T08:25:08Z</time>
      </trkpt>
      <trkpt lat="47.63537" lon="1.9430373">
        <ele>180.0</ele>
        <time>2022-04-14T08:25:09Z</time>
      </trkpt>
      <trkpt lat="47.635357" lon="1.9430444">
        <ele>180.0</ele>
        <time>2022-04-14T08:25:10Z</time>
      </trkpt>
      <trkpt lat="47.635345" lon="1.9430522">
        <ele>180.0</ele>
        <time>2022-04-14T08:25:11Z</time>
      </trkpt>
      <trkpt lat="47.635334" lon="1.9430568">
        <ele>180.0</ele>
        <time>2022-04-14T08:25:12Z</time>
      </trkpt>
      <trkpt lat="47.635326" lon="1.9430661">
        <ele>180.0</ele>
        <time>2022-04-14T08:25:13Z</time>
      </trkpt>
      <trkpt lat="47.635315" lon="1.9430724">
        <ele>180.0</ele>
        <time>2022-04-14T08:25:14Z</time>
      </trkpt>
      <trkpt lat="47.635303" lon="1.943079">
        <ele>180.0</ele>
        <time>2022-04-14T08:25:15Z</time>
      </trkpt>
      <trkpt lat="47.635296" lon="1.9430819">
        <ele>181.0</ele>
        <time>2022-04-14T08:25:16Z</time>
      </trkpt>
      <trkpt lat="47.63529" lon="1.9430861">
        <ele>181.0</ele>
        <time>2022-04-14T08:25:17Z</time>
      </trkpt>
      <trkpt lat="47.63528" lon="1.9430919">
        <ele>180.0</ele>
        <time>2022-04-14T08:25:18Z</time>
      </trkpt>
      <trkpt lat="47.635273" lon="1.9430932">
        <ele>180.0</ele>
        <time>2022-04-14T08:25:19Z</time>
      </trkpt>
      <trkpt lat="47.635265" lon="1.9430948">
        <ele>180.0</ele>
        <time>2022-04-14T08:25:20Z</time>
      </trkpt>
      <trkpt lat="47.635258" lon="1.9430965">
        <ele>180.0</ele>
        <time>2022-04-14T08:25:21Z</time>
      </trkpt>
      <trkpt lat="47.635246" lon="1.9430994">
        <ele>179.0</ele>
        <time>2022-04-14T08:25:22Z</time>
      </trkpt>
      <trkpt lat="47.63524" lon="1.9431027">
        <ele>179.0</ele>
        <time>2022-04-14T08:25:23Z</time>
      </trkpt>
      <trkpt lat="47.635227" lon="1.9431087">
        <ele>179.0</ele>
        <time>2022-04-14T08:25:24Z</time>
      </trkpt>
      <trkpt lat="47.635216" lon="1.9431131">
        <ele>179.0</ele>
        <time>2022-04-14T08:25:25Z</time>
      </trkpt>
      <trkpt lat="47.6352" lon="1.9431183">
        <ele>179.0</ele>
        <time>2022-04-14T08:25:26Z</time>
      </trkpt>
      <trkpt lat="47.63519" lon="1.9431251">
        <ele>179.0</ele>
        <time>2022-04-14T08:25:27Z</time>
      </trkpt>
      <trkpt lat="47.63518" lon="1.9431287">
        <ele>179.0</ele>
        <time>2022-04-14T08:25:28Z</time>
      </trkpt>
      <trkpt lat="47.635174" lon="1.9431334">
        <ele>178.0</ele>
        <time>2022-04-14T08:25:29Z</time>
      </trkpt>
      <trkpt lat="47.635155" lon="1.9431401">
        <ele>178.0</ele>
        <time>2022-04-14T08:25:30Z</time>
      </trkpt>
      <trkpt lat="47.635147" lon="1.9431442">
        <ele>177.0</ele>
        <time>2022-04-14T08:25:31Z</time>
      </trkpt>
      <trkpt lat="47.635136" lon="1.9431502">
        <ele>177.0</ele>
        <time>2022-04-14T08:25:32Z</time>
      </trkpt>
      <trkpt lat="47.635128" lon="1.9431576">
        <ele>176.0</ele>
        <time>2022-04-14T08:25:33Z</time>
      </trkpt>
      <trkpt lat="47.63512" lon="1.9431667">
        <ele>176.0</ele>
        <time>2022-04-14T08:25:34Z</time>
      </trkpt>
      <trkpt lat="47.63511" lon="1.9431753">
        <ele>176.0</ele>
        <time>2022-04-14T08:25:35Z</time>
      </trkpt>
      <trkpt lat="47.6351" lon="1.9431796">
        <ele>176.0</ele>
        <time>2022-04-14T08:25:36Z</time>
      </trkpt>
      <trkpt lat="47.635086" lon="1.9431822">
        <ele>175.0</ele>
        <time>2022-04-14T08:25:37Z</time>
      </trkpt>
      <trkpt lat="47.635075" lon="1.9431912">
        <ele>175.0</ele>
        <time>2022-04-14T08:25:38Z</time>
      </trkpt>
      <trkpt lat="47.635063" lon="1.9432046">
        <ele>175.0</ele>
        <time>2022-04-14T08:25:39Z</time>
      </trkpt>
      <trkpt lat="47.635056" lon="1.943219">
        <ele>175.0</ele>
        <time>2022-04-14T08:25:40Z</time>
      </trkpt>
      <trkpt lat="47.635044" lon="1.9432341">
        <ele>175.0</ele>
        <time>2022-04-14T08:25:41Z</time>
      </trkpt>
      <trkpt lat="47.63503" lon="1.9432397">
        <ele>174.0</ele>
        <time>2022-04-14T08:25:42Z</time>
      </trkpt>
      <trkpt lat="47.635017" lon="1.9432503">
        <ele>174.0</ele>
        <time>2022-04-14T08:25:43Z</time>
      </trkpt>
      <trkpt lat="47.635006" lon="1.9432565">
        <ele>174.0</ele>
        <time>2022-04-14T08:25:44Z</time>
      </trkpt>
      <trkpt lat="47.635" lon="1.9432633">
        <ele>174.0</ele>
        <time>2022-04-14T08:25:45Z</time>
      </trkpt>
      <trkpt lat="47.634987" lon="1.943271">
        <ele>174.0</ele>
        <time>2022-04-14T08:25:46Z</time>
      </trkpt>
      <trkpt lat="47.63498" lon="1.9432812">
        <ele>173.0</ele>
        <time>2022-04-14T08:25:47Z</time>
      </trkpt>
      <trkpt lat="47.63497" lon="1.9432919">
        <ele>173.0</ele>
        <time>2022-04-14T08:25:48Z</time>
      </trkpt>
      <trkpt lat="47.63496" lon="1.9433016">
        <ele>172.0</ele>
        <time>2022-04-14T08:25:49Z</time>
      </trkpt>
      <trkpt lat="47.63495" lon="1.9433097">
        <ele>172.0</ele>
        <time>2022-04-14T08:25:50Z</time>
      </trkpt>
      <trkpt lat="47.63494" lon="1.9433187">
        <ele>171.0</ele>
        <time>2022-04-14T08:25:51Z</time>
      </trkpt>
      <trkpt lat="47.63493" lon="1.943324">
        <ele>172.0</ele>
        <time>2022-04-14T08:25:52Z</time>
      </trkpt>
      <trkpt lat="47.634914" lon="1.9433281">
        <ele>172.0</ele>
        <time>2022-04-14T08:25:53Z</time>
      </trkpt>
      <trkpt lat="47.6349" lon="1.9433336">
        <ele>172.0</ele>
        <time>2022-04-14T08:25:54Z</time>
      </trkpt>
      <trkpt lat="47.634884" lon="1.9433377">
        <ele>172.0</ele>
        <time>2022-04-14T08:25:55Z</time>
      </trkpt>
      <trkpt lat="47.634872" lon="1.9433478">
        <ele>172.0</ele>
        <time>2022-04-14T08:25:56Z</time>
      </trkpt>
      <trkpt lat="47.634865" lon="1.9433522">
        <ele>172.0</ele>
        <time>2022-04-14T08:25:57Z</time>
      </trkpt>
      <trkpt lat="47.634857" lon="1.9433625">
        <ele>172.0</ele>
        <time>2022-04-14T08:25:58Z</time>
      </trkpt>
      <trkpt lat="47.634846" lon="1.9433749">
        <ele>172.0</ele>
        <time>2022-04-14T08:25:59Z</time>
      </trkpt>
      <trkpt lat="47.63484" lon="1.9433873">
        <ele>172.0</ele>
        <time>2022-04-14T08:26:00Z</time>
      </trkpt>
      <trkpt lat="47.634827" lon="1.9434006">
        <ele>173.0</ele>
        <time>2022-04-14T08:26:01Z</time>
      </trkpt>
      <trkpt lat="47.634815" lon="1.9434124">
        <ele>173.0</ele>
        <time>2022-04-14T08:26:02Z</time>
      </trkpt>
      <trkpt lat="47.634808" lon="1.9434178">
        <ele>173.0</ele>
        <time>2022-04-14T08:26:03Z</time>
      </trkpt>
      <trkpt lat="47.634796" lon="1.9434246">
        <ele>173.0</ele>
        <time>2022-04-14T08:26:04Z</time>
      </trkpt>
      <trkpt lat="47.63479" lon="1.9434342">
        <ele>173.0</ele>
        <time>2022-04-14T08:26:05Z</time>
      </trkpt>
      <trkpt lat="47.634777" lon="1.9434382">
        <ele>173.0</ele>
        <time>2022-04-14T08:26:06Z</time>
      </trkpt>
      <trkpt lat="47.63476" lon="1.9434406">
        <ele>172.0</ele>
        <time>2022-04-14T08:26:07Z</time>
      </trkpt>
      <trkpt lat="47.63475" lon="1.9434416">
        <ele>172.0</ele>
        <time>2022-04-14T08:26:08Z</time>
      </trkpt>
      <trkpt lat="47.634735" lon="1.9434435">
        <ele>172.0</ele>
        <time>2022-04-14T08:26:09Z</time>
      </trkpt>
      <trkpt lat="47.634724" lon="1.9434509">
        <ele>172.0</ele>
        <time>2022-04-14T08:26:10Z</time>
      </trkpt>
      <trkpt lat="47.634712" lon="1.943463">
        <ele>172.0</ele>
        <time>2022-04-14T08:26:11Z</time>
      </trkpt>
      <trkpt lat="47.6347" lon="1.9434739">
        <ele>172.0</ele>
        <time>2022-04-14T08:26:12Z</time>
      </trkpt>
      <trkpt lat="47.63469" lon="1.9434837">
        <ele>172.0</ele>
        <time>2022-04-14T08:26:13Z</time>
      </trkpt>
      <trkpt lat="47.63468" lon="1.9434893">
        <ele>172.0</ele>
        <time>2022-04-14T08:26:14Z</time>
      </trkpt>
      <trkpt lat="47.634674" lon="1.9434937">
        <ele>172.0</ele>
        <time>2022-04-14T08:26:15Z</time>
      </trkpt>
      <trkpt lat="47.634666" lon="1.9435014">
        <ele>172.0</ele>
        <time>2022-04-14T08:26:16Z</time>
      </trkpt>
      <trkpt lat="47.63465" lon="1.9435115">
        <ele>172.0</ele>
        <time>2022-04-14T08:26:17Z</time>
      </trkpt>
      <trkpt lat="47.634644" lon="1.9435214">
        <ele>171.0</ele>
        <time>2022-04-14T08:26:18Z</time>
      </trkpt>
      <trkpt lat="47.634632" lon="1.9435278">
        <ele>171.0</ele>
        <time>2022-04-14T08:26:19Z</time>
      </trkpt>
      <trkpt lat="47.634617" lon="1.9435308">
        <ele>171.0</ele>
        <time>2022-04-14T08:26:20Z</time>
      </trkpt>
      <trkpt lat="47.634605" lon="1.9435376">
        <ele>171.0</ele>
        <time>2022-04-14T08:26:21Z</time>
      </trkpt>
      <trkpt lat="47.63459" lon="1.943546">
        <ele>171.0</ele>
        <time>2022-04-14T08:26:22Z</time>
      </trkpt>
      <trkpt lat="47.634575" lon="1.9435582">
        <ele>171.0</ele>
        <time>2022-04-14T08:26:23Z</time>
      </trkpt>
      <trkpt lat="47.63456" lon="1.943574">
        <ele>171.0</ele>
        <time>2022-04-14T08:26:24Z</time>
      </trkpt>
      <trkpt lat="47.63455" lon="1.9435853">
        <ele>171.0</ele>
        <time>2022-04-14T08:26:25Z</time>
      </trkpt>
      <trkpt lat="47.634533" lon="1.9435956">
        <ele>172.0</ele>
        <time>2022-04-14T08:26:26Z</time>
      </trkpt>
      <trkpt lat="47.63452" lon="1.9436022">
        <ele>172.0</ele>
        <time>2022-04-14T08:26:27Z</time>
      </trkpt>
      <trkpt lat="47.63451" lon="1.9436084">
        <ele>172.0</ele>
        <time>2022-04-14T08:26:28Z</time>
      </trkpt>
      <trkpt lat="47.6345" lon="1.9436114">
        <ele>171.0</ele>
        <time>2022-04-14T08:26:29Z</time>
      </trkpt>
      <trkpt lat="47.634487" lon="1.9436185">
        <ele>171.0</ele>
        <time>2022-04-14T08:26:30Z</time>
      </trkpt>
      <trkpt lat="47.634476" lon="1.943622">
        <ele>171.0</ele>
        <time>2022-04-14T08:26:31Z</time>
      </trkpt>
      <trkpt lat="47.634464" lon="1.9436289">
        <ele>171.0</ele>
        <time>2022-04-14T08:26:32Z</time>
      </trkpt>
      <trkpt lat="47.634453" lon="1.9436386">
        <ele>171.0</ele>
        <time>2022-04-14T08:26:33Z</time>
      </trkpt>
      <trkpt lat="47.63444" lon="1.9436451">
        <ele>172.0</ele>
        <time>2022-04-14T08:26:34Z</time>
      </trkpt>
      <trkpt lat="47.634426" lon="1.9436538">
        <ele>172.0</ele>
        <time>2022-04-14T08:26:35Z</time>
      </trkpt>
      <trkpt lat="47.634415" lon="1.9436572">
        <ele>172.0</ele>
        <time>2022-04-14T08:26:36Z</time>
      </trkpt>
      <trkpt lat="47.6344" lon="1.9436618">
        <ele>172.0</ele>
        <time>2022-04-14T08:26:37Z</time>
      </trkpt>
      <trkpt lat="47.634388" lon="1.9436682">
        <ele>172.0</ele>
        <time>2022-04-14T08:26:38Z</time>
      </trkpt>
      <trkpt lat="47.63438" lon="1.9436771">
        <ele>172.0</ele>
        <time>2022-04-14T08:26:39Z</time>
      </trkpt>
      <trkpt lat="47.63437" lon="1.9436814">
        <ele>172.0</ele>
        <time>2022-04-14T08:26:40Z</time>
      </trkpt>
      <trkpt lat="47.63436" lon="1.943685">
        <ele>172.0</ele>
        <time>2022-04-14T08:26:41Z</time>
      </trkpt>
      <trkpt lat="47.63435" lon="1.9436901">
        <ele>172.0</ele>
        <time>2022-04-14T08:26:42Z</time>
      </trkpt>
      <trkpt lat="47.63434" lon="1.9436933">
        <ele>172.0</ele>
        <time>2022-04-14T08:26:43Z</time>
      </trkpt>
      <trkpt lat="47.634327" lon="1.9436934">
        <ele>172.0</ele>
        <time>2022-04-14T08:26:44Z</time>
      </trkpt>
      <trkpt lat="47.634315" lon="1.9436986">
        <ele>171.0</ele>
        <time>2022-04-14T08:26:45Z</time>
      </trkpt>
      <trkpt lat="47.634308" lon="1.9437078">
        <ele>171.0</ele>
        <time>2022-04-14T08:26:46Z</time>
      </trkpt>
      <trkpt lat="47.634296" lon="1.9437131">
        <ele>170.0</ele>
        <time>2022-04-14T08:26:47Z</time>
      </trkpt>
      <trkpt lat="47.634285" lon="1.9437199">
        <ele>170.0</ele>
        <time>2022-04-14T08:26:48Z</time>
      </trkpt>
      <trkpt lat="47.634277" lon="1.9437256">
        <ele>170.0</ele>
        <time>2022-04-14T08:26:49Z</time>
      </trkpt>
      <trkpt lat="47.634266" lon="1.9437355">
        <ele>171.0</ele>
        <time>2022-04-14T08:26:50Z</time>
      </trkpt>
      <trkpt lat="47.63426" lon="1.9437459">
        <ele>171.0</ele>
        <time>2022-04-14T08:26:51Z</time>
      </trkpt>
      <trkpt lat="47.634247" lon="1.9437559">
        <ele>171.0</ele>
        <time>2022-04-14T08:26:52Z</time>
      </trkpt>
      <trkpt lat="47.634235" lon="1.943765">
        <ele>171.0</ele>
        <time>2022-04-14T08:26:53Z</time>
      </trkpt>
      <trkpt lat="47.634224" lon="1.9437742">
        <ele>171.0</ele>
        <time>2022-04-14T08:26:54Z</time>
      </trkpt>
      <trkpt lat="47.634212" lon="1.9437778">
        <ele>171.0</ele>
        <time>2022-04-14T08:26:55Z</time>
      </trkpt>
      <trkpt lat="47.634205" lon="1.9437865">
        <ele>171.0</ele>
        <time>2022-04-14T08:26:56Z</time>
      </trkpt>
      <trkpt lat="47.634193" lon="1.9437965">
        <ele>171.0</ele>
        <time>2022-04-14T08:26:57Z</time>
      </trkpt>
      <trkpt lat="47.634182" lon="1.9438075">
        <ele>171.0</ele>
        <time>2022-04-14T08:26:58Z</time>
      </trkpt>
      <trkpt lat="47.63417" lon="1.9438148">
        <ele>171.0</ele>
        <time>2022-04-14T08:26:59Z</time>
      </trkpt>
      <trkpt lat="47.634155" lon="1.9438214">
        <ele>171.0</ele>
        <time>2022-04-14T08:27:00Z</time>
      </trkpt>
      <trkpt lat="47.634148" lon="1.943831">
        <ele>172.0</ele>
        <time>2022-04-14T08:27:01Z</time>
      </trkpt>
      <trkpt lat="47.634136" lon="1.9438384">
        <ele>172.0</ele>
        <time>2022-04-14T08:27:02Z</time>
      </trkpt>
      <trkpt lat="47.63412" lon="1.943844">
        <ele>171.0</ele>
        <time>2022-04-14T08:27:03Z</time>
      </trkpt>
      <trkpt lat="47.634113" lon="1.9438515">
        <ele>172.0</ele>
        <time>2022-04-14T08:27:04Z</time>
      </trkpt>
      <trkpt lat="47.6341" lon="1.9438572">
        <ele>171.0</ele>
        <time>2022-04-14T08:27:05Z</time>
      </trkpt>
      <trkpt lat="47.63409" lon="1.9438622">
        <ele>171.0</ele>
        <time>2022-04-14T08:27:06Z</time>
      </trkpt>
      <trkpt lat="47.63408" lon="1.9438684">
        <ele>170.0</ele>
        <time>2022-04-14T08:27:07Z</time>
      </trkpt>
      <trkpt lat="47.634068" lon="1.9438794">
        <ele>170.0</ele>
        <time>2022-04-14T08:27:08Z</time>
      </trkpt>
      <trkpt lat="47.634056" lon="1.943889">
        <ele>169.0</ele>
        <time>2022-04-14T08:27:09Z</time>
      </trkpt>
      <trkpt lat="47.63404" lon="1.9438987">
        <ele>169.0</ele>
        <time>2022-04-14T08:27:10Z</time>
      </trkpt>
      <trkpt lat="47.634026" lon="1.9439114">
        <ele>169.0</ele>
        <time>2022-04-14T08:27:11Z</time>
      </trkpt>
      <trkpt lat="47.634014" lon="1.9439212">
        <ele>169.0</ele>
        <time>2022-04-14T08:27:12Z</time>
      </trkpt>
      <trkpt lat="47.634003" lon="1.9439346">
        <ele>169.0</ele>
        <time>2022-04-14T08:27:13Z</time>
      </trkpt>
      <trkpt lat="47.633987" lon="1.9439436">
        <ele>168.0</ele>
        <time>2022-04-14T08:27:14Z</time>
      </trkpt>
      <trkpt lat="47.633976" lon="1.9439503">
        <ele>168.0</ele>
        <time>2022-04-14T08:27:15Z</time>
      </trkpt>
      <trkpt lat="47.63396" lon="1.9439573">
        <ele>169.0</ele>
        <time>2022-04-14T08:27:16Z</time>
      </trkpt>
      <trkpt lat="47.63395" lon="1.943961">
        <ele>169.0</ele>
        <time>2022-04-14T08:27:17Z</time>
      </trkpt>
      <trkpt lat="47.633934" lon="1.943973">
        <ele>169.0</ele>
        <time>2022-04-14T08:27:18Z</time>
      </trkpt>
      <trkpt lat="47.633923" lon="1.9439801">
        <ele>169.0</ele>
        <time>2022-04-14T08:27:19Z</time>
      </trkpt>
      <trkpt lat="47.63391" lon="1.9439827">
        <ele>169.0</ele>
        <time>2022-04-14T08:27:20Z</time>
      </trkpt>
      <trkpt lat="47.633904" lon="1.9439847">
        <ele>168.0</ele>
        <time>2022-04-14T08:27:21Z</time>
      </trkpt>
      <trkpt lat="47.633892" lon="1.9439946">
        <ele>168.0</ele>
        <time>2022-04-14T08:27:22Z</time>
      </trkpt>
      <trkpt lat="47.633877" lon="1.9440079">
        <ele>168.0</ele>
        <time>2022-04-14T08:27:23Z</time>
      </trkpt>
      <trkpt lat="47.633865" lon="1.9440186">
        <ele>168.0</ele>
        <time>2022-04-14T08:27:24Z</time>
      </trkpt>
      <trkpt lat="47.63385" lon="1.9440329">
        <ele>167.0</ele>
        <time>2022-04-14T08:27:25Z</time>
      </trkpt>
      <trkpt lat="47.63384" lon="1.9440398">
        <ele>167.0</ele>
        <time>2022-04-14T08:27:26Z</time>
      </trkpt>
      <trkpt lat="47.63383" lon="1.9440452">
        <ele>167.0</ele>
        <time>2022-04-14T08:27:27Z</time>
      </trkpt>
      <trkpt lat="47.63382" lon="1.9440519">
        <ele>167.0</ele>
        <time>2022-04-14T08:27:28Z</time>
      </trkpt>
      <trkpt lat="47.63381" lon="1.9440567">
        <ele>168.0</ele>
        <time>2022-04-14T08:27:29Z</time>
      </trkpt>
      <trkpt lat="47.6338" lon="1.9440635">
        <ele>168.0</ele>
        <time>2022-04-14T08:27:30Z</time>
      </trkpt>
      <trkpt lat="47.63379" lon="1.9440677">
        <ele>168.0</ele>
        <time>2022-04-14T08:27:31Z</time>
      </trkpt>
      <trkpt lat="47.633778" lon="1.94407">
        <ele>168.0</ele>
        <time>2022-04-14T08:27:32Z</time>
      </trkpt>
      <trkpt lat="47.633766" lon="1.9440666">
        <ele>168.0</ele>
        <time>2022-04-14T08:27:33Z</time>
      </trkpt>
      <trkpt lat="47.633755" lon="1.94407">
        <ele>168.0</ele>
        <time>2022-04-14T08:27:34Z</time>
      </trkpt>
      <trkpt lat="47.633747" lon="1.9440763">
        <ele>168.0</ele>
        <time>2022-04-14T08:27:35Z</time>
      </trkpt>
      <trkpt lat="47.633736" lon="1.9440852">
        <ele>167.0</ele>
        <time>2022-04-14T08:27:36Z</time>
      </trkpt>
      <trkpt lat="47.633728" lon="1.9440935">
        <ele>167.0</ele>
        <time>2022-04-14T08:27:37Z</time>
      </trkpt>
      <trkpt lat="47.633717" lon="1.944096">
        <ele>167.0</ele>
        <time>2022-04-14T08:27:38Z</time>
      </trkpt>
      <trkpt lat="47.6337" lon="1.9441048">
        <ele>167.0</ele>
        <time>2022-04-14T08:27:39Z</time>
      </trkpt>
      <trkpt lat="47.633694" lon="1.9441134">
        <ele>167.0</ele>
        <time>2022-04-14T08:27:40Z</time>
      </trkpt>
      <trkpt lat="47.63368" lon="1.9441216">
        <ele>167.0</ele>
        <time>2022-04-14T08:27:41Z</time>
      </trkpt>
      <trkpt lat="47.633667" lon="1.9441285">
        <ele>167.0</ele>
        <time>2022-04-14T08:27:42Z</time>
      </trkpt>
      <trkpt lat="47.63365" lon="1.9441373">
        <ele>168.0</ele>
        <time>2022-04-14T08:27:43Z</time>
      </trkpt>
      <trkpt lat="47.63364" lon="1.9441497">
        <ele>168.0</ele>
        <time>2022-04-14T08:27:44Z</time>
      </trkpt>
      <trkpt lat="47.633625" lon="1.9441615">
        <ele>169.0</ele>
        <time>2022-04-14T08:27:45Z</time>
      </trkpt>
      <trkpt lat="47.63361" lon="1.9441711">
        <ele>169.0</ele>
        <time>2022-04-14T08:27:46Z</time>
      </trkpt>
      <trkpt lat="47.6336" lon="1.9441803">
        <ele>169.0</ele>
        <time>2022-04-14T08:27:47Z</time>
      </trkpt>
      <trkpt lat="47.633587" lon="1.9441905">
        <ele>169.0</ele>
        <time>2022-04-14T08:27:48Z</time>
      </trkpt>
      <trkpt lat="47.63357" lon="1.9442034">
        <ele>169.0</ele>
        <time>2022-04-14T08:27:49Z</time>
      </trkpt>
      <trkpt lat="47.633556" lon="1.9442095">
        <ele>169.0</ele>
        <time>2022-04-14T08:27:50Z</time>
      </trkpt>
      <trkpt lat="47.63354" lon="1.944215">
        <ele>170.0</ele>
        <time>2022-04-14T08:27:51Z</time>
      </trkpt>
      <trkpt lat="47.63353" lon="1.9442242">
        <ele>170.0</ele>
        <time>2022-04-14T08:27:52Z</time>
      </trkpt>
      <trkpt lat="47.63352" lon="1.9442288">
        <ele>171.0</ele>
        <time>2022-04-14T08:27:53Z</time>
      </trkpt>
      <trkpt lat="47.633507" lon="1.9442354">
        <ele>171.0</ele>
        <time>2022-04-14T08:27:54Z</time>
      </trkpt>
      <trkpt lat="47.63349" lon="1.9442444">
        <ele>171.0</ele>
        <time>2022-04-14T08:27:55Z</time>
      </trkpt>
      <trkpt lat="47.63348" lon="1.9442536">
        <ele>172.0</ele>
        <time>2022-04-14T08:27:56Z</time>
      </trkpt>
      <trkpt lat="47.63347" lon="1.9442626">
        <ele>172.0</ele>
        <time>2022-04-14T08:27:57Z</time>
      </trkpt>
      <trkpt lat="47.633453" lon="1.9442691">
        <ele>172.0</ele>
        <time>2022-04-14T08:27:58Z</time>
      </trkpt>
      <trkpt lat="47.633442" lon="1.9442776">
        <ele>172.0</ele>
        <time>2022-04-14T08:27:59Z</time>
      </trkpt>
      <trkpt lat="47.63343" lon="1.944288">
        <ele>173.0</ele>
        <time>2022-04-14T08:28:00Z</time>
      </trkpt>
      <trkpt lat="47.63342" lon="1.944294">
        <ele>173.0</ele>
        <time>2022-04-14T08:28:01Z</time>
      </trkpt>
      <trkpt lat="47.633408" lon="1.9443035">
        <ele>173.0</ele>
        <time>2022-04-14T08:28:02Z</time>
      </trkpt>
      <trkpt lat="47.6334" lon="1.9443098">
        <ele>173.0</ele>
        <time>2022-04-14T08:28:03Z</time>
      </trkpt>
      <trkpt lat="47.633385" lon="1.9443163">
        <ele>172.0</ele>
        <time>2022-04-14T08:28:04Z</time>
      </trkpt>
      <trkpt lat="47.633373" lon="1.9443231">
        <ele>172.0</ele>
        <time>2022-04-14T08:28:05Z</time>
      </trkpt>
      <trkpt lat="47.633366" lon="1.944332">
        <ele>172.0</ele>
        <time>2022-04-14T08:28:06Z</time>
      </trkpt>
      <trkpt lat="47.633354" lon="1.9443384">
        <ele>172.0</ele>
        <time>2022-04-14T08:28:07Z</time>
      </trkpt>
      <trkpt lat="47.633343" lon="1.9443437">
        <ele>172.0</ele>
        <time>2022-04-14T08:28:08Z</time>
      </trkpt>
      <trkpt lat="47.63333" lon="1.9443513">
        <ele>172.0</ele>
        <time>2022-04-14T08:28:09Z</time>
      </trkpt>
      <trkpt lat="47.63332" lon="1.9443574">
        <ele>172.0</ele>
        <time>2022-04-14T08:28:10Z</time>
      </trkpt>
      <trkpt lat="47.63331" lon="1.9443691">
        <ele>171.0</ele>
        <time>2022-04-14T08:28:11Z</time>
      </trkpt>
      <trkpt lat="47.633297" lon="1.9443823">
        <ele>171.0</ele>
        <time>2022-04-14T08:28:12Z</time>
      </trkpt>
      <trkpt lat="47.63328" lon="1.9443958">
        <ele>172.0</ele>
        <time>2022-04-14T08:28:13Z</time>
      </trkpt>
      <trkpt lat="47.63327" lon="1.9444058">
        <ele>172.0</ele>
        <time>2022-04-14T08:28:14Z</time>
      </trkpt>
      <trkpt lat="47.63326" lon="1.944417">
        <ele>172.0</ele>
        <time>2022-04-14T08:28:15Z</time>
      </trkpt>
      <trkpt lat="47.633247" lon="1.9444262">
        <ele>172.0</ele>
        <time>2022-04-14T08:28:16Z</time>
      </trkpt>
      <trkpt lat="47.633236" lon="1.944436">
        <ele>172.0</ele>
        <time>2022-04-14T08:28:17Z</time>
      </trkpt>
      <trkpt lat="47.633224" lon="1.9444455">
        <ele>172.0</ele>
        <time>2022-04-14T08:28:18Z</time>
      </trkpt>
      <trkpt lat="47.633213" lon="1.9444532">
        <ele>172.0</ele>
        <time>2022-04-14T08:28:19Z</time>
      </trkpt>
      <trkpt lat="47.633198" lon="1.9444634">
        <ele>172.0</ele>
        <time>2022-04-14T08:28:20Z</time>
      </trkpt>
      <trkpt lat="47.633186" lon="1.9444758">
        <ele>173.0</ele>
        <time>2022-04-14T08:28:21Z</time>
      </trkpt>
      <trkpt lat="47.63317" lon="1.9444866">
        <ele>173.0</ele>
        <time>2022-04-14T08:28:22Z</time>
      </trkpt>
      <trkpt lat="47.63316" lon="1.9444966">
        <ele>173.0</ele>
        <time>2022-04-14T08:28:23Z</time>
      </trkpt>
      <trkpt lat="47.63315" lon="1.944501">
        <ele>173.0</ele>
        <time>2022-04-14T08:28:24Z</time>
      </trkpt>
      <trkpt lat="47.633137" lon="1.9445059">
        <ele>173.0</ele>
        <time>2022-04-14T08:28:25Z</time>
      </trkpt>
      <trkpt lat="47.633125" lon="1.9445127">
        <ele>173.0</ele>
        <time>2022-04-14T08:28:26Z</time>
      </trkpt>
      <trkpt lat="47.633114" lon="1.9445201">
        <ele>173.0</ele>
        <time>2022-04-14T08:28:27Z</time>
      </trkpt>
      <trkpt lat="47.633102" lon="1.9445254">
        <ele>173.0</ele>
        <time>2022-04-14T08:28:28Z</time>
      </trkpt>
      <trkpt lat="47.63309" lon="1.9445302">
        <ele>173.0</ele>
        <time>2022-04-14T08:28:29Z</time>
      </trkpt>
      <trkpt lat="47.63308" lon="1.9445387">
        <ele>172.0</ele>
        <time>2022-04-14T08:28:30Z</time>
      </trkpt>
      <trkpt lat="47.633068" lon="1.944542">
        <ele>172.0</ele>
        <time>2022-04-14T08:28:31Z</time>
      </trkpt>
      <trkpt lat="47.633057" lon="1.944548">
        <ele>173.0</ele>
        <time>2022-04-14T08:28:32Z</time>
      </trkpt>
      <trkpt lat="47.63305" lon="1.944553">
        <ele>173.0</ele>
        <time>2022-04-14T08:28:33Z</time>
      </trkpt>
      <trkpt lat="47.633034" lon="1.944558">
        <ele>173.0</ele>
        <time>2022-04-14T08:28:34Z</time>
      </trkpt>
      <trkpt lat="47.633022" lon="1.9445667">
        <ele>173.0</ele>
        <time>2022-04-14T08:28:35Z</time>
      </trkpt>
      <trkpt lat="47.63301" lon="1.9445757">
        <ele>174.0</ele>
        <time>2022-04-14T08:28:36Z</time>
      </trkpt>
      <trkpt lat="47.633" lon="1.9445832">
        <ele>174.0</ele>
        <time>2022-04-14T08:28:37Z</time>
      </trkpt>
      <trkpt lat="47.632984" lon="1.9445903">
        <ele>174.0</ele>
        <time>2022-04-14T08:28:38Z</time>
      </trkpt>
      <trkpt lat="47.632977" lon="1.9445935">
        <ele>174.0</ele>
        <time>2022-04-14T08:28:39Z</time>
      </trkpt>
      <trkpt lat="47.632965" lon="1.9446002">
        <ele>174.0</ele>
        <time>2022-04-14T08:28:40Z</time>
      </trkpt>
      <trkpt lat="47.632954" lon="1.9446074">
        <ele>174.0</ele>
        <time>2022-04-14T08:28:41Z</time>
      </trkpt>
      <trkpt lat="47.632942" lon="1.9446158">
        <ele>174.0</ele>
        <time>2022-04-14T08:28:42Z</time>
      </trkpt>
      <trkpt lat="47.63293" lon="1.9446201">
        <ele>173.0</ele>
        <time>2022-04-14T08:28:43Z</time>
      </trkpt>
      <trkpt lat="47.63292" lon="1.9446301">
        <ele>173.0</ele>
        <time>2022-04-14T08:28:44Z</time>
      </trkpt>
      <trkpt lat="47.632904" lon="1.9446421">
        <ele>174.0</ele>
        <time>2022-04-14T08:28:45Z</time>
      </trkpt>
      <trkpt lat="47.632893" lon="1.9446495">
        <ele>173.0</ele>
        <time>2022-04-14T08:28:46Z</time>
      </trkpt>
      <trkpt lat="47.632885" lon="1.9446559">
        <ele>173.0</ele>
        <time>2022-04-14T08:28:47Z</time>
      </trkpt>
      <trkpt lat="47.63287" lon="1.944665">
        <ele>173.0</ele>
        <time>2022-04-14T08:28:48Z</time>
      </trkpt>
      <trkpt lat="47.63286" lon="1.944672">
        <ele>173.0</ele>
        <time>2022-04-14T08:28:49Z</time>
      </trkpt>
      <trkpt lat="47.632843" lon="1.9446822">
        <ele>172.0</ele>
        <time>2022-04-14T08:28:50Z</time>
      </trkpt>
      <trkpt lat="47.63283" lon="1.944692">
        <ele>172.0</ele>
        <time>2022-04-14T08:28:51Z</time>
      </trkpt>
      <trkpt lat="47.63282" lon="1.9447012">
        <ele>172.0</ele>
        <time>2022-04-14T08:28:52Z</time>
      </trkpt>
      <trkpt lat="47.632812" lon="1.9447019">
        <ele>172.0</ele>
        <time>2022-04-14T08:28:53Z</time>
      </trkpt>
      <trkpt lat="47.632805" lon="1.9447073">
        <ele>172.0</ele>
        <time>2022-04-14T08:28:54Z</time>
      </trkpt>
      <trkpt lat="47.632793" lon="1.9447098">
        <ele>172.0</ele>
        <time>2022-04-14T08:28:55Z</time>
      </trkpt>
      <trkpt lat="47.632786" lon="1.9447142">
        <ele>172.0</ele>
        <time>2022-04-14T08:28:56Z</time>
      </trkpt>
      <trkpt lat="47.632774" lon="1.9447176">
        <ele>172.0</ele>
        <time>2022-04-14T08:28:57Z</time>
      </trkpt>
      <trkpt lat="47.632763" lon="1.9447211">
        <ele>172.0</ele>
        <time>2022-04-14T08:28:58Z</time>
      </trkpt>
      <trkpt lat="47.63275" lon="1.9447273">
        <ele>172.0</ele>
        <time>2022-04-14T08:28:59Z</time>
      </trkpt>
      <trkpt lat="47.632744" lon="1.9447355">
        <ele>172.0</ele>
        <time>2022-04-14T08:29:00Z</time>
      </trkpt>
      <trkpt lat="47.632736" lon="1.9447446">
        <ele>172.0</ele>
        <time>2022-04-14T08:29:01Z</time>
      </trkpt>
      <trkpt lat="47.63273" lon="1.9447516">
        <ele>173.0</ele>
        <time>2022-04-14T08:29:02Z</time>
      </trkpt>
      <trkpt lat="47.632717" lon="1.944759">
        <ele>173.0</ele>
        <time>2022-04-14T08:29:03Z</time>
      </trkpt>
      <trkpt lat="47.63271" lon="1.9447643">
        <ele>173.0</ele>
        <time>2022-04-14T08:29:04Z</time>
      </trkpt>
      <trkpt lat="47.632698" lon="1.94477">
        <ele>173.0</ele>
        <time>2022-04-14T08:29:05Z</time>
      </trkpt>
      <trkpt lat="47.632683" lon="1.9447781">
        <ele>173.0</ele>
        <time>2022-04-14T08:29:06Z</time>
      </trkpt>
      <trkpt lat="47.632675" lon="1.9447869">
        <ele>173.0</ele>
        <time>2022-04-14T08:29:07Z</time>
      </trkpt>
      <trkpt lat="47.632664" lon="1.9447972">
        <ele>173.0</ele>
        <time>2022-04-14T08:29:08Z</time>
      </trkpt>
      <trkpt lat="47.632652" lon="1.9448016">
        <ele>173.0</ele>
        <time>2022-04-14T08:29:09Z</time>
      </trkpt>
      <trkpt lat="47.632637" lon="1.9448053">
        <ele>173.0</ele>
        <time>2022-04-14T08:29:10Z</time>
      </trkpt>
      <trkpt lat="47.632626" lon="1.9448125">
        <ele>173.0</ele>
        <time>2022-04-14T08:29:11Z</time>
      </trkpt>
      <trkpt lat="47.632614" lon="1.9448196">
        <ele>173.0</ele>
        <time>2022-04-14T08:29:12Z</time>
      </trkpt>
      <trkpt lat="47.632603" lon="1.9448303">
        <ele>173.0</ele>
        <time>2022-04-14T08:29:13Z</time>
      </trkpt>
      <trkpt lat="47.63259" lon="1.9448383">
        <ele>173.0</ele>
        <time>2022-04-14T08:29:14Z</time>
      </trkpt>
      <trkpt lat="47.63258" lon="1.9448464">
        <ele>173.0</ele>
        <time>2022-04-14T08:29:15Z</time>
      </trkpt>
      <trkpt lat="47.632572" lon="1.9448527">
        <ele>174.0</ele>
        <time>2022-04-14T08:29:16Z</time>
      </trkpt>
      <trkpt lat="47.63256" lon="1.944856">
        <ele>174.0</ele>
        <time>2022-04-14T08:29:17Z</time>
      </trkpt>
      <trkpt lat="47.63255" lon="1.9448636">
        <ele>174.0</ele>
        <time>2022-04-14T08:29:18Z</time>
      </trkpt>
      <trkpt lat="47.632538" lon="1.9448754">
        <ele>174.0</ele>
        <time>2022-04-14T08:29:19Z</time>
      </trkpt>
      <trkpt lat="47.63253" lon="1.9448824">
        <ele>174.0</ele>
        <time>2022-04-14T08:29:20Z</time>
      </trkpt>
      <trkpt lat="47.63252" lon="1.9448899">
        <ele>174.0</ele>
        <time>2022-04-14T08:29:21Z</time>
      </trkpt>
      <trkpt lat="47.632504" lon="1.9448979">
        <ele>174.0</ele>
        <time>2022-04-14T08:29:22Z</time>
      </trkpt>
      <trkpt lat="47.632492" lon="1.9449062">
        <ele>174.0</ele>
        <time>2022-04-14T08:29:23Z</time>
      </trkpt>
      <trkpt lat="47.63248" lon="1.9449126">
        <ele>174.0</ele>
        <time>2022-04-14T08:29:24Z</time>
      </trkpt>
      <trkpt lat="47.63247" lon="1.9449208">
        <ele>174.0</ele>
        <time>2022-04-14T08:29:25Z</time>
      </trkpt>
      <trkpt lat="47.63246" lon="1.944929">
        <ele>173.0</ele>
        <time>2022-04-14T08:29:26Z</time>
      </trkpt>
      <trkpt lat="47.63245" lon="1.9449342">
        <ele>173.0</ele>
        <time>2022-04-14T08:29:27Z</time>
      </trkpt>
      <trkpt lat="47.63244" lon="1.9449407">
        <ele>173.0</ele>
        <time>2022-04-14T08:29:28Z</time>
      </trkpt>
      <trkpt lat="47.63243" lon="1.9449456">
        <ele>173.0</ele>
        <time>2022-04-14T08:29:29Z</time>
      </trkpt>
      <trkpt lat="47.632427" lon="1.9449481">
        <ele>173.0</ele>
        <time>2022-04-14T08:29:30Z</time>
      </trkpt>
      <trkpt lat="47.632427" lon="1.9449481">
        <ele>173.0</ele>
        <time>2022-04-14T08:29:31Z</time>
      </trkpt>
      <trkpt lat="47.632427" lon="1.9449481">
        <ele>173.0</ele>
        <time>2022-04-14T08:29:32Z</time>
      </trkpt>
      <trkpt lat="47.632423" lon="1.9449538">
        <ele>173.0</ele>
        <time>2022-04-14T08:29:33Z</time>
      </trkpt>
      <trkpt lat="47.632416" lon="1.9449605">
        <ele>173.0</ele>
        <time>2022-04-14T08:29:34Z</time>
      </trkpt>
      <trkpt lat="47.632404" lon="1.9449673">
        <ele>173.0</ele>
        <time>2022-04-14T08:29:35Z</time>
      </trkpt>
      <trkpt lat="47.632385" lon="1.9449698">
        <ele>173.0</ele>
        <time>2022-04-14T08:29:36Z</time>
      </trkpt>
      <trkpt lat="47.632374" lon="1.9449766">
        <ele>173.0</ele>
        <time>2022-04-14T08:29:37Z</time>
      </trkpt>
      <trkpt lat="47.632362" lon="1.944986">
        <ele>173.0</ele>
        <time>2022-04-14T08:29:38Z</time>
      </trkpt>
      <trkpt lat="47.63235" lon="1.9449924">
        <ele>173.0</ele>
        <time>2022-04-14T08:29:39Z</time>
      </trkpt>
      <trkpt lat="47.63234" lon="1.9450003">
        <ele>173.0</ele>
        <time>2022-04-14T08:29:40Z</time>
      </trkpt>
      <trkpt lat="47.632328" lon="1.9450054">
        <ele>173.0</ele>
        <time>2022-04-14T08:29:41Z</time>
      </trkpt>
      <trkpt lat="47.632317" lon="1.9450136">
        <ele>173.0</ele>
        <time>2022-04-14T08:29:42Z</time>
      </trkpt>
      <trkpt lat="47.632305" lon="1.9450194">
        <ele>173.0</ele>
        <time>2022-04-14T08:29:43Z</time>
      </trkpt>
      <trkpt lat="47.632294" lon="1.9450245">
        <ele>173.0</ele>
        <time>2022-04-14T08:29:44Z</time>
      </trkpt>
      <trkpt lat="47.632282" lon="1.945029">
        <ele>173.0</ele>
        <time>2022-04-14T08:29:45Z</time>
      </trkpt>
      <trkpt lat="47.632275" lon="1.9450417">
        <ele>173.0</ele>
        <time>2022-04-14T08:29:46Z</time>
      </trkpt>
      <trkpt lat="47.63226" lon="1.9450527">
        <ele>172.0</ele>
        <time>2022-04-14T08:29:47Z</time>
      </trkpt>
      <trkpt lat="47.632248" lon="1.9450647">
        <ele>172.0</ele>
        <time>2022-04-14T08:29:48Z</time>
      </trkpt>
      <trkpt lat="47.632236" lon="1.9450754">
        <ele>172.0</ele>
        <time>2022-04-14T08:29:49Z</time>
      </trkpt>
      <trkpt lat="47.63223" lon="1.9450817">
        <ele>172.0</ele>
        <time>2022-04-14T08:29:50Z</time>
      </trkpt>
      <trkpt lat="47.632214" lon="1.945091">
        <ele>172.0</ele>
        <time>2022-04-14T08:29:51Z</time>
      </trkpt>
      <trkpt lat="47.632202" lon="1.9450995">
        <ele>172.0</ele>
        <time>2022-04-14T08:29:52Z</time>
      </trkpt>
      <trkpt lat="47.63219" lon="1.9451047">
        <ele>171.0</ele>
        <time>2022-04-14T08:29:53Z</time>
      </trkpt>
      <trkpt lat="47.63218" lon="1.9451119">
        <ele>171.0</ele>
        <time>2022-04-14T08:29:54Z</time>
      </trkpt>
      <trkpt lat="47.63217" lon="1.945121">
        <ele>171.0</ele>
        <time>2022-04-14T08:29:55Z</time>
      </trkpt>
      <trkpt lat="47.63216" lon="1.9451287">
        <ele>171.0</ele>
        <time>2022-04-14T08:29:56Z</time>
      </trkpt>
      <trkpt lat="47.63215" lon="1.9451373">
        <ele>170.0</ele>
        <time>2022-04-14T08:29:57Z</time>
      </trkpt>
      <trkpt lat="47.632137" lon="1.9451461">
        <ele>170.0</ele>
        <time>2022-04-14T08:29:58Z</time>
      </trkpt>
      <trkpt lat="47.632126" lon="1.9451563">
        <ele>170.0</ele>
        <time>2022-04-14T08:29:59Z</time>
      </trkpt>
      <trkpt lat="47.632114" lon="1.9451616">
        <ele>170.0</ele>
        <time>2022-04-14T08:30:00Z</time>
      </trkpt>
      <trkpt lat="47.632103" lon="1.9451711">
        <ele>170.0</ele>
        <time>2022-04-14T08:30:01Z</time>
      </trkpt>
      <trkpt lat="47.632088" lon="1.9451795">
        <ele>171.0</ele>
        <time>2022-04-14T08:30:02Z</time>
      </trkpt>
      <trkpt lat="47.632076" lon="1.9451877">
        <ele>171.0</ele>
        <time>2022-04-14T08:30:03Z</time>
      </trkpt>
      <trkpt lat="47.632065" lon="1.9451951">
        <ele>171.0</ele>
        <time>2022-04-14T08:30:04Z</time>
      </trkpt>
      <trkpt lat="47.632057" lon="1.9452028">
        <ele>171.0</ele>
        <time>2022-04-14T08:30:05Z</time>
      </trkpt>
      <trkpt lat="47.632042" lon="1.9452082">
        <ele>171.0</ele>
        <time>2022-04-14T08:30:06Z</time>
      </trkpt>
      <trkpt lat="47.63203" lon="1.9452161">
        <ele>171.0</ele>
        <time>2022-04-14T08:30:07Z</time>
      </trkpt>
      <trkpt lat="47.63202" lon="1.9452257">
        <ele>171.0</ele>
        <time>2022-04-14T08:30:08Z</time>
      </trkpt>
      <trkpt lat="47.632008" lon="1.9452325">
        <ele>171.0</ele>
        <time>2022-04-14T08:30:09Z</time>
      </trkpt>
      <trkpt lat="47.631992" lon="1.9452415">
        <ele>171.0</ele>
        <time>2022-04-14T08:30:10Z</time>
      </trkpt>
      <trkpt lat="47.63198" lon="1.9452517">
        <ele>172.0</ele>
        <time>2022-04-14T08:30:11Z</time>
      </trkpt>
      <trkpt lat="47.631966" lon="1.9452652">
        <ele>172.0</ele>
        <time>2022-04-14T08:30:12Z</time>
      </trkpt>
      <trkpt lat="47.631954" lon="1.9452755">
        <ele>172.0</ele>
        <time>2022-04-14T08:30:13Z</time>
      </trkpt>
      <trkpt lat="47.63194" lon="1.9452788">
        <ele>172.0</ele>
        <time>2022-04-14T08:30:14Z</time>
      </trkpt>
      <trkpt lat="47.631927" lon="1.9452802">
        <ele>172.0</ele>
        <time>2022-04-14T08:30:15Z</time>
      </trkpt>
      <trkpt lat="47.631916" lon="1.945286">
        <ele>172.0</ele>
        <time>2022-04-14T08:30:16Z</time>
      </trkpt>
      <trkpt lat="47.631905" lon="1.9452945">
        <ele>171.0</ele>
        <time>2022-04-14T08:30:17Z</time>
      </trkpt>
      <trkpt lat="47.631893" lon="1.945301">
        <ele>171.0</ele>
        <time>2022-04-14T08:30:18Z</time>
      </trkpt>
      <trkpt lat="47.63188" lon="1.9453095">
        <ele>171.0</ele>
        <time>2022-04-14T08:30:19Z</time>
      </trkpt>
      <trkpt lat="47.631874" lon="1.945318">
        <ele>170.0</ele>
        <time>2022-04-14T08:30:20Z</time>
      </trkpt>
      <trkpt lat="47.631863" lon="1.9453261">
        <ele>170.0</ele>
        <time>2022-04-14T08:30:21Z</time>
      </trkpt>
      <trkpt lat="47.63185" lon="1.945332">
        <ele>169.0</ele>
        <time>2022-04-14T08:30:22Z</time>
      </trkpt>
      <trkpt lat="47.63184" lon="1.9453388">
        <ele>169.0</ele>
        <time>2022-04-14T08:30:23Z</time>
      </trkpt>
      <trkpt lat="47.63183" lon="1.9453456">
        <ele>169.0</ele>
        <time>2022-04-14T08:30:24Z</time>
      </trkpt>
      <trkpt lat="47.63182" lon="1.9453466">
        <ele>169.0</ele>
        <time>2022-04-14T08:30:25Z</time>
      </trkpt>
      <trkpt lat="47.63181" lon="1.9453516">
        <ele>169.0</ele>
        <time>2022-04-14T08:30:26Z</time>
      </trkpt>
      <trkpt lat="47.631798" lon="1.9453566">
        <ele>169.0</ele>
        <time>2022-04-14T08:30:27Z</time>
      </trkpt>
      <trkpt lat="47.631786" lon="1.9453572">
        <ele>169.0</ele>
        <time>2022-04-14T08:30:28Z</time>
      </trkpt>
      <trkpt lat="47.631775" lon="1.9453641">
        <ele>169.0</ele>
        <time>2022-04-14T08:30:29Z</time>
      </trkpt>
      <trkpt lat="47.631763" lon="1.9453733">
        <ele>169.0</ele>
        <time>2022-04-14T08:30:30Z</time>
      </trkpt>
      <trkpt lat="47.631756" lon="1.9453741">
        <ele>169.0</ele>
        <time>2022-04-14T08:30:31Z</time>
      </trkpt>
      <trkpt lat="47.63175" lon="1.9453741">
        <ele>169.0</ele>
        <time>2022-04-14T08:30:32Z</time>
      </trkpt>
      <trkpt lat="47.631737" lon="1.9453747">
        <ele>169.0</ele>
        <time>2022-04-14T08:30:33Z</time>
      </trkpt>
      <trkpt lat="47.631725" lon="1.9453788">
        <ele>170.0</ele>
        <time>2022-04-14T08:30:34Z</time>
      </trkpt>
      <trkpt lat="47.631714" lon="1.9453839">
        <ele>170.0</ele>
        <time>2022-04-14T08:30:35Z</time>
      </trkpt>
      <trkpt lat="47.631706" lon="1.9453865">
        <ele>169.0</ele>
        <time>2022-04-14T08:30:36Z</time>
      </trkpt>
      <trkpt lat="47.631695" lon="1.9453884">
        <ele>169.0</ele>
        <time>2022-04-14T08:30:37Z</time>
      </trkpt>
      <trkpt lat="47.631687" lon="1.945392">
        <ele>169.0</ele>
        <time>2022-04-14T08:30:38Z</time>
      </trkpt>
      <trkpt lat="47.631676" lon="1.945396">
        <ele>169.0</ele>
        <time>2022-04-14T08:30:39Z</time>
      </trkpt>
      <trkpt lat="47.631664" lon="1.9454007">
        <ele>169.0</ele>
        <time>2022-04-14T08:30:40Z</time>
      </trkpt>
      <trkpt lat="47.631653" lon="1.945404">
        <ele>169.0</ele>
        <time>2022-04-14T08:30:41Z</time>
      </trkpt>
      <trkpt lat="47.631645" lon="1.9454088">
        <ele>169.0</ele>
        <time>2022-04-14T08:30:42Z</time>
      </trkpt>
      <trkpt lat="47.631634" lon="1.9454191">
        <ele>169.0</ele>
        <time>2022-04-14T08:30:43Z</time>
      </trkpt>
      <trkpt lat="47.631622" lon="1.9454288">
        <ele>168.0</ele>
        <time>2022-04-14T08:30:44Z</time>
      </trkpt>
      <trkpt lat="47.631607" lon="1.9454383">
        <ele>169.0</ele>
        <time>2022-04-14T08:30:45Z</time>
      </trkpt>
      <trkpt lat="47.6316" lon="1.945444">
        <ele>169.0</ele>
        <time>2022-04-14T08:30:46Z</time>
      </trkpt>
      <trkpt lat="47.631588" lon="1.9454526">
        <ele>168.0</ele>
        <time>2022-04-14T08:30:47Z</time>
      </trkpt>
      <trkpt lat="47.631577" lon="1.9454563">
        <ele>168.0</ele>
        <time>2022-04-14T08:30:48Z</time>
      </trkpt>
      <trkpt lat="47.631565" lon="1.9454645">
        <ele>168.0</ele>
        <time>2022-04-14T08:30:49Z</time>
      </trkpt>
      <trkpt lat="47.631554" lon="1.9454722">
        <ele>168.0</ele>
        <time>2022-04-14T08:30:50Z</time>
      </trkpt>
      <trkpt lat="47.63154" lon="1.9454788">
        <ele>168.0</ele>
        <time>2022-04-14T08:30:51Z</time>
      </trkpt>
      <trkpt lat="47.631527" lon="1.9454875">
        <ele>168.0</ele>
        <time>2022-04-14T08:30:52Z</time>
      </trkpt>
      <trkpt lat="47.631516" lon="1.9454961">
        <ele>168.0</ele>
        <time>2022-04-14T08:30:53Z</time>
      </trkpt>
      <trkpt lat="47.631504" lon="1.9455037">
        <ele>167.0</ele>
        <time>2022-04-14T08:30:54Z</time>
      </trkpt>
      <trkpt lat="47.631496" lon="1.9455134">
        <ele>167.0</ele>
        <time>2022-04-14T08:30:55Z</time>
      </trkpt>
      <trkpt lat="47.63148" lon="1.9455234">
        <ele>167.0</ele>
        <time>2022-04-14T08:30:56Z</time>
      </trkpt>
      <trkpt lat="47.63147" lon="1.945532">
        <ele>167.0</ele>
        <time>2022-04-14T08:30:57Z</time>
      </trkpt>
      <trkpt lat="47.631454" lon="1.9455413">
        <ele>167.0</ele>
        <time>2022-04-14T08:30:58Z</time>
      </trkpt>
      <trkpt lat="47.631443" lon="1.9455444">
        <ele>167.0</ele>
        <time>2022-04-14T08:30:59Z</time>
      </trkpt>
      <trkpt lat="47.631435" lon="1.9455503">
        <ele>168.0</ele>
        <time>2022-04-14T08:31:00Z</time>
      </trkpt>
      <trkpt lat="47.631424" lon="1.9455582">
        <ele>167.0</ele>
        <time>2022-04-14T08:31:01Z</time>
      </trkpt>
      <trkpt lat="47.631413" lon="1.9455633">
        <ele>167.0</ele>
        <time>2022-04-14T08:31:02Z</time>
      </trkpt>
      <trkpt lat="47.631405" lon="1.9455673">
        <ele>167.0</ele>
        <time>2022-04-14T08:31:03Z</time>
      </trkpt>
      <trkpt lat="47.63139" lon="1.9455743">
        <ele>167.0</ele>
        <time>2022-04-14T08:31:04Z</time>
      </trkpt>
      <trkpt lat="47.63138" lon="1.945579">
        <ele>168.0</ele>
        <time>2022-04-14T08:31:05Z</time>
      </trkpt>
      <trkpt lat="47.631367" lon="1.9455825">
        <ele>167.0</ele>
        <time>2022-04-14T08:31:06Z</time>
      </trkpt>
      <trkpt lat="47.63135" lon="1.9455898">
        <ele>167.0</ele>
        <time>2022-04-14T08:31:07Z</time>
      </trkpt>
      <trkpt lat="47.63134" lon="1.945593">
        <ele>167.0</ele>
        <time>2022-04-14T08:31:08Z</time>
      </trkpt>
      <trkpt lat="47.631332" lon="1.9455978">
        <ele>167.0</ele>
        <time>2022-04-14T08:31:09Z</time>
      </trkpt>
      <trkpt lat="47.631317" lon="1.9456025">
        <ele>167.0</ele>
        <time>2022-04-14T08:31:10Z</time>
      </trkpt>
      <trkpt lat="47.63131" lon="1.9456099">
        <ele>167.0</ele>
        <time>2022-04-14T08:31:11Z</time>
      </trkpt>
      <trkpt lat="47.631298" lon="1.9456124">
        <ele>168.0</ele>
        <time>2022-04-14T08:31:12Z</time>
      </trkpt>
      <trkpt lat="47.631283" lon="1.9456155">
        <ele>168.0</ele>
        <time>2022-04-14T08:31:13Z</time>
      </trkpt>
      <trkpt lat="47.63127" lon="1.945624">
        <ele>167.0</ele>
        <time>2022-04-14T08:31:14Z</time>
      </trkpt>
      <trkpt lat="47.631256" lon="1.9456297">
        <ele>167.0</ele>
        <time>2022-04-14T08:31:15Z</time>
      </trkpt>
      <trkpt lat="47.63124" lon="1.9456335">
        <ele>167.0</ele>
        <time>2022-04-14T08:31:16Z</time>
      </trkpt>
      <trkpt lat="47.631233" lon="1.9456395">
        <ele>166.0</ele>
        <time>2022-04-14T08:31:17Z</time>
      </trkpt>
      <trkpt lat="47.63123" lon="1.9456482">
        <ele>167.0</ele>
        <time>2022-04-14T08:31:18Z</time>
      </trkpt>
      <trkpt lat="47.631218" lon="1.9456508">
        <ele>166.0</ele>
        <time>2022-04-14T08:31:20Z</time>
      </trkpt>
      <trkpt lat="47.631207" lon="1.9456546">
        <ele>166.0</ele>
        <time>2022-04-14T08:31:21Z</time>
      </trkpt>
      <trkpt lat="47.631195" lon="1.9456568">
        <ele>166.0</ele>
        <time>2022-04-14T08:31:22Z</time>
      </trkpt>
      <trkpt lat="47.631187" lon="1.9456614">
        <ele>166.0</ele>
        <time>2022-04-14T08:31:23Z</time>
      </trkpt>
      <trkpt lat="47.63118" lon="1.9456614">
        <ele>166.0</ele>
        <time>2022-04-14T08:31:24Z</time>
      </trkpt>
      <trkpt lat="47.631172" lon="1.945665">
        <ele>166.0</ele>
        <time>2022-04-14T08:31:25Z</time>
      </trkpt>
      <trkpt lat="47.63116" lon="1.9456621">
        <ele>167.0</ele>
        <time>2022-04-14T08:31:26Z</time>
      </trkpt>
      <trkpt lat="47.631153" lon="1.9456624">
        <ele>167.0</ele>
        <time>2022-04-14T08:31:27Z</time>
      </trkpt>
      <trkpt lat="47.63114" lon="1.9456607">
        <ele>167.0</ele>
        <time>2022-04-14T08:31:28Z</time>
      </trkpt>
      <trkpt lat="47.631126" lon="1.9456686">
        <ele>168.0</ele>
        <time>2022-04-14T08:31:29Z</time>
      </trkpt>
      <trkpt lat="47.63111" lon="1.9456749">
        <ele>168.0</ele>
        <time>2022-04-14T08:31:30Z</time>
      </trkpt>
      <trkpt lat="47.6311" lon="1.9456757">
        <ele>168.0</ele>
        <time>2022-04-14T08:31:31Z</time>
      </trkpt>
      <trkpt lat="47.63109" lon="1.945676">
        <ele>167.0</ele>
        <time>2022-04-14T08:31:32Z</time>
      </trkpt>
      <trkpt lat="47.631073" lon="1.945678">
        <ele>167.0</ele>
        <time>2022-04-14T08:31:33Z</time>
      </trkpt>
      <trkpt lat="47.631058" lon="1.945677">
        <ele>167.0</ele>
        <time>2022-04-14T08:31:34Z</time>
      </trkpt>
      <trkpt lat="47.631046" lon="1.9456788">
        <ele>167.0</ele>
        <time>2022-04-14T08:31:35Z</time>
      </trkpt>
      <trkpt lat="47.631035" lon="1.9456803">
        <ele>167.0</ele>
        <time>2022-04-14T08:31:36Z</time>
      </trkpt>
      <trkpt lat="47.631023" lon="1.9456806">
        <ele>167.0</ele>
        <time>2022-04-14T08:31:37Z</time>
      </trkpt>
      <trkpt lat="47.631016" lon="1.9456812">
        <ele>167.0</ele>
        <time>2022-04-14T08:31:38Z</time>
      </trkpt>
      <trkpt lat="47.631" lon="1.9456792">
        <ele>167.0</ele>
        <time>2022-04-14T08:31:39Z</time>
      </trkpt>
      <trkpt lat="47.63099" lon="1.9456776">
        <ele>168.0</ele>
        <time>2022-04-14T08:31:40Z</time>
      </trkpt>
      <trkpt lat="47.630974" lon="1.9456766">
        <ele>167.0</ele>
        <time>2022-04-14T08:31:41Z</time>
      </trkpt>
      <trkpt lat="47.630955" lon="1.9456809">
        <ele>168.0</ele>
        <time>2022-04-14T08:31:42Z</time>
      </trkpt>
      <trkpt lat="47.630943" lon="1.9456835">
        <ele>168.0</ele>
        <time>2022-04-14T08:31:43Z</time>
      </trkpt>
      <trkpt lat="47.63093" lon="1.945686">
        <ele>168.0</ele>
        <time>2022-04-14T08:31:44Z</time>
      </trkpt>
      <trkpt lat="47.630917" lon="1.9456873">
        <ele>168.0</ele>
        <time>2022-04-14T08:31:45Z</time>
      </trkpt>
      <trkpt lat="47.63091" lon="1.9456867">
        <ele>168.0</ele>
        <time>2022-04-14T08:31:46Z</time>
      </trkpt>
      <trkpt lat="47.630898" lon="1.9456856">
        <ele>168.0</ele>
        <time>2022-04-14T08:31:47Z</time>
      </trkpt>
      <trkpt lat="47.630886" lon="1.9456849">
        <ele>168.0</ele>
        <time>2022-04-14T08:31:48Z</time>
      </trkpt>
      <trkpt lat="47.630875" lon="1.9456861">
        <ele>167.0</ele>
        <time>2022-04-14T08:31:49Z</time>
      </trkpt>
      <trkpt lat="47.630863" lon="1.9456873">
        <ele>167.0</ele>
        <time>2022-04-14T08:31:50Z</time>
      </trkpt>
      <trkpt lat="47.630848" lon="1.9456896">
        <ele>168.0</ele>
        <time>2022-04-14T08:31:51Z</time>
      </trkpt>
      <trkpt lat="47.630833" lon="1.9456906">
        <ele>168.0</ele>
        <time>2022-04-14T08:31:52Z</time>
      </trkpt>
      <trkpt lat="47.63082" lon="1.9456934">
        <ele>168.0</ele>
        <time>2022-04-14T08:31:53Z</time>
      </trkpt>
      <trkpt lat="47.630806" lon="1.9456965">
        <ele>168.0</ele>
        <time>2022-04-14T08:31:54Z</time>
      </trkpt>
      <trkpt lat="47.630795" lon="1.9456998">
        <ele>168.0</ele>
        <time>2022-04-14T08:31:55Z</time>
      </trkpt>
      <trkpt lat="47.630783" lon="1.945699">
        <ele>168.0</ele>
        <time>2022-04-14T08:31:56Z</time>
      </trkpt>
      <trkpt lat="47.630768" lon="1.945701">
        <ele>169.0</ele>
        <time>2022-04-14T08:31:57Z</time>
      </trkpt>
      <trkpt lat="47.630753" lon="1.945703">
        <ele>169.0</ele>
        <time>2022-04-14T08:31:58Z</time>
      </trkpt>
      <trkpt lat="47.63074" lon="1.945703">
        <ele>169.0</ele>
        <time>2022-04-14T08:31:59Z</time>
      </trkpt>
      <trkpt lat="47.63073" lon="1.9457017">
        <ele>169.0</ele>
        <time>2022-04-14T08:32:00Z</time>
      </trkpt>
      <trkpt lat="47.630722" lon="1.9456993">
        <ele>169.0</ele>
        <time>2022-04-14T08:32:01Z</time>
      </trkpt>
      <trkpt lat="47.63071" lon="1.9457048">
        <ele>169.0</ele>
        <time>2022-04-14T08:32:02Z</time>
      </trkpt>
      <trkpt lat="47.6307" lon="1.9457084">
        <ele>169.0</ele>
        <time>2022-04-14T08:32:03Z</time>
      </trkpt>
      <trkpt lat="47.630688" lon="1.9457092">
        <ele>170.0</ele>
        <time>2022-04-14T08:32:04Z</time>
      </trkpt>
      <trkpt lat="47.630676" lon="1.9457136">
        <ele>170.0</ele>
        <time>2022-04-14T08:32:05Z</time>
      </trkpt>
      <trkpt lat="47.63066" lon="1.9457183">
        <ele>170.0</ele>
        <time>2022-04-14T08:32:06Z</time>
      </trkpt>
      <trkpt lat="47.630646" lon="1.9457265">
        <ele>171.0</ele>
        <time>2022-04-14T08:32:07Z</time>
      </trkpt>
      <trkpt lat="47.63063" lon="1.9457372">
        <ele>171.0</ele>
        <time>2022-04-14T08:32:08Z</time>
      </trkpt>
      <trkpt lat="47.63062" lon="1.9457455">
        <ele>170.0</ele>
        <time>2022-04-14T08:32:09Z</time>
      </trkpt>
      <trkpt lat="47.630608" lon="1.9457517">
        <ele>170.0</ele>
        <time>2022-04-14T08:32:10Z</time>
      </trkpt>
      <trkpt lat="47.630592" lon="1.9457546">
        <ele>170.0</ele>
        <time>2022-04-14T08:32:11Z</time>
      </trkpt>
      <trkpt lat="47.630577" lon="1.9457593">
        <ele>170.0</ele>
        <time>2022-04-14T08:32:12Z</time>
      </trkpt>
      <trkpt lat="47.630566" lon="1.9457651">
        <ele>170.0</ele>
        <time>2022-04-14T08:32:13Z</time>
      </trkpt>
      <trkpt lat="47.630554" lon="1.9457675">
        <ele>171.0</ele>
        <time>2022-04-14T08:32:14Z</time>
      </trkpt>
      <trkpt lat="47.63054" lon="1.9457724">
        <ele>171.0</ele>
        <time>2022-04-14T08:32:15Z</time>
      </trkpt>
      <trkpt lat="47.630527" lon="1.9457723">
        <ele>171.0</ele>
        <time>2022-04-14T08:32:16Z</time>
      </trkpt>
      <trkpt lat="47.630512" lon="1.945775">
        <ele>171.0</ele>
        <time>2022-04-14T08:32:17Z</time>
      </trkpt>
      <trkpt lat="47.630497" lon="1.9457746">
        <ele>171.0</ele>
        <time>2022-04-14T08:32:18Z</time>
      </trkpt>
      <trkpt lat="47.63048" lon="1.9457768">
        <ele>171.0</ele>
        <time>2022-04-14T08:32:19Z</time>
      </trkpt>
      <trkpt lat="47.630466" lon="1.9457803">
        <ele>172.0</ele>
        <time>2022-04-14T08:32:20Z</time>
      </trkpt>
      <trkpt lat="47.630455" lon="1.9457788">
        <ele>172.0</ele>
        <time>2022-04-14T08:32:21Z</time>
      </trkpt>
      <trkpt lat="47.630444" lon="1.9457796">
        <ele>172.0</ele>
        <time>2022-04-14T08:32:22Z</time>
      </trkpt>
      <trkpt lat="47.63043" lon="1.9457804">
        <ele>171.0</ele>
        <time>2022-04-14T08:32:23Z</time>
      </trkpt>
      <trkpt lat="47.630413" lon="1.9457833">
        <ele>172.0</ele>
        <time>2022-04-14T08:32:24Z</time>
      </trkpt>
      <trkpt lat="47.6304" lon="1.9457887">
        <ele>172.0</ele>
        <time>2022-04-14T08:32:25Z</time>
      </trkpt>
      <trkpt lat="47.63039" lon="1.9457903">
        <ele>172.0</ele>
        <time>2022-04-14T08:32:26Z</time>
      </trkpt>
      <trkpt lat="47.630383" lon="1.9457942">
        <ele>172.0</ele>
        <time>2022-04-14T08:32:27Z</time>
      </trkpt>
      <trkpt lat="47.630375" lon="1.9457979">
        <ele>173.0</ele>
        <time>2022-04-14T08:32:28Z</time>
      </trkpt>
      <trkpt lat="47.630363" lon="1.9458022">
        <ele>173.0</ele>
        <time>2022-04-14T08:32:29Z</time>
      </trkpt>
      <trkpt lat="47.630352" lon="1.9458071">
        <ele>173.0</ele>
        <time>2022-04-14T08:32:30Z</time>
      </trkpt>
      <trkpt lat="47.630344" lon="1.9458116">
        <ele>172.0</ele>
        <time>2022-04-14T08:32:31Z</time>
      </trkpt>
      <trkpt lat="47.630333" lon="1.9458101">
        <ele>172.0</ele>
        <time>2022-04-14T08:32:32Z</time>
      </trkpt>
      <trkpt lat="47.63032" lon="1.9458097">
        <ele>172.0</ele>
        <time>2022-04-14T08:32:33Z</time>
      </trkpt>
      <trkpt lat="47.630306" lon="1.9458065">
        <ele>171.0</ele>
        <time>2022-04-14T08:32:34Z</time>
      </trkpt>
      <trkpt lat="47.6303" lon="1.9458039">
        <ele>171.0</ele>
        <time>2022-04-14T08:32:35Z</time>
      </trkpt>
      <trkpt lat="47.630287" lon="1.9458003">
        <ele>171.0</ele>
        <time>2022-04-14T08:32:36Z</time>
      </trkpt>
      <trkpt lat="47.630276" lon="1.9458027">
        <ele>171.0</ele>
        <time>2022-04-14T08:32:37Z</time>
      </trkpt>
      <trkpt lat="47.63027" lon="1.9458038">
        <ele>170.0</ele>
        <time>2022-04-14T08:32:38Z</time>
      </trkpt>
      <trkpt lat="47.630257" lon="1.945805">
        <ele>170.0</ele>
        <time>2022-04-14T08:32:39Z</time>
      </trkpt>
      <trkpt lat="47.630245" lon="1.945807">
        <ele>170.0</ele>
        <time>2022-04-14T08:32:40Z</time>
      </trkpt>
      <trkpt lat="47.630234" lon="1.9458063">
        <ele>170.0</ele>
        <time>2022-04-14T08:32:41Z</time>
      </trkpt>
      <trkpt lat="47.630226" lon="1.945801">
        <ele>170.0</ele>
        <time>2022-04-14T08:32:42Z</time>
      </trkpt>
      <trkpt lat="47.630215" lon="1.945799">
        <ele>170.0</ele>
        <time>2022-04-14T08:32:43Z</time>
      </trkpt>
      <trkpt lat="47.630203" lon="1.9457998">
        <ele>169.0</ele>
        <time>2022-04-14T08:32:44Z</time>
      </trkpt>
      <trkpt lat="47.63019" lon="1.945803">
        <ele>169.0</ele>
        <time>2022-04-14T08:32:45Z</time>
      </trkpt>
      <trkpt lat="47.63018" lon="1.9458032">
        <ele>169.0</ele>
        <time>2022-04-14T08:32:46Z</time>
      </trkpt>
      <trkpt lat="47.63017" lon="1.9458078">
        <ele>169.0</ele>
        <time>2022-04-14T08:32:47Z</time>
      </trkpt>
      <trkpt lat="47.630157" lon="1.9458078">
        <ele>169.0</ele>
        <time>2022-04-14T08:32:48Z</time>
      </trkpt>
      <trkpt lat="47.630146" lon="1.9458092">
        <ele>170.0</ele>
        <time>2022-04-14T08:32:49Z</time>
      </trkpt>
      <trkpt lat="47.630135" lon="1.9458058">
        <ele>169.0</ele>
        <time>2022-04-14T08:32:50Z</time>
      </trkpt>
      <trkpt lat="47.630123" lon="1.9458063">
        <ele>169.0</ele>
        <time>2022-04-14T08:32:51Z</time>
      </trkpt>
      <trkpt lat="47.630108" lon="1.9457949">
        <ele>170.0</ele>
        <time>2022-04-14T08:32:52Z</time>
      </trkpt>
      <trkpt lat="47.630093" lon="1.945795">
        <ele>170.0</ele>
        <time>2022-04-14T08:32:53Z</time>
      </trkpt>
      <trkpt lat="47.63008" lon="1.945794">
        <ele>171.0</ele>
        <time>2022-04-14T08:32:54Z</time>
      </trkpt>
      <trkpt lat="47.630066" lon="1.9457898">
        <ele>171.0</ele>
        <time>2022-04-14T08:32:55Z</time>
      </trkpt>
      <trkpt lat="47.63005" lon="1.9457868">
        <ele>171.0</ele>
        <time>2022-04-14T08:32:56Z</time>
      </trkpt>
      <trkpt lat="47.630035" lon="1.9457858">
        <ele>171.0</ele>
        <time>2022-04-14T08:32:57Z</time>
      </trkpt>
      <trkpt lat="47.630024" lon="1.9457809">
        <ele>171.0</ele>
        <time>2022-04-14T08:32:58Z</time>
      </trkpt>
      <trkpt lat="47.63001" lon="1.945776">
        <ele>171.0</ele>
        <time>2022-04-14T08:32:59Z</time>
      </trkpt>
      <trkpt lat="47.629993" lon="1.9457628">
        <ele>172.0</ele>
        <time>2022-04-14T08:33:00Z</time>
      </trkpt>
      <trkpt lat="47.629982" lon="1.9457599">
        <ele>172.0</ele>
        <time>2022-04-14T08:33:01Z</time>
      </trkpt>
      <trkpt lat="47.629967" lon="1.9457569">
        <ele>172.0</ele>
        <time>2022-04-14T08:33:02Z</time>
      </trkpt>
      <trkpt lat="47.629955" lon="1.9457508">
        <ele>172.0</ele>
        <time>2022-04-14T08:33:03Z</time>
      </trkpt>
      <trkpt lat="47.62994" lon="1.9457487">
        <ele>172.0</ele>
        <time>2022-04-14T08:33:04Z</time>
      </trkpt>
      <trkpt lat="47.629925" lon="1.9457486">
        <ele>173.0</ele>
        <time>2022-04-14T08:33:05Z</time>
      </trkpt>
      <trkpt lat="47.629913" lon="1.9457473">
        <ele>173.0</ele>
        <time>2022-04-14T08:33:06Z</time>
      </trkpt>
      <trkpt lat="47.6299" lon="1.9457455">
        <ele>173.0</ele>
        <time>2022-04-14T08:33:07Z</time>
      </trkpt>
      <trkpt lat="47.629887" lon="1.9457409">
        <ele>173.0</ele>
        <time>2022-04-14T08:33:08Z</time>
      </trkpt>
      <trkpt lat="47.62987" lon="1.9457389">
        <ele>174.0</ele>
        <time>2022-04-14T08:33:09Z</time>
      </trkpt>
      <trkpt lat="47.629856" lon="1.9457352">
        <ele>174.0</ele>
        <time>2022-04-14T08:33:10Z</time>
      </trkpt>
      <trkpt lat="47.629845" lon="1.9457346">
        <ele>174.0</ele>
        <time>2022-04-14T08:33:11Z</time>
      </trkpt>
      <trkpt lat="47.629837" lon="1.9457302">
        <ele>174.0</ele>
        <time>2022-04-14T08:33:12Z</time>
      </trkpt>
      <trkpt lat="47.629833" lon="1.9457326">
        <ele>174.0</ele>
        <time>2022-04-14T08:33:13Z</time>
      </trkpt>
      <trkpt lat="47.62982" lon="1.9457334">
        <ele>174.0</ele>
        <time>2022-04-14T08:33:14Z</time>
      </trkpt>
      <trkpt lat="47.629807" lon="1.945735">
        <ele>174.0</ele>
        <time>2022-04-14T08:33:15Z</time>
      </trkpt>
      <trkpt lat="47.629795" lon="1.9457276">
        <ele>175.0</ele>
        <time>2022-04-14T08:33:16Z</time>
      </trkpt>
      <trkpt lat="47.62978" lon="1.9457254">
        <ele>175.0</ele>
        <time>2022-04-14T08:33:17Z</time>
      </trkpt>
      <trkpt lat="47.62977" lon="1.94572">
        <ele>174.0</ele>
        <time>2022-04-14T08:33:18Z</time>
      </trkpt>
      <trkpt lat="47.629753" lon="1.9457145">
        <ele>174.0</ele>
        <time>2022-04-14T08:33:19Z</time>
      </trkpt>
      <trkpt lat="47.629745" lon="1.9457059">
        <ele>174.0</ele>
        <time>2022-04-14T08:33:20Z</time>
      </trkpt>
      <trkpt lat="47.629734" lon="1.9457">
        <ele>174.0</ele>
        <time>2022-04-14T08:33:21Z</time>
      </trkpt>
      <trkpt lat="47.62972" lon="1.9456929">
        <ele>174.0</ele>
        <time>2022-04-14T08:33:22Z</time>
      </trkpt>
      <trkpt lat="47.629704" lon="1.9456888">
        <ele>175.0</ele>
        <time>2022-04-14T08:33:23Z</time>
      </trkpt>
      <trkpt lat="47.629692" lon="1.9456863">
        <ele>175.0</ele>
        <time>2022-04-14T08:33:24Z</time>
      </trkpt>
      <trkpt lat="47.629677" lon="1.9456815">
        <ele>175.0</ele>
        <time>2022-04-14T08:33:25Z</time>
      </trkpt>
      <trkpt lat="47.62966" lon="1.9456811">
        <ele>176.0</ele>
        <time>2022-04-14T08:33:26Z</time>
      </trkpt>
      <trkpt lat="47.629646" lon="1.9456757">
        <ele>176.0</ele>
        <time>2022-04-14T08:33:27Z</time>
      </trkpt>
      <trkpt lat="47.62963" lon="1.9456695">
        <ele>177.0</ele>
        <time>2022-04-14T08:33:28Z</time>
      </trkpt>
      <trkpt lat="47.629616" lon="1.9456677">
        <ele>177.0</ele>
        <time>2022-04-14T08:33:29Z</time>
      </trkpt>
      <trkpt lat="47.629604" lon="1.9456654">
        <ele>177.0</ele>
        <time>2022-04-14T08:33:30Z</time>
      </trkpt>
      <trkpt lat="47.62959" lon="1.9456629">
        <ele>177.0</ele>
        <time>2022-04-14T08:33:31Z</time>
      </trkpt>
      <trkpt lat="47.62959" lon="1.9456629">
        <ele>177.0</ele>
        <time>2022-04-14T08:33:32Z</time>
      </trkpt>
      <trkpt lat="47.62958" lon="1.9456612">
        <ele>177.0</ele>
        <time>2022-04-14T08:33:33Z</time>
      </trkpt>
      <trkpt lat="47.62957" lon="1.9456666">
        <ele>177.0</ele>
        <time>2022-04-14T08:33:34Z</time>
      </trkpt>
      <trkpt lat="47.629555" lon="1.9456618">
        <ele>178.0</ele>
        <time>2022-04-14T08:33:35Z</time>
      </trkpt>
      <trkpt lat="47.629547" lon="1.9456477">
        <ele>178.0</ele>
        <time>2022-04-14T08:33:36Z</time>
      </trkpt>
      <trkpt lat="47.629536" lon="1.9456362">
        <ele>178.0</ele>
        <time>2022-04-14T08:33:37Z</time>
      </trkpt>
      <trkpt lat="47.629528" lon="1.9456248">
        <ele>178.0</ele>
        <time>2022-04-14T08:33:38Z</time>
      </trkpt>
      <trkpt lat="47.629517" lon="1.945615">
        <ele>178.0</ele>
        <time>2022-04-14T08:33:39Z</time>
      </trkpt>
      <trkpt lat="47.629505" lon="1.9456007">
        <ele>178.0</ele>
        <time>2022-04-14T08:33:40Z</time>
      </trkpt>
      <trkpt lat="47.629494" lon="1.9455894">
        <ele>178.0</ele>
        <time>2022-04-14T08:33:41Z</time>
      </trkpt>
      <trkpt lat="47.629482" lon="1.9455837">
        <ele>177.0</ele>
        <time>2022-04-14T08:33:42Z</time>
      </trkpt>
      <trkpt lat="47.62947" lon="1.9455855">
        <ele>177.0</ele>
        <time>2022-04-14T08:33:43Z</time>
      </trkpt>
      <trkpt lat="47.629456" lon="1.9455862">
        <ele>178.0</ele>
        <time>2022-04-14T08:33:44Z</time>
      </trkpt>
      <trkpt lat="47.629444" lon="1.945589">
        <ele>178.0</ele>
        <time>2022-04-14T08:33:45Z</time>
      </trkpt>
      <trkpt lat="47.629433" lon="1.9455903">
        <ele>178.0</ele>
        <time>2022-04-14T08:33:46Z</time>
      </trkpt>
      <trkpt lat="47.62942" lon="1.9455909">
        <ele>178.0</ele>
        <time>2022-04-14T08:33:47Z</time>
      </trkpt>
      <trkpt lat="47.629406" lon="1.9455922">
        <ele>178.0</ele>
        <time>2022-04-14T08:33:48Z</time>
      </trkpt>
      <trkpt lat="47.629395" lon="1.9455976">
        <ele>178.0</ele>
        <time>2022-04-14T08:33:49Z</time>
      </trkpt>
      <trkpt lat="47.629383" lon="1.9456006">
        <ele>178.0</ele>
        <time>2022-04-14T08:33:50Z</time>
      </trkpt>
      <trkpt lat="47.62937" lon="1.9456011">
        <ele>178.0</ele>
        <time>2022-04-14T08:33:51Z</time>
      </trkpt>
      <trkpt lat="47.629356" lon="1.9456017">
        <ele>178.0</ele>
        <time>2022-04-14T08:33:52Z</time>
      </trkpt>
      <trkpt lat="47.629345" lon="1.9456049">
        <ele>178.0</ele>
        <time>2022-04-14T08:33:53Z</time>
      </trkpt>
      <trkpt lat="47.629333" lon="1.9456046">
        <ele>178.0</ele>
        <time>2022-04-14T08:33:54Z</time>
      </trkpt>
      <trkpt lat="47.629322" lon="1.9455994">
        <ele>178.0</ele>
        <time>2022-04-14T08:33:55Z</time>
      </trkpt>
      <trkpt lat="47.62931" lon="1.9456">
        <ele>178.0</ele>
        <time>2022-04-14T08:33:56Z</time>
      </trkpt>
      <trkpt lat="47.629295" lon="1.9455974">
        <ele>178.0</ele>
        <time>2022-04-14T08:33:57Z</time>
      </trkpt>
      <trkpt lat="47.629284" lon="1.9455935">
        <ele>178.0</ele>
        <time>2022-04-14T08:33:58Z</time>
      </trkpt>
      <trkpt lat="47.62927" lon="1.9455901">
        <ele>178.0</ele>
        <time>2022-04-14T08:33:59Z</time>
      </trkpt>
      <trkpt lat="47.629257" lon="1.9455869">
        <ele>178.0</ele>
        <time>2022-04-14T08:34:00Z</time>
      </trkpt>
      <trkpt lat="47.629246" lon="1.9455873">
        <ele>178.0</ele>
        <time>2022-04-14T08:34:01Z</time>
      </trkpt>
      <trkpt lat="47.62923" lon="1.9455885">
        <ele>179.0</ele>
        <time>2022-04-14T08:34:02Z</time>
      </trkpt>
      <trkpt lat="47.629223" lon="1.9455895">
        <ele>179.0</ele>
        <time>2022-04-14T08:34:03Z</time>
      </trkpt>
      <trkpt lat="47.629208" lon="1.9455878">
        <ele>179.0</ele>
        <time>2022-04-14T08:34:04Z</time>
      </trkpt>
      <trkpt lat="47.6292" lon="1.9455862">
        <ele>179.0</ele>
        <time>2022-04-14T08:34:05Z</time>
      </trkpt>
      <trkpt lat="47.629185" lon="1.9455819">
        <ele>179.0</ele>
        <time>2022-04-14T08:34:06Z</time>
      </trkpt>
      <trkpt lat="47.629173" lon="1.9455749">
        <ele>179.0</ele>
        <time>2022-04-14T08:34:07Z</time>
      </trkpt>
      <trkpt lat="47.62916" lon="1.9455674">
        <ele>179.0</ele>
        <time>2022-04-14T08:34:08Z</time>
      </trkpt>
      <trkpt lat="47.62915" lon="1.9455638">
        <ele>179.0</ele>
        <time>2022-04-14T08:34:09Z</time>
      </trkpt>
      <trkpt lat="47.62914" lon="1.9455615">
        <ele>180.0</ele>
        <time>2022-04-14T08:34:10Z</time>
      </trkpt>
      <trkpt lat="47.629128" lon="1.9455564">
        <ele>180.0</ele>
        <time>2022-04-14T08:34:11Z</time>
      </trkpt>
      <trkpt lat="47.62912" lon="1.9455559">
        <ele>180.0</ele>
        <time>2022-04-14T08:34:12Z</time>
      </trkpt>
      <trkpt lat="47.62911" lon="1.9455577">
        <ele>180.0</ele>
        <time>2022-04-14T08:34:13Z</time>
      </trkpt>
      <trkpt lat="47.629093" lon="1.9455624">
        <ele>180.0</ele>
        <time>2022-04-14T08:34:14Z</time>
      </trkpt>
      <trkpt lat="47.62908" lon="1.9455645">
        <ele>180.0</ele>
        <time>2022-04-14T08:34:15Z</time>
      </trkpt>
      <trkpt lat="47.62907" lon="1.9455653">
        <ele>180.0</ele>
        <time>2022-04-14T08:34:16Z</time>
      </trkpt>
      <trkpt lat="47.62906" lon="1.9455647">
        <ele>180.0</ele>
        <time>2022-04-14T08:34:17Z</time>
      </trkpt>
      <trkpt lat="47.629047" lon="1.945564">
        <ele>180.0</ele>
        <time>2022-04-14T08:34:18Z</time>
      </trkpt>
      <trkpt lat="47.629032" lon="1.9455656">
        <ele>181.0</ele>
        <time>2022-04-14T08:34:19Z</time>
      </trkpt>
      <trkpt lat="47.62902" lon="1.9455665">
        <ele>181.0</ele>
        <time>2022-04-14T08:34:20Z</time>
      </trkpt>
      <trkpt lat="47.62901" lon="1.9455675">
        <ele>180.0</ele>
        <time>2022-04-14T08:34:21Z</time>
      </trkpt>
      <trkpt lat="47.628998" lon="1.9455646">
        <ele>181.0</ele>
        <time>2022-04-14T08:34:22Z</time>
      </trkpt>
      <trkpt lat="47.62899" lon="1.9455639">
        <ele>181.0</ele>
        <time>2022-04-14T08:34:23Z</time>
      </trkpt>
      <trkpt lat="47.62898" lon="1.945565">
        <ele>181.0</ele>
        <time>2022-04-14T08:34:24Z</time>
      </trkpt>
      <trkpt lat="47.628963" lon="1.9455683">
        <ele>182.0</ele>
        <time>2022-04-14T08:34:25Z</time>
      </trkpt>
      <trkpt lat="47.628952" lon="1.9455742">
        <ele>182.0</ele>
        <time>2022-04-14T08:34:26Z</time>
      </trkpt>
      <trkpt lat="47.628937" lon="1.9455763">
        <ele>182.0</ele>
        <time>2022-04-14T08:34:27Z</time>
      </trkpt>
      <trkpt lat="47.62892" lon="1.9455756">
        <ele>182.0</ele>
        <time>2022-04-14T08:34:28Z</time>
      </trkpt>
      <trkpt lat="47.62891" lon="1.9455777">
        <ele>182.0</ele>
        <time>2022-04-14T08:34:29Z</time>
      </trkpt>
      <trkpt lat="47.628895" lon="1.9455795">
        <ele>183.0</ele>
        <time>2022-04-14T08:34:30Z</time>
      </trkpt>
      <trkpt lat="47.628883" lon="1.9455831">
        <ele>183.0</ele>
        <time>2022-04-14T08:34:31Z</time>
      </trkpt>
      <trkpt lat="47.628872" lon="1.9455872">
        <ele>183.0</ele>
        <time>2022-04-14T08:34:32Z</time>
      </trkpt>
      <trkpt lat="47.62886" lon="1.9455854">
        <ele>184.0</ele>
        <time>2022-04-14T08:34:33Z</time>
      </trkpt>
      <trkpt lat="47.62885" lon="1.9455854">
        <ele>184.0</ele>
        <time>2022-04-14T08:34:34Z</time>
      </trkpt>
      <trkpt lat="47.628838" lon="1.9455873">
        <ele>184.0</ele>
        <time>2022-04-14T08:34:35Z</time>
      </trkpt>
      <trkpt lat="47.62883" lon="1.9455892">
        <ele>184.0</ele>
        <time>2022-04-14T08:34:36Z</time>
      </trkpt>
      <trkpt lat="47.62882" lon="1.9455887">
        <ele>183.0</ele>
        <time>2022-04-14T08:34:37Z</time>
      </trkpt>
      <trkpt lat="47.628807" lon="1.9455876">
        <ele>183.0</ele>
        <time>2022-04-14T08:34:38Z</time>
      </trkpt>
      <trkpt lat="47.628796" lon="1.9455891">
        <ele>183.0</ele>
        <time>2022-04-14T08:34:39Z</time>
      </trkpt>
      <trkpt lat="47.628788" lon="1.9455903">
        <ele>183.0</ele>
        <time>2022-04-14T08:34:40Z</time>
      </trkpt>
      <trkpt lat="47.62877" lon="1.9455882">
        <ele>183.0</ele>
        <time>2022-04-14T08:34:41Z</time>
      </trkpt>
      <trkpt lat="47.628754" lon="1.9455847">
        <ele>182.0</ele>
        <time>2022-04-14T08:34:42Z</time>
      </trkpt>
      <trkpt lat="47.628742" lon="1.9455858">
        <ele>182.0</ele>
        <time>2022-04-14T08:34:43Z</time>
      </trkpt>
      <trkpt lat="47.62873" lon="1.9455851">
        <ele>182.0</ele>
        <time>2022-04-14T08:34:44Z</time>
      </trkpt>
      <trkpt lat="47.628716" lon="1.9455805">
        <ele>182.0</ele>
        <time>2022-04-14T08:34:45Z</time>
      </trkpt>
      <trkpt lat="47.6287" lon="1.9455757">
        <ele>182.0</ele>
        <time>2022-04-14T08:34:46Z</time>
      </trkpt>
      <trkpt lat="47.62869" lon="1.9455706">
        <ele>182.0</ele>
        <time>2022-04-14T08:34:47Z</time>
      </trkpt>
      <trkpt lat="47.62868" lon="1.945567">
        <ele>181.0</ele>
        <time>2022-04-14T08:34:48Z</time>
      </trkpt>
      <trkpt lat="47.62867" lon="1.9455639">
        <ele>181.0</ele>
        <time>2022-04-14T08:34:49Z</time>
      </trkpt>
      <trkpt lat="47.62866" lon="1.9455625">
        <ele>181.0</ele>
        <time>2022-04-14T08:34:50Z</time>
      </trkpt>
      <trkpt lat="47.628647" lon="1.945566">
        <ele>181.0</ele>
        <time>2022-04-14T08:34:51Z</time>
      </trkpt>
      <trkpt lat="47.628635" lon="1.9455698">
        <ele>182.0</ele>
        <time>2022-04-14T08:34:52Z</time>
      </trkpt>
      <trkpt lat="47.628624" lon="1.9455706">
        <ele>182.0</ele>
        <time>2022-04-14T08:34:53Z</time>
      </trkpt>
      <trkpt lat="47.62861" lon="1.9455694">
        <ele>181.0</ele>
        <time>2022-04-14T08:34:54Z</time>
      </trkpt>
      <trkpt lat="47.628597" lon="1.9455718">
        <ele>182.0</ele>
        <time>2022-04-14T08:34:55Z</time>
      </trkpt>
      <trkpt lat="47.628586" lon="1.945572">
        <ele>182.0</ele>
        <time>2022-04-14T08:34:56Z</time>
      </trkpt>
      <trkpt lat="47.628574" lon="1.9455703">
        <ele>182.0</ele>
        <time>2022-04-14T08:34:57Z</time>
      </trkpt>
      <trkpt lat="47.62856" lon="1.9455664">
        <ele>182.0</ele>
        <time>2022-04-14T08:34:58Z</time>
      </trkpt>
      <trkpt lat="47.628548" lon="1.9455652">
        <ele>182.0</ele>
        <time>2022-04-14T08:34:59Z</time>
      </trkpt>
      <trkpt lat="47.628532" lon="1.945566">
        <ele>182.0</ele>
        <time>2022-04-14T08:35:00Z</time>
      </trkpt>
      <trkpt lat="47.62852" lon="1.9455656">
        <ele>182.0</ele>
        <time>2022-04-14T08:35:01Z</time>
      </trkpt>
      <trkpt lat="47.628517" lon="1.9455622">
        <ele>183.0</ele>
        <time>2022-04-14T08:35:02Z</time>
      </trkpt>
      <trkpt lat="47.628513" lon="1.9455637">
        <ele>183.0</ele>
        <time>2022-04-14T08:35:03Z</time>
      </trkpt>
      <trkpt lat="47.628506" lon="1.9455645">
        <ele>183.0</ele>
        <time>2022-04-14T08:35:04Z</time>
      </trkpt>
      <trkpt lat="47.628498" lon="1.9455618">
        <ele>183.0</ele>
        <time>2022-04-14T08:35:05Z</time>
      </trkpt>
      <trkpt lat="47.62849" lon="1.9455595">
        <ele>183.0</ele>
        <time>2022-04-14T08:35:06Z</time>
      </trkpt>
      <trkpt lat="47.628483" lon="1.945559">
        <ele>183.0</ele>
        <time>2022-04-14T08:35:07Z</time>
      </trkpt>
      <trkpt lat="47.62847" lon="1.94556">
        <ele>183.0</ele>
        <time>2022-04-14T08:35:08Z</time>
      </trkpt>
      <trkpt lat="47.62846" lon="1.9455593">
        <ele>183.0</ele>
        <time>2022-04-14T08:35:09Z</time>
      </trkpt>
      <trkpt lat="47.62845" lon="1.945559">
        <ele>183.0</ele>
        <time>2022-04-14T08:35:10Z</time>
      </trkpt>
      <trkpt lat="47.628437" lon="1.9455577">
        <ele>184.0</ele>
        <time>2022-04-14T08:35:11Z</time>
      </trkpt>
      <trkpt lat="47.62843" lon="1.9455559">
        <ele>184.0</ele>
        <time>2022-04-14T08:35:12Z</time>
      </trkpt>
      <trkpt lat="47.628414" lon="1.9455563">
        <ele>184.0</ele>
        <time>2022-04-14T08:35:13Z</time>
      </trkpt>
      <trkpt lat="47.628403" lon="1.9455532">
        <ele>184.0</ele>
        <time>2022-04-14T08:35:14Z</time>
      </trkpt>
      <trkpt lat="47.62839" lon="1.9455523">
        <ele>185.0</ele>
        <time>2022-04-14T08:35:15Z</time>
      </trkpt>
      <trkpt lat="47.62838" lon="1.9455557">
        <ele>185.0</ele>
        <time>2022-04-14T08:35:16Z</time>
      </trkpt>
      <trkpt lat="47.62837" lon="1.9455575">
        <ele>185.0</ele>
        <time>2022-04-14T08:35:17Z</time>
      </trkpt>
      <trkpt lat="47.62836" lon="1.9455609">
        <ele>184.0</ele>
        <time>2022-04-14T08:35:18Z</time>
      </trkpt>
      <trkpt lat="47.62835" lon="1.9455622">
        <ele>184.0</ele>
        <time>2022-04-14T08:35:19Z</time>
      </trkpt>
      <trkpt lat="47.628334" lon="1.9455585">
        <ele>184.0</ele>
        <time>2022-04-14T08:35:20Z</time>
      </trkpt>
      <trkpt lat="47.62832" lon="1.9455651">
        <ele>185.0</ele>
        <time>2022-04-14T08:35:21Z</time>
      </trkpt>
      <trkpt lat="47.628307" lon="1.9455645">
        <ele>185.0</ele>
        <time>2022-04-14T08:35:22Z</time>
      </trkpt>
      <trkpt lat="47.628292" lon="1.9455656">
        <ele>185.0</ele>
        <time>2022-04-14T08:35:23Z</time>
      </trkpt>
      <trkpt lat="47.628277" lon="1.9455631">
        <ele>185.0</ele>
        <time>2022-04-14T08:35:24Z</time>
      </trkpt>
      <trkpt lat="47.62826" lon="1.9455595">
        <ele>185.0</ele>
        <time>2022-04-14T08:35:25Z</time>
      </trkpt>
      <trkpt lat="47.62825" lon="1.9455546">
        <ele>186.0</ele>
        <time>2022-04-14T08:35:26Z</time>
      </trkpt>
      <trkpt lat="47.628235" lon="1.9455495">
        <ele>186.0</ele>
        <time>2022-04-14T08:35:27Z</time>
      </trkpt>
      <trkpt lat="47.62822" lon="1.9455441">
        <ele>186.0</ele>
        <time>2022-04-14T08:35:28Z</time>
      </trkpt>
      <trkpt lat="47.628212" lon="1.9455417">
        <ele>186.0</ele>
        <time>2022-04-14T08:35:29Z</time>
      </trkpt>
      <trkpt lat="47.628204" lon="1.945539">
        <ele>186.0</ele>
        <time>2022-04-14T08:35:30Z</time>
      </trkpt>
      <trkpt lat="47.628193" lon="1.9455388">
        <ele>186.0</ele>
        <time>2022-04-14T08:35:31Z</time>
      </trkpt>
      <trkpt lat="47.62818" lon="1.9455371">
        <ele>186.0</ele>
        <time>2022-04-14T08:35:32Z</time>
      </trkpt>
      <trkpt lat="47.628174" lon="1.9455358">
        <ele>186.0</ele>
        <time>2022-04-14T08:35:33Z</time>
      </trkpt>
      <trkpt lat="47.628162" lon="1.945532">
        <ele>186.0</ele>
        <time>2022-04-14T08:35:34Z</time>
      </trkpt>
      <trkpt lat="47.628155" lon="1.9455267">
        <ele>186.0</ele>
        <time>2022-04-14T08:35:35Z</time>
      </trkpt>
      <trkpt lat="47.628143" lon="1.9455199">
        <ele>186.0</ele>
        <time>2022-04-14T08:35:36Z</time>
      </trkpt>
      <trkpt lat="47.628128" lon="1.945514">
        <ele>186.0</ele>
        <time>2022-04-14T08:35:37Z</time>
      </trkpt>
      <trkpt lat="47.628117" lon="1.9455087">
        <ele>186.0</ele>
        <time>2022-04-14T08:35:38Z</time>
      </trkpt>
      <trkpt lat="47.628105" lon="1.9455074">
        <ele>186.0</ele>
        <time>2022-04-14T08:35:39Z</time>
      </trkpt>
      <trkpt lat="47.628098" lon="1.9455043">
        <ele>186.0</ele>
        <time>2022-04-14T08:35:40Z</time>
      </trkpt>
      <trkpt lat="47.628086" lon="1.9455037">
        <ele>187.0</ele>
        <time>2022-04-14T08:35:41Z</time>
      </trkpt>
      <trkpt lat="47.628067" lon="1.9455048">
        <ele>187.0</ele>
        <time>2022-04-14T08:35:42Z</time>
      </trkpt>
      <trkpt lat="47.628056" lon="1.945508">
        <ele>187.0</ele>
        <time>2022-04-14T08:35:43Z</time>
      </trkpt>
      <trkpt lat="47.62804" lon="1.9455082">
        <ele>188.0</ele>
        <time>2022-04-14T08:35:44Z</time>
      </trkpt>
      <trkpt lat="47.628033" lon="1.9455068">
        <ele>188.0</ele>
        <time>2022-04-14T08:35:45Z</time>
      </trkpt>
      <trkpt lat="47.62802" lon="1.9455034">
        <ele>188.0</ele>
        <time>2022-04-14T08:35:46Z</time>
      </trkpt>
      <trkpt lat="47.62801" lon="1.9454974">
        <ele>188.0</ele>
        <time>2022-04-14T08:35:47Z</time>
      </trkpt>
      <trkpt lat="47.627995" lon="1.945493">
        <ele>188.0</ele>
        <time>2022-04-14T08:35:48Z</time>
      </trkpt>
      <trkpt lat="47.62798" lon="1.9454932">
        <ele>187.0</ele>
        <time>2022-04-14T08:35:49Z</time>
      </trkpt>
      <trkpt lat="47.62797" lon="1.9454973">
        <ele>187.0</ele>
        <time>2022-04-14T08:35:50Z</time>
      </trkpt>
      <trkpt lat="47.627956" lon="1.945494">
        <ele>188.0</ele>
        <time>2022-04-14T08:35:51Z</time>
      </trkpt>
      <trkpt lat="47.627945" lon="1.9454917">
        <ele>188.0</ele>
        <time>2022-04-14T08:35:52Z</time>
      </trkpt>
      <trkpt lat="47.627937" lon="1.94549">
        <ele>188.0</ele>
        <time>2022-04-14T08:35:53Z</time>
      </trkpt>
      <trkpt lat="47.627926" lon="1.9454893">
        <ele>188.0</ele>
        <time>2022-04-14T08:35:54Z</time>
      </trkpt>
      <trkpt lat="47.62792" lon="1.9454919">
        <ele>188.0</ele>
        <time>2022-04-14T08:35:55Z</time>
      </trkpt>
      <trkpt lat="47.627907" lon="1.9454942">
        <ele>188.0</ele>
        <time>2022-04-14T08:35:56Z</time>
      </trkpt>
      <trkpt lat="47.627895" lon="1.9454967">
        <ele>188.0</ele>
        <time>2022-04-14T08:35:57Z</time>
      </trkpt>
      <trkpt lat="47.627888" lon="1.9455001">
        <ele>188.0</ele>
        <time>2022-04-14T08:35:58Z</time>
      </trkpt>
      <trkpt lat="47.627876" lon="1.945501">
        <ele>188.0</ele>
        <time>2022-04-14T08:35:59Z</time>
      </trkpt>
      <trkpt lat="47.627865" lon="1.9455011">
        <ele>187.0</ele>
        <time>2022-04-14T08:36:00Z</time>
      </trkpt>
      <trkpt lat="47.627853" lon="1.9455016">
        <ele>187.0</ele>
        <time>2022-04-14T08:36:01Z</time>
      </trkpt>
      <trkpt lat="47.627842" lon="1.9455005">
        <ele>187.0</ele>
        <time>2022-04-14T08:36:02Z</time>
      </trkpt>
      <trkpt lat="47.62783" lon="1.9455045">
        <ele>187.0</ele>
        <time>2022-04-14T08:36:03Z</time>
      </trkpt>
      <trkpt lat="47.62782" lon="1.9455062">
        <ele>186.0</ele>
        <time>2022-04-14T08:36:04Z</time>
      </trkpt>
      <trkpt lat="47.627804" lon="1.9455045">
        <ele>186.0</ele>
        <time>2022-04-14T08:36:05Z</time>
      </trkpt>
      <trkpt lat="47.627792" lon="1.9455032">
        <ele>186.0</ele>
        <time>2022-04-14T08:36:06Z</time>
      </trkpt>
      <trkpt lat="47.62778" lon="1.9455092">
        <ele>187.0</ele>
        <time>2022-04-14T08:36:07Z</time>
      </trkpt>
      <trkpt lat="47.62777" lon="1.9455067">
        <ele>186.0</ele>
        <time>2022-04-14T08:36:08Z</time>
      </trkpt>
      <trkpt lat="47.62776" lon="1.945501">
        <ele>186.0</ele>
        <time>2022-04-14T08:36:09Z</time>
      </trkpt>
      <trkpt lat="47.62775" lon="1.9454958">
        <ele>186.0</ele>
        <time>2022-04-14T08:36:10Z</time>
      </trkpt>
      <trkpt lat="47.62774" lon="1.9454917">
        <ele>185.0</ele>
        <time>2022-04-14T08:36:11Z</time>
      </trkpt>
      <trkpt lat="47.627728" lon="1.9454944">
        <ele>186.0</ele>
        <time>2022-04-14T08:36:12Z</time>
      </trkpt>
      <trkpt lat="47.627716" lon="1.945496">
        <ele>186.0</ele>
        <time>2022-04-14T08:36:13Z</time>
      </trkpt>
      <trkpt lat="47.627705" lon="1.9454939">
        <ele>185.0</ele>
        <time>2022-04-14T08:36:14Z</time>
      </trkpt>
      <trkpt lat="47.627693" lon="1.9454877">
        <ele>185.0</ele>
        <time>2022-04-14T08:36:15Z</time>
      </trkpt>
      <trkpt lat="47.627678" lon="1.9454849">
        <ele>184.0</ele>
        <time>2022-04-14T08:36:16Z</time>
      </trkpt>
      <trkpt lat="47.62767" lon="1.9454829">
        <ele>185.0</ele>
        <time>2022-04-14T08:36:17Z</time>
      </trkpt>
      <trkpt lat="47.62766" lon="1.9454796">
        <ele>184.0</ele>
        <time>2022-04-14T08:36:18Z</time>
      </trkpt>
      <trkpt lat="47.627647" lon="1.9454798">
        <ele>184.0</ele>
        <time>2022-04-14T08:36:19Z</time>
      </trkpt>
      <trkpt lat="47.627632" lon="1.9454772">
        <ele>184.0</ele>
        <time>2022-04-14T08:36:20Z</time>
      </trkpt>
      <trkpt lat="47.62762" lon="1.9454778">
        <ele>184.0</ele>
        <time>2022-04-14T08:36:21Z</time>
      </trkpt>
      <trkpt lat="47.627605" lon="1.945479">
        <ele>183.0</ele>
        <time>2022-04-14T08:36:22Z</time>
      </trkpt>
      <trkpt lat="47.627594" lon="1.9454784">
        <ele>182.0</ele>
        <time>2022-04-14T08:36:23Z</time>
      </trkpt>
      <trkpt lat="47.627583" lon="1.9454811">
        <ele>183.0</ele>
        <time>2022-04-14T08:36:24Z</time>
      </trkpt>
      <trkpt lat="47.627567" lon="1.9454823">
        <ele>183.0</ele>
        <time>2022-04-14T08:36:25Z</time>
      </trkpt>
      <trkpt lat="47.627556" lon="1.9454863">
        <ele>183.0</ele>
        <time>2022-04-14T08:36:26Z</time>
      </trkpt>
      <trkpt lat="47.62754" lon="1.9454867">
        <ele>183.0</ele>
        <time>2022-04-14T08:36:27Z</time>
      </trkpt>
      <trkpt lat="47.627525" lon="1.9454893">
        <ele>184.0</ele>
        <time>2022-04-14T08:36:28Z</time>
      </trkpt>
      <trkpt lat="47.627514" lon="1.9454896">
        <ele>184.0</ele>
        <time>2022-04-14T08:36:29Z</time>
      </trkpt>
      <trkpt lat="47.627502" lon="1.9454876">
        <ele>184.0</ele>
        <time>2022-04-14T08:36:30Z</time>
      </trkpt>
      <trkpt lat="47.627495" lon="1.9454852">
        <ele>184.0</ele>
        <time>2022-04-14T08:36:31Z</time>
      </trkpt>
      <trkpt lat="47.627487" lon="1.9454867">
        <ele>184.0</ele>
        <time>2022-04-14T08:36:32Z</time>
      </trkpt>
      <trkpt lat="47.62748" lon="1.9454852">
        <ele>184.0</ele>
        <time>2022-04-14T08:36:33Z</time>
      </trkpt>
      <trkpt lat="47.62747" lon="1.94548">
        <ele>183.0</ele>
        <time>2022-04-14T08:36:34Z</time>
      </trkpt>
      <trkpt lat="47.627453" lon="1.945482">
        <ele>184.0</ele>
        <time>2022-04-14T08:36:35Z</time>
      </trkpt>
      <trkpt lat="47.627438" lon="1.9454814">
        <ele>184.0</ele>
        <time>2022-04-14T08:36:36Z</time>
      </trkpt>
      <trkpt lat="47.627422" lon="1.9454821">
        <ele>184.0</ele>
        <time>2022-04-14T08:36:37Z</time>
      </trkpt>
      <trkpt lat="47.62741" lon="1.945482">
        <ele>184.0</ele>
        <time>2022-04-14T08:36:38Z</time>
      </trkpt>
      <trkpt lat="47.6274" lon="1.9454808">
        <ele>184.0</ele>
        <time>2022-04-14T08:36:39Z</time>
      </trkpt>
      <trkpt lat="47.627388" lon="1.945476">
        <ele>184.0</ele>
        <time>2022-04-14T08:36:40Z</time>
      </trkpt>
      <trkpt lat="47.627373" lon="1.9454756">
        <ele>184.0</ele>
        <time>2022-04-14T08:36:41Z</time>
      </trkpt>
      <trkpt lat="47.627357" lon="1.9454752">
        <ele>184.0</ele>
        <time>2022-04-14T08:36:42Z</time>
      </trkpt>
      <trkpt lat="47.627346" lon="1.9454722">
        <ele>184.0</ele>
        <time>2022-04-14T08:36:43Z</time>
      </trkpt>
      <trkpt lat="47.62733" lon="1.9454676">
        <ele>185.0</ele>
        <time>2022-04-14T08:36:44Z</time>
      </trkpt>
      <trkpt lat="47.62732" lon="1.945466">
        <ele>185.0</ele>
        <time>2022-04-14T08:36:45Z</time>
      </trkpt>
      <trkpt lat="47.627308" lon="1.9454695">
        <ele>186.0</ele>
        <time>2022-04-14T08:36:46Z</time>
      </trkpt>
      <trkpt lat="47.627296" lon="1.9454682">
        <ele>186.0</ele>
        <time>2022-04-14T08:36:47Z</time>
      </trkpt>
      <trkpt lat="47.62728" lon="1.9454646">
        <ele>186.0</ele>
        <time>2022-04-14T08:36:48Z</time>
      </trkpt>
      <trkpt lat="47.62727" lon="1.945458">
        <ele>186.0</ele>
        <time>2022-04-14T08:36:49Z</time>
      </trkpt>
      <trkpt lat="47.627254" lon="1.9454528">
        <ele>186.0</ele>
        <time>2022-04-14T08:36:50Z</time>
      </trkpt>
      <trkpt lat="47.627243" lon="1.9454498">
        <ele>187.0</ele>
        <time>2022-04-14T08:36:51Z</time>
      </trkpt>
      <trkpt lat="47.62723" lon="1.9454489">
        <ele>187.0</ele>
        <time>2022-04-14T08:36:52Z</time>
      </trkpt>
      <trkpt lat="47.62722" lon="1.9454484">
        <ele>186.0</ele>
        <time>2022-04-14T08:36:53Z</time>
      </trkpt>
      <trkpt lat="47.627216" lon="1.9454483">
        <ele>186.0</ele>
        <time>2022-04-14T08:36:54Z</time>
      </trkpt>
      <trkpt lat="47.627213" lon="1.9454455">
        <ele>186.0</ele>
        <time>2022-04-14T08:36:55Z</time>
      </trkpt>
      <trkpt lat="47.627205" lon="1.9454467">
        <ele>186.0</ele>
        <time>2022-04-14T08:36:56Z</time>
      </trkpt>
      <trkpt lat="47.627205" lon="1.9454467">
        <ele>186.0</ele>
        <time>2022-04-14T08:36:57Z</time>
      </trkpt>
      <trkpt lat="47.62719" lon="1.945439">
        <ele>186.0</ele>
        <time>2022-04-14T08:36:58Z</time>
      </trkpt>
      <trkpt lat="47.627182" lon="1.9454346">
        <ele>186.0</ele>
        <time>2022-04-14T08:36:59Z</time>
      </trkpt>
      <trkpt lat="47.627167" lon="1.9454288">
        <ele>186.0</ele>
        <time>2022-04-14T08:37:00Z</time>
      </trkpt>
      <trkpt lat="47.627155" lon="1.9454265">
        <ele>186.0</ele>
        <time>2022-04-14T08:37:01Z</time>
      </trkpt>
      <trkpt lat="47.62714" lon="1.9454201">
        <ele>185.0</ele>
        <time>2022-04-14T08:37:02Z</time>
      </trkpt>
      <trkpt lat="47.62713" lon="1.945416">
        <ele>185.0</ele>
        <time>2022-04-14T08:37:03Z</time>
      </trkpt>
      <trkpt lat="47.627117" lon="1.9454131">
        <ele>185.0</ele>
        <time>2022-04-14T08:37:04Z</time>
      </trkpt>
      <trkpt lat="47.62711" lon="1.9454049">
        <ele>186.0</ele>
        <time>2022-04-14T08:37:05Z</time>
      </trkpt>
      <trkpt lat="47.627094" lon="1.9453995">
        <ele>185.0</ele>
        <time>2022-04-14T08:37:06Z</time>
      </trkpt>
      <trkpt lat="47.627083" lon="1.9453993">
        <ele>185.0</ele>
        <time>2022-04-14T08:37:07Z</time>
      </trkpt>
      <trkpt lat="47.627068" lon="1.9453974">
        <ele>186.0</ele>
        <time>2022-04-14T08:37:08Z</time>
      </trkpt>
      <trkpt lat="47.62706" lon="1.9453927">
        <ele>186.0</ele>
        <time>2022-04-14T08:37:09Z</time>
      </trkpt>
      <trkpt lat="47.62705" lon="1.9453877">
        <ele>185.0</ele>
        <time>2022-04-14T08:37:10Z</time>
      </trkpt>
      <trkpt lat="47.627033" lon="1.9453843">
        <ele>185.0</ele>
        <time>2022-04-14T08:37:11Z</time>
      </trkpt>
      <trkpt lat="47.62702" lon="1.945383">
        <ele>186.0</ele>
        <time>2022-04-14T08:37:12Z</time>
      </trkpt>
      <trkpt lat="47.62701" lon="1.9453808">
        <ele>186.0</ele>
        <time>2022-04-14T08:37:13Z</time>
      </trkpt>
      <trkpt lat="47.626995" lon="1.945377">
        <ele>186.0</ele>
        <time>2022-04-14T08:37:14Z</time>
      </trkpt>
      <trkpt lat="47.626984" lon="1.9453741">
        <ele>186.0</ele>
        <time>2022-04-14T08:37:15Z</time>
      </trkpt>
      <trkpt lat="47.626972" lon="1.9453738">
        <ele>185.0</ele>
        <time>2022-04-14T08:37:16Z</time>
      </trkpt>
      <trkpt lat="47.626965" lon="1.9453744">
        <ele>185.0</ele>
        <time>2022-04-14T08:37:17Z</time>
      </trkpt>
      <trkpt lat="47.626953" lon="1.945372">
        <ele>185.0</ele>
        <time>2022-04-14T08:37:18Z</time>
      </trkpt>
      <trkpt lat="47.62694" lon="1.945371">
        <ele>185.0</ele>
        <time>2022-04-14T08:37:19Z</time>
      </trkpt>
      <trkpt lat="47.62693" lon="1.945368">
        <ele>185.0</ele>
        <time>2022-04-14T08:37:20Z</time>
      </trkpt>
      <trkpt lat="47.626923" lon="1.9453684">
        <ele>184.0</ele>
        <time>2022-04-14T08:37:21Z</time>
      </trkpt>
      <trkpt lat="47.626904" lon="1.9453746">
        <ele>184.0</ele>
        <time>2022-04-14T08:37:22Z</time>
      </trkpt>
      <trkpt lat="47.626892" lon="1.9453717">
        <ele>185.0</ele>
        <time>2022-04-14T08:37:23Z</time>
      </trkpt>
      <trkpt lat="47.626884" lon="1.9453743">
        <ele>185.0</ele>
        <time>2022-04-14T08:37:24Z</time>
      </trkpt>
      <trkpt lat="47.626873" lon="1.9453768">
        <ele>185.0</ele>
        <time>2022-04-14T08:37:25Z</time>
      </trkpt>
      <trkpt lat="47.62687" lon="1.9453763">
        <ele>185.0</ele>
        <time>2022-04-14T08:37:26Z</time>
      </trkpt>
      <trkpt lat="47.62686" lon="1.9453733">
        <ele>185.0</ele>
        <time>2022-04-14T08:37:27Z</time>
      </trkpt>
      <trkpt lat="47.62685" lon="1.9453683">
        <ele>184.0</ele>
        <time>2022-04-14T08:37:28Z</time>
      </trkpt>
      <trkpt lat="47.62684" lon="1.9453701">
        <ele>184.0</ele>
        <time>2022-04-14T08:37:29Z</time>
      </trkpt>
      <trkpt lat="47.626827" lon="1.945372">
        <ele>184.0</ele>
        <time>2022-04-14T08:37:30Z</time>
      </trkpt>
      <trkpt lat="47.626816" lon="1.9453704">
        <ele>184.0</ele>
        <time>2022-04-14T08:37:31Z</time>
      </trkpt>
      <trkpt lat="47.62681" lon="1.9453688">
        <ele>184.0</ele>
        <time>2022-04-14T08:37:32Z</time>
      </trkpt>
      <trkpt lat="47.626797" lon="1.9453704">
        <ele>184.0</ele>
        <time>2022-04-14T08:37:33Z</time>
      </trkpt>
      <trkpt lat="47.62679" lon="1.9453768">
        <ele>184.0</ele>
        <time>2022-04-14T08:37:34Z</time>
      </trkpt>
      <trkpt lat="47.626774" lon="1.9453783">
        <ele>184.0</ele>
        <time>2022-04-14T08:37:35Z</time>
      </trkpt>
      <trkpt lat="47.626762" lon="1.9453793">
        <ele>184.0</ele>
        <time>2022-04-14T08:37:36Z</time>
      </trkpt>
      <trkpt lat="47.626755" lon="1.9453789">
        <ele>184.0</ele>
        <time>2022-04-14T08:37:37Z</time>
      </trkpt>
      <trkpt lat="47.626743" lon="1.9453801">
        <ele>184.0</ele>
        <time>2022-04-14T08:37:38Z</time>
      </trkpt>
      <trkpt lat="47.626736" lon="1.9453814">
        <ele>184.0</ele>
        <time>2022-04-14T08:37:39Z</time>
      </trkpt>
      <trkpt lat="47.626728" lon="1.9453834">
        <ele>183.0</ele>
        <time>2022-04-14T08:37:40Z</time>
      </trkpt>
      <trkpt lat="47.626713" lon="1.9453878">
        <ele>184.0</ele>
        <time>2022-04-14T08:37:41Z</time>
      </trkpt>
      <trkpt lat="47.6267" lon="1.9453909">
        <ele>184.0</ele>
        <time>2022-04-14T08:37:42Z</time>
      </trkpt>
      <trkpt lat="47.62669" lon="1.9453981">
        <ele>184.0</ele>
        <time>2022-04-14T08:37:43Z</time>
      </trkpt>
      <trkpt lat="47.626682" lon="1.945397">
        <ele>184.0</ele>
        <time>2022-04-14T08:37:44Z</time>
      </trkpt>
      <trkpt lat="47.62667" lon="1.9453967">
        <ele>183.0</ele>
        <time>2022-04-14T08:37:45Z</time>
      </trkpt>
      <trkpt lat="47.626663" lon="1.9454008">
        <ele>183.0</ele>
        <time>2022-04-14T08:37:46Z</time>
      </trkpt>
      <trkpt lat="47.62665" lon="1.945401">
        <ele>183.0</ele>
        <time>2022-04-14T08:37:47Z</time>
      </trkpt>
      <trkpt lat="47.62664" lon="1.9454043">
        <ele>182.0</ele>
        <time>2022-04-14T08:37:48Z</time>
      </trkpt>
      <trkpt lat="47.626633" lon="1.9454057">
        <ele>182.0</ele>
        <time>2022-04-14T08:37:49Z</time>
      </trkpt>
      <trkpt lat="47.626617" lon="1.945412">
        <ele>182.0</ele>
        <time>2022-04-14T08:37:50Z</time>
      </trkpt>
      <trkpt lat="47.626606" lon="1.9454156">
        <ele>182.0</ele>
        <time>2022-04-14T08:37:51Z</time>
      </trkpt>
      <trkpt lat="47.626595" lon="1.9454169">
        <ele>182.0</ele>
        <time>2022-04-14T08:37:52Z</time>
      </trkpt>
      <trkpt lat="47.626583" lon="1.9454172">
        <ele>182.0</ele>
        <time>2022-04-14T08:37:53Z</time>
      </trkpt>
      <trkpt lat="47.62658" lon="1.9454198">
        <ele>182.0</ele>
        <time>2022-04-14T08:37:54Z</time>
      </trkpt>
      <trkpt lat="47.62657" lon="1.9454207">
        <ele>181.0</ele>
        <time>2022-04-14T08:37:55Z</time>
      </trkpt>
      <trkpt lat="47.626556" lon="1.9454232">
        <ele>182.0</ele>
        <time>2022-04-14T08:37:56Z</time>
      </trkpt>
      <trkpt lat="47.62654" lon="1.9454275">
        <ele>181.0</ele>
        <time>2022-04-14T08:37:57Z</time>
      </trkpt>
      <trkpt lat="47.626526" lon="1.9454303">
        <ele>181.0</ele>
        <time>2022-04-14T08:37:58Z</time>
      </trkpt>
      <trkpt lat="47.62651" lon="1.9454353">
        <ele>182.0</ele>
        <time>2022-04-14T08:37:59Z</time>
      </trkpt>
      <trkpt lat="47.626495" lon="1.9454367">
        <ele>182.0</ele>
        <time>2022-04-14T08:38:00Z</time>
      </trkpt>
      <trkpt lat="47.626484" lon="1.9454415">
        <ele>182.0</ele>
        <time>2022-04-14T08:38:01Z</time>
      </trkpt>
      <trkpt lat="47.626472" lon="1.9454461">
        <ele>182.0</ele>
        <time>2022-04-14T08:38:02Z</time>
      </trkpt>
      <trkpt lat="47.626457" lon="1.9454489">
        <ele>182.0</ele>
        <time>2022-04-14T08:38:03Z</time>
      </trkpt>
      <trkpt lat="47.626442" lon="1.9454509">
        <ele>182.0</ele>
        <time>2022-04-14T08:38:04Z</time>
      </trkpt>
      <trkpt lat="47.62643" lon="1.9454563">
        <ele>182.0</ele>
        <time>2022-04-14T08:38:05Z</time>
      </trkpt>
      <trkpt lat="47.626415" lon="1.9454601">
        <ele>182.0</ele>
        <time>2022-04-14T08:38:06Z</time>
      </trkpt>
      <trkpt lat="47.6264" lon="1.9454631">
        <ele>182.0</ele>
        <time>2022-04-14T08:38:07Z</time>
      </trkpt>
      <trkpt lat="47.62639" lon="1.9454672">
        <ele>183.0</ele>
        <time>2022-04-14T08:38:08Z</time>
      </trkpt>
      <trkpt lat="47.626373" lon="1.9454666">
        <ele>183.0</ele>
        <time>2022-04-14T08:38:09Z</time>
      </trkpt>
      <trkpt lat="47.62636" lon="1.9454635">
        <ele>183.0</ele>
        <time>2022-04-14T08:38:10Z</time>
      </trkpt>
      <trkpt lat="47.626347" lon="1.9454618">
        <ele>182.0</ele>
        <time>2022-04-14T08:38:11Z</time>
      </trkpt>
      <trkpt lat="47.626335" lon="1.9454553">
        <ele>183.0</ele>
        <time>2022-04-14T08:38:12Z</time>
      </trkpt>
      <trkpt lat="47.62632" lon="1.9454498">
        <ele>183.0</ele>
        <time>2022-04-14T08:38:13Z</time>
      </trkpt>
      <trkpt lat="47.626312" lon="1.9454416">
        <ele>183.0</ele>
        <time>2022-04-14T08:38:14Z</time>
      </trkpt>
      <trkpt lat="47.6263" lon="1.9454343">
        <ele>183.0</ele>
        <time>2022-04-14T08:38:15Z</time>
      </trkpt>
      <trkpt lat="47.626286" lon="1.9454308">
        <ele>183.0</ele>
        <time>2022-04-14T08:38:16Z</time>
      </trkpt>
      <trkpt lat="47.626274" lon="1.9454248">
        <ele>182.0</ele>
        <time>2022-04-14T08:38:17Z</time>
      </trkpt>
      <trkpt lat="47.626263" lon="1.9454162">
        <ele>182.0</ele>
        <time>2022-04-14T08:38:18Z</time>
      </trkpt>
      <trkpt lat="47.626255" lon="1.9454073">
        <ele>181.0</ele>
        <time>2022-04-14T08:38:19Z</time>
      </trkpt>
      <trkpt lat="47.626247" lon="1.9454004">
        <ele>181.0</ele>
        <time>2022-04-14T08:38:20Z</time>
      </trkpt>
      <trkpt lat="47.626236" lon="1.9453936">
        <ele>181.0</ele>
        <time>2022-04-14T08:38:21Z</time>
      </trkpt>
      <trkpt lat="47.626225" lon="1.9453828">
        <ele>180.0</ele>
        <time>2022-04-14T08:38:22Z</time>
      </trkpt>
      <trkpt lat="47.626217" lon="1.9453714">
        <ele>180.0</ele>
        <time>2022-04-14T08:38:23Z</time>
      </trkpt>
      <trkpt lat="47.626205" lon="1.9453605">
        <ele>180.0</ele>
        <time>2022-04-14T08:38:24Z</time>
      </trkpt>
      <trkpt lat="47.626198" lon="1.9453504">
        <ele>180.0</ele>
        <time>2022-04-14T08:38:25Z</time>
      </trkpt>
      <trkpt lat="47.626186" lon="1.9453439">
        <ele>180.0</ele>
        <time>2022-04-14T08:38:26Z</time>
      </trkpt>
      <trkpt lat="47.62618" lon="1.9453344">
        <ele>180.0</ele>
        <time>2022-04-14T08:38:27Z</time>
      </trkpt>
      <trkpt lat="47.62617" lon="1.9453229">
        <ele>179.0</ele>
        <time>2022-04-14T08:38:28Z</time>
      </trkpt>
      <trkpt lat="47.626163" lon="1.9453083">
        <ele>179.0</ele>
        <time>2022-04-14T08:38:29Z</time>
      </trkpt>
      <trkpt lat="47.626156" lon="1.9452989">
        <ele>179.0</ele>
        <time>2022-04-14T08:38:30Z</time>
      </trkpt>
      <trkpt lat="47.62614" lon="1.9452835">
        <ele>179.0</ele>
        <time>2022-04-14T08:38:31Z</time>
      </trkpt>
      <trkpt lat="47.626133" lon="1.9452739">
        <ele>179.0</ele>
        <time>2022-04-14T08:38:32Z</time>
      </trkpt>
      <trkpt lat="47.626125" lon="1.9452637">
        <ele>179.0</ele>
        <time>2022-04-14T08:38:33Z</time>
      </trkpt>
      <trkpt lat="47.626118" lon="1.945256">
        <ele>179.0</ele>
        <time>2022-04-14T08:38:34Z</time>
      </trkpt>
      <trkpt lat="47.626106" lon="1.9452431">
        <ele>179.0</ele>
        <time>2022-04-14T08:38:35Z</time>
      </trkpt>
      <trkpt lat="47.6261" lon="1.9452322">
        <ele>179.0</ele>
        <time>2022-04-14T08:38:36Z</time>
      </trkpt>
      <trkpt lat="47.626087" lon="1.9452175">
        <ele>179.0</ele>
        <time>2022-04-14T08:38:37Z</time>
      </trkpt>
      <trkpt lat="47.626076" lon="1.9452068">
        <ele>178.0</ele>
        <time>2022-04-14T08:38:38Z</time>
      </trkpt>
      <trkpt lat="47.626064" lon="1.9451878">
        <ele>178.0</ele>
        <time>2022-04-14T08:38:39Z</time>
      </trkpt>
      <trkpt lat="47.626053" lon="1.9451752">
        <ele>178.0</ele>
        <time>2022-04-14T08:38:40Z</time>
      </trkpt>
      <trkpt lat="47.626045" lon="1.9451616">
        <ele>178.0</ele>
        <time>2022-04-14T08:38:41Z</time>
      </trkpt>
      <trkpt lat="47.626034" lon="1.945154">
        <ele>177.0</ele>
        <time>2022-04-14T08:38:42Z</time>
      </trkpt>
      <trkpt lat="47.626026" lon="1.9451467">
        <ele>177.0</ele>
        <time>2022-04-14T08:38:43Z</time>
      </trkpt>
      <trkpt lat="47.626015" lon="1.9451369">
        <ele>177.0</ele>
        <time>2022-04-14T08:38:44Z</time>
      </trkpt>
      <trkpt lat="47.626003" lon="1.9451239">
        <ele>177.0</ele>
        <time>2022-04-14T08:38:45Z</time>
      </trkpt>
      <trkpt lat="47.625996" lon="1.9451158">
        <ele>178.0</ele>
        <time>2022-04-14T08:38:46Z</time>
      </trkpt>
      <trkpt lat="47.62598" lon="1.945104">
        <ele>178.0</ele>
        <time>2022-04-14T08:38:47Z</time>
      </trkpt>
      <trkpt lat="47.62597" lon="1.9450924">
        <ele>178.0</ele>
        <time>2022-04-14T08:38:48Z</time>
      </trkpt>
      <trkpt lat="47.625957" lon="1.9450829">
        <ele>178.0</ele>
        <time>2022-04-14T08:38:49Z</time>
      </trkpt>
      <trkpt lat="47.62595" lon="1.9450687">
        <ele>178.0</ele>
        <time>2022-04-14T08:38:50Z</time>
      </trkpt>
      <trkpt lat="47.625942" lon="1.9450576">
        <ele>178.0</ele>
        <time>2022-04-14T08:38:51Z</time>
      </trkpt>
      <trkpt lat="47.625935" lon="1.9450493">
        <ele>177.0</ele>
        <time>2022-04-14T08:38:52Z</time>
      </trkpt>
      <trkpt lat="47.625923" lon="1.9450285">
        <ele>178.0</ele>
        <time>2022-04-14T08:38:53Z</time>
      </trkpt>
      <trkpt lat="47.625916" lon="1.9450196">
        <ele>178.0</ele>
        <time>2022-04-14T08:38:54Z</time>
      </trkpt>
      <trkpt lat="47.625908" lon="1.9450097">
        <ele>177.0</ele>
        <time>2022-04-14T08:38:55Z</time>
      </trkpt>
      <trkpt lat="47.6259" lon="1.9450032">
        <ele>177.0</ele>
        <time>2022-04-14T08:38:56Z</time>
      </trkpt>
      <trkpt lat="47.625893" lon="1.944993">
        <ele>176.0</ele>
        <time>2022-04-14T08:38:57Z</time>
      </trkpt>
      <trkpt lat="47.625885" lon="1.9449848">
        <ele>176.0</ele>
        <time>2022-04-14T08:38:58Z</time>
      </trkpt>
      <trkpt lat="47.625874" lon="1.9449749">
        <ele>176.0</ele>
        <time>2022-04-14T08:38:59Z</time>
      </trkpt>
      <trkpt lat="47.625874" lon="1.9449686">
        <ele>175.0</ele>
        <time>2022-04-14T08:39:00Z</time>
      </trkpt>
      <trkpt lat="47.625866" lon="1.9449567">
        <ele>175.0</ele>
        <time>2022-04-14T08:39:01Z</time>
      </trkpt>
      <trkpt lat="47.62586" lon="1.944947">
        <ele>176.0</ele>
        <time>2022-04-14T08:39:02Z</time>
      </trkpt>
      <trkpt lat="47.62585" lon="1.9449291">
        <ele>176.0</ele>
        <time>2022-04-14T08:39:03Z</time>
      </trkpt>
      <trkpt lat="47.625843" lon="1.9449158">
        <ele>176.0</ele>
        <time>2022-04-14T08:39:04Z</time>
      </trkpt>
      <trkpt lat="47.62584" lon="1.9449005">
        <ele>176.0</ele>
        <time>2022-04-14T08:39:05Z</time>
      </trkpt>
      <trkpt lat="47.62584" lon="1.9448844">
        <ele>177.0</ele>
        <time>2022-04-14T08:39:06Z</time>
      </trkpt>
      <trkpt lat="47.62583" lon="1.9448678">
        <ele>177.0</ele>
        <time>2022-04-14T08:39:07Z</time>
      </trkpt>
      <trkpt lat="47.625824" lon="1.9448532">
        <ele>177.0</ele>
        <time>2022-04-14T08:39:08Z</time>
      </trkpt>
      <trkpt lat="47.625813" lon="1.94484">
        <ele>178.0</ele>
        <time>2022-04-14T08:39:09Z</time>
      </trkpt>
      <trkpt lat="47.6258" lon="1.9448202">
        <ele>178.0</ele>
        <time>2022-04-14T08:39:10Z</time>
      </trkpt>
      <trkpt lat="47.625797" lon="1.9448059">
        <ele>179.0</ele>
        <time>2022-04-14T08:39:11Z</time>
      </trkpt>
      <trkpt lat="47.62579" lon="1.9447974">
        <ele>180.0</ele>
        <time>2022-04-14T08:39:12Z</time>
      </trkpt>
      <trkpt lat="47.625786" lon="1.9447843">
        <ele>180.0</ele>
        <time>2022-04-14T08:39:13Z</time>
      </trkpt>
      <trkpt lat="47.625774" lon="1.944766">
        <ele>180.0</ele>
        <time>2022-04-14T08:39:14Z</time>
      </trkpt>
      <trkpt lat="47.625763" lon="1.9447527">
        <ele>180.0</ele>
        <time>2022-04-14T08:39:15Z</time>
      </trkpt>
      <trkpt lat="47.625755" lon="1.944746">
        <ele>181.0</ele>
        <time>2022-04-14T08:39:16Z</time>
      </trkpt>
      <trkpt lat="47.62575" lon="1.9447324">
        <ele>181.0</ele>
        <time>2022-04-14T08:39:17Z</time>
      </trkpt>
      <trkpt lat="47.625748" lon="1.9447254">
        <ele>182.0</ele>
        <time>2022-04-14T08:39:18Z</time>
      </trkpt>
      <trkpt lat="47.625736" lon="1.9447228">
        <ele>182.0</ele>
        <time>2022-04-14T08:39:19Z</time>
      </trkpt>
      <trkpt lat="47.62573" lon="1.9447145">
        <ele>182.0</ele>
        <time>2022-04-14T08:39:20Z</time>
      </trkpt>
      <trkpt lat="47.62572" lon="1.9447057">
        <ele>182.0</ele>
        <time>2022-04-14T08:39:21Z</time>
      </trkpt>
      <trkpt lat="47.625713" lon="1.9446872">
        <ele>182.0</ele>
        <time>2022-04-14T08:39:22Z</time>
      </trkpt>
      <trkpt lat="47.62571" lon="1.9446709">
        <ele>182.0</ele>
        <time>2022-04-14T08:39:23Z</time>
      </trkpt>
      <trkpt lat="47.6257" lon="1.9446584">
        <ele>182.0</ele>
        <time>2022-04-14T08:39:24Z</time>
      </trkpt>
      <trkpt lat="47.62569" lon="1.9446481">
        <ele>182.0</ele>
        <time>2022-04-14T08:39:25Z</time>
      </trkpt>
      <trkpt lat="47.62568" lon="1.9446398">
        <ele>182.0</ele>
        <time>2022-04-14T08:39:26Z</time>
      </trkpt>
      <trkpt lat="47.625675" lon="1.9446294">
        <ele>182.0</ele>
        <time>2022-04-14T08:39:27Z</time>
      </trkpt>
      <trkpt lat="47.625668" lon="1.9446206">
        <ele>182.0</ele>
        <time>2022-04-14T08:39:28Z</time>
      </trkpt>
      <trkpt lat="47.62566" lon="1.9446113">
        <ele>183.0</ele>
        <time>2022-04-14T08:39:29Z</time>
      </trkpt>
      <trkpt lat="47.625652" lon="1.9446031">
        <ele>182.0</ele>
        <time>2022-04-14T08:39:30Z</time>
      </trkpt>
      <trkpt lat="47.625645" lon="1.9445878">
        <ele>183.0</ele>
        <time>2022-04-14T08:39:31Z</time>
      </trkpt>
      <trkpt lat="47.625633" lon="1.9445771">
        <ele>182.0</ele>
        <time>2022-04-14T08:39:32Z</time>
      </trkpt>
      <trkpt lat="47.625618" lon="1.9445661">
        <ele>182.0</ele>
        <time>2022-04-14T08:39:33Z</time>
      </trkpt>
      <trkpt lat="47.62561" lon="1.9445596">
        <ele>183.0</ele>
        <time>2022-04-14T08:39:34Z</time>
      </trkpt>
      <trkpt lat="47.625603" lon="1.9445542">
        <ele>183.0</ele>
        <time>2022-04-14T08:39:35Z</time>
      </trkpt>
      <trkpt lat="47.625595" lon="1.9445403">
        <ele>184.0</ele>
        <time>2022-04-14T08:39:36Z</time>
      </trkpt>
      <trkpt lat="47.625587" lon="1.9445319">
        <ele>184.0</ele>
        <time>2022-04-14T08:39:37Z</time>
      </trkpt>
      <trkpt lat="47.62558" lon="1.9445215">
        <ele>184.0</ele>
        <time>2022-04-14T08:39:38Z</time>
      </trkpt>
      <trkpt lat="47.625572" lon="1.94451">
        <ele>184.0</ele>
        <time>2022-04-14T08:39:39Z</time>
      </trkpt>
      <trkpt lat="47.625565" lon="1.9445043">
        <ele>184.0</ele>
        <time>2022-04-14T08:39:40Z</time>
      </trkpt>
      <trkpt lat="47.625553" lon="1.9444953">
        <ele>184.0</ele>
        <time>2022-04-14T08:39:41Z</time>
      </trkpt>
      <trkpt lat="47.625546" lon="1.9444827">
        <ele>184.0</ele>
        <time>2022-04-14T08:39:42Z</time>
      </trkpt>
      <trkpt lat="47.625534" lon="1.9444697">
        <ele>184.0</ele>
        <time>2022-04-14T08:39:43Z</time>
      </trkpt>
      <trkpt lat="47.625526" lon="1.9444528">
        <ele>184.0</ele>
        <time>2022-04-14T08:39:44Z</time>
      </trkpt>
      <trkpt lat="47.62552" lon="1.9444424">
        <ele>184.0</ele>
        <time>2022-04-14T08:39:45Z</time>
      </trkpt>
      <trkpt lat="47.62551" lon="1.9444335">
        <ele>184.0</ele>
        <time>2022-04-14T08:39:46Z</time>
      </trkpt>
      <trkpt lat="47.625507" lon="1.9444214">
        <ele>184.0</ele>
        <time>2022-04-14T08:39:47Z</time>
      </trkpt>
      <trkpt lat="47.625496" lon="1.9444065">
        <ele>184.0</ele>
        <time>2022-04-14T08:39:48Z</time>
      </trkpt>
      <trkpt lat="47.62548" lon="1.9443967">
        <ele>185.0</ele>
        <time>2022-04-14T08:39:49Z</time>
      </trkpt>
      <trkpt lat="47.62547" lon="1.944387">
        <ele>184.0</ele>
        <time>2022-04-14T08:39:50Z</time>
      </trkpt>
      <trkpt lat="47.62546" lon="1.944376">
        <ele>184.0</ele>
        <time>2022-04-14T08:39:51Z</time>
      </trkpt>
      <trkpt lat="47.625454" lon="1.9443649">
        <ele>183.0</ele>
        <time>2022-04-14T08:39:52Z</time>
      </trkpt>
      <trkpt lat="47.625443" lon="1.9443567">
        <ele>183.0</ele>
        <time>2022-04-14T08:39:53Z</time>
      </trkpt>
      <trkpt lat="47.625435" lon="1.9443505">
        <ele>183.0</ele>
        <time>2022-04-14T08:39:54Z</time>
      </trkpt>
      <trkpt lat="47.625427" lon="1.94434">
        <ele>183.0</ele>
        <time>2022-04-14T08:39:55Z</time>
      </trkpt>
      <trkpt lat="47.625423" lon="1.9443383">
        <ele>183.0</ele>
        <time>2022-04-14T08:39:56Z</time>
      </trkpt>
      <trkpt lat="47.625412" lon="1.9443331">
        <ele>183.0</ele>
        <time>2022-04-14T08:39:57Z</time>
      </trkpt>
      <trkpt lat="47.62541" lon="1.9443265">
        <ele>182.0</ele>
        <time>2022-04-14T08:39:58Z</time>
      </trkpt>
      <trkpt lat="47.62541" lon="1.9443234">
        <ele>182.0</ele>
        <time>2022-04-14T08:39:59Z</time>
      </trkpt>
      <trkpt lat="47.6254" lon="1.94432">
        <ele>181.0</ele>
        <time>2022-04-14T08:40:00Z</time>
      </trkpt>
      <trkpt lat="47.625393" lon="1.9443108">
        <ele>180.0</ele>
        <time>2022-04-14T08:40:01Z</time>
      </trkpt>
      <trkpt lat="47.625385" lon="1.9443008">
        <ele>180.0</ele>
        <time>2022-04-14T08:40:02Z</time>
      </trkpt>
      <trkpt lat="47.625378" lon="1.9442858">
        <ele>180.0</ele>
        <time>2022-04-14T08:40:03Z</time>
      </trkpt>
      <trkpt lat="47.625362" lon="1.9442705">
        <ele>180.0</ele>
        <time>2022-04-14T08:40:04Z</time>
      </trkpt>
      <trkpt lat="47.625355" lon="1.94425">
        <ele>180.0</ele>
        <time>2022-04-14T08:40:05Z</time>
      </trkpt>
      <trkpt lat="47.625347" lon="1.9442297">
        <ele>180.0</ele>
        <time>2022-04-14T08:40:06Z</time>
      </trkpt>
      <trkpt lat="47.62533" lon="1.944209">
        <ele>180.0</ele>
        <time>2022-04-14T08:40:07Z</time>
      </trkpt>
      <trkpt lat="47.625328" lon="1.944195">
        <ele>180.0</ele>
        <time>2022-04-14T08:40:08Z</time>
      </trkpt>
      <trkpt lat="47.62532" lon="1.9441869">
        <ele>180.0</ele>
        <time>2022-04-14T08:40:09Z</time>
      </trkpt>
      <trkpt lat="47.62531" lon="1.9441873">
        <ele>180.0</ele>
        <time>2022-04-14T08:40:10Z</time>
      </trkpt>
      <trkpt lat="47.6253" lon="1.9441777">
        <ele>180.0</ele>
        <time>2022-04-14T08:40:11Z</time>
      </trkpt>
      <trkpt lat="47.62529" lon="1.9441677">
        <ele>179.0</ele>
        <time>2022-04-14T08:40:12Z</time>
      </trkpt>
      <trkpt lat="47.625275" lon="1.9441539">
        <ele>179.0</ele>
        <time>2022-04-14T08:40:13Z</time>
      </trkpt>
      <trkpt lat="47.625267" lon="1.9441445">
        <ele>178.0</ele>
        <time>2022-04-14T08:40:14Z</time>
      </trkpt>
      <trkpt lat="47.625256" lon="1.9441304">
        <ele>178.0</ele>
        <time>2022-04-14T08:40:15Z</time>
      </trkpt>
      <trkpt lat="47.625244" lon="1.9441177">
        <ele>177.0</ele>
        <time>2022-04-14T08:40:16Z</time>
      </trkpt>
      <trkpt lat="47.62523" lon="1.9441074">
        <ele>177.0</ele>
        <time>2022-04-14T08:40:17Z</time>
      </trkpt>
      <trkpt lat="47.62522" lon="1.9440997">
        <ele>176.0</ele>
        <time>2022-04-14T08:40:18Z</time>
      </trkpt>
      <trkpt lat="47.62521" lon="1.9440876">
        <ele>176.0</ele>
        <time>2022-04-14T08:40:19Z</time>
      </trkpt>
      <trkpt lat="47.625195" lon="1.9440819">
        <ele>176.0</ele>
        <time>2022-04-14T08:40:20Z</time>
      </trkpt>
      <trkpt lat="47.625183" lon="1.9440734">
        <ele>176.0</ele>
        <time>2022-04-14T08:40:21Z</time>
      </trkpt>
      <trkpt lat="47.625175" lon="1.9440638">
        <ele>175.0</ele>
        <time>2022-04-14T08:40:22Z</time>
      </trkpt>
      <trkpt lat="47.625164" lon="1.9440513">
        <ele>175.0</ele>
        <time>2022-04-14T08:40:23Z</time>
      </trkpt>
      <trkpt lat="47.625153" lon="1.9440404">
        <ele>175.0</ele>
        <time>2022-04-14T08:40:24Z</time>
      </trkpt>
      <trkpt lat="47.62514" lon="1.9440303">
        <ele>175.0</ele>
        <time>2022-04-14T08:40:25Z</time>
      </trkpt>
      <trkpt lat="47.625126" lon="1.9440186">
        <ele>175.0</ele>
        <time>2022-04-14T08:40:26Z</time>
      </trkpt>
      <trkpt lat="47.625114" lon="1.9440076">
        <ele>175.0</ele>
        <time>2022-04-14T08:40:27Z</time>
      </trkpt>
      <trkpt lat="47.625103" lon="1.9439943">
        <ele>174.0</ele>
        <time>2022-04-14T08:40:28Z</time>
      </trkpt>
      <trkpt lat="47.62509" lon="1.9439784">
        <ele>174.0</ele>
        <time>2022-04-14T08:40:29Z</time>
      </trkpt>
      <trkpt lat="47.62508" lon="1.9439608">
        <ele>174.0</ele>
        <time>2022-04-14T08:40:30Z</time>
      </trkpt>
      <trkpt lat="47.625065" lon="1.9439472">
        <ele>174.0</ele>
        <time>2022-04-14T08:40:31Z</time>
      </trkpt>
      <trkpt lat="47.625053" lon="1.9439362">
        <ele>174.0</ele>
        <time>2022-04-14T08:40:32Z</time>
      </trkpt>
      <trkpt lat="47.625042" lon="1.9439243">
        <ele>174.0</ele>
        <time>2022-04-14T08:40:33Z</time>
      </trkpt>
      <trkpt lat="47.625027" lon="1.9439099">
        <ele>174.0</ele>
        <time>2022-04-14T08:40:34Z</time>
      </trkpt>
      <trkpt lat="47.625015" lon="1.943897">
        <ele>174.0</ele>
        <time>2022-04-14T08:40:35Z</time>
      </trkpt>
      <trkpt lat="47.625008" lon="1.9438863">
        <ele>174.0</ele>
        <time>2022-04-14T08:40:36Z</time>
      </trkpt>
      <trkpt lat="47.624992" lon="1.9438744">
        <ele>174.0</ele>
        <time>2022-04-14T08:40:37Z</time>
      </trkpt>
      <trkpt lat="47.624985" lon="1.9438603">
        <ele>174.0</ele>
        <time>2022-04-14T08:40:38Z</time>
      </trkpt>
      <trkpt lat="47.624973" lon="1.9438474">
        <ele>173.0</ele>
        <time>2022-04-14T08:40:39Z</time>
      </trkpt>
      <trkpt lat="47.624966" lon="1.9438362">
        <ele>173.0</ele>
        <time>2022-04-14T08:40:40Z</time>
      </trkpt>
      <trkpt lat="47.624958" lon="1.9438226">
        <ele>174.0</ele>
        <time>2022-04-14T08:40:41Z</time>
      </trkpt>
      <trkpt lat="47.62495" lon="1.94381">
        <ele>174.0</ele>
        <time>2022-04-14T08:40:42Z</time>
      </trkpt>
      <trkpt lat="47.624943" lon="1.9438024">
        <ele>174.0</ele>
        <time>2022-04-14T08:40:43Z</time>
      </trkpt>
      <trkpt lat="47.62493" lon="1.9437884">
        <ele>174.0</ele>
        <time>2022-04-14T08:40:44Z</time>
      </trkpt>
      <trkpt lat="47.62492" lon="1.9437786">
        <ele>174.0</ele>
        <time>2022-04-14T08:40:45Z</time>
      </trkpt>
      <trkpt lat="47.62491" lon="1.9437641">
        <ele>174.0</ele>
        <time>2022-04-14T08:40:46Z</time>
      </trkpt>
      <trkpt lat="47.624897" lon="1.9437509">
        <ele>174.0</ele>
        <time>2022-04-14T08:40:47Z</time>
      </trkpt>
      <trkpt lat="47.624886" lon="1.943737">
        <ele>174.0</ele>
        <time>2022-04-14T08:40:48Z</time>
      </trkpt>
      <trkpt lat="47.62488" lon="1.943721">
        <ele>174.0</ele>
        <time>2022-04-14T08:40:49Z</time>
      </trkpt>
      <trkpt lat="47.62487" lon="1.9437053">
        <ele>174.0</ele>
        <time>2022-04-14T08:40:50Z</time>
      </trkpt>
      <trkpt lat="47.62486" lon="1.9436936">
        <ele>174.0</ele>
        <time>2022-04-14T08:40:51Z</time>
      </trkpt>
      <trkpt lat="47.624855" lon="1.9436826">
        <ele>174.0</ele>
        <time>2022-04-14T08:40:52Z</time>
      </trkpt>
      <trkpt lat="47.624847" lon="1.9436753">
        <ele>174.0</ele>
        <time>2022-04-14T08:40:53Z</time>
      </trkpt>
      <trkpt lat="47.62484" lon="1.9436657">
        <ele>173.0</ele>
        <time>2022-04-14T08:40:54Z</time>
      </trkpt>
      <trkpt lat="47.624832" lon="1.9436542">
        <ele>174.0</ele>
        <time>2022-04-14T08:40:55Z</time>
      </trkpt>
      <trkpt lat="47.62483" lon="1.9436406">
        <ele>174.0</ele>
        <time>2022-04-14T08:40:56Z</time>
      </trkpt>
      <trkpt lat="47.624817" lon="1.943626">
        <ele>174.0</ele>
        <time>2022-04-14T08:40:57Z</time>
      </trkpt>
      <trkpt lat="47.624813" lon="1.9436144">
        <ele>174.0</ele>
        <time>2022-04-14T08:40:58Z</time>
      </trkpt>
      <trkpt lat="47.624805" lon="1.9436014">
        <ele>174.0</ele>
        <time>2022-04-14T08:40:59Z</time>
      </trkpt>
      <trkpt lat="47.624798" lon="1.943591">
        <ele>174.0</ele>
        <time>2022-04-14T08:41:00Z</time>
      </trkpt>
      <trkpt lat="47.624786" lon="1.9435823">
        <ele>174.0</ele>
        <time>2022-04-14T08:41:01Z</time>
      </trkpt>
      <trkpt lat="47.624775" lon="1.943575">
        <ele>174.0</ele>
        <time>2022-04-14T08:41:02Z</time>
      </trkpt>
      <trkpt lat="47.624767" lon="1.9435661">
        <ele>174.0</ele>
        <time>2022-04-14T08:41:03Z</time>
      </trkpt>
      <trkpt lat="47.62476" lon="1.9435554">
        <ele>174.0</ele>
        <time>2022-04-14T08:41:04Z</time>
      </trkpt>
      <trkpt lat="47.624752" lon="1.9435408">
        <ele>174.0</ele>
        <time>2022-04-14T08:41:05Z</time>
      </trkpt>
      <trkpt lat="47.624744" lon="1.9435292">
        <ele>174.0</ele>
        <time>2022-04-14T08:41:06Z</time>
      </trkpt>
      <trkpt lat="47.624737" lon="1.9435097">
        <ele>174.0</ele>
        <time>2022-04-14T08:41:07Z</time>
      </trkpt>
      <trkpt lat="47.62473" lon="1.9434961">
        <ele>174.0</ele>
        <time>2022-04-14T08:41:08Z</time>
      </trkpt>
      <trkpt lat="47.62473" lon="1.943477">
        <ele>175.0</ele>
        <time>2022-04-14T08:41:09Z</time>
      </trkpt>
      <trkpt lat="47.624725" lon="1.9434606">
        <ele>175.0</ele>
        <time>2022-04-14T08:41:10Z</time>
      </trkpt>
      <trkpt lat="47.62472" lon="1.9434376">
        <ele>175.0</ele>
        <time>2022-04-14T08:41:11Z</time>
      </trkpt>
      <trkpt lat="47.624718" lon="1.9434205">
        <ele>175.0</ele>
        <time>2022-04-14T08:41:12Z</time>
      </trkpt>
      <trkpt lat="47.62471" lon="1.9434091">
        <ele>175.0</ele>
        <time>2022-04-14T08:41:13Z</time>
      </trkpt>
      <trkpt lat="47.624706" lon="1.943396">
        <ele>175.0</ele>
        <time>2022-04-14T08:41:14Z</time>
      </trkpt>
      <trkpt lat="47.624702" lon="1.9433808">
        <ele>175.0</ele>
        <time>2022-04-14T08:41:15Z</time>
      </trkpt>
      <trkpt lat="47.6247" lon="1.9433602">
        <ele>176.0</ele>
        <time>2022-04-14T08:41:16Z</time>
      </trkpt>
      <trkpt lat="47.624695" lon="1.943336">
        <ele>176.0</ele>
        <time>2022-04-14T08:41:17Z</time>
      </trkpt>
      <trkpt lat="47.62469" lon="1.9433173">
        <ele>176.0</ele>
        <time>2022-04-14T08:41:18Z</time>
      </trkpt>
      <trkpt lat="47.62469" lon="1.9432952">
        <ele>176.0</ele>
        <time>2022-04-14T08:41:19Z</time>
      </trkpt>
      <trkpt lat="47.624683" lon="1.943272">
        <ele>176.0</ele>
        <time>2022-04-14T08:41:20Z</time>
      </trkpt>
      <trkpt lat="47.62468" lon="1.943251">
        <ele>176.0</ele>
        <time>2022-04-14T08:41:21Z</time>
      </trkpt>
      <trkpt lat="47.624676" lon="1.943229">
        <ele>175.0</ele>
        <time>2022-04-14T08:41:22Z</time>
      </trkpt>
      <trkpt lat="47.624672" lon="1.9432116">
        <ele>175.0</ele>
        <time>2022-04-14T08:41:23Z</time>
      </trkpt>
      <trkpt lat="47.624664" lon="1.9431939">
        <ele>175.0</ele>
        <time>2022-04-14T08:41:24Z</time>
      </trkpt>
      <trkpt lat="47.624657" lon="1.9431783">
        <ele>175.0</ele>
        <time>2022-04-14T08:41:25Z</time>
      </trkpt>
      <trkpt lat="47.624653" lon="1.9431639">
        <ele>175.0</ele>
        <time>2022-04-14T08:41:26Z</time>
      </trkpt>
      <trkpt lat="47.624653" lon="1.9431493">
        <ele>175.0</ele>
        <time>2022-04-14T08:41:27Z</time>
      </trkpt>
      <trkpt lat="47.62465" lon="1.9431343">
        <ele>175.0</ele>
        <time>2022-04-14T08:41:28Z</time>
      </trkpt>
      <trkpt lat="47.624645" lon="1.9431226">
        <ele>176.0</ele>
        <time>2022-04-14T08:41:29Z</time>
      </trkpt>
      <trkpt lat="47.62464" lon="1.9431064">
        <ele>176.0</ele>
        <time>2022-04-14T08:41:30Z</time>
      </trkpt>
      <trkpt lat="47.624638" lon="1.9430863">
        <ele>176.0</ele>
        <time>2022-04-14T08:41:31Z</time>
      </trkpt>
      <trkpt lat="47.624634" lon="1.9430693">
        <ele>176.0</ele>
        <time>2022-04-14T08:41:32Z</time>
      </trkpt>
      <trkpt lat="47.624634" lon="1.943055">
        <ele>176.0</ele>
        <time>2022-04-14T08:41:33Z</time>
      </trkpt>
      <trkpt lat="47.62463" lon="1.9430361">
        <ele>177.0</ele>
        <time>2022-04-14T08:41:34Z</time>
      </trkpt>
      <trkpt lat="47.624626" lon="1.9430208">
        <ele>177.0</ele>
        <time>2022-04-14T08:41:35Z</time>
      </trkpt>
      <trkpt lat="47.624622" lon="1.9430059">
        <ele>177.0</ele>
        <time>2022-04-14T08:41:36Z</time>
      </trkpt>
      <trkpt lat="47.624622" lon="1.9429865">
        <ele>177.0</ele>
        <time>2022-04-14T08:41:37Z</time>
      </trkpt>
      <trkpt lat="47.62462" lon="1.9429651">
        <ele>177.0</ele>
        <time>2022-04-14T08:41:38Z</time>
      </trkpt>
      <trkpt lat="47.624615" lon="1.9429486">
        <ele>177.0</ele>
        <time>2022-04-14T08:41:39Z</time>
      </trkpt>
      <trkpt lat="47.624607" lon="1.9429337">
        <ele>177.0</ele>
        <time>2022-04-14T08:41:40Z</time>
      </trkpt>
      <trkpt lat="47.6246" lon="1.942917">
        <ele>177.0</ele>
        <time>2022-04-14T08:41:41Z</time>
      </trkpt>
      <trkpt lat="47.6246" lon="1.942898">
        <ele>177.0</ele>
        <time>2022-04-14T08:41:42Z</time>
      </trkpt>
      <trkpt lat="47.6246" lon="1.9428859">
        <ele>177.0</ele>
        <time>2022-04-14T08:41:43Z</time>
      </trkpt>
      <trkpt lat="47.624596" lon="1.9428747">
        <ele>177.0</ele>
        <time>2022-04-14T08:41:44Z</time>
      </trkpt>
      <trkpt lat="47.62459" lon="1.942864">
        <ele>176.0</ele>
        <time>2022-04-14T08:41:45Z</time>
      </trkpt>
      <trkpt lat="47.624588" lon="1.9428513">
        <ele>177.0</ele>
        <time>2022-04-14T08:41:46Z</time>
      </trkpt>
      <trkpt lat="47.624588" lon="1.9428513">
        <ele>177.0</ele>
        <time>2022-04-14T08:41:47Z</time>
      </trkpt>
      <trkpt lat="47.624584" lon="1.9428314">
        <ele>176.0</ele>
        <time>2022-04-14T08:41:48Z</time>
      </trkpt>
      <trkpt lat="47.62458" lon="1.9428161">
        <ele>176.0</ele>
        <time>2022-04-14T08:41:49Z</time>
      </trkpt>
      <trkpt lat="47.624573" lon="1.9427996">
        <ele>176.0</ele>
        <time>2022-04-14T08:41:50Z</time>
      </trkpt>
      <trkpt lat="47.624573" lon="1.942784">
        <ele>176.0</ele>
        <time>2022-04-14T08:41:51Z</time>
      </trkpt>
      <trkpt lat="47.62457" lon="1.9427639">
        <ele>176.0</ele>
        <time>2022-04-14T08:41:52Z</time>
      </trkpt>
      <trkpt lat="47.624565" lon="1.9427428">
        <ele>177.0</ele>
        <time>2022-04-14T08:41:53Z</time>
      </trkpt>
      <trkpt lat="47.62456" lon="1.9427255">
        <ele>177.0</ele>
        <time>2022-04-14T08:41:54Z</time>
      </trkpt>
      <trkpt lat="47.62456" lon="1.942707">
        <ele>177.0</ele>
        <time>2022-04-14T08:41:55Z</time>
      </trkpt>
      <trkpt lat="47.624557" lon="1.942697">
        <ele>176.0</ele>
        <time>2022-04-14T08:41:56Z</time>
      </trkpt>
      <trkpt lat="47.62455" lon="1.9426818">
        <ele>176.0</ele>
        <time>2022-04-14T08:41:57Z</time>
      </trkpt>
      <trkpt lat="47.62455" lon="1.942661">
        <ele>176.0</ele>
        <time>2022-04-14T08:41:58Z</time>
      </trkpt>
      <trkpt lat="47.624546" lon="1.9426438">
        <ele>176.0</ele>
        <time>2022-04-14T08:41:59Z</time>
      </trkpt>
      <trkpt lat="47.624542" lon="1.942626">
        <ele>177.0</ele>
        <time>2022-04-14T08:42:00Z</time>
      </trkpt>
      <trkpt lat="47.62454" lon="1.9426073">
        <ele>176.0</ele>
        <time>2022-04-14T08:42:01Z</time>
      </trkpt>
      <trkpt lat="47.624535" lon="1.9425899">
        <ele>177.0</ele>
        <time>2022-04-14T08:42:02Z</time>
      </trkpt>
      <trkpt lat="47.624535" lon="1.9425774">
        <ele>177.0</ele>
        <time>2022-04-14T08:42:03Z</time>
      </trkpt>
      <trkpt lat="47.62453" lon="1.9425626">
        <ele>177.0</ele>
        <time>2022-04-14T08:42:04Z</time>
      </trkpt>
      <trkpt lat="47.624527" lon="1.9425421">
        <ele>177.0</ele>
        <time>2022-04-14T08:42:05Z</time>
      </trkpt>
      <trkpt lat="47.624523" lon="1.9425247">
        <ele>176.0</ele>
        <time>2022-04-14T08:42:06Z</time>
      </trkpt>
      <trkpt lat="47.62452" lon="1.942503">
        <ele>177.0</ele>
        <time>2022-04-14T08:42:07Z</time>
      </trkpt>
      <trkpt lat="47.624516" lon="1.9424825">
        <ele>177.0</ele>
        <time>2022-04-14T08:42:08Z</time>
      </trkpt>
      <trkpt lat="47.62451" lon="1.9424647">
        <ele>177.0</ele>
        <time>2022-04-14T08:42:09Z</time>
      </trkpt>
      <trkpt lat="47.624504" lon="1.9424524">
        <ele>177.0</ele>
        <time>2022-04-14T08:42:10Z</time>
      </trkpt>
      <trkpt lat="47.624496" lon="1.942435">
        <ele>177.0</ele>
        <time>2022-04-14T08:42:11Z</time>
      </trkpt>
      <trkpt lat="47.624493" lon="1.9424189">
        <ele>177.0</ele>
        <time>2022-04-14T08:42:12Z</time>
      </trkpt>
      <trkpt lat="47.624485" lon="1.9424007">
        <ele>177.0</ele>
        <time>2022-04-14T08:42:13Z</time>
      </trkpt>
      <trkpt lat="47.62448" lon="1.9423819">
        <ele>177.0</ele>
        <time>2022-04-14T08:42:14Z</time>
      </trkpt>
      <trkpt lat="47.62448" lon="1.9423655">
        <ele>177.0</ele>
        <time>2022-04-14T08:42:15Z</time>
      </trkpt>
      <trkpt lat="47.624474" lon="1.942356">
        <ele>177.0</ele>
        <time>2022-04-14T08:42:16Z</time>
      </trkpt>
      <trkpt lat="47.624466" lon="1.942341">
        <ele>176.0</ele>
        <time>2022-04-14T08:42:17Z</time>
      </trkpt>
      <trkpt lat="47.624462" lon="1.9423239">
        <ele>176.0</ele>
        <time>2022-04-14T08:42:18Z</time>
      </trkpt>
      <trkpt lat="47.624462" lon="1.9423038">
        <ele>177.0</ele>
        <time>2022-04-14T08:42:19Z</time>
      </trkpt>
      <trkpt lat="47.624454" lon="1.9422877">
        <ele>176.0</ele>
        <time>2022-04-14T08:42:20Z</time>
      </trkpt>
      <trkpt lat="47.62445" lon="1.9422656">
        <ele>176.0</ele>
        <time>2022-04-14T08:42:21Z</time>
      </trkpt>
      <trkpt lat="47.624447" lon="1.9422483">
        <ele>176.0</ele>
        <time>2022-04-14T08:42:22Z</time>
      </trkpt>
      <trkpt lat="47.624443" lon="1.9422326">
        <ele>176.0</ele>
        <time>2022-04-14T08:42:23Z</time>
      </trkpt>
      <trkpt lat="47.62444" lon="1.9422182">
        <ele>176.0</ele>
        <time>2022-04-14T08:42:24Z</time>
      </trkpt>
      <trkpt lat="47.62443" lon="1.9422021">
        <ele>176.0</ele>
        <time>2022-04-14T08:42:25Z</time>
      </trkpt>
      <trkpt lat="47.62442" lon="1.9421877">
        <ele>176.0</ele>
        <time>2022-04-14T08:42:26Z</time>
      </trkpt>
      <trkpt lat="47.624416" lon="1.9421729">
        <ele>177.0</ele>
        <time>2022-04-14T08:42:27Z</time>
      </trkpt>
      <trkpt lat="47.624413" lon="1.9421562">
        <ele>177.0</ele>
        <time>2022-04-14T08:42:28Z</time>
      </trkpt>
      <trkpt lat="47.62441" lon="1.9421391">
        <ele>177.0</ele>
        <time>2022-04-14T08:42:29Z</time>
      </trkpt>
      <trkpt lat="47.624405" lon="1.9421227">
        <ele>176.0</ele>
        <time>2022-04-14T08:42:30Z</time>
      </trkpt>
      <trkpt lat="47.6244" lon="1.9421084">
        <ele>176.0</ele>
        <time>2022-04-14T08:42:31Z</time>
      </trkpt>
      <trkpt lat="47.624397" lon="1.942096">
        <ele>176.0</ele>
        <time>2022-04-14T08:42:32Z</time>
      </trkpt>
      <trkpt lat="47.62439" lon="1.9420768">
        <ele>177.0</ele>
        <time>2022-04-14T08:42:33Z</time>
      </trkpt>
      <trkpt lat="47.624386" lon="1.9420626">
        <ele>177.0</ele>
        <time>2022-04-14T08:42:34Z</time>
      </trkpt>
      <trkpt lat="47.624382" lon="1.9420457">
        <ele>178.0</ele>
        <time>2022-04-14T08:42:35Z</time>
      </trkpt>
      <trkpt lat="47.62438" lon="1.9420319">
        <ele>177.0</ele>
        <time>2022-04-14T08:42:36Z</time>
      </trkpt>
      <trkpt lat="47.624374" lon="1.9420202">
        <ele>177.0</ele>
        <time>2022-04-14T08:42:37Z</time>
      </trkpt>
      <trkpt lat="47.624367" lon="1.9420096">
        <ele>177.0</ele>
        <time>2022-04-14T08:42:38Z</time>
      </trkpt>
      <trkpt lat="47.624363" lon="1.941998">
        <ele>177.0</ele>
        <time>2022-04-14T08:42:39Z</time>
      </trkpt>
      <trkpt lat="47.62436" lon="1.9419866">
        <ele>177.0</ele>
        <time>2022-04-14T08:42:40Z</time>
      </trkpt>
      <trkpt lat="47.624348" lon="1.9419708">
        <ele>177.0</ele>
        <time>2022-04-14T08:42:41Z</time>
      </trkpt>
      <trkpt lat="47.624348" lon="1.9419556">
        <ele>177.0</ele>
        <time>2022-04-14T08:42:42Z</time>
      </trkpt>
      <trkpt lat="47.624344" lon="1.9419416">
        <ele>176.0</ele>
        <time>2022-04-14T08:42:43Z</time>
      </trkpt>
      <trkpt lat="47.624344" lon="1.9419283">
        <ele>176.0</ele>
        <time>2022-04-14T08:42:44Z</time>
      </trkpt>
      <trkpt lat="47.62434" lon="1.9419118">
        <ele>176.0</ele>
        <time>2022-04-14T08:42:45Z</time>
      </trkpt>
      <trkpt lat="47.624336" lon="1.9418952">
        <ele>177.0</ele>
        <time>2022-04-14T08:42:46Z</time>
      </trkpt>
      <trkpt lat="47.624332" lon="1.9418836">
        <ele>177.0</ele>
        <time>2022-04-14T08:42:47Z</time>
      </trkpt>
      <trkpt lat="47.62433" lon="1.9418678">
        <ele>177.0</ele>
        <time>2022-04-14T08:42:48Z</time>
      </trkpt>
      <trkpt lat="47.624317" lon="1.9418503">
        <ele>178.0</ele>
        <time>2022-04-14T08:42:49Z</time>
      </trkpt>
      <trkpt lat="47.624313" lon="1.9418317">
        <ele>178.0</ele>
        <time>2022-04-14T08:42:50Z</time>
      </trkpt>
      <trkpt lat="47.62431" lon="1.9418125">
        <ele>178.0</ele>
        <time>2022-04-14T08:42:51Z</time>
      </trkpt>
      <trkpt lat="47.624306" lon="1.9417932">
        <ele>178.0</ele>
        <time>2022-04-14T08:42:52Z</time>
      </trkpt>
      <trkpt lat="47.624302" lon="1.9417756">
        <ele>178.0</ele>
        <time>2022-04-14T08:42:53Z</time>
      </trkpt>
      <trkpt lat="47.624302" lon="1.9417577">
        <ele>178.0</ele>
        <time>2022-04-14T08:42:54Z</time>
      </trkpt>
      <trkpt lat="47.6243" lon="1.9417404">
        <ele>178.0</ele>
        <time>2022-04-14T08:42:55Z</time>
      </trkpt>
      <trkpt lat="47.62429" lon="1.9417068">
        <ele>178.0</ele>
        <time>2022-04-14T08:42:56Z</time>
      </trkpt>
      <trkpt lat="47.62429" lon="1.9417068">
        <ele>178.0</ele>
        <time>2022-04-14T08:42:56Z</time>
      </trkpt>
      <trkpt lat="47.624287" lon="1.9416853">
        <ele>178.0</ele>
        <time>2022-04-14T08:42:58Z</time>
      </trkpt>
      <trkpt lat="47.624275" lon="1.9416488">
        <ele>179.0</ele>
        <time>2022-04-14T08:42:59Z</time>
      </trkpt>
      <trkpt lat="47.624275" lon="1.9416488">
        <ele>179.0</ele>
        <time>2022-04-14T08:42:59Z</time>
      </trkpt>
      <trkpt lat="47.62427" lon="1.9416366">
        <ele>179.0</ele>
        <time>2022-04-14T08:43:01Z</time>
      </trkpt>
      <trkpt lat="47.624264" lon="1.9416016">
        <ele>179.0</ele>
        <time>2022-04-14T08:43:02Z</time>
      </trkpt>
      <trkpt lat="47.624264" lon="1.9416016">
        <ele>179.0</ele>
        <time>2022-04-14T08:43:02Z</time>
      </trkpt>
      <trkpt lat="47.624256" lon="1.9415838">
        <ele>178.0</ele>
        <time>2022-04-14T08:43:04Z</time>
      </trkpt>
      <trkpt lat="47.624252" lon="1.9415666">
        <ele>178.0</ele>
        <time>2022-04-14T08:43:05Z</time>
      </trkpt>
      <trkpt lat="47.624245" lon="1.9415464">
        <ele>178.0</ele>
        <time>2022-04-14T08:43:06Z</time>
      </trkpt>
      <trkpt lat="47.624237" lon="1.9415295">
        <ele>178.0</ele>
        <time>2022-04-14T08:43:07Z</time>
      </trkpt>
      <trkpt lat="47.624237" lon="1.9415165">
        <ele>178.0</ele>
        <time>2022-04-14T08:43:08Z</time>
      </trkpt>
      <trkpt lat="47.624233" lon="1.9414991">
        <ele>178.0</ele>
        <time>2022-04-14T08:43:09Z</time>
      </trkpt>
      <trkpt lat="47.624233" lon="1.9414816">
        <ele>179.0</ele>
        <time>2022-04-14T08:43:10Z</time>
      </trkpt>
      <trkpt lat="47.62423" lon="1.9414624">
        <ele>178.0</ele>
        <time>2022-04-14T08:43:11Z</time>
      </trkpt>
      <trkpt lat="47.624226" lon="1.9414437">
        <ele>180.0</ele>
        <time>2022-04-14T08:43:12Z</time>
      </trkpt>
      <trkpt lat="47.624226" lon="1.9414222">
        <ele>180.0</ele>
        <time>2022-04-14T08:43:13Z</time>
      </trkpt>
      <trkpt lat="47.624218" lon="1.9414076">
        <ele>179.0</ele>
        <time>2022-04-14T08:43:14Z</time>
      </trkpt>
      <trkpt lat="47.624214" lon="1.9413933">
        <ele>179.0</ele>
        <time>2022-04-14T08:43:15Z</time>
      </trkpt>
      <trkpt lat="47.624214" lon="1.9413795">
        <ele>179.0</ele>
        <time>2022-04-14T08:43:16Z</time>
      </trkpt>
      <trkpt lat="47.62421" lon="1.9413669">
        <ele>179.0</ele>
        <time>2022-04-14T08:43:17Z</time>
      </trkpt>
      <trkpt lat="47.62421" lon="1.941359">
        <ele>179.0</ele>
        <time>2022-04-14T08:43:18Z</time>
      </trkpt>
      <trkpt lat="47.624207" lon="1.9413483">
        <ele>179.0</ele>
        <time>2022-04-14T08:43:19Z</time>
      </trkpt>
      <trkpt lat="47.624207" lon="1.9413408">
        <ele>179.0</ele>
        <time>2022-04-14T08:43:20Z</time>
      </trkpt>
      <trkpt lat="47.624203" lon="1.9413306">
        <ele>179.0</ele>
        <time>2022-04-14T08:43:21Z</time>
      </trkpt>
      <trkpt lat="47.6242" lon="1.9413123">
        <ele>179.0</ele>
        <time>2022-04-14T08:43:22Z</time>
      </trkpt>
      <trkpt lat="47.624195" lon="1.9412955">
        <ele>179.0</ele>
        <time>2022-04-14T08:43:23Z</time>
      </trkpt>
      <trkpt lat="47.624195" lon="1.9412798">
        <ele>179.0</ele>
        <time>2022-04-14T08:43:24Z</time>
      </trkpt>
      <trkpt lat="47.62419" lon="1.9412643">
        <ele>179.0</ele>
        <time>2022-04-14T08:43:25Z</time>
      </trkpt>
      <trkpt lat="47.62418" lon="1.9412407">
        <ele>179.0</ele>
        <time>2022-04-14T08:43:26Z</time>
      </trkpt>
      <trkpt lat="47.62418" lon="1.9412407">
        <ele>179.0</ele>
        <time>2022-04-14T08:43:26Z</time>
      </trkpt>
      <trkpt lat="47.624176" lon="1.9412308">
        <ele>179.0</ele>
        <time>2022-04-14T08:43:28Z</time>
      </trkpt>
      <trkpt lat="47.624172" lon="1.9412163">
        <ele>179.0</ele>
        <time>2022-04-14T08:43:29Z</time>
      </trkpt>
      <trkpt lat="47.62417" lon="1.9412024">
        <ele>178.0</ele>
        <time>2022-04-14T08:43:30Z</time>
      </trkpt>
      <trkpt lat="47.624165" lon="1.9411868">
        <ele>178.0</ele>
        <time>2022-04-14T08:43:31Z</time>
      </trkpt>
      <trkpt lat="47.624157" lon="1.9411728">
        <ele>178.0</ele>
        <time>2022-04-14T08:43:32Z</time>
      </trkpt>
      <trkpt lat="47.624157" lon="1.9411585">
        <ele>178.0</ele>
        <time>2022-04-14T08:43:33Z</time>
      </trkpt>
      <trkpt lat="47.624157" lon="1.9411397">
        <ele>179.0</ele>
        <time>2022-04-14T08:43:34Z</time>
      </trkpt>
      <trkpt lat="47.624153" lon="1.9411255">
        <ele>178.0</ele>
        <time>2022-04-14T08:43:35Z</time>
      </trkpt>
      <trkpt lat="47.62415" lon="1.9411165">
        <ele>178.0</ele>
        <time>2022-04-14T08:43:36Z</time>
      </trkpt>
      <trkpt lat="47.624146" lon="1.9411036">
        <ele>178.0</ele>
        <time>2022-04-14T08:43:37Z</time>
      </trkpt>
      <trkpt lat="47.62414" lon="1.9410906">
        <ele>178.0</ele>
        <time>2022-04-14T08:43:38Z</time>
      </trkpt>
      <trkpt lat="47.624134" lon="1.9410608">
        <ele>178.0</ele>
        <time>2022-04-14T08:43:39Z</time>
      </trkpt>
      <trkpt lat="47.624134" lon="1.9410608">
        <ele>178.0</ele>
        <time>2022-04-14T08:43:39Z</time>
      </trkpt>
      <trkpt lat="47.624126" lon="1.9410294">
        <ele>178.0</ele>
        <time>2022-04-14T08:43:41Z</time>
      </trkpt>
      <trkpt lat="47.624123" lon="1.9410118">
        <ele>178.0</ele>
        <time>2022-04-14T08:43:42Z</time>
      </trkpt>
      <trkpt lat="47.62412" lon="1.9409968">
        <ele>178.0</ele>
        <time>2022-04-14T08:43:43Z</time>
      </trkpt>
      <trkpt lat="47.62412" lon="1.9409968">
        <ele>178.0</ele>
        <time>2022-04-14T08:43:43Z</time>
      </trkpt>
      <trkpt lat="47.624107" lon="1.9409652">
        <ele>178.0</ele>
        <time>2022-04-14T08:43:45Z</time>
      </trkpt>
      <trkpt lat="47.624104" lon="1.9409502">
        <ele>178.0</ele>
        <time>2022-04-14T08:43:46Z</time>
      </trkpt>
      <trkpt lat="47.624096" lon="1.9409342">
        <ele>179.0</ele>
        <time>2022-04-14T08:43:47Z</time>
      </trkpt>
      <trkpt lat="47.624092" lon="1.940921">
        <ele>179.0</ele>
        <time>2022-04-14T08:43:48Z</time>
      </trkpt>
      <trkpt lat="47.624084" lon="1.9409068">
        <ele>178.0</ele>
        <time>2022-04-14T08:43:49Z</time>
      </trkpt>
      <trkpt lat="47.624077" lon="1.940897">
        <ele>178.0</ele>
        <time>2022-04-14T08:43:50Z</time>
      </trkpt>
      <trkpt lat="47.624073" lon="1.9408842">
        <ele>178.0</ele>
        <time>2022-04-14T08:43:51Z</time>
      </trkpt>
      <trkpt lat="47.624065" lon="1.9408712">
        <ele>178.0</ele>
        <time>2022-04-14T08:43:52Z</time>
      </trkpt>
      <trkpt lat="47.624065" lon="1.9408712">
        <ele>178.0</ele>
        <time>2022-04-14T08:43:52Z</time>
      </trkpt>
      <trkpt lat="47.624058" lon="1.940857">
        <ele>178.0</ele>
        <time>2022-04-14T08:43:54Z</time>
      </trkpt>
      <trkpt lat="47.624046" lon="1.9408154">
        <ele>178.0</ele>
        <time>2022-04-14T08:43:55Z</time>
      </trkpt>
      <trkpt lat="47.624046" lon="1.9407998">
        <ele>178.0</ele>
        <time>2022-04-14T08:43:56Z</time>
      </trkpt>
      <trkpt lat="47.624043" lon="1.940785">
        <ele>178.0</ele>
        <time>2022-04-14T08:43:57Z</time>
      </trkpt>
      <trkpt lat="47.62404" lon="1.9407669">
        <ele>178.0</ele>
        <time>2022-04-14T08:43:58Z</time>
      </trkpt>
      <trkpt lat="47.624035" lon="1.9407458">
        <ele>178.0</ele>
        <time>2022-04-14T08:43:59Z</time>
      </trkpt>
      <trkpt lat="47.624035" lon="1.9407294">
        <ele>178.0</ele>
        <time>2022-04-14T08:44:00Z</time>
      </trkpt>
      <trkpt lat="47.624035" lon="1.9407096">
        <ele>178.0</ele>
        <time>2022-04-14T08:44:01Z</time>
      </trkpt>
      <trkpt lat="47.624035" lon="1.9406914">
        <ele>179.0</ele>
        <time>2022-04-14T08:44:02Z</time>
      </trkpt>
      <trkpt lat="47.624035" lon="1.9406748">
        <ele>179.0</ele>
        <time>2022-04-14T08:44:03Z</time>
      </trkpt>
      <trkpt lat="47.624027" lon="1.9406573">
        <ele>179.0</ele>
        <time>2022-04-14T08:44:04Z</time>
      </trkpt>
      <trkpt lat="47.624023" lon="1.9406438">
        <ele>179.0</ele>
        <time>2022-04-14T08:44:05Z</time>
      </trkpt>
      <trkpt lat="47.624016" lon="1.9406257">
        <ele>178.0</ele>
        <time>2022-04-14T08:44:06Z</time>
      </trkpt>
      <trkpt lat="47.624012" lon="1.9406078">
        <ele>177.0</ele>
        <time>2022-04-14T08:44:07Z</time>
      </trkpt>
      <trkpt lat="47.624012" lon="1.9405924">
        <ele>178.0</ele>
        <time>2022-04-14T08:44:08Z</time>
      </trkpt>
      <trkpt lat="47.62401" lon="1.9405764">
        <ele>178.0</ele>
        <time>2022-04-14T08:44:09Z</time>
      </trkpt>
      <trkpt lat="47.624004" lon="1.94056">
        <ele>178.0</ele>
        <time>2022-04-14T08:44:10Z</time>
      </trkpt>
      <trkpt lat="47.623997" lon="1.9405477">
        <ele>178.0</ele>
        <time>2022-04-14T08:44:11Z</time>
      </trkpt>
      <trkpt lat="47.623993" lon="1.9405327">
        <ele>178.0</ele>
        <time>2022-04-14T08:44:12Z</time>
      </trkpt>
      <trkpt lat="47.62399" lon="1.9405162">
        <ele>178.0</ele>
        <time>2022-04-14T08:44:13Z</time>
      </trkpt>
      <trkpt lat="47.62399" lon="1.9405">
        <ele>177.0</ele>
        <time>2022-04-14T08:44:14Z</time>
      </trkpt>
      <trkpt lat="47.62398" lon="1.940483">
        <ele>177.0</ele>
        <time>2022-04-14T08:44:15Z</time>
      </trkpt>
      <trkpt lat="47.623978" lon="1.9404657">
        <ele>177.0</ele>
        <time>2022-04-14T08:44:16Z</time>
      </trkpt>
      <trkpt lat="47.623978" lon="1.940449">
        <ele>177.0</ele>
        <time>2022-04-14T08:44:17Z</time>
      </trkpt>
      <trkpt lat="47.62397" lon="1.9404337">
        <ele>176.0</ele>
        <time>2022-04-14T08:44:18Z</time>
      </trkpt>
      <trkpt lat="47.62397" lon="1.9404182">
        <ele>177.0</ele>
        <time>2022-04-14T08:44:19Z</time>
      </trkpt>
      <trkpt lat="47.623966" lon="1.9403986">
        <ele>176.0</ele>
        <time>2022-04-14T08:44:20Z</time>
      </trkpt>
      <trkpt lat="47.62396" lon="1.9403828">
        <ele>176.0</ele>
        <time>2022-04-14T08:44:21Z</time>
      </trkpt>
      <trkpt lat="47.623955" lon="1.9403665">
        <ele>177.0</ele>
        <time>2022-04-14T08:44:22Z</time>
      </trkpt>
      <trkpt lat="47.62395" lon="1.940353">
        <ele>177.0</ele>
        <time>2022-04-14T08:44:23Z</time>
      </trkpt>
      <trkpt lat="47.623943" lon="1.9403348">
        <ele>177.0</ele>
        <time>2022-04-14T08:44:24Z</time>
      </trkpt>
      <trkpt lat="47.62394" lon="1.940318">
        <ele>177.0</ele>
        <time>2022-04-14T08:44:25Z</time>
      </trkpt>
      <trkpt lat="47.623936" lon="1.9403002">
        <ele>177.0</ele>
        <time>2022-04-14T08:44:26Z</time>
      </trkpt>
      <trkpt lat="47.623936" lon="1.9402839">
        <ele>177.0</ele>
        <time>2022-04-14T08:44:27Z</time>
      </trkpt>
      <trkpt lat="47.62393" lon="1.940268">
        <ele>177.0</ele>
        <time>2022-04-14T08:44:28Z</time>
      </trkpt>
      <trkpt lat="47.62393" lon="1.940254">
        <ele>177.0</ele>
        <time>2022-04-14T08:44:29Z</time>
      </trkpt>
      <trkpt lat="47.623924" lon="1.9402345">
        <ele>178.0</ele>
        <time>2022-04-14T08:44:30Z</time>
      </trkpt>
      <trkpt lat="47.623924" lon="1.9402173">
        <ele>178.0</ele>
        <time>2022-04-14T08:44:31Z</time>
      </trkpt>
      <trkpt lat="47.623924" lon="1.9402031">
        <ele>178.0</ele>
        <time>2022-04-14T08:44:32Z</time>
      </trkpt>
      <trkpt lat="47.62392" lon="1.9401877">
        <ele>178.0</ele>
        <time>2022-04-14T08:44:33Z</time>
      </trkpt>
      <trkpt lat="47.623913" lon="1.9401687">
        <ele>179.0</ele>
        <time>2022-04-14T08:44:34Z</time>
      </trkpt>
      <trkpt lat="47.62391" lon="1.9401516">
        <ele>179.0</ele>
        <time>2022-04-14T08:44:35Z</time>
      </trkpt>
      <trkpt lat="47.623905" lon="1.940135">
        <ele>179.0</ele>
        <time>2022-04-14T08:44:36Z</time>
      </trkpt>
      <trkpt lat="47.6239" lon="1.9401232">
        <ele>179.0</ele>
        <time>2022-04-14T08:44:37Z</time>
      </trkpt>
      <trkpt lat="47.623898" lon="1.9401091">
        <ele>179.0</ele>
        <time>2022-04-14T08:44:38Z</time>
      </trkpt>
      <trkpt lat="47.623894" lon="1.9400877">
        <ele>180.0</ele>
        <time>2022-04-14T08:44:39Z</time>
      </trkpt>
      <trkpt lat="47.62389" lon="1.9400711">
        <ele>180.0</ele>
        <time>2022-04-14T08:44:40Z</time>
      </trkpt>
      <trkpt lat="47.623882" lon="1.9400536">
        <ele>180.0</ele>
        <time>2022-04-14T08:44:41Z</time>
      </trkpt>
      <trkpt lat="47.623875" lon="1.9400344">
        <ele>180.0</ele>
        <time>2022-04-14T08:44:42Z</time>
      </trkpt>
      <trkpt lat="47.623863" lon="1.9400134">
        <ele>181.0</ele>
        <time>2022-04-14T08:44:43Z</time>
      </trkpt>
      <trkpt lat="47.623856" lon="1.9399967">
        <ele>181.0</ele>
        <time>2022-04-14T08:44:44Z</time>
      </trkpt>
      <trkpt lat="47.623844" lon="1.9399765">
        <ele>181.0</ele>
        <time>2022-04-14T08:44:45Z</time>
      </trkpt>
      <trkpt lat="47.623837" lon="1.9399593">
        <ele>181.0</ele>
        <time>2022-04-14T08:44:46Z</time>
      </trkpt>
      <trkpt lat="47.62383" lon="1.9399384">
        <ele>182.0</ele>
        <time>2022-04-14T08:44:47Z</time>
      </trkpt>
      <trkpt lat="47.623825" lon="1.9399202">
        <ele>182.0</ele>
        <time>2022-04-14T08:44:48Z</time>
      </trkpt>
      <trkpt lat="47.623817" lon="1.9399009">
        <ele>183.0</ele>
        <time>2022-04-14T08:44:49Z</time>
      </trkpt>
      <trkpt lat="47.623814" lon="1.9398799">
        <ele>184.0</ele>
        <time>2022-04-14T08:44:50Z</time>
      </trkpt>
      <trkpt lat="47.623814" lon="1.9398608">
        <ele>184.0</ele>
        <time>2022-04-14T08:44:51Z</time>
      </trkpt>
      <trkpt lat="47.623814" lon="1.9398444">
        <ele>183.0</ele>
        <time>2022-04-14T08:44:52Z</time>
      </trkpt>
      <trkpt lat="47.62381" lon="1.9398271">
        <ele>184.0</ele>
        <time>2022-04-14T08:44:53Z</time>
      </trkpt>
      <trkpt lat="47.623806" lon="1.9398102">
        <ele>184.0</ele>
        <time>2022-04-14T08:44:54Z</time>
      </trkpt>
      <trkpt lat="47.623802" lon="1.9397935">
        <ele>184.0</ele>
        <time>2022-04-14T08:44:55Z</time>
      </trkpt>
      <trkpt lat="47.6238" lon="1.9397762">
        <ele>184.0</ele>
        <time>2022-04-14T08:44:56Z</time>
      </trkpt>
      <trkpt lat="47.6238" lon="1.9397572">
        <ele>184.0</ele>
        <time>2022-04-14T08:44:57Z</time>
      </trkpt>
      <trkpt lat="47.623795" lon="1.9397396">
        <ele>184.0</ele>
        <time>2022-04-14T08:44:58Z</time>
      </trkpt>
      <trkpt lat="47.623787" lon="1.9397244">
        <ele>185.0</ele>
        <time>2022-04-14T08:44:59Z</time>
      </trkpt>
      <trkpt lat="47.623783" lon="1.9397074">
        <ele>185.0</ele>
        <time>2022-04-14T08:45:00Z</time>
      </trkpt>
      <trkpt lat="47.62378" lon="1.9396944">
        <ele>185.0</ele>
        <time>2022-04-14T08:45:01Z</time>
      </trkpt>
      <trkpt lat="47.623775" lon="1.9396791">
        <ele>185.0</ele>
        <time>2022-04-14T08:45:02Z</time>
      </trkpt>
      <trkpt lat="47.62377" lon="1.9396675">
        <ele>185.0</ele>
        <time>2022-04-14T08:45:03Z</time>
      </trkpt>
      <trkpt lat="47.623768" lon="1.9396541">
        <ele>185.0</ele>
        <time>2022-04-14T08:45:04Z</time>
      </trkpt>
      <trkpt lat="47.623764" lon="1.9396393">
        <ele>185.0</ele>
        <time>2022-04-14T08:45:05Z</time>
      </trkpt>
      <trkpt lat="47.62376" lon="1.9396266">
        <ele>185.0</ele>
        <time>2022-04-14T08:45:06Z</time>
      </trkpt>
      <trkpt lat="47.623756" lon="1.9396117">
        <ele>185.0</ele>
        <time>2022-04-14T08:45:07Z</time>
      </trkpt>
      <trkpt lat="47.623753" lon="1.9395919">
        <ele>185.0</ele>
        <time>2022-04-14T08:45:08Z</time>
      </trkpt>
      <trkpt lat="47.62375" lon="1.939575">
        <ele>185.0</ele>
        <time>2022-04-14T08:45:09Z</time>
      </trkpt>
      <trkpt lat="47.623745" lon="1.93956">
        <ele>185.0</ele>
        <time>2022-04-14T08:45:10Z</time>
      </trkpt>
      <trkpt lat="47.62374" lon="1.9395444">
        <ele>184.0</ele>
        <time>2022-04-14T08:45:11Z</time>
      </trkpt>
      <trkpt lat="47.623737" lon="1.9395279">
        <ele>184.0</ele>
        <time>2022-04-14T08:45:12Z</time>
      </trkpt>
      <trkpt lat="47.623726" lon="1.9395127">
        <ele>184.0</ele>
        <time>2022-04-14T08:45:13Z</time>
      </trkpt>
      <trkpt lat="47.62372" lon="1.939496">
        <ele>184.0</ele>
        <time>2022-04-14T08:45:14Z</time>
      </trkpt>
      <trkpt lat="47.62371" lon="1.9394784">
        <ele>184.0</ele>
        <time>2022-04-14T08:45:15Z</time>
      </trkpt>
      <trkpt lat="47.623707" lon="1.9394614">
        <ele>185.0</ele>
        <time>2022-04-14T08:45:16Z</time>
      </trkpt>
      <trkpt lat="47.623703" lon="1.939448">
        <ele>185.0</ele>
        <time>2022-04-14T08:45:17Z</time>
      </trkpt>
      <trkpt lat="47.623695" lon="1.9394346">
        <ele>185.0</ele>
        <time>2022-04-14T08:45:18Z</time>
      </trkpt>
      <trkpt lat="47.62369" lon="1.9394208">
        <ele>184.0</ele>
        <time>2022-04-14T08:45:19Z</time>
      </trkpt>
      <trkpt lat="47.623684" lon="1.9394039">
        <ele>184.0</ele>
        <time>2022-04-14T08:45:20Z</time>
      </trkpt>
      <trkpt lat="47.62368" lon="1.9393868">
        <ele>184.0</ele>
        <time>2022-04-14T08:45:21Z</time>
      </trkpt>
      <trkpt lat="47.623676" lon="1.9393716">
        <ele>184.0</ele>
        <time>2022-04-14T08:45:22Z</time>
      </trkpt>
      <trkpt lat="47.623672" lon="1.9393553">
        <ele>184.0</ele>
        <time>2022-04-14T08:45:23Z</time>
      </trkpt>
      <trkpt lat="47.623672" lon="1.9393386">
        <ele>185.0</ele>
        <time>2022-04-14T08:45:24Z</time>
      </trkpt>
      <trkpt lat="47.62367" lon="1.9393202">
        <ele>185.0</ele>
        <time>2022-04-14T08:45:25Z</time>
      </trkpt>
      <trkpt lat="47.623665" lon="1.9393051">
        <ele>185.0</ele>
        <time>2022-04-14T08:45:26Z</time>
      </trkpt>
      <trkpt lat="47.623665" lon="1.9392923">
        <ele>185.0</ele>
        <time>2022-04-14T08:45:27Z</time>
      </trkpt>
      <trkpt lat="47.62366" lon="1.9392787">
        <ele>185.0</ele>
        <time>2022-04-14T08:45:28Z</time>
      </trkpt>
      <trkpt lat="47.62366" lon="1.9392629">
        <ele>185.0</ele>
        <time>2022-04-14T08:45:29Z</time>
      </trkpt>
      <trkpt lat="47.623657" lon="1.9392608">
        <ele>185.0</ele>
        <time>2022-04-14T08:45:30Z</time>
      </trkpt>
      <trkpt lat="47.623657" lon="1.939261">
        <ele>185.0</ele>
        <time>2022-04-14T08:45:31Z</time>
      </trkpt>
      <trkpt lat="47.623657" lon="1.939261">
        <ele>185.0</ele>
        <time>2022-04-14T08:45:32Z</time>
      </trkpt>
      <trkpt lat="47.623657" lon="1.9392608">
        <ele>185.0</ele>
        <time>2022-04-14T08:45:33Z</time>
      </trkpt>
      <trkpt lat="47.623657" lon="1.9392608">
        <ele>185.0</ele>
        <time>2022-04-14T08:45:33Z</time>
      </trkpt>
      <trkpt lat="47.623657" lon="1.9392608">
        <ele>185.0</ele>
        <time>2022-04-14T08:45:33Z</time>
      </trkpt>
      <trkpt lat="47.623604" lon="1.9391499">
        <ele>176.0</ele>
        <time>2022-04-14T08:47:11Z</time>
      </trkpt>
      <trkpt lat="47.623604" lon="1.9391499">
        <ele>176.0</ele>
        <time>2022-04-14T08:47:12Z</time>
      </trkpt>
      <trkpt lat="47.6236" lon="1.9391265">
        <ele>176.0</ele>
        <time>2022-04-14T08:47:13Z</time>
      </trkpt>
      <trkpt lat="47.623596" lon="1.9391173">
        <ele>176.0</ele>
        <time>2022-04-14T08:47:14Z</time>
      </trkpt>
      <trkpt lat="47.623596" lon="1.9391041">
        <ele>176.0</ele>
        <time>2022-04-14T08:47:15Z</time>
      </trkpt>
      <trkpt lat="47.623592" lon="1.9390936">
        <ele>177.0</ele>
        <time>2022-04-14T08:47:16Z</time>
      </trkpt>
      <trkpt lat="47.623592" lon="1.9390936">
        <ele>177.0</ele>
        <time>2022-04-14T08:47:17Z</time>
      </trkpt>
      <trkpt lat="47.623592" lon="1.9390936">
        <ele>177.0</ele>
        <time>2022-04-14T08:47:17Z</time>
      </trkpt>
      <trkpt lat="47.623592" lon="1.9390936">
        <ele>177.0</ele>
        <time>2022-04-14T08:47:17Z</time>
      </trkpt>
      <trkpt lat="47.623646" lon="1.9391061">
        <ele>177.0</ele>
        <time>2022-04-14T08:49:01Z</time>
      </trkpt>
      <trkpt lat="47.623634" lon="1.9391038">
        <ele>177.0</ele>
        <time>2022-04-14T08:49:02Z</time>
      </trkpt>
      <trkpt lat="47.623623" lon="1.9391013">
        <ele>177.0</ele>
        <time>2022-04-14T08:49:03Z</time>
      </trkpt>
      <trkpt lat="47.623615" lon="1.9391">
        <ele>177.0</ele>
        <time>2022-04-14T08:49:04Z</time>
      </trkpt>
      <trkpt lat="47.623608" lon="1.9391042">
        <ele>177.0</ele>
        <time>2022-04-14T08:49:05Z</time>
      </trkpt>
      <trkpt lat="47.6236" lon="1.9391004">
        <ele>177.0</ele>
        <time>2022-04-14T08:49:06Z</time>
      </trkpt>
      <trkpt lat="47.623596" lon="1.9390959">
        <ele>177.0</ele>
        <time>2022-04-14T08:49:07Z</time>
      </trkpt>
      <trkpt lat="47.62359" lon="1.939093">
        <ele>177.0</ele>
        <time>2022-04-14T08:49:08Z</time>
      </trkpt>
      <trkpt lat="47.623585" lon="1.9390988">
        <ele>177.0</ele>
        <time>2022-04-14T08:49:09Z</time>
      </trkpt>
      <trkpt lat="47.623577" lon="1.9390954">
        <ele>177.0</ele>
        <time>2022-04-14T08:49:10Z</time>
      </trkpt>
      <trkpt lat="47.62357" lon="1.939094">
        <ele>177.0</ele>
        <time>2022-04-14T08:49:11Z</time>
      </trkpt>
      <trkpt lat="47.623558" lon="1.9390959">
        <ele>177.0</ele>
        <time>2022-04-14T08:49:12Z</time>
      </trkpt>
      <trkpt lat="47.62355" lon="1.9390973">
        <ele>177.0</ele>
        <time>2022-04-14T08:49:13Z</time>
      </trkpt>
      <trkpt lat="47.62354" lon="1.939099">
        <ele>177.0</ele>
        <time>2022-04-14T08:49:14Z</time>
      </trkpt>
      <trkpt lat="47.623524" lon="1.9391049">
        <ele>177.0</ele>
        <time>2022-04-14T08:49:15Z</time>
      </trkpt>
      <trkpt lat="47.62351" lon="1.9391083">
        <ele>177.0</ele>
        <time>2022-04-14T08:49:16Z</time>
      </trkpt>
      <trkpt lat="47.6235" lon="1.9391114">
        <ele>177.0</ele>
        <time>2022-04-14T08:49:17Z</time>
      </trkpt>
      <trkpt lat="47.623497" lon="1.9391117">
        <ele>177.0</ele>
        <time>2022-04-14T08:49:18Z</time>
      </trkpt>
      <trkpt lat="47.62348" lon="1.9391141">
        <ele>177.0</ele>
        <time>2022-04-14T08:49:19Z</time>
      </trkpt>
      <trkpt lat="47.62347" lon="1.9391205">
        <ele>177.0</ele>
        <time>2022-04-14T08:49:20Z</time>
      </trkpt>
      <trkpt lat="47.623463" lon="1.9391217">
        <ele>177.0</ele>
        <time>2022-04-14T08:49:21Z</time>
      </trkpt>
      <trkpt lat="47.62345" lon="1.9391181">
        <ele>177.0</ele>
        <time>2022-04-14T08:49:22Z</time>
      </trkpt>
      <trkpt lat="47.623436" lon="1.9391145">
        <ele>176.0</ele>
        <time>2022-04-14T08:49:23Z</time>
      </trkpt>
      <trkpt lat="47.623425" lon="1.9391092">
        <ele>176.0</ele>
        <time>2022-04-14T08:49:24Z</time>
      </trkpt>
      <trkpt lat="47.623417" lon="1.9390961">
        <ele>176.0</ele>
        <time>2022-04-14T08:49:25Z</time>
      </trkpt>
      <trkpt lat="47.623417" lon="1.9390856">
        <ele>176.0</ele>
        <time>2022-04-14T08:49:26Z</time>
      </trkpt>
      <trkpt lat="47.623413" lon="1.9390792">
        <ele>177.0</ele>
        <time>2022-04-14T08:49:27Z</time>
      </trkpt>
      <trkpt lat="47.623405" lon="1.9390795">
        <ele>177.0</ele>
        <time>2022-04-14T08:49:28Z</time>
      </trkpt>
      <trkpt lat="47.623398" lon="1.9390724">
        <ele>177.0</ele>
        <time>2022-04-14T08:49:29Z</time>
      </trkpt>
      <trkpt lat="47.62339" lon="1.9390785">
        <ele>177.0</ele>
        <time>2022-04-14T08:49:30Z</time>
      </trkpt>
      <trkpt lat="47.62338" lon="1.939076">
        <ele>177.0</ele>
        <time>2022-04-14T08:49:31Z</time>
      </trkpt>
      <trkpt lat="47.623367" lon="1.9390789">
        <ele>177.0</ele>
        <time>2022-04-14T08:49:32Z</time>
      </trkpt>
      <trkpt lat="47.623352" lon="1.9390798">
        <ele>176.0</ele>
        <time>2022-04-14T08:49:33Z</time>
      </trkpt>
      <trkpt lat="47.623337" lon="1.9390898">
        <ele>177.0</ele>
        <time>2022-04-14T08:49:34Z</time>
      </trkpt>
      <trkpt lat="47.623325" lon="1.9390903">
        <ele>177.0</ele>
        <time>2022-04-14T08:49:35Z</time>
      </trkpt>
      <trkpt lat="47.62331" lon="1.9390948">
        <ele>177.0</ele>
        <time>2022-04-14T08:49:36Z</time>
      </trkpt>
      <trkpt lat="47.6233" lon="1.9391015">
        <ele>177.0</ele>
        <time>2022-04-14T08:49:37Z</time>
      </trkpt>
      <trkpt lat="47.623283" lon="1.9391112">
        <ele>177.0</ele>
        <time>2022-04-14T08:49:38Z</time>
      </trkpt>
      <trkpt lat="47.62327" lon="1.9391154">
        <ele>177.0</ele>
        <time>2022-04-14T08:49:39Z</time>
      </trkpt>
      <trkpt lat="47.623257" lon="1.9391209">
        <ele>177.0</ele>
        <time>2022-04-14T08:49:40Z</time>
      </trkpt>
      <trkpt lat="47.62324" lon="1.9391252">
        <ele>177.0</ele>
        <time>2022-04-14T08:49:41Z</time>
      </trkpt>
      <trkpt lat="47.623226" lon="1.9391305">
        <ele>178.0</ele>
        <time>2022-04-14T08:49:42Z</time>
      </trkpt>
      <trkpt lat="47.62322" lon="1.9391327">
        <ele>178.0</ele>
        <time>2022-04-14T08:49:43Z</time>
      </trkpt>
      <trkpt lat="47.62321" lon="1.9391403">
        <ele>178.0</ele>
        <time>2022-04-14T08:49:44Z</time>
      </trkpt>
      <trkpt lat="47.6232" lon="1.9391419">
        <ele>178.0</ele>
        <time>2022-04-14T08:49:45Z</time>
      </trkpt>
      <trkpt lat="47.623184" lon="1.9391443">
        <ele>179.0</ele>
        <time>2022-04-14T08:49:46Z</time>
      </trkpt>
      <trkpt lat="47.623177" lon="1.9391438">
        <ele>179.0</ele>
        <time>2022-04-14T08:49:47Z</time>
      </trkpt>
      <trkpt lat="47.62316" lon="1.9391469">
        <ele>179.0</ele>
        <time>2022-04-14T08:49:48Z</time>
      </trkpt>
      <trkpt lat="47.62315" lon="1.9391497">
        <ele>179.0</ele>
        <time>2022-04-14T08:49:49Z</time>
      </trkpt>
      <trkpt lat="47.62314" lon="1.9391491">
        <ele>179.0</ele>
        <time>2022-04-14T08:49:50Z</time>
      </trkpt>
      <trkpt lat="47.623123" lon="1.9391528">
        <ele>179.0</ele>
        <time>2022-04-14T08:49:51Z</time>
      </trkpt>
      <trkpt lat="47.62311" lon="1.9391537">
        <ele>179.0</ele>
        <time>2022-04-14T08:49:52Z</time>
      </trkpt>
      <trkpt lat="47.6231" lon="1.9391513">
        <ele>179.0</ele>
        <time>2022-04-14T08:49:53Z</time>
      </trkpt>
      <trkpt lat="47.62309" lon="1.9391503">
        <ele>180.0</ele>
        <time>2022-04-14T08:49:54Z</time>
      </trkpt>
      <trkpt lat="47.623077" lon="1.9391496">
        <ele>180.0</ele>
        <time>2022-04-14T08:49:55Z</time>
      </trkpt>
      <trkpt lat="47.623066" lon="1.9391502">
        <ele>180.0</ele>
        <time>2022-04-14T08:49:56Z</time>
      </trkpt>
      <trkpt lat="47.62306" lon="1.9391502">
        <ele>179.0</ele>
        <time>2022-04-14T08:49:57Z</time>
      </trkpt>
      <trkpt lat="47.623047" lon="1.9391483">
        <ele>180.0</ele>
        <time>2022-04-14T08:49:58Z</time>
      </trkpt>
      <trkpt lat="47.623035" lon="1.9391491">
        <ele>180.0</ele>
        <time>2022-04-14T08:49:59Z</time>
      </trkpt>
      <trkpt lat="47.623024" lon="1.9391519">
        <ele>181.0</ele>
        <time>2022-04-14T08:50:00Z</time>
      </trkpt>
      <trkpt lat="47.623016" lon="1.9391533">
        <ele>181.0</ele>
        <time>2022-04-14T08:50:01Z</time>
      </trkpt>
      <trkpt lat="47.62301" lon="1.9391506">
        <ele>181.0</ele>
        <time>2022-04-14T08:50:02Z</time>
      </trkpt>
      <trkpt lat="47.622993" lon="1.9391502">
        <ele>181.0</ele>
        <time>2022-04-14T08:50:03Z</time>
      </trkpt>
      <trkpt lat="47.622982" lon="1.9391494">
        <ele>181.0</ele>
        <time>2022-04-14T08:50:04Z</time>
      </trkpt>
      <trkpt lat="47.622974" lon="1.9391533">
        <ele>181.0</ele>
        <time>2022-04-14T08:50:05Z</time>
      </trkpt>
      <trkpt lat="47.622963" lon="1.9391611">
        <ele>181.0</ele>
        <time>2022-04-14T08:50:06Z</time>
      </trkpt>
      <trkpt lat="47.622955" lon="1.939162">
        <ele>181.0</ele>
        <time>2022-04-14T08:50:07Z</time>
      </trkpt>
      <trkpt lat="47.622944" lon="1.9391675">
        <ele>181.0</ele>
        <time>2022-04-14T08:50:08Z</time>
      </trkpt>
      <trkpt lat="47.62293" lon="1.9391729">
        <ele>181.0</ele>
        <time>2022-04-14T08:50:09Z</time>
      </trkpt>
      <trkpt lat="47.622913" lon="1.939177">
        <ele>181.0</ele>
        <time>2022-04-14T08:50:10Z</time>
      </trkpt>
      <trkpt lat="47.622902" lon="1.9391794">
        <ele>181.0</ele>
        <time>2022-04-14T08:50:11Z</time>
      </trkpt>
      <trkpt lat="47.62289" lon="1.9391834">
        <ele>181.0</ele>
        <time>2022-04-14T08:50:12Z</time>
      </trkpt>
      <trkpt lat="47.62288" lon="1.9391876">
        <ele>181.0</ele>
        <time>2022-04-14T08:50:13Z</time>
      </trkpt>
      <trkpt lat="47.622868" lon="1.9391911">
        <ele>181.0</ele>
        <time>2022-04-14T08:50:14Z</time>
      </trkpt>
      <trkpt lat="47.622852" lon="1.9392018">
        <ele>180.0</ele>
        <time>2022-04-14T08:50:15Z</time>
      </trkpt>
      <trkpt lat="47.62284" lon="1.9392056">
        <ele>180.0</ele>
        <time>2022-04-14T08:50:16Z</time>
      </trkpt>
      <trkpt lat="47.622833" lon="1.9392036">
        <ele>180.0</ele>
        <time>2022-04-14T08:50:17Z</time>
      </trkpt>
      <trkpt lat="47.62282" lon="1.939207">
        <ele>180.0</ele>
        <time>2022-04-14T08:50:18Z</time>
      </trkpt>
      <trkpt lat="47.622814" lon="1.9392133">
        <ele>180.0</ele>
        <time>2022-04-14T08:50:19Z</time>
      </trkpt>
      <trkpt lat="47.622803" lon="1.9392183">
        <ele>180.0</ele>
        <time>2022-04-14T08:50:20Z</time>
      </trkpt>
      <trkpt lat="47.62279" lon="1.9392246">
        <ele>179.0</ele>
        <time>2022-04-14T08:50:21Z</time>
      </trkpt>
      <trkpt lat="47.622784" lon="1.939231">
        <ele>179.0</ele>
        <time>2022-04-14T08:50:22Z</time>
      </trkpt>
      <trkpt lat="47.622772" lon="1.9392331">
        <ele>179.0</ele>
        <time>2022-04-14T08:50:23Z</time>
      </trkpt>
      <trkpt lat="47.622765" lon="1.9392382">
        <ele>179.0</ele>
        <time>2022-04-14T08:50:24Z</time>
      </trkpt>
      <trkpt lat="47.622757" lon="1.9392483">
        <ele>179.0</ele>
        <time>2022-04-14T08:50:25Z</time>
      </trkpt>
      <trkpt lat="47.622746" lon="1.9392524">
        <ele>179.0</ele>
        <time>2022-04-14T08:50:26Z</time>
      </trkpt>
      <trkpt lat="47.622734" lon="1.939261">
        <ele>179.0</ele>
        <time>2022-04-14T08:50:27Z</time>
      </trkpt>
      <trkpt lat="47.622723" lon="1.9392653">
        <ele>179.0</ele>
        <time>2022-04-14T08:50:28Z</time>
      </trkpt>
      <trkpt lat="47.622715" lon="1.9392669">
        <ele>179.0</ele>
        <time>2022-04-14T08:50:29Z</time>
      </trkpt>
      <trkpt lat="47.622704" lon="1.9392649">
        <ele>179.0</ele>
        <time>2022-04-14T08:50:30Z</time>
      </trkpt>
      <trkpt lat="47.622692" lon="1.9392661">
        <ele>180.0</ele>
        <time>2022-04-14T08:50:31Z</time>
      </trkpt>
      <trkpt lat="47.622684" lon="1.9392692">
        <ele>179.0</ele>
        <time>2022-04-14T08:50:32Z</time>
      </trkpt>
      <trkpt lat="47.62267" lon="1.9392778">
        <ele>179.0</ele>
        <time>2022-04-14T08:50:33Z</time>
      </trkpt>
      <trkpt lat="47.622658" lon="1.9392822">
        <ele>179.0</ele>
        <time>2022-04-14T08:50:34Z</time>
      </trkpt>
      <trkpt lat="47.62265" lon="1.9392843">
        <ele>179.0</ele>
        <time>2022-04-14T08:50:35Z</time>
      </trkpt>
      <trkpt lat="47.62264" lon="1.9392867">
        <ele>179.0</ele>
        <time>2022-04-14T08:50:36Z</time>
      </trkpt>
      <trkpt lat="47.622627" lon="1.9392931">
        <ele>179.0</ele>
        <time>2022-04-14T08:50:37Z</time>
      </trkpt>
      <trkpt lat="47.622616" lon="1.9392962">
        <ele>179.0</ele>
        <time>2022-04-14T08:50:38Z</time>
      </trkpt>
      <trkpt lat="47.622604" lon="1.9393008">
        <ele>179.0</ele>
        <time>2022-04-14T08:50:39Z</time>
      </trkpt>
      <trkpt lat="47.622593" lon="1.9393008">
        <ele>179.0</ele>
        <time>2022-04-14T08:50:40Z</time>
      </trkpt>
      <trkpt lat="47.62258" lon="1.9393005">
        <ele>180.0</ele>
        <time>2022-04-14T08:50:41Z</time>
      </trkpt>
      <trkpt lat="47.622574" lon="1.9392879">
        <ele>179.0</ele>
        <time>2022-04-14T08:50:42Z</time>
      </trkpt>
      <trkpt lat="47.622566" lon="1.9392847">
        <ele>179.0</ele>
        <time>2022-04-14T08:50:43Z</time>
      </trkpt>
      <trkpt lat="47.62256" lon="1.9392844">
        <ele>179.0</ele>
        <time>2022-04-14T08:50:44Z</time>
      </trkpt>
      <trkpt lat="47.62255" lon="1.9392872">
        <ele>179.0</ele>
        <time>2022-04-14T08:50:45Z</time>
      </trkpt>
      <trkpt lat="47.622547" lon="1.9392911">
        <ele>179.0</ele>
        <time>2022-04-14T08:50:46Z</time>
      </trkpt>
      <trkpt lat="47.622547" lon="1.9392948">
        <ele>179.0</ele>
        <time>2022-04-14T08:50:47Z</time>
      </trkpt>
      <trkpt lat="47.62254" lon="1.9392947">
        <ele>179.0</ele>
        <time>2022-04-14T08:50:48Z</time>
      </trkpt>
      <trkpt lat="47.62253" lon="1.9392942">
        <ele>179.0</ele>
        <time>2022-04-14T08:50:49Z</time>
      </trkpt>
      <trkpt lat="47.622524" lon="1.9392977">
        <ele>179.0</ele>
        <time>2022-04-14T08:50:50Z</time>
      </trkpt>
      <trkpt lat="47.622513" lon="1.9392977">
        <ele>178.0</ele>
        <time>2022-04-14T08:50:51Z</time>
      </trkpt>
      <trkpt lat="47.6225" lon="1.9392977">
        <ele>178.0</ele>
        <time>2022-04-14T08:50:52Z</time>
      </trkpt>
      <trkpt lat="47.622486" lon="1.9393002">
        <ele>178.0</ele>
        <time>2022-04-14T08:50:53Z</time>
      </trkpt>
      <trkpt lat="47.62247" lon="1.9393">
        <ele>179.0</ele>
        <time>2022-04-14T08:50:54Z</time>
      </trkpt>
      <trkpt lat="47.622456" lon="1.939302">
        <ele>179.0</ele>
        <time>2022-04-14T08:50:55Z</time>
      </trkpt>
      <trkpt lat="47.62244" lon="1.9393077">
        <ele>179.0</ele>
        <time>2022-04-14T08:50:56Z</time>
      </trkpt>
      <trkpt lat="47.62243" lon="1.9393103">
        <ele>179.0</ele>
        <time>2022-04-14T08:50:57Z</time>
      </trkpt>
      <trkpt lat="47.62241" lon="1.9393135">
        <ele>179.0</ele>
        <time>2022-04-14T08:50:58Z</time>
      </trkpt>
      <trkpt lat="47.6224" lon="1.9393171">
        <ele>180.0</ele>
        <time>2022-04-14T08:50:59Z</time>
      </trkpt>
      <trkpt lat="47.622387" lon="1.9393169">
        <ele>180.0</ele>
        <time>2022-04-14T08:51:00Z</time>
      </trkpt>
      <trkpt lat="47.622368" lon="1.939317">
        <ele>180.0</ele>
        <time>2022-04-14T08:51:01Z</time>
      </trkpt>
      <trkpt lat="47.622356" lon="1.9393194">
        <ele>180.0</ele>
        <time>2022-04-14T08:51:02Z</time>
      </trkpt>
      <trkpt lat="47.622345" lon="1.9393212">
        <ele>180.0</ele>
        <time>2022-04-14T08:51:03Z</time>
      </trkpt>
      <trkpt lat="47.622334" lon="1.9393225">
        <ele>179.0</ele>
        <time>2022-04-14T08:51:04Z</time>
      </trkpt>
      <trkpt lat="47.62232" lon="1.9393196">
        <ele>180.0</ele>
        <time>2022-04-14T08:51:05Z</time>
      </trkpt>
      <trkpt lat="47.622307" lon="1.9393206">
        <ele>180.0</ele>
        <time>2022-04-14T08:51:06Z</time>
      </trkpt>
      <trkpt lat="47.622295" lon="1.9393201">
        <ele>180.0</ele>
        <time>2022-04-14T08:51:07Z</time>
      </trkpt>
      <trkpt lat="47.622284" lon="1.9393197">
        <ele>180.0</ele>
        <time>2022-04-14T08:51:08Z</time>
      </trkpt>
      <trkpt lat="47.622272" lon="1.9393221">
        <ele>179.0</ele>
        <time>2022-04-14T08:51:09Z</time>
      </trkpt>
      <trkpt lat="47.62226" lon="1.939329">
        <ele>180.0</ele>
        <time>2022-04-14T08:51:10Z</time>
      </trkpt>
      <trkpt lat="47.622253" lon="1.9393371">
        <ele>180.0</ele>
        <time>2022-04-14T08:51:11Z</time>
      </trkpt>
      <trkpt lat="47.622242" lon="1.9393414">
        <ele>180.0</ele>
        <time>2022-04-14T08:51:12Z</time>
      </trkpt>
      <trkpt lat="47.62223" lon="1.9393458">
        <ele>180.0</ele>
        <time>2022-04-14T08:51:13Z</time>
      </trkpt>
      <trkpt lat="47.62222" lon="1.9393483">
        <ele>180.0</ele>
        <time>2022-04-14T08:51:14Z</time>
      </trkpt>
      <trkpt lat="47.622208" lon="1.9393516">
        <ele>180.0</ele>
        <time>2022-04-14T08:51:15Z</time>
      </trkpt>
      <trkpt lat="47.6222" lon="1.9393561">
        <ele>180.0</ele>
        <time>2022-04-14T08:51:16Z</time>
      </trkpt>
      <trkpt lat="47.62219" lon="1.9393643">
        <ele>180.0</ele>
        <time>2022-04-14T08:51:17Z</time>
      </trkpt>
      <trkpt lat="47.622177" lon="1.9393723">
        <ele>180.0</ele>
        <time>2022-04-14T08:51:18Z</time>
      </trkpt>
      <trkpt lat="47.622166" lon="1.9393792">
        <ele>179.0</ele>
        <time>2022-04-14T08:51:19Z</time>
      </trkpt>
      <trkpt lat="47.622154" lon="1.9393861">
        <ele>179.0</ele>
        <time>2022-04-14T08:51:20Z</time>
      </trkpt>
      <trkpt lat="47.62214" lon="1.9393934">
        <ele>179.0</ele>
        <time>2022-04-14T08:51:21Z</time>
      </trkpt>
      <trkpt lat="47.62213" lon="1.9394035">
        <ele>178.0</ele>
        <time>2022-04-14T08:51:22Z</time>
      </trkpt>
      <trkpt lat="47.622124" lon="1.939417">
        <ele>178.0</ele>
        <time>2022-04-14T08:51:23Z</time>
      </trkpt>
      <trkpt lat="47.622116" lon="1.9394271">
        <ele>178.0</ele>
        <time>2022-04-14T08:51:24Z</time>
      </trkpt>
      <trkpt lat="47.622116" lon="1.9394357">
        <ele>178.0</ele>
        <time>2022-04-14T08:51:25Z</time>
      </trkpt>
      <trkpt lat="47.622116" lon="1.9394487">
        <ele>177.0</ele>
        <time>2022-04-14T08:51:26Z</time>
      </trkpt>
      <trkpt lat="47.62212" lon="1.9394647">
        <ele>177.0</ele>
        <time>2022-04-14T08:51:27Z</time>
      </trkpt>
      <trkpt lat="47.622124" lon="1.9394815">
        <ele>176.0</ele>
        <time>2022-04-14T08:51:28Z</time>
      </trkpt>
      <trkpt lat="47.622128" lon="1.9394982">
        <ele>176.0</ele>
        <time>2022-04-14T08:51:29Z</time>
      </trkpt>
      <trkpt lat="47.62213" lon="1.9395187">
        <ele>176.0</ele>
        <time>2022-04-14T08:51:30Z</time>
      </trkpt>
      <trkpt lat="47.622135" lon="1.9395373">
        <ele>176.0</ele>
        <time>2022-04-14T08:51:31Z</time>
      </trkpt>
      <trkpt lat="47.622135" lon="1.9395486">
        <ele>176.0</ele>
        <time>2022-04-14T08:51:32Z</time>
      </trkpt>
      <trkpt lat="47.62214" lon="1.9395682">
        <ele>176.0</ele>
        <time>2022-04-14T08:51:33Z</time>
      </trkpt>
      <trkpt lat="47.622143" lon="1.9395866">
        <ele>176.0</ele>
        <time>2022-04-14T08:51:34Z</time>
      </trkpt>
      <trkpt lat="47.622147" lon="1.939609">
        <ele>176.0</ele>
        <time>2022-04-14T08:51:35Z</time>
      </trkpt>
      <trkpt lat="47.622147" lon="1.9396281">
        <ele>177.0</ele>
        <time>2022-04-14T08:51:36Z</time>
      </trkpt>
      <trkpt lat="47.62215" lon="1.9396437">
        <ele>177.0</ele>
        <time>2022-04-14T08:51:37Z</time>
      </trkpt>
      <trkpt lat="47.622154" lon="1.9396596">
        <ele>177.0</ele>
        <time>2022-04-14T08:51:38Z</time>
      </trkpt>
      <trkpt lat="47.622154" lon="1.939671">
        <ele>177.0</ele>
        <time>2022-04-14T08:51:39Z</time>
      </trkpt>
      <trkpt lat="47.622158" lon="1.9396778">
        <ele>177.0</ele>
        <time>2022-04-14T08:51:40Z</time>
      </trkpt>
      <trkpt lat="47.62216" lon="1.9396845">
        <ele>176.0</ele>
        <time>2022-04-14T08:51:41Z</time>
      </trkpt>
      <trkpt lat="47.622166" lon="1.9396918">
        <ele>176.0</ele>
        <time>2022-04-14T08:51:42Z</time>
      </trkpt>
      <trkpt lat="47.62217" lon="1.9397026">
        <ele>176.0</ele>
        <time>2022-04-14T08:51:43Z</time>
      </trkpt>
      <trkpt lat="47.62217" lon="1.9397026">
        <ele>176.0</ele>
        <time>2022-04-14T08:51:44Z</time>
      </trkpt>
      <trkpt lat="47.62218" lon="1.9397311">
        <ele>176.0</ele>
        <time>2022-04-14T08:51:45Z</time>
      </trkpt>
      <trkpt lat="47.62219" lon="1.9397469">
        <ele>177.0</ele>
        <time>2022-04-14T08:51:46Z</time>
      </trkpt>
      <trkpt lat="47.622192" lon="1.9397645">
        <ele>176.0</ele>
        <time>2022-04-14T08:51:47Z</time>
      </trkpt>
      <trkpt lat="47.622196" lon="1.9397836">
        <ele>177.0</ele>
        <time>2022-04-14T08:51:48Z</time>
      </trkpt>
      <trkpt lat="47.622204" lon="1.939807">
        <ele>177.0</ele>
        <time>2022-04-14T08:51:49Z</time>
      </trkpt>
      <trkpt lat="47.622204" lon="1.939821">
        <ele>177.0</ele>
        <time>2022-04-14T08:51:50Z</time>
      </trkpt>
      <trkpt lat="47.622208" lon="1.9398376">
        <ele>177.0</ele>
        <time>2022-04-14T08:51:51Z</time>
      </trkpt>
      <trkpt lat="47.622215" lon="1.9398562">
        <ele>177.0</ele>
        <time>2022-04-14T08:51:52Z</time>
      </trkpt>
      <trkpt lat="47.62222" lon="1.9398714">
        <ele>177.0</ele>
        <time>2022-04-14T08:51:53Z</time>
      </trkpt>
      <trkpt lat="47.622227" lon="1.9398898">
        <ele>177.0</ele>
        <time>2022-04-14T08:51:54Z</time>
      </trkpt>
      <trkpt lat="47.62223" lon="1.9399112">
        <ele>177.0</ele>
        <time>2022-04-14T08:51:55Z</time>
      </trkpt>
      <trkpt lat="47.622234" lon="1.9399279">
        <ele>177.0</ele>
        <time>2022-04-14T08:51:56Z</time>
      </trkpt>
      <trkpt lat="47.62224" lon="1.9399426">
        <ele>177.0</ele>
        <time>2022-04-14T08:51:57Z</time>
      </trkpt>
      <trkpt lat="47.622246" lon="1.939955">
        <ele>177.0</ele>
        <time>2022-04-14T08:51:58Z</time>
      </trkpt>
      <trkpt lat="47.62225" lon="1.9399693">
        <ele>178.0</ele>
        <time>2022-04-14T08:51:59Z</time>
      </trkpt>
      <trkpt lat="47.622253" lon="1.9399878">
        <ele>178.0</ele>
        <time>2022-04-14T08:52:00Z</time>
      </trkpt>
      <trkpt lat="47.622257" lon="1.9400004">
        <ele>178.0</ele>
        <time>2022-04-14T08:52:01Z</time>
      </trkpt>
      <trkpt lat="47.62226" lon="1.9400184">
        <ele>178.0</ele>
        <time>2022-04-14T08:52:02Z</time>
      </trkpt>
      <trkpt lat="47.62226" lon="1.9400347">
        <ele>178.0</ele>
        <time>2022-04-14T08:52:03Z</time>
      </trkpt>
      <trkpt lat="47.622265" lon="1.9400458">
        <ele>178.0</ele>
        <time>2022-04-14T08:52:04Z</time>
      </trkpt>
      <trkpt lat="47.622272" lon="1.9400574">
        <ele>178.0</ele>
        <time>2022-04-14T08:52:05Z</time>
      </trkpt>
      <trkpt lat="47.622276" lon="1.9400735">
        <ele>178.0</ele>
        <time>2022-04-14T08:52:06Z</time>
      </trkpt>
      <trkpt lat="47.622288" lon="1.9400852">
        <ele>178.0</ele>
        <time>2022-04-14T08:52:07Z</time>
      </trkpt>
      <trkpt lat="47.622295" lon="1.9401023">
        <ele>179.0</ele>
        <time>2022-04-14T08:52:08Z</time>
      </trkpt>
      <trkpt lat="47.62231" lon="1.9401189">
        <ele>179.0</ele>
        <time>2022-04-14T08:52:09Z</time>
      </trkpt>
      <trkpt lat="47.62232" lon="1.940134">
        <ele>179.0</ele>
        <time>2022-04-14T08:52:10Z</time>
      </trkpt>
      <trkpt lat="47.62232" lon="1.9401497">
        <ele>178.0</ele>
        <time>2022-04-14T08:52:11Z</time>
      </trkpt>
      <trkpt lat="47.622326" lon="1.9401656">
        <ele>179.0</ele>
        <time>2022-04-14T08:52:12Z</time>
      </trkpt>
      <trkpt lat="47.622334" lon="1.9401805">
        <ele>179.0</ele>
        <time>2022-04-14T08:52:13Z</time>
      </trkpt>
      <trkpt lat="47.622334" lon="1.9401964">
        <ele>180.0</ele>
        <time>2022-04-14T08:52:14Z</time>
      </trkpt>
      <trkpt lat="47.622334" lon="1.9402095">
        <ele>180.0</ele>
        <time>2022-04-14T08:52:15Z</time>
      </trkpt>
      <trkpt lat="47.622337" lon="1.9402225">
        <ele>180.0</ele>
        <time>2022-04-14T08:52:16Z</time>
      </trkpt>
      <trkpt lat="47.62234" lon="1.9402384">
        <ele>180.0</ele>
        <time>2022-04-14T08:52:17Z</time>
      </trkpt>
      <trkpt lat="47.622345" lon="1.940254">
        <ele>180.0</ele>
        <time>2022-04-14T08:52:18Z</time>
      </trkpt>
      <trkpt lat="47.622353" lon="1.9402729">
        <ele>180.0</ele>
        <time>2022-04-14T08:52:19Z</time>
      </trkpt>
      <trkpt lat="47.62236" lon="1.9402924">
        <ele>180.0</ele>
        <time>2022-04-14T08:52:20Z</time>
      </trkpt>
      <trkpt lat="47.622368" lon="1.9403075">
        <ele>181.0</ele>
        <time>2022-04-14T08:52:21Z</time>
      </trkpt>
      <trkpt lat="47.622368" lon="1.9403275">
        <ele>180.0</ele>
        <time>2022-04-14T08:52:22Z</time>
      </trkpt>
      <trkpt lat="47.622364" lon="1.9403474">
        <ele>181.0</ele>
        <time>2022-04-14T08:52:23Z</time>
      </trkpt>
      <trkpt lat="47.622364" lon="1.940366">
        <ele>180.0</ele>
        <time>2022-04-14T08:52:24Z</time>
      </trkpt>
      <trkpt lat="47.622356" lon="1.9403806">
        <ele>180.0</ele>
        <time>2022-04-14T08:52:25Z</time>
      </trkpt>
      <trkpt lat="47.62235" lon="1.9403994">
        <ele>180.0</ele>
        <time>2022-04-14T08:52:26Z</time>
      </trkpt>
      <trkpt lat="47.622345" lon="1.940417">
        <ele>180.0</ele>
        <time>2022-04-14T08:52:27Z</time>
      </trkpt>
      <trkpt lat="47.622337" lon="1.9404299">
        <ele>180.0</ele>
        <time>2022-04-14T08:52:28Z</time>
      </trkpt>
      <trkpt lat="47.622326" lon="1.9404436">
        <ele>180.0</ele>
        <time>2022-04-14T08:52:29Z</time>
      </trkpt>
      <trkpt lat="47.62232" lon="1.9404505">
        <ele>180.0</ele>
        <time>2022-04-14T08:52:30Z</time>
      </trkpt>
      <trkpt lat="47.62231" lon="1.9404609">
        <ele>179.0</ele>
        <time>2022-04-14T08:52:31Z</time>
      </trkpt>
      <trkpt lat="47.6223" lon="1.9404718">
        <ele>179.0</ele>
        <time>2022-04-14T08:52:32Z</time>
      </trkpt>
      <trkpt lat="47.622288" lon="1.9404829">
        <ele>178.0</ele>
        <time>2022-04-14T08:52:33Z</time>
      </trkpt>
      <trkpt lat="47.622276" lon="1.9404892">
        <ele>178.0</ele>
        <time>2022-04-14T08:52:34Z</time>
      </trkpt>
      <trkpt lat="47.62227" lon="1.9404949">
        <ele>178.0</ele>
        <time>2022-04-14T08:52:35Z</time>
      </trkpt>
      <trkpt lat="47.622257" lon="1.9404961">
        <ele>178.0</ele>
        <time>2022-04-14T08:52:36Z</time>
      </trkpt>
      <trkpt lat="47.622246" lon="1.9404982">
        <ele>178.0</ele>
        <time>2022-04-14T08:52:37Z</time>
      </trkpt>
      <trkpt lat="47.622234" lon="1.9404995">
        <ele>178.0</ele>
        <time>2022-04-14T08:52:38Z</time>
      </trkpt>
      <trkpt lat="47.622223" lon="1.9404982">
        <ele>178.0</ele>
        <time>2022-04-14T08:52:39Z</time>
      </trkpt>
      <trkpt lat="47.622215" lon="1.9405026">
        <ele>178.0</ele>
        <time>2022-04-14T08:52:40Z</time>
      </trkpt>
      <trkpt lat="47.622204" lon="1.9405068">
        <ele>178.0</ele>
        <time>2022-04-14T08:52:41Z</time>
      </trkpt>
      <trkpt lat="47.62219" lon="1.9405068">
        <ele>178.0</ele>
        <time>2022-04-14T08:52:42Z</time>
      </trkpt>
      <trkpt lat="47.622173" lon="1.940508">
        <ele>178.0</ele>
        <time>2022-04-14T08:52:43Z</time>
      </trkpt>
      <trkpt lat="47.62216" lon="1.9405159">
        <ele>178.0</ele>
        <time>2022-04-14T08:52:44Z</time>
      </trkpt>
      <trkpt lat="47.62215" lon="1.9405245">
        <ele>179.0</ele>
        <time>2022-04-14T08:52:45Z</time>
      </trkpt>
      <trkpt lat="47.62214" lon="1.9405295">
        <ele>179.0</ele>
        <time>2022-04-14T08:52:46Z</time>
      </trkpt>
      <trkpt lat="47.62213" lon="1.9405323">
        <ele>179.0</ele>
        <time>2022-04-14T08:52:47Z</time>
      </trkpt>
      <trkpt lat="47.62212" lon="1.9405347">
        <ele>179.0</ele>
        <time>2022-04-14T08:52:48Z</time>
      </trkpt>
      <trkpt lat="47.62211" lon="1.940536">
        <ele>179.0</ele>
        <time>2022-04-14T08:52:49Z</time>
      </trkpt>
      <trkpt lat="47.622097" lon="1.9405384">
        <ele>179.0</ele>
        <time>2022-04-14T08:52:50Z</time>
      </trkpt>
      <trkpt lat="47.62208" lon="1.940541">
        <ele>179.0</ele>
        <time>2022-04-14T08:52:51Z</time>
      </trkpt>
      <trkpt lat="47.622074" lon="1.9405448">
        <ele>178.0</ele>
        <time>2022-04-14T08:52:52Z</time>
      </trkpt>
      <trkpt lat="47.622063" lon="1.9405487">
        <ele>178.0</ele>
        <time>2022-04-14T08:52:53Z</time>
      </trkpt>
      <trkpt lat="47.622055" lon="1.9405539">
        <ele>178.0</ele>
        <time>2022-04-14T08:52:54Z</time>
      </trkpt>
      <trkpt lat="47.622044" lon="1.9405608">
        <ele>178.0</ele>
        <time>2022-04-14T08:52:55Z</time>
      </trkpt>
      <trkpt lat="47.622032" lon="1.9405664">
        <ele>178.0</ele>
        <time>2022-04-14T08:52:56Z</time>
      </trkpt>
      <trkpt lat="47.62202" lon="1.9405665">
        <ele>178.0</ele>
        <time>2022-04-14T08:52:57Z</time>
      </trkpt>
      <trkpt lat="47.62201" lon="1.9405689">
        <ele>178.0</ele>
        <time>2022-04-14T08:52:58Z</time>
      </trkpt>
      <trkpt lat="47.621994" lon="1.940574">
        <ele>177.0</ele>
        <time>2022-04-14T08:52:59Z</time>
      </trkpt>
      <trkpt lat="47.621983" lon="1.9405764">
        <ele>177.0</ele>
        <time>2022-04-14T08:53:00Z</time>
      </trkpt>
      <trkpt lat="47.62197" lon="1.9405789">
        <ele>177.0</ele>
        <time>2022-04-14T08:53:01Z</time>
      </trkpt>
      <trkpt lat="47.621956" lon="1.9405831">
        <ele>177.0</ele>
        <time>2022-04-14T08:53:02Z</time>
      </trkpt>
      <trkpt lat="47.621944" lon="1.9405845">
        <ele>177.0</ele>
        <time>2022-04-14T08:53:03Z</time>
      </trkpt>
      <trkpt lat="47.621937" lon="1.9405861">
        <ele>177.0</ele>
        <time>2022-04-14T08:53:04Z</time>
      </trkpt>
      <trkpt lat="47.621925" lon="1.9405906">
        <ele>177.0</ele>
        <time>2022-04-14T08:53:05Z</time>
      </trkpt>
      <trkpt lat="47.621914" lon="1.9405948">
        <ele>177.0</ele>
        <time>2022-04-14T08:53:06Z</time>
      </trkpt>
      <trkpt lat="47.621906" lon="1.9406006">
        <ele>177.0</ele>
        <time>2022-04-14T08:53:07Z</time>
      </trkpt>
      <trkpt lat="47.621895" lon="1.9406087">
        <ele>177.0</ele>
        <time>2022-04-14T08:53:08Z</time>
      </trkpt>
      <trkpt lat="47.621887" lon="1.9406102">
        <ele>177.0</ele>
        <time>2022-04-14T08:53:09Z</time>
      </trkpt>
      <trkpt lat="47.621876" lon="1.9406157">
        <ele>177.0</ele>
        <time>2022-04-14T08:53:10Z</time>
      </trkpt>
      <trkpt lat="47.62187" lon="1.9406195">
        <ele>178.0</ele>
        <time>2022-04-14T08:53:11Z</time>
      </trkpt>
      <trkpt lat="47.62186" lon="1.9406253">
        <ele>178.0</ele>
        <time>2022-04-14T08:53:12Z</time>
      </trkpt>
      <trkpt lat="47.621853" lon="1.9406322">
        <ele>178.0</ele>
        <time>2022-04-14T08:53:13Z</time>
      </trkpt>
      <trkpt lat="47.621853" lon="1.9406322">
        <ele>178.0</ele>
        <time>2022-04-14T08:53:14Z</time>
      </trkpt>
      <trkpt lat="47.621838" lon="1.9406389">
        <ele>178.0</ele>
        <time>2022-04-14T08:53:15Z</time>
      </trkpt>
      <trkpt lat="47.621826" lon="1.9406421">
        <ele>178.0</ele>
        <time>2022-04-14T08:53:16Z</time>
      </trkpt>
      <trkpt lat="47.62181" lon="1.9406428">
        <ele>178.0</ele>
        <time>2022-04-14T08:53:17Z</time>
      </trkpt>
      <trkpt lat="47.6218" lon="1.9406422">
        <ele>178.0</ele>
        <time>2022-04-14T08:53:18Z</time>
      </trkpt>
      <trkpt lat="47.621788" lon="1.9406404">
        <ele>178.0</ele>
        <time>2022-04-14T08:53:19Z</time>
      </trkpt>
      <trkpt lat="47.62178" lon="1.9406431">
        <ele>178.0</ele>
        <time>2022-04-14T08:53:20Z</time>
      </trkpt>
      <trkpt lat="47.621765" lon="1.940645">
        <ele>178.0</ele>
        <time>2022-04-14T08:53:21Z</time>
      </trkpt>
      <trkpt lat="47.621754" lon="1.9406492">
        <ele>178.0</ele>
        <time>2022-04-14T08:53:22Z</time>
      </trkpt>
      <trkpt lat="47.62174" lon="1.9406523">
        <ele>178.0</ele>
        <time>2022-04-14T08:53:23Z</time>
      </trkpt>
      <trkpt lat="47.621723" lon="1.9406582">
        <ele>178.0</ele>
        <time>2022-04-14T08:53:24Z</time>
      </trkpt>
      <trkpt lat="47.621708" lon="1.9406654">
        <ele>178.0</ele>
        <time>2022-04-14T08:53:25Z</time>
      </trkpt>
      <trkpt lat="47.6217" lon="1.9406704">
        <ele>178.0</ele>
        <time>2022-04-14T08:53:26Z</time>
      </trkpt>
      <trkpt lat="47.621685" lon="1.9406769">
        <ele>178.0</ele>
        <time>2022-04-14T08:53:27Z</time>
      </trkpt>
      <trkpt lat="47.621674" lon="1.940685">
        <ele>178.0</ele>
        <time>2022-04-14T08:53:28Z</time>
      </trkpt>
      <trkpt lat="47.621662" lon="1.9406908">
        <ele>178.0</ele>
        <time>2022-04-14T08:53:29Z</time>
      </trkpt>
      <trkpt lat="47.621655" lon="1.9406945">
        <ele>178.0</ele>
        <time>2022-04-14T08:53:30Z</time>
      </trkpt>
      <trkpt lat="47.621647" lon="1.940694">
        <ele>178.0</ele>
        <time>2022-04-14T08:53:31Z</time>
      </trkpt>
      <trkpt lat="47.621635" lon="1.9406996">
        <ele>178.0</ele>
        <time>2022-04-14T08:53:32Z</time>
      </trkpt>
      <trkpt lat="47.621624" lon="1.9407023">
        <ele>178.0</ele>
        <time>2022-04-14T08:53:33Z</time>
      </trkpt>
      <trkpt lat="47.62161" lon="1.9407021">
        <ele>178.0</ele>
        <time>2022-04-14T08:53:34Z</time>
      </trkpt>
      <trkpt lat="47.621597" lon="1.940697">
        <ele>177.0</ele>
        <time>2022-04-14T08:53:35Z</time>
      </trkpt>
      <trkpt lat="47.621586" lon="1.9406978">
        <ele>177.0</ele>
        <time>2022-04-14T08:53:36Z</time>
      </trkpt>
      <trkpt lat="47.621574" lon="1.9406995">
        <ele>177.0</ele>
        <time>2022-04-14T08:53:37Z</time>
      </trkpt>
      <trkpt lat="47.621563" lon="1.9407064">
        <ele>177.0</ele>
        <time>2022-04-14T08:53:38Z</time>
      </trkpt>
      <trkpt lat="47.621555" lon="1.9407088">
        <ele>177.0</ele>
        <time>2022-04-14T08:53:39Z</time>
      </trkpt>
      <trkpt lat="47.621544" lon="1.9407128">
        <ele>177.0</ele>
        <time>2022-04-14T08:53:40Z</time>
      </trkpt>
      <trkpt lat="47.621536" lon="1.9407147">
        <ele>177.0</ele>
        <time>2022-04-14T08:53:41Z</time>
      </trkpt>
      <trkpt lat="47.621525" lon="1.9407176">
        <ele>177.0</ele>
        <time>2022-04-14T08:53:42Z</time>
      </trkpt>
      <trkpt lat="47.621513" lon="1.9407215">
        <ele>177.0</ele>
        <time>2022-04-14T08:53:43Z</time>
      </trkpt>
      <trkpt lat="47.621502" lon="1.9407263">
        <ele>177.0</ele>
        <time>2022-04-14T08:53:44Z</time>
      </trkpt>
      <trkpt lat="47.62149" lon="1.9407297">
        <ele>177.0</ele>
        <time>2022-04-14T08:53:45Z</time>
      </trkpt>
      <trkpt lat="47.621475" lon="1.9407339">
        <ele>177.0</ele>
        <time>2022-04-14T08:53:46Z</time>
      </trkpt>
      <trkpt lat="47.621464" lon="1.9407381">
        <ele>177.0</ele>
        <time>2022-04-14T08:53:47Z</time>
      </trkpt>
      <trkpt lat="47.621456" lon="1.940743">
        <ele>178.0</ele>
        <time>2022-04-14T08:53:48Z</time>
      </trkpt>
      <trkpt lat="47.621445" lon="1.94075">
        <ele>178.0</ele>
        <time>2022-04-14T08:53:49Z</time>
      </trkpt>
      <trkpt lat="47.621437" lon="1.940754">
        <ele>178.0</ele>
        <time>2022-04-14T08:53:50Z</time>
      </trkpt>
      <trkpt lat="47.62142" lon="1.9407597">
        <ele>177.0</ele>
        <time>2022-04-14T08:53:51Z</time>
      </trkpt>
      <trkpt lat="47.62141" lon="1.9407641">
        <ele>177.0</ele>
        <time>2022-04-14T08:53:52Z</time>
      </trkpt>
      <trkpt lat="47.6214" lon="1.9407681">
        <ele>177.0</ele>
        <time>2022-04-14T08:53:53Z</time>
      </trkpt>
      <trkpt lat="47.621387" lon="1.9407737">
        <ele>177.0</ele>
        <time>2022-04-14T08:53:54Z</time>
      </trkpt>
      <trkpt lat="47.621376" lon="1.9407767">
        <ele>178.0</ele>
        <time>2022-04-14T08:53:55Z</time>
      </trkpt>
      <trkpt lat="47.621365" lon="1.9407762">
        <ele>178.0</ele>
        <time>2022-04-14T08:53:56Z</time>
      </trkpt>
      <trkpt lat="47.621353" lon="1.9407781">
        <ele>178.0</ele>
        <time>2022-04-14T08:53:57Z</time>
      </trkpt>
      <trkpt lat="47.62134" lon="1.94078">
        <ele>178.0</ele>
        <time>2022-04-14T08:53:58Z</time>
      </trkpt>
      <trkpt lat="47.62133" lon="1.9407792">
        <ele>178.0</ele>
        <time>2022-04-14T08:53:59Z</time>
      </trkpt>
      <trkpt lat="47.62132" lon="1.9407803">
        <ele>178.0</ele>
        <time>2022-04-14T08:54:00Z</time>
      </trkpt>
      <trkpt lat="47.62131" lon="1.9407808">
        <ele>179.0</ele>
        <time>2022-04-14T08:54:01Z</time>
      </trkpt>
      <trkpt lat="47.6213" lon="1.9407785">
        <ele>179.0</ele>
        <time>2022-04-14T08:54:02Z</time>
      </trkpt>
      <trkpt lat="47.62129" lon="1.940779">
        <ele>179.0</ele>
        <time>2022-04-14T08:54:03Z</time>
      </trkpt>
      <trkpt lat="47.62128" lon="1.9407791">
        <ele>179.0</ele>
        <time>2022-04-14T08:54:04Z</time>
      </trkpt>
      <trkpt lat="47.621277" lon="1.9407805">
        <ele>179.0</ele>
        <time>2022-04-14T08:54:05Z</time>
      </trkpt>
      <trkpt lat="47.62127" lon="1.9407793">
        <ele>179.0</ele>
        <time>2022-04-14T08:54:06Z</time>
      </trkpt>
      <trkpt lat="47.621258" lon="1.9407847">
        <ele>179.0</ele>
        <time>2022-04-14T08:54:07Z</time>
      </trkpt>
      <trkpt lat="47.621243" lon="1.9407886">
        <ele>178.0</ele>
        <time>2022-04-14T08:54:08Z</time>
      </trkpt>
      <trkpt lat="47.62123" lon="1.9407952">
        <ele>178.0</ele>
        <time>2022-04-14T08:54:09Z</time>
      </trkpt>
      <trkpt lat="47.62122" lon="1.9408032">
        <ele>178.0</ele>
        <time>2022-04-14T08:54:10Z</time>
      </trkpt>
      <trkpt lat="47.621204" lon="1.9408115">
        <ele>178.0</ele>
        <time>2022-04-14T08:54:11Z</time>
      </trkpt>
      <trkpt lat="47.621185" lon="1.9408127">
        <ele>179.0</ele>
        <time>2022-04-14T08:54:12Z</time>
      </trkpt>
      <trkpt lat="47.62117" lon="1.9408141">
        <ele>179.0</ele>
        <time>2022-04-14T08:54:13Z</time>
      </trkpt>
      <trkpt lat="47.621162" lon="1.9408146">
        <ele>179.0</ele>
        <time>2022-04-14T08:54:14Z</time>
      </trkpt>
      <trkpt lat="47.62116" lon="1.9408135">
        <ele>178.0</ele>
        <time>2022-04-14T08:54:15Z</time>
      </trkpt>
      <trkpt lat="47.62115" lon="1.9408119">
        <ele>179.0</ele>
        <time>2022-04-14T08:54:16Z</time>
      </trkpt>
      <trkpt lat="47.621143" lon="1.9408116">
        <ele>179.0</ele>
        <time>2022-04-14T08:54:17Z</time>
      </trkpt>
      <trkpt lat="47.621136" lon="1.9408119">
        <ele>178.0</ele>
        <time>2022-04-14T08:54:18Z</time>
      </trkpt>
      <trkpt lat="47.621124" lon="1.9408119">
        <ele>178.0</ele>
        <time>2022-04-14T08:54:19Z</time>
      </trkpt>
      <trkpt lat="47.621117" lon="1.9408073">
        <ele>177.0</ele>
        <time>2022-04-14T08:54:20Z</time>
      </trkpt>
      <trkpt lat="47.621105" lon="1.9407918">
        <ele>178.0</ele>
        <time>2022-04-14T08:54:21Z</time>
      </trkpt>
      <trkpt lat="47.621094" lon="1.9407834">
        <ele>178.0</ele>
        <time>2022-04-14T08:54:22Z</time>
      </trkpt>
      <trkpt lat="47.621082" lon="1.940778">
        <ele>178.0</ele>
        <time>2022-04-14T08:54:23Z</time>
      </trkpt>
      <trkpt lat="47.62107" lon="1.940778">
        <ele>178.0</ele>
        <time>2022-04-14T08:54:24Z</time>
      </trkpt>
      <trkpt lat="47.621063" lon="1.9407814">
        <ele>178.0</ele>
        <time>2022-04-14T08:54:25Z</time>
      </trkpt>
      <trkpt lat="47.62106" lon="1.9407874">
        <ele>178.0</ele>
        <time>2022-04-14T08:54:26Z</time>
      </trkpt>
      <trkpt lat="47.621056" lon="1.9407881">
        <ele>179.0</ele>
        <time>2022-04-14T08:54:27Z</time>
      </trkpt>
      <trkpt lat="47.62105" lon="1.9407867">
        <ele>179.0</ele>
        <time>2022-04-14T08:54:28Z</time>
      </trkpt>
      <trkpt lat="47.62105" lon="1.9407867">
        <ele>179.0</ele>
        <time>2022-04-14T08:54:29Z</time>
      </trkpt>
      <trkpt lat="47.62105" lon="1.9407867">
        <ele>179.0</ele>
        <time>2022-04-14T08:54:30Z</time>
      </trkpt>
      <trkpt lat="47.621025" lon="1.9407859">
        <ele>179.0</ele>
        <time>2022-04-14T08:54:31Z</time>
      </trkpt>
      <trkpt lat="47.62101" lon="1.9407853">
        <ele>179.0</ele>
        <time>2022-04-14T08:54:32Z</time>
      </trkpt>
      <trkpt lat="47.620995" lon="1.9407879">
        <ele>179.0</ele>
        <time>2022-04-14T08:54:33Z</time>
      </trkpt>
      <trkpt lat="47.62098" lon="1.9407932">
        <ele>179.0</ele>
        <time>2022-04-14T08:54:34Z</time>
      </trkpt>
      <trkpt lat="47.62096" lon="1.9407939">
        <ele>179.0</ele>
        <time>2022-04-14T08:54:35Z</time>
      </trkpt>
      <trkpt lat="47.620945" lon="1.9407982">
        <ele>179.0</ele>
        <time>2022-04-14T08:54:36Z</time>
      </trkpt>
      <trkpt lat="47.620934" lon="1.9408015">
        <ele>179.0</ele>
        <time>2022-04-14T08:54:37Z</time>
      </trkpt>
      <trkpt lat="47.620922" lon="1.9408079">
        <ele>178.0</ele>
        <time>2022-04-14T08:54:38Z</time>
      </trkpt>
      <trkpt lat="47.62091" lon="1.9408134">
        <ele>178.0</ele>
        <time>2022-04-14T08:54:39Z</time>
      </trkpt>
      <trkpt lat="47.6209" lon="1.9408233">
        <ele>177.0</ele>
        <time>2022-04-14T08:54:40Z</time>
      </trkpt>
      <trkpt lat="47.620888" lon="1.9408296">
        <ele>177.0</ele>
        <time>2022-04-14T08:54:41Z</time>
      </trkpt>
      <trkpt lat="47.620872" lon="1.9408325">
        <ele>177.0</ele>
        <time>2022-04-14T08:54:42Z</time>
      </trkpt>
      <trkpt lat="47.620857" lon="1.9408324">
        <ele>177.0</ele>
        <time>2022-04-14T08:54:43Z</time>
      </trkpt>
      <trkpt lat="47.620846" lon="1.9408269">
        <ele>177.0</ele>
        <time>2022-04-14T08:54:44Z</time>
      </trkpt>
      <trkpt lat="47.62083" lon="1.9408319">
        <ele>177.0</ele>
        <time>2022-04-14T08:54:45Z</time>
      </trkpt>
      <trkpt lat="47.620815" lon="1.9408336">
        <ele>177.0</ele>
        <time>2022-04-14T08:54:46Z</time>
      </trkpt>
      <trkpt lat="47.6208" lon="1.9408385">
        <ele>177.0</ele>
        <time>2022-04-14T08:54:47Z</time>
      </trkpt>
      <trkpt lat="47.62079" lon="1.9408457">
        <ele>177.0</ele>
        <time>2022-04-14T08:54:48Z</time>
      </trkpt>
      <trkpt lat="47.620773" lon="1.940855">
        <ele>177.0</ele>
        <time>2022-04-14T08:54:49Z</time>
      </trkpt>
      <trkpt lat="47.62076" lon="1.9408579">
        <ele>177.0</ele>
        <time>2022-04-14T08:54:50Z</time>
      </trkpt>
      <trkpt lat="47.620747" lon="1.9408627">
        <ele>177.0</ele>
        <time>2022-04-14T08:54:51Z</time>
      </trkpt>
      <trkpt lat="47.62074" lon="1.9408629">
        <ele>177.0</ele>
        <time>2022-04-14T08:54:52Z</time>
      </trkpt>
      <trkpt lat="47.620728" lon="1.9408641">
        <ele>177.0</ele>
        <time>2022-04-14T08:54:53Z</time>
      </trkpt>
      <trkpt lat="47.620716" lon="1.9408649">
        <ele>177.0</ele>
        <time>2022-04-14T08:54:54Z</time>
      </trkpt>
      <trkpt lat="47.620705" lon="1.9408674">
        <ele>177.0</ele>
        <time>2022-04-14T08:54:55Z</time>
      </trkpt>
      <trkpt lat="47.620693" lon="1.9408726">
        <ele>177.0</ele>
        <time>2022-04-14T08:54:56Z</time>
      </trkpt>
      <trkpt lat="47.620674" lon="1.9408715">
        <ele>177.0</ele>
        <time>2022-04-14T08:54:57Z</time>
      </trkpt>
      <trkpt lat="47.62066" lon="1.9408687">
        <ele>177.0</ele>
        <time>2022-04-14T08:54:58Z</time>
      </trkpt>
      <trkpt lat="47.62065" lon="1.9408695">
        <ele>176.0</ele>
        <time>2022-04-14T08:54:59Z</time>
      </trkpt>
      <trkpt lat="47.62065" lon="1.9408695">
        <ele>176.0</ele>
        <time>2022-04-14T08:54:59Z</time>
      </trkpt>
      <trkpt lat="47.620625" lon="1.9408783">
        <ele>176.0</ele>
        <time>2022-04-14T08:55:01Z</time>
      </trkpt>
      <trkpt lat="47.620613" lon="1.9408797">
        <ele>176.0</ele>
        <time>2022-04-14T08:55:02Z</time>
      </trkpt>
      <trkpt lat="47.6206" lon="1.9408791">
        <ele>177.0</ele>
        <time>2022-04-14T08:55:03Z</time>
      </trkpt>
      <trkpt lat="47.620586" lon="1.9408855">
        <ele>177.0</ele>
        <time>2022-04-14T08:55:04Z</time>
      </trkpt>
      <trkpt lat="47.620575" lon="1.9408906">
        <ele>176.0</ele>
        <time>2022-04-14T08:55:05Z</time>
      </trkpt>
      <trkpt lat="47.62056" lon="1.9408877">
        <ele>175.0</ele>
        <time>2022-04-14T08:55:06Z</time>
      </trkpt>
      <trkpt lat="47.620544" lon="1.9408892">
        <ele>175.0</ele>
        <time>2022-04-14T08:55:07Z</time>
      </trkpt>
      <trkpt lat="47.620537" lon="1.9408913">
        <ele>175.0</ele>
        <time>2022-04-14T08:55:08Z</time>
      </trkpt>
      <trkpt lat="47.62053" lon="1.9408925">
        <ele>175.0</ele>
        <time>2022-04-14T08:55:09Z</time>
      </trkpt>
      <trkpt lat="47.620518" lon="1.9408939">
        <ele>174.0</ele>
        <time>2022-04-14T08:55:10Z</time>
      </trkpt>
      <trkpt lat="47.620502" lon="1.9408922">
        <ele>174.0</ele>
        <time>2022-04-14T08:55:11Z</time>
      </trkpt>
      <trkpt lat="47.620487" lon="1.9409008">
        <ele>174.0</ele>
        <time>2022-04-14T08:55:12Z</time>
      </trkpt>
      <trkpt lat="47.620476" lon="1.9409089">
        <ele>175.0</ele>
        <time>2022-04-14T08:55:13Z</time>
      </trkpt>
      <trkpt lat="47.620457" lon="1.9409112">
        <ele>175.0</ele>
        <time>2022-04-14T08:55:14Z</time>
      </trkpt>
      <trkpt lat="47.620445" lon="1.9409128">
        <ele>175.0</ele>
        <time>2022-04-14T08:55:15Z</time>
      </trkpt>
      <trkpt lat="47.620434" lon="1.9409137">
        <ele>175.0</ele>
        <time>2022-04-14T08:55:16Z</time>
      </trkpt>
      <trkpt lat="47.620422" lon="1.9409102">
        <ele>176.0</ele>
        <time>2022-04-14T08:55:17Z</time>
      </trkpt>
      <trkpt lat="47.620403" lon="1.9409045">
        <ele>177.0</ele>
        <time>2022-04-14T08:55:18Z</time>
      </trkpt>
      <trkpt lat="47.62039" lon="1.9409025">
        <ele>177.0</ele>
        <time>2022-04-14T08:55:19Z</time>
      </trkpt>
      <trkpt lat="47.620384" lon="1.9409004">
        <ele>177.0</ele>
        <time>2022-04-14T08:55:20Z</time>
      </trkpt>
      <trkpt lat="47.620373" lon="1.9408983">
        <ele>177.0</ele>
        <time>2022-04-14T08:55:21Z</time>
      </trkpt>
      <trkpt lat="47.620365" lon="1.940891">
        <ele>176.0</ele>
        <time>2022-04-14T08:55:22Z</time>
      </trkpt>
      <trkpt lat="47.620354" lon="1.9408901">
        <ele>176.0</ele>
        <time>2022-04-14T08:55:23Z</time>
      </trkpt>
      <trkpt lat="47.620346" lon="1.9408898">
        <ele>175.0</ele>
        <time>2022-04-14T08:55:24Z</time>
      </trkpt>
      <trkpt lat="47.620335" lon="1.9408871">
        <ele>175.0</ele>
        <time>2022-04-14T08:55:25Z</time>
      </trkpt>
      <trkpt lat="47.62032" lon="1.9408861">
        <ele>175.0</ele>
        <time>2022-04-14T08:55:26Z</time>
      </trkpt>
      <trkpt lat="47.620304" lon="1.9408836">
        <ele>176.0</ele>
        <time>2022-04-14T08:55:27Z</time>
      </trkpt>
      <trkpt lat="47.620285" lon="1.9408901">
        <ele>176.0</ele>
        <time>2022-04-14T08:55:28Z</time>
      </trkpt>
      <trkpt lat="47.620277" lon="1.9408909">
        <ele>176.0</ele>
        <time>2022-04-14T08:55:29Z</time>
      </trkpt>
      <trkpt lat="47.620266" lon="1.9408926">
        <ele>175.0</ele>
        <time>2022-04-14T08:55:30Z</time>
      </trkpt>
      <trkpt lat="47.620255" lon="1.9408935">
        <ele>175.0</ele>
        <time>2022-04-14T08:55:31Z</time>
      </trkpt>
      <trkpt lat="47.62024" lon="1.9408876">
        <ele>176.0</ele>
        <time>2022-04-14T08:55:32Z</time>
      </trkpt>
      <trkpt lat="47.620228" lon="1.940887">
        <ele>177.0</ele>
        <time>2022-04-14T08:55:33Z</time>
      </trkpt>
      <trkpt lat="47.620216" lon="1.940888">
        <ele>177.0</ele>
        <time>2022-04-14T08:55:34Z</time>
      </trkpt>
      <trkpt lat="47.6202" lon="1.9408898">
        <ele>177.0</ele>
        <time>2022-04-14T08:55:35Z</time>
      </trkpt>
      <trkpt lat="47.620186" lon="1.9408889">
        <ele>177.0</ele>
        <time>2022-04-14T08:55:36Z</time>
      </trkpt>
      <trkpt lat="47.620174" lon="1.9408938">
        <ele>177.0</ele>
        <time>2022-04-14T08:55:37Z</time>
      </trkpt>
      <trkpt lat="47.620163" lon="1.9408956">
        <ele>177.0</ele>
        <time>2022-04-14T08:55:38Z</time>
      </trkpt>
      <trkpt lat="47.62015" lon="1.9409012">
        <ele>178.0</ele>
        <time>2022-04-14T08:55:39Z</time>
      </trkpt>
      <trkpt lat="47.620136" lon="1.9409077">
        <ele>178.0</ele>
        <time>2022-04-14T08:55:40Z</time>
      </trkpt>
      <trkpt lat="47.62012" lon="1.9409139">
        <ele>178.0</ele>
        <time>2022-04-14T08:55:41Z</time>
      </trkpt>
      <trkpt lat="47.620106" lon="1.9409165">
        <ele>178.0</ele>
        <time>2022-04-14T08:55:42Z</time>
      </trkpt>
      <trkpt lat="47.620094" lon="1.9409211">
        <ele>178.0</ele>
        <time>2022-04-14T08:55:43Z</time>
      </trkpt>
      <trkpt lat="47.620075" lon="1.9409262">
        <ele>178.0</ele>
        <time>2022-04-14T08:55:44Z</time>
      </trkpt>
      <trkpt lat="47.62006" lon="1.9409271">
        <ele>178.0</ele>
        <time>2022-04-14T08:55:45Z</time>
      </trkpt>
      <trkpt lat="47.62005" lon="1.940928">
        <ele>177.0</ele>
        <time>2022-04-14T08:55:46Z</time>
      </trkpt>
      <trkpt lat="47.62004" lon="1.940926">
        <ele>177.0</ele>
        <time>2022-04-14T08:55:47Z</time>
      </trkpt>
      <trkpt lat="47.62003" lon="1.9409236">
        <ele>178.0</ele>
        <time>2022-04-14T08:55:48Z</time>
      </trkpt>
      <trkpt lat="47.62002" lon="1.9409262">
        <ele>178.0</ele>
        <time>2022-04-14T08:55:49Z</time>
      </trkpt>
      <trkpt lat="47.62001" lon="1.9409304">
        <ele>178.0</ele>
        <time>2022-04-14T08:55:50Z</time>
      </trkpt>
      <trkpt lat="47.619995" lon="1.940933">
        <ele>178.0</ele>
        <time>2022-04-14T08:55:51Z</time>
      </trkpt>
      <trkpt lat="47.619984" lon="1.940932">
        <ele>179.0</ele>
        <time>2022-04-14T08:55:52Z</time>
      </trkpt>
      <trkpt lat="47.619972" lon="1.9409301">
        <ele>179.0</ele>
        <time>2022-04-14T08:55:53Z</time>
      </trkpt>
      <trkpt lat="47.619957" lon="1.9409359">
        <ele>179.0</ele>
        <time>2022-04-14T08:55:54Z</time>
      </trkpt>
      <trkpt lat="47.619946" lon="1.9409423">
        <ele>179.0</ele>
        <time>2022-04-14T08:55:55Z</time>
      </trkpt>
      <trkpt lat="47.619934" lon="1.940949">
        <ele>179.0</ele>
        <time>2022-04-14T08:55:56Z</time>
      </trkpt>
      <trkpt lat="47.619926" lon="1.9409559">
        <ele>179.0</ele>
        <time>2022-04-14T08:55:57Z</time>
      </trkpt>
      <trkpt lat="47.619915" lon="1.9409618">
        <ele>178.0</ele>
        <time>2022-04-14T08:55:58Z</time>
      </trkpt>
      <trkpt lat="47.619907" lon="1.9409658">
        <ele>178.0</ele>
        <time>2022-04-14T08:55:59Z</time>
      </trkpt>
      <trkpt lat="47.619892" lon="1.94097">
        <ele>178.0</ele>
        <time>2022-04-14T08:56:00Z</time>
      </trkpt>
      <trkpt lat="47.61988" lon="1.9409688">
        <ele>178.0</ele>
        <time>2022-04-14T08:56:01Z</time>
      </trkpt>
      <trkpt lat="47.619865" lon="1.9409735">
        <ele>178.0</ele>
        <time>2022-04-14T08:56:02Z</time>
      </trkpt>
      <trkpt lat="47.61985" lon="1.940976">
        <ele>178.0</ele>
        <time>2022-04-14T08:56:03Z</time>
      </trkpt>
      <trkpt lat="47.61984" lon="1.9409771">
        <ele>178.0</ele>
        <time>2022-04-14T08:56:04Z</time>
      </trkpt>
      <trkpt lat="47.61983" lon="1.9409825">
        <ele>178.0</ele>
        <time>2022-04-14T08:56:05Z</time>
      </trkpt>
      <trkpt lat="47.61982" lon="1.9409821">
        <ele>177.0</ele>
        <time>2022-04-14T08:56:06Z</time>
      </trkpt>
      <trkpt lat="47.619804" lon="1.940992">
        <ele>178.0</ele>
        <time>2022-04-14T08:56:07Z</time>
      </trkpt>
      <trkpt lat="47.619793" lon="1.9409995">
        <ele>178.0</ele>
        <time>2022-04-14T08:56:08Z</time>
      </trkpt>
      <trkpt lat="47.619778" lon="1.9410077">
        <ele>178.0</ele>
        <time>2022-04-14T08:56:09Z</time>
      </trkpt>
      <trkpt lat="47.619762" lon="1.941019">
        <ele>179.0</ele>
        <time>2022-04-14T08:56:10Z</time>
      </trkpt>
      <trkpt lat="47.619747" lon="1.9410286">
        <ele>179.0</ele>
        <time>2022-04-14T08:56:11Z</time>
      </trkpt>
      <trkpt lat="47.61973" lon="1.9410324">
        <ele>179.0</ele>
        <time>2022-04-14T08:56:12Z</time>
      </trkpt>
      <trkpt lat="47.61972" lon="1.9410349">
        <ele>179.0</ele>
        <time>2022-04-14T08:56:13Z</time>
      </trkpt>
      <trkpt lat="47.619705" lon="1.9410337">
        <ele>180.0</ele>
        <time>2022-04-14T08:56:14Z</time>
      </trkpt>
      <trkpt lat="47.61969" lon="1.9410391">
        <ele>180.0</ele>
        <time>2022-04-14T08:56:15Z</time>
      </trkpt>
      <trkpt lat="47.619682" lon="1.9410493">
        <ele>180.0</ele>
        <time>2022-04-14T08:56:16Z</time>
      </trkpt>
      <trkpt lat="47.61967" lon="1.9410582">
        <ele>180.0</ele>
        <time>2022-04-14T08:56:17Z</time>
      </trkpt>
      <trkpt lat="47.619663" lon="1.9410623">
        <ele>179.0</ele>
        <time>2022-04-14T08:56:18Z</time>
      </trkpt>
      <trkpt lat="47.61965" lon="1.9410607">
        <ele>179.0</ele>
        <time>2022-04-14T08:56:19Z</time>
      </trkpt>
      <trkpt lat="47.61964" lon="1.9410564">
        <ele>179.0</ele>
        <time>2022-04-14T08:56:20Z</time>
      </trkpt>
      <trkpt lat="47.619625" lon="1.9410535">
        <ele>180.0</ele>
        <time>2022-04-14T08:56:21Z</time>
      </trkpt>
      <trkpt lat="47.619614" lon="1.9410498">
        <ele>180.0</ele>
        <time>2022-04-14T08:56:22Z</time>
      </trkpt>
      <trkpt lat="47.619602" lon="1.941051">
        <ele>180.0</ele>
        <time>2022-04-14T08:56:23Z</time>
      </trkpt>
      <trkpt lat="47.61959" lon="1.9410502">
        <ele>180.0</ele>
        <time>2022-04-14T08:56:24Z</time>
      </trkpt>
      <trkpt lat="47.61958" lon="1.9410499">
        <ele>181.0</ele>
        <time>2022-04-14T08:56:25Z</time>
      </trkpt>
      <trkpt lat="47.619568" lon="1.941051">
        <ele>181.0</ele>
        <time>2022-04-14T08:56:26Z</time>
      </trkpt>
      <trkpt lat="47.619556" lon="1.9410506">
        <ele>181.0</ele>
        <time>2022-04-14T08:56:28Z</time>
      </trkpt>
      <trkpt lat="47.61954" lon="1.9410497">
        <ele>181.0</ele>
        <time>2022-04-14T08:56:29Z</time>
      </trkpt>
      <trkpt lat="47.61953" lon="1.9410508">
        <ele>181.0</ele>
        <time>2022-04-14T08:56:30Z</time>
      </trkpt>
      <trkpt lat="47.61952" lon="1.9410524">
        <ele>182.0</ele>
        <time>2022-04-14T08:56:31Z</time>
      </trkpt>
      <trkpt lat="47.619507" lon="1.9410474">
        <ele>182.0</ele>
        <time>2022-04-14T08:56:32Z</time>
      </trkpt>
      <trkpt lat="47.6195" lon="1.9410518">
        <ele>183.0</ele>
        <time>2022-04-14T08:56:33Z</time>
      </trkpt>
      <trkpt lat="47.619484" lon="1.9410574">
        <ele>183.0</ele>
        <time>2022-04-14T08:56:34Z</time>
      </trkpt>
      <trkpt lat="47.619473" lon="1.9410597">
        <ele>183.0</ele>
        <time>2022-04-14T08:56:35Z</time>
      </trkpt>
      <trkpt lat="47.619457" lon="1.9410585">
        <ele>184.0</ele>
        <time>2022-04-14T08:56:36Z</time>
      </trkpt>
      <trkpt lat="47.619446" lon="1.9410559">
        <ele>184.0</ele>
        <time>2022-04-14T08:56:37Z</time>
      </trkpt>
      <trkpt lat="47.61943" lon="1.9410572">
        <ele>184.0</ele>
        <time>2022-04-14T08:56:38Z</time>
      </trkpt>
      <trkpt lat="47.61942" lon="1.9410614">
        <ele>184.0</ele>
        <time>2022-04-14T08:56:39Z</time>
      </trkpt>
      <trkpt lat="47.6194" lon="1.941062">
        <ele>184.0</ele>
        <time>2022-04-14T08:56:40Z</time>
      </trkpt>
      <trkpt lat="47.61939" lon="1.9410651">
        <ele>184.0</ele>
        <time>2022-04-14T08:56:41Z</time>
      </trkpt>
      <trkpt lat="47.619373" lon="1.9410673">
        <ele>184.0</ele>
        <time>2022-04-14T08:56:42Z</time>
      </trkpt>
      <trkpt lat="47.61936" lon="1.941067">
        <ele>183.0</ele>
        <time>2022-04-14T08:56:43Z</time>
      </trkpt>
      <trkpt lat="47.619354" lon="1.941068">
        <ele>183.0</ele>
        <time>2022-04-14T08:56:44Z</time>
      </trkpt>
      <trkpt lat="47.619343" lon="1.9410733">
        <ele>182.0</ele>
        <time>2022-04-14T08:56:45Z</time>
      </trkpt>
      <trkpt lat="47.619335" lon="1.9410797">
        <ele>182.0</ele>
        <time>2022-04-14T08:56:46Z</time>
      </trkpt>
      <trkpt lat="47.619328" lon="1.9410807">
        <ele>182.0</ele>
        <time>2022-04-14T08:56:47Z</time>
      </trkpt>
      <trkpt lat="47.61932" lon="1.9410776">
        <ele>182.0</ele>
        <time>2022-04-14T08:56:48Z</time>
      </trkpt>
      <trkpt lat="47.619312" lon="1.9410785">
        <ele>182.0</ele>
        <time>2022-04-14T08:56:49Z</time>
      </trkpt>
      <trkpt lat="47.619297" lon="1.9410808">
        <ele>182.0</ele>
        <time>2022-04-14T08:56:50Z</time>
      </trkpt>
      <trkpt lat="47.61928" lon="1.9410826">
        <ele>182.0</ele>
        <time>2022-04-14T08:56:51Z</time>
      </trkpt>
      <trkpt lat="47.619274" lon="1.9410801">
        <ele>182.0</ele>
        <time>2022-04-14T08:56:52Z</time>
      </trkpt>
      <trkpt lat="47.619263" lon="1.941081">
        <ele>183.0</ele>
        <time>2022-04-14T08:56:53Z</time>
      </trkpt>
      <trkpt lat="47.619255" lon="1.9410801">
        <ele>183.0</ele>
        <time>2022-04-14T08:56:54Z</time>
      </trkpt>
      <trkpt lat="47.619244" lon="1.9410917">
        <ele>183.0</ele>
        <time>2022-04-14T08:56:55Z</time>
      </trkpt>
      <trkpt lat="47.61924" lon="1.9411014">
        <ele>183.0</ele>
        <time>2022-04-14T08:56:56Z</time>
      </trkpt>
      <trkpt lat="47.61923" lon="1.9411105">
        <ele>183.0</ele>
        <time>2022-04-14T08:56:57Z</time>
      </trkpt>
      <trkpt lat="47.619225" lon="1.9411197">
        <ele>183.0</ele>
        <time>2022-04-14T08:56:58Z</time>
      </trkpt>
      <trkpt lat="47.619217" lon="1.9411327">
        <ele>184.0</ele>
        <time>2022-04-14T08:56:59Z</time>
      </trkpt>
      <trkpt lat="47.619213" lon="1.941141">
        <ele>184.0</ele>
        <time>2022-04-14T08:57:00Z</time>
      </trkpt>
      <trkpt lat="47.61921" lon="1.9411577">
        <ele>184.0</ele>
        <time>2022-04-14T08:57:01Z</time>
      </trkpt>
      <trkpt lat="47.619205" lon="1.9411751">
        <ele>183.0</ele>
        <time>2022-04-14T08:57:02Z</time>
      </trkpt>
      <trkpt lat="47.6192" lon="1.9411906">
        <ele>183.0</ele>
        <time>2022-04-14T08:57:03Z</time>
      </trkpt>
      <trkpt lat="47.619194" lon="1.9412032">
        <ele>184.0</ele>
        <time>2022-04-14T08:57:04Z</time>
      </trkpt>
      <trkpt lat="47.61919" lon="1.9412148">
        <ele>184.0</ele>
        <time>2022-04-14T08:57:05Z</time>
      </trkpt>
      <trkpt lat="47.619183" lon="1.9412274">
        <ele>185.0</ele>
        <time>2022-04-14T08:57:06Z</time>
      </trkpt>
      <trkpt lat="47.619175" lon="1.941246">
        <ele>185.0</ele>
        <time>2022-04-14T08:57:07Z</time>
      </trkpt>
      <trkpt lat="47.619175" lon="1.9412559">
        <ele>185.0</ele>
        <time>2022-04-14T08:57:08Z</time>
      </trkpt>
      <trkpt lat="47.61917" lon="1.9412704">
        <ele>185.0</ele>
        <time>2022-04-14T08:57:09Z</time>
      </trkpt>
      <trkpt lat="47.619167" lon="1.9412924">
        <ele>184.0</ele>
        <time>2022-04-14T08:57:10Z</time>
      </trkpt>
      <trkpt lat="47.61916" lon="1.9413147">
        <ele>184.0</ele>
        <time>2022-04-14T08:57:11Z</time>
      </trkpt>
      <trkpt lat="47.619156" lon="1.9413373">
        <ele>183.0</ele>
        <time>2022-04-14T08:57:12Z</time>
      </trkpt>
      <trkpt lat="47.619144" lon="1.941359">
        <ele>183.0</ele>
        <time>2022-04-14T08:57:13Z</time>
      </trkpt>
      <trkpt lat="47.619144" lon="1.9413774">
        <ele>183.0</ele>
        <time>2022-04-14T08:57:14Z</time>
      </trkpt>
      <trkpt lat="47.619144" lon="1.94139">
        <ele>183.0</ele>
        <time>2022-04-14T08:57:15Z</time>
      </trkpt>
      <trkpt lat="47.61915" lon="1.9414028">
        <ele>183.0</ele>
        <time>2022-04-14T08:57:16Z</time>
      </trkpt>
      <trkpt lat="47.619152" lon="1.941414">
        <ele>183.0</ele>
        <time>2022-04-14T08:57:17Z</time>
      </trkpt>
      <trkpt lat="47.619156" lon="1.9414299">
        <ele>182.0</ele>
        <time>2022-04-14T08:57:18Z</time>
      </trkpt>
      <trkpt lat="47.61916" lon="1.941446">
        <ele>182.0</ele>
        <time>2022-04-14T08:57:19Z</time>
      </trkpt>
      <trkpt lat="47.619164" lon="1.9414662">
        <ele>183.0</ele>
        <time>2022-04-14T08:57:20Z</time>
      </trkpt>
      <trkpt lat="47.619167" lon="1.9414866">
        <ele>183.0</ele>
        <time>2022-04-14T08:57:21Z</time>
      </trkpt>
      <trkpt lat="47.61917" lon="1.9415041">
        <ele>184.0</ele>
        <time>2022-04-14T08:57:22Z</time>
      </trkpt>
      <trkpt lat="47.619175" lon="1.9415205">
        <ele>185.0</ele>
        <time>2022-04-14T08:57:23Z</time>
      </trkpt>
      <trkpt lat="47.61918" lon="1.9415374">
        <ele>185.0</ele>
        <time>2022-04-14T08:57:24Z</time>
      </trkpt>
      <trkpt lat="47.61918" lon="1.9415504">
        <ele>186.0</ele>
        <time>2022-04-14T08:57:25Z</time>
      </trkpt>
      <trkpt lat="47.619186" lon="1.941568">
        <ele>186.0</ele>
        <time>2022-04-14T08:57:26Z</time>
      </trkpt>
      <trkpt lat="47.619186" lon="1.9415851">
        <ele>187.0</ele>
        <time>2022-04-14T08:57:27Z</time>
      </trkpt>
      <trkpt lat="47.619186" lon="1.941603">
        <ele>187.0</ele>
        <time>2022-04-14T08:57:28Z</time>
      </trkpt>
      <trkpt lat="47.619183" lon="1.941618">
        <ele>187.0</ele>
        <time>2022-04-14T08:57:29Z</time>
      </trkpt>
      <trkpt lat="47.619186" lon="1.9416386">
        <ele>187.0</ele>
        <time>2022-04-14T08:57:30Z</time>
      </trkpt>
      <trkpt lat="47.61919" lon="1.9416546">
        <ele>187.0</ele>
        <time>2022-04-14T08:57:31Z</time>
      </trkpt>
      <trkpt lat="47.61919" lon="1.9416689">
        <ele>187.0</ele>
        <time>2022-04-14T08:57:32Z</time>
      </trkpt>
      <trkpt lat="47.619194" lon="1.9416888">
        <ele>187.0</ele>
        <time>2022-04-14T08:57:33Z</time>
      </trkpt>
      <trkpt lat="47.619194" lon="1.9417074">
        <ele>187.0</ele>
        <time>2022-04-14T08:57:34Z</time>
      </trkpt>
      <trkpt lat="47.619194" lon="1.9417276">
        <ele>187.0</ele>
        <time>2022-04-14T08:57:35Z</time>
      </trkpt>
      <trkpt lat="47.619194" lon="1.9417448">
        <ele>188.0</ele>
        <time>2022-04-14T08:57:36Z</time>
      </trkpt>
      <trkpt lat="47.61919" lon="1.9417642">
        <ele>188.0</ele>
        <time>2022-04-14T08:57:37Z</time>
      </trkpt>
      <trkpt lat="47.61919" lon="1.9417797">
        <ele>188.0</ele>
        <time>2022-04-14T08:57:38Z</time>
      </trkpt>
      <trkpt lat="47.61919" lon="1.9417979">
        <ele>188.0</ele>
        <time>2022-04-14T08:57:39Z</time>
      </trkpt>
      <trkpt lat="47.61919" lon="1.941815">
        <ele>189.0</ele>
        <time>2022-04-14T08:57:40Z</time>
      </trkpt>
      <trkpt lat="47.61919" lon="1.9418278">
        <ele>189.0</ele>
        <time>2022-04-14T08:57:41Z</time>
      </trkpt>
      <trkpt lat="47.619186" lon="1.9418424">
        <ele>189.0</ele>
        <time>2022-04-14T08:57:42Z</time>
      </trkpt>
      <trkpt lat="47.619186" lon="1.9418627">
        <ele>189.0</ele>
        <time>2022-04-14T08:57:43Z</time>
      </trkpt>
      <trkpt lat="47.61919" lon="1.941878">
        <ele>189.0</ele>
        <time>2022-04-14T08:57:44Z</time>
      </trkpt>
      <trkpt lat="47.61919" lon="1.9418925">
        <ele>189.0</ele>
        <time>2022-04-14T08:57:45Z</time>
      </trkpt>
      <trkpt lat="47.61919" lon="1.941908">
        <ele>189.0</ele>
        <time>2022-04-14T08:57:46Z</time>
      </trkpt>
      <trkpt lat="47.61919" lon="1.9419223">
        <ele>189.0</ele>
        <time>2022-04-14T08:57:47Z</time>
      </trkpt>
      <trkpt lat="47.619186" lon="1.9419388">
        <ele>189.0</ele>
        <time>2022-04-14T08:57:48Z</time>
      </trkpt>
      <trkpt lat="47.619186" lon="1.9419545">
        <ele>188.0</ele>
        <time>2022-04-14T08:57:49Z</time>
      </trkpt>
      <trkpt lat="47.619183" lon="1.941976">
        <ele>188.0</ele>
        <time>2022-04-14T08:57:50Z</time>
      </trkpt>
      <trkpt lat="47.619183" lon="1.9419994">
        <ele>188.0</ele>
        <time>2022-04-14T08:57:51Z</time>
      </trkpt>
      <trkpt lat="47.619183" lon="1.9420186">
        <ele>188.0</ele>
        <time>2022-04-14T08:57:52Z</time>
      </trkpt>
      <trkpt lat="47.619183" lon="1.942043">
        <ele>189.0</ele>
        <time>2022-04-14T08:57:53Z</time>
      </trkpt>
      <trkpt lat="47.619183" lon="1.9420623">
        <ele>189.0</ele>
        <time>2022-04-14T08:57:54Z</time>
      </trkpt>
      <trkpt lat="47.619183" lon="1.9420748">
        <ele>189.0</ele>
        <time>2022-04-14T08:57:55Z</time>
      </trkpt>
      <trkpt lat="47.619183" lon="1.9420879">
        <ele>189.0</ele>
        <time>2022-04-14T08:57:56Z</time>
      </trkpt>
      <trkpt lat="47.619186" lon="1.9421011">
        <ele>189.0</ele>
        <time>2022-04-14T08:57:57Z</time>
      </trkpt>
      <trkpt lat="47.619183" lon="1.9421134">
        <ele>189.0</ele>
        <time>2022-04-14T08:57:58Z</time>
      </trkpt>
      <trkpt lat="47.619186" lon="1.9421281">
        <ele>189.0</ele>
        <time>2022-04-14T08:57:59Z</time>
      </trkpt>
      <trkpt lat="47.619186" lon="1.9421417">
        <ele>189.0</ele>
        <time>2022-04-14T08:58:00Z</time>
      </trkpt>
      <trkpt lat="47.619186" lon="1.9421579">
        <ele>189.0</ele>
        <time>2022-04-14T08:58:01Z</time>
      </trkpt>
      <trkpt lat="47.619186" lon="1.9421821">
        <ele>189.0</ele>
        <time>2022-04-14T08:58:02Z</time>
      </trkpt>
      <trkpt lat="47.619183" lon="1.9422052">
        <ele>190.0</ele>
        <time>2022-04-14T08:58:03Z</time>
      </trkpt>
      <trkpt lat="47.61919" lon="1.9422256">
        <ele>190.0</ele>
        <time>2022-04-14T08:58:04Z</time>
      </trkpt>
      <trkpt lat="47.619198" lon="1.9422438">
        <ele>191.0</ele>
        <time>2022-04-14T08:58:05Z</time>
      </trkpt>
      <trkpt lat="47.619205" lon="1.9422603">
        <ele>191.0</ele>
        <time>2022-04-14T08:58:06Z</time>
      </trkpt>
      <trkpt lat="47.619213" lon="1.9422748">
        <ele>192.0</ele>
        <time>2022-04-14T08:58:07Z</time>
      </trkpt>
      <trkpt lat="47.61922" lon="1.9422941">
        <ele>191.0</ele>
        <time>2022-04-14T08:58:08Z</time>
      </trkpt>
      <trkpt lat="47.619225" lon="1.9423083">
        <ele>191.0</ele>
        <time>2022-04-14T08:58:09Z</time>
      </trkpt>
      <trkpt lat="47.61923" lon="1.9423238">
        <ele>191.0</ele>
        <time>2022-04-14T08:58:10Z</time>
      </trkpt>
      <trkpt lat="47.619236" lon="1.9423407">
        <ele>191.0</ele>
        <time>2022-04-14T08:58:11Z</time>
      </trkpt>
      <trkpt lat="47.619244" lon="1.9423591">
        <ele>192.0</ele>
        <time>2022-04-14T08:58:12Z</time>
      </trkpt>
      <trkpt lat="47.619247" lon="1.942379">
        <ele>191.0</ele>
        <time>2022-04-14T08:58:13Z</time>
      </trkpt>
      <trkpt lat="47.619247" lon="1.9423935">
        <ele>191.0</ele>
        <time>2022-04-14T08:58:14Z</time>
      </trkpt>
      <trkpt lat="47.61925" lon="1.9424162">
        <ele>191.0</ele>
        <time>2022-04-14T08:58:15Z</time>
      </trkpt>
      <trkpt lat="47.61925" lon="1.9424391">
        <ele>191.0</ele>
        <time>2022-04-14T08:58:16Z</time>
      </trkpt>
      <trkpt lat="47.61925" lon="1.9424593">
        <ele>191.0</ele>
        <time>2022-04-14T08:58:17Z</time>
      </trkpt>
      <trkpt lat="47.619255" lon="1.9424789">
        <ele>191.0</ele>
        <time>2022-04-14T08:58:18Z</time>
      </trkpt>
      <trkpt lat="47.61926" lon="1.9424918">
        <ele>192.0</ele>
        <time>2022-04-14T08:58:19Z</time>
      </trkpt>
      <trkpt lat="47.619263" lon="1.9425008">
        <ele>192.0</ele>
        <time>2022-04-14T08:58:20Z</time>
      </trkpt>
      <trkpt lat="47.619263" lon="1.9425228">
        <ele>191.0</ele>
        <time>2022-04-14T08:58:21Z</time>
      </trkpt>
      <trkpt lat="47.619255" lon="1.94255">
        <ele>191.0</ele>
        <time>2022-04-14T08:58:22Z</time>
      </trkpt>
      <trkpt lat="47.61925" lon="1.9425715">
        <ele>191.0</ele>
        <time>2022-04-14T08:58:23Z</time>
      </trkpt>
      <trkpt lat="47.61924" lon="1.9425867">
        <ele>191.0</ele>
        <time>2022-04-14T08:58:24Z</time>
      </trkpt>
      <trkpt lat="47.619232" lon="1.9425985">
        <ele>191.0</ele>
        <time>2022-04-14T08:58:25Z</time>
      </trkpt>
      <trkpt lat="47.61923" lon="1.9426091">
        <ele>191.0</ele>
        <time>2022-04-14T08:58:26Z</time>
      </trkpt>
      <trkpt lat="47.61922" lon="1.9426143">
        <ele>191.0</ele>
        <time>2022-04-14T08:58:27Z</time>
      </trkpt>
      <trkpt lat="47.619213" lon="1.9426192">
        <ele>191.0</ele>
        <time>2022-04-14T08:58:28Z</time>
      </trkpt>
      <trkpt lat="47.61921" lon="1.9426312">
        <ele>191.0</ele>
        <time>2022-04-14T08:58:29Z</time>
      </trkpt>
      <trkpt lat="47.6192" lon="1.9426427">
        <ele>191.0</ele>
        <time>2022-04-14T08:58:30Z</time>
      </trkpt>
      <trkpt lat="47.619194" lon="1.9426543">
        <ele>191.0</ele>
        <time>2022-04-14T08:58:31Z</time>
      </trkpt>
      <trkpt lat="47.619183" lon="1.942661">
        <ele>191.0</ele>
        <time>2022-04-14T08:58:32Z</time>
      </trkpt>
      <trkpt lat="47.619175" lon="1.9426631">
        <ele>191.0</ele>
        <time>2022-04-14T08:58:33Z</time>
      </trkpt>
      <trkpt lat="47.61917" lon="1.9426693">
        <ele>191.0</ele>
        <time>2022-04-14T08:58:34Z</time>
      </trkpt>
      <trkpt lat="47.61916" lon="1.9426696">
        <ele>190.0</ele>
        <time>2022-04-14T08:58:35Z</time>
      </trkpt>
      <trkpt lat="47.61915" lon="1.9426697">
        <ele>190.0</ele>
        <time>2022-04-14T08:58:36Z</time>
      </trkpt>
      <trkpt lat="47.61914" lon="1.9426762">
        <ele>190.0</ele>
        <time>2022-04-14T08:58:37Z</time>
      </trkpt>
      <trkpt lat="47.619137" lon="1.9426831">
        <ele>189.0</ele>
        <time>2022-04-14T08:58:38Z</time>
      </trkpt>
      <trkpt lat="47.61913" lon="1.9426855">
        <ele>189.0</ele>
        <time>2022-04-14T08:58:39Z</time>
      </trkpt>
      <trkpt lat="47.61912" lon="1.9426899">
        <ele>189.0</ele>
        <time>2022-04-14T08:58:40Z</time>
      </trkpt>
      <trkpt lat="47.61911" lon="1.9426949">
        <ele>189.0</ele>
        <time>2022-04-14T08:58:41Z</time>
      </trkpt>
      <trkpt lat="47.619095" lon="1.9426941">
        <ele>189.0</ele>
        <time>2022-04-14T08:58:42Z</time>
      </trkpt>
      <trkpt lat="47.619083" lon="1.9426934">
        <ele>189.0</ele>
        <time>2022-04-14T08:58:43Z</time>
      </trkpt>
      <trkpt lat="47.619072" lon="1.9426981">
        <ele>190.0</ele>
        <time>2022-04-14T08:58:44Z</time>
      </trkpt>
      <trkpt lat="47.61906" lon="1.9426978">
        <ele>189.0</ele>
        <time>2022-04-14T08:58:45Z</time>
      </trkpt>
      <trkpt lat="47.61906" lon="1.9426978">
        <ele>189.0</ele>
        <time>2022-04-14T08:58:46Z</time>
      </trkpt>
      <trkpt lat="47.61906" lon="1.9426978">
        <ele>189.0</ele>
        <time>2022-04-14T08:58:47Z</time>
      </trkpt>
      <trkpt lat="47.619034" lon="1.9426869">
        <ele>189.0</ele>
        <time>2022-04-14T08:58:48Z</time>
      </trkpt>
      <trkpt lat="47.619026" lon="1.9426924">
        <ele>188.0</ele>
        <time>2022-04-14T08:58:49Z</time>
      </trkpt>
      <trkpt lat="47.619015" lon="1.9426999">
        <ele>189.0</ele>
        <time>2022-04-14T08:58:50Z</time>
      </trkpt>
      <trkpt lat="47.619" lon="1.942708">
        <ele>188.0</ele>
        <time>2022-04-14T08:58:51Z</time>
      </trkpt>
      <trkpt lat="47.618984" lon="1.9427127">
        <ele>188.0</ele>
        <time>2022-04-14T08:58:52Z</time>
      </trkpt>
      <trkpt lat="47.61897" lon="1.9427166">
        <ele>188.0</ele>
        <time>2022-04-14T08:58:53Z</time>
      </trkpt>
      <trkpt lat="47.618954" lon="1.9427185">
        <ele>188.0</ele>
        <time>2022-04-14T08:58:54Z</time>
      </trkpt>
      <trkpt lat="47.618946" lon="1.9427218">
        <ele>188.0</ele>
        <time>2022-04-14T08:58:55Z</time>
      </trkpt>
      <trkpt lat="47.61893" lon="1.9427173">
        <ele>188.0</ele>
        <time>2022-04-14T08:58:56Z</time>
      </trkpt>
      <trkpt lat="47.618916" lon="1.9427233">
        <ele>189.0</ele>
        <time>2022-04-14T08:58:57Z</time>
      </trkpt>
      <trkpt lat="47.6189" lon="1.9427253">
        <ele>189.0</ele>
        <time>2022-04-14T08:58:58Z</time>
      </trkpt>
      <trkpt lat="47.61888" lon="1.9427283">
        <ele>189.0</ele>
        <time>2022-04-14T08:58:59Z</time>
      </trkpt>
      <trkpt lat="47.618866" lon="1.9427388">
        <ele>188.0</ele>
        <time>2022-04-14T08:59:00Z</time>
      </trkpt>
      <trkpt lat="47.61885" lon="1.9427491">
        <ele>188.0</ele>
        <time>2022-04-14T08:59:01Z</time>
      </trkpt>
      <trkpt lat="47.61883" lon="1.9427519">
        <ele>188.0</ele>
        <time>2022-04-14T08:59:02Z</time>
      </trkpt>
      <trkpt lat="47.618816" lon="1.9427644">
        <ele>187.0</ele>
        <time>2022-04-14T08:59:03Z</time>
      </trkpt>
      <trkpt lat="47.6188" lon="1.9427738">
        <ele>187.0</ele>
        <time>2022-04-14T08:59:04Z</time>
      </trkpt>
      <trkpt lat="47.61879" lon="1.9427756">
        <ele>186.0</ele>
        <time>2022-04-14T08:59:05Z</time>
      </trkpt>
      <trkpt lat="47.618774" lon="1.9427825">
        <ele>186.0</ele>
        <time>2022-04-14T08:59:06Z</time>
      </trkpt>
      <trkpt lat="47.618763" lon="1.9427888">
        <ele>186.0</ele>
        <time>2022-04-14T08:59:07Z</time>
      </trkpt>
      <trkpt lat="47.61875" lon="1.9427992">
        <ele>186.0</ele>
        <time>2022-04-14T08:59:08Z</time>
      </trkpt>
      <trkpt lat="47.61874" lon="1.9428104">
        <ele>186.0</ele>
        <time>2022-04-14T08:59:09Z</time>
      </trkpt>
      <trkpt lat="47.61873" lon="1.9428256">
        <ele>187.0</ele>
        <time>2022-04-14T08:59:10Z</time>
      </trkpt>
      <trkpt lat="47.61872" lon="1.9428352">
        <ele>187.0</ele>
        <time>2022-04-14T08:59:11Z</time>
      </trkpt>
      <trkpt lat="47.618706" lon="1.942841">
        <ele>187.0</ele>
        <time>2022-04-14T08:59:12Z</time>
      </trkpt>
      <trkpt lat="47.618694" lon="1.942845">
        <ele>187.0</ele>
        <time>2022-04-14T08:59:13Z</time>
      </trkpt>
      <trkpt lat="47.618683" lon="1.9428601">
        <ele>188.0</ele>
        <time>2022-04-14T08:59:14Z</time>
      </trkpt>
      <trkpt lat="47.618675" lon="1.9428761">
        <ele>189.0</ele>
        <time>2022-04-14T08:59:15Z</time>
      </trkpt>
      <trkpt lat="47.61867" lon="1.9428854">
        <ele>189.0</ele>
        <time>2022-04-14T08:59:16Z</time>
      </trkpt>
      <trkpt lat="47.61867" lon="1.9428972">
        <ele>189.0</ele>
        <time>2022-04-14T08:59:17Z</time>
      </trkpt>
      <trkpt lat="47.618668" lon="1.9429119">
        <ele>189.0</ele>
        <time>2022-04-14T08:59:18Z</time>
      </trkpt>
      <trkpt lat="47.61866" lon="1.9429274">
        <ele>189.0</ele>
        <time>2022-04-14T08:59:19Z</time>
      </trkpt>
      <trkpt lat="47.618652" lon="1.9429446">
        <ele>190.0</ele>
        <time>2022-04-14T08:59:20Z</time>
      </trkpt>
      <trkpt lat="47.618645" lon="1.9429613">
        <ele>189.0</ele>
        <time>2022-04-14T08:59:21Z</time>
      </trkpt>
      <trkpt lat="47.61864" lon="1.9429766">
        <ele>189.0</ele>
        <time>2022-04-14T08:59:22Z</time>
      </trkpt>
      <trkpt lat="47.618633" lon="1.9429864">
        <ele>189.0</ele>
        <time>2022-04-14T08:59:23Z</time>
      </trkpt>
      <trkpt lat="47.618626" lon="1.9429861">
        <ele>189.0</ele>
        <time>2022-04-14T08:59:24Z</time>
      </trkpt>
      <trkpt lat="47.618614" lon="1.9429913">
        <ele>190.0</ele>
        <time>2022-04-14T08:59:25Z</time>
      </trkpt>
      <trkpt lat="47.618607" lon="1.9430016">
        <ele>190.0</ele>
        <time>2022-04-14T08:59:26Z</time>
      </trkpt>
      <trkpt lat="47.6186" lon="1.9430155">
        <ele>189.0</ele>
        <time>2022-04-14T08:59:27Z</time>
      </trkpt>
      <trkpt lat="47.618595" lon="1.9430274">
        <ele>190.0</ele>
        <time>2022-04-14T08:59:28Z</time>
      </trkpt>
      <trkpt lat="47.61859" lon="1.9430383">
        <ele>190.0</ele>
        <time>2022-04-14T08:59:29Z</time>
      </trkpt>
      <trkpt lat="47.618587" lon="1.943046">
        <ele>190.0</ele>
        <time>2022-04-14T08:59:30Z</time>
      </trkpt>
      <trkpt lat="47.618587" lon="1.9430536">
        <ele>190.0</ele>
        <time>2022-04-14T08:59:31Z</time>
      </trkpt>
      <trkpt lat="47.61859" lon="1.9430597">
        <ele>190.0</ele>
        <time>2022-04-14T08:59:32Z</time>
      </trkpt>
      <trkpt lat="47.618595" lon="1.9430754">
        <ele>188.0</ele>
        <time>2022-04-14T08:59:33Z</time>
      </trkpt>
      <trkpt lat="47.618603" lon="1.9430861">
        <ele>188.0</ele>
        <time>2022-04-14T08:59:34Z</time>
      </trkpt>
      <trkpt lat="47.618607" lon="1.943105">
        <ele>187.0</ele>
        <time>2022-04-14T08:59:35Z</time>
      </trkpt>
      <trkpt lat="47.618607" lon="1.9431216">
        <ele>187.0</ele>
        <time>2022-04-14T08:59:36Z</time>
      </trkpt>
      <trkpt lat="47.618607" lon="1.9431398">
        <ele>186.0</ele>
        <time>2022-04-14T08:59:37Z</time>
      </trkpt>
      <trkpt lat="47.618614" lon="1.9431604">
        <ele>186.0</ele>
        <time>2022-04-14T08:59:38Z</time>
      </trkpt>
      <trkpt lat="47.618618" lon="1.9431803">
        <ele>186.0</ele>
        <time>2022-04-14T08:59:39Z</time>
      </trkpt>
      <trkpt lat="47.61862" lon="1.9431959">
        <ele>186.0</ele>
        <time>2022-04-14T08:59:40Z</time>
      </trkpt>
      <trkpt lat="47.61863" lon="1.9432099">
        <ele>186.0</ele>
        <time>2022-04-14T08:59:41Z</time>
      </trkpt>
      <trkpt lat="47.61864" lon="1.94323">
        <ele>185.0</ele>
        <time>2022-04-14T08:59:42Z</time>
      </trkpt>
      <trkpt lat="47.618652" lon="1.9432533">
        <ele>184.0</ele>
        <time>2022-04-14T08:59:43Z</time>
      </trkpt>
      <trkpt lat="47.61866" lon="1.9432698">
        <ele>183.0</ele>
        <time>2022-04-14T08:59:44Z</time>
      </trkpt>
      <trkpt lat="47.61866" lon="1.9432888">
        <ele>183.0</ele>
        <time>2022-04-14T08:59:45Z</time>
      </trkpt>
      <trkpt lat="47.61866" lon="1.9433078">
        <ele>182.0</ele>
        <time>2022-04-14T08:59:46Z</time>
      </trkpt>
      <trkpt lat="47.61866" lon="1.9433283">
        <ele>182.0</ele>
        <time>2022-04-14T08:59:47Z</time>
      </trkpt>
      <trkpt lat="47.618668" lon="1.9433469">
        <ele>181.0</ele>
        <time>2022-04-14T08:59:48Z</time>
      </trkpt>
      <trkpt lat="47.61867" lon="1.9433646">
        <ele>181.0</ele>
        <time>2022-04-14T08:59:49Z</time>
      </trkpt>
      <trkpt lat="47.618675" lon="1.9433792">
        <ele>180.0</ele>
        <time>2022-04-14T08:59:50Z</time>
      </trkpt>
      <trkpt lat="47.61868" lon="1.9433911">
        <ele>180.0</ele>
        <time>2022-04-14T08:59:51Z</time>
      </trkpt>
      <trkpt lat="47.618683" lon="1.943407">
        <ele>180.0</ele>
        <time>2022-04-14T08:59:52Z</time>
      </trkpt>
      <trkpt lat="47.618683" lon="1.9434245">
        <ele>181.0</ele>
        <time>2022-04-14T08:59:53Z</time>
      </trkpt>
      <trkpt lat="47.61868" lon="1.9434413">
        <ele>181.0</ele>
        <time>2022-04-14T08:59:54Z</time>
      </trkpt>
      <trkpt lat="47.618683" lon="1.9434584">
        <ele>181.0</ele>
        <time>2022-04-14T08:59:55Z</time>
      </trkpt>
      <trkpt lat="47.61869" lon="1.9434763">
        <ele>181.0</ele>
        <time>2022-04-14T08:59:56Z</time>
      </trkpt>
      <trkpt lat="47.61869" lon="1.9434943">
        <ele>180.0</ele>
        <time>2022-04-14T08:59:57Z</time>
      </trkpt>
      <trkpt lat="47.61869" lon="1.9435147">
        <ele>181.0</ele>
        <time>2022-04-14T08:59:58Z</time>
      </trkpt>
      <trkpt lat="47.61869" lon="1.9435347">
        <ele>181.0</ele>
        <time>2022-04-14T08:59:59Z</time>
      </trkpt>
      <trkpt lat="47.618694" lon="1.9435554">
        <ele>181.0</ele>
        <time>2022-04-14T09:00:00Z</time>
      </trkpt>
      <trkpt lat="47.618702" lon="1.9435701">
        <ele>181.0</ele>
        <time>2022-04-14T09:00:01Z</time>
      </trkpt>
      <trkpt lat="47.618706" lon="1.9435878">
        <ele>181.0</ele>
        <time>2022-04-14T09:00:02Z</time>
      </trkpt>
      <trkpt lat="47.61871" lon="1.9436059">
        <ele>182.0</ele>
        <time>2022-04-14T09:00:03Z</time>
      </trkpt>
      <trkpt lat="47.618713" lon="1.9436107">
        <ele>181.0</ele>
        <time>2022-04-14T09:00:04Z</time>
      </trkpt>
      <trkpt lat="47.618713" lon="1.943618">
        <ele>181.0</ele>
        <time>2022-04-14T09:00:05Z</time>
      </trkpt>
      <trkpt lat="47.618717" lon="1.9436339">
        <ele>181.0</ele>
        <time>2022-04-14T09:00:06Z</time>
      </trkpt>
      <trkpt lat="47.61872" lon="1.9436543">
        <ele>181.0</ele>
        <time>2022-04-14T09:00:07Z</time>
      </trkpt>
      <trkpt lat="47.618725" lon="1.9436718">
        <ele>180.0</ele>
        <time>2022-04-14T09:00:08Z</time>
      </trkpt>
      <trkpt lat="47.618725" lon="1.9436852">
        <ele>180.0</ele>
        <time>2022-04-14T09:00:09Z</time>
      </trkpt>
      <trkpt lat="47.618732" lon="1.9436963">
        <ele>180.0</ele>
        <time>2022-04-14T09:00:10Z</time>
      </trkpt>
      <trkpt lat="47.61874" lon="1.9437106">
        <ele>180.0</ele>
        <time>2022-04-14T09:00:11Z</time>
      </trkpt>
      <trkpt lat="47.61874" lon="1.9437224">
        <ele>180.0</ele>
        <time>2022-04-14T09:00:12Z</time>
      </trkpt>
      <trkpt lat="47.618748" lon="1.9437392">
        <ele>180.0</ele>
        <time>2022-04-14T09:00:13Z</time>
      </trkpt>
      <trkpt lat="47.618748" lon="1.9437513">
        <ele>180.0</ele>
        <time>2022-04-14T09:00:14Z</time>
      </trkpt>
      <trkpt lat="47.61875" lon="1.943771">
        <ele>180.0</ele>
        <time>2022-04-14T09:00:15Z</time>
      </trkpt>
      <trkpt lat="47.618755" lon="1.9437945">
        <ele>179.0</ele>
        <time>2022-04-14T09:00:16Z</time>
      </trkpt>
      <trkpt lat="47.618755" lon="1.9438142">
        <ele>179.0</ele>
        <time>2022-04-14T09:00:17Z</time>
      </trkpt>
      <trkpt lat="47.61876" lon="1.943844">
        <ele>178.0</ele>
        <time>2022-04-14T09:00:18Z</time>
      </trkpt>
      <trkpt lat="47.618755" lon="1.943868">
        <ele>178.0</ele>
        <time>2022-04-14T09:00:19Z</time>
      </trkpt>
      <trkpt lat="47.618755" lon="1.9438789">
        <ele>178.0</ele>
        <time>2022-04-14T09:00:20Z</time>
      </trkpt>
      <trkpt lat="47.618755" lon="1.9438958">
        <ele>178.0</ele>
        <time>2022-04-14T09:00:21Z</time>
      </trkpt>
      <trkpt lat="47.61876" lon="1.9439088">
        <ele>178.0</ele>
        <time>2022-04-14T09:00:22Z</time>
      </trkpt>
      <trkpt lat="47.618767" lon="1.9439238">
        <ele>178.0</ele>
        <time>2022-04-14T09:00:23Z</time>
      </trkpt>
      <trkpt lat="47.618774" lon="1.9439368">
        <ele>177.0</ele>
        <time>2022-04-14T09:00:24Z</time>
      </trkpt>
      <trkpt lat="47.618782" lon="1.943948">
        <ele>178.0</ele>
        <time>2022-04-14T09:00:25Z</time>
      </trkpt>
      <trkpt lat="47.618786" lon="1.943968">
        <ele>178.0</ele>
        <time>2022-04-14T09:00:26Z</time>
      </trkpt>
      <trkpt lat="47.61879" lon="1.9439874">
        <ele>179.0</ele>
        <time>2022-04-14T09:00:27Z</time>
      </trkpt>
      <trkpt lat="47.618786" lon="1.9440045">
        <ele>179.0</ele>
        <time>2022-04-14T09:00:28Z</time>
      </trkpt>
      <trkpt lat="47.61879" lon="1.9440215">
        <ele>179.0</ele>
        <time>2022-04-14T09:00:29Z</time>
      </trkpt>
      <trkpt lat="47.618793" lon="1.944042">
        <ele>179.0</ele>
        <time>2022-04-14T09:00:30Z</time>
      </trkpt>
      <trkpt lat="47.6188" lon="1.9440626">
        <ele>179.0</ele>
        <time>2022-04-14T09:00:31Z</time>
      </trkpt>
      <trkpt lat="47.618805" lon="1.9440799">
        <ele>178.0</ele>
        <time>2022-04-14T09:00:32Z</time>
      </trkpt>
      <trkpt lat="47.61881" lon="1.9440932">
        <ele>178.0</ele>
        <time>2022-04-14T09:00:33Z</time>
      </trkpt>
      <trkpt lat="47.61881" lon="1.9441102">
        <ele>178.0</ele>
        <time>2022-04-14T09:00:34Z</time>
      </trkpt>
      <trkpt lat="47.618805" lon="1.9441365">
        <ele>177.0</ele>
        <time>2022-04-14T09:00:35Z</time>
      </trkpt>
      <trkpt lat="47.618805" lon="1.944155">
        <ele>177.0</ele>
        <time>2022-04-14T09:00:36Z</time>
      </trkpt>
      <trkpt lat="47.61881" lon="1.9441752">
        <ele>178.0</ele>
        <time>2022-04-14T09:00:37Z</time>
      </trkpt>
      <trkpt lat="47.618805" lon="1.94419">
        <ele>178.0</ele>
        <time>2022-04-14T09:00:38Z</time>
      </trkpt>
      <trkpt lat="47.618797" lon="1.9442081">
        <ele>178.0</ele>
        <time>2022-04-14T09:00:39Z</time>
      </trkpt>
      <trkpt lat="47.618797" lon="1.9442236">
        <ele>178.0</ele>
        <time>2022-04-14T09:00:40Z</time>
      </trkpt>
      <trkpt lat="47.618797" lon="1.9442377">
        <ele>178.0</ele>
        <time>2022-04-14T09:00:41Z</time>
      </trkpt>
      <trkpt lat="47.618797" lon="1.9442492">
        <ele>178.0</ele>
        <time>2022-04-14T09:00:42Z</time>
      </trkpt>
      <trkpt lat="47.618805" lon="1.9442686">
        <ele>178.0</ele>
        <time>2022-04-14T09:00:43Z</time>
      </trkpt>
      <trkpt lat="47.61881" lon="1.9442854">
        <ele>178.0</ele>
        <time>2022-04-14T09:00:44Z</time>
      </trkpt>
      <trkpt lat="47.618816" lon="1.9443089">
        <ele>178.0</ele>
        <time>2022-04-14T09:00:45Z</time>
      </trkpt>
      <trkpt lat="47.61882" lon="1.9443293">
        <ele>178.0</ele>
        <time>2022-04-14T09:00:46Z</time>
      </trkpt>
      <trkpt lat="47.61882" lon="1.944347">
        <ele>177.0</ele>
        <time>2022-04-14T09:00:47Z</time>
      </trkpt>
      <trkpt lat="47.618824" lon="1.944364">
        <ele>177.0</ele>
        <time>2022-04-14T09:00:48Z</time>
      </trkpt>
      <trkpt lat="47.618828" lon="1.9443806">
        <ele>177.0</ele>
        <time>2022-04-14T09:00:49Z</time>
      </trkpt>
      <trkpt lat="47.61883" lon="1.9443991">
        <ele>178.0</ele>
        <time>2022-04-14T09:00:50Z</time>
      </trkpt>
      <trkpt lat="47.61883" lon="1.9444194">
        <ele>177.0</ele>
        <time>2022-04-14T09:00:51Z</time>
      </trkpt>
      <trkpt lat="47.61883" lon="1.9444396">
        <ele>177.0</ele>
        <time>2022-04-14T09:00:52Z</time>
      </trkpt>
      <trkpt lat="47.618835" lon="1.9444594">
        <ele>176.0</ele>
        <time>2022-04-14T09:00:53Z</time>
      </trkpt>
      <trkpt lat="47.61884" lon="1.9444749">
        <ele>176.0</ele>
        <time>2022-04-14T09:00:54Z</time>
      </trkpt>
      <trkpt lat="47.61884" lon="1.9444907">
        <ele>176.0</ele>
        <time>2022-04-14T09:00:55Z</time>
      </trkpt>
      <trkpt lat="47.61884" lon="1.9445099">
        <ele>176.0</ele>
        <time>2022-04-14T09:00:56Z</time>
      </trkpt>
      <trkpt lat="47.61884" lon="1.9445277">
        <ele>177.0</ele>
        <time>2022-04-14T09:00:57Z</time>
      </trkpt>
      <trkpt lat="47.618835" lon="1.9445465">
        <ele>177.0</ele>
        <time>2022-04-14T09:00:58Z</time>
      </trkpt>
      <trkpt lat="47.61884" lon="1.9445639">
        <ele>177.0</ele>
        <time>2022-04-14T09:00:59Z</time>
      </trkpt>
      <trkpt lat="47.61885" lon="1.9445771">
        <ele>177.0</ele>
        <time>2022-04-14T09:01:00Z</time>
      </trkpt>
      <trkpt lat="47.618855" lon="1.944596">
        <ele>177.0</ele>
        <time>2022-04-14T09:01:01Z</time>
      </trkpt>
      <trkpt lat="47.61886" lon="1.9446172">
        <ele>178.0</ele>
        <time>2022-04-14T09:01:02Z</time>
      </trkpt>
      <trkpt lat="47.61886" lon="1.9446362">
        <ele>177.0</ele>
        <time>2022-04-14T09:01:03Z</time>
      </trkpt>
      <trkpt lat="47.61886" lon="1.9446577">
        <ele>177.0</ele>
        <time>2022-04-14T09:01:04Z</time>
      </trkpt>
      <trkpt lat="47.61886" lon="1.9446759">
        <ele>177.0</ele>
        <time>2022-04-14T09:01:05Z</time>
      </trkpt>
      <trkpt lat="47.618866" lon="1.944698">
        <ele>176.0</ele>
        <time>2022-04-14T09:01:06Z</time>
      </trkpt>
      <trkpt lat="47.618866" lon="1.944716">
        <ele>177.0</ele>
        <time>2022-04-14T09:01:07Z</time>
      </trkpt>
      <trkpt lat="47.61887" lon="1.9447335">
        <ele>177.0</ele>
        <time>2022-04-14T09:01:08Z</time>
      </trkpt>
      <trkpt lat="47.61887" lon="1.9447496">
        <ele>177.0</ele>
        <time>2022-04-14T09:01:09Z</time>
      </trkpt>
      <trkpt lat="47.618877" lon="1.944766">
        <ele>177.0</ele>
        <time>2022-04-14T09:01:10Z</time>
      </trkpt>
      <trkpt lat="47.618877" lon="1.944779">
        <ele>177.0</ele>
        <time>2022-04-14T09:01:11Z</time>
      </trkpt>
      <trkpt lat="47.61888" lon="1.9447908">
        <ele>177.0</ele>
        <time>2022-04-14T09:01:12Z</time>
      </trkpt>
      <trkpt lat="47.61888" lon="1.9448063">
        <ele>177.0</ele>
        <time>2022-04-14T09:01:13Z</time>
      </trkpt>
      <trkpt lat="47.61888" lon="1.9448248">
        <ele>177.0</ele>
        <time>2022-04-14T09:01:14Z</time>
      </trkpt>
      <trkpt lat="47.618877" lon="1.9448434">
        <ele>177.0</ele>
        <time>2022-04-14T09:01:15Z</time>
      </trkpt>
      <trkpt lat="47.618877" lon="1.9448602">
        <ele>176.0</ele>
        <time>2022-04-14T09:01:16Z</time>
      </trkpt>
      <trkpt lat="47.618885" lon="1.944878">
        <ele>176.0</ele>
        <time>2022-04-14T09:01:17Z</time>
      </trkpt>
      <trkpt lat="47.618893" lon="1.944892">
        <ele>176.0</ele>
        <time>2022-04-14T09:01:18Z</time>
      </trkpt>
      <trkpt lat="47.6189" lon="1.9449103">
        <ele>175.0</ele>
        <time>2022-04-14T09:01:19Z</time>
      </trkpt>
      <trkpt lat="47.618904" lon="1.9449285">
        <ele>175.0</ele>
        <time>2022-04-14T09:01:20Z</time>
      </trkpt>
      <trkpt lat="47.618904" lon="1.9449484">
        <ele>175.0</ele>
        <time>2022-04-14T09:01:21Z</time>
      </trkpt>
      <trkpt lat="47.618904" lon="1.9449656">
        <ele>174.0</ele>
        <time>2022-04-14T09:01:22Z</time>
      </trkpt>
      <trkpt lat="47.618908" lon="1.9449838">
        <ele>174.0</ele>
        <time>2022-04-14T09:01:23Z</time>
      </trkpt>
      <trkpt lat="47.618908" lon="1.9449961">
        <ele>175.0</ele>
        <time>2022-04-14T09:01:24Z</time>
      </trkpt>
      <trkpt lat="47.61891" lon="1.9450129">
        <ele>174.0</ele>
        <time>2022-04-14T09:01:25Z</time>
      </trkpt>
      <trkpt lat="47.61891" lon="1.9450306">
        <ele>174.0</ele>
        <time>2022-04-14T09:01:26Z</time>
      </trkpt>
      <trkpt lat="47.61891" lon="1.9450483">
        <ele>174.0</ele>
        <time>2022-04-14T09:01:27Z</time>
      </trkpt>
      <trkpt lat="47.618904" lon="1.9450613">
        <ele>174.0</ele>
        <time>2022-04-14T09:01:28Z</time>
      </trkpt>
      <trkpt lat="47.618908" lon="1.9450761">
        <ele>174.0</ele>
        <time>2022-04-14T09:01:29Z</time>
      </trkpt>
      <trkpt lat="47.61891" lon="1.9450917">
        <ele>174.0</ele>
        <time>2022-04-14T09:01:30Z</time>
      </trkpt>
      <trkpt lat="47.61891" lon="1.9451048">
        <ele>174.0</ele>
        <time>2022-04-14T09:01:31Z</time>
      </trkpt>
      <trkpt lat="47.61891" lon="1.9451166">
        <ele>174.0</ele>
        <time>2022-04-14T09:01:32Z</time>
      </trkpt>
      <trkpt lat="47.61891" lon="1.9451299">
        <ele>174.0</ele>
        <time>2022-04-14T09:01:33Z</time>
      </trkpt>
      <trkpt lat="47.618916" lon="1.9451495">
        <ele>173.0</ele>
        <time>2022-04-14T09:01:34Z</time>
      </trkpt>
      <trkpt lat="47.618923" lon="1.945169">
        <ele>173.0</ele>
        <time>2022-04-14T09:01:35Z</time>
      </trkpt>
      <trkpt lat="47.618916" lon="1.9451847">
        <ele>173.0</ele>
        <time>2022-04-14T09:01:36Z</time>
      </trkpt>
      <trkpt lat="47.618908" lon="1.9452003">
        <ele>173.0</ele>
        <time>2022-04-14T09:01:37Z</time>
      </trkpt>
      <trkpt lat="47.618908" lon="1.9452149">
        <ele>173.0</ele>
        <time>2022-04-14T09:01:38Z</time>
      </trkpt>
      <trkpt lat="47.6189" lon="1.9452358">
        <ele>173.0</ele>
        <time>2022-04-14T09:01:39Z</time>
      </trkpt>
      <trkpt lat="47.6189" lon="1.945255">
        <ele>173.0</ele>
        <time>2022-04-14T09:01:40Z</time>
      </trkpt>
      <trkpt lat="47.618904" lon="1.9452742">
        <ele>173.0</ele>
        <time>2022-04-14T09:01:41Z</time>
      </trkpt>
      <trkpt lat="47.618904" lon="1.9452926">
        <ele>173.0</ele>
        <time>2022-04-14T09:01:42Z</time>
      </trkpt>
      <trkpt lat="47.618908" lon="1.9453073">
        <ele>173.0</ele>
        <time>2022-04-14T09:01:43Z</time>
      </trkpt>
      <trkpt lat="47.61891" lon="1.9453229">
        <ele>173.0</ele>
        <time>2022-04-14T09:01:44Z</time>
      </trkpt>
      <trkpt lat="47.61891" lon="1.9453362">
        <ele>173.0</ele>
        <time>2022-04-14T09:01:45Z</time>
      </trkpt>
      <trkpt lat="47.618916" lon="1.9453456">
        <ele>173.0</ele>
        <time>2022-04-14T09:01:46Z</time>
      </trkpt>
      <trkpt lat="47.618923" lon="1.9453564">
        <ele>174.0</ele>
        <time>2022-04-14T09:01:47Z</time>
      </trkpt>
      <trkpt lat="47.618927" lon="1.9453733">
        <ele>174.0</ele>
        <time>2022-04-14T09:01:48Z</time>
      </trkpt>
      <trkpt lat="47.61893" lon="1.9453881">
        <ele>174.0</ele>
        <time>2022-04-14T09:01:49Z</time>
      </trkpt>
      <trkpt lat="47.618935" lon="1.9454068">
        <ele>174.0</ele>
        <time>2022-04-14T09:01:50Z</time>
      </trkpt>
      <trkpt lat="47.61894" lon="1.9454278">
        <ele>174.0</ele>
        <time>2022-04-14T09:01:51Z</time>
      </trkpt>
      <trkpt lat="47.61894" lon="1.9454486">
        <ele>174.0</ele>
        <time>2022-04-14T09:01:52Z</time>
      </trkpt>
      <trkpt lat="47.618942" lon="1.9454664">
        <ele>174.0</ele>
        <time>2022-04-14T09:01:53Z</time>
      </trkpt>
      <trkpt lat="47.618942" lon="1.9454846">
        <ele>173.0</ele>
        <time>2022-04-14T09:01:54Z</time>
      </trkpt>
      <trkpt lat="47.618946" lon="1.9454979">
        <ele>173.0</ele>
        <time>2022-04-14T09:01:55Z</time>
      </trkpt>
      <trkpt lat="47.618954" lon="1.9455134">
        <ele>173.0</ele>
        <time>2022-04-14T09:01:56Z</time>
      </trkpt>
      <trkpt lat="47.618958" lon="1.9455291">
        <ele>172.0</ele>
        <time>2022-04-14T09:01:57Z</time>
      </trkpt>
      <trkpt lat="47.618954" lon="1.9455447">
        <ele>172.0</ele>
        <time>2022-04-14T09:01:58Z</time>
      </trkpt>
      <trkpt lat="47.618946" lon="1.945559">
        <ele>172.0</ele>
        <time>2022-04-14T09:01:59Z</time>
      </trkpt>
      <trkpt lat="47.618946" lon="1.9455779">
        <ele>172.0</ele>
        <time>2022-04-14T09:02:00Z</time>
      </trkpt>
      <trkpt lat="47.618942" lon="1.9455923">
        <ele>172.0</ele>
        <time>2022-04-14T09:02:01Z</time>
      </trkpt>
      <trkpt lat="47.61894" lon="1.9456074">
        <ele>172.0</ele>
        <time>2022-04-14T09:02:02Z</time>
      </trkpt>
      <trkpt lat="47.618935" lon="1.945627">
        <ele>172.0</ele>
        <time>2022-04-14T09:02:03Z</time>
      </trkpt>
      <trkpt lat="47.61894" lon="1.945642">
        <ele>172.0</ele>
        <time>2022-04-14T09:02:04Z</time>
      </trkpt>
      <trkpt lat="47.61894" lon="1.945662">
        <ele>171.0</ele>
        <time>2022-04-14T09:02:05Z</time>
      </trkpt>
      <trkpt lat="47.618942" lon="1.9456764">
        <ele>171.0</ele>
        <time>2022-04-14T09:02:06Z</time>
      </trkpt>
      <trkpt lat="47.618942" lon="1.945689">
        <ele>172.0</ele>
        <time>2022-04-14T09:02:07Z</time>
      </trkpt>
      <trkpt lat="47.618946" lon="1.9457117">
        <ele>172.0</ele>
        <time>2022-04-14T09:02:08Z</time>
      </trkpt>
      <trkpt lat="47.618954" lon="1.9457307">
        <ele>172.0</ele>
        <time>2022-04-14T09:02:09Z</time>
      </trkpt>
      <trkpt lat="47.618954" lon="1.9457449">
        <ele>172.0</ele>
        <time>2022-04-14T09:02:10Z</time>
      </trkpt>
      <trkpt lat="47.61895" lon="1.9457661">
        <ele>172.0</ele>
        <time>2022-04-14T09:02:11Z</time>
      </trkpt>
      <trkpt lat="47.618954" lon="1.9457847">
        <ele>172.0</ele>
        <time>2022-04-14T09:02:12Z</time>
      </trkpt>
      <trkpt lat="47.618958" lon="1.9458008">
        <ele>172.0</ele>
        <time>2022-04-14T09:02:13Z</time>
      </trkpt>
      <trkpt lat="47.618958" lon="1.9458197">
        <ele>172.0</ele>
        <time>2022-04-14T09:02:14Z</time>
      </trkpt>
      <trkpt lat="47.61896" lon="1.945839">
        <ele>172.0</ele>
        <time>2022-04-14T09:02:15Z</time>
      </trkpt>
      <trkpt lat="47.618958" lon="1.9458517">
        <ele>172.0</ele>
        <time>2022-04-14T09:02:16Z</time>
      </trkpt>
      <trkpt lat="47.61896" lon="1.9458643">
        <ele>172.0</ele>
        <time>2022-04-14T09:02:17Z</time>
      </trkpt>
      <trkpt lat="47.618973" lon="1.94588">
        <ele>172.0</ele>
        <time>2022-04-14T09:02:18Z</time>
      </trkpt>
      <trkpt lat="47.618984" lon="1.9458944">
        <ele>172.0</ele>
        <time>2022-04-14T09:02:19Z</time>
      </trkpt>
      <trkpt lat="47.61899" lon="1.9459107">
        <ele>173.0</ele>
        <time>2022-04-14T09:02:20Z</time>
      </trkpt>
      <trkpt lat="47.618996" lon="1.9459261">
        <ele>173.0</ele>
        <time>2022-04-14T09:02:21Z</time>
      </trkpt>
      <trkpt lat="47.619" lon="1.9459424">
        <ele>173.0</ele>
        <time>2022-04-14T09:02:22Z</time>
      </trkpt>
      <trkpt lat="47.619003" lon="1.9459647">
        <ele>172.0</ele>
        <time>2022-04-14T09:02:23Z</time>
      </trkpt>
      <trkpt lat="47.619003" lon="1.9459786">
        <ele>172.0</ele>
        <time>2022-04-14T09:02:24Z</time>
      </trkpt>
      <trkpt lat="47.619003" lon="1.9459947">
        <ele>171.0</ele>
        <time>2022-04-14T09:02:25Z</time>
      </trkpt>
      <trkpt lat="47.619007" lon="1.946008">
        <ele>171.0</ele>
        <time>2022-04-14T09:02:26Z</time>
      </trkpt>
      <trkpt lat="47.619007" lon="1.9460257">
        <ele>171.0</ele>
        <time>2022-04-14T09:02:27Z</time>
      </trkpt>
      <trkpt lat="47.619007" lon="1.9460375">
        <ele>171.0</ele>
        <time>2022-04-14T09:02:28Z</time>
      </trkpt>
      <trkpt lat="47.61901" lon="1.9460518">
        <ele>171.0</ele>
        <time>2022-04-14T09:02:29Z</time>
      </trkpt>
      <trkpt lat="47.619015" lon="1.9460737">
        <ele>171.0</ele>
        <time>2022-04-14T09:02:30Z</time>
      </trkpt>
      <trkpt lat="47.619015" lon="1.9460884">
        <ele>171.0</ele>
        <time>2022-04-14T09:02:31Z</time>
      </trkpt>
      <trkpt lat="47.61902" lon="1.9461054">
        <ele>171.0</ele>
        <time>2022-04-14T09:02:32Z</time>
      </trkpt>
      <trkpt lat="47.61902" lon="1.9461206">
        <ele>171.0</ele>
        <time>2022-04-14T09:02:33Z</time>
      </trkpt>
      <trkpt lat="47.61902" lon="1.9461341">
        <ele>171.0</ele>
        <time>2022-04-14T09:02:34Z</time>
      </trkpt>
      <trkpt lat="47.619022" lon="1.9461498">
        <ele>170.0</ele>
        <time>2022-04-14T09:02:35Z</time>
      </trkpt>
      <trkpt lat="47.619022" lon="1.9461671">
        <ele>171.0</ele>
        <time>2022-04-14T09:02:36Z</time>
      </trkpt>
      <trkpt lat="47.61902" lon="1.9461876">
        <ele>171.0</ele>
        <time>2022-04-14T09:02:37Z</time>
      </trkpt>
      <trkpt lat="47.619022" lon="1.9462105">
        <ele>170.0</ele>
        <time>2022-04-14T09:02:38Z</time>
      </trkpt>
      <trkpt lat="47.619026" lon="1.9462289">
        <ele>170.0</ele>
        <time>2022-04-14T09:02:39Z</time>
      </trkpt>
      <trkpt lat="47.61903" lon="1.9462441">
        <ele>170.0</ele>
        <time>2022-04-14T09:02:40Z</time>
      </trkpt>
      <trkpt lat="47.619038" lon="1.9462593">
        <ele>170.0</ele>
        <time>2022-04-14T09:02:41Z</time>
      </trkpt>
      <trkpt lat="47.619045" lon="1.946282">
        <ele>170.0</ele>
        <time>2022-04-14T09:02:42Z</time>
      </trkpt>
      <trkpt lat="47.61905" lon="1.9463022">
        <ele>170.0</ele>
        <time>2022-04-14T09:02:43Z</time>
      </trkpt>
      <trkpt lat="47.619053" lon="1.9463226">
        <ele>170.0</ele>
        <time>2022-04-14T09:02:44Z</time>
      </trkpt>
      <trkpt lat="47.61906" lon="1.9463465">
        <ele>171.0</ele>
        <time>2022-04-14T09:02:45Z</time>
      </trkpt>
      <trkpt lat="47.61907" lon="1.9463643">
        <ele>171.0</ele>
        <time>2022-04-14T09:02:46Z</time>
      </trkpt>
      <trkpt lat="47.619072" lon="1.9463818">
        <ele>171.0</ele>
        <time>2022-04-14T09:02:47Z</time>
      </trkpt>
      <trkpt lat="47.619076" lon="1.9464004">
        <ele>171.0</ele>
        <time>2022-04-14T09:02:48Z</time>
      </trkpt>
      <trkpt lat="47.619076" lon="1.9464135">
        <ele>171.0</ele>
        <time>2022-04-14T09:02:49Z</time>
      </trkpt>
      <trkpt lat="47.619076" lon="1.9464271">
        <ele>171.0</ele>
        <time>2022-04-14T09:02:50Z</time>
      </trkpt>
      <trkpt lat="47.619072" lon="1.9464397">
        <ele>171.0</ele>
        <time>2022-04-14T09:02:51Z</time>
      </trkpt>
      <trkpt lat="47.619076" lon="1.9464536">
        <ele>171.0</ele>
        <time>2022-04-14T09:02:52Z</time>
      </trkpt>
      <trkpt lat="47.61908" lon="1.9464742">
        <ele>171.0</ele>
        <time>2022-04-14T09:02:53Z</time>
      </trkpt>
      <trkpt lat="47.619083" lon="1.9464926">
        <ele>171.0</ele>
        <time>2022-04-14T09:02:54Z</time>
      </trkpt>
      <trkpt lat="47.619076" lon="1.9465094">
        <ele>171.0</ele>
        <time>2022-04-14T09:02:55Z</time>
      </trkpt>
      <trkpt lat="47.619072" lon="1.9465287">
        <ele>171.0</ele>
        <time>2022-04-14T09:02:56Z</time>
      </trkpt>
      <trkpt lat="47.619064" lon="1.9465498">
        <ele>172.0</ele>
        <time>2022-04-14T09:02:57Z</time>
      </trkpt>
      <trkpt lat="47.61906" lon="1.946564">
        <ele>172.0</ele>
        <time>2022-04-14T09:02:58Z</time>
      </trkpt>
      <trkpt lat="47.619057" lon="1.9465765">
        <ele>172.0</ele>
        <time>2022-04-14T09:02:59Z</time>
      </trkpt>
      <trkpt lat="47.619053" lon="1.9465896">
        <ele>172.0</ele>
        <time>2022-04-14T09:03:00Z</time>
      </trkpt>
      <trkpt lat="47.619057" lon="1.9466046">
        <ele>172.0</ele>
        <time>2022-04-14T09:03:01Z</time>
      </trkpt>
      <trkpt lat="47.619064" lon="1.9466143">
        <ele>172.0</ele>
        <time>2022-04-14T09:03:02Z</time>
      </trkpt>
      <trkpt lat="47.61907" lon="1.9466321">
        <ele>172.0</ele>
        <time>2022-04-14T09:03:03Z</time>
      </trkpt>
      <trkpt lat="47.619072" lon="1.9466451">
        <ele>172.0</ele>
        <time>2022-04-14T09:03:04Z</time>
      </trkpt>
      <trkpt lat="47.619072" lon="1.9466605">
        <ele>171.0</ele>
        <time>2022-04-14T09:03:05Z</time>
      </trkpt>
      <trkpt lat="47.61908" lon="1.9466817">
        <ele>171.0</ele>
        <time>2022-04-14T09:03:06Z</time>
      </trkpt>
      <trkpt lat="47.619083" lon="1.9467044">
        <ele>171.0</ele>
        <time>2022-04-14T09:03:07Z</time>
      </trkpt>
      <trkpt lat="47.619083" lon="1.9467188">
        <ele>171.0</ele>
        <time>2022-04-14T09:03:08Z</time>
      </trkpt>
      <trkpt lat="47.619087" lon="1.9467419">
        <ele>171.0</ele>
        <time>2022-04-14T09:03:09Z</time>
      </trkpt>
      <trkpt lat="47.619095" lon="1.9467578">
        <ele>171.0</ele>
        <time>2022-04-14T09:03:10Z</time>
      </trkpt>
      <trkpt lat="47.6191" lon="1.9467741">
        <ele>171.0</ele>
        <time>2022-04-14T09:03:11Z</time>
      </trkpt>
      <trkpt lat="47.619102" lon="1.9467881">
        <ele>170.0</ele>
        <time>2022-04-14T09:03:12Z</time>
      </trkpt>
      <trkpt lat="47.619106" lon="1.946801">
        <ele>170.0</ele>
        <time>2022-04-14T09:03:13Z</time>
      </trkpt>
      <trkpt lat="47.61911" lon="1.9468157">
        <ele>170.0</ele>
        <time>2022-04-14T09:03:14Z</time>
      </trkpt>
      <trkpt lat="47.61911" lon="1.9468309">
        <ele>170.0</ele>
        <time>2022-04-14T09:03:15Z</time>
      </trkpt>
      <trkpt lat="47.619102" lon="1.9468488">
        <ele>170.0</ele>
        <time>2022-04-14T09:03:16Z</time>
      </trkpt>
      <trkpt lat="47.619095" lon="1.9468678">
        <ele>170.0</ele>
        <time>2022-04-14T09:03:17Z</time>
      </trkpt>
      <trkpt lat="47.61909" lon="1.9468875">
        <ele>170.0</ele>
        <time>2022-04-14T09:03:18Z</time>
      </trkpt>
      <trkpt lat="47.619083" lon="1.9469054">
        <ele>171.0</ele>
        <time>2022-04-14T09:03:19Z</time>
      </trkpt>
      <trkpt lat="47.619064" lon="1.9469224">
        <ele>171.0</ele>
        <time>2022-04-14T09:03:20Z</time>
      </trkpt>
      <trkpt lat="47.619053" lon="1.9469393">
        <ele>170.0</ele>
        <time>2022-04-14T09:03:21Z</time>
      </trkpt>
      <trkpt lat="47.61904" lon="1.9469478">
        <ele>170.0</ele>
        <time>2022-04-14T09:03:22Z</time>
      </trkpt>
      <trkpt lat="47.619022" lon="1.9469547">
        <ele>170.0</ele>
        <time>2022-04-14T09:03:23Z</time>
      </trkpt>
      <trkpt lat="47.619007" lon="1.9469595">
        <ele>170.0</ele>
        <time>2022-04-14T09:03:24Z</time>
      </trkpt>
      <trkpt lat="47.618996" lon="1.9469628">
        <ele>170.0</ele>
        <time>2022-04-14T09:03:25Z</time>
      </trkpt>
      <trkpt lat="47.618984" lon="1.9469686">
        <ele>170.0</ele>
        <time>2022-04-14T09:03:26Z</time>
      </trkpt>
      <trkpt lat="47.61897" lon="1.9469764">
        <ele>170.0</ele>
        <time>2022-04-14T09:03:27Z</time>
      </trkpt>
      <trkpt lat="47.618954" lon="1.9469823">
        <ele>171.0</ele>
        <time>2022-04-14T09:03:28Z</time>
      </trkpt>
      <trkpt lat="47.61894" lon="1.9469867">
        <ele>170.0</ele>
        <time>2022-04-14T09:03:29Z</time>
      </trkpt>
      <trkpt lat="47.618927" lon="1.9469899">
        <ele>170.0</ele>
        <time>2022-04-14T09:03:30Z</time>
      </trkpt>
      <trkpt lat="47.618916" lon="1.946997">
        <ele>170.0</ele>
        <time>2022-04-14T09:03:31Z</time>
      </trkpt>
      <trkpt lat="47.618904" lon="1.9470063">
        <ele>170.0</ele>
        <time>2022-04-14T09:03:32Z</time>
      </trkpt>
      <trkpt lat="47.618893" lon="1.9470091">
        <ele>170.0</ele>
        <time>2022-04-14T09:03:33Z</time>
      </trkpt>
      <trkpt lat="47.61888" lon="1.9470158">
        <ele>171.0</ele>
        <time>2022-04-14T09:03:34Z</time>
      </trkpt>
      <trkpt lat="47.618866" lon="1.9470243">
        <ele>171.0</ele>
        <time>2022-04-14T09:03:35Z</time>
      </trkpt>
      <trkpt lat="47.618855" lon="1.9470309">
        <ele>171.0</ele>
        <time>2022-04-14T09:03:36Z</time>
      </trkpt>
      <trkpt lat="47.618843" lon="1.9470387">
        <ele>170.0</ele>
        <time>2022-04-14T09:03:37Z</time>
      </trkpt>
      <trkpt lat="47.618835" lon="1.9470456">
        <ele>170.0</ele>
        <time>2022-04-14T09:03:38Z</time>
      </trkpt>
      <trkpt lat="47.61882" lon="1.9470577">
        <ele>170.0</ele>
        <time>2022-04-14T09:03:39Z</time>
      </trkpt>
      <trkpt lat="47.61881" lon="1.9470693">
        <ele>170.0</ele>
        <time>2022-04-14T09:03:40Z</time>
      </trkpt>
      <trkpt lat="47.618797" lon="1.9470705">
        <ele>170.0</ele>
        <time>2022-04-14T09:03:41Z</time>
      </trkpt>
      <trkpt lat="47.618786" lon="1.9470713">
        <ele>170.0</ele>
        <time>2022-04-14T09:03:42Z</time>
      </trkpt>
      <trkpt lat="47.618774" lon="1.9470773">
        <ele>170.0</ele>
        <time>2022-04-14T09:03:43Z</time>
      </trkpt>
      <trkpt lat="47.618767" lon="1.9470775">
        <ele>170.0</ele>
        <time>2022-04-14T09:03:44Z</time>
      </trkpt>
      <trkpt lat="47.61875" lon="1.9470794">
        <ele>171.0</ele>
        <time>2022-04-14T09:03:45Z</time>
      </trkpt>
      <trkpt lat="47.61874" lon="1.947084">
        <ele>171.0</ele>
        <time>2022-04-14T09:03:46Z</time>
      </trkpt>
      <trkpt lat="47.61873" lon="1.947089">
        <ele>171.0</ele>
        <time>2022-04-14T09:03:47Z</time>
      </trkpt>
      <trkpt lat="47.618717" lon="1.947096">
        <ele>170.0</ele>
        <time>2022-04-14T09:03:48Z</time>
      </trkpt>
      <trkpt lat="47.618706" lon="1.9470978">
        <ele>170.0</ele>
        <time>2022-04-14T09:03:49Z</time>
      </trkpt>
      <trkpt lat="47.6187" lon="1.9471018">
        <ele>170.0</ele>
        <time>2022-04-14T09:03:50Z</time>
      </trkpt>
      <trkpt lat="47.61869" lon="1.9471046">
        <ele>170.0</ele>
        <time>2022-04-14T09:03:51Z</time>
      </trkpt>
      <trkpt lat="47.61868" lon="1.9471068">
        <ele>169.0</ele>
        <time>2022-04-14T09:03:52Z</time>
      </trkpt>
      <trkpt lat="47.618668" lon="1.9471159">
        <ele>169.0</ele>
        <time>2022-04-14T09:03:53Z</time>
      </trkpt>
      <trkpt lat="47.618656" lon="1.9471269">
        <ele>169.0</ele>
        <time>2022-04-14T09:03:54Z</time>
      </trkpt>
      <trkpt lat="47.618645" lon="1.9471359">
        <ele>169.0</ele>
        <time>2022-04-14T09:03:55Z</time>
      </trkpt>
      <trkpt lat="47.618637" lon="1.9471422">
        <ele>169.0</ele>
        <time>2022-04-14T09:03:56Z</time>
      </trkpt>
      <trkpt lat="47.61863" lon="1.9471474">
        <ele>169.0</ele>
        <time>2022-04-14T09:03:57Z</time>
      </trkpt>
      <trkpt lat="47.618618" lon="1.947153">
        <ele>169.0</ele>
        <time>2022-04-14T09:03:58Z</time>
      </trkpt>
      <trkpt lat="47.61861" lon="1.9471555">
        <ele>169.0</ele>
        <time>2022-04-14T09:03:59Z</time>
      </trkpt>
      <trkpt lat="47.6186" lon="1.9471599">
        <ele>169.0</ele>
        <time>2022-04-14T09:04:00Z</time>
      </trkpt>
      <trkpt lat="47.618587" lon="1.9471687">
        <ele>168.0</ele>
        <time>2022-04-14T09:04:01Z</time>
      </trkpt>
      <trkpt lat="47.61858" lon="1.9471751">
        <ele>168.0</ele>
        <time>2022-04-14T09:04:02Z</time>
      </trkpt>
      <trkpt lat="47.618565" lon="1.9471842">
        <ele>168.0</ele>
        <time>2022-04-14T09:04:03Z</time>
      </trkpt>
      <trkpt lat="47.618553" lon="1.9471898">
        <ele>168.0</ele>
        <time>2022-04-14T09:04:04Z</time>
      </trkpt>
      <trkpt lat="47.618546" lon="1.9471966">
        <ele>168.0</ele>
        <time>2022-04-14T09:04:05Z</time>
      </trkpt>
      <trkpt lat="47.618538" lon="1.9472013">
        <ele>168.0</ele>
        <time>2022-04-14T09:04:06Z</time>
      </trkpt>
      <trkpt lat="47.618526" lon="1.9472069">
        <ele>168.0</ele>
        <time>2022-04-14T09:04:07Z</time>
      </trkpt>
      <trkpt lat="47.618515" lon="1.9472145">
        <ele>168.0</ele>
        <time>2022-04-14T09:04:08Z</time>
      </trkpt>
      <trkpt lat="47.618504" lon="1.9472269">
        <ele>168.0</ele>
        <time>2022-04-14T09:04:09Z</time>
      </trkpt>
      <trkpt lat="47.618492" lon="1.9472382">
        <ele>168.0</ele>
        <time>2022-04-14T09:04:10Z</time>
      </trkpt>
      <trkpt lat="47.61849" lon="1.9472449">
        <ele>168.0</ele>
        <time>2022-04-14T09:04:11Z</time>
      </trkpt>
      <trkpt lat="47.61848" lon="1.947249">
        <ele>168.0</ele>
        <time>2022-04-14T09:04:12Z</time>
      </trkpt>
      <trkpt lat="47.618473" lon="1.9472542">
        <ele>168.0</ele>
        <time>2022-04-14T09:04:13Z</time>
      </trkpt>
      <trkpt lat="47.618465" lon="1.9472606">
        <ele>168.0</ele>
        <time>2022-04-14T09:04:14Z</time>
      </trkpt>
      <trkpt lat="47.618458" lon="1.9472638">
        <ele>167.0</ele>
        <time>2022-04-14T09:04:15Z</time>
      </trkpt>
      <trkpt lat="47.618454" lon="1.9472692">
        <ele>167.0</ele>
        <time>2022-04-14T09:04:16Z</time>
      </trkpt>
      <trkpt lat="47.618446" lon="1.9472808">
        <ele>167.0</ele>
        <time>2022-04-14T09:04:17Z</time>
      </trkpt>
      <trkpt lat="47.618435" lon="1.9472886">
        <ele>167.0</ele>
        <time>2022-04-14T09:04:18Z</time>
      </trkpt>
      <trkpt lat="47.618427" lon="1.9472955">
        <ele>167.0</ele>
        <time>2022-04-14T09:04:19Z</time>
      </trkpt>
      <trkpt lat="47.618423" lon="1.9473034">
        <ele>168.0</ele>
        <time>2022-04-14T09:04:20Z</time>
      </trkpt>
      <trkpt lat="47.618412" lon="1.9473141">
        <ele>168.0</ele>
        <time>2022-04-14T09:04:21Z</time>
      </trkpt>
      <trkpt lat="47.618404" lon="1.9473208">
        <ele>169.0</ele>
        <time>2022-04-14T09:04:22Z</time>
      </trkpt>
      <trkpt lat="47.618393" lon="1.9473311">
        <ele>169.0</ele>
        <time>2022-04-14T09:04:23Z</time>
      </trkpt>
      <trkpt lat="47.618385" lon="1.9473403">
        <ele>169.0</ele>
        <time>2022-04-14T09:04:24Z</time>
      </trkpt>
      <trkpt lat="47.618378" lon="1.9473449">
        <ele>169.0</ele>
        <time>2022-04-14T09:04:25Z</time>
      </trkpt>
      <trkpt lat="47.61837" lon="1.9473503">
        <ele>169.0</ele>
        <time>2022-04-14T09:04:26Z</time>
      </trkpt>
      <trkpt lat="47.61837" lon="1.9473503">
        <ele>169.0</ele>
        <time>2022-04-14T09:04:27Z</time>
      </trkpt>
      <trkpt lat="47.61837" lon="1.9473503">
        <ele>169.0</ele>
        <time>2022-04-14T09:04:28Z</time>
      </trkpt>
      <trkpt lat="47.61834" lon="1.947367">
        <ele>169.0</ele>
        <time>2022-04-14T09:04:29Z</time>
      </trkpt>
      <trkpt lat="47.61833" lon="1.9473697">
        <ele>169.0</ele>
        <time>2022-04-14T09:04:30Z</time>
      </trkpt>
      <trkpt lat="47.618313" lon="1.9473765">
        <ele>169.0</ele>
        <time>2022-04-14T09:04:31Z</time>
      </trkpt>
      <trkpt lat="47.618298" lon="1.9473857">
        <ele>169.0</ele>
        <time>2022-04-14T09:04:32Z</time>
      </trkpt>
      <trkpt lat="47.618286" lon="1.9473959">
        <ele>169.0</ele>
        <time>2022-04-14T09:04:33Z</time>
      </trkpt>
      <trkpt lat="47.61827" lon="1.9474033">
        <ele>169.0</ele>
        <time>2022-04-14T09:04:34Z</time>
      </trkpt>
      <trkpt lat="47.61826" lon="1.9474143">
        <ele>168.0</ele>
        <time>2022-04-14T09:04:35Z</time>
      </trkpt>
      <trkpt lat="47.618248" lon="1.9474187">
        <ele>169.0</ele>
        <time>2022-04-14T09:04:36Z</time>
      </trkpt>
      <trkpt lat="47.61824" lon="1.9474257">
        <ele>168.0</ele>
        <time>2022-04-14T09:04:37Z</time>
      </trkpt>
      <trkpt lat="47.61823" lon="1.9474345">
        <ele>168.0</ele>
        <time>2022-04-14T09:04:38Z</time>
      </trkpt>
      <trkpt lat="47.618217" lon="1.9474423">
        <ele>168.0</ele>
        <time>2022-04-14T09:04:39Z</time>
      </trkpt>
      <trkpt lat="47.618206" lon="1.9474472">
        <ele>168.0</ele>
        <time>2022-04-14T09:04:40Z</time>
      </trkpt>
      <trkpt lat="47.61819" lon="1.9474559">
        <ele>168.0</ele>
        <time>2022-04-14T09:04:41Z</time>
      </trkpt>
      <trkpt lat="47.61818" lon="1.9474651">
        <ele>168.0</ele>
        <time>2022-04-14T09:04:42Z</time>
      </trkpt>
      <trkpt lat="47.618168" lon="1.9474708">
        <ele>168.0</ele>
        <time>2022-04-14T09:04:43Z</time>
      </trkpt>
      <trkpt lat="47.618156" lon="1.9474759">
        <ele>168.0</ele>
        <time>2022-04-14T09:04:44Z</time>
      </trkpt>
      <trkpt lat="47.618145" lon="1.9474856">
        <ele>168.0</ele>
        <time>2022-04-14T09:04:45Z</time>
      </trkpt>
      <trkpt lat="47.61813" lon="1.9474965">
        <ele>169.0</ele>
        <time>2022-04-14T09:04:46Z</time>
      </trkpt>
      <trkpt lat="47.618114" lon="1.9475019">
        <ele>168.0</ele>
        <time>2022-04-14T09:04:47Z</time>
      </trkpt>
      <trkpt lat="47.6181" lon="1.9474993">
        <ele>168.0</ele>
        <time>2022-04-14T09:04:48Z</time>
      </trkpt>
      <trkpt lat="47.618088" lon="1.9475026">
        <ele>168.0</ele>
        <time>2022-04-14T09:04:49Z</time>
      </trkpt>
      <trkpt lat="47.618084" lon="1.9475101">
        <ele>168.0</ele>
        <time>2022-04-14T09:04:50Z</time>
      </trkpt>
      <trkpt lat="47.618073" lon="1.94751">
        <ele>168.0</ele>
        <time>2022-04-14T09:04:51Z</time>
      </trkpt>
      <trkpt lat="47.618065" lon="1.9475143">
        <ele>168.0</ele>
        <time>2022-04-14T09:04:52Z</time>
      </trkpt>
      <trkpt lat="47.61805" lon="1.9475231">
        <ele>168.0</ele>
        <time>2022-04-14T09:04:53Z</time>
      </trkpt>
      <trkpt lat="47.618034" lon="1.9475341">
        <ele>168.0</ele>
        <time>2022-04-14T09:04:54Z</time>
      </trkpt>
      <trkpt lat="47.61802" lon="1.9475422">
        <ele>168.0</ele>
        <time>2022-04-14T09:04:55Z</time>
      </trkpt>
      <trkpt lat="47.618008" lon="1.9475502">
        <ele>168.0</ele>
        <time>2022-04-14T09:04:56Z</time>
      </trkpt>
      <trkpt lat="47.617992" lon="1.947556">
        <ele>168.0</ele>
        <time>2022-04-14T09:04:57Z</time>
      </trkpt>
      <trkpt lat="47.61798" lon="1.947566">
        <ele>168.0</ele>
        <time>2022-04-14T09:04:58Z</time>
      </trkpt>
      <trkpt lat="47.61797" lon="1.947575">
        <ele>168.0</ele>
        <time>2022-04-14T09:04:59Z</time>
      </trkpt>
      <trkpt lat="47.617954" lon="1.9475842">
        <ele>169.0</ele>
        <time>2022-04-14T09:05:00Z</time>
      </trkpt>
      <trkpt lat="47.617943" lon="1.9475939">
        <ele>169.0</ele>
        <time>2022-04-14T09:05:01Z</time>
      </trkpt>
      <trkpt lat="47.617935" lon="1.9476043">
        <ele>169.0</ele>
        <time>2022-04-14T09:05:02Z</time>
      </trkpt>
      <trkpt lat="47.617924" lon="1.9476165">
        <ele>169.0</ele>
        <time>2022-04-14T09:05:03Z</time>
      </trkpt>
      <trkpt lat="47.617916" lon="1.947624">
        <ele>169.0</ele>
        <time>2022-04-14T09:05:04Z</time>
      </trkpt>
      <trkpt lat="47.61791" lon="1.9476253">
        <ele>169.0</ele>
        <time>2022-04-14T09:05:05Z</time>
      </trkpt>
      <trkpt lat="47.6179" lon="1.947628">
        <ele>169.0</ele>
        <time>2022-04-14T09:05:06Z</time>
      </trkpt>
      <trkpt lat="47.61789" lon="1.9476316">
        <ele>169.0</ele>
        <time>2022-04-14T09:05:07Z</time>
      </trkpt>
      <trkpt lat="47.617878" lon="1.9476376">
        <ele>168.0</ele>
        <time>2022-04-14T09:05:08Z</time>
      </trkpt>
      <trkpt lat="47.617863" lon="1.9476461">
        <ele>169.0</ele>
        <time>2022-04-14T09:05:09Z</time>
      </trkpt>
      <trkpt lat="47.61785" lon="1.9476578">
        <ele>169.0</ele>
        <time>2022-04-14T09:05:10Z</time>
      </trkpt>
      <trkpt lat="47.61784" lon="1.9476658">
        <ele>169.0</ele>
        <time>2022-04-14T09:05:11Z</time>
      </trkpt>
      <trkpt lat="47.61783" lon="1.9476789">
        <ele>169.0</ele>
        <time>2022-04-14T09:05:12Z</time>
      </trkpt>
      <trkpt lat="47.61781" lon="1.9476902">
        <ele>169.0</ele>
        <time>2022-04-14T09:05:13Z</time>
      </trkpt>
      <trkpt lat="47.617798" lon="1.9476899">
        <ele>169.0</ele>
        <time>2022-04-14T09:05:14Z</time>
      </trkpt>
      <trkpt lat="47.617786" lon="1.9476943">
        <ele>169.0</ele>
        <time>2022-04-14T09:05:15Z</time>
      </trkpt>
      <trkpt lat="47.61778" lon="1.9476951">
        <ele>169.0</ele>
        <time>2022-04-14T09:05:16Z</time>
      </trkpt>
      <trkpt lat="47.61777" lon="1.9476987">
        <ele>169.0</ele>
        <time>2022-04-14T09:05:17Z</time>
      </trkpt>
      <trkpt lat="47.617767" lon="1.9477082">
        <ele>169.0</ele>
        <time>2022-04-14T09:05:18Z</time>
      </trkpt>
      <trkpt lat="47.617764" lon="1.9477116">
        <ele>168.0</ele>
        <time>2022-04-14T09:05:19Z</time>
      </trkpt>
      <trkpt lat="47.617752" lon="1.9477142">
        <ele>169.0</ele>
        <time>2022-04-14T09:05:20Z</time>
      </trkpt>
      <trkpt lat="47.61775" lon="1.9477164">
        <ele>168.0</ele>
        <time>2022-04-14T09:05:21Z</time>
      </trkpt>
      <trkpt lat="47.61774" lon="1.9477255">
        <ele>168.0</ele>
        <time>2022-04-14T09:05:22Z</time>
      </trkpt>
      <trkpt lat="47.617733" lon="1.9477323">
        <ele>168.0</ele>
        <time>2022-04-14T09:05:23Z</time>
      </trkpt>
      <trkpt lat="47.617725" lon="1.9477367">
        <ele>168.0</ele>
        <time>2022-04-14T09:05:24Z</time>
      </trkpt>
      <trkpt lat="47.617706" lon="1.9477427">
        <ele>168.0</ele>
        <time>2022-04-14T09:05:25Z</time>
      </trkpt>
      <trkpt lat="47.617695" lon="1.9477487">
        <ele>168.0</ele>
        <time>2022-04-14T09:05:26Z</time>
      </trkpt>
      <trkpt lat="47.617683" lon="1.9477551">
        <ele>168.0</ele>
        <time>2022-04-14T09:05:27Z</time>
      </trkpt>
      <trkpt lat="47.61767" lon="1.9477607">
        <ele>168.0</ele>
        <time>2022-04-14T09:05:28Z</time>
      </trkpt>
      <trkpt lat="47.617657" lon="1.94777">
        <ele>168.0</ele>
        <time>2022-04-14T09:05:29Z</time>
      </trkpt>
      <trkpt lat="47.61765" lon="1.9477733">
        <ele>168.0</ele>
        <time>2022-04-14T09:05:30Z</time>
      </trkpt>
      <trkpt lat="47.617638" lon="1.9477828">
        <ele>168.0</ele>
        <time>2022-04-14T09:05:31Z</time>
      </trkpt>
      <trkpt lat="47.617626" lon="1.94779">
        <ele>168.0</ele>
        <time>2022-04-14T09:05:32Z</time>
      </trkpt>
      <trkpt lat="47.61761" lon="1.9477985">
        <ele>168.0</ele>
        <time>2022-04-14T09:05:33Z</time>
      </trkpt>
      <trkpt lat="47.6176" lon="1.9478006">
        <ele>168.0</ele>
        <time>2022-04-14T09:05:34Z</time>
      </trkpt>
      <trkpt lat="47.61759" lon="1.9477999">
        <ele>168.0</ele>
        <time>2022-04-14T09:05:35Z</time>
      </trkpt>
      <trkpt lat="47.617584" lon="1.9478025">
        <ele>168.0</ele>
        <time>2022-04-14T09:05:36Z</time>
      </trkpt>
      <trkpt lat="47.617573" lon="1.9478084">
        <ele>168.0</ele>
        <time>2022-04-14T09:05:37Z</time>
      </trkpt>
      <trkpt lat="47.617565" lon="1.9478136">
        <ele>168.0</ele>
        <time>2022-04-14T09:05:38Z</time>
      </trkpt>
      <trkpt lat="47.617558" lon="1.9478215">
        <ele>168.0</ele>
        <time>2022-04-14T09:05:39Z</time>
      </trkpt>
      <trkpt lat="47.617542" lon="1.9478285">
        <ele>168.0</ele>
        <time>2022-04-14T09:05:40Z</time>
      </trkpt>
      <trkpt lat="47.617535" lon="1.9478337">
        <ele>168.0</ele>
        <time>2022-04-14T09:05:41Z</time>
      </trkpt>
      <trkpt lat="47.617523" lon="1.9478402">
        <ele>168.0</ele>
        <time>2022-04-14T09:05:42Z</time>
      </trkpt>
      <trkpt lat="47.617516" lon="1.9478436">
        <ele>168.0</ele>
        <time>2022-04-14T09:05:43Z</time>
      </trkpt>
      <trkpt lat="47.617508" lon="1.9478499">
        <ele>168.0</ele>
        <time>2022-04-14T09:05:44Z</time>
      </trkpt>
      <trkpt lat="47.6175" lon="1.947854">
        <ele>168.0</ele>
        <time>2022-04-14T09:05:45Z</time>
      </trkpt>
      <trkpt lat="47.61749" lon="1.9478608">
        <ele>167.0</ele>
        <time>2022-04-14T09:05:46Z</time>
      </trkpt>
      <trkpt lat="47.61748" lon="1.9478687">
        <ele>167.0</ele>
        <time>2022-04-14T09:05:47Z</time>
      </trkpt>
      <trkpt lat="47.617466" lon="1.9478815">
        <ele>167.0</ele>
        <time>2022-04-14T09:05:48Z</time>
      </trkpt>
      <trkpt lat="47.61746" lon="1.9478891">
        <ele>167.0</ele>
        <time>2022-04-14T09:05:49Z</time>
      </trkpt>
      <trkpt lat="47.617447" lon="1.9478991">
        <ele>167.0</ele>
        <time>2022-04-14T09:05:50Z</time>
      </trkpt>
      <trkpt lat="47.61744" lon="1.9479069">
        <ele>167.0</ele>
        <time>2022-04-14T09:05:51Z</time>
      </trkpt>
      <trkpt lat="47.61743" lon="1.9479154">
        <ele>167.0</ele>
        <time>2022-04-14T09:05:52Z</time>
      </trkpt>
      <trkpt lat="47.617424" lon="1.9479177">
        <ele>167.0</ele>
        <time>2022-04-14T09:05:53Z</time>
      </trkpt>
      <trkpt lat="47.617413" lon="1.947923">
        <ele>167.0</ele>
        <time>2022-04-14T09:05:54Z</time>
      </trkpt>
      <trkpt lat="47.6174" lon="1.9479307">
        <ele>167.0</ele>
        <time>2022-04-14T09:05:55Z</time>
      </trkpt>
      <trkpt lat="47.617386" lon="1.9479403">
        <ele>167.0</ele>
        <time>2022-04-14T09:05:56Z</time>
      </trkpt>
      <trkpt lat="47.617374" lon="1.9479468">
        <ele>167.0</ele>
        <time>2022-04-14T09:05:57Z</time>
      </trkpt>
      <trkpt lat="47.617367" lon="1.9479574">
        <ele>166.0</ele>
        <time>2022-04-14T09:05:58Z</time>
      </trkpt>
      <trkpt lat="47.61736" lon="1.9479643">
        <ele>166.0</ele>
        <time>2022-04-14T09:05:59Z</time>
      </trkpt>
      <trkpt lat="47.617348" lon="1.947973">
        <ele>166.0</ele>
        <time>2022-04-14T09:06:00Z</time>
      </trkpt>
      <trkpt lat="47.617336" lon="1.9479784">
        <ele>166.0</ele>
        <time>2022-04-14T09:06:01Z</time>
      </trkpt>
      <trkpt lat="47.617325" lon="1.9479864">
        <ele>166.0</ele>
        <time>2022-04-14T09:06:02Z</time>
      </trkpt>
      <trkpt lat="47.617313" lon="1.9479947">
        <ele>166.0</ele>
        <time>2022-04-14T09:06:03Z</time>
      </trkpt>
      <trkpt lat="47.617306" lon="1.9480027">
        <ele>166.0</ele>
        <time>2022-04-14T09:06:04Z</time>
      </trkpt>
      <trkpt lat="47.617294" lon="1.9480065">
        <ele>166.0</ele>
        <time>2022-04-14T09:06:05Z</time>
      </trkpt>
      <trkpt lat="47.617283" lon="1.9480156">
        <ele>166.0</ele>
        <time>2022-04-14T09:06:06Z</time>
      </trkpt>
      <trkpt lat="47.617275" lon="1.9480237">
        <ele>166.0</ele>
        <time>2022-04-14T09:06:07Z</time>
      </trkpt>
      <trkpt lat="47.61727" lon="1.948027">
        <ele>166.0</ele>
        <time>2022-04-14T09:06:08Z</time>
      </trkpt>
      <trkpt lat="47.61726" lon="1.9480326">
        <ele>166.0</ele>
        <time>2022-04-14T09:06:09Z</time>
      </trkpt>
      <trkpt lat="47.617252" lon="1.9480381">
        <ele>166.0</ele>
        <time>2022-04-14T09:06:10Z</time>
      </trkpt>
      <trkpt lat="47.61724" lon="1.9480426">
        <ele>166.0</ele>
        <time>2022-04-14T09:06:11Z</time>
      </trkpt>
      <trkpt lat="47.61723" lon="1.94805">
        <ele>166.0</ele>
        <time>2022-04-14T09:06:12Z</time>
      </trkpt>
      <trkpt lat="47.617214" lon="1.9480555">
        <ele>166.0</ele>
        <time>2022-04-14T09:06:13Z</time>
      </trkpt>
      <trkpt lat="47.61721" lon="1.948069">
        <ele>165.0</ele>
        <time>2022-04-14T09:06:14Z</time>
      </trkpt>
      <trkpt lat="47.617203" lon="1.9480797">
        <ele>165.0</ele>
        <time>2022-04-14T09:06:15Z</time>
      </trkpt>
      <trkpt lat="47.617188" lon="1.9480892">
        <ele>165.0</ele>
        <time>2022-04-14T09:06:16Z</time>
      </trkpt>
      <trkpt lat="47.617176" lon="1.9480982">
        <ele>165.0</ele>
        <time>2022-04-14T09:06:17Z</time>
      </trkpt>
      <trkpt lat="47.617157" lon="1.9481052">
        <ele>165.0</ele>
        <time>2022-04-14T09:06:18Z</time>
      </trkpt>
      <trkpt lat="47.617146" lon="1.9481151">
        <ele>165.0</ele>
        <time>2022-04-14T09:06:19Z</time>
      </trkpt>
      <trkpt lat="47.61713" lon="1.9481231">
        <ele>165.0</ele>
        <time>2022-04-14T09:06:20Z</time>
      </trkpt>
      <trkpt lat="47.61712" lon="1.9481314">
        <ele>165.0</ele>
        <time>2022-04-14T09:06:21Z</time>
      </trkpt>
      <trkpt lat="47.617104" lon="1.9481409">
        <ele>165.0</ele>
        <time>2022-04-14T09:06:22Z</time>
      </trkpt>
      <trkpt lat="47.617092" lon="1.9481475">
        <ele>165.0</ele>
        <time>2022-04-14T09:06:23Z</time>
      </trkpt>
      <trkpt lat="47.617073" lon="1.9481578">
        <ele>165.0</ele>
        <time>2022-04-14T09:06:24Z</time>
      </trkpt>
      <trkpt lat="47.617065" lon="1.9481663">
        <ele>165.0</ele>
        <time>2022-04-14T09:06:25Z</time>
      </trkpt>
      <trkpt lat="47.617058" lon="1.9481727">
        <ele>165.0</ele>
        <time>2022-04-14T09:06:26Z</time>
      </trkpt>
      <trkpt lat="47.617046" lon="1.9481821">
        <ele>165.0</ele>
        <time>2022-04-14T09:06:27Z</time>
      </trkpt>
      <trkpt lat="47.61704" lon="1.948187">
        <ele>165.0</ele>
        <time>2022-04-14T09:06:28Z</time>
      </trkpt>
      <trkpt lat="47.617023" lon="1.9481972">
        <ele>165.0</ele>
        <time>2022-04-14T09:06:29Z</time>
      </trkpt>
      <trkpt lat="47.617012" lon="1.948206">
        <ele>166.0</ele>
        <time>2022-04-14T09:06:30Z</time>
      </trkpt>
      <trkpt lat="47.617" lon="1.9482099">
        <ele>165.0</ele>
        <time>2022-04-14T09:06:31Z</time>
      </trkpt>
      <trkpt lat="47.61699" lon="1.9482186">
        <ele>165.0</ele>
        <time>2022-04-14T09:06:32Z</time>
      </trkpt>
      <trkpt lat="47.616978" lon="1.9482265">
        <ele>165.0</ele>
        <time>2022-04-14T09:06:33Z</time>
      </trkpt>
      <trkpt lat="47.61697" lon="1.948234">
        <ele>165.0</ele>
        <time>2022-04-14T09:06:34Z</time>
      </trkpt>
      <trkpt lat="47.61696" lon="1.9482424">
        <ele>165.0</ele>
        <time>2022-04-14T09:06:35Z</time>
      </trkpt>
      <trkpt lat="47.616947" lon="1.9482499">
        <ele>165.0</ele>
        <time>2022-04-14T09:06:36Z</time>
      </trkpt>
      <trkpt lat="47.61694" lon="1.9482563">
        <ele>165.0</ele>
        <time>2022-04-14T09:06:37Z</time>
      </trkpt>
      <trkpt lat="47.616932" lon="1.9482626">
        <ele>165.0</ele>
        <time>2022-04-14T09:06:38Z</time>
      </trkpt>
      <trkpt lat="47.616917" lon="1.9482716">
        <ele>165.0</ele>
        <time>2022-04-14T09:06:39Z</time>
      </trkpt>
      <trkpt lat="47.616905" lon="1.9482806">
        <ele>165.0</ele>
        <time>2022-04-14T09:06:40Z</time>
      </trkpt>
      <trkpt lat="47.616898" lon="1.9482876">
        <ele>165.0</ele>
        <time>2022-04-14T09:06:41Z</time>
      </trkpt>
      <trkpt lat="47.61689" lon="1.9482926">
        <ele>165.0</ele>
        <time>2022-04-14T09:06:42Z</time>
      </trkpt>
      <trkpt lat="47.61688" lon="1.9483">
        <ele>165.0</ele>
        <time>2022-04-14T09:06:43Z</time>
      </trkpt>
      <trkpt lat="47.61687" lon="1.9483087">
        <ele>165.0</ele>
        <time>2022-04-14T09:06:44Z</time>
      </trkpt>
      <trkpt lat="47.61686" lon="1.9483094">
        <ele>165.0</ele>
        <time>2022-04-14T09:06:45Z</time>
      </trkpt>
      <trkpt lat="47.616856" lon="1.9483163">
        <ele>164.0</ele>
        <time>2022-04-14T09:06:46Z</time>
      </trkpt>
      <trkpt lat="47.616848" lon="1.9483209">
        <ele>164.0</ele>
        <time>2022-04-14T09:06:47Z</time>
      </trkpt>
      <trkpt lat="47.616833" lon="1.9483252">
        <ele>165.0</ele>
        <time>2022-04-14T09:06:48Z</time>
      </trkpt>
      <trkpt lat="47.61682" lon="1.9483283">
        <ele>165.0</ele>
        <time>2022-04-14T09:06:49Z</time>
      </trkpt>
      <trkpt lat="47.616814" lon="1.9483345">
        <ele>164.0</ele>
        <time>2022-04-14T09:06:50Z</time>
      </trkpt>
      <trkpt lat="47.616806" lon="1.9483391">
        <ele>165.0</ele>
        <time>2022-04-14T09:06:51Z</time>
      </trkpt>
      <trkpt lat="47.616795" lon="1.9483442">
        <ele>164.0</ele>
        <time>2022-04-14T09:06:52Z</time>
      </trkpt>
      <trkpt lat="47.616783" lon="1.9483452">
        <ele>165.0</ele>
        <time>2022-04-14T09:06:53Z</time>
      </trkpt>
      <trkpt lat="47.616764" lon="1.9483515">
        <ele>164.0</ele>
        <time>2022-04-14T09:06:54Z</time>
      </trkpt>
      <trkpt lat="47.616753" lon="1.9483565">
        <ele>164.0</ele>
        <time>2022-04-14T09:06:55Z</time>
      </trkpt>
      <trkpt lat="47.61674" lon="1.948361">
        <ele>164.0</ele>
        <time>2022-04-14T09:06:56Z</time>
      </trkpt>
      <trkpt lat="47.616726" lon="1.9483634">
        <ele>164.0</ele>
        <time>2022-04-14T09:06:57Z</time>
      </trkpt>
      <trkpt lat="47.61672" lon="1.9483668">
        <ele>164.0</ele>
        <time>2022-04-14T09:06:58Z</time>
      </trkpt>
      <trkpt lat="47.61671" lon="1.9483644">
        <ele>164.0</ele>
        <time>2022-04-14T09:06:59Z</time>
      </trkpt>
      <trkpt lat="47.6167" lon="1.9483675">
        <ele>164.0</ele>
        <time>2022-04-14T09:07:00Z</time>
      </trkpt>
      <trkpt lat="47.61669" lon="1.9483731">
        <ele>164.0</ele>
        <time>2022-04-14T09:07:01Z</time>
      </trkpt>
      <trkpt lat="47.61668" lon="1.9483817">
        <ele>164.0</ele>
        <time>2022-04-14T09:07:02Z</time>
      </trkpt>
      <trkpt lat="47.61667" lon="1.948385">
        <ele>163.0</ele>
        <time>2022-04-14T09:07:03Z</time>
      </trkpt>
      <trkpt lat="47.616657" lon="1.9483864">
        <ele>163.0</ele>
        <time>2022-04-14T09:07:04Z</time>
      </trkpt>
      <trkpt lat="47.616646" lon="1.9483861">
        <ele>164.0</ele>
        <time>2022-04-14T09:07:05Z</time>
      </trkpt>
      <trkpt lat="47.616642" lon="1.9483848">
        <ele>163.0</ele>
        <time>2022-04-14T09:07:06Z</time>
      </trkpt>
      <trkpt lat="47.616634" lon="1.9483922">
        <ele>163.0</ele>
        <time>2022-04-14T09:07:07Z</time>
      </trkpt>
      <trkpt lat="47.616627" lon="1.9483993">
        <ele>163.0</ele>
        <time>2022-04-14T09:07:08Z</time>
      </trkpt>
      <trkpt lat="47.61662" lon="1.9484107">
        <ele>163.0</ele>
        <time>2022-04-14T09:07:09Z</time>
      </trkpt>
      <trkpt lat="47.616604" lon="1.948416">
        <ele>163.0</ele>
        <time>2022-04-14T09:07:10Z</time>
      </trkpt>
      <trkpt lat="47.616592" lon="1.9484192">
        <ele>163.0</ele>
        <time>2022-04-14T09:07:11Z</time>
      </trkpt>
      <trkpt lat="47.616577" lon="1.9484237">
        <ele>163.0</ele>
        <time>2022-04-14T09:07:12Z</time>
      </trkpt>
      <trkpt lat="47.61656" lon="1.9484304">
        <ele>163.0</ele>
        <time>2022-04-14T09:07:13Z</time>
      </trkpt>
      <trkpt lat="47.61655" lon="1.9484384">
        <ele>163.0</ele>
        <time>2022-04-14T09:07:14Z</time>
      </trkpt>
      <trkpt lat="47.616535" lon="1.9484462">
        <ele>163.0</ele>
        <time>2022-04-14T09:07:15Z</time>
      </trkpt>
      <trkpt lat="47.61652" lon="1.9484533">
        <ele>163.0</ele>
        <time>2022-04-14T09:07:16Z</time>
      </trkpt>
      <trkpt lat="47.61651" lon="1.9484533">
        <ele>162.0</ele>
        <time>2022-04-14T09:07:17Z</time>
      </trkpt>
      <trkpt lat="47.6165" lon="1.9484534">
        <ele>163.0</ele>
        <time>2022-04-14T09:07:18Z</time>
      </trkpt>
      <trkpt lat="47.61649" lon="1.9484622">
        <ele>162.0</ele>
        <time>2022-04-14T09:07:19Z</time>
      </trkpt>
      <trkpt lat="47.616478" lon="1.948473">
        <ele>162.0</ele>
        <time>2022-04-14T09:07:20Z</time>
      </trkpt>
      <trkpt lat="47.616467" lon="1.9484844">
        <ele>162.0</ele>
        <time>2022-04-14T09:07:21Z</time>
      </trkpt>
      <trkpt lat="47.61645" lon="1.9484966">
        <ele>163.0</ele>
        <time>2022-04-14T09:07:22Z</time>
      </trkpt>
      <trkpt lat="47.616444" lon="1.9485017">
        <ele>163.0</ele>
        <time>2022-04-14T09:07:23Z</time>
      </trkpt>
      <trkpt lat="47.616436" lon="1.9485035">
        <ele>163.0</ele>
        <time>2022-04-14T09:07:24Z</time>
      </trkpt>
      <trkpt lat="47.61642" lon="1.9485121">
        <ele>163.0</ele>
        <time>2022-04-14T09:07:25Z</time>
      </trkpt>
      <trkpt lat="47.6164" lon="1.948517">
        <ele>163.0</ele>
        <time>2022-04-14T09:07:26Z</time>
      </trkpt>
      <trkpt lat="47.616386" lon="1.9485183">
        <ele>164.0</ele>
        <time>2022-04-14T09:07:27Z</time>
      </trkpt>
      <trkpt lat="47.61637" lon="1.9485245">
        <ele>164.0</ele>
        <time>2022-04-14T09:07:28Z</time>
      </trkpt>
      <trkpt lat="47.616352" lon="1.9485273">
        <ele>164.0</ele>
        <time>2022-04-14T09:07:29Z</time>
      </trkpt>
      <trkpt lat="47.616337" lon="1.9485315">
        <ele>164.0</ele>
        <time>2022-04-14T09:07:30Z</time>
      </trkpt>
      <trkpt lat="47.616318" lon="1.9485358">
        <ele>164.0</ele>
        <time>2022-04-14T09:07:31Z</time>
      </trkpt>
      <trkpt lat="47.61631" lon="1.9485424">
        <ele>163.0</ele>
        <time>2022-04-14T09:07:32Z</time>
      </trkpt>
      <trkpt lat="47.6163" lon="1.9485431">
        <ele>163.0</ele>
        <time>2022-04-14T09:07:33Z</time>
      </trkpt>
      <trkpt lat="47.616283" lon="1.9485515">
        <ele>163.0</ele>
        <time>2022-04-14T09:07:34Z</time>
      </trkpt>
      <trkpt lat="47.616276" lon="1.9485561">
        <ele>163.0</ele>
        <time>2022-04-14T09:07:35Z</time>
      </trkpt>
      <trkpt lat="47.61627" lon="1.9485618">
        <ele>163.0</ele>
        <time>2022-04-14T09:07:36Z</time>
      </trkpt>
      <trkpt lat="47.616257" lon="1.948564">
        <ele>163.0</ele>
        <time>2022-04-14T09:07:37Z</time>
      </trkpt>
      <trkpt lat="47.616245" lon="1.9485688">
        <ele>163.0</ele>
        <time>2022-04-14T09:07:38Z</time>
      </trkpt>
      <trkpt lat="47.616234" lon="1.9485728">
        <ele>163.0</ele>
        <time>2022-04-14T09:07:39Z</time>
      </trkpt>
      <trkpt lat="47.61622" lon="1.9485787">
        <ele>163.0</ele>
        <time>2022-04-14T09:07:40Z</time>
      </trkpt>
      <trkpt lat="47.616207" lon="1.9485854">
        <ele>164.0</ele>
        <time>2022-04-14T09:07:41Z</time>
      </trkpt>
      <trkpt lat="47.616196" lon="1.9485871">
        <ele>164.0</ele>
        <time>2022-04-14T09:07:42Z</time>
      </trkpt>
      <trkpt lat="47.616188" lon="1.9485894">
        <ele>164.0</ele>
        <time>2022-04-14T09:07:43Z</time>
      </trkpt>
      <trkpt lat="47.616177" lon="1.9485978">
        <ele>164.0</ele>
        <time>2022-04-14T09:07:44Z</time>
      </trkpt>
      <trkpt lat="47.616165" lon="1.948605">
        <ele>164.0</ele>
        <time>2022-04-14T09:07:45Z</time>
      </trkpt>
      <trkpt lat="47.616158" lon="1.9486103">
        <ele>163.0</ele>
        <time>2022-04-14T09:07:46Z</time>
      </trkpt>
      <trkpt lat="47.616146" lon="1.948619">
        <ele>163.0</ele>
        <time>2022-04-14T09:07:47Z</time>
      </trkpt>
      <trkpt lat="47.61613" lon="1.9486315">
        <ele>163.0</ele>
        <time>2022-04-14T09:07:48Z</time>
      </trkpt>
      <trkpt lat="47.61612" lon="1.9486442">
        <ele>162.0</ele>
        <time>2022-04-14T09:07:49Z</time>
      </trkpt>
      <trkpt lat="47.616108" lon="1.9486539">
        <ele>162.0</ele>
        <time>2022-04-14T09:07:50Z</time>
      </trkpt>
      <trkpt lat="47.6161" lon="1.9486647">
        <ele>162.0</ele>
        <time>2022-04-14T09:07:51Z</time>
      </trkpt>
      <trkpt lat="47.616093" lon="1.9486715">
        <ele>163.0</ele>
        <time>2022-04-14T09:07:52Z</time>
      </trkpt>
      <trkpt lat="47.61608" lon="1.9486798">
        <ele>163.0</ele>
        <time>2022-04-14T09:07:53Z</time>
      </trkpt>
      <trkpt lat="47.61607" lon="1.9486887">
        <ele>162.0</ele>
        <time>2022-04-14T09:07:54Z</time>
      </trkpt>
      <trkpt lat="47.61606" lon="1.9486988">
        <ele>162.0</ele>
        <time>2022-04-14T09:07:55Z</time>
      </trkpt>
      <trkpt lat="47.61605" lon="1.9487084">
        <ele>162.0</ele>
        <time>2022-04-14T09:07:56Z</time>
      </trkpt>
      <trkpt lat="47.616043" lon="1.9487188">
        <ele>162.0</ele>
        <time>2022-04-14T09:07:57Z</time>
      </trkpt>
      <trkpt lat="47.61603" lon="1.9487302">
        <ele>162.0</ele>
        <time>2022-04-14T09:07:58Z</time>
      </trkpt>
      <trkpt lat="47.616024" lon="1.9487383">
        <ele>162.0</ele>
        <time>2022-04-14T09:07:59Z</time>
      </trkpt>
      <trkpt lat="47.61602" lon="1.9487537">
        <ele>162.0</ele>
        <time>2022-04-14T09:08:00Z</time>
      </trkpt>
      <trkpt lat="47.616013" lon="1.9487695">
        <ele>162.0</ele>
        <time>2022-04-14T09:08:01Z</time>
      </trkpt>
      <trkpt lat="47.616005" lon="1.9487817">
        <ele>162.0</ele>
        <time>2022-04-14T09:08:02Z</time>
      </trkpt>
      <trkpt lat="47.615997" lon="1.9487922">
        <ele>162.0</ele>
        <time>2022-04-14T09:08:03Z</time>
      </trkpt>
      <trkpt lat="47.61599" lon="1.9488027">
        <ele>162.0</ele>
        <time>2022-04-14T09:08:04Z</time>
      </trkpt>
      <trkpt lat="47.615974" lon="1.948821">
        <ele>162.0</ele>
        <time>2022-04-14T09:08:05Z</time>
      </trkpt>
      <trkpt lat="47.615963" lon="1.9488255">
        <ele>162.0</ele>
        <time>2022-04-14T09:08:06Z</time>
      </trkpt>
      <trkpt lat="47.615944" lon="1.948836">
        <ele>162.0</ele>
        <time>2022-04-14T09:08:07Z</time>
      </trkpt>
      <trkpt lat="47.615932" lon="1.9488478">
        <ele>162.0</ele>
        <time>2022-04-14T09:08:08Z</time>
      </trkpt>
      <trkpt lat="47.61592" lon="1.9488554">
        <ele>162.0</ele>
        <time>2022-04-14T09:08:09Z</time>
      </trkpt>
      <trkpt lat="47.615913" lon="1.948863">
        <ele>162.0</ele>
        <time>2022-04-14T09:08:10Z</time>
      </trkpt>
      <trkpt lat="47.615902" lon="1.9488635">
        <ele>162.0</ele>
        <time>2022-04-14T09:08:11Z</time>
      </trkpt>
      <trkpt lat="47.615887" lon="1.9488701">
        <ele>162.0</ele>
        <time>2022-04-14T09:08:12Z</time>
      </trkpt>
      <trkpt lat="47.615875" lon="1.9488728">
        <ele>162.0</ele>
        <time>2022-04-14T09:08:13Z</time>
      </trkpt>
      <trkpt lat="47.615868" lon="1.9488779">
        <ele>162.0</ele>
        <time>2022-04-14T09:08:14Z</time>
      </trkpt>
      <trkpt lat="47.61586" lon="1.9488825">
        <ele>161.0</ele>
        <time>2022-04-14T09:08:15Z</time>
      </trkpt>
      <trkpt lat="47.61585" lon="1.9488872">
        <ele>161.0</ele>
        <time>2022-04-14T09:08:16Z</time>
      </trkpt>
      <trkpt lat="47.615837" lon="1.9488928">
        <ele>161.0</ele>
        <time>2022-04-14T09:08:17Z</time>
      </trkpt>
      <trkpt lat="47.615826" lon="1.9488997">
        <ele>161.0</ele>
        <time>2022-04-14T09:08:18Z</time>
      </trkpt>
      <trkpt lat="47.615814" lon="1.9489013">
        <ele>161.0</ele>
        <time>2022-04-14T09:08:19Z</time>
      </trkpt>
      <trkpt lat="47.6158" lon="1.9489042">
        <ele>161.0</ele>
        <time>2022-04-14T09:08:20Z</time>
      </trkpt>
      <trkpt lat="47.615788" lon="1.9489087">
        <ele>161.0</ele>
        <time>2022-04-14T09:08:21Z</time>
      </trkpt>
      <trkpt lat="47.61578" lon="1.9489083">
        <ele>161.0</ele>
        <time>2022-04-14T09:08:22Z</time>
      </trkpt>
      <trkpt lat="47.61577" lon="1.9489132">
        <ele>161.0</ele>
        <time>2022-04-14T09:08:23Z</time>
      </trkpt>
      <trkpt lat="47.61576" lon="1.9489179">
        <ele>161.0</ele>
        <time>2022-04-14T09:08:24Z</time>
      </trkpt>
      <trkpt lat="47.615757" lon="1.9489304">
        <ele>161.0</ele>
        <time>2022-04-14T09:08:25Z</time>
      </trkpt>
      <trkpt lat="47.61575" lon="1.9489387">
        <ele>161.0</ele>
        <time>2022-04-14T09:08:26Z</time>
      </trkpt>
      <trkpt lat="47.615746" lon="1.9489409">
        <ele>161.0</ele>
        <time>2022-04-14T09:08:27Z</time>
      </trkpt>
      <trkpt lat="47.615734" lon="1.9489435">
        <ele>161.0</ele>
        <time>2022-04-14T09:08:28Z</time>
      </trkpt>
      <trkpt lat="47.615723" lon="1.9489503">
        <ele>161.0</ele>
        <time>2022-04-14T09:08:29Z</time>
      </trkpt>
      <trkpt lat="47.61571" lon="1.9489582">
        <ele>161.0</ele>
        <time>2022-04-14T09:08:30Z</time>
      </trkpt>
      <trkpt lat="47.6157" lon="1.9489658">
        <ele>161.0</ele>
        <time>2022-04-14T09:08:31Z</time>
      </trkpt>
      <trkpt lat="47.615692" lon="1.9489758">
        <ele>160.0</ele>
        <time>2022-04-14T09:08:32Z</time>
      </trkpt>
      <trkpt lat="47.615685" lon="1.9489796">
        <ele>160.0</ele>
        <time>2022-04-14T09:08:33Z</time>
      </trkpt>
      <trkpt lat="47.615677" lon="1.9489874">
        <ele>160.0</ele>
        <time>2022-04-14T09:08:34Z</time>
      </trkpt>
      <trkpt lat="47.61566" lon="1.9489945">
        <ele>160.0</ele>
        <time>2022-04-14T09:08:35Z</time>
      </trkpt>
      <trkpt lat="47.615654" lon="1.9489998">
        <ele>161.0</ele>
        <time>2022-04-14T09:08:36Z</time>
      </trkpt>
      <trkpt lat="47.615646" lon="1.9490099">
        <ele>161.0</ele>
        <time>2022-04-14T09:08:37Z</time>
      </trkpt>
      <trkpt lat="47.61563" lon="1.9490234">
        <ele>161.0</ele>
        <time>2022-04-14T09:08:38Z</time>
      </trkpt>
      <trkpt lat="47.615623" lon="1.9490299">
        <ele>161.0</ele>
        <time>2022-04-14T09:08:39Z</time>
      </trkpt>
      <trkpt lat="47.61561" lon="1.949034">
        <ele>162.0</ele>
        <time>2022-04-14T09:08:40Z</time>
      </trkpt>
      <trkpt lat="47.615593" lon="1.949035">
        <ele>162.0</ele>
        <time>2022-04-14T09:08:41Z</time>
      </trkpt>
      <trkpt lat="47.61558" lon="1.9490423">
        <ele>162.0</ele>
        <time>2022-04-14T09:08:42Z</time>
      </trkpt>
      <trkpt lat="47.61557" lon="1.9490482">
        <ele>162.0</ele>
        <time>2022-04-14T09:08:43Z</time>
      </trkpt>
      <trkpt lat="47.615562" lon="1.9490484">
        <ele>162.0</ele>
        <time>2022-04-14T09:08:44Z</time>
      </trkpt>
      <trkpt lat="47.615543" lon="1.9490556">
        <ele>162.0</ele>
        <time>2022-04-14T09:08:45Z</time>
      </trkpt>
      <trkpt lat="47.615543" lon="1.9490556">
        <ele>162.0</ele>
        <time>2022-04-14T09:08:45Z</time>
      </trkpt>
      <trkpt lat="47.615532" lon="1.9490651">
        <ele>162.0</ele>
        <time>2022-04-14T09:08:47Z</time>
      </trkpt>
      <trkpt lat="47.615513" lon="1.9490753">
        <ele>162.0</ele>
        <time>2022-04-14T09:08:48Z</time>
      </trkpt>
      <trkpt lat="47.6155" lon="1.949083">
        <ele>162.0</ele>
        <time>2022-04-14T09:08:49Z</time>
      </trkpt>
      <trkpt lat="47.61549" lon="1.9490905">
        <ele>162.0</ele>
        <time>2022-04-14T09:08:50Z</time>
      </trkpt>
      <trkpt lat="47.615475" lon="1.949103">
        <ele>163.0</ele>
        <time>2022-04-14T09:08:51Z</time>
      </trkpt>
      <trkpt lat="47.615448" lon="1.949125">
        <ele>163.0</ele>
        <time>2022-04-14T09:08:52Z</time>
      </trkpt>
      <trkpt lat="47.615448" lon="1.949125">
        <ele>163.0</ele>
        <time>2022-04-14T09:08:52Z</time>
      </trkpt>
      <trkpt lat="47.615437" lon="1.9491286">
        <ele>163.0</ele>
        <time>2022-04-14T09:08:54Z</time>
      </trkpt>
      <trkpt lat="47.615425" lon="1.9491286">
        <ele>163.0</ele>
        <time>2022-04-14T09:08:55Z</time>
      </trkpt>
      <trkpt lat="47.615414" lon="1.9491315">
        <ele>163.0</ele>
        <time>2022-04-14T09:08:56Z</time>
      </trkpt>
      <trkpt lat="47.615406" lon="1.9491351">
        <ele>163.0</ele>
        <time>2022-04-14T09:08:57Z</time>
      </trkpt>
      <trkpt lat="47.615395" lon="1.9491398">
        <ele>163.0</ele>
        <time>2022-04-14T09:08:58Z</time>
      </trkpt>
      <trkpt lat="47.61538" lon="1.9491446">
        <ele>163.0</ele>
        <time>2022-04-14T09:08:59Z</time>
      </trkpt>
      <trkpt lat="47.61537" lon="1.9491527">
        <ele>163.0</ele>
        <time>2022-04-14T09:09:00Z</time>
      </trkpt>
      <trkpt lat="47.615353" lon="1.9491614">
        <ele>163.0</ele>
        <time>2022-04-14T09:09:01Z</time>
      </trkpt>
      <trkpt lat="47.615345" lon="1.9491656">
        <ele>163.0</ele>
        <time>2022-04-14T09:09:02Z</time>
      </trkpt>
      <trkpt lat="47.615334" lon="1.9491707">
        <ele>163.0</ele>
        <time>2022-04-14T09:09:03Z</time>
      </trkpt>
      <trkpt lat="47.615322" lon="1.9491777">
        <ele>163.0</ele>
        <time>2022-04-14T09:09:04Z</time>
      </trkpt>
      <trkpt lat="47.61531" lon="1.9491875">
        <ele>162.0</ele>
        <time>2022-04-14T09:09:05Z</time>
      </trkpt>
      <trkpt lat="47.6153" lon="1.9491973">
        <ele>162.0</ele>
        <time>2022-04-14T09:09:06Z</time>
      </trkpt>
      <trkpt lat="47.615284" lon="1.9492097">
        <ele>162.0</ele>
        <time>2022-04-14T09:09:07Z</time>
      </trkpt>
      <trkpt lat="47.615276" lon="1.9492213">
        <ele>162.0</ele>
        <time>2022-04-14T09:09:08Z</time>
      </trkpt>
      <trkpt lat="47.61526" lon="1.9492326">
        <ele>162.0</ele>
        <time>2022-04-14T09:09:09Z</time>
      </trkpt>
      <trkpt lat="47.61525" lon="1.9492425">
        <ele>162.0</ele>
        <time>2022-04-14T09:09:10Z</time>
      </trkpt>
      <trkpt lat="47.61524" lon="1.9492526">
        <ele>163.0</ele>
        <time>2022-04-14T09:09:11Z</time>
      </trkpt>
      <trkpt lat="47.615227" lon="1.9492611">
        <ele>163.0</ele>
        <time>2022-04-14T09:09:12Z</time>
      </trkpt>
      <trkpt lat="47.615215" lon="1.9492725">
        <ele>163.0</ele>
        <time>2022-04-14T09:09:13Z</time>
      </trkpt>
      <trkpt lat="47.615215" lon="1.9492725">
        <ele>163.0</ele>
        <time>2022-04-14T09:09:13Z</time>
      </trkpt>
      <trkpt lat="47.6152" lon="1.9492922">
        <ele>163.0</ele>
        <time>2022-04-14T09:09:15Z</time>
      </trkpt>
      <trkpt lat="47.61519" lon="1.9493">
        <ele>163.0</ele>
        <time>2022-04-14T09:09:16Z</time>
      </trkpt>
      <trkpt lat="47.61518" lon="1.9493078">
        <ele>163.0</ele>
        <time>2022-04-14T09:09:17Z</time>
      </trkpt>
      <trkpt lat="47.615173" lon="1.9493171">
        <ele>163.0</ele>
        <time>2022-04-14T09:09:18Z</time>
      </trkpt>
      <trkpt lat="47.615166" lon="1.9493312">
        <ele>164.0</ele>
        <time>2022-04-14T09:09:19Z</time>
      </trkpt>
      <trkpt lat="47.615158" lon="1.9493463">
        <ele>163.0</ele>
        <time>2022-04-14T09:09:20Z</time>
      </trkpt>
      <trkpt lat="47.615147" lon="1.949359">
        <ele>163.0</ele>
        <time>2022-04-14T09:09:21Z</time>
      </trkpt>
      <trkpt lat="47.615135" lon="1.9493669">
        <ele>163.0</ele>
        <time>2022-04-14T09:09:22Z</time>
      </trkpt>
      <trkpt lat="47.615124" lon="1.9493755">
        <ele>163.0</ele>
        <time>2022-04-14T09:09:23Z</time>
      </trkpt>
      <trkpt lat="47.615112" lon="1.9493859">
        <ele>163.0</ele>
        <time>2022-04-14T09:09:24Z</time>
      </trkpt>
      <trkpt lat="47.6151" lon="1.9493957">
        <ele>163.0</ele>
        <time>2022-04-14T09:09:25Z</time>
      </trkpt>
      <trkpt lat="47.61509" lon="1.9494028">
        <ele>163.0</ele>
        <time>2022-04-14T09:09:26Z</time>
      </trkpt>
      <trkpt lat="47.61508" lon="1.9494123">
        <ele>164.0</ele>
        <time>2022-04-14T09:09:27Z</time>
      </trkpt>
      <trkpt lat="47.615074" lon="1.9494152">
        <ele>164.0</ele>
        <time>2022-04-14T09:09:28Z</time>
      </trkpt>
      <trkpt lat="47.615067" lon="1.9494214">
        <ele>164.0</ele>
        <time>2022-04-14T09:09:29Z</time>
      </trkpt>
      <trkpt lat="47.615055" lon="1.9494294">
        <ele>164.0</ele>
        <time>2022-04-14T09:09:30Z</time>
      </trkpt>
      <trkpt lat="47.615047" lon="1.9494389">
        <ele>164.0</ele>
        <time>2022-04-14T09:09:31Z</time>
      </trkpt>
      <trkpt lat="47.615036" lon="1.9494463">
        <ele>164.0</ele>
        <time>2022-04-14T09:09:32Z</time>
      </trkpt>
      <trkpt lat="47.615025" lon="1.9494525">
        <ele>163.0</ele>
        <time>2022-04-14T09:09:33Z</time>
      </trkpt>
      <trkpt lat="47.615013" lon="1.9494601">
        <ele>163.0</ele>
        <time>2022-04-14T09:09:34Z</time>
      </trkpt>
      <trkpt lat="47.614998" lon="1.9494709">
        <ele>163.0</ele>
        <time>2022-04-14T09:09:35Z</time>
      </trkpt>
      <trkpt lat="47.614986" lon="1.9494755">
        <ele>163.0</ele>
        <time>2022-04-14T09:09:36Z</time>
      </trkpt>
      <trkpt lat="47.614975" lon="1.9494836">
        <ele>163.0</ele>
        <time>2022-04-14T09:09:37Z</time>
      </trkpt>
      <trkpt lat="47.614964" lon="1.9494951">
        <ele>163.0</ele>
        <time>2022-04-14T09:09:38Z</time>
      </trkpt>
      <trkpt lat="47.614952" lon="1.9495037">
        <ele>164.0</ele>
        <time>2022-04-14T09:09:39Z</time>
      </trkpt>
      <trkpt lat="47.61494" lon="1.9495121">
        <ele>163.0</ele>
        <time>2022-04-14T09:09:40Z</time>
      </trkpt>
      <trkpt lat="47.61493" lon="1.949519">
        <ele>163.0</ele>
        <time>2022-04-14T09:09:41Z</time>
      </trkpt>
      <trkpt lat="47.614918" lon="1.9495306">
        <ele>163.0</ele>
        <time>2022-04-14T09:09:42Z</time>
      </trkpt>
      <trkpt lat="47.614906" lon="1.9495384">
        <ele>163.0</ele>
        <time>2022-04-14T09:09:43Z</time>
      </trkpt>
      <trkpt lat="47.614895" lon="1.949545">
        <ele>163.0</ele>
        <time>2022-04-14T09:09:44Z</time>
      </trkpt>
      <trkpt lat="47.614883" lon="1.9495455">
        <ele>163.0</ele>
        <time>2022-04-14T09:09:45Z</time>
      </trkpt>
      <trkpt lat="47.614872" lon="1.9495406">
        <ele>163.0</ele>
        <time>2022-04-14T09:09:46Z</time>
      </trkpt>
      <trkpt lat="47.61486" lon="1.9495436">
        <ele>163.0</ele>
        <time>2022-04-14T09:09:47Z</time>
      </trkpt>
      <trkpt lat="47.614853" lon="1.9495535">
        <ele>162.0</ele>
        <time>2022-04-14T09:09:48Z</time>
      </trkpt>
      <trkpt lat="47.61484" lon="1.9495622">
        <ele>162.0</ele>
        <time>2022-04-14T09:09:49Z</time>
      </trkpt>
      <trkpt lat="47.614826" lon="1.9495666">
        <ele>162.0</ele>
        <time>2022-04-14T09:09:50Z</time>
      </trkpt>
      <trkpt lat="47.61482" lon="1.9495718">
        <ele>163.0</ele>
        <time>2022-04-14T09:09:51Z</time>
      </trkpt>
      <trkpt lat="47.614807" lon="1.9495759">
        <ele>163.0</ele>
        <time>2022-04-14T09:09:52Z</time>
      </trkpt>
      <trkpt lat="47.61479" lon="1.9495791">
        <ele>163.0</ele>
        <time>2022-04-14T09:09:53Z</time>
      </trkpt>
      <trkpt lat="47.614784" lon="1.9495895">
        <ele>163.0</ele>
        <time>2022-04-14T09:09:54Z</time>
      </trkpt>
      <trkpt lat="47.614773" lon="1.9495953">
        <ele>163.0</ele>
        <time>2022-04-14T09:09:55Z</time>
      </trkpt>
      <trkpt lat="47.61476" lon="1.9496018">
        <ele>163.0</ele>
        <time>2022-04-14T09:09:56Z</time>
      </trkpt>
      <trkpt lat="47.61475" lon="1.949605">
        <ele>163.0</ele>
        <time>2022-04-14T09:09:57Z</time>
      </trkpt>
      <trkpt lat="47.61474" lon="1.9496087">
        <ele>163.0</ele>
        <time>2022-04-14T09:09:58Z</time>
      </trkpt>
      <trkpt lat="47.61473" lon="1.9496133">
        <ele>163.0</ele>
        <time>2022-04-14T09:09:59Z</time>
      </trkpt>
      <trkpt lat="47.61472" lon="1.9496193">
        <ele>163.0</ele>
        <time>2022-04-14T09:10:00Z</time>
      </trkpt>
      <trkpt lat="47.614708" lon="1.9496243">
        <ele>163.0</ele>
        <time>2022-04-14T09:10:01Z</time>
      </trkpt>
      <trkpt lat="47.6147" lon="1.9496349">
        <ele>164.0</ele>
        <time>2022-04-14T09:10:02Z</time>
      </trkpt>
      <trkpt lat="47.61469" lon="1.9496421">
        <ele>164.0</ele>
        <time>2022-04-14T09:10:03Z</time>
      </trkpt>
      <trkpt lat="47.614677" lon="1.9496524">
        <ele>164.0</ele>
        <time>2022-04-14T09:10:04Z</time>
      </trkpt>
      <trkpt lat="47.614666" lon="1.9496642">
        <ele>164.0</ele>
        <time>2022-04-14T09:10:05Z</time>
      </trkpt>
      <trkpt lat="47.614655" lon="1.9496781">
        <ele>164.0</ele>
        <time>2022-04-14T09:10:06Z</time>
      </trkpt>
      <trkpt lat="47.614647" lon="1.9496869">
        <ele>164.0</ele>
        <time>2022-04-14T09:10:07Z</time>
      </trkpt>
      <trkpt lat="47.614635" lon="1.9497007">
        <ele>164.0</ele>
        <time>2022-04-14T09:10:08Z</time>
      </trkpt>
      <trkpt lat="47.61462" lon="1.949711">
        <ele>164.0</ele>
        <time>2022-04-14T09:10:09Z</time>
      </trkpt>
      <trkpt lat="47.614616" lon="1.9497213">
        <ele>164.0</ele>
        <time>2022-04-14T09:10:10Z</time>
      </trkpt>
      <trkpt lat="47.61461" lon="1.9497325">
        <ele>164.0</ele>
        <time>2022-04-14T09:10:11Z</time>
      </trkpt>
      <trkpt lat="47.614597" lon="1.9497402">
        <ele>164.0</ele>
        <time>2022-04-14T09:10:12Z</time>
      </trkpt>
      <trkpt lat="47.61459" lon="1.9497465">
        <ele>163.0</ele>
        <time>2022-04-14T09:10:13Z</time>
      </trkpt>
      <trkpt lat="47.614582" lon="1.9497583">
        <ele>163.0</ele>
        <time>2022-04-14T09:10:14Z</time>
      </trkpt>
      <trkpt lat="47.614574" lon="1.9497628">
        <ele>163.0</ele>
        <time>2022-04-14T09:10:15Z</time>
      </trkpt>
      <trkpt lat="47.614567" lon="1.9497699">
        <ele>164.0</ele>
        <time>2022-04-14T09:10:16Z</time>
      </trkpt>
      <trkpt lat="47.61456" lon="1.9497783">
        <ele>163.0</ele>
        <time>2022-04-14T09:10:17Z</time>
      </trkpt>
      <trkpt lat="47.614548" lon="1.949787">
        <ele>163.0</ele>
        <time>2022-04-14T09:10:18Z</time>
      </trkpt>
      <trkpt lat="47.614536" lon="1.9497969">
        <ele>164.0</ele>
        <time>2022-04-14T09:10:19Z</time>
      </trkpt>
      <trkpt lat="47.614525" lon="1.949808">
        <ele>164.0</ele>
        <time>2022-04-14T09:10:20Z</time>
      </trkpt>
      <trkpt lat="47.614517" lon="1.9498173">
        <ele>164.0</ele>
        <time>2022-04-14T09:10:21Z</time>
      </trkpt>
      <trkpt lat="47.61451" lon="1.9498245">
        <ele>164.0</ele>
        <time>2022-04-14T09:10:22Z</time>
      </trkpt>
      <trkpt lat="47.6145" lon="1.9498271">
        <ele>164.0</ele>
        <time>2022-04-14T09:10:23Z</time>
      </trkpt>
      <trkpt lat="47.614487" lon="1.9498374">
        <ele>164.0</ele>
        <time>2022-04-14T09:10:24Z</time>
      </trkpt>
      <trkpt lat="47.61448" lon="1.9498461">
        <ele>164.0</ele>
        <time>2022-04-14T09:10:25Z</time>
      </trkpt>
      <trkpt lat="47.614468" lon="1.9498506">
        <ele>164.0</ele>
        <time>2022-04-14T09:10:26Z</time>
      </trkpt>
      <trkpt lat="47.614464" lon="1.9498546">
        <ele>164.0</ele>
        <time>2022-04-14T09:10:27Z</time>
      </trkpt>
      <trkpt lat="47.614456" lon="1.9498596">
        <ele>165.0</ele>
        <time>2022-04-14T09:10:28Z</time>
      </trkpt>
      <trkpt lat="47.61445" lon="1.9498634">
        <ele>165.0</ele>
        <time>2022-04-14T09:10:29Z</time>
      </trkpt>
      <trkpt lat="47.61444" lon="1.9498686">
        <ele>165.0</ele>
        <time>2022-04-14T09:10:30Z</time>
      </trkpt>
      <trkpt lat="47.614433" lon="1.9498782">
        <ele>164.0</ele>
        <time>2022-04-14T09:10:31Z</time>
      </trkpt>
      <trkpt lat="47.614426" lon="1.9498864">
        <ele>164.0</ele>
        <time>2022-04-14T09:10:32Z</time>
      </trkpt>
      <trkpt lat="47.614418" lon="1.9498994">
        <ele>164.0</ele>
        <time>2022-04-14T09:10:33Z</time>
      </trkpt>
      <trkpt lat="47.61441" lon="1.9499159">
        <ele>164.0</ele>
        <time>2022-04-14T09:10:34Z</time>
      </trkpt>
      <trkpt lat="47.614403" lon="1.9499277">
        <ele>165.0</ele>
        <time>2022-04-14T09:10:35Z</time>
      </trkpt>
      <trkpt lat="47.61439" lon="1.9499351">
        <ele>165.0</ele>
        <time>2022-04-14T09:10:36Z</time>
      </trkpt>
      <trkpt lat="47.614384" lon="1.9499419">
        <ele>165.0</ele>
        <time>2022-04-14T09:10:37Z</time>
      </trkpt>
      <trkpt lat="47.61438" lon="1.9499508">
        <ele>166.0</ele>
        <time>2022-04-14T09:10:38Z</time>
      </trkpt>
      <trkpt lat="47.614372" lon="1.9499636">
        <ele>165.0</ele>
        <time>2022-04-14T09:10:39Z</time>
      </trkpt>
      <trkpt lat="47.61436" lon="1.9499735">
        <ele>165.0</ele>
        <time>2022-04-14T09:10:40Z</time>
      </trkpt>
      <trkpt lat="47.614353" lon="1.9499823">
        <ele>165.0</ele>
        <time>2022-04-14T09:10:41Z</time>
      </trkpt>
      <trkpt lat="47.61434" lon="1.9499879">
        <ele>165.0</ele>
        <time>2022-04-14T09:10:42Z</time>
      </trkpt>
      <trkpt lat="47.614334" lon="1.9499941">
        <ele>165.0</ele>
        <time>2022-04-14T09:10:43Z</time>
      </trkpt>
      <trkpt lat="47.614326" lon="1.9499991">
        <ele>165.0</ele>
        <time>2022-04-14T09:10:44Z</time>
      </trkpt>
      <trkpt lat="47.614323" lon="1.9500079">
        <ele>165.0</ele>
        <time>2022-04-14T09:10:45Z</time>
      </trkpt>
      <trkpt lat="47.614315" lon="1.9500211">
        <ele>165.0</ele>
        <time>2022-04-14T09:10:46Z</time>
      </trkpt>
      <trkpt lat="47.61431" lon="1.9500327">
        <ele>165.0</ele>
        <time>2022-04-14T09:10:47Z</time>
      </trkpt>
      <trkpt lat="47.614307" lon="1.9500477">
        <ele>165.0</ele>
        <time>2022-04-14T09:10:48Z</time>
      </trkpt>
      <trkpt lat="47.6143" lon="1.9500601">
        <ele>165.0</ele>
        <time>2022-04-14T09:10:49Z</time>
      </trkpt>
      <trkpt lat="47.614296" lon="1.9500731">
        <ele>164.0</ele>
        <time>2022-04-14T09:10:50Z</time>
      </trkpt>
      <trkpt lat="47.614292" lon="1.9500889">
        <ele>165.0</ele>
        <time>2022-04-14T09:10:51Z</time>
      </trkpt>
      <trkpt lat="47.614285" lon="1.9501036">
        <ele>165.0</ele>
        <time>2022-04-14T09:10:52Z</time>
      </trkpt>
      <trkpt lat="47.614277" lon="1.950111">
        <ele>165.0</ele>
        <time>2022-04-14T09:10:53Z</time>
      </trkpt>
      <trkpt lat="47.614265" lon="1.950114">
        <ele>165.0</ele>
        <time>2022-04-14T09:10:54Z</time>
      </trkpt>
      <trkpt lat="47.614254" lon="1.9501154">
        <ele>165.0</ele>
        <time>2022-04-14T09:10:55Z</time>
      </trkpt>
      <trkpt lat="47.614243" lon="1.9501189">
        <ele>165.0</ele>
        <time>2022-04-14T09:10:56Z</time>
      </trkpt>
      <trkpt lat="47.614235" lon="1.950126">
        <ele>165.0</ele>
        <time>2022-04-14T09:10:57Z</time>
      </trkpt>
      <trkpt lat="47.61423" lon="1.9501309">
        <ele>164.0</ele>
        <time>2022-04-14T09:10:58Z</time>
      </trkpt>
      <trkpt lat="47.614223" lon="1.9501408">
        <ele>164.0</ele>
        <time>2022-04-14T09:10:59Z</time>
      </trkpt>
      <trkpt lat="47.614212" lon="1.9501458">
        <ele>164.0</ele>
        <time>2022-04-14T09:11:00Z</time>
      </trkpt>
      <trkpt lat="47.6142" lon="1.9501547">
        <ele>164.0</ele>
        <time>2022-04-14T09:11:01Z</time>
      </trkpt>
      <trkpt lat="47.61419" lon="1.9501599">
        <ele>164.0</ele>
        <time>2022-04-14T09:11:02Z</time>
      </trkpt>
      <trkpt lat="47.61418" lon="1.95017">
        <ele>163.0</ele>
        <time>2022-04-14T09:11:03Z</time>
      </trkpt>
      <trkpt lat="47.614174" lon="1.950175">
        <ele>163.0</ele>
        <time>2022-04-14T09:11:04Z</time>
      </trkpt>
      <trkpt lat="47.614162" lon="1.9501792">
        <ele>162.0</ele>
        <time>2022-04-14T09:11:05Z</time>
      </trkpt>
      <trkpt lat="47.61415" lon="1.9501868">
        <ele>162.0</ele>
        <time>2022-04-14T09:11:06Z</time>
      </trkpt>
      <trkpt lat="47.614143" lon="1.9501905">
        <ele>162.0</ele>
        <time>2022-04-14T09:11:07Z</time>
      </trkpt>
      <trkpt lat="47.614136" lon="1.9501979">
        <ele>162.0</ele>
        <time>2022-04-14T09:11:08Z</time>
      </trkpt>
      <trkpt lat="47.61413" lon="1.9502021">
        <ele>162.0</ele>
        <time>2022-04-14T09:11:09Z</time>
      </trkpt>
      <trkpt lat="47.61412" lon="1.9502091">
        <ele>162.0</ele>
        <time>2022-04-14T09:11:10Z</time>
      </trkpt>
      <trkpt lat="47.61411" lon="1.9502171">
        <ele>162.0</ele>
        <time>2022-04-14T09:11:11Z</time>
      </trkpt>
      <trkpt lat="47.6141" lon="1.9502257">
        <ele>162.0</ele>
        <time>2022-04-14T09:11:12Z</time>
      </trkpt>
      <trkpt lat="47.614098" lon="1.9502336">
        <ele>162.0</ele>
        <time>2022-04-14T09:11:13Z</time>
      </trkpt>
      <trkpt lat="47.61409" lon="1.9502413">
        <ele>162.0</ele>
        <time>2022-04-14T09:11:14Z</time>
      </trkpt>
      <trkpt lat="47.61409" lon="1.9502413">
        <ele>162.0</ele>
        <time>2022-04-14T09:11:15Z</time>
      </trkpt>
      <trkpt lat="47.61409" lon="1.9502413">
        <ele>162.0</ele>
        <time>2022-04-14T09:11:16Z</time>
      </trkpt>
      <trkpt lat="47.614067" lon="1.9502633">
        <ele>162.0</ele>
        <time>2022-04-14T09:11:17Z</time>
      </trkpt>
      <trkpt lat="47.614056" lon="1.9502687">
        <ele>162.0</ele>
        <time>2022-04-14T09:11:18Z</time>
      </trkpt>
      <trkpt lat="47.614048" lon="1.9502739">
        <ele>161.0</ele>
        <time>2022-04-14T09:11:19Z</time>
      </trkpt>
      <trkpt lat="47.614037" lon="1.9502786">
        <ele>161.0</ele>
        <time>2022-04-14T09:11:20Z</time>
      </trkpt>
      <trkpt lat="47.614017" lon="1.9502814">
        <ele>161.0</ele>
        <time>2022-04-14T09:11:21Z</time>
      </trkpt>
      <trkpt lat="47.614006" lon="1.9502848">
        <ele>161.0</ele>
        <time>2022-04-14T09:11:22Z</time>
      </trkpt>
      <trkpt lat="47.613995" lon="1.9502894">
        <ele>160.0</ele>
        <time>2022-04-14T09:11:23Z</time>
      </trkpt>
      <trkpt lat="47.613983" lon="1.9502962">
        <ele>161.0</ele>
        <time>2022-04-14T09:11:24Z</time>
      </trkpt>
      <trkpt lat="47.61397" lon="1.9503007">
        <ele>161.0</ele>
        <time>2022-04-14T09:11:25Z</time>
      </trkpt>
      <trkpt lat="47.613964" lon="1.9503036">
        <ele>160.0</ele>
        <time>2022-04-14T09:11:26Z</time>
      </trkpt>
      <trkpt lat="47.613956" lon="1.9503094">
        <ele>160.0</ele>
        <time>2022-04-14T09:11:27Z</time>
      </trkpt>
      <trkpt lat="47.613945" lon="1.9503149">
        <ele>160.0</ele>
        <time>2022-04-14T09:11:28Z</time>
      </trkpt>
      <trkpt lat="47.613934" lon="1.9503211">
        <ele>160.0</ele>
        <time>2022-04-14T09:11:29Z</time>
      </trkpt>
      <trkpt lat="47.613926" lon="1.9503254">
        <ele>160.0</ele>
        <time>2022-04-14T09:11:30Z</time>
      </trkpt>
      <trkpt lat="47.613914" lon="1.9503304">
        <ele>160.0</ele>
        <time>2022-04-14T09:11:31Z</time>
      </trkpt>
      <trkpt lat="47.613907" lon="1.9503349">
        <ele>160.0</ele>
        <time>2022-04-14T09:11:32Z</time>
      </trkpt>
      <trkpt lat="47.613895" lon="1.9503385">
        <ele>161.0</ele>
        <time>2022-04-14T09:11:33Z</time>
      </trkpt>
      <trkpt lat="47.61388" lon="1.950344">
        <ele>161.0</ele>
        <time>2022-04-14T09:11:34Z</time>
      </trkpt>
      <trkpt lat="47.613873" lon="1.9503487">
        <ele>160.0</ele>
        <time>2022-04-14T09:11:35Z</time>
      </trkpt>
      <trkpt lat="47.613857" lon="1.9503517">
        <ele>160.0</ele>
        <time>2022-04-14T09:11:36Z</time>
      </trkpt>
      <trkpt lat="47.613842" lon="1.9503558">
        <ele>160.0</ele>
        <time>2022-04-14T09:11:37Z</time>
      </trkpt>
      <trkpt lat="47.61383" lon="1.950362">
        <ele>160.0</ele>
        <time>2022-04-14T09:11:38Z</time>
      </trkpt>
      <trkpt lat="47.613823" lon="1.950366">
        <ele>160.0</ele>
        <time>2022-04-14T09:11:39Z</time>
      </trkpt>
      <trkpt lat="47.613815" lon="1.9503701">
        <ele>160.0</ele>
        <time>2022-04-14T09:11:40Z</time>
      </trkpt>
      <trkpt lat="47.613808" lon="1.9503827">
        <ele>159.0</ele>
        <time>2022-04-14T09:11:41Z</time>
      </trkpt>
      <trkpt lat="47.613796" lon="1.9503995">
        <ele>158.0</ele>
        <time>2022-04-14T09:11:42Z</time>
      </trkpt>
      <trkpt lat="47.61379" lon="1.9504199">
        <ele>158.0</ele>
        <time>2022-04-14T09:11:43Z</time>
      </trkpt>
      <trkpt lat="47.61378" lon="1.950433">
        <ele>158.0</ele>
        <time>2022-04-14T09:11:44Z</time>
      </trkpt>
      <trkpt lat="47.61377" lon="1.9504485">
        <ele>158.0</ele>
        <time>2022-04-14T09:11:45Z</time>
      </trkpt>
      <trkpt lat="47.61376" lon="1.9504584">
        <ele>159.0</ele>
        <time>2022-04-14T09:11:46Z</time>
      </trkpt>
      <trkpt lat="47.613754" lon="1.950474">
        <ele>159.0</ele>
        <time>2022-04-14T09:11:47Z</time>
      </trkpt>
      <trkpt lat="47.613747" lon="1.9504863">
        <ele>159.0</ele>
        <time>2022-04-14T09:11:48Z</time>
      </trkpt>
      <trkpt lat="47.613743" lon="1.9505008">
        <ele>158.0</ele>
        <time>2022-04-14T09:11:49Z</time>
      </trkpt>
      <trkpt lat="47.61374" lon="1.9505093">
        <ele>158.0</ele>
        <time>2022-04-14T09:11:50Z</time>
      </trkpt>
      <trkpt lat="47.613735" lon="1.9505211">
        <ele>158.0</ele>
        <time>2022-04-14T09:11:51Z</time>
      </trkpt>
      <trkpt lat="47.613728" lon="1.9505312">
        <ele>158.0</ele>
        <time>2022-04-14T09:11:52Z</time>
      </trkpt>
      <trkpt lat="47.613712" lon="1.950542">
        <ele>158.0</ele>
        <time>2022-04-14T09:11:53Z</time>
      </trkpt>
      <trkpt lat="47.613697" lon="1.9505539">
        <ele>158.0</ele>
        <time>2022-04-14T09:11:54Z</time>
      </trkpt>
      <trkpt lat="47.61368" lon="1.950568">
        <ele>158.0</ele>
        <time>2022-04-14T09:11:55Z</time>
      </trkpt>
      <trkpt lat="47.613667" lon="1.9505774">
        <ele>158.0</ele>
        <time>2022-04-14T09:11:56Z</time>
      </trkpt>
      <trkpt lat="47.613655" lon="1.9505906">
        <ele>158.0</ele>
        <time>2022-04-14T09:11:57Z</time>
      </trkpt>
      <trkpt lat="47.61364" lon="1.9506034">
        <ele>159.0</ele>
        <time>2022-04-14T09:11:58Z</time>
      </trkpt>
      <trkpt lat="47.61363" lon="1.9506121">
        <ele>159.0</ele>
        <time>2022-04-14T09:11:59Z</time>
      </trkpt>
      <trkpt lat="47.613613" lon="1.9506172">
        <ele>159.0</ele>
        <time>2022-04-14T09:12:00Z</time>
      </trkpt>
      <trkpt lat="47.613598" lon="1.9506222">
        <ele>158.0</ele>
        <time>2022-04-14T09:12:01Z</time>
      </trkpt>
      <trkpt lat="47.61359" lon="1.9506255">
        <ele>158.0</ele>
        <time>2022-04-14T09:12:02Z</time>
      </trkpt>
      <trkpt lat="47.613586" lon="1.9506298">
        <ele>157.0</ele>
        <time>2022-04-14T09:12:03Z</time>
      </trkpt>
      <trkpt lat="47.61358" lon="1.9506364">
        <ele>157.0</ele>
        <time>2022-04-14T09:12:04Z</time>
      </trkpt>
      <trkpt lat="47.613567" lon="1.9506434">
        <ele>157.0</ele>
        <time>2022-04-14T09:12:05Z</time>
      </trkpt>
      <trkpt lat="47.61356" lon="1.9506443">
        <ele>157.0</ele>
        <time>2022-04-14T09:12:06Z</time>
      </trkpt>
      <trkpt lat="47.613556" lon="1.9506449">
        <ele>157.0</ele>
        <time>2022-04-14T09:12:07Z</time>
      </trkpt>
      <trkpt lat="47.613552" lon="1.9506439">
        <ele>157.0</ele>
        <time>2022-04-14T09:12:08Z</time>
      </trkpt>
      <trkpt lat="47.613544" lon="1.9506432">
        <ele>157.0</ele>
        <time>2022-04-14T09:12:09Z</time>
      </trkpt>
      <trkpt lat="47.613537" lon="1.9506423">
        <ele>157.0</ele>
        <time>2022-04-14T09:12:10Z</time>
      </trkpt>
      <trkpt lat="47.613533" lon="1.9506392">
        <ele>157.0</ele>
        <time>2022-04-14T09:12:11Z</time>
      </trkpt>
      <trkpt lat="47.61352" lon="1.9506403">
        <ele>158.0</ele>
        <time>2022-04-14T09:12:12Z</time>
      </trkpt>
      <trkpt lat="47.61351" lon="1.9506458">
        <ele>158.0</ele>
        <time>2022-04-14T09:12:13Z</time>
      </trkpt>
      <trkpt lat="47.613503" lon="1.9506493">
        <ele>157.0</ele>
        <time>2022-04-14T09:12:14Z</time>
      </trkpt>
      <trkpt lat="47.6135" lon="1.9506524">
        <ele>158.0</ele>
        <time>2022-04-14T09:12:15Z</time>
      </trkpt>
      <trkpt lat="47.613495" lon="1.9506593">
        <ele>157.0</ele>
        <time>2022-04-14T09:12:16Z</time>
      </trkpt>
      <trkpt lat="47.61349" lon="1.950664">
        <ele>157.0</ele>
        <time>2022-04-14T09:12:17Z</time>
      </trkpt>
      <trkpt lat="47.61349" lon="1.950664">
        <ele>157.0</ele>
        <time>2022-04-14T09:12:18Z</time>
      </trkpt>
      <trkpt lat="47.61349" lon="1.950664">
        <ele>157.0</ele>
        <time>2022-04-14T09:12:19Z</time>
      </trkpt>
      <trkpt lat="47.613476" lon="1.9506704">
        <ele>157.0</ele>
        <time>2022-04-14T09:12:20Z</time>
      </trkpt>
      <trkpt lat="47.613464" lon="1.9506733">
        <ele>157.0</ele>
        <time>2022-04-14T09:12:21Z</time>
      </trkpt>
      <trkpt lat="47.61345" lon="1.9506766">
        <ele>157.0</ele>
        <time>2022-04-14T09:12:22Z</time>
      </trkpt>
      <trkpt lat="47.613438" lon="1.9506826">
        <ele>157.0</ele>
        <time>2022-04-14T09:12:23Z</time>
      </trkpt>
      <trkpt lat="47.613426" lon="1.9506876">
        <ele>157.0</ele>
        <time>2022-04-14T09:12:24Z</time>
      </trkpt>
      <trkpt lat="47.613415" lon="1.950693">
        <ele>157.0</ele>
        <time>2022-04-14T09:12:25Z</time>
      </trkpt>
      <trkpt lat="47.613403" lon="1.9506973">
        <ele>156.0</ele>
        <time>2022-04-14T09:12:26Z</time>
      </trkpt>
      <trkpt lat="47.613396" lon="1.9507045">
        <ele>156.0</ele>
        <time>2022-04-14T09:12:27Z</time>
      </trkpt>
      <trkpt lat="47.613388" lon="1.9507165">
        <ele>156.0</ele>
        <time>2022-04-14T09:12:28Z</time>
      </trkpt>
      <trkpt lat="47.613384" lon="1.9507303">
        <ele>156.0</ele>
        <time>2022-04-14T09:12:29Z</time>
      </trkpt>
      <trkpt lat="47.613373" lon="1.9507439">
        <ele>156.0</ele>
        <time>2022-04-14T09:12:30Z</time>
      </trkpt>
      <trkpt lat="47.61336" lon="1.95075">
        <ele>156.0</ele>
        <time>2022-04-14T09:12:31Z</time>
      </trkpt>
      <trkpt lat="47.613342" lon="1.9507638">
        <ele>156.0</ele>
        <time>2022-04-14T09:12:32Z</time>
      </trkpt>
      <trkpt lat="47.613323" lon="1.9507791">
        <ele>155.0</ele>
        <time>2022-04-14T09:12:33Z</time>
      </trkpt>
      <trkpt lat="47.61331" lon="1.9507891">
        <ele>155.0</ele>
        <time>2022-04-14T09:12:34Z</time>
      </trkpt>
      <trkpt lat="47.6133" lon="1.9507982">
        <ele>155.0</ele>
        <time>2022-04-14T09:12:35Z</time>
      </trkpt>
      <trkpt lat="47.61329" lon="1.9508101">
        <ele>154.0</ele>
        <time>2022-04-14T09:12:36Z</time>
      </trkpt>
      <trkpt lat="47.613274" lon="1.9508225">
        <ele>154.0</ele>
        <time>2022-04-14T09:12:37Z</time>
      </trkpt>
      <trkpt lat="47.613262" lon="1.950834">
        <ele>154.0</ele>
        <time>2022-04-14T09:12:38Z</time>
      </trkpt>
      <trkpt lat="47.61325" lon="1.9508475">
        <ele>154.0</ele>
        <time>2022-04-14T09:12:39Z</time>
      </trkpt>
      <trkpt lat="47.613243" lon="1.9508584">
        <ele>154.0</ele>
        <time>2022-04-14T09:12:40Z</time>
      </trkpt>
      <trkpt lat="47.613235" lon="1.950871">
        <ele>155.0</ele>
        <time>2022-04-14T09:12:41Z</time>
      </trkpt>
      <trkpt lat="47.613228" lon="1.950886">
        <ele>155.0</ele>
        <time>2022-04-14T09:12:42Z</time>
      </trkpt>
      <trkpt lat="47.613224" lon="1.9508961">
        <ele>155.0</ele>
        <time>2022-04-14T09:12:43Z</time>
      </trkpt>
      <trkpt lat="47.61322" lon="1.9509069">
        <ele>155.0</ele>
        <time>2022-04-14T09:12:44Z</time>
      </trkpt>
      <trkpt lat="47.613216" lon="1.9509215">
        <ele>155.0</ele>
        <time>2022-04-14T09:12:45Z</time>
      </trkpt>
      <trkpt lat="47.61321" lon="1.9509323">
        <ele>155.0</ele>
        <time>2022-04-14T09:12:46Z</time>
      </trkpt>
      <trkpt lat="47.613205" lon="1.9509468">
        <ele>154.0</ele>
        <time>2022-04-14T09:12:47Z</time>
      </trkpt>
      <trkpt lat="47.6132" lon="1.9509574">
        <ele>153.0</ele>
        <time>2022-04-14T09:12:48Z</time>
      </trkpt>
      <trkpt lat="47.613197" lon="1.95097">
        <ele>153.0</ele>
        <time>2022-04-14T09:12:49Z</time>
      </trkpt>
      <trkpt lat="47.613186" lon="1.9509791">
        <ele>153.0</ele>
        <time>2022-04-14T09:12:50Z</time>
      </trkpt>
      <trkpt lat="47.613174" lon="1.9509916">
        <ele>154.0</ele>
        <time>2022-04-14T09:12:51Z</time>
      </trkpt>
      <trkpt lat="47.613167" lon="1.9510041">
        <ele>154.0</ele>
        <time>2022-04-14T09:12:52Z</time>
      </trkpt>
      <trkpt lat="47.613155" lon="1.9510207">
        <ele>154.0</ele>
        <time>2022-04-14T09:12:53Z</time>
      </trkpt>
      <trkpt lat="47.613144" lon="1.9510359">
        <ele>153.0</ele>
        <time>2022-04-14T09:12:54Z</time>
      </trkpt>
      <trkpt lat="47.613132" lon="1.9510456">
        <ele>154.0</ele>
        <time>2022-04-14T09:12:55Z</time>
      </trkpt>
      <trkpt lat="47.61312" lon="1.9510573">
        <ele>154.0</ele>
        <time>2022-04-14T09:12:56Z</time>
      </trkpt>
      <trkpt lat="47.613117" lon="1.9510682">
        <ele>154.0</ele>
        <time>2022-04-14T09:12:57Z</time>
      </trkpt>
      <trkpt lat="47.61311" lon="1.9510807">
        <ele>154.0</ele>
        <time>2022-04-14T09:12:58Z</time>
      </trkpt>
      <trkpt lat="47.613102" lon="1.951091">
        <ele>155.0</ele>
        <time>2022-04-14T09:12:59Z</time>
      </trkpt>
      <trkpt lat="47.613094" lon="1.9511026">
        <ele>155.0</ele>
        <time>2022-04-14T09:13:00Z</time>
      </trkpt>
      <trkpt lat="47.613087" lon="1.9511153">
        <ele>155.0</ele>
        <time>2022-04-14T09:13:01Z</time>
      </trkpt>
      <trkpt lat="47.613083" lon="1.951126">
        <ele>155.0</ele>
        <time>2022-04-14T09:13:02Z</time>
      </trkpt>
      <trkpt lat="47.613075" lon="1.9511362">
        <ele>155.0</ele>
        <time>2022-04-14T09:13:03Z</time>
      </trkpt>
      <trkpt lat="47.613064" lon="1.9511473">
        <ele>155.0</ele>
        <time>2022-04-14T09:13:04Z</time>
      </trkpt>
      <trkpt lat="47.61306" lon="1.9511573">
        <ele>155.0</ele>
        <time>2022-04-14T09:13:05Z</time>
      </trkpt>
      <trkpt lat="47.61305" lon="1.9511691">
        <ele>155.0</ele>
        <time>2022-04-14T09:13:06Z</time>
      </trkpt>
      <trkpt lat="47.61304" lon="1.9511839">
        <ele>156.0</ele>
        <time>2022-04-14T09:13:07Z</time>
      </trkpt>
      <trkpt lat="47.61303" lon="1.951197">
        <ele>156.0</ele>
        <time>2022-04-14T09:13:08Z</time>
      </trkpt>
      <trkpt lat="47.61302" lon="1.9512061">
        <ele>156.0</ele>
        <time>2022-04-14T09:13:09Z</time>
      </trkpt>
      <trkpt lat="47.613014" lon="1.9512181">
        <ele>156.0</ele>
        <time>2022-04-14T09:13:10Z</time>
      </trkpt>
      <trkpt lat="47.613007" lon="1.9512281">
        <ele>156.0</ele>
        <time>2022-04-14T09:13:11Z</time>
      </trkpt>
      <trkpt lat="47.613" lon="1.951238">
        <ele>156.0</ele>
        <time>2022-04-14T09:13:12Z</time>
      </trkpt>
      <trkpt lat="47.61299" lon="1.9512508">
        <ele>156.0</ele>
        <time>2022-04-14T09:13:13Z</time>
      </trkpt>
      <trkpt lat="47.612984" lon="1.9512624">
        <ele>155.0</ele>
        <time>2022-04-14T09:13:14Z</time>
      </trkpt>
      <trkpt lat="47.612976" lon="1.9512742">
        <ele>155.0</ele>
        <time>2022-04-14T09:13:15Z</time>
      </trkpt>
      <trkpt lat="47.61297" lon="1.9512843">
        <ele>156.0</ele>
        <time>2022-04-14T09:13:16Z</time>
      </trkpt>
      <trkpt lat="47.61296" lon="1.9512978">
        <ele>156.0</ele>
        <time>2022-04-14T09:13:17Z</time>
      </trkpt>
      <trkpt lat="47.612953" lon="1.9513078">
        <ele>155.0</ele>
        <time>2022-04-14T09:13:18Z</time>
      </trkpt>
      <trkpt lat="47.612953" lon="1.9513173">
        <ele>156.0</ele>
        <time>2022-04-14T09:13:19Z</time>
      </trkpt>
      <trkpt lat="47.61295" lon="1.951326">
        <ele>155.0</ele>
        <time>2022-04-14T09:13:20Z</time>
      </trkpt>
      <trkpt lat="47.612946" lon="1.9513406">
        <ele>155.0</ele>
        <time>2022-04-14T09:13:21Z</time>
      </trkpt>
      <trkpt lat="47.612938" lon="1.9513509">
        <ele>155.0</ele>
        <time>2022-04-14T09:13:22Z</time>
      </trkpt>
      <trkpt lat="47.612934" lon="1.9513638">
        <ele>155.0</ele>
        <time>2022-04-14T09:13:23Z</time>
      </trkpt>
      <trkpt lat="47.61293" lon="1.9513783">
        <ele>155.0</ele>
        <time>2022-04-14T09:13:24Z</time>
      </trkpt>
      <trkpt lat="47.612926" lon="1.9513934">
        <ele>155.0</ele>
        <time>2022-04-14T09:13:25Z</time>
      </trkpt>
      <trkpt lat="47.612923" lon="1.9514066">
        <ele>155.0</ele>
        <time>2022-04-14T09:13:26Z</time>
      </trkpt>
      <trkpt lat="47.61292" lon="1.9514219">
        <ele>155.0</ele>
        <time>2022-04-14T09:13:27Z</time>
      </trkpt>
      <trkpt lat="47.612915" lon="1.9514372">
        <ele>155.0</ele>
        <time>2022-04-14T09:13:28Z</time>
      </trkpt>
      <trkpt lat="47.61291" lon="1.9514476">
        <ele>155.0</ele>
        <time>2022-04-14T09:13:29Z</time>
      </trkpt>
      <trkpt lat="47.61291" lon="1.9514577">
        <ele>155.0</ele>
        <time>2022-04-14T09:13:30Z</time>
      </trkpt>
      <trkpt lat="47.612907" lon="1.9514731">
        <ele>155.0</ele>
        <time>2022-04-14T09:13:31Z</time>
      </trkpt>
      <trkpt lat="47.6129" lon="1.9514903">
        <ele>155.0</ele>
        <time>2022-04-14T09:13:32Z</time>
      </trkpt>
      <trkpt lat="47.6129" lon="1.9515069">
        <ele>155.0</ele>
        <time>2022-04-14T09:13:33Z</time>
      </trkpt>
      <trkpt lat="47.61289" lon="1.9515241">
        <ele>155.0</ele>
        <time>2022-04-14T09:13:34Z</time>
      </trkpt>
      <trkpt lat="47.612885" lon="1.9515396">
        <ele>155.0</ele>
        <time>2022-04-14T09:13:35Z</time>
      </trkpt>
      <trkpt lat="47.612877" lon="1.9515533">
        <ele>155.0</ele>
        <time>2022-04-14T09:13:36Z</time>
      </trkpt>
      <trkpt lat="47.612873" lon="1.951565">
        <ele>155.0</ele>
        <time>2022-04-14T09:13:37Z</time>
      </trkpt>
      <trkpt lat="47.612865" lon="1.9515805">
        <ele>155.0</ele>
        <time>2022-04-14T09:13:38Z</time>
      </trkpt>
      <trkpt lat="47.61286" lon="1.9515954">
        <ele>155.0</ele>
        <time>2022-04-14T09:13:39Z</time>
      </trkpt>
      <trkpt lat="47.612858" lon="1.9516113">
        <ele>155.0</ele>
        <time>2022-04-14T09:13:40Z</time>
      </trkpt>
      <trkpt lat="47.61285" lon="1.9516299">
        <ele>155.0</ele>
        <time>2022-04-14T09:13:41Z</time>
      </trkpt>
      <trkpt lat="47.612846" lon="1.9516466">
        <ele>155.0</ele>
        <time>2022-04-14T09:13:42Z</time>
      </trkpt>
      <trkpt lat="47.612846" lon="1.9516624">
        <ele>155.0</ele>
        <time>2022-04-14T09:13:43Z</time>
      </trkpt>
      <trkpt lat="47.612846" lon="1.9516797">
        <ele>155.0</ele>
        <time>2022-04-14T09:13:44Z</time>
      </trkpt>
      <trkpt lat="47.61284" lon="1.9516959">
        <ele>155.0</ele>
        <time>2022-04-14T09:13:45Z</time>
      </trkpt>
      <trkpt lat="47.612835" lon="1.9517099">
        <ele>155.0</ele>
        <time>2022-04-14T09:13:46Z</time>
      </trkpt>
      <trkpt lat="47.61283" lon="1.9517254">
        <ele>154.0</ele>
        <time>2022-04-14T09:13:47Z</time>
      </trkpt>
      <trkpt lat="47.612827" lon="1.95174">
        <ele>154.0</ele>
        <time>2022-04-14T09:13:48Z</time>
      </trkpt>
      <trkpt lat="47.612823" lon="1.9517552">
        <ele>154.0</ele>
        <time>2022-04-14T09:13:49Z</time>
      </trkpt>
      <trkpt lat="47.61282" lon="1.9517705">
        <ele>154.0</ele>
        <time>2022-04-14T09:13:50Z</time>
      </trkpt>
      <trkpt lat="47.612812" lon="1.9517831">
        <ele>154.0</ele>
        <time>2022-04-14T09:13:51Z</time>
      </trkpt>
      <trkpt lat="47.61281" lon="1.9517989">
        <ele>154.0</ele>
        <time>2022-04-14T09:13:52Z</time>
      </trkpt>
      <trkpt lat="47.612797" lon="1.9518186">
        <ele>154.0</ele>
        <time>2022-04-14T09:13:53Z</time>
      </trkpt>
      <trkpt lat="47.61279" lon="1.9518343">
        <ele>155.0</ele>
        <time>2022-04-14T09:13:54Z</time>
      </trkpt>
      <trkpt lat="47.612785" lon="1.9518503">
        <ele>154.0</ele>
        <time>2022-04-14T09:13:55Z</time>
      </trkpt>
      <trkpt lat="47.612778" lon="1.9518676">
        <ele>154.0</ele>
        <time>2022-04-14T09:13:56Z</time>
      </trkpt>
      <trkpt lat="47.612774" lon="1.9518881">
        <ele>153.0</ele>
        <time>2022-04-14T09:13:57Z</time>
      </trkpt>
      <trkpt lat="47.61277" lon="1.9519026">
        <ele>153.0</ele>
        <time>2022-04-14T09:13:58Z</time>
      </trkpt>
      <trkpt lat="47.612766" lon="1.9519165">
        <ele>153.0</ele>
        <time>2022-04-14T09:13:59Z</time>
      </trkpt>
      <trkpt lat="47.612762" lon="1.9519323">
        <ele>153.0</ele>
        <time>2022-04-14T09:14:00Z</time>
      </trkpt>
      <trkpt lat="47.612762" lon="1.9519516">
        <ele>152.0</ele>
        <time>2022-04-14T09:14:01Z</time>
      </trkpt>
      <trkpt lat="47.612755" lon="1.9519693">
        <ele>152.0</ele>
        <time>2022-04-14T09:14:02Z</time>
      </trkpt>
      <trkpt lat="47.612747" lon="1.9519875">
        <ele>152.0</ele>
        <time>2022-04-14T09:14:03Z</time>
      </trkpt>
      <trkpt lat="47.612747" lon="1.9520004">
        <ele>152.0</ele>
        <time>2022-04-14T09:14:04Z</time>
      </trkpt>
      <trkpt lat="47.612747" lon="1.952015">
        <ele>152.0</ele>
        <time>2022-04-14T09:14:05Z</time>
      </trkpt>
      <trkpt lat="47.61274" lon="1.9520345">
        <ele>152.0</ele>
        <time>2022-04-14T09:14:06Z</time>
      </trkpt>
      <trkpt lat="47.612732" lon="1.952053">
        <ele>152.0</ele>
        <time>2022-04-14T09:14:07Z</time>
      </trkpt>
      <trkpt lat="47.612724" lon="1.9520693">
        <ele>153.0</ele>
        <time>2022-04-14T09:14:08Z</time>
      </trkpt>
      <trkpt lat="47.61272" lon="1.9520859">
        <ele>153.0</ele>
        <time>2022-04-14T09:14:09Z</time>
      </trkpt>
      <trkpt lat="47.612717" lon="1.9521053">
        <ele>153.0</ele>
        <time>2022-04-14T09:14:10Z</time>
      </trkpt>
      <trkpt lat="47.612717" lon="1.9521248">
        <ele>153.0</ele>
        <time>2022-04-14T09:14:11Z</time>
      </trkpt>
      <trkpt lat="47.61271" lon="1.9521382">
        <ele>153.0</ele>
        <time>2022-04-14T09:14:12Z</time>
      </trkpt>
      <trkpt lat="47.6127" lon="1.9521587">
        <ele>153.0</ele>
        <time>2022-04-14T09:14:13Z</time>
      </trkpt>
      <trkpt lat="47.6127" lon="1.9521762">
        <ele>153.0</ele>
        <time>2022-04-14T09:14:14Z</time>
      </trkpt>
      <trkpt lat="47.612698" lon="1.9521955">
        <ele>153.0</ele>
        <time>2022-04-14T09:14:15Z</time>
      </trkpt>
      <trkpt lat="47.612698" lon="1.952213">
        <ele>152.0</ele>
        <time>2022-04-14T09:14:16Z</time>
      </trkpt>
      <trkpt lat="47.612698" lon="1.9522302">
        <ele>152.0</ele>
        <time>2022-04-14T09:14:17Z</time>
      </trkpt>
      <trkpt lat="47.612694" lon="1.9522426">
        <ele>151.0</ele>
        <time>2022-04-14T09:14:18Z</time>
      </trkpt>
      <trkpt lat="47.612694" lon="1.9522573">
        <ele>151.0</ele>
        <time>2022-04-14T09:14:19Z</time>
      </trkpt>
      <trkpt lat="47.61269" lon="1.952269">
        <ele>151.0</ele>
        <time>2022-04-14T09:14:20Z</time>
      </trkpt>
      <trkpt lat="47.612682" lon="1.9522837">
        <ele>151.0</ele>
        <time>2022-04-14T09:14:21Z</time>
      </trkpt>
      <trkpt lat="47.61268" lon="1.9522991">
        <ele>151.0</ele>
        <time>2022-04-14T09:14:22Z</time>
      </trkpt>
      <trkpt lat="47.612675" lon="1.9523169">
        <ele>151.0</ele>
        <time>2022-04-14T09:14:23Z</time>
      </trkpt>
      <trkpt lat="47.61267" lon="1.9523296">
        <ele>151.0</ele>
        <time>2022-04-14T09:14:24Z</time>
      </trkpt>
      <trkpt lat="47.612667" lon="1.9523454">
        <ele>151.0</ele>
        <time>2022-04-14T09:14:25Z</time>
      </trkpt>
      <trkpt lat="47.61266" lon="1.9523647">
        <ele>151.0</ele>
        <time>2022-04-14T09:14:26Z</time>
      </trkpt>
      <trkpt lat="47.61265" lon="1.9523766">
        <ele>150.0</ele>
        <time>2022-04-14T09:14:27Z</time>
      </trkpt>
      <trkpt lat="47.612648" lon="1.9523977">
        <ele>151.0</ele>
        <time>2022-04-14T09:14:28Z</time>
      </trkpt>
      <trkpt lat="47.612644" lon="1.9524176">
        <ele>151.0</ele>
        <time>2022-04-14T09:14:29Z</time>
      </trkpt>
      <trkpt lat="47.61264" lon="1.9524367">
        <ele>151.0</ele>
        <time>2022-04-14T09:14:30Z</time>
      </trkpt>
      <trkpt lat="47.612637" lon="1.9524552">
        <ele>151.0</ele>
        <time>2022-04-14T09:14:31Z</time>
      </trkpt>
      <trkpt lat="47.612633" lon="1.9524739">
        <ele>151.0</ele>
        <time>2022-04-14T09:14:32Z</time>
      </trkpt>
      <trkpt lat="47.61263" lon="1.9524899">
        <ele>151.0</ele>
        <time>2022-04-14T09:14:33Z</time>
      </trkpt>
      <trkpt lat="47.612625" lon="1.9525043">
        <ele>151.0</ele>
        <time>2022-04-14T09:14:34Z</time>
      </trkpt>
      <trkpt lat="47.612617" lon="1.9525236">
        <ele>151.0</ele>
        <time>2022-04-14T09:14:35Z</time>
      </trkpt>
      <trkpt lat="47.612614" lon="1.9525442">
        <ele>151.0</ele>
        <time>2022-04-14T09:14:36Z</time>
      </trkpt>
      <trkpt lat="47.612606" lon="1.9525614">
        <ele>151.0</ele>
        <time>2022-04-14T09:14:37Z</time>
      </trkpt>
      <trkpt lat="47.612602" lon="1.9525809">
        <ele>152.0</ele>
        <time>2022-04-14T09:14:38Z</time>
      </trkpt>
      <trkpt lat="47.612602" lon="1.9525974">
        <ele>152.0</ele>
        <time>2022-04-14T09:14:39Z</time>
      </trkpt>
      <trkpt lat="47.612602" lon="1.9526181">
        <ele>152.0</ele>
        <time>2022-04-14T09:14:40Z</time>
      </trkpt>
      <trkpt lat="47.6126" lon="1.9526361">
        <ele>152.0</ele>
        <time>2022-04-14T09:14:41Z</time>
      </trkpt>
      <trkpt lat="47.6126" lon="1.9526513">
        <ele>153.0</ele>
        <time>2022-04-14T09:14:42Z</time>
      </trkpt>
      <trkpt lat="47.612595" lon="1.9526688">
        <ele>153.0</ele>
        <time>2022-04-14T09:14:43Z</time>
      </trkpt>
      <trkpt lat="47.61259" lon="1.9526823">
        <ele>153.0</ele>
        <time>2022-04-14T09:14:44Z</time>
      </trkpt>
      <trkpt lat="47.612587" lon="1.9526988">
        <ele>153.0</ele>
        <time>2022-04-14T09:14:45Z</time>
      </trkpt>
      <trkpt lat="47.61258" lon="1.9527154">
        <ele>152.0</ele>
        <time>2022-04-14T09:14:46Z</time>
      </trkpt>
      <trkpt lat="47.61257" lon="1.9527316">
        <ele>153.0</ele>
        <time>2022-04-14T09:14:47Z</time>
      </trkpt>
      <trkpt lat="47.612564" lon="1.9527481">
        <ele>153.0</ele>
        <time>2022-04-14T09:14:48Z</time>
      </trkpt>
      <trkpt lat="47.612556" lon="1.9527657">
        <ele>153.0</ele>
        <time>2022-04-14T09:14:49Z</time>
      </trkpt>
      <trkpt lat="47.612553" lon="1.9527842">
        <ele>153.0</ele>
        <time>2022-04-14T09:14:50Z</time>
      </trkpt>
      <trkpt lat="47.61255" lon="1.9528013">
        <ele>153.0</ele>
        <time>2022-04-14T09:14:51Z</time>
      </trkpt>
      <trkpt lat="47.612545" lon="1.9528135">
        <ele>154.0</ele>
        <time>2022-04-14T09:14:52Z</time>
      </trkpt>
      <trkpt lat="47.61254" lon="1.9528259">
        <ele>154.0</ele>
        <time>2022-04-14T09:14:53Z</time>
      </trkpt>
      <trkpt lat="47.612537" lon="1.9528416">
        <ele>154.0</ele>
        <time>2022-04-14T09:14:54Z</time>
      </trkpt>
      <trkpt lat="47.612534" lon="1.9528567">
        <ele>153.0</ele>
        <time>2022-04-14T09:14:55Z</time>
      </trkpt>
      <trkpt lat="47.612534" lon="1.9528725">
        <ele>153.0</ele>
        <time>2022-04-14T09:14:56Z</time>
      </trkpt>
      <trkpt lat="47.612522" lon="1.9528868">
        <ele>153.0</ele>
        <time>2022-04-14T09:14:57Z</time>
      </trkpt>
      <trkpt lat="47.61251" lon="1.9528966">
        <ele>153.0</ele>
        <time>2022-04-14T09:14:58Z</time>
      </trkpt>
      <trkpt lat="47.612503" lon="1.9528981">
        <ele>154.0</ele>
        <time>2022-04-14T09:14:59Z</time>
      </trkpt>
      <trkpt lat="47.612503" lon="1.952898">
        <ele>154.0</ele>
        <time>2022-04-14T09:15:00Z</time>
      </trkpt>
      <trkpt lat="47.612503" lon="1.952898">
        <ele>154.0</ele>
        <time>2022-04-14T09:15:00Z</time>
      </trkpt>
      <trkpt lat="47.612503" lon="1.9529092">
        <ele>155.0</ele>
        <time>2022-04-14T09:15:02Z</time>
      </trkpt>
      <trkpt lat="47.612503" lon="1.9529092">
        <ele>155.0</ele>
        <time>2022-04-14T09:15:02Z</time>
      </trkpt>
      <trkpt lat="47.612503" lon="1.9529092">
        <ele>155.0</ele>
        <time>2022-04-14T09:15:02Z</time>
      </trkpt>
      <trkpt lat="47.61248" lon="1.9529846">
        <ele>154.0</ele>
        <time>2022-04-14T09:15:09Z</time>
      </trkpt>
      <trkpt lat="47.612473" lon="1.9529964">
        <ele>155.0</ele>
        <time>2022-04-14T09:15:10Z</time>
      </trkpt>
      <trkpt lat="47.61247" lon="1.953013">
        <ele>155.0</ele>
        <time>2022-04-14T09:15:11Z</time>
      </trkpt>
      <trkpt lat="47.61247" lon="1.9530263">
        <ele>155.0</ele>
        <time>2022-04-14T09:15:12Z</time>
      </trkpt>
      <trkpt lat="47.612465" lon="1.9530388">
        <ele>155.0</ele>
        <time>2022-04-14T09:15:13Z</time>
      </trkpt>
      <trkpt lat="47.61246" lon="1.953053">
        <ele>155.0</ele>
        <time>2022-04-14T09:15:14Z</time>
      </trkpt>
      <trkpt lat="47.612457" lon="1.9530662">
        <ele>155.0</ele>
        <time>2022-04-14T09:15:15Z</time>
      </trkpt>
      <trkpt lat="47.612453" lon="1.9530811">
        <ele>155.0</ele>
        <time>2022-04-14T09:15:16Z</time>
      </trkpt>
      <trkpt lat="47.612457" lon="1.9531009">
        <ele>155.0</ele>
        <time>2022-04-14T09:15:17Z</time>
      </trkpt>
      <trkpt lat="47.612453" lon="1.953118">
        <ele>155.0</ele>
        <time>2022-04-14T09:15:18Z</time>
      </trkpt>
      <trkpt lat="47.61245" lon="1.9531308">
        <ele>155.0</ele>
        <time>2022-04-14T09:15:19Z</time>
      </trkpt>
      <trkpt lat="47.612446" lon="1.9531336">
        <ele>154.0</ele>
        <time>2022-04-14T09:15:20Z</time>
      </trkpt>
      <trkpt lat="47.612446" lon="1.9531336">
        <ele>154.0</ele>
        <time>2022-04-14T09:15:21Z</time>
      </trkpt>
      <trkpt lat="47.61245" lon="1.9531367">
        <ele>154.0</ele>
        <time>2022-04-14T09:15:22Z</time>
      </trkpt>
      <trkpt lat="47.61245" lon="1.9531367">
        <ele>154.0</ele>
        <time>2022-04-14T09:15:23Z</time>
      </trkpt>
      <trkpt lat="47.61245" lon="1.9531367">
        <ele>154.0</ele>
        <time>2022-04-14T09:15:23Z</time>
      </trkpt>
      <trkpt lat="47.61245" lon="1.9531367">
        <ele>154.0</ele>
        <time>2022-04-14T09:15:23Z</time>
      </trkpt>
      <trkpt lat="47.612423" lon="1.9532102">
        <ele>155.0</ele>
        <time>2022-04-14T09:15:34Z</time>
      </trkpt>
      <trkpt lat="47.612415" lon="1.9532229">
        <ele>156.0</ele>
        <time>2022-04-14T09:15:35Z</time>
      </trkpt>
      <trkpt lat="47.612415" lon="1.9532355">
        <ele>156.0</ele>
        <time>2022-04-14T09:15:36Z</time>
      </trkpt>
      <trkpt lat="47.61241" lon="1.953245">
        <ele>156.0</ele>
        <time>2022-04-14T09:15:37Z</time>
      </trkpt>
      <trkpt lat="47.61241" lon="1.9532549">
        <ele>156.0</ele>
        <time>2022-04-14T09:15:38Z</time>
      </trkpt>
      <trkpt lat="47.612408" lon="1.9532689">
        <ele>156.0</ele>
        <time>2022-04-14T09:15:39Z</time>
      </trkpt>
      <trkpt lat="47.612404" lon="1.9532839">
        <ele>155.0</ele>
        <time>2022-04-14T09:15:40Z</time>
      </trkpt>
      <trkpt lat="47.6124" lon="1.9532983">
        <ele>156.0</ele>
        <time>2022-04-14T09:15:41Z</time>
      </trkpt>
      <trkpt lat="47.612396" lon="1.9533116">
        <ele>156.0</ele>
        <time>2022-04-14T09:15:42Z</time>
      </trkpt>
      <trkpt lat="47.61239" lon="1.9533197">
        <ele>156.0</ele>
        <time>2022-04-14T09:15:43Z</time>
      </trkpt>
      <trkpt lat="47.612385" lon="1.9533318">
        <ele>156.0</ele>
        <time>2022-04-14T09:15:44Z</time>
      </trkpt>
      <trkpt lat="47.612373" lon="1.953345">
        <ele>155.0</ele>
        <time>2022-04-14T09:15:45Z</time>
      </trkpt>
      <trkpt lat="47.61237" lon="1.9533592">
        <ele>155.0</ele>
        <time>2022-04-14T09:15:46Z</time>
      </trkpt>
      <trkpt lat="47.612362" lon="1.9533716">
        <ele>155.0</ele>
        <time>2022-04-14T09:15:47Z</time>
      </trkpt>
      <trkpt lat="47.612354" lon="1.9533864">
        <ele>155.0</ele>
        <time>2022-04-14T09:15:48Z</time>
      </trkpt>
      <trkpt lat="47.61235" lon="1.9533987">
        <ele>155.0</ele>
        <time>2022-04-14T09:15:49Z</time>
      </trkpt>
      <trkpt lat="47.612347" lon="1.9534117">
        <ele>155.0</ele>
        <time>2022-04-14T09:15:50Z</time>
      </trkpt>
      <trkpt lat="47.612343" lon="1.9534208">
        <ele>155.0</ele>
        <time>2022-04-14T09:15:51Z</time>
      </trkpt>
      <trkpt lat="47.612335" lon="1.9534334">
        <ele>155.0</ele>
        <time>2022-04-14T09:15:52Z</time>
      </trkpt>
      <trkpt lat="47.612324" lon="1.953449">
        <ele>155.0</ele>
        <time>2022-04-14T09:15:53Z</time>
      </trkpt>
      <trkpt lat="47.612316" lon="1.9534625">
        <ele>155.0</ele>
        <time>2022-04-14T09:15:54Z</time>
      </trkpt>
      <trkpt lat="47.612305" lon="1.9534776">
        <ele>155.0</ele>
        <time>2022-04-14T09:15:55Z</time>
      </trkpt>
      <trkpt lat="47.612297" lon="1.9534948">
        <ele>155.0</ele>
        <time>2022-04-14T09:15:56Z</time>
      </trkpt>
      <trkpt lat="47.61229" lon="1.9535094">
        <ele>154.0</ele>
        <time>2022-04-14T09:15:57Z</time>
      </trkpt>
      <trkpt lat="47.612278" lon="1.9535235">
        <ele>155.0</ele>
        <time>2022-04-14T09:15:58Z</time>
      </trkpt>
      <trkpt lat="47.61227" lon="1.9535359">
        <ele>155.0</ele>
        <time>2022-04-14T09:15:59Z</time>
      </trkpt>
      <trkpt lat="47.612263" lon="1.9535489">
        <ele>154.0</ele>
        <time>2022-04-14T09:16:00Z</time>
      </trkpt>
      <trkpt lat="47.612263" lon="1.95356">
        <ele>155.0</ele>
        <time>2022-04-14T09:16:01Z</time>
      </trkpt>
      <trkpt lat="47.61226" lon="1.9535677">
        <ele>155.0</ele>
        <time>2022-04-14T09:16:02Z</time>
      </trkpt>
      <trkpt lat="47.61225" lon="1.953579">
        <ele>154.0</ele>
        <time>2022-04-14T09:16:03Z</time>
      </trkpt>
      <trkpt lat="47.61225" lon="1.9535924">
        <ele>154.0</ele>
        <time>2022-04-14T09:16:04Z</time>
      </trkpt>
      <trkpt lat="47.612247" lon="1.9536084">
        <ele>154.0</ele>
        <time>2022-04-14T09:16:05Z</time>
      </trkpt>
      <trkpt lat="47.612244" lon="1.9536244">
        <ele>154.0</ele>
        <time>2022-04-14T09:16:06Z</time>
      </trkpt>
      <trkpt lat="47.61224" lon="1.9536415">
        <ele>154.0</ele>
        <time>2022-04-14T09:16:07Z</time>
      </trkpt>
      <trkpt lat="47.612236" lon="1.9536566">
        <ele>154.0</ele>
        <time>2022-04-14T09:16:08Z</time>
      </trkpt>
      <trkpt lat="47.612232" lon="1.9536709">
        <ele>154.0</ele>
        <time>2022-04-14T09:16:09Z</time>
      </trkpt>
      <trkpt lat="47.61223" lon="1.9536846">
        <ele>154.0</ele>
        <time>2022-04-14T09:16:10Z</time>
      </trkpt>
      <trkpt lat="47.61223" lon="1.9536995">
        <ele>154.0</ele>
        <time>2022-04-14T09:16:11Z</time>
      </trkpt>
      <trkpt lat="47.612225" lon="1.9537162">
        <ele>154.0</ele>
        <time>2022-04-14T09:16:12Z</time>
      </trkpt>
      <trkpt lat="47.61222" lon="1.9537345">
        <ele>154.0</ele>
        <time>2022-04-14T09:16:13Z</time>
      </trkpt>
      <trkpt lat="47.612217" lon="1.9537528">
        <ele>154.0</ele>
        <time>2022-04-14T09:16:14Z</time>
      </trkpt>
      <trkpt lat="47.612213" lon="1.9537715">
        <ele>154.0</ele>
        <time>2022-04-14T09:16:15Z</time>
      </trkpt>
      <trkpt lat="47.61221" lon="1.9537884">
        <ele>154.0</ele>
        <time>2022-04-14T09:16:16Z</time>
      </trkpt>
      <trkpt lat="47.612206" lon="1.9538037">
        <ele>154.0</ele>
        <time>2022-04-14T09:16:17Z</time>
      </trkpt>
      <trkpt lat="47.6122" lon="1.9538189">
        <ele>154.0</ele>
        <time>2022-04-14T09:16:18Z</time>
      </trkpt>
      <trkpt lat="47.612198" lon="1.9538363">
        <ele>154.0</ele>
        <time>2022-04-14T09:16:19Z</time>
      </trkpt>
      <trkpt lat="47.612194" lon="1.9538574">
        <ele>154.0</ele>
        <time>2022-04-14T09:16:20Z</time>
      </trkpt>
      <trkpt lat="47.612186" lon="1.9538755">
        <ele>154.0</ele>
        <time>2022-04-14T09:16:21Z</time>
      </trkpt>
      <trkpt lat="47.612183" lon="1.9538925">
        <ele>154.0</ele>
        <time>2022-04-14T09:16:22Z</time>
      </trkpt>
      <trkpt lat="47.612175" lon="1.9539089">
        <ele>154.0</ele>
        <time>2022-04-14T09:16:23Z</time>
      </trkpt>
      <trkpt lat="47.612167" lon="1.9539232">
        <ele>154.0</ele>
        <time>2022-04-14T09:16:24Z</time>
      </trkpt>
      <trkpt lat="47.612164" lon="1.9539372">
        <ele>153.0</ele>
        <time>2022-04-14T09:16:25Z</time>
      </trkpt>
      <trkpt lat="47.612156" lon="1.9539477">
        <ele>153.0</ele>
        <time>2022-04-14T09:16:26Z</time>
      </trkpt>
      <trkpt lat="47.61215" lon="1.9539615">
        <ele>153.0</ele>
        <time>2022-04-14T09:16:27Z</time>
      </trkpt>
      <trkpt lat="47.61214" lon="1.9539721">
        <ele>153.0</ele>
        <time>2022-04-14T09:16:28Z</time>
      </trkpt>
      <trkpt lat="47.612137" lon="1.9539793">
        <ele>153.0</ele>
        <time>2022-04-14T09:16:29Z</time>
      </trkpt>
      <trkpt lat="47.612133" lon="1.9539907">
        <ele>153.0</ele>
        <time>2022-04-14T09:16:30Z</time>
      </trkpt>
      <trkpt lat="47.61213" lon="1.9540071">
        <ele>153.0</ele>
        <time>2022-04-14T09:16:31Z</time>
      </trkpt>
      <trkpt lat="47.61212" lon="1.9540223">
        <ele>153.0</ele>
        <time>2022-04-14T09:16:32Z</time>
      </trkpt>
      <trkpt lat="47.61212" lon="1.954036">
        <ele>153.0</ele>
        <time>2022-04-14T09:16:33Z</time>
      </trkpt>
      <trkpt lat="47.612118" lon="1.9540482">
        <ele>153.0</ele>
        <time>2022-04-14T09:16:34Z</time>
      </trkpt>
      <trkpt lat="47.612118" lon="1.954062">
        <ele>153.0</ele>
        <time>2022-04-14T09:16:35Z</time>
      </trkpt>
      <trkpt lat="47.61211" lon="1.9540809">
        <ele>154.0</ele>
        <time>2022-04-14T09:16:36Z</time>
      </trkpt>
      <trkpt lat="47.612106" lon="1.9540983">
        <ele>154.0</ele>
        <time>2022-04-14T09:16:37Z</time>
      </trkpt>
      <trkpt lat="47.6121" lon="1.9541185">
        <ele>154.0</ele>
        <time>2022-04-14T09:16:38Z</time>
      </trkpt>
      <trkpt lat="47.612103" lon="1.9541432">
        <ele>154.0</ele>
        <time>2022-04-14T09:16:39Z</time>
      </trkpt>
      <trkpt lat="47.6121" lon="1.9541625">
        <ele>154.0</ele>
        <time>2022-04-14T09:16:40Z</time>
      </trkpt>
      <trkpt lat="47.612095" lon="1.9541769">
        <ele>155.0</ele>
        <time>2022-04-14T09:16:41Z</time>
      </trkpt>
      <trkpt lat="47.612087" lon="1.954186">
        <ele>155.0</ele>
        <time>2022-04-14T09:16:42Z</time>
      </trkpt>
      <trkpt lat="47.61208" lon="1.9541966">
        <ele>156.0</ele>
        <time>2022-04-14T09:16:43Z</time>
      </trkpt>
      <trkpt lat="47.612076" lon="1.954212">
        <ele>155.0</ele>
        <time>2022-04-14T09:16:44Z</time>
      </trkpt>
      <trkpt lat="47.61207" lon="1.9542263">
        <ele>155.0</ele>
        <time>2022-04-14T09:16:45Z</time>
      </trkpt>
      <trkpt lat="47.612057" lon="1.954245">
        <ele>155.0</ele>
        <time>2022-04-14T09:16:46Z</time>
      </trkpt>
      <trkpt lat="47.61204" lon="1.9542621">
        <ele>155.0</ele>
        <time>2022-04-14T09:16:47Z</time>
      </trkpt>
      <trkpt lat="47.612038" lon="1.9542717">
        <ele>155.0</ele>
        <time>2022-04-14T09:16:48Z</time>
      </trkpt>
      <trkpt lat="47.61203" lon="1.9542832">
        <ele>155.0</ele>
        <time>2022-04-14T09:16:49Z</time>
      </trkpt>
      <trkpt lat="47.612022" lon="1.9543004">
        <ele>154.0</ele>
        <time>2022-04-14T09:16:50Z</time>
      </trkpt>
      <trkpt lat="47.61202" lon="1.9543136">
        <ele>154.0</ele>
        <time>2022-04-14T09:16:51Z</time>
      </trkpt>
      <trkpt lat="47.61201" lon="1.9543267">
        <ele>154.0</ele>
        <time>2022-04-14T09:16:52Z</time>
      </trkpt>
      <trkpt lat="47.612003" lon="1.95434">
        <ele>153.0</ele>
        <time>2022-04-14T09:16:53Z</time>
      </trkpt>
      <trkpt lat="47.61199" lon="1.9543595">
        <ele>154.0</ele>
        <time>2022-04-14T09:16:54Z</time>
      </trkpt>
      <trkpt lat="47.61198" lon="1.954375">
        <ele>154.0</ele>
        <time>2022-04-14T09:16:55Z</time>
      </trkpt>
      <trkpt lat="47.611973" lon="1.9543903">
        <ele>154.0</ele>
        <time>2022-04-14T09:16:56Z</time>
      </trkpt>
      <trkpt lat="47.611973" lon="1.9544067">
        <ele>154.0</ele>
        <time>2022-04-14T09:16:57Z</time>
      </trkpt>
      <trkpt lat="47.611973" lon="1.9544183">
        <ele>154.0</ele>
        <time>2022-04-14T09:16:58Z</time>
      </trkpt>
      <trkpt lat="47.611973" lon="1.9544383">
        <ele>154.0</ele>
        <time>2022-04-14T09:16:59Z</time>
      </trkpt>
      <trkpt lat="47.611965" lon="1.9544606">
        <ele>154.0</ele>
        <time>2022-04-14T09:17:00Z</time>
      </trkpt>
      <trkpt lat="47.61196" lon="1.9544755">
        <ele>153.0</ele>
        <time>2022-04-14T09:17:01Z</time>
      </trkpt>
      <trkpt lat="47.611958" lon="1.9544795">
        <ele>153.0</ele>
        <time>2022-04-14T09:17:02Z</time>
      </trkpt>
      <trkpt lat="47.611954" lon="1.954484">
        <ele>153.0</ele>
        <time>2022-04-14T09:17:03Z</time>
      </trkpt>
      <trkpt lat="47.611946" lon="1.9544934">
        <ele>152.0</ele>
        <time>2022-04-14T09:17:04Z</time>
      </trkpt>
      <trkpt lat="47.611942" lon="1.9545083">
        <ele>152.0</ele>
        <time>2022-04-14T09:17:05Z</time>
      </trkpt>
      <trkpt lat="47.611942" lon="1.954531">
        <ele>152.0</ele>
        <time>2022-04-14T09:17:06Z</time>
      </trkpt>
      <trkpt lat="47.61194" lon="1.9545485">
        <ele>152.0</ele>
        <time>2022-04-14T09:17:07Z</time>
      </trkpt>
      <trkpt lat="47.611923" lon="1.9545705">
        <ele>151.0</ele>
        <time>2022-04-14T09:17:08Z</time>
      </trkpt>
      <trkpt lat="47.611916" lon="1.9545919">
        <ele>151.0</ele>
        <time>2022-04-14T09:17:09Z</time>
      </trkpt>
      <trkpt lat="47.61191" lon="1.9546152">
        <ele>151.0</ele>
        <time>2022-04-14T09:17:10Z</time>
      </trkpt>
      <trkpt lat="47.6119" lon="1.9546347">
        <ele>151.0</ele>
        <time>2022-04-14T09:17:11Z</time>
      </trkpt>
      <trkpt lat="47.611897" lon="1.9546555">
        <ele>151.0</ele>
        <time>2022-04-14T09:17:12Z</time>
      </trkpt>
      <trkpt lat="47.611885" lon="1.9546739">
        <ele>151.0</ele>
        <time>2022-04-14T09:17:13Z</time>
      </trkpt>
      <trkpt lat="47.611877" lon="1.9546896">
        <ele>151.0</ele>
        <time>2022-04-14T09:17:14Z</time>
      </trkpt>
      <trkpt lat="47.611866" lon="1.9547073">
        <ele>151.0</ele>
        <time>2022-04-14T09:17:15Z</time>
      </trkpt>
      <trkpt lat="47.611866" lon="1.9547218">
        <ele>151.0</ele>
        <time>2022-04-14T09:17:16Z</time>
      </trkpt>
      <trkpt lat="47.611862" lon="1.954741">
        <ele>151.0</ele>
        <time>2022-04-14T09:17:17Z</time>
      </trkpt>
      <trkpt lat="47.611862" lon="1.9547582">
        <ele>151.0</ele>
        <time>2022-04-14T09:17:18Z</time>
      </trkpt>
      <trkpt lat="47.61186" lon="1.954781">
        <ele>151.0</ele>
        <time>2022-04-14T09:17:19Z</time>
      </trkpt>
      <trkpt lat="47.611855" lon="1.9548019">
        <ele>151.0</ele>
        <time>2022-04-14T09:17:20Z</time>
      </trkpt>
      <trkpt lat="47.61185" lon="1.9548144">
        <ele>151.0</ele>
        <time>2022-04-14T09:17:21Z</time>
      </trkpt>
      <trkpt lat="47.611847" lon="1.9548315">
        <ele>152.0</ele>
        <time>2022-04-14T09:17:22Z</time>
      </trkpt>
      <trkpt lat="47.61184" lon="1.9548512">
        <ele>152.0</ele>
        <time>2022-04-14T09:17:23Z</time>
      </trkpt>
      <trkpt lat="47.61183" lon="1.954871">
        <ele>152.0</ele>
        <time>2022-04-14T09:17:24Z</time>
      </trkpt>
      <trkpt lat="47.611828" lon="1.9548889">
        <ele>152.0</ele>
        <time>2022-04-14T09:17:25Z</time>
      </trkpt>
      <trkpt lat="47.61182" lon="1.9549013">
        <ele>152.0</ele>
        <time>2022-04-14T09:17:26Z</time>
      </trkpt>
      <trkpt lat="47.611816" lon="1.9549211">
        <ele>152.0</ele>
        <time>2022-04-14T09:17:27Z</time>
      </trkpt>
      <trkpt lat="47.61181" lon="1.9549383">
        <ele>152.0</ele>
        <time>2022-04-14T09:17:28Z</time>
      </trkpt>
      <trkpt lat="47.6118" lon="1.9549553">
        <ele>153.0</ele>
        <time>2022-04-14T09:17:29Z</time>
      </trkpt>
      <trkpt lat="47.611797" lon="1.9549742">
        <ele>154.0</ele>
        <time>2022-04-14T09:17:30Z</time>
      </trkpt>
      <trkpt lat="47.611794" lon="1.9549919">
        <ele>154.0</ele>
        <time>2022-04-14T09:17:31Z</time>
      </trkpt>
      <trkpt lat="47.611786" lon="1.9550071">
        <ele>154.0</ele>
        <time>2022-04-14T09:17:32Z</time>
      </trkpt>
      <trkpt lat="47.61178" lon="1.9550214">
        <ele>154.0</ele>
        <time>2022-04-14T09:17:33Z</time>
      </trkpt>
      <trkpt lat="47.61177" lon="1.955036">
        <ele>154.0</ele>
        <time>2022-04-14T09:17:34Z</time>
      </trkpt>
      <trkpt lat="47.611763" lon="1.9550501">
        <ele>155.0</ele>
        <time>2022-04-14T09:17:35Z</time>
      </trkpt>
      <trkpt lat="47.611755" lon="1.9550618">
        <ele>154.0</ele>
        <time>2022-04-14T09:17:36Z</time>
      </trkpt>
      <trkpt lat="47.61175" lon="1.9550734">
        <ele>155.0</ele>
        <time>2022-04-14T09:17:37Z</time>
      </trkpt>
      <trkpt lat="47.611748" lon="1.9550871">
        <ele>155.0</ele>
        <time>2022-04-14T09:17:38Z</time>
      </trkpt>
      <trkpt lat="47.611744" lon="1.9551014">
        <ele>154.0</ele>
        <time>2022-04-14T09:17:39Z</time>
      </trkpt>
      <trkpt lat="47.61174" lon="1.9551169">
        <ele>154.0</ele>
        <time>2022-04-14T09:17:40Z</time>
      </trkpt>
      <trkpt lat="47.611736" lon="1.9551339">
        <ele>154.0</ele>
        <time>2022-04-14T09:17:41Z</time>
      </trkpt>
      <trkpt lat="47.61174" lon="1.9551541">
        <ele>154.0</ele>
        <time>2022-04-14T09:17:42Z</time>
      </trkpt>
      <trkpt lat="47.61174" lon="1.9551686">
        <ele>154.0</ele>
        <time>2022-04-14T09:17:43Z</time>
      </trkpt>
      <trkpt lat="47.611736" lon="1.9551823">
        <ele>154.0</ele>
        <time>2022-04-14T09:17:44Z</time>
      </trkpt>
      <trkpt lat="47.61174" lon="1.9552003">
        <ele>154.0</ele>
        <time>2022-04-14T09:17:45Z</time>
      </trkpt>
      <trkpt lat="47.61174" lon="1.9552197">
        <ele>154.0</ele>
        <time>2022-04-14T09:17:46Z</time>
      </trkpt>
      <trkpt lat="47.611736" lon="1.9552405">
        <ele>154.0</ele>
        <time>2022-04-14T09:17:47Z</time>
      </trkpt>
      <trkpt lat="47.611736" lon="1.9552578">
        <ele>154.0</ele>
        <time>2022-04-14T09:17:48Z</time>
      </trkpt>
      <trkpt lat="47.611732" lon="1.9552736">
        <ele>155.0</ele>
        <time>2022-04-14T09:17:49Z</time>
      </trkpt>
      <trkpt lat="47.61173" lon="1.9552945">
        <ele>155.0</ele>
        <time>2022-04-14T09:17:50Z</time>
      </trkpt>
      <trkpt lat="47.61173" lon="1.9553114">
        <ele>155.0</ele>
        <time>2022-04-14T09:17:51Z</time>
      </trkpt>
      <trkpt lat="47.611725" lon="1.955329">
        <ele>155.0</ele>
        <time>2022-04-14T09:17:52Z</time>
      </trkpt>
      <trkpt lat="47.61172" lon="1.9553418">
        <ele>155.0</ele>
        <time>2022-04-14T09:17:53Z</time>
      </trkpt>
      <trkpt lat="47.611713" lon="1.9553587">
        <ele>154.0</ele>
        <time>2022-04-14T09:17:54Z</time>
      </trkpt>
      <trkpt lat="47.611713" lon="1.9553723">
        <ele>155.0</ele>
        <time>2022-04-14T09:17:55Z</time>
      </trkpt>
      <trkpt lat="47.611713" lon="1.9553835">
        <ele>155.0</ele>
        <time>2022-04-14T09:17:56Z</time>
      </trkpt>
      <trkpt lat="47.61171" lon="1.955396">
        <ele>155.0</ele>
        <time>2022-04-14T09:17:57Z</time>
      </trkpt>
      <trkpt lat="47.61171" lon="1.9554074">
        <ele>155.0</ele>
        <time>2022-04-14T09:17:58Z</time>
      </trkpt>
      <trkpt lat="47.611706" lon="1.9554236">
        <ele>155.0</ele>
        <time>2022-04-14T09:17:59Z</time>
      </trkpt>
      <trkpt lat="47.611706" lon="1.9554409">
        <ele>156.0</ele>
        <time>2022-04-14T09:18:00Z</time>
      </trkpt>
      <trkpt lat="47.611706" lon="1.9554578">
        <ele>155.0</ele>
        <time>2022-04-14T09:18:01Z</time>
      </trkpt>
      <trkpt lat="47.611702" lon="1.9554738">
        <ele>155.0</ele>
        <time>2022-04-14T09:18:02Z</time>
      </trkpt>
      <trkpt lat="47.611702" lon="1.9554925">
        <ele>156.0</ele>
        <time>2022-04-14T09:18:03Z</time>
      </trkpt>
      <trkpt lat="47.611702" lon="1.9555085">
        <ele>156.0</ele>
        <time>2022-04-14T09:18:04Z</time>
      </trkpt>
      <trkpt lat="47.611702" lon="1.9555242">
        <ele>156.0</ele>
        <time>2022-04-14T09:18:05Z</time>
      </trkpt>
      <trkpt lat="47.6117" lon="1.9555383">
        <ele>156.0</ele>
        <time>2022-04-14T09:18:06Z</time>
      </trkpt>
      <trkpt lat="47.611694" lon="1.9555494">
        <ele>157.0</ele>
        <time>2022-04-14T09:18:07Z</time>
      </trkpt>
      <trkpt lat="47.6117" lon="1.9555674">
        <ele>157.0</ele>
        <time>2022-04-14T09:18:08Z</time>
      </trkpt>
      <trkpt lat="47.6117" lon="1.9555852">
        <ele>157.0</ele>
        <time>2022-04-14T09:18:09Z</time>
      </trkpt>
      <trkpt lat="47.61169" lon="1.9556072">
        <ele>157.0</ele>
        <time>2022-04-14T09:18:10Z</time>
      </trkpt>
      <trkpt lat="47.611687" lon="1.9556283">
        <ele>157.0</ele>
        <time>2022-04-14T09:18:11Z</time>
      </trkpt>
      <trkpt lat="47.611683" lon="1.9556453">
        <ele>157.0</ele>
        <time>2022-04-14T09:18:12Z</time>
      </trkpt>
      <trkpt lat="47.611683" lon="1.9556623">
        <ele>157.0</ele>
        <time>2022-04-14T09:18:13Z</time>
      </trkpt>
      <trkpt lat="47.61168" lon="1.9556823">
        <ele>158.0</ele>
        <time>2022-04-14T09:18:14Z</time>
      </trkpt>
      <trkpt lat="47.611675" lon="1.955704">
        <ele>157.0</ele>
        <time>2022-04-14T09:18:15Z</time>
      </trkpt>
      <trkpt lat="47.611664" lon="1.9557208">
        <ele>158.0</ele>
        <time>2022-04-14T09:18:16Z</time>
      </trkpt>
      <trkpt lat="47.61166" lon="1.9557363">
        <ele>158.0</ele>
        <time>2022-04-14T09:18:17Z</time>
      </trkpt>
      <trkpt lat="47.611656" lon="1.9557495">
        <ele>158.0</ele>
        <time>2022-04-14T09:18:18Z</time>
      </trkpt>
      <trkpt lat="47.611652" lon="1.9557635">
        <ele>158.0</ele>
        <time>2022-04-14T09:18:19Z</time>
      </trkpt>
      <trkpt lat="47.611652" lon="1.95578">
        <ele>159.0</ele>
        <time>2022-04-14T09:18:20Z</time>
      </trkpt>
      <trkpt lat="47.61165" lon="1.9558015">
        <ele>159.0</ele>
        <time>2022-04-14T09:18:21Z</time>
      </trkpt>
      <trkpt lat="47.611645" lon="1.9558201">
        <ele>159.0</ele>
        <time>2022-04-14T09:18:22Z</time>
      </trkpt>
      <trkpt lat="47.611637" lon="1.9558363">
        <ele>159.0</ele>
        <time>2022-04-14T09:18:23Z</time>
      </trkpt>
      <trkpt lat="47.611633" lon="1.9558575">
        <ele>160.0</ele>
        <time>2022-04-14T09:18:24Z</time>
      </trkpt>
      <trkpt lat="47.611633" lon="1.9558724">
        <ele>160.0</ele>
        <time>2022-04-14T09:18:25Z</time>
      </trkpt>
      <trkpt lat="47.611633" lon="1.9558855">
        <ele>160.0</ele>
        <time>2022-04-14T09:18:26Z</time>
      </trkpt>
      <trkpt lat="47.611633" lon="1.9558985">
        <ele>160.0</ele>
        <time>2022-04-14T09:18:27Z</time>
      </trkpt>
      <trkpt lat="47.611637" lon="1.9559146">
        <ele>160.0</ele>
        <time>2022-04-14T09:18:28Z</time>
      </trkpt>
      <trkpt lat="47.61164" lon="1.955929">
        <ele>160.0</ele>
        <time>2022-04-14T09:18:29Z</time>
      </trkpt>
      <trkpt lat="47.611645" lon="1.9559485">
        <ele>160.0</ele>
        <time>2022-04-14T09:18:30Z</time>
      </trkpt>
      <trkpt lat="47.611645" lon="1.9559604">
        <ele>160.0</ele>
        <time>2022-04-14T09:18:31Z</time>
      </trkpt>
      <trkpt lat="47.61164" lon="1.9559771">
        <ele>160.0</ele>
        <time>2022-04-14T09:18:32Z</time>
      </trkpt>
      <trkpt lat="47.611637" lon="1.9559962">
        <ele>160.0</ele>
        <time>2022-04-14T09:18:33Z</time>
      </trkpt>
      <trkpt lat="47.611633" lon="1.9560149">
        <ele>160.0</ele>
        <time>2022-04-14T09:18:34Z</time>
      </trkpt>
      <trkpt lat="47.611633" lon="1.9560347">
        <ele>160.0</ele>
        <time>2022-04-14T09:18:35Z</time>
      </trkpt>
      <trkpt lat="47.611633" lon="1.9560534">
        <ele>160.0</ele>
        <time>2022-04-14T09:18:36Z</time>
      </trkpt>
      <trkpt lat="47.611633" lon="1.9560703">
        <ele>161.0</ele>
        <time>2022-04-14T09:18:37Z</time>
      </trkpt>
      <trkpt lat="47.61163" lon="1.9560912">
        <ele>161.0</ele>
        <time>2022-04-14T09:18:38Z</time>
      </trkpt>
      <trkpt lat="47.611633" lon="1.9561073">
        <ele>161.0</ele>
        <time>2022-04-14T09:18:39Z</time>
      </trkpt>
      <trkpt lat="47.611637" lon="1.956119">
        <ele>160.0</ele>
        <time>2022-04-14T09:18:40Z</time>
      </trkpt>
      <trkpt lat="47.611637" lon="1.9561319">
        <ele>161.0</ele>
        <time>2022-04-14T09:18:41Z</time>
      </trkpt>
      <trkpt lat="47.611633" lon="1.9561464">
        <ele>160.0</ele>
        <time>2022-04-14T09:18:42Z</time>
      </trkpt>
      <trkpt lat="47.611633" lon="1.9561608">
        <ele>161.0</ele>
        <time>2022-04-14T09:18:43Z</time>
      </trkpt>
      <trkpt lat="47.611633" lon="1.9561733">
        <ele>161.0</ele>
        <time>2022-04-14T09:18:44Z</time>
      </trkpt>
      <trkpt lat="47.611637" lon="1.9561874">
        <ele>162.0</ele>
        <time>2022-04-14T09:18:45Z</time>
      </trkpt>
      <trkpt lat="47.61164" lon="1.9562055">
        <ele>162.0</ele>
        <time>2022-04-14T09:18:46Z</time>
      </trkpt>
      <trkpt lat="47.61164" lon="1.9562216">
        <ele>162.0</ele>
        <time>2022-04-14T09:18:47Z</time>
      </trkpt>
      <trkpt lat="47.611645" lon="1.956233">
        <ele>162.0</ele>
        <time>2022-04-14T09:18:48Z</time>
      </trkpt>
      <trkpt lat="47.61165" lon="1.9562498">
        <ele>162.0</ele>
        <time>2022-04-14T09:18:49Z</time>
      </trkpt>
      <trkpt lat="47.611652" lon="1.9562628">
        <ele>162.0</ele>
        <time>2022-04-14T09:18:50Z</time>
      </trkpt>
      <trkpt lat="47.611645" lon="1.956277">
        <ele>161.0</ele>
        <time>2022-04-14T09:18:51Z</time>
      </trkpt>
      <trkpt lat="47.61164" lon="1.9562893">
        <ele>161.0</ele>
        <time>2022-04-14T09:18:52Z</time>
      </trkpt>
      <trkpt lat="47.611637" lon="1.9563024">
        <ele>160.0</ele>
        <time>2022-04-14T09:18:53Z</time>
      </trkpt>
      <trkpt lat="47.61164" lon="1.9563165">
        <ele>160.0</ele>
        <time>2022-04-14T09:18:54Z</time>
      </trkpt>
      <trkpt lat="47.611645" lon="1.9563303">
        <ele>160.0</ele>
        <time>2022-04-14T09:18:55Z</time>
      </trkpt>
      <trkpt lat="47.61165" lon="1.9563454">
        <ele>160.0</ele>
        <time>2022-04-14T09:18:56Z</time>
      </trkpt>
      <trkpt lat="47.611652" lon="1.9563652">
        <ele>160.0</ele>
        <time>2022-04-14T09:18:57Z</time>
      </trkpt>
      <trkpt lat="47.611656" lon="1.956382">
        <ele>159.0</ele>
        <time>2022-04-14T09:18:58Z</time>
      </trkpt>
      <trkpt lat="47.611656" lon="1.9564006">
        <ele>159.0</ele>
        <time>2022-04-14T09:18:59Z</time>
      </trkpt>
      <trkpt lat="47.61166" lon="1.9564234">
        <ele>159.0</ele>
        <time>2022-04-14T09:19:00Z</time>
      </trkpt>
      <trkpt lat="47.611664" lon="1.9564471">
        <ele>159.0</ele>
        <time>2022-04-14T09:19:01Z</time>
      </trkpt>
      <trkpt lat="47.611664" lon="1.9564661">
        <ele>159.0</ele>
        <time>2022-04-14T09:19:02Z</time>
      </trkpt>
      <trkpt lat="47.611664" lon="1.95648">
        <ele>158.0</ele>
        <time>2022-04-14T09:19:03Z</time>
      </trkpt>
      <trkpt lat="47.611664" lon="1.9564947">
        <ele>158.0</ele>
        <time>2022-04-14T09:19:04Z</time>
      </trkpt>
      <trkpt lat="47.611668" lon="1.9565114">
        <ele>157.0</ele>
        <time>2022-04-14T09:19:05Z</time>
      </trkpt>
      <trkpt lat="47.611668" lon="1.9565244">
        <ele>157.0</ele>
        <time>2022-04-14T09:19:06Z</time>
      </trkpt>
      <trkpt lat="47.611668" lon="1.9565393">
        <ele>157.0</ele>
        <time>2022-04-14T09:19:07Z</time>
      </trkpt>
      <trkpt lat="47.611668" lon="1.9565527">
        <ele>156.0</ele>
        <time>2022-04-14T09:19:08Z</time>
      </trkpt>
      <trkpt lat="47.611656" lon="1.956574">
        <ele>156.0</ele>
        <time>2022-04-14T09:19:09Z</time>
      </trkpt>
      <trkpt lat="47.611652" lon="1.9565911">
        <ele>156.0</ele>
        <time>2022-04-14T09:19:10Z</time>
      </trkpt>
      <trkpt lat="47.611652" lon="1.9566115">
        <ele>156.0</ele>
        <time>2022-04-14T09:19:11Z</time>
      </trkpt>
      <trkpt lat="47.611652" lon="1.9566295">
        <ele>155.0</ele>
        <time>2022-04-14T09:19:12Z</time>
      </trkpt>
      <trkpt lat="47.611652" lon="1.9566499">
        <ele>155.0</ele>
        <time>2022-04-14T09:19:13Z</time>
      </trkpt>
      <trkpt lat="47.611652" lon="1.9566699">
        <ele>155.0</ele>
        <time>2022-04-14T09:19:14Z</time>
      </trkpt>
      <trkpt lat="47.611652" lon="1.9566878">
        <ele>155.0</ele>
        <time>2022-04-14T09:19:15Z</time>
      </trkpt>
      <trkpt lat="47.611652" lon="1.9567056">
        <ele>155.0</ele>
        <time>2022-04-14T09:19:16Z</time>
      </trkpt>
      <trkpt lat="47.61165" lon="1.9567244">
        <ele>155.0</ele>
        <time>2022-04-14T09:19:17Z</time>
      </trkpt>
      <trkpt lat="47.61165" lon="1.9567413">
        <ele>155.0</ele>
        <time>2022-04-14T09:19:18Z</time>
      </trkpt>
      <trkpt lat="47.61165" lon="1.9567564">
        <ele>155.0</ele>
        <time>2022-04-14T09:19:19Z</time>
      </trkpt>
      <trkpt lat="47.61165" lon="1.9567739">
        <ele>155.0</ele>
        <time>2022-04-14T09:19:20Z</time>
      </trkpt>
      <trkpt lat="47.611645" lon="1.9567882">
        <ele>155.0</ele>
        <time>2022-04-14T09:19:21Z</time>
      </trkpt>
      <trkpt lat="47.61164" lon="1.9568025">
        <ele>155.0</ele>
        <time>2022-04-14T09:19:22Z</time>
      </trkpt>
      <trkpt lat="47.611633" lon="1.9568222">
        <ele>155.0</ele>
        <time>2022-04-14T09:19:23Z</time>
      </trkpt>
      <trkpt lat="47.611633" lon="1.9568377">
        <ele>155.0</ele>
        <time>2022-04-14T09:19:24Z</time>
      </trkpt>
      <trkpt lat="47.611633" lon="1.9568583">
        <ele>155.0</ele>
        <time>2022-04-14T09:19:25Z</time>
      </trkpt>
      <trkpt lat="47.611637" lon="1.9568788">
        <ele>156.0</ele>
        <time>2022-04-14T09:19:26Z</time>
      </trkpt>
      <trkpt lat="47.611637" lon="1.9569006">
        <ele>156.0</ele>
        <time>2022-04-14T09:19:27Z</time>
      </trkpt>
      <trkpt lat="47.61164" lon="1.9569181">
        <ele>157.0</ele>
        <time>2022-04-14T09:19:28Z</time>
      </trkpt>
      <trkpt lat="47.61164" lon="1.9569334">
        <ele>157.0</ele>
        <time>2022-04-14T09:19:29Z</time>
      </trkpt>
      <trkpt lat="47.611645" lon="1.9569525">
        <ele>158.0</ele>
        <time>2022-04-14T09:19:30Z</time>
      </trkpt>
      <trkpt lat="47.61165" lon="1.9569664">
        <ele>158.0</ele>
        <time>2022-04-14T09:19:31Z</time>
      </trkpt>
      <trkpt lat="47.611652" lon="1.9569814">
        <ele>158.0</ele>
        <time>2022-04-14T09:19:32Z</time>
      </trkpt>
      <trkpt lat="47.61166" lon="1.9569951">
        <ele>158.0</ele>
        <time>2022-04-14T09:19:33Z</time>
      </trkpt>
      <trkpt lat="47.611664" lon="1.9570101">
        <ele>158.0</ele>
        <time>2022-04-14T09:19:34Z</time>
      </trkpt>
      <trkpt lat="47.611668" lon="1.957025">
        <ele>159.0</ele>
        <time>2022-04-14T09:19:35Z</time>
      </trkpt>
      <trkpt lat="47.611668" lon="1.9570446">
        <ele>159.0</ele>
        <time>2022-04-14T09:19:36Z</time>
      </trkpt>
      <trkpt lat="47.611668" lon="1.9570624">
        <ele>159.0</ele>
        <time>2022-04-14T09:19:37Z</time>
      </trkpt>
      <trkpt lat="47.611668" lon="1.9570813">
        <ele>159.0</ele>
        <time>2022-04-14T09:19:38Z</time>
      </trkpt>
      <trkpt lat="47.611668" lon="1.9570974">
        <ele>159.0</ele>
        <time>2022-04-14T09:19:39Z</time>
      </trkpt>
      <trkpt lat="47.611668" lon="1.9571142">
        <ele>160.0</ele>
        <time>2022-04-14T09:19:40Z</time>
      </trkpt>
      <trkpt lat="47.611664" lon="1.9571298">
        <ele>160.0</ele>
        <time>2022-04-14T09:19:41Z</time>
      </trkpt>
      <trkpt lat="47.611664" lon="1.9571453">
        <ele>160.0</ele>
        <time>2022-04-14T09:19:42Z</time>
      </trkpt>
      <trkpt lat="47.611664" lon="1.9571582">
        <ele>160.0</ele>
        <time>2022-04-14T09:19:43Z</time>
      </trkpt>
      <trkpt lat="47.611664" lon="1.957169">
        <ele>160.0</ele>
        <time>2022-04-14T09:19:44Z</time>
      </trkpt>
      <trkpt lat="47.611664" lon="1.9571815">
        <ele>160.0</ele>
        <time>2022-04-14T09:19:45Z</time>
      </trkpt>
      <trkpt lat="47.611668" lon="1.9571959">
        <ele>160.0</ele>
        <time>2022-04-14T09:19:46Z</time>
      </trkpt>
      <trkpt lat="47.611675" lon="1.9572103">
        <ele>160.0</ele>
        <time>2022-04-14T09:19:47Z</time>
      </trkpt>
      <trkpt lat="47.61168" lon="1.9572241">
        <ele>160.0</ele>
        <time>2022-04-14T09:19:48Z</time>
      </trkpt>
      <trkpt lat="47.611687" lon="1.9572403">
        <ele>160.0</ele>
        <time>2022-04-14T09:19:49Z</time>
      </trkpt>
      <trkpt lat="47.61169" lon="1.9572563">
        <ele>160.0</ele>
        <time>2022-04-14T09:19:50Z</time>
      </trkpt>
      <trkpt lat="47.611694" lon="1.9572685">
        <ele>160.0</ele>
        <time>2022-04-14T09:19:51Z</time>
      </trkpt>
      <trkpt lat="47.611694" lon="1.9572856">
        <ele>160.0</ele>
        <time>2022-04-14T09:19:52Z</time>
      </trkpt>
      <trkpt lat="47.6117" lon="1.9572996">
        <ele>160.0</ele>
        <time>2022-04-14T09:19:53Z</time>
      </trkpt>
      <trkpt lat="47.611702" lon="1.9573156">
        <ele>160.0</ele>
        <time>2022-04-14T09:19:54Z</time>
      </trkpt>
      <trkpt lat="47.61171" lon="1.9573351">
        <ele>160.0</ele>
        <time>2022-04-14T09:19:55Z</time>
      </trkpt>
      <trkpt lat="47.611713" lon="1.9573535">
        <ele>160.0</ele>
        <time>2022-04-14T09:19:56Z</time>
      </trkpt>
      <trkpt lat="47.611717" lon="1.9573733">
        <ele>160.0</ele>
        <time>2022-04-14T09:19:57Z</time>
      </trkpt>
      <trkpt lat="47.61172" lon="1.9573866">
        <ele>160.0</ele>
        <time>2022-04-14T09:19:58Z</time>
      </trkpt>
      <trkpt lat="47.61172" lon="1.9574">
        <ele>160.0</ele>
        <time>2022-04-14T09:19:59Z</time>
      </trkpt>
      <trkpt lat="47.611725" lon="1.9574133">
        <ele>161.0</ele>
        <time>2022-04-14T09:20:00Z</time>
      </trkpt>
      <trkpt lat="47.611732" lon="1.9574255">
        <ele>161.0</ele>
        <time>2022-04-14T09:20:01Z</time>
      </trkpt>
      <trkpt lat="47.611736" lon="1.957437">
        <ele>161.0</ele>
        <time>2022-04-14T09:20:02Z</time>
      </trkpt>
      <trkpt lat="47.61174" lon="1.9574534">
        <ele>162.0</ele>
        <time>2022-04-14T09:20:03Z</time>
      </trkpt>
      <trkpt lat="47.611744" lon="1.9574618">
        <ele>162.0</ele>
        <time>2022-04-14T09:20:04Z</time>
      </trkpt>
      <trkpt lat="47.61175" lon="1.9574708">
        <ele>162.0</ele>
        <time>2022-04-14T09:20:05Z</time>
      </trkpt>
      <trkpt lat="47.61176" lon="1.9574841">
        <ele>162.0</ele>
        <time>2022-04-14T09:20:06Z</time>
      </trkpt>
      <trkpt lat="47.611763" lon="1.9575032">
        <ele>162.0</ele>
        <time>2022-04-14T09:20:07Z</time>
      </trkpt>
      <trkpt lat="47.611767" lon="1.9575176">
        <ele>162.0</ele>
        <time>2022-04-14T09:20:08Z</time>
      </trkpt>
      <trkpt lat="47.611774" lon="1.95753">
        <ele>162.0</ele>
        <time>2022-04-14T09:20:09Z</time>
      </trkpt>
      <trkpt lat="47.611782" lon="1.9575423">
        <ele>163.0</ele>
        <time>2022-04-14T09:20:10Z</time>
      </trkpt>
      <trkpt lat="47.611794" lon="1.9575573">
        <ele>163.0</ele>
        <time>2022-04-14T09:20:11Z</time>
      </trkpt>
      <trkpt lat="47.6118" lon="1.9575694">
        <ele>163.0</ele>
        <time>2022-04-14T09:20:12Z</time>
      </trkpt>
      <trkpt lat="47.61181" lon="1.9575828">
        <ele>163.0</ele>
        <time>2022-04-14T09:20:13Z</time>
      </trkpt>
      <trkpt lat="47.61182" lon="1.9575927">
        <ele>163.0</ele>
        <time>2022-04-14T09:20:14Z</time>
      </trkpt>
      <trkpt lat="47.611828" lon="1.9576033">
        <ele>163.0</ele>
        <time>2022-04-14T09:20:15Z</time>
      </trkpt>
      <trkpt lat="47.61183" lon="1.9576155">
        <ele>163.0</ele>
        <time>2022-04-14T09:20:16Z</time>
      </trkpt>
      <trkpt lat="47.61184" lon="1.9576312">
        <ele>163.0</ele>
        <time>2022-04-14T09:20:17Z</time>
      </trkpt>
      <trkpt lat="47.611843" lon="1.9576509">
        <ele>163.0</ele>
        <time>2022-04-14T09:20:18Z</time>
      </trkpt>
      <trkpt lat="47.611847" lon="1.95767">
        <ele>162.0</ele>
        <time>2022-04-14T09:20:19Z</time>
      </trkpt>
      <trkpt lat="47.611847" lon="1.9576821">
        <ele>163.0</ele>
        <time>2022-04-14T09:20:20Z</time>
      </trkpt>
      <trkpt lat="47.61185" lon="1.9577006">
        <ele>163.0</ele>
        <time>2022-04-14T09:20:21Z</time>
      </trkpt>
      <trkpt lat="47.61185" lon="1.9577183">
        <ele>163.0</ele>
        <time>2022-04-14T09:20:22Z</time>
      </trkpt>
      <trkpt lat="47.61185" lon="1.9577396">
        <ele>163.0</ele>
        <time>2022-04-14T09:20:23Z</time>
      </trkpt>
      <trkpt lat="47.611847" lon="1.9577574">
        <ele>163.0</ele>
        <time>2022-04-14T09:20:24Z</time>
      </trkpt>
      <trkpt lat="47.611847" lon="1.9577764">
        <ele>162.0</ele>
        <time>2022-04-14T09:20:25Z</time>
      </trkpt>
      <trkpt lat="47.61185" lon="1.9577906">
        <ele>161.0</ele>
        <time>2022-04-14T09:20:26Z</time>
      </trkpt>
      <trkpt lat="47.611855" lon="1.9578035">
        <ele>161.0</ele>
        <time>2022-04-14T09:20:27Z</time>
      </trkpt>
      <trkpt lat="47.611862" lon="1.9578193">
        <ele>161.0</ele>
        <time>2022-04-14T09:20:28Z</time>
      </trkpt>
      <trkpt lat="47.611862" lon="1.9578309">
        <ele>161.0</ele>
        <time>2022-04-14T09:20:29Z</time>
      </trkpt>
      <trkpt lat="47.611874" lon="1.9578453">
        <ele>161.0</ele>
        <time>2022-04-14T09:20:30Z</time>
      </trkpt>
      <trkpt lat="47.61189" lon="1.9578598">
        <ele>162.0</ele>
        <time>2022-04-14T09:20:31Z</time>
      </trkpt>
      <trkpt lat="47.6119" lon="1.9578763">
        <ele>162.0</ele>
        <time>2022-04-14T09:20:32Z</time>
      </trkpt>
      <trkpt lat="47.61191" lon="1.9578905">
        <ele>161.0</ele>
        <time>2022-04-14T09:20:33Z</time>
      </trkpt>
      <trkpt lat="47.611923" lon="1.9579071">
        <ele>162.0</ele>
        <time>2022-04-14T09:20:34Z</time>
      </trkpt>
      <trkpt lat="47.61193" lon="1.9579225">
        <ele>162.0</ele>
        <time>2022-04-14T09:20:35Z</time>
      </trkpt>
      <trkpt lat="47.61194" lon="1.9579405">
        <ele>162.0</ele>
        <time>2022-04-14T09:20:36Z</time>
      </trkpt>
      <trkpt lat="47.611946" lon="1.9579544">
        <ele>163.0</ele>
        <time>2022-04-14T09:20:37Z</time>
      </trkpt>
      <trkpt lat="47.611954" lon="1.9579641">
        <ele>163.0</ele>
        <time>2022-04-14T09:20:38Z</time>
      </trkpt>
      <trkpt lat="47.61196" lon="1.9579792">
        <ele>163.0</ele>
        <time>2022-04-14T09:20:39Z</time>
      </trkpt>
      <trkpt lat="47.61197" lon="1.9579884">
        <ele>163.0</ele>
        <time>2022-04-14T09:20:40Z</time>
      </trkpt>
      <trkpt lat="47.611977" lon="1.9579996">
        <ele>163.0</ele>
        <time>2022-04-14T09:20:41Z</time>
      </trkpt>
      <trkpt lat="47.611984" lon="1.9580097">
        <ele>163.0</ele>
        <time>2022-04-14T09:20:42Z</time>
      </trkpt>
      <trkpt lat="47.61199" lon="1.9580227">
        <ele>164.0</ele>
        <time>2022-04-14T09:20:43Z</time>
      </trkpt>
      <trkpt lat="47.612" lon="1.9580381">
        <ele>164.0</ele>
        <time>2022-04-14T09:20:44Z</time>
      </trkpt>
      <trkpt lat="47.61201" lon="1.9580569">
        <ele>165.0</ele>
        <time>2022-04-14T09:20:45Z</time>
      </trkpt>
      <trkpt lat="47.61202" lon="1.9580752">
        <ele>164.0</ele>
        <time>2022-04-14T09:20:46Z</time>
      </trkpt>
      <trkpt lat="47.612022" lon="1.9580926">
        <ele>164.0</ele>
        <time>2022-04-14T09:20:47Z</time>
      </trkpt>
      <trkpt lat="47.612026" lon="1.9581075">
        <ele>164.0</ele>
        <time>2022-04-14T09:20:48Z</time>
      </trkpt>
      <trkpt lat="47.61203" lon="1.9581267">
        <ele>164.0</ele>
        <time>2022-04-14T09:20:49Z</time>
      </trkpt>
      <trkpt lat="47.612038" lon="1.9581431">
        <ele>163.0</ele>
        <time>2022-04-14T09:20:50Z</time>
      </trkpt>
      <trkpt lat="47.61204" lon="1.9581579">
        <ele>163.0</ele>
        <time>2022-04-14T09:20:51Z</time>
      </trkpt>
      <trkpt lat="47.61204" lon="1.9581735">
        <ele>162.0</ele>
        <time>2022-04-14T09:20:52Z</time>
      </trkpt>
      <trkpt lat="47.612045" lon="1.9581901">
        <ele>162.0</ele>
        <time>2022-04-14T09:20:53Z</time>
      </trkpt>
      <trkpt lat="47.61204" lon="1.9582084">
        <ele>161.0</ele>
        <time>2022-04-14T09:20:54Z</time>
      </trkpt>
      <trkpt lat="47.61204" lon="1.9582231">
        <ele>161.0</ele>
        <time>2022-04-14T09:20:55Z</time>
      </trkpt>
      <trkpt lat="47.61204" lon="1.9582403">
        <ele>161.0</ele>
        <time>2022-04-14T09:20:56Z</time>
      </trkpt>
      <trkpt lat="47.612045" lon="1.9582556">
        <ele>160.0</ele>
        <time>2022-04-14T09:20:57Z</time>
      </trkpt>
      <trkpt lat="47.612045" lon="1.9582705">
        <ele>160.0</ele>
        <time>2022-04-14T09:20:58Z</time>
      </trkpt>
      <trkpt lat="47.612053" lon="1.9582858">
        <ele>160.0</ele>
        <time>2022-04-14T09:20:59Z</time>
      </trkpt>
      <trkpt lat="47.612057" lon="1.9583055">
        <ele>160.0</ele>
        <time>2022-04-14T09:21:00Z</time>
      </trkpt>
      <trkpt lat="47.61206" lon="1.9583255">
        <ele>160.0</ele>
        <time>2022-04-14T09:21:01Z</time>
      </trkpt>
      <trkpt lat="47.61206" lon="1.9583393">
        <ele>160.0</ele>
        <time>2022-04-14T09:21:02Z</time>
      </trkpt>
      <trkpt lat="47.61206" lon="1.9583535">
        <ele>160.0</ele>
        <time>2022-04-14T09:21:03Z</time>
      </trkpt>
      <trkpt lat="47.612064" lon="1.9583671">
        <ele>159.0</ele>
        <time>2022-04-14T09:21:04Z</time>
      </trkpt>
      <trkpt lat="47.612064" lon="1.9583803">
        <ele>159.0</ele>
        <time>2022-04-14T09:21:05Z</time>
      </trkpt>
      <trkpt lat="47.612064" lon="1.9583976">
        <ele>158.0</ele>
        <time>2022-04-14T09:21:06Z</time>
      </trkpt>
      <trkpt lat="47.61207" lon="1.9584155">
        <ele>158.0</ele>
        <time>2022-04-14T09:21:07Z</time>
      </trkpt>
      <trkpt lat="47.612072" lon="1.9584272">
        <ele>158.0</ele>
        <time>2022-04-14T09:21:08Z</time>
      </trkpt>
      <trkpt lat="47.612072" lon="1.9584424">
        <ele>158.0</ele>
        <time>2022-04-14T09:21:09Z</time>
      </trkpt>
      <trkpt lat="47.612072" lon="1.9584522">
        <ele>158.0</ele>
        <time>2022-04-14T09:21:10Z</time>
      </trkpt>
      <trkpt lat="47.61207" lon="1.9584633">
        <ele>158.0</ele>
        <time>2022-04-14T09:21:11Z</time>
      </trkpt>
      <trkpt lat="47.612076" lon="1.9584771">
        <ele>157.0</ele>
        <time>2022-04-14T09:21:12Z</time>
      </trkpt>
      <trkpt lat="47.61208" lon="1.9584901">
        <ele>157.0</ele>
        <time>2022-04-14T09:21:13Z</time>
      </trkpt>
      <trkpt lat="47.612083" lon="1.9585031">
        <ele>157.0</ele>
        <time>2022-04-14T09:21:14Z</time>
      </trkpt>
      <trkpt lat="47.612087" lon="1.9585212">
        <ele>157.0</ele>
        <time>2022-04-14T09:21:15Z</time>
      </trkpt>
      <trkpt lat="47.61209" lon="1.9585367">
        <ele>158.0</ele>
        <time>2022-04-14T09:21:16Z</time>
      </trkpt>
      <trkpt lat="47.612095" lon="1.9585532">
        <ele>157.0</ele>
        <time>2022-04-14T09:21:17Z</time>
      </trkpt>
      <trkpt lat="47.612095" lon="1.9585694">
        <ele>157.0</ele>
        <time>2022-04-14T09:21:18Z</time>
      </trkpt>
      <trkpt lat="47.61209" lon="1.9585811">
        <ele>158.0</ele>
        <time>2022-04-14T09:21:19Z</time>
      </trkpt>
      <trkpt lat="47.61209" lon="1.9585962">
        <ele>158.0</ele>
        <time>2022-04-14T09:21:20Z</time>
      </trkpt>
      <trkpt lat="47.6121" lon="1.9586129">
        <ele>158.0</ele>
        <time>2022-04-14T09:21:21Z</time>
      </trkpt>
      <trkpt lat="47.6121" lon="1.9586129">
        <ele>158.0</ele>
        <time>2022-04-14T09:21:21Z</time>
      </trkpt>
      <trkpt lat="47.612103" lon="1.9586465">
        <ele>158.0</ele>
        <time>2022-04-14T09:21:23Z</time>
      </trkpt>
      <trkpt lat="47.612106" lon="1.9586673">
        <ele>159.0</ele>
        <time>2022-04-14T09:21:24Z</time>
      </trkpt>
      <trkpt lat="47.61211" lon="1.9586838">
        <ele>159.0</ele>
        <time>2022-04-14T09:21:25Z</time>
      </trkpt>
      <trkpt lat="47.612114" lon="1.9587016">
        <ele>160.0</ele>
        <time>2022-04-14T09:21:26Z</time>
      </trkpt>
      <trkpt lat="47.612114" lon="1.9587238">
        <ele>160.0</ele>
        <time>2022-04-14T09:21:27Z</time>
      </trkpt>
      <trkpt lat="47.612114" lon="1.9587437">
        <ele>160.0</ele>
        <time>2022-04-14T09:21:28Z</time>
      </trkpt>
      <trkpt lat="47.612114" lon="1.9587437">
        <ele>160.0</ele>
        <time>2022-04-14T09:21:28Z</time>
      </trkpt>
      <trkpt lat="47.612114" lon="1.9587858">
        <ele>160.0</ele>
        <time>2022-04-14T09:21:30Z</time>
      </trkpt>
      <trkpt lat="47.612114" lon="1.958806">
        <ele>160.0</ele>
        <time>2022-04-14T09:21:31Z</time>
      </trkpt>
      <trkpt lat="47.612118" lon="1.9588227">
        <ele>160.0</ele>
        <time>2022-04-14T09:21:32Z</time>
      </trkpt>
      <trkpt lat="47.612125" lon="1.9588448">
        <ele>160.0</ele>
        <time>2022-04-14T09:21:33Z</time>
      </trkpt>
      <trkpt lat="47.612133" lon="1.9588662">
        <ele>160.0</ele>
        <time>2022-04-14T09:21:34Z</time>
      </trkpt>
      <trkpt lat="47.61214" lon="1.9588895">
        <ele>160.0</ele>
        <time>2022-04-14T09:21:35Z</time>
      </trkpt>
      <trkpt lat="47.61215" lon="1.9589075">
        <ele>160.0</ele>
        <time>2022-04-14T09:21:36Z</time>
      </trkpt>
      <trkpt lat="47.61215" lon="1.9589229">
        <ele>160.0</ele>
        <time>2022-04-14T09:21:37Z</time>
      </trkpt>
      <trkpt lat="47.61215" lon="1.9589376">
        <ele>160.0</ele>
        <time>2022-04-14T09:21:38Z</time>
      </trkpt>
      <trkpt lat="47.61215" lon="1.9589541">
        <ele>160.0</ele>
        <time>2022-04-14T09:21:39Z</time>
      </trkpt>
      <trkpt lat="47.612144" lon="1.9589665">
        <ele>159.0</ele>
        <time>2022-04-14T09:21:40Z</time>
      </trkpt>
      <trkpt lat="47.612144" lon="1.9589789">
        <ele>159.0</ele>
        <time>2022-04-14T09:21:41Z</time>
      </trkpt>
      <trkpt lat="47.612144" lon="1.9589905">
        <ele>159.0</ele>
        <time>2022-04-14T09:21:42Z</time>
      </trkpt>
      <trkpt lat="47.612144" lon="1.9589987">
        <ele>159.0</ele>
        <time>2022-04-14T09:21:43Z</time>
      </trkpt>
      <trkpt lat="47.61215" lon="1.9590111">
        <ele>159.0</ele>
        <time>2022-04-14T09:21:44Z</time>
      </trkpt>
      <trkpt lat="47.61215" lon="1.9590111">
        <ele>159.0</ele>
        <time>2022-04-14T09:21:44Z</time>
      </trkpt>
      <trkpt lat="47.612152" lon="1.9590468">
        <ele>159.0</ele>
        <time>2022-04-14T09:21:46Z</time>
      </trkpt>
      <trkpt lat="47.612144" lon="1.9590687">
        <ele>159.0</ele>
        <time>2022-04-14T09:21:47Z</time>
      </trkpt>
      <trkpt lat="47.61214" lon="1.9590881">
        <ele>159.0</ele>
        <time>2022-04-14T09:21:48Z</time>
      </trkpt>
      <trkpt lat="47.612144" lon="1.959103">
        <ele>160.0</ele>
        <time>2022-04-14T09:21:49Z</time>
      </trkpt>
      <trkpt lat="47.612152" lon="1.959122">
        <ele>160.0</ele>
        <time>2022-04-14T09:21:50Z</time>
      </trkpt>
      <trkpt lat="47.61216" lon="1.9591435">
        <ele>160.0</ele>
        <time>2022-04-14T09:21:51Z</time>
      </trkpt>
      <trkpt lat="47.612164" lon="1.9591626">
        <ele>161.0</ele>
        <time>2022-04-14T09:21:52Z</time>
      </trkpt>
      <trkpt lat="47.61217" lon="1.9591765">
        <ele>161.0</ele>
        <time>2022-04-14T09:21:53Z</time>
      </trkpt>
      <trkpt lat="47.61217" lon="1.9591937">
        <ele>162.0</ele>
        <time>2022-04-14T09:21:54Z</time>
      </trkpt>
      <trkpt lat="47.612175" lon="1.9592078">
        <ele>162.0</ele>
        <time>2022-04-14T09:21:55Z</time>
      </trkpt>
      <trkpt lat="47.61218" lon="1.9592205">
        <ele>162.0</ele>
        <time>2022-04-14T09:21:56Z</time>
      </trkpt>
      <trkpt lat="47.61218" lon="1.9592351">
        <ele>162.0</ele>
        <time>2022-04-14T09:21:57Z</time>
      </trkpt>
      <trkpt lat="47.612186" lon="1.9592494">
        <ele>162.0</ele>
        <time>2022-04-14T09:21:58Z</time>
      </trkpt>
      <trkpt lat="47.61219" lon="1.9592612">
        <ele>162.0</ele>
        <time>2022-04-14T09:21:59Z</time>
      </trkpt>
      <trkpt lat="47.612198" lon="1.9592754">
        <ele>162.0</ele>
        <time>2022-04-14T09:22:00Z</time>
      </trkpt>
      <trkpt lat="47.61221" lon="1.9592973">
        <ele>161.0</ele>
        <time>2022-04-14T09:22:01Z</time>
      </trkpt>
      <trkpt lat="47.612217" lon="1.959318">
        <ele>161.0</ele>
        <time>2022-04-14T09:22:02Z</time>
      </trkpt>
      <trkpt lat="47.612225" lon="1.9593356">
        <ele>161.0</ele>
        <time>2022-04-14T09:22:03Z</time>
      </trkpt>
      <trkpt lat="47.61223" lon="1.9593496">
        <ele>161.0</ele>
        <time>2022-04-14T09:22:04Z</time>
      </trkpt>
      <trkpt lat="47.612232" lon="1.9593637">
        <ele>162.0</ele>
        <time>2022-04-14T09:22:05Z</time>
      </trkpt>
      <trkpt lat="47.612232" lon="1.959377">
        <ele>162.0</ele>
        <time>2022-04-14T09:22:06Z</time>
      </trkpt>
      <trkpt lat="47.612232" lon="1.9593982">
        <ele>162.0</ele>
        <time>2022-04-14T09:22:07Z</time>
      </trkpt>
      <trkpt lat="47.612236" lon="1.9594167">
        <ele>162.0</ele>
        <time>2022-04-14T09:22:08Z</time>
      </trkpt>
      <trkpt lat="47.61224" lon="1.9594373">
        <ele>161.0</ele>
        <time>2022-04-14T09:22:09Z</time>
      </trkpt>
      <trkpt lat="47.612244" lon="1.9594529">
        <ele>161.0</ele>
        <time>2022-04-14T09:22:10Z</time>
      </trkpt>
      <trkpt lat="47.612247" lon="1.9594712">
        <ele>161.0</ele>
        <time>2022-04-14T09:22:11Z</time>
      </trkpt>
      <trkpt lat="47.61225" lon="1.959487">
        <ele>161.0</ele>
        <time>2022-04-14T09:22:12Z</time>
      </trkpt>
      <trkpt lat="47.61225" lon="1.9595015">
        <ele>161.0</ele>
        <time>2022-04-14T09:22:13Z</time>
      </trkpt>
      <trkpt lat="47.61225" lon="1.9595187">
        <ele>161.0</ele>
        <time>2022-04-14T09:22:14Z</time>
      </trkpt>
      <trkpt lat="47.612255" lon="1.959541">
        <ele>160.0</ele>
        <time>2022-04-14T09:22:15Z</time>
      </trkpt>
      <trkpt lat="47.61225" lon="1.9595586">
        <ele>160.0</ele>
        <time>2022-04-14T09:22:16Z</time>
      </trkpt>
      <trkpt lat="47.61226" lon="1.9595796">
        <ele>160.0</ele>
        <time>2022-04-14T09:22:17Z</time>
      </trkpt>
      <trkpt lat="47.612267" lon="1.9595983">
        <ele>160.0</ele>
        <time>2022-04-14T09:22:18Z</time>
      </trkpt>
      <trkpt lat="47.61227" lon="1.9596144">
        <ele>161.0</ele>
        <time>2022-04-14T09:22:19Z</time>
      </trkpt>
      <trkpt lat="47.61227" lon="1.9596317">
        <ele>161.0</ele>
        <time>2022-04-14T09:22:20Z</time>
      </trkpt>
      <trkpt lat="47.612274" lon="1.9596474">
        <ele>161.0</ele>
        <time>2022-04-14T09:22:21Z</time>
      </trkpt>
      <trkpt lat="47.612274" lon="1.9596639">
        <ele>161.0</ele>
        <time>2022-04-14T09:22:22Z</time>
      </trkpt>
      <trkpt lat="47.612274" lon="1.9596814">
        <ele>161.0</ele>
        <time>2022-04-14T09:22:23Z</time>
      </trkpt>
      <trkpt lat="47.612274" lon="1.9597017">
        <ele>161.0</ele>
        <time>2022-04-14T09:22:24Z</time>
      </trkpt>
      <trkpt lat="47.61227" lon="1.9597203">
        <ele>161.0</ele>
        <time>2022-04-14T09:22:25Z</time>
      </trkpt>
      <trkpt lat="47.612267" lon="1.9597387">
        <ele>162.0</ele>
        <time>2022-04-14T09:22:26Z</time>
      </trkpt>
      <trkpt lat="47.612267" lon="1.9597528">
        <ele>162.0</ele>
        <time>2022-04-14T09:22:27Z</time>
      </trkpt>
      <trkpt lat="47.612267" lon="1.9597661">
        <ele>162.0</ele>
        <time>2022-04-14T09:22:28Z</time>
      </trkpt>
      <trkpt lat="47.612267" lon="1.9597795">
        <ele>162.0</ele>
        <time>2022-04-14T09:22:29Z</time>
      </trkpt>
      <trkpt lat="47.61227" lon="1.9597952">
        <ele>163.0</ele>
        <time>2022-04-14T09:22:30Z</time>
      </trkpt>
      <trkpt lat="47.612267" lon="1.9598095">
        <ele>162.0</ele>
        <time>2022-04-14T09:22:31Z</time>
      </trkpt>
      <trkpt lat="47.612267" lon="1.9598333">
        <ele>162.0</ele>
        <time>2022-04-14T09:22:32Z</time>
      </trkpt>
      <trkpt lat="47.612267" lon="1.9598532">
        <ele>162.0</ele>
        <time>2022-04-14T09:22:33Z</time>
      </trkpt>
      <trkpt lat="47.612267" lon="1.9598769">
        <ele>162.0</ele>
        <time>2022-04-14T09:22:34Z</time>
      </trkpt>
      <trkpt lat="47.612263" lon="1.9598987">
        <ele>162.0</ele>
        <time>2022-04-14T09:22:35Z</time>
      </trkpt>
      <trkpt lat="47.612263" lon="1.9599134">
        <ele>162.0</ele>
        <time>2022-04-14T09:22:36Z</time>
      </trkpt>
      <trkpt lat="47.612263" lon="1.9599288">
        <ele>162.0</ele>
        <time>2022-04-14T09:22:37Z</time>
      </trkpt>
      <trkpt lat="47.612263" lon="1.9599463">
        <ele>163.0</ele>
        <time>2022-04-14T09:22:38Z</time>
      </trkpt>
      <trkpt lat="47.612263" lon="1.9599597">
        <ele>163.0</ele>
        <time>2022-04-14T09:22:39Z</time>
      </trkpt>
      <trkpt lat="47.612263" lon="1.9599769">
        <ele>163.0</ele>
        <time>2022-04-14T09:22:40Z</time>
      </trkpt>
      <trkpt lat="47.61226" lon="1.9599925">
        <ele>163.0</ele>
        <time>2022-04-14T09:22:41Z</time>
      </trkpt>
      <trkpt lat="47.612255" lon="1.9600095">
        <ele>163.0</ele>
        <time>2022-04-14T09:22:42Z</time>
      </trkpt>
      <trkpt lat="47.61225" lon="1.9600368">
        <ele>163.0</ele>
        <time>2022-04-14T09:22:43Z</time>
      </trkpt>
      <trkpt lat="47.612247" lon="1.9600551">
        <ele>163.0</ele>
        <time>2022-04-14T09:22:44Z</time>
      </trkpt>
      <trkpt lat="47.612247" lon="1.9600751">
        <ele>162.0</ele>
        <time>2022-04-14T09:22:45Z</time>
      </trkpt>
      <trkpt lat="47.612255" lon="1.9600904">
        <ele>163.0</ele>
        <time>2022-04-14T09:22:46Z</time>
      </trkpt>
      <trkpt lat="47.61226" lon="1.9601102">
        <ele>164.0</ele>
        <time>2022-04-14T09:22:47Z</time>
      </trkpt>
      <trkpt lat="47.61226" lon="1.9601247">
        <ele>164.0</ele>
        <time>2022-04-14T09:22:48Z</time>
      </trkpt>
      <trkpt lat="47.612263" lon="1.9601384">
        <ele>164.0</ele>
        <time>2022-04-14T09:22:49Z</time>
      </trkpt>
      <trkpt lat="47.612263" lon="1.9601513">
        <ele>165.0</ele>
        <time>2022-04-14T09:22:50Z</time>
      </trkpt>
      <trkpt lat="47.612263" lon="1.9601669">
        <ele>165.0</ele>
        <time>2022-04-14T09:22:51Z</time>
      </trkpt>
      <trkpt lat="47.612263" lon="1.9601792">
        <ele>165.0</ele>
        <time>2022-04-14T09:22:52Z</time>
      </trkpt>
      <trkpt lat="47.61226" lon="1.9601902">
        <ele>165.0</ele>
        <time>2022-04-14T09:22:53Z</time>
      </trkpt>
      <trkpt lat="47.61226" lon="1.9601998">
        <ele>166.0</ele>
        <time>2022-04-14T09:22:54Z</time>
      </trkpt>
      <trkpt lat="47.61226" lon="1.9602094">
        <ele>165.0</ele>
        <time>2022-04-14T09:22:55Z</time>
      </trkpt>
      <trkpt lat="47.612263" lon="1.9602175">
        <ele>165.0</ele>
        <time>2022-04-14T09:22:56Z</time>
      </trkpt>
      <trkpt lat="47.612263" lon="1.9602234">
        <ele>166.0</ele>
        <time>2022-04-14T09:22:57Z</time>
      </trkpt>
      <trkpt lat="47.612267" lon="1.9602357">
        <ele>166.0</ele>
        <time>2022-04-14T09:22:58Z</time>
      </trkpt>
      <trkpt lat="47.61227" lon="1.9602554">
        <ele>166.0</ele>
        <time>2022-04-14T09:22:59Z</time>
      </trkpt>
      <trkpt lat="47.61227" lon="1.9602742">
        <ele>166.0</ele>
        <time>2022-04-14T09:23:00Z</time>
      </trkpt>
      <trkpt lat="47.612278" lon="1.9602882">
        <ele>166.0</ele>
        <time>2022-04-14T09:23:01Z</time>
      </trkpt>
      <trkpt lat="47.61228" lon="1.9603102">
        <ele>165.0</ele>
        <time>2022-04-14T09:23:02Z</time>
      </trkpt>
      <trkpt lat="47.612286" lon="1.960331">
        <ele>165.0</ele>
        <time>2022-04-14T09:23:03Z</time>
      </trkpt>
      <trkpt lat="47.612286" lon="1.9603479">
        <ele>165.0</ele>
        <time>2022-04-14T09:23:04Z</time>
      </trkpt>
      <trkpt lat="47.61229" lon="1.9603642">
        <ele>165.0</ele>
        <time>2022-04-14T09:23:05Z</time>
      </trkpt>
      <trkpt lat="47.61229" lon="1.9603788">
        <ele>165.0</ele>
        <time>2022-04-14T09:23:06Z</time>
      </trkpt>
      <trkpt lat="47.612286" lon="1.9603945">
        <ele>165.0</ele>
        <time>2022-04-14T09:23:07Z</time>
      </trkpt>
      <trkpt lat="47.612286" lon="1.9604092">
        <ele>165.0</ele>
        <time>2022-04-14T09:23:08Z</time>
      </trkpt>
      <trkpt lat="47.61228" lon="1.9604245">
        <ele>165.0</ele>
        <time>2022-04-14T09:23:09Z</time>
      </trkpt>
      <trkpt lat="47.612278" lon="1.960442">
        <ele>164.0</ele>
        <time>2022-04-14T09:23:10Z</time>
      </trkpt>
      <trkpt lat="47.612274" lon="1.9604645">
        <ele>164.0</ele>
        <time>2022-04-14T09:23:11Z</time>
      </trkpt>
      <trkpt lat="47.612274" lon="1.9604839">
        <ele>164.0</ele>
        <time>2022-04-14T09:23:12Z</time>
      </trkpt>
      <trkpt lat="47.61227" lon="1.9605026">
        <ele>163.0</ele>
        <time>2022-04-14T09:23:13Z</time>
      </trkpt>
      <trkpt lat="47.612267" lon="1.9605213">
        <ele>163.0</ele>
        <time>2022-04-14T09:23:14Z</time>
      </trkpt>
      <trkpt lat="47.612263" lon="1.9605379">
        <ele>163.0</ele>
        <time>2022-04-14T09:23:15Z</time>
      </trkpt>
      <trkpt lat="47.61226" lon="1.9605551">
        <ele>163.0</ele>
        <time>2022-04-14T09:23:16Z</time>
      </trkpt>
      <trkpt lat="47.61226" lon="1.9605688">
        <ele>163.0</ele>
        <time>2022-04-14T09:23:17Z</time>
      </trkpt>
      <trkpt lat="47.61226" lon="1.9605837">
        <ele>163.0</ele>
        <time>2022-04-14T09:23:18Z</time>
      </trkpt>
      <trkpt lat="47.61226" lon="1.960602">
        <ele>163.0</ele>
        <time>2022-04-14T09:23:19Z</time>
      </trkpt>
      <trkpt lat="47.61226" lon="1.9606197">
        <ele>163.0</ele>
        <time>2022-04-14T09:23:20Z</time>
      </trkpt>
      <trkpt lat="47.612255" lon="1.9606396">
        <ele>163.0</ele>
        <time>2022-04-14T09:23:22Z</time>
      </trkpt>
      <trkpt lat="47.612255" lon="1.9606524">
        <ele>163.0</ele>
        <time>2022-04-14T09:23:23Z</time>
      </trkpt>
      <trkpt lat="47.61226" lon="1.9606715">
        <ele>163.0</ele>
        <time>2022-04-14T09:23:24Z</time>
      </trkpt>
      <trkpt lat="47.612263" lon="1.9606925">
        <ele>163.0</ele>
        <time>2022-04-14T09:23:25Z</time>
      </trkpt>
      <trkpt lat="47.612267" lon="1.960714">
        <ele>163.0</ele>
        <time>2022-04-14T09:23:26Z</time>
      </trkpt>
      <trkpt lat="47.612267" lon="1.960714">
        <ele>163.0</ele>
        <time>2022-04-14T09:23:26Z</time>
      </trkpt>
      <trkpt lat="47.612267" lon="1.9607546">
        <ele>163.0</ele>
        <time>2022-04-14T09:23:28Z</time>
      </trkpt>
      <trkpt lat="47.612263" lon="1.960775">
        <ele>163.0</ele>
        <time>2022-04-14T09:23:29Z</time>
      </trkpt>
      <trkpt lat="47.612255" lon="1.9607958">
        <ele>163.0</ele>
        <time>2022-04-14T09:23:30Z</time>
      </trkpt>
      <trkpt lat="47.612255" lon="1.9608165">
        <ele>163.0</ele>
        <time>2022-04-14T09:23:31Z</time>
      </trkpt>
      <trkpt lat="47.61225" lon="1.960836">
        <ele>162.0</ele>
        <time>2022-04-14T09:23:32Z</time>
      </trkpt>
      <trkpt lat="47.612247" lon="1.9608554">
        <ele>162.0</ele>
        <time>2022-04-14T09:23:33Z</time>
      </trkpt>
      <trkpt lat="47.612247" lon="1.9608703">
        <ele>162.0</ele>
        <time>2022-04-14T09:23:34Z</time>
      </trkpt>
      <trkpt lat="47.612247" lon="1.9608848">
        <ele>163.0</ele>
        <time>2022-04-14T09:23:35Z</time>
      </trkpt>
      <trkpt lat="47.612247" lon="1.9609032">
        <ele>163.0</ele>
        <time>2022-04-14T09:23:36Z</time>
      </trkpt>
      <trkpt lat="47.612247" lon="1.9609032">
        <ele>163.0</ele>
        <time>2022-04-14T09:23:36Z</time>
      </trkpt>
      <trkpt lat="47.612247" lon="1.9609196">
        <ele>163.0</ele>
        <time>2022-04-14T09:23:37Z</time>
      </trkpt>
      <trkpt lat="47.61225" lon="1.960935">
        <ele>164.0</ele>
        <time>2022-04-14T09:23:38Z</time>
      </trkpt>
      <trkpt lat="47.61225" lon="1.9609485">
        <ele>164.0</ele>
        <time>2022-04-14T09:23:39Z</time>
      </trkpt>
      <trkpt lat="47.61225" lon="1.9609656">
        <ele>164.0</ele>
        <time>2022-04-14T09:23:40Z</time>
      </trkpt>
      <trkpt lat="47.612255" lon="1.9609869">
        <ele>164.0</ele>
        <time>2022-04-14T09:23:41Z</time>
      </trkpt>
      <trkpt lat="47.61226" lon="1.961006">
        <ele>164.0</ele>
        <time>2022-04-14T09:23:42Z</time>
      </trkpt>
      <trkpt lat="47.61226" lon="1.9610221">
        <ele>165.0</ele>
        <time>2022-04-14T09:23:43Z</time>
      </trkpt>
      <trkpt lat="47.612263" lon="1.9610436">
        <ele>165.0</ele>
        <time>2022-04-14T09:23:44Z</time>
      </trkpt>
      <trkpt lat="47.61226" lon="1.9610646">
        <ele>165.0</ele>
        <time>2022-04-14T09:23:45Z</time>
      </trkpt>
      <trkpt lat="47.612255" lon="1.9610887">
        <ele>165.0</ele>
        <time>2022-04-14T09:23:46Z</time>
      </trkpt>
      <trkpt lat="47.61225" lon="1.9611119">
        <ele>165.0</ele>
        <time>2022-04-14T09:23:47Z</time>
      </trkpt>
      <trkpt lat="47.612247" lon="1.9611516">
        <ele>165.0</ele>
        <time>2022-04-14T09:23:49Z</time>
      </trkpt>
      <trkpt lat="47.612247" lon="1.9611516">
        <ele>165.0</ele>
        <time>2022-04-14T09:23:49Z</time>
      </trkpt>
      <trkpt lat="47.612247" lon="1.9611721">
        <ele>165.0</ele>
        <time>2022-04-14T09:23:50Z</time>
      </trkpt>
      <trkpt lat="47.612247" lon="1.9611884">
        <ele>165.0</ele>
        <time>2022-04-14T09:23:51Z</time>
      </trkpt>
      <trkpt lat="47.612247" lon="1.9612033">
        <ele>165.0</ele>
        <time>2022-04-14T09:23:52Z</time>
      </trkpt>
      <trkpt lat="47.612244" lon="1.9612204">
        <ele>165.0</ele>
        <time>2022-04-14T09:23:53Z</time>
      </trkpt>
      <trkpt lat="47.612244" lon="1.9612387">
        <ele>165.0</ele>
        <time>2022-04-14T09:23:54Z</time>
      </trkpt>
      <trkpt lat="47.61224" lon="1.9612534">
        <ele>165.0</ele>
        <time>2022-04-14T09:23:55Z</time>
      </trkpt>
      <trkpt lat="47.61224" lon="1.9612693">
        <ele>165.0</ele>
        <time>2022-04-14T09:23:56Z</time>
      </trkpt>
      <trkpt lat="47.612236" lon="1.9612843">
        <ele>165.0</ele>
        <time>2022-04-14T09:23:57Z</time>
      </trkpt>
      <trkpt lat="47.612236" lon="1.9613026">
        <ele>165.0</ele>
        <time>2022-04-14T09:23:58Z</time>
      </trkpt>
      <trkpt lat="47.612236" lon="1.96132">
        <ele>166.0</ele>
        <time>2022-04-14T09:23:59Z</time>
      </trkpt>
      <trkpt lat="47.612232" lon="1.9613382">
        <ele>165.0</ele>
        <time>2022-04-14T09:24:00Z</time>
      </trkpt>
      <trkpt lat="47.61223" lon="1.9613515">
        <ele>165.0</ele>
        <time>2022-04-14T09:24:01Z</time>
      </trkpt>
      <trkpt lat="47.612225" lon="1.9613663">
        <ele>164.0</ele>
        <time>2022-04-14T09:24:02Z</time>
      </trkpt>
      <trkpt lat="47.61222" lon="1.9613822">
        <ele>164.0</ele>
        <time>2022-04-14T09:24:03Z</time>
      </trkpt>
      <trkpt lat="47.612217" lon="1.9613985">
        <ele>165.0</ele>
        <time>2022-04-14T09:24:04Z</time>
      </trkpt>
      <trkpt lat="47.61221" lon="1.9614123">
        <ele>164.0</ele>
        <time>2022-04-14T09:24:05Z</time>
      </trkpt>
      <trkpt lat="47.612206" lon="1.9614273">
        <ele>164.0</ele>
        <time>2022-04-14T09:24:06Z</time>
      </trkpt>
      <trkpt lat="47.612206" lon="1.9614459">
        <ele>164.0</ele>
        <time>2022-04-14T09:24:07Z</time>
      </trkpt>
      <trkpt lat="47.612206" lon="1.9614656">
        <ele>164.0</ele>
        <time>2022-04-14T09:24:08Z</time>
      </trkpt>
      <trkpt lat="47.6122" lon="1.9614829">
        <ele>164.0</ele>
        <time>2022-04-14T09:24:09Z</time>
      </trkpt>
      <trkpt lat="47.6122" lon="1.9614974">
        <ele>165.0</ele>
        <time>2022-04-14T09:24:10Z</time>
      </trkpt>
      <trkpt lat="47.6122" lon="1.9615203">
        <ele>165.0</ele>
        <time>2022-04-14T09:24:11Z</time>
      </trkpt>
      <trkpt lat="47.612198" lon="1.9615387">
        <ele>164.0</ele>
        <time>2022-04-14T09:24:12Z</time>
      </trkpt>
      <trkpt lat="47.612194" lon="1.9615592">
        <ele>164.0</ele>
        <time>2022-04-14T09:24:13Z</time>
      </trkpt>
      <trkpt lat="47.61219" lon="1.9615799">
        <ele>164.0</ele>
        <time>2022-04-14T09:24:14Z</time>
      </trkpt>
      <trkpt lat="47.61219" lon="1.9616135">
        <ele>164.0</ele>
        <time>2022-04-14T09:24:16Z</time>
      </trkpt>
      <trkpt lat="47.61219" lon="1.9616135">
        <ele>164.0</ele>
        <time>2022-04-14T09:24:16Z</time>
      </trkpt>
      <trkpt lat="47.612186" lon="1.9616303">
        <ele>164.0</ele>
        <time>2022-04-14T09:24:17Z</time>
      </trkpt>
      <trkpt lat="47.612183" lon="1.9616467">
        <ele>163.0</ele>
        <time>2022-04-14T09:24:18Z</time>
      </trkpt>
      <trkpt lat="47.61218" lon="1.961664">
        <ele>163.0</ele>
        <time>2022-04-14T09:24:19Z</time>
      </trkpt>
      <trkpt lat="47.61218" lon="1.9616817">
        <ele>164.0</ele>
        <time>2022-04-14T09:24:20Z</time>
      </trkpt>
      <trkpt lat="47.612183" lon="1.9617012">
        <ele>163.0</ele>
        <time>2022-04-14T09:24:21Z</time>
      </trkpt>
      <trkpt lat="47.612183" lon="1.9617207">
        <ele>164.0</ele>
        <time>2022-04-14T09:24:22Z</time>
      </trkpt>
      <trkpt lat="47.612186" lon="1.9617337">
        <ele>164.0</ele>
        <time>2022-04-14T09:24:23Z</time>
      </trkpt>
      <trkpt lat="47.612186" lon="1.9617534">
        <ele>163.0</ele>
        <time>2022-04-14T09:24:24Z</time>
      </trkpt>
      <trkpt lat="47.612186" lon="1.9617717">
        <ele>164.0</ele>
        <time>2022-04-14T09:24:25Z</time>
      </trkpt>
      <trkpt lat="47.612183" lon="1.9617908">
        <ele>163.0</ele>
        <time>2022-04-14T09:24:26Z</time>
      </trkpt>
      <trkpt lat="47.612186" lon="1.9618043">
        <ele>163.0</ele>
        <time>2022-04-14T09:24:27Z</time>
      </trkpt>
      <trkpt lat="47.612186" lon="1.9618136">
        <ele>164.0</ele>
        <time>2022-04-14T09:24:28Z</time>
      </trkpt>
      <trkpt lat="47.61217" lon="1.9618344">
        <ele>164.0</ele>
        <time>2022-04-14T09:24:30Z</time>
      </trkpt>
      <trkpt lat="47.61217" lon="1.9618344">
        <ele>164.0</ele>
        <time>2022-04-14T09:24:30Z</time>
      </trkpt>
      <trkpt lat="47.61217" lon="1.9618438">
        <ele>164.0</ele>
        <time>2022-04-14T09:24:31Z</time>
      </trkpt>
      <trkpt lat="47.612167" lon="1.9618587">
        <ele>164.0</ele>
        <time>2022-04-14T09:24:32Z</time>
      </trkpt>
      <trkpt lat="47.612167" lon="1.9618948">
        <ele>164.0</ele>
        <time>2022-04-14T09:24:34Z</time>
      </trkpt>
      <trkpt lat="47.612167" lon="1.9618948">
        <ele>164.0</ele>
        <time>2022-04-14T09:24:34Z</time>
      </trkpt>
      <trkpt lat="47.612164" lon="1.961905">
        <ele>165.0</ele>
        <time>2022-04-14T09:24:35Z</time>
      </trkpt>
      <trkpt lat="47.612164" lon="1.9619353">
        <ele>165.0</ele>
        <time>2022-04-14T09:24:37Z</time>
      </trkpt>
      <trkpt lat="47.612164" lon="1.9619353">
        <ele>165.0</ele>
        <time>2022-04-14T09:24:37Z</time>
      </trkpt>
      <trkpt lat="47.612167" lon="1.9619572">
        <ele>165.0</ele>
        <time>2022-04-14T09:24:38Z</time>
      </trkpt>
      <trkpt lat="47.612167" lon="1.9619731">
        <ele>165.0</ele>
        <time>2022-04-14T09:24:39Z</time>
      </trkpt>
      <trkpt lat="47.612167" lon="1.9619879">
        <ele>165.0</ele>
        <time>2022-04-14T09:24:40Z</time>
      </trkpt>
      <trkpt lat="47.612167" lon="1.9620061">
        <ele>164.0</ele>
        <time>2022-04-14T09:24:41Z</time>
      </trkpt>
      <trkpt lat="47.612156" lon="1.9620279">
        <ele>164.0</ele>
        <time>2022-04-14T09:24:42Z</time>
      </trkpt>
      <trkpt lat="47.612156" lon="1.9620498">
        <ele>164.0</ele>
        <time>2022-04-14T09:24:43Z</time>
      </trkpt>
      <trkpt lat="47.612156" lon="1.9620738">
        <ele>164.0</ele>
        <time>2022-04-14T09:24:44Z</time>
      </trkpt>
      <trkpt lat="47.612152" lon="1.9620942">
        <ele>164.0</ele>
        <time>2022-04-14T09:24:45Z</time>
      </trkpt>
      <trkpt lat="47.612152" lon="1.9621131">
        <ele>164.0</ele>
        <time>2022-04-14T09:24:46Z</time>
      </trkpt>
      <trkpt lat="47.612156" lon="1.9621332">
        <ele>164.0</ele>
        <time>2022-04-14T09:24:47Z</time>
      </trkpt>
      <trkpt lat="47.612152" lon="1.962149">
        <ele>164.0</ele>
        <time>2022-04-14T09:24:48Z</time>
      </trkpt>
      <trkpt lat="47.612152" lon="1.9621623">
        <ele>165.0</ele>
        <time>2022-04-14T09:24:49Z</time>
      </trkpt>
      <trkpt lat="47.612156" lon="1.962176">
        <ele>164.0</ele>
        <time>2022-04-14T09:24:50Z</time>
      </trkpt>
      <trkpt lat="47.612152" lon="1.9621899">
        <ele>163.0</ele>
        <time>2022-04-14T09:24:51Z</time>
      </trkpt>
      <trkpt lat="47.61214" lon="1.9622035">
        <ele>163.0</ele>
        <time>2022-04-14T09:24:53Z</time>
      </trkpt>
      <trkpt lat="47.61214" lon="1.9622035">
        <ele>163.0</ele>
        <time>2022-04-14T09:24:53Z</time>
      </trkpt>
      <trkpt lat="47.61213" lon="1.9622178">
        <ele>164.0</ele>
        <time>2022-04-14T09:24:54Z</time>
      </trkpt>
      <trkpt lat="47.612125" lon="1.962239">
        <ele>164.0</ele>
        <time>2022-04-14T09:24:55Z</time>
      </trkpt>
      <trkpt lat="47.612118" lon="1.9622558">
        <ele>164.0</ele>
        <time>2022-04-14T09:24:56Z</time>
      </trkpt>
      <trkpt lat="47.612118" lon="1.9622782">
        <ele>163.0</ele>
        <time>2022-04-14T09:24:57Z</time>
      </trkpt>
      <trkpt lat="47.612118" lon="1.9623002">
        <ele>164.0</ele>
        <time>2022-04-14T09:24:58Z</time>
      </trkpt>
      <trkpt lat="47.612114" lon="1.9623181">
        <ele>164.0</ele>
        <time>2022-04-14T09:24:59Z</time>
      </trkpt>
      <trkpt lat="47.61211" lon="1.9623325">
        <ele>165.0</ele>
        <time>2022-04-14T09:25:00Z</time>
      </trkpt>
      <trkpt lat="47.612106" lon="1.9623446">
        <ele>165.0</ele>
        <time>2022-04-14T09:25:01Z</time>
      </trkpt>
      <trkpt lat="47.61211" lon="1.9623644">
        <ele>165.0</ele>
        <time>2022-04-14T09:25:02Z</time>
      </trkpt>
      <trkpt lat="47.61211" lon="1.9623759">
        <ele>165.0</ele>
        <time>2022-04-14T09:25:03Z</time>
      </trkpt>
      <trkpt lat="47.612114" lon="1.9623842">
        <ele>165.0</ele>
        <time>2022-04-14T09:25:04Z</time>
      </trkpt>
      <trkpt lat="47.61211" lon="1.9623991">
        <ele>164.0</ele>
        <time>2022-04-14T09:25:05Z</time>
      </trkpt>
      <trkpt lat="47.61211" lon="1.9624169">
        <ele>164.0</ele>
        <time>2022-04-14T09:25:06Z</time>
      </trkpt>
      <trkpt lat="47.61211" lon="1.9624333">
        <ele>164.0</ele>
        <time>2022-04-14T09:25:07Z</time>
      </trkpt>
      <trkpt lat="47.61211" lon="1.9624504">
        <ele>164.0</ele>
        <time>2022-04-14T09:25:08Z</time>
      </trkpt>
      <trkpt lat="47.612103" lon="1.9624685">
        <ele>164.0</ele>
        <time>2022-04-14T09:25:09Z</time>
      </trkpt>
      <trkpt lat="47.6121" lon="1.9624902">
        <ele>164.0</ele>
        <time>2022-04-14T09:25:10Z</time>
      </trkpt>
      <trkpt lat="47.612103" lon="1.9625299">
        <ele>164.0</ele>
        <time>2022-04-14T09:25:12Z</time>
      </trkpt>
      <trkpt lat="47.612103" lon="1.9625299">
        <ele>164.0</ele>
        <time>2022-04-14T09:25:12Z</time>
      </trkpt>
      <trkpt lat="47.612106" lon="1.9625406">
        <ele>163.0</ele>
        <time>2022-04-14T09:25:13Z</time>
      </trkpt>
      <trkpt lat="47.612103" lon="1.9625522">
        <ele>164.0</ele>
        <time>2022-04-14T09:25:14Z</time>
      </trkpt>
      <trkpt lat="47.612103" lon="1.9625661">
        <ele>164.0</ele>
        <time>2022-04-14T09:25:15Z</time>
      </trkpt>
      <trkpt lat="47.612106" lon="1.9625846">
        <ele>164.0</ele>
        <time>2022-04-14T09:25:16Z</time>
      </trkpt>
      <trkpt lat="47.61211" lon="1.9626036">
        <ele>164.0</ele>
        <time>2022-04-14T09:25:17Z</time>
      </trkpt>
      <trkpt lat="47.61211" lon="1.9626235">
        <ele>164.0</ele>
        <time>2022-04-14T09:25:18Z</time>
      </trkpt>
      <trkpt lat="47.61211" lon="1.962637">
        <ele>164.0</ele>
        <time>2022-04-14T09:25:19Z</time>
      </trkpt>
      <trkpt lat="47.61211" lon="1.9626487">
        <ele>164.0</ele>
        <time>2022-04-14T09:25:20Z</time>
      </trkpt>
      <trkpt lat="47.61211" lon="1.9626606">
        <ele>165.0</ele>
        <time>2022-04-14T09:25:21Z</time>
      </trkpt>
      <trkpt lat="47.612106" lon="1.9626671">
        <ele>165.0</ele>
        <time>2022-04-14T09:25:22Z</time>
      </trkpt>
      <trkpt lat="47.612103" lon="1.9626822">
        <ele>165.0</ele>
        <time>2022-04-14T09:25:23Z</time>
      </trkpt>
      <trkpt lat="47.612103" lon="1.9627014">
        <ele>165.0</ele>
        <time>2022-04-14T09:25:24Z</time>
      </trkpt>
      <trkpt lat="47.612103" lon="1.9627266">
        <ele>165.0</ele>
        <time>2022-04-14T09:25:25Z</time>
      </trkpt>
      <trkpt lat="47.612103" lon="1.9627508">
        <ele>164.0</ele>
        <time>2022-04-14T09:25:26Z</time>
      </trkpt>
      <trkpt lat="47.612106" lon="1.9627692">
        <ele>164.0</ele>
        <time>2022-04-14T09:25:27Z</time>
      </trkpt>
      <trkpt lat="47.61211" lon="1.9627886">
        <ele>164.0</ele>
        <time>2022-04-14T09:25:28Z</time>
      </trkpt>
      <trkpt lat="47.612106" lon="1.9628016">
        <ele>165.0</ele>
        <time>2022-04-14T09:25:29Z</time>
      </trkpt>
      <trkpt lat="47.6121" lon="1.9628206">
        <ele>164.0</ele>
        <time>2022-04-14T09:25:30Z</time>
      </trkpt>
      <trkpt lat="47.612087" lon="1.9628388">
        <ele>164.0</ele>
        <time>2022-04-14T09:25:31Z</time>
      </trkpt>
      <trkpt lat="47.612083" lon="1.9628508">
        <ele>164.0</ele>
        <time>2022-04-14T09:25:32Z</time>
      </trkpt>
      <trkpt lat="47.612083" lon="1.9628603">
        <ele>163.0</ele>
        <time>2022-04-14T09:25:33Z</time>
      </trkpt>
      <trkpt lat="47.61208" lon="1.9628726">
        <ele>163.0</ele>
        <time>2022-04-14T09:25:34Z</time>
      </trkpt>
      <trkpt lat="47.61208" lon="1.9628869">
        <ele>163.0</ele>
        <time>2022-04-14T09:25:35Z</time>
      </trkpt>
      <trkpt lat="47.612083" lon="1.9629022">
        <ele>162.0</ele>
        <time>2022-04-14T09:25:36Z</time>
      </trkpt>
      <trkpt lat="47.612083" lon="1.9629165">
        <ele>162.0</ele>
        <time>2022-04-14T09:25:37Z</time>
      </trkpt>
      <trkpt lat="47.612083" lon="1.9629343">
        <ele>161.0</ele>
        <time>2022-04-14T09:25:38Z</time>
      </trkpt>
      <trkpt lat="47.612083" lon="1.9629502">
        <ele>161.0</ele>
        <time>2022-04-14T09:25:39Z</time>
      </trkpt>
      <trkpt lat="47.612083" lon="1.9629614">
        <ele>161.0</ele>
        <time>2022-04-14T09:25:40Z</time>
      </trkpt>
      <trkpt lat="47.612083" lon="1.9629759">
        <ele>161.0</ele>
        <time>2022-04-14T09:25:41Z</time>
      </trkpt>
      <trkpt lat="47.612083" lon="1.9629898">
        <ele>161.0</ele>
        <time>2022-04-14T09:25:42Z</time>
      </trkpt>
      <trkpt lat="47.61208" lon="1.9629992">
        <ele>160.0</ele>
        <time>2022-04-14T09:25:43Z</time>
      </trkpt>
      <trkpt lat="47.612076" lon="1.9630105">
        <ele>160.0</ele>
        <time>2022-04-14T09:25:44Z</time>
      </trkpt>
      <trkpt lat="47.612072" lon="1.9630234">
        <ele>160.0</ele>
        <time>2022-04-14T09:25:45Z</time>
      </trkpt>
      <trkpt lat="47.612064" lon="1.9630369">
        <ele>159.0</ele>
        <time>2022-04-14T09:25:46Z</time>
      </trkpt>
      <trkpt lat="47.612057" lon="1.9630451">
        <ele>159.0</ele>
        <time>2022-04-14T09:25:47Z</time>
      </trkpt>
      <trkpt lat="47.612045" lon="1.9630538">
        <ele>159.0</ele>
        <time>2022-04-14T09:25:48Z</time>
      </trkpt>
      <trkpt lat="47.612034" lon="1.9630588">
        <ele>159.0</ele>
        <time>2022-04-14T09:25:49Z</time>
      </trkpt>
      <trkpt lat="47.612022" lon="1.9630618">
        <ele>159.0</ele>
        <time>2022-04-14T09:25:50Z</time>
      </trkpt>
      <trkpt lat="47.612015" lon="1.9630588">
        <ele>158.0</ele>
        <time>2022-04-14T09:25:51Z</time>
      </trkpt>
      <trkpt lat="47.612007" lon="1.9630543">
        <ele>158.0</ele>
        <time>2022-04-14T09:25:52Z</time>
      </trkpt>
      <trkpt lat="47.61199" lon="1.9630502">
        <ele>158.0</ele>
        <time>2022-04-14T09:25:53Z</time>
      </trkpt>
      <trkpt lat="47.61198" lon="1.9630488">
        <ele>158.0</ele>
        <time>2022-04-14T09:25:54Z</time>
      </trkpt>
      <trkpt lat="47.611965" lon="1.9630513">
        <ele>158.0</ele>
        <time>2022-04-14T09:25:55Z</time>
      </trkpt>
      <trkpt lat="47.611954" lon="1.9630506">
        <ele>157.0</ele>
        <time>2022-04-14T09:25:56Z</time>
      </trkpt>
      <trkpt lat="47.611946" lon="1.9630488">
        <ele>157.0</ele>
        <time>2022-04-14T09:25:57Z</time>
      </trkpt>
      <trkpt lat="47.611935" lon="1.9630445">
        <ele>157.0</ele>
        <time>2022-04-14T09:25:58Z</time>
      </trkpt>
      <trkpt lat="47.611927" lon="1.9630382">
        <ele>156.0</ele>
        <time>2022-04-14T09:25:59Z</time>
      </trkpt>
      <trkpt lat="47.611916" lon="1.9630361">
        <ele>156.0</ele>
        <time>2022-04-14T09:26:00Z</time>
      </trkpt>
      <trkpt lat="47.611908" lon="1.9630291">
        <ele>156.0</ele>
        <time>2022-04-14T09:26:01Z</time>
      </trkpt>
      <trkpt lat="47.6119" lon="1.96302">
        <ele>156.0</ele>
        <time>2022-04-14T09:26:02Z</time>
      </trkpt>
      <trkpt lat="47.61189" lon="1.9630147">
        <ele>156.0</ele>
        <time>2022-04-14T09:26:03Z</time>
      </trkpt>
      <trkpt lat="47.611877" lon="1.96301">
        <ele>156.0</ele>
        <time>2022-04-14T09:26:04Z</time>
      </trkpt>
      <trkpt lat="47.611866" lon="1.9630041">
        <ele>156.0</ele>
        <time>2022-04-14T09:26:05Z</time>
      </trkpt>
      <trkpt lat="47.611855" lon="1.9630015">
        <ele>155.0</ele>
        <time>2022-04-14T09:26:06Z</time>
      </trkpt>
      <trkpt lat="47.611843" lon="1.9629954">
        <ele>155.0</ele>
        <time>2022-04-14T09:26:07Z</time>
      </trkpt>
      <trkpt lat="47.61183" lon="1.9629909">
        <ele>155.0</ele>
        <time>2022-04-14T09:26:08Z</time>
      </trkpt>
      <trkpt lat="47.61182" lon="1.9629918">
        <ele>154.0</ele>
        <time>2022-04-14T09:26:09Z</time>
      </trkpt>
      <trkpt lat="47.61181" lon="1.9629912">
        <ele>154.0</ele>
        <time>2022-04-14T09:26:10Z</time>
      </trkpt>
      <trkpt lat="47.6118" lon="1.9629942">
        <ele>153.0</ele>
        <time>2022-04-14T09:26:11Z</time>
      </trkpt>
      <trkpt lat="47.61179" lon="1.9629948">
        <ele>153.0</ele>
        <time>2022-04-14T09:26:12Z</time>
      </trkpt>
      <trkpt lat="47.61178" lon="1.9629968">
        <ele>153.0</ele>
        <time>2022-04-14T09:26:13Z</time>
      </trkpt>
      <trkpt lat="47.61177" lon="1.9629954">
        <ele>152.0</ele>
        <time>2022-04-14T09:26:14Z</time>
      </trkpt>
      <trkpt lat="47.611755" lon="1.9629928">
        <ele>153.0</ele>
        <time>2022-04-14T09:26:15Z</time>
      </trkpt>
      <trkpt lat="47.611744" lon="1.9629897">
        <ele>153.0</ele>
        <time>2022-04-14T09:26:16Z</time>
      </trkpt>
      <trkpt lat="47.611736" lon="1.9629873">
        <ele>152.0</ele>
        <time>2022-04-14T09:26:17Z</time>
      </trkpt>
      <trkpt lat="47.61173" lon="1.9629891">
        <ele>152.0</ele>
        <time>2022-04-14T09:26:18Z</time>
      </trkpt>
      <trkpt lat="47.61172" lon="1.9629862">
        <ele>152.0</ele>
        <time>2022-04-14T09:26:19Z</time>
      </trkpt>
      <trkpt lat="47.611706" lon="1.9629893">
        <ele>152.0</ele>
        <time>2022-04-14T09:26:20Z</time>
      </trkpt>
      <trkpt lat="47.6117" lon="1.9629892">
        <ele>152.0</ele>
        <time>2022-04-14T09:26:21Z</time>
      </trkpt>
      <trkpt lat="47.611687" lon="1.9629884">
        <ele>152.0</ele>
        <time>2022-04-14T09:26:22Z</time>
      </trkpt>
      <trkpt lat="47.61168" lon="1.962987">
        <ele>152.0</ele>
        <time>2022-04-14T09:26:23Z</time>
      </trkpt>
      <trkpt lat="47.611668" lon="1.9629861">
        <ele>151.0</ele>
        <time>2022-04-14T09:26:24Z</time>
      </trkpt>
      <trkpt lat="47.611664" lon="1.9629872">
        <ele>152.0</ele>
        <time>2022-04-14T09:26:25Z</time>
      </trkpt>
      <trkpt lat="47.611656" lon="1.9629836">
        <ele>151.0</ele>
        <time>2022-04-14T09:26:26Z</time>
      </trkpt>
      <trkpt lat="47.61165" lon="1.9629818">
        <ele>151.0</ele>
        <time>2022-04-14T09:26:27Z</time>
      </trkpt>
      <trkpt lat="47.61164" lon="1.9629859">
        <ele>151.0</ele>
        <time>2022-04-14T09:26:28Z</time>
      </trkpt>
      <trkpt lat="47.611633" lon="1.9629946">
        <ele>151.0</ele>
        <time>2022-04-14T09:26:29Z</time>
      </trkpt>
      <trkpt lat="47.611626" lon="1.9630058">
        <ele>151.0</ele>
        <time>2022-04-14T09:26:30Z</time>
      </trkpt>
      <trkpt lat="47.611618" lon="1.96302">
        <ele>151.0</ele>
        <time>2022-04-14T09:26:31Z</time>
      </trkpt>
      <trkpt lat="47.611614" lon="1.9630299">
        <ele>151.0</ele>
        <time>2022-04-14T09:26:32Z</time>
      </trkpt>
      <trkpt lat="47.611607" lon="1.9630377">
        <ele>151.0</ele>
        <time>2022-04-14T09:26:33Z</time>
      </trkpt>
      <trkpt lat="47.6116" lon="1.9630438">
        <ele>150.0</ele>
        <time>2022-04-14T09:26:34Z</time>
      </trkpt>
      <trkpt lat="47.61159" lon="1.9630513">
        <ele>150.0</ele>
        <time>2022-04-14T09:26:35Z</time>
      </trkpt>
      <trkpt lat="47.611588" lon="1.963059">
        <ele>150.0</ele>
        <time>2022-04-14T09:26:36Z</time>
      </trkpt>
      <trkpt lat="47.611584" lon="1.9630717">
        <ele>149.0</ele>
        <time>2022-04-14T09:26:37Z</time>
      </trkpt>
      <trkpt lat="47.611576" lon="1.963088">
        <ele>149.0</ele>
        <time>2022-04-14T09:26:38Z</time>
      </trkpt>
      <trkpt lat="47.61157" lon="1.9631019">
        <ele>149.0</ele>
        <time>2022-04-14T09:26:39Z</time>
      </trkpt>
      <trkpt lat="47.61156" lon="1.9631072">
        <ele>149.0</ele>
        <time>2022-04-14T09:26:40Z</time>
      </trkpt>
      <trkpt lat="47.611557" lon="1.9631195">
        <ele>150.0</ele>
        <time>2022-04-14T09:26:41Z</time>
      </trkpt>
      <trkpt lat="47.61155" lon="1.9631283">
        <ele>149.0</ele>
        <time>2022-04-14T09:26:42Z</time>
      </trkpt>
      <trkpt lat="47.611546" lon="1.9631406">
        <ele>149.0</ele>
        <time>2022-04-14T09:26:43Z</time>
      </trkpt>
      <trkpt lat="47.61153" lon="1.9631553">
        <ele>149.0</ele>
        <time>2022-04-14T09:26:45Z</time>
      </trkpt>
      <trkpt lat="47.61153" lon="1.9631553">
        <ele>149.0</ele>
        <time>2022-04-14T09:26:45Z</time>
      </trkpt>
      <trkpt lat="47.611523" lon="1.9631594">
        <ele>149.0</ele>
        <time>2022-04-14T09:26:46Z</time>
      </trkpt>
      <trkpt lat="47.61152" lon="1.9631636">
        <ele>149.0</ele>
        <time>2022-04-14T09:26:47Z</time>
      </trkpt>
      <trkpt lat="47.611507" lon="1.9631823">
        <ele>149.0</ele>
        <time>2022-04-14T09:26:49Z</time>
      </trkpt>
      <trkpt lat="47.611507" lon="1.9631823">
        <ele>149.0</ele>
        <time>2022-04-14T09:26:49Z</time>
      </trkpt>
      <trkpt lat="47.611504" lon="1.9631941">
        <ele>150.0</ele>
        <time>2022-04-14T09:26:50Z</time>
      </trkpt>
      <trkpt lat="47.6115" lon="1.9632087">
        <ele>149.0</ele>
        <time>2022-04-14T09:26:51Z</time>
      </trkpt>
      <trkpt lat="47.6115" lon="1.9632256">
        <ele>149.0</ele>
        <time>2022-04-14T09:26:52Z</time>
      </trkpt>
      <trkpt lat="47.611496" lon="1.9632437">
        <ele>149.0</ele>
        <time>2022-04-14T09:26:53Z</time>
      </trkpt>
      <trkpt lat="47.611492" lon="1.963262">
        <ele>149.0</ele>
        <time>2022-04-14T09:26:54Z</time>
      </trkpt>
      <trkpt lat="47.611492" lon="1.9632828">
        <ele>149.0</ele>
        <time>2022-04-14T09:26:55Z</time>
      </trkpt>
      <trkpt lat="47.611492" lon="1.9632983">
        <ele>149.0</ele>
        <time>2022-04-14T09:26:56Z</time>
      </trkpt>
      <trkpt lat="47.611492" lon="1.9633172">
        <ele>149.0</ele>
        <time>2022-04-14T09:26:57Z</time>
      </trkpt>
      <trkpt lat="47.611492" lon="1.9633362">
        <ele>149.0</ele>
        <time>2022-04-14T09:26:58Z</time>
      </trkpt>
      <trkpt lat="47.611496" lon="1.9633547">
        <ele>150.0</ele>
        <time>2022-04-14T09:26:59Z</time>
      </trkpt>
      <trkpt lat="47.611496" lon="1.9633706">
        <ele>150.0</ele>
        <time>2022-04-14T09:27:00Z</time>
      </trkpt>
      <trkpt lat="47.611496" lon="1.9633818">
        <ele>151.0</ele>
        <time>2022-04-14T09:27:01Z</time>
      </trkpt>
      <trkpt lat="47.6115" lon="1.9634035">
        <ele>151.0</ele>
        <time>2022-04-14T09:27:02Z</time>
      </trkpt>
      <trkpt lat="47.6115" lon="1.9634036">
        <ele>151.0</ele>
        <time>2022-04-14T09:27:03Z</time>
      </trkpt>
      <trkpt lat="47.6115" lon="1.9634037">
        <ele>151.0</ele>
        <time>2022-04-14T09:27:04Z</time>
      </trkpt>
      <trkpt lat="47.6115" lon="1.9634037">
        <ele>151.0</ele>
        <time>2022-04-14T09:27:04Z</time>
      </trkpt>
      <trkpt lat="47.6115" lon="1.9634037">
        <ele>151.0</ele>
        <time>2022-04-14T09:27:04Z</time>
      </trkpt>
      <trkpt lat="47.611515" lon="1.9634775">
        <ele>154.0</ele>
        <time>2022-04-14T09:27:39Z</time>
      </trkpt>
      <trkpt lat="47.611515" lon="1.9634775">
        <ele>154.0</ele>
        <time>2022-04-14T09:27:40Z</time>
      </trkpt>
      <trkpt lat="47.611515" lon="1.9634775">
        <ele>154.0</ele>
        <time>2022-04-14T09:27:41Z</time>
      </trkpt>
      <trkpt lat="47.611515" lon="1.9634775">
        <ele>154.0</ele>
        <time>2022-04-14T09:27:42Z</time>
      </trkpt>
      <trkpt lat="47.611515" lon="1.9634775">
        <ele>154.0</ele>
        <time>2022-04-14T09:27:42Z</time>
      </trkpt>
      <trkpt lat="47.611515" lon="1.9634775">
        <ele>154.0</ele>
        <time>2022-04-14T09:27:42Z</time>
      </trkpt>
      <trkpt lat="47.61151" lon="1.9634945">
        <ele>159.0</ele>
        <time>2022-04-14T09:28:08Z</time>
      </trkpt>
      <trkpt lat="47.61151" lon="1.9634945">
        <ele>159.0</ele>
        <time>2022-04-14T09:28:09Z</time>
      </trkpt>
      <trkpt lat="47.61151" lon="1.9634945">
        <ele>159.0</ele>
        <time>2022-04-14T09:28:10Z</time>
      </trkpt>
      <trkpt lat="47.61151" lon="1.9634945">
        <ele>159.0</ele>
        <time>2022-04-14T09:28:11Z</time>
      </trkpt>
      <trkpt lat="47.61151" lon="1.9634945">
        <ele>159.0</ele>
        <time>2022-04-14T09:28:12Z</time>
      </trkpt>
      <trkpt lat="47.61151" lon="1.9634945">
        <ele>159.0</ele>
        <time>2022-04-14T09:28:13Z</time>
      </trkpt>
      <trkpt lat="47.61151" lon="1.9634945">
        <ele>159.0</ele>
        <time>2022-04-14T09:28:13Z</time>
      </trkpt>
      <trkpt lat="47.61151" lon="1.9634945">
        <ele>159.0</ele>
        <time>2022-04-14T09:28:13Z</time>
      </trkpt>
    </trkseg>
  </trk>
  <exerciseinfo>
    <exercisetype>1001</exercisetype>
    <distance>9505.98</distance>
    <elevationgain>0.0</elevationgain>
    <avggradient>-0.1763288869852167</avggradient>
    <duration>7621766</duration>
    <avgspeed>1.2478325</avgspeed>
  </exerciseinfo>
</gpx>